﻿<?xml version="1.0" encoding="utf-8"?><gpx creator="Garmin Desktop App" version="1.1" xsi:schemaLocation="http://www.topografix.com/GPX/1/1 http://www.topografix.com/GPX/1/1/gpx.xsd http://www.garmin.com/xmlschemas/WaypointExtension/v1 http://www8.garmin.com/xmlschemas/WaypointExtensionv1.xsd http://www.garmin.com/xmlschemas/TrackPointExtension/v1 http://www.garmin.com/xmlschemas/TrackPointExtensionv1.xsd http://www.garmin.com/xmlschemas/GpxExtensions/v3 http://www8.garmin.com/xmlschemas/GpxExtensionsv3.xsd http://www.garmin.com/xmlschemas/ActivityExtension/v1 http://www8.garmin.com/xmlschemas/ActivityExtensionv1.xsd http://www.garmin.com/xmlschemas/AdventuresExtensions/v1 http://www8.garmin.com/xmlschemas/AdventuresExtensionv1.xsd http://www.garmin.com/xmlschemas/PressureExtension/v1 http://www.garmin.com/xmlschemas/PressureExtensionv1.xsd http://www.garmin.com/xmlschemas/TripExtensions/v1 http://www.garmin.com/xmlschemas/TripExtensionsv1.xsd http://www.garmin.com/xmlschemas/TripMetaDataExtensions/v1 http://www.garmin.com/xmlschemas/TripMetaDataExtensionsv1.xsd http://www.garmin.com/xmlschemas/ViaPointTransportationModeExtensions/v1 http://www.garmin.com/xmlschemas/ViaPointTransportationModeExtensionsv1.xsd http://www.garmin.com/xmlschemas/CreationTimeExtension/v1 http://www.garmin.com/xmlschemas/CreationTimeExtensionsv1.xsd http://www.garmin.com/xmlschemas/AccelerationExtension/v1 http://www.garmin.com/xmlschemas/AccelerationExtensionv1.xsd http://www.garmin.com/xmlschemas/PowerExtension/v1 http://www.garmin.com/xmlschemas/PowerExtensionv1.xsd http://www.garmin.com/xmlschemas/VideoExtension/v1 http://www.garmin.com/xmlschemas/VideoExtensionv1.xsd" xmlns="http://www.topografix.com/GPX/1/1" xmlns:xsi="http://www.w3.org/2001/XMLSchema-instance" xmlns:wptx1="http://www.garmin.com/xmlschemas/WaypointExtension/v1" xmlns:gpxtrx="http://www.garmin.com/xmlschemas/GpxExtensions/v3" xmlns:gpxtpx="http://www.garmin.com/xmlschemas/TrackPointExtension/v1" xmlns:gpxx="http://www.garmin.com/xmlschemas/GpxExtensions/v3" xmlns:trp="http://www.garmin.com/xmlschemas/TripExtensions/v1" xmlns:adv="http://www.garmin.com/xmlschemas/AdventuresExtensions/v1" xmlns:prs="http://www.garmin.com/xmlschemas/PressureExtension/v1" xmlns:tmd="http://www.garmin.com/xmlschemas/TripMetaDataExtensions/v1" xmlns:vptm="http://www.garmin.com/xmlschemas/ViaPointTransportationModeExtensions/v1" xmlns:ctx="http://www.garmin.com/xmlschemas/CreationTimeExtension/v1" xmlns:gpxacc="http://www.garmin.com/xmlschemas/AccelerationExtension/v1" xmlns:gpxpx="http://www.garmin.com/xmlschemas/PowerExtension/v1" xmlns:vidx1="http://www.garmin.com/xmlschemas/VideoExtension/v1">

  <metadata>
    <link href="http://www.garmin.com">
      <text>Garmin International</text>
    </link>
    <time>2025-05-19T19:28:17Z</time>
    <bounds maxlat="46.17356400936842" maxlon="8.801865018904209" minlat="43.736787009984255" minlon="7.421501018106937" />
  </metadata>

  <trk>
    <name>250519_G_Track</name>
    <extensions>
      <gpxx:TrackExtension>
        <gpxx:DisplayColor>DarkGray</gpxx:DisplayColor>
      </gpxx:TrackExtension>
    </extensions>
    <trkseg>
      <trkpt lat="43.747591031715274" lon="7.427619975060225">
        <ele>147.69999999999999</ele>
        <time>2025-05-19T06:03:44Z</time>
      </trkpt>
      <trkpt lat="43.747634030878544" lon="7.427896996960044">
        <ele>128.47</ele>
        <time>2025-05-19T06:04:49Z</time>
      </trkpt>
      <trkpt lat="43.74760796315968" lon="7.427963968366385">
        <ele>133.75999999999999</ele>
        <time>2025-05-19T06:05:28Z</time>
      </trkpt>
      <trkpt lat="43.747673006728292" lon="7.427956005558372">
        <ele>135.68000000000001</ele>
        <time>2025-05-19T06:06:02Z</time>
      </trkpt>
      <trkpt lat="43.747673006728292" lon="7.427957011386752">
        <ele>135.68000000000001</ele>
        <time>2025-05-19T06:06:36Z</time>
      </trkpt>
      <trkpt lat="43.747673006728292" lon="7.427958017215133">
        <ele>135.19999999999999</ele>
        <time>2025-05-19T06:07:18Z</time>
      </trkpt>
      <trkpt lat="43.74766998924315" lon="7.427959023043513">
        <ele>135.19999999999999</ele>
        <time>2025-05-19T06:07:51Z</time>
      </trkpt>
      <trkpt lat="43.74766998924315" lon="7.427959023043513">
        <ele>135.19999999999999</ele>
        <time>2025-05-19T06:08:30Z</time>
      </trkpt>
      <trkpt lat="43.747667977586389" lon="7.427959023043513">
        <ele>134.72</ele>
        <time>2025-05-19T06:09:12Z</time>
      </trkpt>
      <trkpt lat="43.747665965929627" lon="7.427962040528655">
        <ele>134.72</ele>
        <time>2025-05-19T06:09:56Z</time>
      </trkpt>
      <trkpt lat="43.747665965929627" lon="7.427964974194765">
        <ele>134.72</ele>
        <time>2025-05-19T06:10:39Z</time>
      </trkpt>
      <trkpt lat="43.747666971758008" lon="7.427960028871894">
        <ele>134.72</ele>
        <time>2025-05-19T06:11:26Z</time>
      </trkpt>
      <trkpt lat="43.74766998924315" lon="7.427976038306952">
        <ele>135.19999999999999</ele>
        <time>2025-05-19T06:11:47Z</time>
      </trkpt>
      <trkpt lat="43.747662026435137" lon="7.427970003336668">
        <ele>135.68000000000001</ele>
        <time>2025-05-19T06:11:53Z</time>
      </trkpt>
      <trkpt lat="43.747635036706924" lon="7.427903031930327">
        <ele>135.19999999999999</ele>
        <time>2025-05-19T06:11:55Z</time>
      </trkpt>
      <trkpt lat="43.747658003121614" lon="7.427765987813473">
        <ele>134.72</ele>
        <time>2025-05-19T06:11:58Z</time>
      </trkpt>
      <trkpt lat="43.747783983126283" lon="7.427382012829185">
        <ele>133.28</ele>
        <time>2025-05-19T06:12:07Z</time>
      </trkpt>
      <trkpt lat="43.747805021703243" lon="7.427335996180773">
        <ele>132.80000000000001</ele>
        <time>2025-05-19T06:12:08Z</time>
      </trkpt>
      <trkpt lat="43.747827988117933" lon="7.42728503420949">
        <ele>132.80000000000001</ele>
        <time>2025-05-19T06:12:09Z</time>
      </trkpt>
      <trkpt lat="43.747850032523274" lon="7.427236000075936">
        <ele>132.31999999999999</ele>
        <time>2025-05-19T06:12:10Z</time>
      </trkpt>
      <trkpt lat="43.747870987281203" lon="7.427187971770763">
        <ele>131.84</ele>
        <time>2025-05-19T06:12:11Z</time>
      </trkpt>
      <trkpt lat="43.747982969507575" lon="7.42694104090333">
        <ele>130.40000000000001</ele>
        <time>2025-05-19T06:12:16Z</time>
      </trkpt>
      <trkpt lat="43.748101992532611" lon="7.426691008731723">
        <ele>129.91999999999999</ele>
        <time>2025-05-19T06:12:21Z</time>
      </trkpt>
      <trkpt lat="43.748073996976018" lon="7.426645997911692">
        <ele>129.43000000000001</ele>
        <time>2025-05-19T06:12:22Z</time>
      </trkpt>
      <trkpt lat="43.748046001419425" lon="7.426600987091661">
        <ele>128.94999999999999</ele>
        <time>2025-05-19T06:12:23Z</time>
      </trkpt>
      <trkpt lat="43.748009959235787" lon="7.426542984321713">
        <ele>129.43000000000001</ele>
        <time>2025-05-19T06:12:24Z</time>
      </trkpt>
      <trkpt lat="43.747983975335956" lon="7.426504008471966">
        <ele>129.43000000000001</ele>
        <time>2025-05-19T06:12:25Z</time>
      </trkpt>
      <trkpt lat="43.747918009757996" lon="7.426406024023891">
        <ele>129.91999999999999</ele>
        <time>2025-05-19T06:12:27Z</time>
      </trkpt>
      <trkpt lat="43.747891020029783" lon="7.426365958526731">
        <ele>129.91999999999999</ele>
        <time>2025-05-19T06:12:28Z</time>
      </trkpt>
      <trkpt lat="43.747861012816429" lon="7.426320025697351">
        <ele>130.40000000000001</ele>
        <time>2025-05-19T06:12:29Z</time>
      </trkpt>
      <trkpt lat="43.747771997004747" lon="7.42619002237916">
        <ele>130.40000000000001</ele>
        <time>2025-05-19T06:12:32Z</time>
      </trkpt>
      <trkpt lat="43.747742995619774" lon="7.42614702321589">
        <ele>130.40000000000001</ele>
        <time>2025-05-19T06:12:33Z</time>
      </trkpt>
      <trkpt lat="43.747710976749659" lon="7.426101006567478">
        <ele>130.88</ele>
        <time>2025-05-19T06:12:34Z</time>
      </trkpt>
      <trkpt lat="43.747681975364685" lon="7.426059013232589">
        <ele>131.36000000000001</ele>
        <time>2025-05-19T06:12:35Z</time>
      </trkpt>
      <trkpt lat="43.747652973979712" lon="7.426016014069319">
        <ele>131.36000000000001</ele>
        <time>2025-05-19T06:12:36Z</time>
      </trkpt>
      <trkpt lat="43.747621960937977" lon="7.425971003249288">
        <ele>131.84</ele>
        <time>2025-05-19T06:12:37Z</time>
      </trkpt>
      <trkpt lat="43.74752095900476" lon="7.425902020186186">
        <ele>132.80000000000001</ele>
        <time>2025-05-19T06:12:40Z</time>
      </trkpt>
      <trkpt lat="43.74747603200376" lon="7.425878969952464">
        <ele>132.80000000000001</ele>
        <time>2025-05-19T06:12:41Z</time>
      </trkpt>
      <trkpt lat="43.747473014518619" lon="7.425877964124084">
        <ele>132.80000000000001</ele>
        <time>2025-05-19T06:12:42Z</time>
      </trkpt>
      <trkpt lat="43.747397996485233" lon="7.425903026014566">
        <ele>132.31999999999999</ele>
        <time>2025-05-19T06:12:44Z</time>
      </trkpt>
      <trkpt lat="43.747345022857189" lon="7.425920963287354">
        <ele>131.84</ele>
        <time>2025-05-19T06:12:45Z</time>
      </trkpt>
      <trkpt lat="43.747345022857189" lon="7.425920963287354">
        <ele>131.84</ele>
        <time>2025-05-19T06:12:46Z</time>
      </trkpt>
      <trkpt lat="43.747279979288578" lon="7.426006961613894">
        <ele>130.88</ele>
        <time>2025-05-19T06:12:48Z</time>
      </trkpt>
      <trkpt lat="43.747268998995423" lon="7.426041997969151">
        <ele>130.40000000000001</ele>
        <time>2025-05-19T06:12:49Z</time>
      </trkpt>
      <trkpt lat="43.747247038409114" lon="7.426110981032252">
        <ele>129.43000000000001</ele>
        <time>2025-05-19T06:12:50Z</time>
      </trkpt>
      <trkpt lat="43.747223988175392" lon="7.426184993237257">
        <ele>128.94999999999999</ele>
        <time>2025-05-19T06:12:51Z</time>
      </trkpt>
      <trkpt lat="43.747201021760702" lon="7.426257999613881">
        <ele>127.98999999999999</ele>
        <time>2025-05-19T06:12:52Z</time>
      </trkpt>
      <trkpt lat="43.7471769656986" lon="7.426336035132408">
        <ele>127.51000000000001</ele>
        <time>2025-05-19T06:12:53Z</time>
      </trkpt>
      <trkpt lat="43.74713103286922" lon="7.426482969895005">
        <ele>125.59</ele>
        <time>2025-05-19T06:12:55Z</time>
      </trkpt>
      <trkpt lat="43.747109994292259" lon="7.426549019291997">
        <ele>125.11</ele>
        <time>2025-05-19T06:12:56Z</time>
      </trkpt>
      <trkpt lat="43.74708803370595" lon="7.426618002355099">
        <ele>124.15000000000001</ele>
        <time>2025-05-19T06:12:57Z</time>
      </trkpt>
      <trkpt lat="43.747064983472228" lon="7.426690002903342">
        <ele>123.19</ele>
        <time>2025-05-19T06:12:58Z</time>
      </trkpt>
      <trkpt lat="43.747037993744016" lon="7.426765020936728">
        <ele>122.22</ele>
        <time>2025-05-19T06:12:59Z</time>
      </trkpt>
      <trkpt lat="43.746872032061219" lon="7.426971970126033">
        <ele>118.86</ele>
        <time>2025-05-19T06:13:03Z</time>
      </trkpt>
      <trkpt lat="43.74683003872633" lon="7.426951015368104">
        <ele>117.90000000000001</ele>
        <time>2025-05-19T06:13:04Z</time>
      </trkpt>
      <trkpt lat="43.74683003872633" lon="7.426951015368104">
        <ele>116.94</ele>
        <time>2025-05-19T06:13:05Z</time>
      </trkpt>
      <trkpt lat="43.746764995157719" lon="7.426971970126033">
        <ele>115.01000000000001</ele>
        <time>2025-05-19T06:13:07Z</time>
      </trkpt>
      <trkpt lat="43.746690982952714" lon="7.427033996209502">
        <ele>113.09</ele>
        <time>2025-05-19T06:13:09Z</time>
      </trkpt>
      <trkpt lat="43.746635997667909" lon="7.427080012857914">
        <ele>112.61</ele>
        <time>2025-05-19T06:13:10Z</time>
      </trkpt>
      <trkpt lat="43.74659601598978" lon="7.42711303755641">
        <ele>112.13</ele>
        <time>2025-05-19T06:13:11Z</time>
      </trkpt>
      <trkpt lat="43.746280018240213" lon="7.427231976762414">
        <ele>110.69</ele>
        <time>2025-05-19T06:13:16Z</time>
      </trkpt>
      <trkpt lat="43.746185973286629" lon="7.427251003682613">
        <ele>110.20999999999999</ele>
        <time>2025-05-19T06:13:17Z</time>
      </trkpt>
      <trkpt lat="43.746134005486965" lon="7.427262989804149">
        <ele>110.20999999999999</ele>
        <time>2025-05-19T06:13:18Z</time>
      </trkpt>
      <trkpt lat="43.746065022423863" lon="7.427278999239206">
        <ele>109.73</ele>
        <time>2025-05-19T06:13:19Z</time>
      </trkpt>
      <trkpt lat="43.746000984683633" lon="7.427294002845883">
        <ele>108.77</ele>
        <time>2025-05-19T06:13:20Z</time>
      </trkpt>
      <trkpt lat="43.745935019105673" lon="7.42730900645256">
        <ele>107.81</ele>
        <time>2025-05-19T06:13:21Z</time>
      </trkpt>
      <trkpt lat="43.74590702354908" lon="7.427315963432193">
        <ele>107.31999999999999</ele>
        <time>2025-05-19T06:13:22Z</time>
      </trkpt>
      <trkpt lat="43.745799986645579" lon="7.427337002009153">
        <ele>106.84</ele>
        <time>2025-05-19T06:13:23Z</time>
      </trkpt>
      <trkpt lat="43.745727986097336" lon="7.427320992574096">
        <ele>106.36</ele>
        <time>2025-05-19T06:13:24Z</time>
      </trkpt>
      <trkpt lat="43.745677024126053" lon="7.427291991189122">
        <ele>105.40000000000001</ele>
        <time>2025-05-19T06:13:25Z</time>
      </trkpt>
      <trkpt lat="43.745635030791163" lon="7.427268018946052">
        <ele>104.92</ele>
        <time>2025-05-19T06:13:26Z</time>
      </trkpt>
      <trkpt lat="43.745597982779145" lon="7.42720196954906">
        <ele>105.88</ele>
        <time>2025-05-19T06:13:27Z</time>
      </trkpt>
      <trkpt lat="43.745591025799513" lon="7.42715897038579">
        <ele>105.40000000000001</ele>
        <time>2025-05-19T06:13:28Z</time>
      </trkpt>
      <trkpt lat="43.745617009699345" lon="7.427090993151069">
        <ele>104.92</ele>
        <time>2025-05-19T06:13:29Z</time>
      </trkpt>
      <trkpt lat="43.745662020519376" lon="7.427096022292972">
        <ele>104.44</ele>
        <time>2025-05-19T06:13:30Z</time>
      </trkpt>
      <trkpt lat="43.745705019682646" lon="7.427114965394139">
        <ele>103.95999999999999</ele>
        <time>2025-05-19T06:13:31Z</time>
      </trkpt>
      <trkpt lat="43.745756987482309" lon="7.427139021456242">
        <ele>103</ele>
        <time>2025-05-19T06:13:32Z</time>
      </trkpt>
      <trkpt lat="43.745813984423876" lon="7.427165005356073">
        <ele>103</ele>
        <time>2025-05-19T06:13:33Z</time>
      </trkpt>
      <trkpt lat="43.745870981365442" lon="7.427191995084286">
        <ele>102.52</ele>
        <time>2025-05-19T06:13:34Z</time>
      </trkpt>
      <trkpt lat="43.74590702354908" lon="7.427209010347724">
        <ele>102.04000000000001</ele>
        <time>2025-05-19T06:13:35Z</time>
      </trkpt>
      <trkpt lat="43.745962008833885" lon="7.427167017012835">
        <ele>102.52</ele>
        <time>2025-05-19T06:13:36Z</time>
      </trkpt>
      <trkpt lat="43.745988998562098" lon="7.427146984264255">
        <ele>102.52</ele>
        <time>2025-05-19T06:13:37Z</time>
      </trkpt>
      <trkpt lat="43.745986986905336" lon="7.427118988707662">
        <ele>102.52</ele>
        <time>2025-05-19T06:13:38Z</time>
      </trkpt>
      <trkpt lat="43.745977012440562" lon="7.427080012857914">
        <ele>103</ele>
        <time>2025-05-19T06:13:39Z</time>
      </trkpt>
      <trkpt lat="43.745958991348743" lon="7.427057968452573">
        <ele>103</ele>
        <time>2025-05-19T06:13:40Z</time>
      </trkpt>
      <trkpt lat="43.745910963043571" lon="7.427057968452573">
        <ele>103.48</ele>
        <time>2025-05-19T06:13:41Z</time>
      </trkpt>
      <trkpt lat="43.745748018845916" lon="7.4269840400666">
        <ele>104.44</ele>
        <time>2025-05-19T06:13:44Z</time>
      </trkpt>
      <trkpt lat="43.745583985000849" lon="7.426906004548073">
        <ele>105.40000000000001</ele>
        <time>2025-05-19T06:13:46Z</time>
      </trkpt>
      <trkpt lat="43.745538974180818" lon="7.426830986514688">
        <ele>105.88</ele>
        <time>2025-05-19T06:13:47Z</time>
      </trkpt>
      <trkpt lat="43.745369995012879" lon="7.426542984321713">
        <ele>107.81</ele>
        <time>2025-05-19T06:13:50Z</time>
      </trkpt>
      <trkpt lat="43.745201015844941" lon="7.426144005730748">
        <ele>110.20999999999999</ele>
        <time>2025-05-19T06:13:54Z</time>
      </trkpt>
      <trkpt lat="43.744842018932104" lon="7.425097022205591">
        <ele>120.3</ele>
        <time>2025-05-19T06:14:04Z</time>
      </trkpt>
      <trkpt lat="43.744736993685365" lon="7.424850007519126">
        <ele>123.67</ele>
        <time>2025-05-19T06:14:07Z</time>
      </trkpt>
      <trkpt lat="43.744727019220591" lon="7.424827041104436">
        <ele>125.11</ele>
        <time>2025-05-19T06:14:08Z</time>
      </trkpt>
      <trkpt lat="43.744727019220591" lon="7.424754034727812">
        <ele>125.59</ele>
        <time>2025-05-19T06:14:09Z</time>
      </trkpt>
      <trkpt lat="43.744727019220591" lon="7.424718998372555">
        <ele>127.03</ele>
        <time>2025-05-19T06:14:10Z</time>
      </trkpt>
      <trkpt lat="43.744734982028604" lon="7.424711035564542">
        <ele>127.98999999999999</ele>
        <time>2025-05-19T06:14:11Z</time>
      </trkpt>
      <trkpt lat="43.744806982576847" lon="7.424680022522807">
        <ele>128.94999999999999</ele>
        <time>2025-05-19T06:14:12Z</time>
      </trkpt>
      <trkpt lat="43.744833972305059" lon="7.424718998372555">
        <ele>129.43000000000001</ele>
        <time>2025-05-19T06:14:13Z</time>
      </trkpt>
      <trkpt lat="43.744860040023923" lon="7.424806002527475">
        <ele>130.40000000000001</ele>
        <time>2025-05-19T06:14:14Z</time>
      </trkpt>
      <trkpt lat="43.744879988953471" lon="7.424871968105435">
        <ele>131.84</ele>
        <time>2025-05-19T06:14:15Z</time>
      </trkpt>
      <trkpt lat="43.744902033358812" lon="7.424947991967201">
        <ele>132.80000000000001</ele>
        <time>2025-05-19T06:14:16Z</time>
      </trkpt>
      <trkpt lat="43.744928017258644" lon="7.425032984465361">
        <ele>133.75999999999999</ele>
        <time>2025-05-19T06:14:17Z</time>
      </trkpt>
      <trkpt lat="43.744954001158476" lon="7.42511797696352">
        <ele>134.72</ele>
        <time>2025-05-19T06:14:18Z</time>
      </trkpt>
      <trkpt lat="43.744987025856972" lon="7.425196012482047">
        <ele>135.68000000000001</ele>
        <time>2025-05-19T06:14:19Z</time>
      </trkpt>
      <trkpt lat="43.745026001706719" lon="7.425275975838304">
        <ele>136.63999999999999</ele>
        <time>2025-05-19T06:14:20Z</time>
      </trkpt>
      <trkpt lat="43.745067995041609" lon="7.425358034670353">
        <ele>137.61000000000001</ele>
        <time>2025-05-19T06:14:21Z</time>
      </trkpt>
      <trkpt lat="43.745104959234595" lon="7.425432968884707">
        <ele>138.09</ele>
        <time>2025-05-19T06:14:22Z</time>
      </trkpt>
      <trkpt lat="43.745142007246614" lon="7.425507986918092">
        <ele>138.09</ele>
        <time>2025-05-19T06:14:23Z</time>
      </trkpt>
      <trkpt lat="43.745190035551786" lon="7.425578981637955">
        <ele>138.09</ele>
        <time>2025-05-19T06:14:24Z</time>
      </trkpt>
      <trkpt lat="43.745341999456286" lon="7.425770005211234">
        <ele>139.05000000000001</ele>
        <time>2025-05-19T06:14:27Z</time>
      </trkpt>
      <trkpt lat="43.745798980817199" lon="7.426264034584165">
        <ele>143.84999999999999</ele>
        <time>2025-05-19T06:14:35Z</time>
      </trkpt>
      <trkpt lat="43.745856983587146" lon="7.426314996555448">
        <ele>144.34</ele>
        <time>2025-05-19T06:14:36Z</time>
      </trkpt>
      <trkpt lat="43.746052030473948" lon="7.426454974338412">
        <ele>146.25999999999999</ele>
        <time>2025-05-19T06:14:39Z</time>
      </trkpt>
      <trkpt lat="43.746193014085293" lon="7.426499985158444">
        <ele>147.69999999999999</ele>
        <time>2025-05-19T06:14:41Z</time>
      </trkpt>
      <trkpt lat="43.746263002976775" lon="7.426499985158444">
        <ele>148.18000000000001</ele>
        <time>2025-05-19T06:14:42Z</time>
      </trkpt>
      <trkpt lat="43.746331986039877" lon="7.426499985158444">
        <ele>149.13999999999999</ele>
        <time>2025-05-19T06:14:43Z</time>
      </trkpt>
      <trkpt lat="43.746432987973094" lon="7.426499985158444">
        <ele>151.06</ele>
        <time>2025-05-19T06:14:45Z</time>
      </trkpt>
      <trkpt lat="43.746442962437868" lon="7.426499985158444">
        <ele>152.03</ele>
        <time>2025-05-19T06:14:46Z</time>
      </trkpt>
      <trkpt lat="43.746442962437868" lon="7.426452040672302">
        <ele>152.50999999999999</ele>
        <time>2025-05-19T06:14:47Z</time>
      </trkpt>
      <trkpt lat="43.746442962437868" lon="7.426395965740085">
        <ele>153.47</ele>
        <time>2025-05-19T06:14:48Z</time>
      </trkpt>
      <trkpt lat="43.746442962437868" lon="7.426350032910705">
        <ele>154.43000000000001</ele>
        <time>2025-05-19T06:14:49Z</time>
      </trkpt>
      <trkpt lat="43.746421001851559" lon="7.426350032910705">
        <ele>154.91</ele>
        <time>2025-05-19T06:14:50Z</time>
      </trkpt>
      <trkpt lat="43.746370961889625" lon="7.426350032910705">
        <ele>155.87</ele>
        <time>2025-05-19T06:14:51Z</time>
      </trkpt>
      <trkpt lat="43.746183039620519" lon="7.426306027919054">
        <ele>158.27000000000001</ele>
        <time>2025-05-19T06:14:54Z</time>
      </trkpt>
      <trkpt lat="43.746112966910005" lon="7.426270991563797">
        <ele>158.75</ele>
        <time>2025-05-19T06:14:55Z</time>
      </trkpt>
      <trkpt lat="43.746013976633549" lon="7.426221035420895">
        <ele>159.24000000000001</ele>
        <time>2025-05-19T06:14:56Z</time>
      </trkpt>
      <trkpt lat="43.745915992185473" lon="7.426064964383841">
        <ele>160.19999999999999</ele>
        <time>2025-05-19T06:14:58Z</time>
      </trkpt>
      <trkpt lat="43.745767967775464" lon="7.425832031294704">
        <ele>162.12</ele>
        <time>2025-05-19T06:15:01Z</time>
      </trkpt>
      <trkpt lat="43.745732009410858" lon="7.425778973847628">
        <ele>162.59999999999999</ele>
        <time>2025-05-19T06:15:02Z</time>
      </trkpt>
      <trkpt lat="43.745695967227221" lon="7.425727006047964">
        <ele>163.08000000000001</ele>
        <time>2025-05-19T06:15:03Z</time>
      </trkpt>
      <trkpt lat="43.74560602940619" lon="7.425595996901393">
        <ele>164.52000000000001</ele>
        <time>2025-05-19T06:15:06Z</time>
      </trkpt>
      <trkpt lat="43.74560602940619" lon="7.425565989688039">
        <ele>165</ele>
        <time>2025-05-19T06:15:07Z</time>
      </trkpt>
      <trkpt lat="43.74560602940619" lon="7.425546962767839">
        <ele>165</ele>
        <time>2025-05-19T06:15:08Z</time>
      </trkpt>
      <trkpt lat="43.745706025511026" lon="7.42552500218153">
        <ele>165.47999999999999</ele>
        <time>2025-05-19T06:15:09Z</time>
      </trkpt>
      <trkpt lat="43.745732009410858" lon="7.4255680013448">
        <ele>165.96000000000001</ele>
        <time>2025-05-19T06:15:10Z</time>
      </trkpt>
      <trkpt lat="43.745768973603845" lon="7.425628015771508">
        <ele>166.44999999999999</ele>
        <time>2025-05-19T06:15:11Z</time>
      </trkpt>
      <trkpt lat="43.745810966938734" lon="7.425695993006229">
        <ele>166.44999999999999</ele>
        <time>2025-05-19T06:15:12Z</time>
      </trkpt>
      <trkpt lat="43.746125958859921" lon="7.426094971597195">
        <ele>166.44999999999999</ele>
        <time>2025-05-19T06:15:17Z</time>
      </trkpt>
      <trkpt lat="43.746220003813505" lon="7.426141994073987">
        <ele>165.96000000000001</ele>
        <time>2025-05-19T06:15:18Z</time>
      </trkpt>
      <trkpt lat="43.746293010190129" lon="7.426178958266974">
        <ele>165.96000000000001</ele>
        <time>2025-05-19T06:15:19Z</time>
      </trkpt>
      <trkpt lat="43.746408009901643" lon="7.426156997680664">
        <ele>165.96000000000001</ele>
        <time>2025-05-19T06:15:20Z</time>
      </trkpt>
      <trkpt lat="43.746512029320002" lon="7.426137970760465">
        <ele>165.47999999999999</ele>
        <time>2025-05-19T06:15:21Z</time>
      </trkpt>
      <trkpt lat="43.746615964919329" lon="7.426118021830916">
        <ele>165</ele>
        <time>2025-05-19T06:15:22Z</time>
      </trkpt>
      <trkpt lat="43.74670498073101" lon="7.426058007404208">
        <ele>164.52000000000001</ele>
        <time>2025-05-19T06:15:23Z</time>
      </trkpt>
      <trkpt lat="43.746799025684595" lon="7.425981983542442">
        <ele>164.03999999999999</ele>
        <time>2025-05-19T06:15:24Z</time>
      </trkpt>
      <trkpt lat="43.746883012354374" lon="7.425900008529425">
        <ele>164.03999999999999</ele>
        <time>2025-05-19T06:15:25Z</time>
      </trkpt>
      <trkpt lat="43.746947972103953" lon="7.425770005211234">
        <ele>164.03999999999999</ele>
        <time>2025-05-19T06:15:26Z</time>
      </trkpt>
      <trkpt lat="43.747009998187423" lon="7.425638996064663">
        <ele>164.03999999999999</ele>
        <time>2025-05-19T06:15:27Z</time>
      </trkpt>
      <trkpt lat="43.747060038149357" lon="7.425489965826273">
        <ele>164.03999999999999</ele>
        <time>2025-05-19T06:15:28Z</time>
      </trkpt>
      <trkpt lat="43.747446024790406" lon="7.424440970644355">
        <ele>163.08000000000001</ele>
        <time>2025-05-19T06:15:35Z</time>
      </trkpt>
      <trkpt lat="43.747523976489902" lon="7.424329994246364">
        <ele>163.08000000000001</ele>
        <time>2025-05-19T06:15:36Z</time>
      </trkpt>
      <trkpt lat="43.747609974816442" lon="7.424233015626669">
        <ele>163.56</ele>
        <time>2025-05-19T06:15:37Z</time>
      </trkpt>
      <trkpt lat="43.747720029205084" lon="7.424183981493115">
        <ele>164.03999999999999</ele>
        <time>2025-05-19T06:15:38Z</time>
      </trkpt>
      <trkpt lat="43.747824970632792" lon="7.424194039776921">
        <ele>164.52000000000001</ele>
        <time>2025-05-19T06:15:39Z</time>
      </trkpt>
      <trkpt lat="43.747932007536292" lon="7.424211977049708">
        <ele>165.47999999999999</ele>
        <time>2025-05-19T06:15:40Z</time>
      </trkpt>
      <trkpt lat="43.748015994206071" lon="7.424296969547868">
        <ele>165.96000000000001</ele>
        <time>2025-05-19T06:15:41Z</time>
      </trkpt>
      <trkpt lat="43.748102998360991" lon="7.424382967874408">
        <ele>166.93000000000001</ele>
        <time>2025-05-19T06:15:42Z</time>
      </trkpt>
      <trkpt lat="43.748188996687531" lon="7.424469972029328">
        <ele>167.88999999999999</ele>
        <time>2025-05-19T06:15:43Z</time>
      </trkpt>
      <trkpt lat="43.748420001938939" lon="7.424796028062701">
        <ele>170.77000000000001</ele>
        <time>2025-05-19T06:15:46Z</time>
      </trkpt>
      <trkpt lat="43.74848797917366" lon="7.424925025552511">
        <ele>171.25</ele>
        <time>2025-05-19T06:15:47Z</time>
      </trkpt>
      <trkpt lat="43.748545981943607" lon="7.425054023042321">
        <ele>172.21000000000001</ele>
        <time>2025-05-19T06:15:48Z</time>
      </trkpt>
      <trkpt lat="43.748601973056793" lon="7.425196012482047">
        <ele>172.69</ele>
        <time>2025-05-19T06:15:49Z</time>
      </trkpt>
      <trkpt lat="43.748656958341599" lon="7.425335990265012">
        <ele>173.16999999999999</ele>
        <time>2025-05-19T06:15:50Z</time>
      </trkpt>
      <trkpt lat="43.748843958601356" lon="7.425734968855977">
        <ele>174.62</ele>
        <time>2025-05-19T06:15:53Z</time>
      </trkpt>
      <trkpt lat="43.748930040746927" lon="7.425843011587858">
        <ele>175.58000000000001</ele>
        <time>2025-05-19T06:15:54Z</time>
      </trkpt>
      <trkpt lat="43.749015033245087" lon="7.425949964672327">
        <ele>176.53999999999999</ele>
        <time>2025-05-19T06:15:55Z</time>
      </trkpt>
      <trkpt lat="43.749113017693162" lon="7.426039986312389">
        <ele>177.5</ele>
        <time>2025-05-19T06:15:56Z</time>
      </trkpt>
      <trkpt lat="43.749213013797998" lon="7.426103018224239">
        <ele>178.46000000000001</ele>
        <time>2025-05-19T06:15:57Z</time>
      </trkpt>
      <trkpt lat="43.749521970748901" lon="7.426261017099023">
        <ele>180.87</ele>
        <time>2025-05-19T06:16:00Z</time>
      </trkpt>
      <trkpt lat="43.750242982059717" lon="7.426535021513701">
        <ele>186.15000000000001</ele>
        <time>2025-05-19T06:16:07Z</time>
      </trkpt>
      <trkpt lat="43.750347001478076" lon="7.426500990986824">
        <ele>187.11000000000001</ele>
        <time>2025-05-19T06:16:08Z</time>
      </trkpt>
      <trkpt lat="43.750448003411293" lon="7.426451034843922">
        <ele>188.08000000000001</ele>
        <time>2025-05-19T06:16:09Z</time>
      </trkpt>
      <trkpt lat="43.750546993687749" lon="7.426372999325395">
        <ele>189.03999999999999</ele>
        <time>2025-05-19T06:16:10Z</time>
      </trkpt>
      <trkpt lat="43.750646989792585" lon="7.426294041797519">
        <ele>189.52000000000001</ele>
        <time>2025-05-19T06:16:11Z</time>
      </trkpt>
      <trkpt lat="43.750746985897422" lon="7.426215000450611">
        <ele>190.47999999999999</ele>
        <time>2025-05-19T06:16:12Z</time>
      </trkpt>
      <trkpt lat="43.751045968383551" lon="7.425958011299372">
        <ele>192.88</ele>
        <time>2025-05-19T06:16:15Z</time>
      </trkpt>
      <trkpt lat="43.751146970316768" lon="7.425874024629593">
        <ele>194.31999999999999</ele>
        <time>2025-05-19T06:16:16Z</time>
      </trkpt>
      <trkpt lat="43.751426003873348" lon="7.425626004114747">
        <ele>197.69</ele>
        <time>2025-05-19T06:16:19Z</time>
      </trkpt>
      <trkpt lat="43.751620966941118" lon="7.42546197026968">
        <ele>199.61000000000001</ele>
        <time>2025-05-19T06:16:21Z</time>
      </trkpt>
      <trkpt lat="43.751728003844619" lon="7.425429029390216">
        <ele>200.09</ele>
        <time>2025-05-19T06:16:22Z</time>
      </trkpt>
      <trkpt lat="43.751833029091358" lon="7.425406984984875">
        <ele>201.05000000000001</ele>
        <time>2025-05-19T06:16:23Z</time>
      </trkpt>
      <trkpt lat="43.751935958862305" lon="7.425442021340132">
        <ele>201.53</ele>
        <time>2025-05-19T06:16:24Z</time>
      </trkpt>
      <trkpt lat="43.752038972452283" lon="7.425489965826273">
        <ele>202.49000000000001</ele>
        <time>2025-05-19T06:16:25Z</time>
      </trkpt>
      <trkpt lat="43.752124970778823" lon="7.42558803409338">
        <ele>202.97999999999999</ele>
        <time>2025-05-19T06:16:26Z</time>
      </trkpt>
      <trkpt lat="43.752202000468969" lon="7.425707979127765">
        <ele>203.94</ele>
        <time>2025-05-19T06:16:27Z</time>
      </trkpt>
      <trkpt lat="43.752260003238916" lon="7.425862038508058">
        <ele>204.41999999999999</ele>
        <time>2025-05-19T06:16:28Z</time>
      </trkpt>
      <trkpt lat="43.75226897187531" lon="7.426000004634261">
        <ele>204.90000000000001</ele>
        <time>2025-05-19T06:16:29Z</time>
      </trkpt>
      <trkpt lat="43.752277018502355" lon="7.426117016002536">
        <ele>205.38</ele>
        <time>2025-05-19T06:16:30Z</time>
      </trkpt>
      <trkpt lat="43.752247011289001" lon="7.426239978522062">
        <ele>205.38</ele>
        <time>2025-05-19T06:16:31Z</time>
      </trkpt>
      <trkpt lat="43.75220300629735" lon="7.426349027082324">
        <ele>205.86000000000001</ele>
        <time>2025-05-19T06:16:32Z</time>
      </trkpt>
      <trkpt lat="43.752157995477319" lon="7.426463020965457">
        <ele>205.86000000000001</ele>
        <time>2025-05-19T06:16:33Z</time>
      </trkpt>
      <trkpt lat="43.752109967172146" lon="7.426581960171461">
        <ele>205.38</ele>
        <time>2025-05-19T06:16:34Z</time>
      </trkpt>
      <trkpt lat="43.751783994957805" lon="7.427381007000804">
        <ele>204.90000000000001</ele>
        <time>2025-05-19T06:16:40Z</time>
      </trkpt>
      <trkpt lat="43.751589031890035" lon="7.428795034065843">
        <ele>200.09</ele>
        <time>2025-05-19T06:16:49Z</time>
      </trkpt>
      <trkpt lat="43.751586014404893" lon="7.430406035855413">
        <ele>194.31999999999999</ele>
        <time>2025-05-19T06:16:59Z</time>
      </trkpt>
      <trkpt lat="43.751843003556132" lon="7.431613029912114">
        <ele>189.03999999999999</ele>
        <time>2025-05-19T06:17:07Z</time>
      </trkpt>
      <trkpt lat="43.751905029639602" lon="7.431736998260021">
        <ele>188.56</ele>
        <time>2025-05-19T06:17:08Z</time>
      </trkpt>
      <trkpt lat="43.751958003267646" lon="7.431843029335141">
        <ele>187.59</ele>
        <time>2025-05-19T06:17:09Z</time>
      </trkpt>
      <trkpt lat="43.752063028514385" lon="7.431948976591229">
        <ele>186.63</ele>
        <time>2025-05-19T06:17:10Z</time>
      </trkpt>
      <trkpt lat="43.752154977992177" lon="7.432041009888053">
        <ele>185.66999999999999</ele>
        <time>2025-05-19T06:17:11Z</time>
      </trkpt>
      <trkpt lat="43.752241982147098" lon="7.432113010436297">
        <ele>184.71000000000001</ele>
        <time>2025-05-19T06:17:12Z</time>
      </trkpt>
      <trkpt lat="43.752338960766792" lon="7.432155003771186">
        <ele>183.75</ele>
        <time>2025-05-19T06:17:13Z</time>
      </trkpt>
      <trkpt lat="43.752430994063616" lon="7.432194985449314">
        <ele>182.78999999999999</ele>
        <time>2025-05-19T06:17:14Z</time>
      </trkpt>
      <trkpt lat="43.752525961026549" lon="7.432235972955823">
        <ele>181.83000000000001</ele>
        <time>2025-05-19T06:17:15Z</time>
      </trkpt>
      <trkpt lat="43.752833995968103" lon="7.432316020131111">
        <ele>177.97999999999999</ele>
        <time>2025-05-19T06:17:19Z</time>
      </trkpt>
      <trkpt lat="43.752879006788135" lon="7.432329012081027">
        <ele>177.5</ele>
        <time>2025-05-19T06:17:20Z</time>
      </trkpt>
      <trkpt lat="43.752962993457913" lon="7.432350972667337">
        <ele>175.09999999999999</ele>
        <time>2025-05-19T06:17:23Z</time>
      </trkpt>
      <trkpt lat="43.752983026206493" lon="7.43235700763762">
        <ele>174.13999999999999</ele>
        <time>2025-05-19T06:17:24Z</time>
      </trkpt>
      <trkpt lat="43.753056032583117" lon="7.432492962107062">
        <ele>168.37</ele>
        <time>2025-05-19T06:17:35Z</time>
      </trkpt>
      <trkpt lat="43.753210008144379" lon="7.432414004579186">
        <ele>169.33000000000001</ele>
        <time>2025-05-19T06:21:37Z</time>
      </trkpt>
      <trkpt lat="43.753204979002476" lon="7.432471001520753">
        <ele>205.38</ele>
        <time>2025-05-19T06:22:11Z</time>
      </trkpt>
      <trkpt lat="43.753124009817839" lon="7.432420961558819">
        <ele>190.47999999999999</ele>
        <time>2025-05-19T06:22:51Z</time>
      </trkpt>
      <trkpt lat="43.753118980675936" lon="7.432452980428934">
        <ele>190.47999999999999</ele>
        <time>2025-05-19T06:22:59Z</time>
      </trkpt>
      <trkpt lat="43.753153011202812" lon="7.432530010119081">
        <ele>193.36000000000001</ele>
        <time>2025-05-19T06:23:01Z</time>
      </trkpt>
      <trkpt lat="43.753224005922675" lon="7.432530010119081">
        <ele>186.63</ele>
        <time>2025-05-19T06:23:02Z</time>
      </trkpt>
      <trkpt lat="43.753224005922675" lon="7.432530010119081">
        <ele>183.27000000000001</ele>
        <time>2025-05-19T06:23:03Z</time>
      </trkpt>
      <trkpt lat="43.753224005922675" lon="7.432530010119081">
        <ele>181.83000000000001</ele>
        <time>2025-05-19T06:23:04Z</time>
      </trkpt>
      <trkpt lat="43.7532779853791" lon="7.43246303871274">
        <ele>176.06</ele>
        <time>2025-05-19T06:23:09Z</time>
      </trkpt>
      <trkpt lat="43.753349985927343" lon="7.432439988479018">
        <ele>176.53999999999999</ele>
        <time>2025-05-19T06:23:10Z</time>
      </trkpt>
      <trkpt lat="43.753399020060897" lon="7.432461027055979">
        <ele>176.53999999999999</ele>
        <time>2025-05-19T06:23:11Z</time>
      </trkpt>
      <trkpt lat="43.753480995073915" lon="7.432495979592204">
        <ele>175.09999999999999</ele>
        <time>2025-05-19T06:23:12Z</time>
      </trkpt>
      <trkpt lat="43.753567999228835" lon="7.432533027604222">
        <ele>174.13999999999999</ele>
        <time>2025-05-19T06:23:13Z</time>
      </trkpt>
      <trkpt lat="43.753658020868897" lon="7.432610979303718">
        <ele>173.16999999999999</ele>
        <time>2025-05-19T06:23:14Z</time>
      </trkpt>
      <trkpt lat="43.753721974790096" lon="7.432720027863979">
        <ele>172.21000000000001</ele>
        <time>2025-05-19T06:23:15Z</time>
      </trkpt>
      <trkpt lat="43.753767991438508" lon="7.432849025353789">
        <ele>171.72999999999999</ele>
        <time>2025-05-19T06:23:16Z</time>
      </trkpt>
      <trkpt lat="43.753787018358707" lon="7.432991014793515">
        <ele>171.25</ele>
        <time>2025-05-19T06:23:17Z</time>
      </trkpt>
      <trkpt lat="43.753795986995101" lon="7.433135015890002">
        <ele>170.28999999999999</ele>
        <time>2025-05-19T06:23:18Z</time>
      </trkpt>
      <trkpt lat="43.753806967288256" lon="7.433281028643251">
        <ele>169.81</ele>
        <time>2025-05-19T06:23:19Z</time>
      </trkpt>
      <trkpt lat="43.753819959238172" lon="7.433421006426215">
        <ele>168.84999999999999</ele>
        <time>2025-05-19T06:23:20Z</time>
      </trkpt>
      <trkpt lat="43.753850972279906" lon="7.433546986430883">
        <ele>167.88999999999999</ele>
        <time>2025-05-19T06:23:21Z</time>
      </trkpt>
      <trkpt lat="43.753899000585079" lon="7.433679001405835">
        <ele>166.93000000000001</ele>
        <time>2025-05-19T06:23:22Z</time>
      </trkpt>
      <trkpt lat="43.753957003355026" lon="7.433806993067265">
        <ele>165.96000000000001</ele>
        <time>2025-05-19T06:23:23Z</time>
      </trkpt>
      <trkpt lat="43.754197983071208" lon="7.434296999126673">
        <ele>161.63999999999999</ele>
        <time>2025-05-19T06:23:27Z</time>
      </trkpt>
      <trkpt lat="43.754304014146328" lon="7.434510989114642">
        <ele>158.75</ele>
        <time>2025-05-19T06:23:30Z</time>
      </trkpt>
      <trkpt lat="43.754320023581386" lon="7.43457100354135">
        <ele>157.78999999999999</ele>
        <time>2025-05-19T06:23:31Z</time>
      </trkpt>
      <trkpt lat="43.75433100387454" lon="7.434611991047859">
        <ele>156.83000000000001</ele>
        <time>2025-05-19T06:23:32Z</time>
      </trkpt>
      <trkpt lat="43.754337038844824" lon="7.434632023796439">
        <ele>155.87</ele>
        <time>2025-05-19T06:23:33Z</time>
      </trkpt>
      <trkpt lat="43.754337038844824" lon="7.434632023796439">
        <ele>154.43000000000001</ele>
        <time>2025-05-19T06:23:34Z</time>
      </trkpt>
      <trkpt lat="43.75404903665185" lon="7.434405041858554">
        <ele>148.66</ele>
        <time>2025-05-19T06:23:39Z</time>
      </trkpt>
      <trkpt lat="43.753978963941336" lon="7.434193985536695">
        <ele>147.22</ele>
        <time>2025-05-19T06:23:41Z</time>
      </trkpt>
      <trkpt lat="43.75394300557673" lon="7.434086026623845">
        <ele>146.74000000000001</ele>
        <time>2025-05-19T06:23:42Z</time>
      </trkpt>
      <trkpt lat="43.753910986706614" lon="7.433988964185119">
        <ele>146.25999999999999</ele>
        <time>2025-05-19T06:23:43Z</time>
      </trkpt>
      <trkpt lat="43.753650980070233" lon="7.433542041108012">
        <ele>141.44999999999999</ele>
        <time>2025-05-19T06:23:48Z</time>
      </trkpt>
      <trkpt lat="43.75359901227057" lon="7.43345201946795">
        <ele>140.97</ele>
        <time>2025-05-19T06:23:49Z</time>
      </trkpt>
      <trkpt lat="43.753523994237185" lon="7.433324027806521">
        <ele>140.00999999999999</ele>
        <time>2025-05-19T06:23:50Z</time>
      </trkpt>
      <trkpt lat="43.753477977588773" lon="7.433306006714702">
        <ele>139.53</ele>
        <time>2025-05-19T06:23:51Z</time>
      </trkpt>
      <trkpt lat="43.753330959007144" lon="7.433238029479981">
        <ele>139.05000000000001</ele>
        <time>2025-05-19T06:23:52Z</time>
      </trkpt>
      <trkpt lat="43.753292988985777" lon="7.433254960924387">
        <ele>138.09</ele>
        <time>2025-05-19T06:23:53Z</time>
      </trkpt>
      <trkpt lat="43.753219982609153" lon="7.433285973966122">
        <ele>137.61000000000001</ele>
        <time>2025-05-19T06:23:54Z</time>
      </trkpt>
      <trkpt lat="43.753150999546051" lon="7.433316987007856">
        <ele>137.61000000000001</ele>
        <time>2025-05-19T06:23:55Z</time>
      </trkpt>
      <trkpt lat="43.752967016771436" lon="7.43340902030468">
        <ele>137.61000000000001</ele>
        <time>2025-05-19T06:23:58Z</time>
      </trkpt>
      <trkpt lat="43.752327980473638" lon="7.433728035539389">
        <ele>136.16</ele>
        <time>2025-05-19T06:24:08Z</time>
      </trkpt>
      <trkpt lat="43.752256985753775" lon="7.433743961155415">
        <ele>135.68000000000001</ele>
        <time>2025-05-19T06:24:09Z</time>
      </trkpt>
      <trkpt lat="43.752184985205531" lon="7.433743039146066">
        <ele>135.68000000000001</ele>
        <time>2025-05-19T06:24:10Z</time>
      </trkpt>
      <trkpt lat="43.752120025455952" lon="7.433720994740725">
        <ele>135.19999999999999</ele>
        <time>2025-05-19T06:24:11Z</time>
      </trkpt>
      <trkpt lat="43.752059005200863" lon="7.433700961992145">
        <ele>134.72</ele>
        <time>2025-05-19T06:24:12Z</time>
      </trkpt>
      <trkpt lat="43.751999996602535" lon="7.433599960058928">
        <ele>134.24000000000001</ele>
        <time>2025-05-19T06:24:13Z</time>
      </trkpt>
      <trkpt lat="43.751975018531084" lon="7.433500969782472">
        <ele>133.75999999999999</ele>
        <time>2025-05-19T06:24:14Z</time>
      </trkpt>
      <trkpt lat="43.751950040459633" lon="7.433399967849255">
        <ele>132.80000000000001</ele>
        <time>2025-05-19T06:24:15Z</time>
      </trkpt>
      <trkpt lat="43.75192497856915" lon="7.433297960087657">
        <ele>132.80000000000001</ele>
        <time>2025-05-19T06:24:16Z</time>
      </trkpt>
      <trkpt lat="43.751893965527415" lon="7.43317399173975">
        <ele>132.80000000000001</ele>
        <time>2025-05-19T06:24:17Z</time>
      </trkpt>
      <trkpt lat="43.751835962757468" lon="7.433123029768467">
        <ele>132.80000000000001</ele>
        <time>2025-05-19T06:24:18Z</time>
      </trkpt>
      <trkpt lat="43.751705959439278" lon="7.433009035885334">
        <ele>133.28</ele>
        <time>2025-05-19T06:24:20Z</time>
      </trkpt>
      <trkpt lat="43.751645023003221" lon="7.432955978438258">
        <ele>133.75999999999999</ele>
        <time>2025-05-19T06:24:21Z</time>
      </trkpt>
      <trkpt lat="43.751518037170172" lon="7.432870985940099">
        <ele>134.72</ele>
        <time>2025-05-19T06:24:23Z</time>
      </trkpt>
      <trkpt lat="43.751447964459658" lon="7.432866962626576">
        <ele>135.19999999999999</ele>
        <time>2025-05-19T06:24:24Z</time>
      </trkpt>
      <trkpt lat="43.751379987224936" lon="7.432862017303705">
        <ele>135.68000000000001</ele>
        <time>2025-05-19T06:24:25Z</time>
      </trkpt>
      <trkpt lat="43.751159962266684" lon="7.432848019525409">
        <ele>137.13</ele>
        <time>2025-05-19T06:24:28Z</time>
      </trkpt>
      <trkpt lat="43.750929040834308" lon="7.432833015918732">
        <ele>137.61000000000001</ele>
        <time>2025-05-19T06:24:31Z</time>
      </trkpt>
      <trkpt lat="43.750856034457684" lon="7.43280996568501">
        <ele>137.61000000000001</ele>
        <time>2025-05-19T06:24:32Z</time>
      </trkpt>
      <trkpt lat="43.750791996717453" lon="7.43276403285563">
        <ele>138.09</ele>
        <time>2025-05-19T06:24:33Z</time>
      </trkpt>
      <trkpt lat="43.750729970633984" lon="7.432717010378838">
        <ele>138.09</ele>
        <time>2025-05-19T06:24:34Z</time>
      </trkpt>
      <trkpt lat="43.750671967864037" lon="7.432647021487355">
        <ele>138.09</ele>
        <time>2025-05-19T06:24:35Z</time>
      </trkpt>
      <trkpt lat="43.750479016453028" lon="7.432345021516085">
        <ele>139.05000000000001</ele>
        <time>2025-05-19T06:24:39Z</time>
      </trkpt>
      <trkpt lat="43.75044297426939" lon="7.432262962684035">
        <ele>139.05000000000001</ele>
        <time>2025-05-19T06:24:40Z</time>
      </trkpt>
      <trkpt lat="43.750406010076404" lon="7.432178976014257">
        <ele>139.05000000000001</ele>
        <time>2025-05-19T06:24:41Z</time>
      </trkpt>
      <trkpt lat="43.750305008143187" lon="7.431940007954836">
        <ele>139.05000000000001</ele>
        <time>2025-05-19T06:24:44Z</time>
      </trkpt>
      <trkpt lat="43.750298973172903" lon="7.431857027113438">
        <ele>139.05000000000001</ele>
        <time>2025-05-19T06:24:45Z</time>
      </trkpt>
      <trkpt lat="43.750294027850032" lon="7.431771028786898">
        <ele>139.05000000000001</ele>
        <time>2025-05-19T06:24:46Z</time>
      </trkpt>
      <trkpt lat="43.750349013134837" lon="7.4311129655689">
        <ele>138.09</ele>
        <time>2025-05-19T06:24:53Z</time>
      </trkpt>
      <trkpt lat="43.750360999256372" lon="7.430889001116157">
        <ele>137.61000000000001</ele>
        <time>2025-05-19T06:24:55Z</time>
      </trkpt>
      <trkpt lat="43.75041900202632" lon="7.430579038336873">
        <ele>138.56999999999999</ele>
        <time>2025-05-19T06:24:58Z</time>
      </trkpt>
      <trkpt lat="43.750439034774899" lon="7.430490022525191">
        <ele>139.05000000000001</ele>
        <time>2025-05-19T06:24:59Z</time>
      </trkpt>
      <trkpt lat="43.750457977876067" lon="7.43040201254189">
        <ele>139.53</ele>
        <time>2025-05-19T06:25:00Z</time>
      </trkpt>
      <trkpt lat="43.750478010624647" lon="7.430311990901828">
        <ele>139.53</ele>
        <time>2025-05-19T06:25:01Z</time>
      </trkpt>
      <trkpt lat="43.750498965382576" lon="7.430218029767275">
        <ele>140.00999999999999</ele>
        <time>2025-05-19T06:25:02Z</time>
      </trkpt>
      <trkpt lat="43.750520003959537" lon="7.430119961500168">
        <ele>140.00999999999999</ele>
        <time>2025-05-19T06:25:03Z</time>
      </trkpt>
      <trkpt lat="43.750581024214625" lon="7.429842017591">
        <ele>140.00999999999999</ele>
        <time>2025-05-19T06:25:06Z</time>
      </trkpt>
      <trkpt lat="43.750604996457696" lon="7.42975702509284">
        <ele>140.00999999999999</ele>
        <time>2025-05-19T06:25:07Z</time>
      </trkpt>
      <trkpt lat="43.750630980357528" lon="7.42967002093792">
        <ele>140.00999999999999</ele>
        <time>2025-05-19T06:25:08Z</time>
      </trkpt>
      <trkpt lat="43.75065696425736" lon="7.429582010954619">
        <ele>140.00999999999999</ele>
        <time>2025-05-19T06:25:09Z</time>
      </trkpt>
      <trkpt lat="43.750684037804604" lon="7.429490983486176">
        <ele>139.53</ele>
        <time>2025-05-19T06:25:10Z</time>
      </trkpt>
      <trkpt lat="43.750712033361197" lon="7.429396016523242">
        <ele>139.53</ele>
        <time>2025-05-19T06:25:11Z</time>
      </trkpt>
      <trkpt lat="43.750799037516117" lon="7.429104996845126">
        <ele>138.56999999999999</ele>
        <time>2025-05-19T06:25:14Z</time>
      </trkpt>
      <trkpt lat="43.750820998102427" lon="7.429031990468502">
        <ele>138.09</ele>
        <time>2025-05-19T06:25:15Z</time>
      </trkpt>
      <trkpt lat="43.750814041122794" lon="7.428964013233781">
        <ele>137.61000000000001</ele>
        <time>2025-05-19T06:25:16Z</time>
      </trkpt>
      <trkpt lat="43.75080700032413" lon="7.428884971886873">
        <ele>137.13</ele>
        <time>2025-05-19T06:25:17Z</time>
      </trkpt>
      <trkpt lat="43.750799037516117" lon="7.428796039894223">
        <ele>137.13</ele>
        <time>2025-05-19T06:25:18Z</time>
      </trkpt>
      <trkpt lat="43.750732988119125" lon="7.428650027140975">
        <ele>136.63999999999999</ele>
        <time>2025-05-19T06:25:20Z</time>
      </trkpt>
      <trkpt lat="43.750723013654351" lon="7.428564028814435">
        <ele>136.16</ele>
        <time>2025-05-19T06:25:21Z</time>
      </trkpt>
      <trkpt lat="43.750682026147842" lon="7.428192961961031">
        <ele>134.24000000000001</ele>
        <time>2025-05-19T06:25:25Z</time>
      </trkpt>
      <trkpt lat="43.750670040026307" lon="7.428088020533323">
        <ele>133.75999999999999</ele>
        <time>2025-05-19T06:25:26Z</time>
      </trkpt>
      <trkpt lat="43.750627962872386" lon="7.428002022206783">
        <ele>133.28</ele>
        <time>2025-05-19T06:25:27Z</time>
      </trkpt>
      <trkpt lat="43.750602984800935" lon="7.427948964759708">
        <ele>132.80000000000001</ele>
        <time>2025-05-19T06:25:28Z</time>
      </trkpt>
      <trkpt lat="43.750577000901103" lon="7.427891967818141">
        <ele>132.31999999999999</ele>
        <time>2025-05-19T06:25:29Z</time>
      </trkpt>
      <trkpt lat="43.750520003959537" lon="7.427765987813473">
        <ele>131.84</ele>
        <time>2025-05-19T06:25:30Z</time>
      </trkpt>
      <trkpt lat="43.750546993687749" lon="7.4278249964118">
        <ele>131.36000000000001</ele>
        <time>2025-05-19T06:25:31Z</time>
      </trkpt>
      <trkpt lat="43.750507012009621" lon="7.42776196449995">
        <ele>130.88</ele>
        <time>2025-05-19T06:25:32Z</time>
      </trkpt>
      <trkpt lat="43.750283969566226" lon="7.427788032218814">
        <ele>129.43000000000001</ele>
        <time>2025-05-19T06:25:39Z</time>
      </trkpt>
      <trkpt lat="43.75022797845304" lon="7.427844023332">
        <ele>129.43000000000001</ele>
        <time>2025-05-19T06:25:40Z</time>
      </trkpt>
      <trkpt lat="43.750177016481757" lon="7.427899008616805">
        <ele>128.94999999999999</ele>
        <time>2025-05-19T06:25:41Z</time>
      </trkpt>
      <trkpt lat="43.750120019540191" lon="7.427962040528655">
        <ele>128.47</ele>
        <time>2025-05-19T06:25:42Z</time>
      </trkpt>
      <trkpt lat="43.750051958486438" lon="7.428034963086247">
        <ele>127.98999999999999</ele>
        <time>2025-05-19T06:25:43Z</time>
      </trkpt>
      <trkpt lat="43.749983981251717" lon="7.428109981119633">
        <ele>127.98999999999999</ele>
        <time>2025-05-19T06:25:44Z</time>
      </trkpt>
      <trkpt lat="43.749951040372252" lon="7.428197991102934">
        <ele>127.51000000000001</ele>
        <time>2025-05-19T06:25:45Z</time>
      </trkpt>
      <trkpt lat="43.749913992360234" lon="7.42829698137939">
        <ele>127.51000000000001</ele>
        <time>2025-05-19T06:25:46Z</time>
      </trkpt>
      <trkpt lat="43.749878033995628" lon="7.428393037989736">
        <ele>127.03</ele>
        <time>2025-05-19T06:25:47Z</time>
      </trkpt>
      <trkpt lat="43.749838974326849" lon="7.428496973589063">
        <ele>127.03</ele>
        <time>2025-05-19T06:25:48Z</time>
      </trkpt>
      <trkpt lat="43.749803015962243" lon="7.428592024371028">
        <ele>126.55</ele>
        <time>2025-05-19T06:25:49Z</time>
      </trkpt>
      <trkpt lat="43.749749036505818" lon="7.42868397384882">
        <ele>126.06999999999999</ele>
        <time>2025-05-19T06:25:50Z</time>
      </trkpt>
      <trkpt lat="43.749693967401981" lon="7.428762009367347">
        <ele>125.59</ele>
        <time>2025-05-19T06:25:51Z</time>
      </trkpt>
      <trkpt lat="43.749643005430698" lon="7.428836021572352">
        <ele>125.11</ele>
        <time>2025-05-19T06:25:52Z</time>
      </trkpt>
      <trkpt lat="43.749546026811004" lon="7.42883300408721">
        <ele>124.63</ele>
        <time>2025-05-19T06:25:53Z</time>
      </trkpt>
      <trkpt lat="43.749464973807335" lon="7.428827974945307">
        <ele>124.15000000000001</ele>
        <time>2025-05-19T06:25:54Z</time>
      </trkpt>
      <trkpt lat="43.749382998794317" lon="7.428823029622436">
        <ele>123.67</ele>
        <time>2025-05-19T06:25:55Z</time>
      </trkpt>
      <trkpt lat="43.748674979433417" lon="7.428779024630785">
        <ele>121.26000000000001</ele>
        <time>2025-05-19T06:26:04Z</time>
      </trkpt>
      <trkpt lat="43.748611025512218" lon="7.428775001317263">
        <ele>120.78</ele>
        <time>2025-05-19T06:26:05Z</time>
      </trkpt>
      <trkpt lat="43.748543970286846" lon="7.428826969116926">
        <ele>120.78</ele>
        <time>2025-05-19T06:26:06Z</time>
      </trkpt>
      <trkpt lat="43.748481022194028" lon="7.42887600325048">
        <ele>120.78</ele>
        <time>2025-05-19T06:26:07Z</time>
      </trkpt>
      <trkpt lat="43.748416984453797" lon="7.428925037384033">
        <ele>120.78</ele>
        <time>2025-05-19T06:26:08Z</time>
      </trkpt>
      <trkpt lat="43.748363004997373" lon="7.428987985476852">
        <ele>120.3</ele>
        <time>2025-05-19T06:26:09Z</time>
      </trkpt>
      <trkpt lat="43.748307013884187" lon="7.429053029045463">
        <ele>120.3</ele>
        <time>2025-05-19T06:26:10Z</time>
      </trkpt>
      <trkpt lat="43.748194025829434" lon="7.429183032363653">
        <ele>120.3</ele>
        <time>2025-05-19T06:26:12Z</time>
      </trkpt>
      <trkpt lat="43.748148009181023" lon="7.429235000163317">
        <ele>120.3</ele>
        <time>2025-05-19T06:26:13Z</time>
      </trkpt>
      <trkpt lat="43.748089000582695" lon="7.429270958527923">
        <ele>120.3</ele>
        <time>2025-05-19T06:26:14Z</time>
      </trkpt>
      <trkpt lat="43.748027980327606" lon="7.429301971569657">
        <ele>120.3</ele>
        <time>2025-05-19T06:26:15Z</time>
      </trkpt>
      <trkpt lat="43.747966038063169" lon="7.429332984611392">
        <ele>120.3</ele>
        <time>2025-05-19T06:26:16Z</time>
      </trkpt>
      <trkpt lat="43.74790501780808" lon="7.429363997653127">
        <ele>120.3</ele>
        <time>2025-05-19T06:26:17Z</time>
      </trkpt>
      <trkpt lat="43.747880961745977" lon="7.429375983774662">
        <ele>120.3</ele>
        <time>2025-05-19T06:26:18Z</time>
      </trkpt>
      <trkpt lat="43.747791023924947" lon="7.429323010146618">
        <ele>119.81999999999999</ele>
        <time>2025-05-19T06:26:19Z</time>
      </trkpt>
      <trkpt lat="43.747728997841477" lon="7.42928696796298">
        <ele>119.81999999999999</ele>
        <time>2025-05-19T06:26:20Z</time>
      </trkpt>
      <trkpt lat="43.747668983414769" lon="7.429252015426755">
        <ele>119.81999999999999</ele>
        <time>2025-05-19T06:26:21Z</time>
      </trkpt>
      <trkpt lat="43.747094990685582" lon="7.428895030170679">
        <ele>120.3</ele>
        <time>2025-05-19T06:26:30Z</time>
      </trkpt>
      <trkpt lat="43.747071018442512" lon="7.428818000480533">
        <ele>119.81999999999999</ele>
        <time>2025-05-19T06:26:31Z</time>
      </trkpt>
      <trkpt lat="43.747055009007454" lon="7.428752034902573">
        <ele>119.81999999999999</ele>
        <time>2025-05-19T06:26:32Z</time>
      </trkpt>
      <trkpt lat="43.747066995128989" lon="7.428652038797736">
        <ele>119.81999999999999</ele>
        <time>2025-05-19T06:26:33Z</time>
      </trkpt>
      <trkpt lat="43.747095996513963" lon="7.428577020764351">
        <ele>119.81999999999999</ele>
        <time>2025-05-19T06:26:34Z</time>
      </trkpt>
      <trkpt lat="43.747129021212459" lon="7.428493034094572">
        <ele>119.81999999999999</ele>
        <time>2025-05-19T06:26:35Z</time>
      </trkpt>
      <trkpt lat="43.747163973748684" lon="7.42840301245451">
        <ele>119.81999999999999</ele>
        <time>2025-05-19T06:26:36Z</time>
      </trkpt>
      <trkpt lat="43.747212002053857" lon="7.428208971396089">
        <ele>119.81999999999999</ele>
        <time>2025-05-19T06:26:38Z</time>
      </trkpt>
      <trkpt lat="43.747228011488914" lon="7.428101012483239">
        <ele>119.81999999999999</ele>
        <time>2025-05-19T06:26:39Z</time>
      </trkpt>
      <trkpt lat="43.747244020923972" lon="7.427990958094597">
        <ele>119.34</ele>
        <time>2025-05-19T06:26:40Z</time>
      </trkpt>
      <trkpt lat="43.747259024530649" lon="7.427894985303283">
        <ele>118.38</ele>
        <time>2025-05-19T06:26:41Z</time>
      </trkpt>
      <trkpt lat="43.74730403535068" lon="7.427800018340349">
        <ele>117.42</ele>
        <time>2025-05-19T06:26:42Z</time>
      </trkpt>
      <trkpt lat="43.747344017028809" lon="7.42771502584219">
        <ele>116.94</ele>
        <time>2025-05-19T06:26:43Z</time>
      </trkpt>
      <trkpt lat="43.747387016192079" lon="7.427626010030508">
        <ele>115.98</ele>
        <time>2025-05-19T06:26:44Z</time>
      </trkpt>
      <trkpt lat="43.747567981481552" lon="7.427159976214171">
        <ele>113.56999999999999</ele>
        <time>2025-05-19T06:26:49Z</time>
      </trkpt>
      <trkpt lat="43.747597988694906" lon="7.427069032564759">
        <ele>113.09</ele>
        <time>2025-05-19T06:26:50Z</time>
      </trkpt>
      <trkpt lat="43.747622966766357" lon="7.426989991217852">
        <ele>112.61</ele>
        <time>2025-05-19T06:26:51Z</time>
      </trkpt>
      <trkpt lat="43.747622966766357" lon="7.426893012598157">
        <ele>112.13</ele>
        <time>2025-05-19T06:26:52Z</time>
      </trkpt>
      <trkpt lat="43.747609974816442" lon="7.426789999008179">
        <ele>111.65000000000001</ele>
        <time>2025-05-19T06:26:53Z</time>
      </trkpt>
      <trkpt lat="43.747574016451836" lon="7.426707018166781">
        <ele>111.17</ele>
        <time>2025-05-19T06:26:54Z</time>
      </trkpt>
      <trkpt lat="43.747527999803424" lon="7.426636023446918">
        <ele>111.17</ele>
        <time>2025-05-19T06:26:55Z</time>
      </trkpt>
      <trkpt lat="43.747477037832141" lon="7.426576009020209">
        <ele>110.69</ele>
        <time>2025-05-19T06:26:56Z</time>
      </trkpt>
      <trkpt lat="43.747405959293246" lon="7.426515994593501">
        <ele>110.20999999999999</ele>
        <time>2025-05-19T06:26:57Z</time>
      </trkpt>
      <trkpt lat="43.747313003987074" lon="7.426524963229895">
        <ele>109.73</ele>
        <time>2025-05-19T06:26:58Z</time>
      </trkpt>
      <trkpt lat="43.747253995388746" lon="7.426569974049926">
        <ele>109.73</ele>
        <time>2025-05-19T06:26:59Z</time>
      </trkpt>
      <trkpt lat="43.747194986790419" lon="7.426615990698338">
        <ele>109.25</ele>
        <time>2025-05-19T06:27:00Z</time>
      </trkpt>
      <trkpt lat="43.747140001505613" lon="7.426677010953426">
        <ele>109.25</ele>
        <time>2025-05-19T06:27:01Z</time>
      </trkpt>
      <trkpt lat="43.747104965150356" lon="7.426753034815192">
        <ele>108.29000000000001</ele>
        <time>2025-05-19T06:27:02Z</time>
      </trkpt>
      <trkpt lat="43.74706800095737" lon="7.426834003999829">
        <ele>107.81</ele>
        <time>2025-05-19T06:27:03Z</time>
      </trkpt>
      <trkpt lat="43.747028019279242" lon="7.426902987062931">
        <ele>107.31999999999999</ele>
        <time>2025-05-19T06:27:04Z</time>
      </trkpt>
      <trkpt lat="43.74694000929594" lon="7.426989991217852">
        <ele>105.88</ele>
        <time>2025-05-19T06:27:06Z</time>
      </trkpt>
      <trkpt lat="43.746872032061219" lon="7.426971970126033">
        <ele>105.40000000000001</ele>
        <time>2025-05-19T06:27:07Z</time>
      </trkpt>
      <trkpt lat="43.74683003872633" lon="7.426951015368104">
        <ele>104.92</ele>
        <time>2025-05-19T06:27:08Z</time>
      </trkpt>
      <trkpt lat="43.746816962957382" lon="7.426955038681626">
        <ele>103.95999999999999</ele>
        <time>2025-05-19T06:27:09Z</time>
      </trkpt>
      <trkpt lat="43.746764995157719" lon="7.427040031179786">
        <ele>103.48</ele>
        <time>2025-05-19T06:27:10Z</time>
      </trkpt>
      <trkpt lat="43.746764995157719" lon="7.427057968452573">
        <ele>102.52</ele>
        <time>2025-05-19T06:27:11Z</time>
      </trkpt>
      <trkpt lat="43.746764995157719" lon="7.427057968452573">
        <ele>102.04000000000001</ele>
        <time>2025-05-19T06:27:12Z</time>
      </trkpt>
      <trkpt lat="43.746721995994449" lon="7.427186965942383">
        <ele>101.56</ele>
        <time>2025-05-19T06:27:13Z</time>
      </trkpt>
      <trkpt lat="43.746671034023166" lon="7.427228037267923">
        <ele>101.08</ele>
        <time>2025-05-19T06:27:14Z</time>
      </trkpt>
      <trkpt lat="43.746604984626174" lon="7.427281010895968">
        <ele>100.59999999999999</ele>
        <time>2025-05-19T06:27:15Z</time>
      </trkpt>
      <trkpt lat="43.74653197824955" lon="7.427339013665915">
        <ele>100.11</ele>
        <time>2025-05-19T06:27:16Z</time>
      </trkpt>
      <trkpt lat="43.74590702354908" lon="7.427622992545366">
        <ele>101.56</ele>
        <time>2025-05-19T06:27:24Z</time>
      </trkpt>
      <trkpt lat="43.745741983875632" lon="7.427600026130676">
        <ele>103</ele>
        <time>2025-05-19T06:27:31Z</time>
      </trkpt>
      <trkpt lat="43.745266981422901" lon="7.427446972578764">
        <ele>103</ele>
        <time>2025-05-19T06:27:47Z</time>
      </trkpt>
      <trkpt lat="43.744835983961821" lon="7.427197024226189">
        <ele>103.48</ele>
        <time>2025-05-19T06:28:03Z</time>
      </trkpt>
      <trkpt lat="43.744770018383861" lon="7.427143966779113">
        <ele>103.48</ele>
        <time>2025-05-19T06:28:11Z</time>
      </trkpt>
      <trkpt lat="43.744622999802232" lon="7.427059980109334">
        <ele>102.04000000000001</ele>
        <time>2025-05-19T06:28:20Z</time>
      </trkpt>
      <trkpt lat="43.744575977325439" lon="7.427014969289303">
        <ele>101.08</ele>
        <time>2025-05-19T06:28:32Z</time>
      </trkpt>
      <trkpt lat="43.744541024789214" lon="7.426972975954413">
        <ele>100.59999999999999</ele>
        <time>2025-05-19T06:28:33Z</time>
      </trkpt>
      <trkpt lat="43.744525015354156" lon="7.426954032853246">
        <ele>100.11</ele>
        <time>2025-05-19T06:28:34Z</time>
      </trkpt>
      <trkpt lat="43.744400041177869" lon="7.426840960979462">
        <ele>100.11</ele>
        <time>2025-05-19T06:28:43Z</time>
      </trkpt>
      <trkpt lat="43.744182027876377" lon="7.42662001401186">
        <ele>100.59999999999999</ele>
        <time>2025-05-19T06:28:48Z</time>
      </trkpt>
      <trkpt lat="43.743896959349513" lon="7.426296975463629">
        <ele>100.59999999999999</ele>
        <time>2025-05-19T06:28:54Z</time>
      </trkpt>
      <trkpt lat="43.743849014863372" lon="7.426242996007204">
        <ele>101.08</ele>
        <time>2025-05-19T06:28:55Z</time>
      </trkpt>
      <trkpt lat="43.743738038465381" lon="7.426119027659297">
        <ele>101.56</ele>
        <time>2025-05-19T06:28:57Z</time>
      </trkpt>
      <trkpt lat="43.743685986846685" lon="7.42606102488935">
        <ele>101.56</ele>
        <time>2025-05-19T06:28:58Z</time>
      </trkpt>
      <trkpt lat="43.743644999340177" lon="7.426015008240938">
        <ele>102.04000000000001</ele>
        <time>2025-05-19T06:28:59Z</time>
      </trkpt>
      <trkpt lat="43.743504015728831" lon="7.425857009366155">
        <ele>102.04000000000001</ele>
        <time>2025-05-19T06:29:00Z</time>
      </trkpt>
      <trkpt lat="43.743504015728831" lon="7.425857009366155">
        <ele>102.52</ele>
        <time>2025-05-19T06:29:01Z</time>
      </trkpt>
      <trkpt lat="43.743504015728831" lon="7.425857009366155">
        <ele>102.52</ele>
        <time>2025-05-19T06:29:02Z</time>
      </trkpt>
      <trkpt lat="43.743504015728831" lon="7.425857009366155">
        <ele>103</ele>
        <time>2025-05-19T06:29:03Z</time>
      </trkpt>
      <trkpt lat="43.743504015728831" lon="7.425857009366155">
        <ele>103</ele>
        <time>2025-05-19T06:29:04Z</time>
      </trkpt>
      <trkpt lat="43.743411982432008" lon="7.425743015483022">
        <ele>103.95999999999999</ele>
        <time>2025-05-19T06:29:13Z</time>
      </trkpt>
      <trkpt lat="43.743172008544207" lon="7.425456019118428">
        <ele>102.52</ele>
        <time>2025-05-19T06:29:25Z</time>
      </trkpt>
      <trkpt lat="43.742976961657405" lon="7.425230965018272">
        <ele>101.08</ele>
        <time>2025-05-19T06:29:35Z</time>
      </trkpt>
      <trkpt lat="43.74294200912118" lon="7.425189977511764">
        <ele>101.08</ele>
        <time>2025-05-19T06:29:36Z</time>
      </trkpt>
      <trkpt lat="43.742902027443051" lon="7.425143960863352">
        <ele>101.08</ele>
        <time>2025-05-19T06:29:37Z</time>
      </trkpt>
      <trkpt lat="43.742863973602653" lon="7.425099033862352">
        <ele>101.08</ele>
        <time>2025-05-19T06:29:38Z</time>
      </trkpt>
      <trkpt lat="43.742736987769604" lon="7.424946986138821">
        <ele>101.08</ele>
        <time>2025-05-19T06:29:43Z</time>
      </trkpt>
      <trkpt lat="43.74272801913321" lon="7.424936005845666">
        <ele>101.08</ele>
        <time>2025-05-19T06:29:44Z</time>
      </trkpt>
      <trkpt lat="43.742712009698153" lon="7.424916978925467">
        <ele>100.59999999999999</ele>
        <time>2025-05-19T06:29:50Z</time>
      </trkpt>
      <trkpt lat="43.742690971121192" lon="7.424892000854015">
        <ele>100.59999999999999</ele>
        <time>2025-05-19T06:29:51Z</time>
      </trkpt>
      <trkpt lat="43.742662975564599" lon="7.42485897615552">
        <ele>100.11</ele>
        <time>2025-05-19T06:29:52Z</time>
      </trkpt>
      <trkpt lat="43.742631962522864" lon="7.424822011962533">
        <ele>100.11</ele>
        <time>2025-05-19T06:29:53Z</time>
      </trkpt>
      <trkpt lat="43.742601033300161" lon="7.424785969778895">
        <ele>99.629999999999995</ele>
        <time>2025-05-19T06:29:54Z</time>
      </trkpt>
      <trkpt lat="43.742412021383643" lon="7.424556976184249">
        <ele>97.230000000000004</ele>
        <time>2025-05-19T06:30:00Z</time>
      </trkpt>
      <trkpt lat="43.742387965321541" lon="7.424525963142514">
        <ele>96.75</ele>
        <time>2025-05-19T06:30:01Z</time>
      </trkpt>
      <trkpt lat="43.742258967831731" lon="7.424333011731505">
        <ele>94.349999999999994</ele>
        <time>2025-05-19T06:30:04Z</time>
      </trkpt>
      <trkpt lat="43.742227032780647" lon="7.424339968711138">
        <ele>92.900000000000006</ele>
        <time>2025-05-19T06:30:05Z</time>
      </trkpt>
      <trkpt lat="43.74216802418232" lon="7.424351032823324">
        <ele>91.939999999999998</ele>
        <time>2025-05-19T06:30:06Z</time>
      </trkpt>
      <trkpt lat="43.742114966735244" lon="7.424380034208298">
        <ele>90.980000000000004</ele>
        <time>2025-05-19T06:30:07Z</time>
      </trkpt>
      <trkpt lat="43.742066016420722" lon="7.424414986744523">
        <ele>90.019999999999996</ele>
        <time>2025-05-19T06:30:08Z</time>
      </trkpt>
      <trkpt lat="43.742001978680491" lon="7.424462009221315">
        <ele>89.540000000000006</ele>
        <time>2025-05-19T06:30:09Z</time>
      </trkpt>
      <trkpt lat="43.74195596203208" lon="7.424508025869727">
        <ele>89.060000000000002</ele>
        <time>2025-05-19T06:30:10Z</time>
      </trkpt>
      <trkpt lat="43.741899970918894" lon="7.424564016982913">
        <ele>88.099999999999994</ele>
        <time>2025-05-19T06:30:11Z</time>
      </trkpt>
      <trkpt lat="43.741872981190681" lon="7.424591006711125">
        <ele>87.140000000000001</ele>
        <time>2025-05-19T06:30:12Z</time>
      </trkpt>
      <trkpt lat="43.741813972592354" lon="7.424681028351188">
        <ele>85.689999999999998</ele>
        <time>2025-05-19T06:30:13Z</time>
      </trkpt>
      <trkpt lat="43.741771979257464" lon="7.424744982272387">
        <ele>84.730000000000004</ele>
        <time>2025-05-19T06:30:14Z</time>
      </trkpt>
      <trkpt lat="43.741731997579336" lon="7.424807008355856">
        <ele>83.769999999999996</ele>
        <time>2025-05-19T06:30:15Z</time>
      </trkpt>
      <trkpt lat="43.741657985374331" lon="7.424919996410608">
        <ele>78.480000000000004</ele>
        <time>2025-05-19T06:30:21Z</time>
      </trkpt>
      <trkpt lat="43.741621021181345" lon="7.424976993352175">
        <ele>77.519999999999996</ele>
        <time>2025-05-19T06:30:23Z</time>
      </trkpt>
      <trkpt lat="43.741551032289863" lon="7.425084030255675">
        <ele>71.269999999999996</ele>
        <time>2025-05-19T06:30:31Z</time>
      </trkpt>
      <trkpt lat="43.741492023691535" lon="7.425026027485728">
        <ele>69.829999999999998</ele>
        <time>2025-05-19T06:30:52Z</time>
      </trkpt>
      <trkpt lat="43.7412020098418" lon="7.424758980050683">
        <ele>69.349999999999994</ele>
        <time>2025-05-19T06:30:59Z</time>
      </trkpt>
      <trkpt lat="43.741113999858499" lon="7.424683962017298">
        <ele>68.390000000000001</ele>
        <time>2025-05-19T06:31:01Z</time>
      </trkpt>
      <trkpt lat="43.741064965724945" lon="7.424657978117466">
        <ele>68.390000000000001</ele>
        <time>2025-05-19T06:31:02Z</time>
      </trkpt>
      <trkpt lat="43.741025989875197" lon="7.42466501891613">
        <ele>67.909999999999997</ele>
        <time>2025-05-19T06:31:03Z</time>
      </trkpt>
      <trkpt lat="43.740986008197069" lon="7.424672981724143">
        <ele>67.430000000000007</ele>
        <time>2025-05-19T06:31:04Z</time>
      </trkpt>
      <trkpt lat="43.740960024297237" lon="7.424693014472723">
        <ele>66.950000000000003</ele>
        <time>2025-05-19T06:31:05Z</time>
      </trkpt>
      <trkpt lat="43.740937979891896" lon="7.424725033342838">
        <ele>66.469999999999999</ele>
        <time>2025-05-19T06:31:06Z</time>
      </trkpt>
      <trkpt lat="43.740920964628458" lon="7.424749005585909">
        <ele>65.989999999999995</ele>
        <time>2025-05-19T06:31:07Z</time>
      </trkpt>
      <trkpt lat="43.740920964628458" lon="7.424749005585909">
        <ele>65.030000000000001</ele>
        <time>2025-05-19T06:31:19Z</time>
      </trkpt>
      <trkpt lat="43.740866985172033" lon="7.424826035276055">
        <ele>64.549999999999997</ele>
        <time>2025-05-19T06:31:59Z</time>
      </trkpt>
      <trkpt lat="43.740851981565356" lon="7.424846990033984">
        <ele>65.030000000000001</ele>
        <time>2025-05-19T06:32:00Z</time>
      </trkpt>
      <trkpt lat="43.740777969360352" lon="7.424855036661029">
        <ele>65.510000000000005</ele>
        <time>2025-05-19T06:32:01Z</time>
      </trkpt>
      <trkpt lat="43.740742010995746" lon="7.424825029447675">
        <ele>65.989999999999995</ele>
        <time>2025-05-19T06:32:02Z</time>
      </trkpt>
      <trkpt lat="43.740693982690573" lon="7.424784963950515">
        <ele>66.950000000000003</ele>
        <time>2025-05-19T06:32:03Z</time>
      </trkpt>
      <trkpt lat="43.740633968263865" lon="7.424727967008948">
        <ele>67.909999999999997</ele>
        <time>2025-05-19T06:32:04Z</time>
      </trkpt>
      <trkpt lat="43.740199031308293" lon="7.424311973154545">
        <ele>70.310000000000002</ele>
        <time>2025-05-19T06:32:11Z</time>
      </trkpt>
      <trkpt lat="43.740269020199776" lon="7.424379028379917">
        <ele>70.310000000000002</ele>
        <time>2025-05-19T06:32:12Z</time>
      </trkpt>
      <trkpt lat="43.740254016593099" lon="7.42436402477324">
        <ele>70.790000000000006</ele>
        <time>2025-05-19T06:32:13Z</time>
      </trkpt>
      <trkpt lat="43.740242030471563" lon="7.424352960661054">
        <ele>71.269999999999996</ele>
        <time>2025-05-19T06:32:14Z</time>
      </trkpt>
      <trkpt lat="43.740228032693267" lon="7.424338962882757">
        <ele>71.760000000000005</ele>
        <time>2025-05-19T06:32:15Z</time>
      </trkpt>
      <trkpt lat="43.7402159627527" lon="7.424327982589603">
        <ele>72.719999999999999</ele>
        <time>2025-05-19T06:32:24Z</time>
      </trkpt>
      <trkpt lat="43.740185033529997" lon="7.424319013953209">
        <ele>73.680000000000007</ele>
        <time>2025-05-19T06:32:31Z</time>
      </trkpt>
      <trkpt lat="43.740180004388094" lon="7.42432102560997">
        <ele>73.200000000000003</ele>
        <time>2025-05-19T06:32:32Z</time>
      </trkpt>
      <trkpt lat="43.740198025479913" lon="7.424311973154545">
        <ele>73.200000000000003</ele>
        <time>2025-05-19T06:32:33Z</time>
      </trkpt>
      <trkpt lat="43.740582000464201" lon="7.424783958122134">
        <ele>69.829999999999998</ele>
        <time>2025-05-19T06:32:39Z</time>
      </trkpt>
      <trkpt lat="43.74062399379909" lon="7.424823017790914">
        <ele>69.349999999999994</ele>
        <time>2025-05-19T06:32:40Z</time>
      </trkpt>
      <trkpt lat="43.740628017112613" lon="7.424827041104436">
        <ele>68.870000000000005</ele>
        <time>2025-05-19T06:32:41Z</time>
      </trkpt>
      <trkpt lat="43.740657018497586" lon="7.42490197531879">
        <ele>68.390000000000001</ele>
        <time>2025-05-19T06:32:42Z</time>
      </trkpt>
      <trkpt lat="43.740677973255515" lon="7.424957966431975">
        <ele>67.430000000000007</ele>
        <time>2025-05-19T06:32:43Z</time>
      </trkpt>
      <trkpt lat="43.740692976862192" lon="7.424998031929135">
        <ele>66.950000000000003</ele>
        <time>2025-05-19T06:32:44Z</time>
      </trkpt>
      <trkpt lat="43.740692976862192" lon="7.425055028870702">
        <ele>65.989999999999995</ele>
        <time>2025-05-19T06:32:45Z</time>
      </trkpt>
      <trkpt lat="43.740690965205431" lon="7.425112025812268">
        <ele>65.030000000000001</ele>
        <time>2025-05-19T06:32:46Z</time>
      </trkpt>
      <trkpt lat="43.740671016275883" lon="7.425192994996905">
        <ele>64.549999999999997</ele>
        <time>2025-05-19T06:32:47Z</time>
      </trkpt>
      <trkpt lat="43.740649977698922" lon="7.425276981666684">
        <ele>63.579999999999998</ele>
        <time>2025-05-19T06:32:48Z</time>
      </trkpt>
      <trkpt lat="43.740632962435484" lon="7.425314029678702">
        <ele>62.619999999999997</ele>
        <time>2025-05-19T06:32:49Z</time>
      </trkpt>
      <trkpt lat="43.740613013505936" lon="7.425360968336463">
        <ele>62.140000000000001</ele>
        <time>2025-05-19T06:32:50Z</time>
      </trkpt>
      <trkpt lat="43.740582000464201" lon="7.425431041046977">
        <ele>59.740000000000002</ele>
        <time>2025-05-19T06:32:59Z</time>
      </trkpt>
      <trkpt lat="43.740556016564369" lon="7.425490971654654">
        <ele>59.259999999999998</ele>
        <time>2025-05-19T06:33:32Z</time>
      </trkpt>
      <trkpt lat="43.740530032664537" lon="7.425550986081362">
        <ele>58.299999999999997</ele>
        <time>2025-05-19T06:33:33Z</time>
      </trkpt>
      <trkpt lat="43.740390976890922" lon="7.425565989688039">
        <ele>57.82</ele>
        <time>2025-05-19T06:33:34Z</time>
      </trkpt>
      <trkpt lat="43.740329034626484" lon="7.425535982474685">
        <ele>58.299999999999997</ele>
        <time>2025-05-19T06:33:35Z</time>
      </trkpt>
      <trkpt lat="43.740266002714634" lon="7.425503963604569">
        <ele>58.299999999999997</ele>
        <time>2025-05-19T06:33:36Z</time>
      </trkpt>
      <trkpt lat="43.740201964974403" lon="7.425469011068344">
        <ele>58.299999999999997</ele>
        <time>2025-05-19T06:33:37Z</time>
      </trkpt>
      <trkpt lat="43.74012996442616" lon="7.425431041046977">
        <ele>57.82</ele>
        <time>2025-05-19T06:33:38Z</time>
      </trkpt>
      <trkpt lat="43.740053018555045" lon="7.425389969721437">
        <ele>57.82</ele>
        <time>2025-05-19T06:33:39Z</time>
      </trkpt>
      <trkpt lat="43.739866018295288" lon="7.425279999151826">
        <ele>57.82</ele>
        <time>2025-05-19T06:33:42Z</time>
      </trkpt>
      <trkpt lat="43.739774990826845" lon="7.425221996381879">
        <ele>57.82</ele>
        <time>2025-05-19T06:33:44Z</time>
      </trkpt>
      <trkpt lat="43.739739032462239" lon="7.425199029967189">
        <ele>57.82</ele>
        <time>2025-05-19T06:33:45Z</time>
      </trkpt>
      <trkpt lat="43.739711958914995" lon="7.425228031352162">
        <ele>57.82</ele>
        <time>2025-05-19T06:33:46Z</time>
      </trkpt>
      <trkpt lat="43.739687986671925" lon="7.425284022465348">
        <ele>57.82</ele>
        <time>2025-05-19T06:33:47Z</time>
      </trkpt>
      <trkpt lat="43.739658985286951" lon="7.425351999700069">
        <ele>57.82</ele>
        <time>2025-05-19T06:33:48Z</time>
      </trkpt>
      <trkpt lat="43.739578016102314" lon="7.425544029101729">
        <ele>57.340000000000003</ele>
        <time>2025-05-19T06:33:51Z</time>
      </trkpt>
      <trkpt lat="43.739523030817509" lon="7.425675038248301">
        <ele>56.859999999999999</ele>
        <time>2025-05-19T06:33:53Z</time>
      </trkpt>
      <trkpt lat="43.739491011947393" lon="7.425748966634274">
        <ele>56.369999999999997</ele>
        <time>2025-05-19T06:33:54Z</time>
      </trkpt>
      <trkpt lat="43.739450024440885" lon="7.425790959969163">
        <ele>55.890000000000001</ele>
        <time>2025-05-19T06:33:55Z</time>
      </trkpt>
      <trkpt lat="43.739385986700654" lon="7.425807975232601">
        <ele>55.409999999999997</ele>
        <time>2025-05-19T06:33:56Z</time>
      </trkpt>
      <trkpt lat="43.739335024729371" lon="7.425802024081349">
        <ele>54.93</ele>
        <time>2025-05-19T06:33:57Z</time>
      </trkpt>
      <trkpt lat="43.739288002252579" lon="7.425794983282685">
        <ele>54.450000000000003</ele>
        <time>2025-05-19T06:33:58Z</time>
      </trkpt>
      <trkpt lat="43.739105025306344" lon="7.425771011039615">
        <ele>53.969999999999999</ele>
        <time>2025-05-19T06:33:59Z</time>
      </trkpt>
      <trkpt lat="43.739105025306344" lon="7.425771011039615">
        <ele>53.009999999999998</ele>
        <time>2025-05-19T06:34:00Z</time>
      </trkpt>
      <trkpt lat="43.738892963156104" lon="7.42601802572608">
        <ele>49.649999999999999</ele>
        <time>2025-05-19T06:34:04Z</time>
      </trkpt>
      <trkpt lat="43.738852981477976" lon="7.426092037931085">
        <ele>49.159999999999997</ele>
        <time>2025-05-19T06:34:05Z</time>
      </trkpt>
      <trkpt lat="43.738418966531754" lon="7.42687800899148">
        <ele>41.469999999999999</ele>
        <time>2025-05-19T06:34:15Z</time>
      </trkpt>
      <trkpt lat="43.738348977640271" lon="7.42692100815475">
        <ele>40.509999999999998</ele>
        <time>2025-05-19T06:34:16Z</time>
      </trkpt>
      <trkpt lat="43.738268008455634" lon="7.426971970126033">
        <ele>40.030000000000001</ele>
        <time>2025-05-19T06:34:17Z</time>
      </trkpt>
      <trkpt lat="43.738202964887023" lon="7.42694397456944">
        <ele>39.549999999999997</ele>
        <time>2025-05-19T06:34:18Z</time>
      </trkpt>
      <trkpt lat="43.738125013187528" lon="7.426909022033215">
        <ele>38.590000000000003</ele>
        <time>2025-05-19T06:34:19Z</time>
      </trkpt>
      <trkpt lat="43.738048989325762" lon="7.426853030920029">
        <ele>38.109999999999999</ele>
        <time>2025-05-19T06:34:20Z</time>
      </trkpt>
      <trkpt lat="43.737987969070673" lon="7.426774995401502">
        <ele>37.149999999999999</ele>
        <time>2025-05-19T06:34:21Z</time>
      </trkpt>
      <trkpt lat="43.737930972129107" lon="7.426701989024878">
        <ele>36.670000000000002</ele>
        <time>2025-05-19T06:34:22Z</time>
      </trkpt>
      <trkpt lat="43.737903982400894" lon="7.426600987091661">
        <ele>36.189999999999998</ele>
        <time>2025-05-19T06:34:23Z</time>
      </trkpt>
      <trkpt lat="43.737881015986204" lon="7.426496967673302">
        <ele>35.710000000000001</ele>
        <time>2025-05-19T06:34:24Z</time>
      </trkpt>
      <trkpt lat="43.737862994894385" lon="7.42638498544693">
        <ele>35.710000000000001</ele>
        <time>2025-05-19T06:34:25Z</time>
      </trkpt>
      <trkpt lat="43.737843967974186" lon="7.426271997392178">
        <ele>35.229999999999997</ele>
        <time>2025-05-19T06:34:26Z</time>
      </trkpt>
      <trkpt lat="43.737773979082704" lon="7.425985001027584">
        <ele>34.259999999999998</ele>
        <time>2025-05-19T06:34:29Z</time>
      </trkpt>
      <trkpt lat="43.737741038203239" lon="7.425816021859646">
        <ele>33.780000000000001</ele>
        <time>2025-05-19T06:34:30Z</time>
      </trkpt>
      <trkpt lat="43.737702984362841" lon="7.425690963864327">
        <ele>33.299999999999997</ele>
        <time>2025-05-19T06:34:31Z</time>
      </trkpt>
      <trkpt lat="43.737465022131801" lon="7.424985961988568">
        <ele>30.420000000000002</ele>
        <time>2025-05-19T06:34:36Z</time>
      </trkpt>
      <trkpt lat="43.737449012696743" lon="7.424841960892081">
        <ele>29.460000000000001</ele>
        <time>2025-05-19T06:34:37Z</time>
      </trkpt>
      <trkpt lat="43.737431997433305" lon="7.424696031957865">
        <ele>28.5</ele>
        <time>2025-05-19T06:34:38Z</time>
      </trkpt>
      <trkpt lat="43.737415987998247" lon="7.424551025032997">
        <ele>27.050000000000001</ele>
        <time>2025-05-19T06:34:39Z</time>
      </trkpt>
      <trkpt lat="43.737398972734809" lon="7.424403000622988">
        <ele>25.129999999999999</ele>
        <time>2025-05-19T06:34:40Z</time>
      </trkpt>
      <trkpt lat="43.737367037683725" lon="7.424119021743536">
        <ele>22.25</ele>
        <time>2025-05-19T06:34:42Z</time>
      </trkpt>
      <trkpt lat="43.73733501881361" lon="7.423960017040372">
        <ele>20.32</ele>
        <time>2025-05-19T06:34:43Z</time>
      </trkpt>
      <trkpt lat="43.737302999943495" lon="7.42380796931684">
        <ele>18.879999999999999</ele>
        <time>2025-05-19T06:34:44Z</time>
      </trkpt>
      <trkpt lat="43.737272992730141" lon="7.423663968220353">
        <ele>17.920000000000002</ele>
        <time>2025-05-19T06:34:45Z</time>
      </trkpt>
      <trkpt lat="43.737243991345167" lon="7.423523990437388">
        <ele>16.48</ele>
        <time>2025-05-19T06:34:46Z</time>
      </trkpt>
      <trkpt lat="43.737217001616955" lon="7.423387030139566">
        <ele>14.56</ele>
        <time>2025-05-19T06:34:47Z</time>
      </trkpt>
      <trkpt lat="43.737191017717123" lon="7.423253003507853">
        <ele>13.119999999999999</ele>
        <time>2025-05-19T06:34:48Z</time>
      </trkpt>
      <trkpt lat="43.737164027988911" lon="7.423114031553268">
        <ele>11.67</ele>
        <time>2025-05-19T06:34:49Z</time>
      </trkpt>
      <trkpt lat="43.737131003290415" lon="7.422938011586666">
        <ele>10.23</ele>
        <time>2025-05-19T06:34:50Z</time>
      </trkpt>
      <trkpt lat="43.737100996077061" lon="7.422714969143271">
        <ele>6.87</ele>
        <time>2025-05-19T06:34:52Z</time>
      </trkpt>
      <trkpt lat="43.737071994692087" lon="7.42249502800405">
        <ele>3.5</ele>
        <time>2025-05-19T06:34:54Z</time>
      </trkpt>
      <trkpt lat="43.73705699108541" lon="7.42238799110055">
        <ele>2.06</ele>
        <time>2025-05-19T06:34:55Z</time>
      </trkpt>
      <trkpt lat="43.737002005800605" lon="7.421865966171026">
        <ele>-2.27</ele>
        <time>2025-05-19T06:35:00Z</time>
      </trkpt>
      <trkpt lat="43.736996976658702" lon="7.421820033341646">
        <ele>-2.27</ele>
        <time>2025-05-19T06:35:01Z</time>
      </trkpt>
      <trkpt lat="43.736979961395264" lon="7.421650970354676">
        <ele>-2.27</ele>
        <time>2025-05-19T06:35:02Z</time>
      </trkpt>
      <trkpt lat="43.736951965838671" lon="7.421554997563362">
        <ele>-2.75</ele>
        <time>2025-05-19T06:35:04Z</time>
      </trkpt>
      <trkpt lat="43.736920030787587" lon="7.421506969258189">
        <ele>-3.23</ele>
        <time>2025-05-19T06:35:05Z</time>
      </trkpt>
      <trkpt lat="43.736916007474065" lon="7.421501018106937">
        <ele>-3.71</ele>
        <time>2025-05-19T06:35:06Z</time>
      </trkpt>
      <trkpt lat="43.73686202801764" lon="7.421544017270207">
        <ele>-4.19</ele>
        <time>2025-05-19T06:35:07Z</time>
      </trkpt>
      <trkpt lat="43.736845012754202" lon="7.421558015048504">
        <ele>-4.67</ele>
        <time>2025-05-19T06:35:08Z</time>
      </trkpt>
      <trkpt lat="43.736808970570564" lon="7.421587016433477">
        <ele>-4.67</ele>
        <time>2025-05-19T06:35:09Z</time>
      </trkpt>
      <trkpt lat="43.736808970570564" lon="7.421587016433477">
        <ele>-4.67</ele>
        <time>2025-05-19T06:35:10Z</time>
      </trkpt>
      <trkpt lat="43.736787009984255" lon="7.421630015596747">
        <ele>-5.15</ele>
        <time>2025-05-19T06:35:11Z</time>
      </trkpt>
      <trkpt lat="43.736796984449029" lon="7.421651976183057">
        <ele>-4.67</ele>
        <time>2025-05-19T06:35:12Z</time>
      </trkpt>
      <trkpt lat="43.736827997490764" lon="7.421724982559681">
        <ele>-4.19</ele>
        <time>2025-05-19T06:35:13Z</time>
      </trkpt>
      <trkpt lat="43.736853981390595" lon="7.42180896922946">
        <ele>-4.67</ele>
        <time>2025-05-19T06:35:14Z</time>
      </trkpt>
      <trkpt lat="43.736860016360879" lon="7.421878958120942">
        <ele>-4.67</ele>
        <time>2025-05-19T06:35:15Z</time>
      </trkpt>
      <trkpt lat="43.736869990825653" lon="7.421995969489217">
        <ele>-4.67</ele>
        <time>2025-05-19T06:35:17Z</time>
      </trkpt>
      <trkpt lat="43.736877031624317" lon="7.422075010836124">
        <ele>-4.67</ele>
        <time>2025-05-19T06:35:18Z</time>
      </trkpt>
      <trkpt lat="43.736895974725485" lon="7.422243990004063">
        <ele>-5.63</ele>
        <time>2025-05-19T06:35:20Z</time>
      </trkpt>
      <trkpt lat="43.736915001645684" lon="7.422434007748961">
        <ele>-6.11</ele>
        <time>2025-05-19T06:35:22Z</time>
      </trkpt>
      <trkpt lat="43.736953977495432" lon="7.42283801548183">
        <ele>-8.029999999999999</ele>
        <time>2025-05-19T06:35:28Z</time>
      </trkpt>
      <trkpt lat="43.736958000808954" lon="7.42288202047348">
        <ele>-8.51</ele>
        <time>2025-05-19T06:35:29Z</time>
      </trkpt>
      <trkpt lat="43.736961018294096" lon="7.422908004373312">
        <ele>-8.51</ele>
        <time>2025-05-19T06:35:30Z</time>
      </trkpt>
      <trkpt lat="43.736963029950857" lon="7.422930970788002">
        <ele>-8.029999999999999</ele>
        <time>2025-05-19T06:35:31Z</time>
      </trkpt>
      <trkpt lat="43.736965963616967" lon="7.422957038506866">
        <ele>-8.029999999999999</ele>
        <time>2025-05-19T06:35:32Z</time>
      </trkpt>
      <trkpt lat="43.736966969445348" lon="7.422975981608033">
        <ele>-8.029999999999999</ele>
        <time>2025-05-19T06:35:33Z</time>
      </trkpt>
      <trkpt lat="43.736966969445348" lon="7.422975981608033">
        <ele>-8.029999999999999</ele>
        <time>2025-05-19T06:35:34Z</time>
      </trkpt>
      <trkpt lat="43.73697099275887" lon="7.42301101796329">
        <ele>-7.55</ele>
        <time>2025-05-19T06:35:35Z</time>
      </trkpt>
      <trkpt lat="43.73697099275887" lon="7.42301101796329">
        <ele>-8.51</ele>
        <time>2025-05-19T06:35:51Z</time>
      </trkpt>
      <trkpt lat="43.73697099275887" lon="7.42301101796329">
        <ele>-7.55</ele>
        <time>2025-05-19T06:36:24Z</time>
      </trkpt>
      <trkpt lat="43.73697099275887" lon="7.42301101796329">
        <ele>-8.029999999999999</ele>
        <time>2025-05-19T06:37:09Z</time>
      </trkpt>
      <trkpt lat="43.73697099275887" lon="7.42301101796329">
        <ele>-7.55</ele>
        <time>2025-05-19T06:37:54Z</time>
      </trkpt>
      <trkpt lat="43.740154020488262" lon="7.430324982851744">
        <ele>-9</ele>
        <time>2025-05-19T06:45:26Z</time>
      </trkpt>
      <trkpt lat="43.74075198546052" lon="7.430360019207001">
        <ele>2.06</ele>
        <time>2025-05-19T06:45:39Z</time>
      </trkpt>
      <trkpt lat="43.741057002916932" lon="7.430383991450071">
        <ele>10.23</ele>
        <time>2025-05-19T06:45:49Z</time>
      </trkpt>
      <trkpt lat="43.741127997636795" lon="7.430383991450071">
        <ele>10.710000000000001</ele>
        <time>2025-05-19T06:45:59Z</time>
      </trkpt>
      <trkpt lat="43.741127997636795" lon="7.430383991450071">
        <ele>15.039999999999999</ele>
        <time>2025-05-19T06:46:12Z</time>
      </trkpt>
      <trkpt lat="43.741317009553313" lon="7.430407963693142">
        <ele>15.039999999999999</ele>
        <time>2025-05-19T06:46:17Z</time>
      </trkpt>
      <trkpt lat="43.741518007591367" lon="7.430411987006664">
        <ele>14.08</ele>
        <time>2025-05-19T06:46:20Z</time>
      </trkpt>
      <trkpt lat="43.741593025624752" lon="7.430374016985297">
        <ele>13.6</ele>
        <time>2025-05-19T06:46:21Z</time>
      </trkpt>
      <trkpt lat="43.741651028394699" lon="7.430312996730208">
        <ele>13.119999999999999</ele>
        <time>2025-05-19T06:46:22Z</time>
      </trkpt>
      <trkpt lat="43.741708025336266" lon="7.430234039202333">
        <ele>13.119999999999999</ele>
        <time>2025-05-19T06:46:23Z</time>
      </trkpt>
      <trkpt lat="43.741743983700871" lon="7.430170001462102">
        <ele>12.630000000000001</ele>
        <time>2025-05-19T06:46:24Z</time>
      </trkpt>
      <trkpt lat="43.741808021441102" lon="7.429998004809022">
        <ele>12.630000000000001</ele>
        <time>2025-05-19T06:46:25Z</time>
      </trkpt>
      <trkpt lat="43.741808021441102" lon="7.429998004809022">
        <ele>12.630000000000001</ele>
        <time>2025-05-19T06:46:26Z</time>
      </trkpt>
      <trkpt lat="43.741808021441102" lon="7.429998004809022">
        <ele>12.630000000000001</ele>
        <time>2025-05-19T06:46:27Z</time>
      </trkpt>
      <trkpt lat="43.741894019767642" lon="7.429933967068791">
        <ele>13.119999999999999</ele>
        <time>2025-05-19T06:46:28Z</time>
      </trkpt>
      <trkpt lat="43.741898965090513" lon="7.429932961240411">
        <ele>12.15</ele>
        <time>2025-05-19T06:46:35Z</time>
      </trkpt>
      <trkpt lat="43.741936013102531" lon="7.42992801591754">
        <ele>12.15</ele>
        <time>2025-05-19T06:46:36Z</time>
      </trkpt>
      <trkpt lat="43.742144973948598" lon="7.429901026189327">
        <ele>12.630000000000001</ele>
        <time>2025-05-19T06:46:39Z</time>
      </trkpt>
      <trkpt lat="43.742228038609028" lon="7.429889962077141">
        <ele>12.630000000000001</ele>
        <time>2025-05-19T06:46:40Z</time>
      </trkpt>
      <trkpt lat="43.742932034656405" lon="7.429797006770968">
        <ele>13.6</ele>
        <time>2025-05-19T06:46:47Z</time>
      </trkpt>
      <trkpt lat="43.743035970255733" lon="7.429976966232061">
        <ele>14.08</ele>
        <time>2025-05-19T06:46:48Z</time>
      </trkpt>
      <trkpt lat="43.743122974410653" lon="7.4299939814955">
        <ele>15.039999999999999</ele>
        <time>2025-05-19T06:46:49Z</time>
      </trkpt>
      <trkpt lat="43.743208972737193" lon="7.430016025900841">
        <ele>15.52</ele>
        <time>2025-05-19T06:46:50Z</time>
      </trkpt>
      <trkpt lat="43.743307963013649" lon="7.430039998143911">
        <ele>15.52</ele>
        <time>2025-05-19T06:46:51Z</time>
      </trkpt>
      <trkpt lat="43.74339597299695" lon="7.430061958730221">
        <ele>15.52</ele>
        <time>2025-05-19T06:46:52Z</time>
      </trkpt>
      <trkpt lat="43.74369696713984" lon="7.430234039202333">
        <ele>16</ele>
        <time>2025-05-19T06:46:55Z</time>
      </trkpt>
      <trkpt lat="43.744340026751161" lon="7.430170001462102">
        <ele>17.920000000000002</ele>
        <time>2025-05-19T06:47:00Z</time>
      </trkpt>
      <trkpt lat="43.74440498650074" lon="7.430191040039063">
        <ele>18.399999999999999</ele>
        <time>2025-05-19T06:47:01Z</time>
      </trkpt>
      <trkpt lat="43.744890969246626" lon="7.430492034181953">
        <ele>21.289999999999999</ele>
        <time>2025-05-19T06:47:09Z</time>
      </trkpt>
      <trkpt lat="43.745036981999874" lon="7.430583983659744">
        <ele>21.77</ele>
        <time>2025-05-19T06:47:13Z</time>
      </trkpt>
      <trkpt lat="43.74509297311306" lon="7.430621031671763">
        <ele>21.77</ele>
        <time>2025-05-19T06:47:14Z</time>
      </trkpt>
      <trkpt lat="43.745150975883007" lon="7.430646009743214">
        <ele>21.77</ele>
        <time>2025-05-19T06:47:15Z</time>
      </trkpt>
      <trkpt lat="43.745208978652954" lon="7.430670987814665">
        <ele>22.25</ele>
        <time>2025-05-19T06:47:16Z</time>
      </trkpt>
      <trkpt lat="43.745266981422901" lon="7.430696971714497">
        <ele>22.25</ele>
        <time>2025-05-19T06:47:17Z</time>
      </trkpt>
      <trkpt lat="43.745320038869977" lon="7.430715998634696">
        <ele>22.25</ele>
        <time>2025-05-19T06:47:18Z</time>
      </trkpt>
      <trkpt lat="43.74537100084126" lon="7.430731002241373">
        <ele>22.73</ele>
        <time>2025-05-19T06:47:19Z</time>
      </trkpt>
      <trkpt lat="43.745523970574141" lon="7.430856982246041">
        <ele>22.25</ele>
        <time>2025-05-19T06:47:22Z</time>
      </trkpt>
      <trkpt lat="43.745583985000849" lon="7.430911967530847">
        <ele>22.25</ele>
        <time>2025-05-19T06:47:23Z</time>
      </trkpt>
      <trkpt lat="43.746221009641886" lon="7.431513033807278">
        <ele>19.84</ele>
        <time>2025-05-19T06:47:31Z</time>
      </trkpt>
      <trkpt lat="43.746687965467572" lon="7.432263968512416">
        <ele>17.920000000000002</ele>
        <time>2025-05-19T06:47:38Z</time>
      </trkpt>
      <trkpt lat="43.74674797989428" lon="7.432375028729439">
        <ele>17.440000000000001</ele>
        <time>2025-05-19T06:47:39Z</time>
      </trkpt>
      <trkpt lat="43.74681101180613" lon="7.432491034269333">
        <ele>17.440000000000001</ele>
        <time>2025-05-19T06:47:40Z</time>
      </trkpt>
      <trkpt lat="43.747334964573383" lon="7.433375995606184">
        <ele>17.440000000000001</ele>
        <time>2025-05-19T06:47:48Z</time>
      </trkpt>
      <trkpt lat="43.747396990656853" lon="7.433481020852923">
        <ele>17.440000000000001</ele>
        <time>2025-05-19T06:47:49Z</time>
      </trkpt>
      <trkpt lat="43.747581979259849" lon="7.43379601277411">
        <ele>17.440000000000001</ele>
        <time>2025-05-19T06:47:52Z</time>
      </trkpt>
      <trkpt lat="43.748138034716249" lon="7.434739982709289">
        <ele>20.32</ele>
        <time>2025-05-19T06:48:03Z</time>
      </trkpt>
      <trkpt lat="43.748663999140263" lon="7.435683030635119">
        <ele>24.170000000000002</ele>
        <time>2025-05-19T06:48:14Z</time>
      </trkpt>
      <trkpt lat="43.749078987166286" lon="7.436663964763284">
        <ele>21.289999999999999</ele>
        <time>2025-05-19T06:48:22Z</time>
      </trkpt>
      <trkpt lat="43.749427003785968" lon="7.437484972178936">
        <ele>13.6</ele>
        <time>2025-05-19T06:48:29Z</time>
      </trkpt>
      <trkpt lat="43.749472014605999" lon="7.43759997189045">
        <ele>12.15</ele>
        <time>2025-05-19T06:48:30Z</time>
      </trkpt>
      <trkpt lat="43.749514007940888" lon="7.43770600296557">
        <ele>11.19</ele>
        <time>2025-05-19T06:48:31Z</time>
      </trkpt>
      <trkpt lat="43.749547032639384" lon="7.437781020998955">
        <ele>10.23</ele>
        <time>2025-05-19T06:48:32Z</time>
      </trkpt>
      <trkpt lat="43.749579973518848" lon="7.43785603903234">
        <ele>9.75</ele>
        <time>2025-05-19T06:48:33Z</time>
      </trkpt>
      <trkpt lat="43.749609980732203" lon="7.4379220046103">
        <ele>8.310000000000001</ele>
        <time>2025-05-19T06:48:34Z</time>
      </trkpt>
      <trkpt lat="43.749648034572601" lon="7.43800699710846">
        <ele>8.310000000000001</ele>
        <time>2025-05-19T06:48:35Z</time>
      </trkpt>
      <trkpt lat="43.749672006815672" lon="7.438061982393265">
        <ele>7.35</ele>
        <time>2025-05-19T06:48:36Z</time>
      </trkpt>
      <trkpt lat="43.749694973230362" lon="7.438107999041677">
        <ele>6.87</ele>
        <time>2025-05-19T06:48:37Z</time>
      </trkpt>
      <trkpt lat="43.749727997928858" lon="7.438168013468385">
        <ele>6.39</ele>
        <time>2025-05-19T06:48:38Z</time>
      </trkpt>
      <trkpt lat="43.749777032062411" lon="7.438255017623305">
        <ele>6.39</ele>
        <time>2025-05-19T06:48:39Z</time>
      </trkpt>
      <trkpt lat="43.749825982376933" lon="7.438378985971212">
        <ele>6.39</ele>
        <time>2025-05-19T06:48:40Z</time>
      </trkpt>
      <trkpt lat="43.749877028167248" lon="7.438517035916448">
        <ele>6.39</ele>
        <time>2025-05-19T06:48:41Z</time>
      </trkpt>
      <trkpt lat="43.749939976260066" lon="7.438647039234638">
        <ele>5.91</ele>
        <time>2025-05-19T06:48:42Z</time>
      </trkpt>
      <trkpt lat="43.750210041180253" lon="7.439204016700387">
        <ele>4.94</ele>
        <time>2025-05-19T06:48:46Z</time>
      </trkpt>
      <trkpt lat="43.750258991494775" lon="7.439314993098378">
        <ele>5.42</ele>
        <time>2025-05-19T06:48:47Z</time>
      </trkpt>
      <trkpt lat="43.750322023406625" lon="7.439434016123414">
        <ele>5.42</ele>
        <time>2025-05-19T06:48:48Z</time>
      </trkpt>
      <trkpt lat="43.750386983156204" lon="7.439536023885012">
        <ele>5.42</ele>
        <time>2025-05-19T06:48:49Z</time>
      </trkpt>
      <trkpt lat="43.75046200118959" lon="7.4396419711411">
        <ele>5.42</ele>
        <time>2025-05-19T06:48:50Z</time>
      </trkpt>
      <trkpt lat="43.750690994784236" lon="7.43989996612072">
        <ele>7.35</ele>
        <time>2025-05-19T06:48:54Z</time>
      </trkpt>
      <trkpt lat="43.750756038352847" lon="7.439975989982486">
        <ele>7.83</ele>
        <time>2025-05-19T06:48:55Z</time>
      </trkpt>
      <trkpt lat="43.750842036679387" lon="7.440169025212526">
        <ele>8.789999999999999</ele>
        <time>2025-05-19T06:48:56Z</time>
      </trkpt>
      <trkpt lat="43.750823009759188" lon="7.440202971920371">
        <ele>9.27</ele>
        <time>2025-05-19T06:48:57Z</time>
      </trkpt>
      <trkpt lat="43.750797025859356" lon="7.440251000225544">
        <ele>9.75</ele>
        <time>2025-05-19T06:48:58Z</time>
      </trkpt>
      <trkpt lat="43.750629974529147" lon="7.440211018547416">
        <ele>11.19</ele>
        <time>2025-05-19T06:48:59Z</time>
      </trkpt>
      <trkpt lat="43.750610025599599" lon="7.440182017162442">
        <ele>11.19</ele>
        <time>2025-05-19T06:49:00Z</time>
      </trkpt>
      <trkpt lat="43.750582030043006" lon="7.440141029655933">
        <ele>12.15</ele>
        <time>2025-05-19T06:49:01Z</time>
      </trkpt>
      <trkpt lat="43.750541964545846" lon="7.440083026885986">
        <ele>12.630000000000001</ele>
        <time>2025-05-19T06:49:02Z</time>
      </trkpt>
      <trkpt lat="43.750501982867718" lon="7.44002602994442">
        <ele>13.6</ele>
        <time>2025-05-19T06:49:03Z</time>
      </trkpt>
      <trkpt lat="43.750321017578244" lon="7.439668038859963">
        <ele>16.48</ele>
        <time>2025-05-19T06:49:08Z</time>
      </trkpt>
      <trkpt lat="43.750293022021651" lon="7.439590003341436">
        <ele>16.960000000000001</ele>
        <time>2025-05-19T06:49:09Z</time>
      </trkpt>
      <trkpt lat="43.750273995101452" lon="7.439438961446285">
        <ele>17.920000000000002</ele>
        <time>2025-05-19T06:49:11Z</time>
      </trkpt>
      <trkpt lat="43.750295033678412" lon="7.439360003918409">
        <ele>18.399999999999999</ele>
        <time>2025-05-19T06:49:12Z</time>
      </trkpt>
      <trkpt lat="43.750347001478076" lon="7.439286997541785">
        <ele>19.359999999999999</ele>
        <time>2025-05-19T06:49:13Z</time>
      </trkpt>
      <trkpt lat="43.750426964834332" lon="7.439224971458316">
        <ele>20.32</ele>
        <time>2025-05-19T06:49:14Z</time>
      </trkpt>
      <trkpt lat="43.750508017838001" lon="7.439224971458316">
        <ele>20.809999999999999</ele>
        <time>2025-05-19T06:49:15Z</time>
      </trkpt>
      <trkpt lat="43.750584963709116" lon="7.439224971458316">
        <ele>22.25</ele>
        <time>2025-05-19T06:49:16Z</time>
      </trkpt>
      <trkpt lat="43.750689988955855" lon="7.439286997541785">
        <ele>23.690000000000001</ele>
        <time>2025-05-19T06:49:17Z</time>
      </trkpt>
      <trkpt lat="43.750747991725802" lon="7.439376013353467">
        <ele>24.649999999999999</ele>
        <time>2025-05-19T06:49:18Z</time>
      </trkpt>
      <trkpt lat="43.750804988667369" lon="7.439472991973162">
        <ele>25.609999999999999</ele>
        <time>2025-05-19T06:49:19Z</time>
      </trkpt>
      <trkpt lat="43.751184018328786" lon="7.44002896361053">
        <ele>30.899999999999999</ele>
        <time>2025-05-19T06:49:25Z</time>
      </trkpt>
      <trkpt lat="43.751249983906746" lon="7.440102975815535">
        <ele>31.859999999999999</ele>
        <time>2025-05-19T06:49:26Z</time>
      </trkpt>
      <trkpt lat="43.751331036910415" lon="7.440126026049256">
        <ele>32.82</ele>
        <time>2025-05-19T06:49:27Z</time>
      </trkpt>
      <trkpt lat="43.751407982781529" lon="7.440097024664283">
        <ele>33.780000000000001</ele>
        <time>2025-05-19T06:49:28Z</time>
      </trkpt>
      <trkpt lat="43.751470008864999" lon="7.440033992752433">
        <ele>35.229999999999997</ele>
        <time>2025-05-19T06:49:29Z</time>
      </trkpt>
      <trkpt lat="43.751502027735114" lon="7.439929973334074">
        <ele>36.670000000000002</ele>
        <time>2025-05-19T06:49:30Z</time>
      </trkpt>
      <trkpt lat="43.751524994149804" lon="7.43981103412807">
        <ele>37.630000000000003</ele>
        <time>2025-05-19T06:49:31Z</time>
      </trkpt>
      <trkpt lat="43.751548966392875" lon="7.439683964475989">
        <ele>38.590000000000003</ele>
        <time>2025-05-19T06:49:32Z</time>
      </trkpt>
      <trkpt lat="43.751615015789866" lon="7.439218014478684">
        <ele>42.439999999999998</ele>
        <time>2025-05-19T06:49:36Z</time>
      </trkpt>
      <trkpt lat="43.751615015789866" lon="7.439112989231944">
        <ele>41.950000000000003</ele>
        <time>2025-05-19T06:49:37Z</time>
      </trkpt>
      <trkpt lat="43.751615015789866" lon="7.439009975641966">
        <ele>41.950000000000003</ele>
        <time>2025-05-19T06:49:38Z</time>
      </trkpt>
      <trkpt lat="43.751633036881685" lon="7.438810989260674">
        <ele>41.950000000000003</ele>
        <time>2025-05-19T06:49:40Z</time>
      </trkpt>
      <trkpt lat="43.751661032438278" lon="7.438714010640979">
        <ele>41.950000000000003</ele>
        <time>2025-05-19T06:49:41Z</time>
      </trkpt>
      <trkpt lat="43.751753987744451" lon="7.438421985134482">
        <ele>41.950000000000003</ele>
        <time>2025-05-19T06:49:44Z</time>
      </trkpt>
      <trkpt lat="43.751834034919739" lon="7.43820296600461">
        <ele>42.920000000000002</ele>
        <time>2025-05-19T06:49:47Z</time>
      </trkpt>
      <trkpt lat="43.751864964142442" lon="7.43811596184969">
        <ele>42.920000000000002</ele>
        <time>2025-05-19T06:49:48Z</time>
      </trkpt>
      <trkpt lat="43.751915004104376" lon="7.437980007380247">
        <ele>43.399999999999999</ele>
        <time>2025-05-19T06:49:49Z</time>
      </trkpt>
      <trkpt lat="43.751884996891022" lon="7.437867019325495">
        <ele>43.399999999999999</ele>
        <time>2025-05-19T06:49:50Z</time>
      </trkpt>
      <trkpt lat="43.751850966364145" lon="7.437809016555548">
        <ele>43.399999999999999</ele>
        <time>2025-05-19T06:49:51Z</time>
      </trkpt>
      <trkpt lat="43.751765973865986" lon="7.437787977978587">
        <ele>43.399999999999999</ele>
        <time>2025-05-19T06:49:52Z</time>
      </trkpt>
      <trkpt lat="43.751717023551464" lon="7.437774986028671">
        <ele>43.399999999999999</ele>
        <time>2025-05-19T06:49:53Z</time>
      </trkpt>
      <trkpt lat="43.751671006903052" lon="7.437768029049039">
        <ele>43.399999999999999</ele>
        <time>2025-05-19T06:49:54Z</time>
      </trkpt>
      <trkpt lat="43.751592971384525" lon="7.437786972150207">
        <ele>43.399999999999999</ele>
        <time>2025-05-19T06:49:55Z</time>
      </trkpt>
      <trkpt lat="43.751565981656313" lon="7.437798036262393">
        <ele>43.399999999999999</ele>
        <time>2025-05-19T06:49:56Z</time>
      </trkpt>
      <trkpt lat="43.751509990543127" lon="7.437819996848702">
        <ele>43.399999999999999</ele>
        <time>2025-05-19T06:49:57Z</time>
      </trkpt>
      <trkpt lat="43.751414017751813" lon="7.437884034588933">
        <ele>43.399999999999999</ele>
        <time>2025-05-19T06:49:59Z</time>
      </trkpt>
      <trkpt lat="43.751366995275021" lon="7.437927033752203">
        <ele>43.399999999999999</ele>
        <time>2025-05-19T06:50:00Z</time>
      </trkpt>
      <trkpt lat="43.751352997496724" lon="7.437985958531499">
        <ele>43.880000000000003</ele>
        <time>2025-05-19T06:50:01Z</time>
      </trkpt>
      <trkpt lat="43.751345034688711" lon="7.4380739685148">
        <ele>44.359999999999999</ele>
        <time>2025-05-19T06:50:02Z</time>
      </trkpt>
      <trkpt lat="43.751337993890047" lon="7.438150998204947">
        <ele>45.32</ele>
        <time>2025-05-19T06:50:03Z</time>
      </trkpt>
      <trkpt lat="43.751349980011582" lon="7.438198020681739">
        <ele>46.759999999999998</ele>
        <time>2025-05-19T06:50:04Z</time>
      </trkpt>
      <trkpt lat="43.751400019973516" lon="7.438281001523137">
        <ele>48.200000000000003</ele>
        <time>2025-05-19T06:50:05Z</time>
      </trkpt>
      <trkpt lat="43.751442013308406" lon="7.438300028443337">
        <ele>49.649999999999999</ele>
        <time>2025-05-19T06:50:06Z</time>
      </trkpt>
      <trkpt lat="43.751791035756469" lon="7.438512006774545">
        <ele>53.490000000000002</ele>
        <time>2025-05-19T06:50:11Z</time>
      </trkpt>
      <trkpt lat="43.751869993284345" lon="7.438641004264355">
        <ele>53.490000000000002</ele>
        <time>2025-05-19T06:50:13Z</time>
      </trkpt>
      <trkpt lat="43.751933025196195" lon="7.438766984269023">
        <ele>53.009999999999998</ele>
        <time>2025-05-19T06:50:15Z</time>
      </trkpt>
      <trkpt lat="43.751969989389181" lon="7.438842002302408">
        <ele>53.009999999999998</ele>
        <time>2025-05-19T06:50:16Z</time>
      </trkpt>
      <trkpt lat="43.752001002430916" lon="7.438903022557497">
        <ele>52.530000000000001</ele>
        <time>2025-05-19T06:50:17Z</time>
      </trkpt>
      <trkpt lat="43.752070991322398" lon="7.438973011448979">
        <ele>52.530000000000001</ele>
        <time>2025-05-19T06:50:18Z</time>
      </trkpt>
      <trkpt lat="43.75211700797081" lon="7.439019028097391">
        <ele>52.530000000000001</ele>
        <time>2025-05-19T06:50:19Z</time>
      </trkpt>
      <trkpt lat="43.752153972163796" lon="7.439055992290378">
        <ele>52.049999999999997</ele>
        <time>2025-05-19T06:50:20Z</time>
      </trkpt>
      <trkpt lat="43.752184985205531" lon="7.439088011160493">
        <ele>52.049999999999997</ele>
        <time>2025-05-19T06:50:21Z</time>
      </trkpt>
      <trkpt lat="43.752224966883659" lon="7.439126987010241">
        <ele>52.049999999999997</ele>
        <time>2025-05-19T06:50:22Z</time>
      </trkpt>
      <trkpt lat="43.7522660382092" lon="7.439167974516749">
        <ele>51.57</ele>
        <time>2025-05-19T06:50:23Z</time>
      </trkpt>
      <trkpt lat="43.752323035150766" lon="7.439224971458316">
        <ele>51.57</ele>
        <time>2025-05-19T06:50:24Z</time>
      </trkpt>
      <trkpt lat="43.752381959930062" lon="7.439261013641954">
        <ele>51.090000000000003</ele>
        <time>2025-05-19T06:50:25Z</time>
      </trkpt>
      <trkpt lat="43.752429988235235" lon="7.439289009198546">
        <ele>51.090000000000003</ele>
        <time>2025-05-19T06:50:26Z</time>
      </trkpt>
      <trkpt lat="43.752509029582143" lon="7.439348017796874">
        <ele>51.57</ele>
        <time>2025-05-19T06:50:27Z</time>
      </trkpt>
      <trkpt lat="43.752574995160103" lon="7.439397973939776">
        <ele>52.049999999999997</ele>
        <time>2025-05-19T06:50:28Z</time>
      </trkpt>
      <trkpt lat="43.752640038728714" lon="7.439451031386852">
        <ele>52.530000000000001</ele>
        <time>2025-05-19T06:50:29Z</time>
      </trkpt>
      <trkpt lat="43.752710027620196" lon="7.43951003998518">
        <ele>53.009999999999998</ele>
        <time>2025-05-19T06:50:30Z</time>
      </trkpt>
      <trkpt lat="43.752772975713015" lon="7.439582040533423">
        <ele>53.009999999999998</ele>
        <time>2025-05-19T06:50:31Z</time>
      </trkpt>
      <trkpt lat="43.752883030101657" lon="7.439765017479658">
        <ele>53.969999999999999</ele>
        <time>2025-05-19T06:50:33Z</time>
      </trkpt>
      <trkpt lat="43.75316902063787" lon="7.440401958301663">
        <ele>55.890000000000001</ele>
        <time>2025-05-19T06:50:40Z</time>
      </trkpt>
      <trkpt lat="43.753185030072927" lon="7.440510001033545">
        <ele>55.890000000000001</ele>
        <time>2025-05-19T06:50:41Z</time>
      </trkpt>
      <trkpt lat="43.753201961517334" lon="7.440627012401819">
        <ele>56.369999999999997</ele>
        <time>2025-05-19T06:50:42Z</time>
      </trkpt>
      <trkpt lat="43.753242027014494" lon="7.440885007381439">
        <ele>56.859999999999999</ele>
        <time>2025-05-19T06:50:44Z</time>
      </trkpt>
      <trkpt lat="43.753417041152716" lon="7.442481005564332">
        <ele>62.140000000000001</ele>
        <time>2025-05-19T06:50:55Z</time>
      </trkpt>
      <trkpt lat="43.753417041152716" lon="7.442631963640451">
        <ele>62.140000000000001</ele>
        <time>2025-05-19T06:50:56Z</time>
      </trkpt>
      <trkpt lat="43.753403965383768" lon="7.442786023020744">
        <ele>62.619999999999997</ele>
        <time>2025-05-19T06:50:57Z</time>
      </trkpt>
      <trkpt lat="43.753388961777091" lon="7.442938992753625">
        <ele>63.579999999999998</ele>
        <time>2025-05-19T06:50:58Z</time>
      </trkpt>
      <trkpt lat="43.753201961517334" lon="7.445092974230647">
        <ele>66.950000000000003</ele>
        <time>2025-05-19T06:51:12Z</time>
      </trkpt>
      <trkpt lat="43.75321302562952" lon="7.445367984473705">
        <ele>67.430000000000007</ele>
        <time>2025-05-19T06:51:14Z</time>
      </trkpt>
      <trkpt lat="43.753219982609153" lon="7.445495976135135">
        <ele>67.430000000000007</ele>
        <time>2025-05-19T06:51:15Z</time>
      </trkpt>
      <trkpt lat="43.753259964287281" lon="7.445618016645312">
        <ele>67.909999999999997</ele>
        <time>2025-05-19T06:51:16Z</time>
      </trkpt>
      <trkpt lat="43.753322996199131" lon="7.445729998871684">
        <ele>68.390000000000001</ele>
        <time>2025-05-19T06:51:17Z</time>
      </trkpt>
      <trkpt lat="43.753388961777091" lon="7.445847010239959">
        <ele>68.870000000000005</ele>
        <time>2025-05-19T06:51:18Z</time>
      </trkpt>
      <trkpt lat="43.753456017002463" lon="7.445967039093375">
        <ele>68.870000000000005</ele>
        <time>2025-05-19T06:51:19Z</time>
      </trkpt>
      <trkpt lat="43.753526005893946" lon="7.446090001612902">
        <ele>69.349999999999994</ele>
        <time>2025-05-19T06:51:20Z</time>
      </trkpt>
      <trkpt lat="43.753597000613809" lon="7.44621598161757">
        <ele>69.829999999999998</ele>
        <time>2025-05-19T06:51:21Z</time>
      </trkpt>
      <trkpt lat="43.753738990053535" lon="7.446427037939429">
        <ele>70.790000000000006</ele>
        <time>2025-05-19T06:51:23Z</time>
      </trkpt>
      <trkpt lat="43.753819959238172" lon="7.446495015174151">
        <ele>70.790000000000006</ele>
        <time>2025-05-19T06:51:24Z</time>
      </trkpt>
      <trkpt lat="43.753906041383743" lon="7.446524016559124">
        <ele>71.269999999999996</ele>
        <time>2025-05-19T06:51:25Z</time>
      </trkpt>
      <trkpt lat="43.754003020003438" lon="7.446555029600859">
        <ele>71.269999999999996</ele>
        <time>2025-05-19T06:51:26Z</time>
      </trkpt>
      <trkpt lat="43.754099998623133" lon="7.446585036814213">
        <ele>70.790000000000006</ele>
        <time>2025-05-19T06:51:27Z</time>
      </trkpt>
      <trkpt lat="43.754167975857854" lon="7.446605991572142">
        <ele>71.269999999999996</ele>
        <time>2025-05-19T06:51:28Z</time>
      </trkpt>
      <trkpt lat="43.754228996112943" lon="7.446673968806863">
        <ele>70.790000000000006</ele>
        <time>2025-05-19T06:51:29Z</time>
      </trkpt>
      <trkpt lat="43.754253974184394" lon="7.446700958535075">
        <ele>71.269999999999996</ele>
        <time>2025-05-19T06:51:30Z</time>
      </trkpt>
      <trkpt lat="43.754302002489567" lon="7.446755021810532">
        <ele>71.760000000000005</ele>
        <time>2025-05-19T06:51:38Z</time>
      </trkpt>
      <trkpt lat="43.754302002489567" lon="7.446755021810532">
        <ele>71.760000000000005</ele>
        <time>2025-05-19T06:51:47Z</time>
      </trkpt>
      <trkpt lat="43.754380960017443" lon="7.446872033178806">
        <ele>72.239999999999995</ele>
        <time>2025-05-19T06:52:07Z</time>
      </trkpt>
      <trkpt lat="43.754549017176032" lon="7.447300013154745">
        <ele>71.760000000000005</ele>
        <time>2025-05-19T06:52:17Z</time>
      </trkpt>
      <trkpt lat="43.754777004942298" lon="7.447539987042546">
        <ele>70.310000000000002</ele>
        <time>2025-05-19T06:52:27Z</time>
      </trkpt>
      <trkpt lat="43.754805000498891" lon="7.447561025619507">
        <ele>70.310000000000002</ele>
        <time>2025-05-19T06:52:28Z</time>
      </trkpt>
      <trkpt lat="43.754839031025767" lon="7.447587009519339">
        <ele>70.310000000000002</ele>
        <time>2025-05-19T06:52:29Z</time>
      </trkpt>
      <trkpt lat="43.754879012703896" lon="7.447617016732693">
        <ele>69.829999999999998</ele>
        <time>2025-05-19T06:52:30Z</time>
      </trkpt>
      <trkpt lat="43.754922011867166" lon="7.447647023946047">
        <ele>69.829999999999998</ele>
        <time>2025-05-19T06:52:31Z</time>
      </trkpt>
      <trkpt lat="43.754967022687197" lon="7.447679964825511">
        <ele>69.829999999999998</ele>
        <time>2025-05-19T06:52:32Z</time>
      </trkpt>
      <trkpt lat="43.755016978830099" lon="7.447715001180768">
        <ele>69.349999999999994</ele>
        <time>2025-05-19T06:52:33Z</time>
      </trkpt>
      <trkpt lat="43.755068024620414" lon="7.447751965373755">
        <ele>69.349999999999994</ele>
        <time>2025-05-19T06:52:34Z</time>
      </trkpt>
      <trkpt lat="43.755119992420077" lon="7.447789013385773">
        <ele>69.349999999999994</ele>
        <time>2025-05-19T06:52:35Z</time>
      </trkpt>
      <trkpt lat="43.75549097545445" lon="7.448067963123322">
        <ele>67.430000000000007</ele>
        <time>2025-05-19T06:52:45Z</time>
      </trkpt>
      <trkpt lat="43.755648974329233" lon="7.44834397919476">
        <ele>67.430000000000007</ele>
        <time>2025-05-19T06:52:55Z</time>
      </trkpt>
      <trkpt lat="43.755740001797676" lon="7.448527961969376">
        <ele>66.950000000000003</ele>
        <time>2025-05-19T06:53:07Z</time>
      </trkpt>
      <trkpt lat="43.755827005952597" lon="7.448670035228133">
        <ele>66.469999999999999</ele>
        <time>2025-05-19T06:53:14Z</time>
      </trkpt>
      <trkpt lat="43.756043007597327" lon="7.448969017714262">
        <ele>66.950000000000003</ele>
        <time>2025-05-19T06:53:27Z</time>
      </trkpt>
      <trkpt lat="43.756424970924854" lon="7.44903196580708">
        <ele>67.909999999999997</ele>
        <time>2025-05-19T06:53:37Z</time>
      </trkpt>
      <trkpt lat="43.756463024765253" lon="7.449034983292222">
        <ele>67.909999999999997</ele>
        <time>2025-05-19T06:53:38Z</time>
      </trkpt>
      <trkpt lat="43.756503006443381" lon="7.449036994948983">
        <ele>67.430000000000007</ele>
        <time>2025-05-19T06:53:39Z</time>
      </trkpt>
      <trkpt lat="43.756550028920174" lon="7.449040012434125">
        <ele>67.430000000000007</ele>
        <time>2025-05-19T06:53:40Z</time>
      </trkpt>
      <trkpt lat="43.756599985063076" lon="7.449043029919267">
        <ele>67.430000000000007</ele>
        <time>2025-05-19T06:53:41Z</time>
      </trkpt>
      <trkpt lat="43.75664901919663" lon="7.449045041576028">
        <ele>67.909999999999997</ele>
        <time>2025-05-19T06:53:42Z</time>
      </trkpt>
      <trkpt lat="43.756764018908143" lon="7.44905199855566">
        <ele>67.909999999999997</ele>
        <time>2025-05-19T06:53:49Z</time>
      </trkpt>
      <trkpt lat="43.75693098641932" lon="7.449156017974019">
        <ele>67.909999999999997</ele>
        <time>2025-05-19T06:53:52Z</time>
      </trkpt>
      <trkpt lat="43.756989995017648" lon="7.449193987995386">
        <ele>67.909999999999997</ele>
        <time>2025-05-19T06:53:53Z</time>
      </trkpt>
      <trkpt lat="43.757049003615975" lon="7.449230030179024">
        <ele>67.909999999999997</ele>
        <time>2025-05-19T06:53:54Z</time>
      </trkpt>
      <trkpt lat="43.757159980013967" lon="7.44933002628386">
        <ele>67.909999999999997</ele>
        <time>2025-05-19T06:53:56Z</time>
      </trkpt>
      <trkpt lat="43.757268022745848" lon="7.449462963268161">
        <ele>68.390000000000001</ele>
        <time>2025-05-19T06:53:58Z</time>
      </trkpt>
      <trkpt lat="43.757324013859034" lon="7.449529012665153">
        <ele>67.909999999999997</ele>
        <time>2025-05-19T06:53:59Z</time>
      </trkpt>
      <trkpt lat="43.757516965270042" lon="7.449732022359967">
        <ele>67.909999999999997</ele>
        <time>2025-05-19T06:54:02Z</time>
      </trkpt>
      <trkpt lat="43.758201012387872" lon="7.450240971520543">
        <ele>72.239999999999995</ele>
        <time>2025-05-19T06:54:13Z</time>
      </trkpt>
      <trkpt lat="43.758794032037258" lon="7.450738018378615">
        <ele>74.159999999999997</ele>
        <time>2025-05-19T06:54:22Z</time>
      </trkpt>
      <trkpt lat="43.758850023150444" lon="7.450795015320182">
        <ele>74.159999999999997</ele>
        <time>2025-05-19T06:54:23Z</time>
      </trkpt>
      <trkpt lat="43.758908025920391" lon="7.450852012261748">
        <ele>73.680000000000007</ele>
        <time>2025-05-19T06:54:24Z</time>
      </trkpt>
      <trkpt lat="43.759134002029896" lon="7.45111201889813">
        <ele>74.640000000000001</ele>
        <time>2025-05-19T06:54:28Z</time>
      </trkpt>
      <trkpt lat="43.759192004799843" lon="7.45117899030447">
        <ele>74.640000000000001</ele>
        <time>2025-05-19T06:54:29Z</time>
      </trkpt>
      <trkpt lat="43.75925101339817" lon="7.451245961710811">
        <ele>74.640000000000001</ele>
        <time>2025-05-19T06:54:30Z</time>
      </trkpt>
      <trkpt lat="43.759664995595813" lon="7.451726999133825">
        <ele>75.599999999999994</ele>
        <time>2025-05-19T06:54:36Z</time>
      </trkpt>
      <trkpt lat="43.759726015850902" lon="7.451798999682069">
        <ele>76.079999999999998</ele>
        <time>2025-05-19T06:54:37Z</time>
      </trkpt>
      <trkpt lat="43.760137986391783" lon="7.452283976599574">
        <ele>75.120000000000005</ele>
        <time>2025-05-19T06:54:44Z</time>
      </trkpt>
      <trkpt lat="43.760176040232182" lon="7.452464019879699">
        <ele>74.640000000000001</ele>
        <time>2025-05-19T06:54:46Z</time>
      </trkpt>
      <trkpt lat="43.760191965848207" lon="7.452490003779531">
        <ele>74.640000000000001</ele>
        <time>2025-05-19T06:54:47Z</time>
      </trkpt>
      <trkpt lat="43.760240999981761" lon="7.452570972964168">
        <ele>74.640000000000001</ele>
        <time>2025-05-19T06:54:48Z</time>
      </trkpt>
      <trkpt lat="43.760266983881593" lon="7.452612966299057">
        <ele>74.640000000000001</ele>
        <time>2025-05-19T06:54:49Z</time>
      </trkpt>
      <trkpt lat="43.760387012735009" lon="7.452555969357491">
        <ele>74.640000000000001</ele>
        <time>2025-05-19T06:54:50Z</time>
      </trkpt>
      <trkpt lat="43.76045498996973" lon="7.452665017917752">
        <ele>74.640000000000001</ele>
        <time>2025-05-19T06:54:52Z</time>
      </trkpt>
      <trkpt lat="43.760492037981749" lon="7.452735006809235">
        <ele>75.120000000000005</ele>
        <time>2025-05-19T06:54:53Z</time>
      </trkpt>
      <trkpt lat="43.760913982987404" lon="7.453519972041249">
        <ele>75.120000000000005</ele>
        <time>2025-05-19T06:55:03Z</time>
      </trkpt>
      <trkpt lat="43.76111900433898" lon="7.453876035287976">
        <ele>74.640000000000001</ele>
        <time>2025-05-19T06:55:07Z</time>
      </trkpt>
      <trkpt lat="43.761181030422449" lon="7.453954992815852">
        <ele>75.120000000000005</ele>
        <time>2025-05-19T06:55:08Z</time>
      </trkpt>
      <trkpt lat="43.761250013485551" lon="7.454016013070941">
        <ele>75.120000000000005</ele>
        <time>2025-05-19T06:55:09Z</time>
      </trkpt>
      <trkpt lat="43.761329976841807" lon="7.454065969213843">
        <ele>74.640000000000001</ele>
        <time>2025-05-19T06:55:10Z</time>
      </trkpt>
      <trkpt lat="43.761406000703573" lon="7.454115003347397">
        <ele>74.159999999999997</ele>
        <time>2025-05-19T06:55:11Z</time>
      </trkpt>
      <trkpt lat="43.761481018736959" lon="7.45414299890399">
        <ele>73.680000000000007</ele>
        <time>2025-05-19T06:55:12Z</time>
      </trkpt>
      <trkpt lat="43.761562993749976" lon="7.454154985025525">
        <ele>74.159999999999997</ele>
        <time>2025-05-19T06:55:13Z</time>
      </trkpt>
      <trkpt lat="43.761743037030101" lon="7.454180968925357">
        <ele>74.640000000000001</ele>
        <time>2025-05-19T06:55:15Z</time>
      </trkpt>
      <trkpt lat="43.76180799677968" lon="7.45416403748095">
        <ele>74.640000000000001</ele>
        <time>2025-05-19T06:55:16Z</time>
      </trkpt>
      <trkpt lat="43.762061968445778" lon="7.4541010055691">
        <ele>74.640000000000001</ele>
        <time>2025-05-19T06:55:19Z</time>
      </trkpt>
      <trkpt lat="43.762148972600698" lon="7.454078961163759">
        <ele>74.640000000000001</ele>
        <time>2025-05-19T06:55:20Z</time>
      </trkpt>
      <trkpt lat="43.762474022805691" lon="7.454020036384463">
        <ele>74.159999999999997</ele>
        <time>2025-05-19T06:55:24Z</time>
      </trkpt>
      <trkpt lat="43.76255800947547" lon="7.454007966443896">
        <ele>73.680000000000007</ele>
        <time>2025-05-19T06:55:25Z</time>
      </trkpt>
      <trkpt lat="43.76283897086978" lon="7.453965973109007">
        <ele>73.200000000000003</ele>
        <time>2025-05-19T06:55:29Z</time>
      </trkpt>
      <trkpt lat="43.762907031923532" lon="7.453965973109007">
        <ele>72.719999999999999</ele>
        <time>2025-05-19T06:55:30Z</time>
      </trkpt>
      <trkpt lat="43.762977020815015" lon="7.453965973109007">
        <ele>72.719999999999999</ele>
        <time>2025-05-19T06:55:31Z</time>
      </trkpt>
      <trkpt lat="43.763023959472775" lon="7.453988017514348">
        <ele>72.719999999999999</ele>
        <time>2025-05-19T06:55:32Z</time>
      </trkpt>
      <trkpt lat="43.763087997213006" lon="7.454024981707335">
        <ele>72.239999999999995</ele>
        <time>2025-05-19T06:55:33Z</time>
      </trkpt>
      <trkpt lat="43.763153040781617" lon="7.454063035547733">
        <ele>72.239999999999995</ele>
        <time>2025-05-19T06:55:34Z</time>
      </trkpt>
      <trkpt lat="43.763244990259409" lon="7.454116009175777">
        <ele>71.760000000000005</ele>
        <time>2025-05-19T06:55:35Z</time>
      </trkpt>
      <trkpt lat="43.763254964724183" lon="7.454150961712003">
        <ele>71.760000000000005</ele>
        <time>2025-05-19T06:55:36Z</time>
      </trkpt>
      <trkpt lat="43.763280026614666" lon="7.454239977523685">
        <ele>71.760000000000005</ele>
        <time>2025-05-19T06:55:37Z</time>
      </trkpt>
      <trkpt lat="43.763273991644382" lon="7.454347014427185">
        <ele>71.269999999999996</ele>
        <time>2025-05-19T06:55:38Z</time>
      </trkpt>
      <trkpt lat="43.763256976380944" lon="7.454450028017163">
        <ele>71.269999999999996</ele>
        <time>2025-05-19T06:55:39Z</time>
      </trkpt>
      <trkpt lat="43.763239039108157" lon="7.454556981101632">
        <ele>71.269999999999996</ele>
        <time>2025-05-19T06:55:40Z</time>
      </trkpt>
      <trkpt lat="43.763221018016338" lon="7.454657983034849">
        <ele>71.269999999999996</ele>
        <time>2025-05-19T06:55:41Z</time>
      </trkpt>
      <trkpt lat="43.763106018304825" lon="7.454901980236173">
        <ele>70.310000000000002</ele>
        <time>2025-05-19T06:55:44Z</time>
      </trkpt>
      <trkpt lat="43.763068970292807" lon="7.4549800157547">
        <ele>70.310000000000002</ele>
        <time>2025-05-19T06:55:45Z</time>
      </trkpt>
      <trkpt lat="43.763019014149904" lon="7.455028966069222">
        <ele>69.829999999999998</ele>
        <time>2025-05-19T06:55:46Z</time>
      </trkpt>
      <trkpt lat="43.762962017208338" lon="7.455050004646182">
        <ele>69.349999999999994</ele>
        <time>2025-05-19T06:55:47Z</time>
      </trkpt>
      <trkpt lat="43.76290300861001" lon="7.455070959404111">
        <ele>68.390000000000001</ele>
        <time>2025-05-19T06:55:48Z</time>
      </trkpt>
      <trkpt lat="43.76283997669816" lon="7.455094009637833">
        <ele>67.909999999999997</ele>
        <time>2025-05-19T06:55:49Z</time>
      </trkpt>
      <trkpt lat="43.762776022776961" lon="7.455116976052523">
        <ele>67.430000000000007</ele>
        <time>2025-05-19T06:55:50Z</time>
      </trkpt>
      <trkpt lat="43.76270997337997" lon="7.455140026286244">
        <ele>66.950000000000003</ele>
        <time>2025-05-19T06:55:51Z</time>
      </trkpt>
      <trkpt lat="43.76249497756362" lon="7.455220995470882">
        <ele>65.510000000000005</ele>
        <time>2025-05-19T06:55:54Z</time>
      </trkpt>
      <trkpt lat="43.761888965964317" lon="7.455665990710259">
        <ele>63.100000000000001</ele>
        <time>2025-05-19T06:56:03Z</time>
      </trkpt>
      <trkpt lat="43.761754017323256" lon="7.455918034538627">
        <ele>61.659999999999997</ele>
        <time>2025-05-19T06:56:06Z</time>
      </trkpt>
      <trkpt lat="43.761715041473508" lon="7.455994980409741">
        <ele>61.18</ele>
        <time>2025-05-19T06:56:07Z</time>
      </trkpt>
      <trkpt lat="43.761686040088534" lon="7.456080978736281">
        <ele>61.18</ele>
        <time>2025-05-19T06:56:08Z</time>
      </trkpt>
      <trkpt lat="43.761662989854813" lon="7.456174017861486">
        <ele>60.219999999999999</ele>
        <time>2025-05-19T06:56:09Z</time>
      </trkpt>
      <trkpt lat="43.76163499429822" lon="7.456283988431096">
        <ele>60.219999999999999</ele>
        <time>2025-05-19T06:56:10Z</time>
      </trkpt>
      <trkpt lat="43.761645974591374" lon="7.456388007849455">
        <ele>60.219999999999999</ele>
        <time>2025-05-19T06:56:11Z</time>
      </trkpt>
      <trkpt lat="43.761657038703561" lon="7.456496972590685">
        <ele>60.219999999999999</ele>
        <time>2025-05-19T06:56:12Z</time>
      </trkpt>
      <trkpt lat="43.761684028431773" lon="7.456603003665805">
        <ele>59.740000000000002</ele>
        <time>2025-05-19T06:56:13Z</time>
      </trkpt>
      <trkpt lat="43.761710012331605" lon="7.456701993942261">
        <ele>59.740000000000002</ele>
        <time>2025-05-19T06:56:14Z</time>
      </trkpt>
      <trkpt lat="43.761758040636778" lon="7.456890000030398">
        <ele>59.740000000000002</ele>
        <time>2025-05-19T06:56:16Z</time>
      </trkpt>
      <trkpt lat="43.761780001223087" lon="7.456974992528558">
        <ele>59.740000000000002</ele>
        <time>2025-05-19T06:56:17Z</time>
      </trkpt>
      <trkpt lat="43.761814031749964" lon="7.45708404108882">
        <ele>60.219999999999999</ele>
        <time>2025-05-19T06:56:18Z</time>
      </trkpt>
      <trkpt lat="43.761861976236105" lon="7.457128968089819">
        <ele>61.18</ele>
        <time>2025-05-19T06:56:19Z</time>
      </trkpt>
      <trkpt lat="43.761908998712897" lon="7.45717297308147">
        <ele>62.140000000000001</ele>
        <time>2025-05-19T06:56:20Z</time>
      </trkpt>
      <trkpt lat="43.761954009532928" lon="7.457214966416359">
        <ele>62.619999999999997</ele>
        <time>2025-05-19T06:56:21Z</time>
      </trkpt>
      <trkpt lat="43.761997008696198" lon="7.457255031913519">
        <ele>63.100000000000001</ele>
        <time>2025-05-19T06:56:22Z</time>
      </trkpt>
      <trkpt lat="43.762034978717566" lon="7.457290990278125">
        <ele>63.100000000000001</ele>
        <time>2025-05-19T06:56:23Z</time>
      </trkpt>
      <trkpt lat="43.762101028114557" lon="7.457353016361594">
        <ele>64.069999999999993</ele>
        <time>2025-05-19T06:56:25Z</time>
      </trkpt>
      <trkpt lat="43.762149978429079" lon="7.457399033010006">
        <ele>64.069999999999993</ele>
        <time>2025-05-19T06:56:26Z</time>
      </trkpt>
      <trkpt lat="43.762156013399363" lon="7.457416970282793">
        <ele>64.069999999999993</ele>
        <time>2025-05-19T06:56:27Z</time>
      </trkpt>
      <trkpt lat="43.762175962328911" lon="7.457484025508165">
        <ele>64.069999999999993</ele>
        <time>2025-05-19T06:56:28Z</time>
      </trkpt>
      <trkpt lat="43.76221502199769" lon="7.457614028826356">
        <ele>64.069999999999993</ele>
        <time>2025-05-19T06:56:29Z</time>
      </trkpt>
      <trkpt lat="43.762218039482832" lon="7.457650993019342">
        <ele>64.069999999999993</ele>
        <time>2025-05-19T06:56:30Z</time>
      </trkpt>
      <trkpt lat="43.762228013947606" lon="7.457757024094462">
        <ele>64.549999999999997</ele>
        <time>2025-05-19T06:56:31Z</time>
      </trkpt>
      <trkpt lat="43.762227008119226" lon="7.45790203101933">
        <ele>64.549999999999997</ele>
        <time>2025-05-19T06:56:32Z</time>
      </trkpt>
      <trkpt lat="43.762160958722234" lon="7.458382984623313">
        <ele>66.469999999999999</ele>
        <time>2025-05-19T06:56:36Z</time>
      </trkpt>
      <trkpt lat="43.762191971763968" lon="7.459129979833961">
        <ele>71.760000000000005</ele>
        <time>2025-05-19T06:56:44Z</time>
      </trkpt>
      <trkpt lat="43.762203035876155" lon="7.459196029230952">
        <ele>72.239999999999995</ele>
        <time>2025-05-19T06:56:45Z</time>
      </trkpt>
      <trkpt lat="43.762216027826071" lon="7.459281021729112">
        <ele>72.719999999999999</ele>
        <time>2025-05-19T06:56:46Z</time>
      </trkpt>
      <trkpt lat="43.762290040031075" lon="7.459785025566816">
        <ele>74.640000000000001</ele>
        <time>2025-05-19T06:56:51Z</time>
      </trkpt>
      <trkpt lat="43.762308983132243" lon="7.459894996136427">
        <ele>75.120000000000005</ele>
        <time>2025-05-19T06:56:52Z</time>
      </trkpt>
      <trkpt lat="43.762348964810371" lon="7.460121978074312">
        <ele>76.079999999999998</ele>
        <time>2025-05-19T06:56:54Z</time>
      </trkpt>
      <trkpt lat="43.762376038357615" lon="7.460229014977813">
        <ele>76.560000000000002</ele>
        <time>2025-05-19T06:56:55Z</time>
      </trkpt>
      <trkpt lat="43.762423982843757" lon="7.46031098999083">
        <ele>76.560000000000002</ele>
        <time>2025-05-19T06:56:56Z</time>
      </trkpt>
      <trkpt lat="43.762474022805691" lon="7.46039598248899">
        <ele>76.560000000000002</ele>
        <time>2025-05-19T06:56:57Z</time>
      </trkpt>
      <trkpt lat="43.762520961463451" lon="7.460476029664278">
        <ele>76.560000000000002</ele>
        <time>2025-05-19T06:56:58Z</time>
      </trkpt>
      <trkpt lat="43.762564966455102" lon="7.460550963878632">
        <ele>76.560000000000002</ele>
        <time>2025-05-19T06:56:59Z</time>
      </trkpt>
      <trkpt lat="43.762598996981978" lon="7.460621036589146">
        <ele>76.560000000000002</ele>
        <time>2025-05-19T06:57:00Z</time>
      </trkpt>
      <trkpt lat="43.762632021680474" lon="7.46069697663188">
        <ele>76.560000000000002</ele>
        <time>2025-05-19T06:57:01Z</time>
      </trkpt>
      <trkpt lat="43.762662028893828" lon="7.460767971351743">
        <ele>77.040000000000006</ele>
        <time>2025-05-19T06:57:02Z</time>
      </trkpt>
      <trkpt lat="43.762707961723208" lon="7.460876014083624">
        <ele>76.560000000000002</ele>
        <time>2025-05-19T06:57:03Z</time>
      </trkpt>
      <trkpt lat="43.762707961723208" lon="7.460923036560416">
        <ele>76.560000000000002</ele>
        <time>2025-05-19T06:57:04Z</time>
      </trkpt>
      <trkpt lat="43.762707961723208" lon="7.46101900935173">
        <ele>76.560000000000002</ele>
        <time>2025-05-19T06:57:05Z</time>
      </trkpt>
      <trkpt lat="43.762621963396668" lon="7.461841022595763">
        <ele>75.599999999999994</ele>
        <time>2025-05-19T06:57:14Z</time>
      </trkpt>
      <trkpt lat="43.762563038617373" lon="7.461948981508613">
        <ele>75.599999999999994</ele>
        <time>2025-05-19T06:57:15Z</time>
      </trkpt>
      <trkpt lat="43.762523978948593" lon="7.462019976228476">
        <ele>75.120000000000005</ele>
        <time>2025-05-19T06:57:16Z</time>
      </trkpt>
      <trkpt lat="43.76193598844111" lon="7.462870990857482">
        <ele>78.480000000000004</ele>
        <time>2025-05-19T06:57:26Z</time>
      </trkpt>
      <trkpt lat="43.761280020698905" lon="7.463772967457771">
        <ele>85.689999999999998</ele>
        <time>2025-05-19T06:57:36Z</time>
      </trkpt>
      <trkpt lat="43.760915994644165" lon="7.464304966852069">
        <ele>88.099999999999994</ele>
        <time>2025-05-19T06:57:44Z</time>
      </trkpt>
      <trkpt lat="43.760791020467877" lon="7.464361963793635">
        <ele>88.579999999999998</ele>
        <time>2025-05-19T06:57:46Z</time>
      </trkpt>
      <trkpt lat="43.76075598411262" lon="7.464416027069092">
        <ele>89.060000000000002</ele>
        <time>2025-05-19T06:57:47Z</time>
      </trkpt>
      <trkpt lat="43.760752966627479" lon="7.464530020952225">
        <ele>89.060000000000002</ele>
        <time>2025-05-19T06:57:48Z</time>
      </trkpt>
      <trkpt lat="43.760719019919634" lon="7.464568996801972">
        <ele>89.540000000000006</ele>
        <time>2025-05-19T06:57:49Z</time>
      </trkpt>
      <trkpt lat="43.760680966079235" lon="7.464614007622004">
        <ele>90.019999999999996</ele>
        <time>2025-05-19T06:57:50Z</time>
      </trkpt>
      <trkpt lat="43.760632015764713" lon="7.464665975421667">
        <ele>90.019999999999996</ele>
        <time>2025-05-19T06:57:51Z</time>
      </trkpt>
      <trkpt lat="43.760568983852863" lon="7.464720038697124">
        <ele>90.5</ele>
        <time>2025-05-19T06:57:52Z</time>
      </trkpt>
      <trkpt lat="43.760504024103284" lon="7.464775023981929">
        <ele>90.980000000000004</ele>
        <time>2025-05-19T06:57:53Z</time>
      </trkpt>
      <trkpt lat="43.760447027161717" lon="7.464845012873411">
        <ele>91.459999999999994</ele>
        <time>2025-05-19T06:57:54Z</time>
      </trkpt>
      <trkpt lat="43.760387012735009" lon="7.464921958744526">
        <ele>91.459999999999994</ele>
        <time>2025-05-19T06:57:55Z</time>
      </trkpt>
      <trkpt lat="43.76032599247992" lon="7.465006029233336">
        <ele>91.939999999999998</ele>
        <time>2025-05-19T06:57:56Z</time>
      </trkpt>
      <trkpt lat="43.760261032730341" lon="7.465095967054367">
        <ele>91.939999999999998</ele>
        <time>2025-05-19T06:57:57Z</time>
      </trkpt>
      <trkpt lat="43.759586960077286" lon="7.466198019683361">
        <ele>96.269999999999996</ele>
        <time>2025-05-19T06:58:09Z</time>
      </trkpt>
      <trkpt lat="43.759236009791493" lon="7.466824986040592">
        <ele>98.189999999999998</ele>
        <time>2025-05-19T06:58:17Z</time>
      </trkpt>
      <trkpt lat="43.75875698402524" lon="7.467798963189125">
        <ele>102.04000000000001</ele>
        <time>2025-05-19T06:58:26Z</time>
      </trkpt>
      <trkpt lat="43.758413996547461" lon="7.468747040256858">
        <ele>105.88</ele>
        <time>2025-05-19T06:58:36Z</time>
      </trkpt>
      <trkpt lat="43.758360017091036" lon="7.468918031081557">
        <ele>106.84</ele>
        <time>2025-05-19T06:58:38Z</time>
      </trkpt>
      <trkpt lat="43.758331015706062" lon="7.469129003584385">
        <ele>108.77</ele>
        <time>2025-05-19T06:58:41Z</time>
      </trkpt>
      <trkpt lat="43.758331015706062" lon="7.469188012182713">
        <ele>109.25</ele>
        <time>2025-05-19T06:58:42Z</time>
      </trkpt>
      <trkpt lat="43.758331015706062" lon="7.469248026609421">
        <ele>109.73</ele>
        <time>2025-05-19T06:58:43Z</time>
      </trkpt>
      <trkpt lat="43.758331015706062" lon="7.469303011894226">
        <ele>109.73</ele>
        <time>2025-05-19T06:58:44Z</time>
      </trkpt>
      <trkpt lat="43.758331015706062" lon="7.469308041036129">
        <ele>110.20999999999999</ele>
        <time>2025-05-19T06:58:45Z</time>
      </trkpt>
      <trkpt lat="43.758402010425925" lon="7.469450030475855">
        <ele>111.65000000000001</ele>
        <time>2025-05-19T06:58:48Z</time>
      </trkpt>
      <trkpt lat="43.75843302346766" lon="7.469511972740293">
        <ele>111.65000000000001</ele>
        <time>2025-05-19T06:58:49Z</time>
      </trkpt>
      <trkpt lat="43.758470993489027" lon="7.469577016308904">
        <ele>112.13</ele>
        <time>2025-05-19T06:58:50Z</time>
      </trkpt>
      <trkpt lat="43.758824039250612" lon="7.470081020146608">
        <ele>112.13</ele>
        <time>2025-05-19T06:58:56Z</time>
      </trkpt>
      <trkpt lat="43.758947001770139" lon="7.470216974616051">
        <ele>111.17</ele>
        <time>2025-05-19T06:58:58Z</time>
      </trkpt>
      <trkpt lat="43.759397026151419" lon="7.470531966537237">
        <ele>110.20999999999999</ele>
        <time>2025-05-19T06:59:02Z</time>
      </trkpt>
      <trkpt lat="43.759499033913016" lon="7.470592986792326">
        <ele>109.73</ele>
        <time>2025-05-19T06:59:03Z</time>
      </trkpt>
      <trkpt lat="43.75995802693069" lon="7.470747968181968">
        <ele>108.29000000000001</ele>
        <time>2025-05-19T06:59:08Z</time>
      </trkpt>
      <trkpt lat="43.760391036048532" lon="7.470811000093818">
        <ele>103.95999999999999</ele>
        <time>2025-05-19T06:59:16Z</time>
      </trkpt>
      <trkpt lat="43.760452978312969" lon="7.470818962901831">
        <ele>101.56</ele>
        <time>2025-05-19T06:59:24Z</time>
      </trkpt>
      <trkpt lat="43.760726982727647" lon="7.470869002863765">
        <ele>99.629999999999995</ele>
        <time>2025-05-19T06:59:34Z</time>
      </trkpt>
      <trkpt lat="43.76133400015533" lon="7.470981990918517">
        <ele>96.75</ele>
        <time>2025-05-19T06:59:40Z</time>
      </trkpt>
      <trkpt lat="43.761424021795392" lon="7.470980985090137">
        <ele>96.269999999999996</ele>
        <time>2025-05-19T06:59:41Z</time>
      </trkpt>
      <trkpt lat="43.761522006243467" lon="7.470938991755247">
        <ele>95.310000000000002</ele>
        <time>2025-05-19T06:59:42Z</time>
      </trkpt>
      <trkpt lat="43.762046964839101" lon="7.470703041180968">
        <ele>91.459999999999994</ele>
        <time>2025-05-19T06:59:47Z</time>
      </trkpt>
      <trkpt lat="43.762158025056124" lon="7.470693988725543">
        <ele>90.980000000000004</ele>
        <time>2025-05-19T06:59:48Z</time>
      </trkpt>
      <trkpt lat="43.762269001454115" lon="7.470684014260769">
        <ele>90.019999999999996</ele>
        <time>2025-05-19T06:59:49Z</time>
      </trkpt>
      <trkpt lat="43.762377966195345" lon="7.470726007595658">
        <ele>88.579999999999998</ele>
        <time>2025-05-19T06:59:50Z</time>
      </trkpt>
      <trkpt lat="43.762464970350266" lon="7.470791973173618">
        <ele>87.620000000000005</ele>
        <time>2025-05-19T06:59:51Z</time>
      </trkpt>
      <trkpt lat="43.762524984776974" lon="7.470898004248738">
        <ele>86.659999999999997</ele>
        <time>2025-05-19T06:59:52Z</time>
      </trkpt>
      <trkpt lat="43.762572007253766" lon="7.471023984253407">
        <ele>86.180000000000007</ele>
        <time>2025-05-19T06:59:53Z</time>
      </trkpt>
      <trkpt lat="43.762589022517204" lon="7.471174020320177">
        <ele>85.209999999999994</ele>
        <time>2025-05-19T06:59:54Z</time>
      </trkpt>
      <trkpt lat="43.76260100863874" lon="7.471347022801638">
        <ele>84.730000000000004</ele>
        <time>2025-05-19T06:59:55Z</time>
      </trkpt>
      <trkpt lat="43.76258198171854" lon="7.471484988927841">
        <ele>84.25</ele>
        <time>2025-05-19T06:59:56Z</time>
      </trkpt>
      <trkpt lat="43.762562032788992" lon="7.471631001681089">
        <ele>83.290000000000006</ele>
        <time>2025-05-19T06:59:57Z</time>
      </trkpt>
      <trkpt lat="43.762544011697173" lon="7.471767039969564">
        <ele>82.810000000000002</ele>
        <time>2025-05-19T06:59:58Z</time>
      </trkpt>
      <trkpt lat="43.762374026700854" lon="7.472619982436299">
        <ele>77.519999999999996</ele>
        <time>2025-05-19T07:00:05Z</time>
      </trkpt>
      <trkpt lat="43.76232298091054" lon="7.472735987976193">
        <ele>77.040000000000006</ele>
        <time>2025-05-19T07:00:06Z</time>
      </trkpt>
      <trkpt lat="43.762272018939257" lon="7.472854005172849">
        <ele>76.079999999999998</ele>
        <time>2025-05-19T07:00:07Z</time>
      </trkpt>
      <trkpt lat="43.762200018391013" lon="7.472967999055982">
        <ele>75.120000000000005</ele>
        <time>2025-05-19T07:00:08Z</time>
      </trkpt>
      <trkpt lat="43.762112008407712" lon="7.473048968240619">
        <ele>74.640000000000001</ele>
        <time>2025-05-19T07:00:09Z</time>
      </trkpt>
      <trkpt lat="43.762025004252791" lon="7.473130021244288">
        <ele>73.680000000000007</ele>
        <time>2025-05-19T07:00:10Z</time>
      </trkpt>
      <trkpt lat="43.76193598844111" lon="7.473205039277673">
        <ele>73.200000000000003</ele>
        <time>2025-05-19T07:00:11Z</time>
      </trkpt>
      <trkpt lat="43.761844038963318" lon="7.473257007077336">
        <ele>72.719999999999999</ele>
        <time>2025-05-19T07:00:12Z</time>
      </trkpt>
      <trkpt lat="43.761759968474507" lon="7.473318027332425">
        <ele>71.760000000000005</ele>
        <time>2025-05-19T07:00:13Z</time>
      </trkpt>
      <trkpt lat="43.761672964319587" lon="7.473392961546779">
        <ele>71.760000000000005</ele>
        <time>2025-05-19T07:00:14Z</time>
      </trkpt>
      <trkpt lat="43.76161303371191" lon="7.473493963479996">
        <ele>71.269999999999996</ele>
        <time>2025-05-19T07:00:15Z</time>
      </trkpt>
      <trkpt lat="43.761553019285202" lon="7.473614998161793">
        <ele>70.790000000000006</ele>
        <time>2025-05-19T07:00:16Z</time>
      </trkpt>
      <trkpt lat="43.761501973494887" lon="7.473729997873306">
        <ele>70.310000000000002</ele>
        <time>2025-05-19T07:00:17Z</time>
      </trkpt>
      <trkpt lat="43.761470960453153" lon="7.473870981484652">
        <ele>69.829999999999998</ele>
        <time>2025-05-19T07:00:18Z</time>
      </trkpt>
      <trkpt lat="43.76144103705883" lon="7.474013976752758">
        <ele>68.870000000000005</ele>
        <time>2025-05-19T07:00:19Z</time>
      </trkpt>
      <trkpt lat="43.761402983218431" lon="7.474170969799161">
        <ele>67.909999999999997</ele>
        <time>2025-05-19T07:00:20Z</time>
      </trkpt>
      <trkpt lat="43.761340035125613" lon="7.474298039451242">
        <ele>66.950000000000003</ele>
        <time>2025-05-19T07:00:21Z</time>
      </trkpt>
      <trkpt lat="43.76127096824348" lon="7.474414967000485">
        <ele>66.469999999999999</ele>
        <time>2025-05-19T07:00:22Z</time>
      </trkpt>
      <trkpt lat="43.761181030422449" lon="7.474539019167423">
        <ele>65.510000000000005</ele>
        <time>2025-05-19T07:00:23Z</time>
      </trkpt>
      <trkpt lat="43.761097965762019" lon="7.47466298751533">
        <ele>64.549999999999997</ele>
        <time>2025-05-19T07:00:24Z</time>
      </trkpt>
      <trkpt lat="43.760719019919634" lon="7.475250978022814">
        <ele>60.700000000000003</ele>
        <time>2025-05-19T07:00:29Z</time>
      </trkpt>
      <trkpt lat="43.760650958865881" lon="7.475365977734327">
        <ele>60.219999999999999</ele>
        <time>2025-05-19T07:00:30Z</time>
      </trkpt>
      <trkpt lat="43.760262038558722" lon="7.475938964635134">
        <ele>56.369999999999997</ele>
        <time>2025-05-19T07:00:35Z</time>
      </trkpt>
      <trkpt lat="43.760160030797124" lon="7.476011971011758">
        <ele>55.409999999999997</ele>
        <time>2025-05-19T07:00:36Z</time>
      </trkpt>
      <trkpt lat="43.760049976408482" lon="7.476091012358666">
        <ele>54.93</ele>
        <time>2025-05-19T07:00:37Z</time>
      </trkpt>
      <trkpt lat="43.759819976985455" lon="7.476255968213081">
        <ele>53.490000000000002</ele>
        <time>2025-05-19T07:00:39Z</time>
      </trkpt>
      <trkpt lat="43.759710006415844" lon="7.476344984024763">
        <ele>52.530000000000001</ele>
        <time>2025-05-19T07:00:40Z</time>
      </trkpt>
      <trkpt lat="43.75961797311902" lon="7.476458977907896">
        <ele>52.049999999999997</ele>
        <time>2025-05-19T07:00:41Z</time>
      </trkpt>
      <trkpt lat="43.759540021419525" lon="7.476578000932932">
        <ele>51.090000000000003</ele>
        <time>2025-05-19T07:00:42Z</time>
      </trkpt>
      <trkpt lat="43.759491993114352" lon="7.476711021736264">
        <ele>50.130000000000003</ele>
        <time>2025-05-19T07:00:43Z</time>
      </trkpt>
      <trkpt lat="43.759483024477959" lon="7.476850999519229">
        <ele>49.649999999999999</ele>
        <time>2025-05-19T07:00:44Z</time>
      </trkpt>
      <trkpt lat="43.75950800254941" lon="7.476973040029407">
        <ele>49.159999999999997</ele>
        <time>2025-05-19T07:00:45Z</time>
      </trkpt>
      <trkpt lat="43.759562987834215" lon="7.477063983678818">
        <ele>48.68</ele>
        <time>2025-05-19T07:00:46Z</time>
      </trkpt>
      <trkpt lat="43.759629037231207" lon="7.477158028632402">
        <ele>48.200000000000003</ele>
        <time>2025-05-19T07:00:47Z</time>
      </trkpt>
      <trkpt lat="43.759705983102322" lon="7.477254001423717">
        <ele>47.719999999999999</ele>
        <time>2025-05-19T07:00:48Z</time>
      </trkpt>
      <trkpt lat="43.760279975831509" lon="7.477788012474775">
        <ele>44.359999999999999</ele>
        <time>2025-05-19T07:00:55Z</time>
      </trkpt>
      <trkpt lat="43.760349964722991" lon="7.477846015244722">
        <ele>44.359999999999999</ele>
        <time>2025-05-19T07:00:56Z</time>
      </trkpt>
      <trkpt lat="43.760420959442854" lon="7.477903012186289">
        <ele>43.880000000000003</ele>
        <time>2025-05-19T07:00:57Z</time>
      </trkpt>
      <trkpt lat="43.761125961318612" lon="7.478458983823657">
        <ele>41.469999999999999</ele>
        <time>2025-05-19T07:01:07Z</time>
      </trkpt>
      <trkpt lat="43.7615289632231" lon="7.478606002405286">
        <ele>39.07</ele>
        <time>2025-05-19T07:01:11Z</time>
      </trkpt>
      <trkpt lat="43.761620996519923" lon="7.478612959384918">
        <ele>38.590000000000003</ele>
        <time>2025-05-19T07:01:12Z</time>
      </trkpt>
      <trkpt lat="43.761719986796379" lon="7.478595022112131">
        <ele>38.109999999999999</ele>
        <time>2025-05-19T07:01:13Z</time>
      </trkpt>
      <trkpt lat="43.762260032817721" lon="7.478545987978578">
        <ele>35.229999999999997</ele>
        <time>2025-05-19T07:01:18Z</time>
      </trkpt>
      <trkpt lat="43.76234301365912" lon="7.478556968271732">
        <ele>34.740000000000002</ele>
        <time>2025-05-19T07:01:19Z</time>
      </trkpt>
      <trkpt lat="43.762447033077478" lon="7.47863600961864">
        <ele>33.780000000000001</ele>
        <time>2025-05-19T07:01:20Z</time>
      </trkpt>
      <trkpt lat="43.762535965070128" lon="7.478703986853361">
        <ele>33.299999999999997</ele>
        <time>2025-05-19T07:01:21Z</time>
      </trkpt>
      <trkpt lat="43.762621963396668" lon="7.478770958259702">
        <ele>32.340000000000003</ele>
        <time>2025-05-19T07:01:22Z</time>
      </trkpt>
      <trkpt lat="43.76283603720367" lon="7.478984026238322">
        <ele>29.940000000000001</ele>
        <time>2025-05-19T07:01:25Z</time>
      </trkpt>
      <trkpt lat="43.762888005003333" lon="7.479070024564862">
        <ele>29.940000000000001</ele>
        <time>2025-05-19T07:01:26Z</time>
      </trkpt>
      <trkpt lat="43.763001998886466" lon="7.479245960712433">
        <ele>28.98</ele>
        <time>2025-05-19T07:01:28Z</time>
      </trkpt>
      <trkpt lat="43.76305497251451" lon="7.479330031201243">
        <ele>28.5</ele>
        <time>2025-05-19T07:01:29Z</time>
      </trkpt>
      <trkpt lat="43.763111969456077" lon="7.479417035356164">
        <ele>28.02</ele>
        <time>2025-05-19T07:01:30Z</time>
      </trkpt>
      <trkpt lat="43.763172989711165" lon="7.479501022025943">
        <ele>27.530000000000001</ele>
        <time>2025-05-19T07:01:31Z</time>
      </trkpt>
      <trkpt lat="43.763236021623015" lon="7.479586014524102">
        <ele>27.050000000000001</ele>
        <time>2025-05-19T07:01:32Z</time>
      </trkpt>
      <trkpt lat="43.763297963887453" lon="7.479671007022262">
        <ele>27.050000000000001</ele>
        <time>2025-05-19T07:01:33Z</time>
      </trkpt>
      <trkpt lat="43.7633559666574" lon="7.479752982035279">
        <ele>26.57</ele>
        <time>2025-05-19T07:01:34Z</time>
      </trkpt>
      <trkpt lat="43.763412963598967" lon="7.479838980361819">
        <ele>26.09</ele>
        <time>2025-05-19T07:01:35Z</time>
      </trkpt>
      <trkpt lat="43.763673976063728" lon="7.480229996144772">
        <ele>24.649999999999999</ele>
        <time>2025-05-19T07:01:40Z</time>
      </trkpt>
      <trkpt lat="43.763781012967229" lon="7.480401992797852">
        <ele>24.649999999999999</ele>
        <time>2025-05-19T07:01:41Z</time>
      </trkpt>
      <trkpt lat="43.763813031837344" lon="7.480447003617883">
        <ele>23.690000000000001</ele>
        <time>2025-05-19T07:01:42Z</time>
      </trkpt>
      <trkpt lat="43.763872040435672" lon="7.480529984459281">
        <ele>23.210000000000001</ele>
        <time>2025-05-19T07:01:43Z</time>
      </trkpt>
      <trkpt lat="43.763923002406955" lon="7.480621011927724">
        <ele>22.73</ele>
        <time>2025-05-19T07:01:44Z</time>
      </trkpt>
      <trkpt lat="43.764116037636995" lon="7.481002975255251">
        <ele>20.32</ele>
        <time>2025-05-19T07:01:48Z</time>
      </trkpt>
      <trkpt lat="43.764175968244672" lon="7.481100959703326">
        <ele>19.359999999999999</ele>
        <time>2025-05-19T07:01:50Z</time>
      </trkpt>
      <trkpt lat="43.764191977679729" lon="7.48112702742219">
        <ele>18.399999999999999</ele>
        <time>2025-05-19T07:01:51Z</time>
      </trkpt>
      <trkpt lat="43.764279987663031" lon="7.481269016861916">
        <ele>15.52</ele>
        <time>2025-05-19T07:01:59Z</time>
      </trkpt>
      <trkpt lat="43.764445027336478" lon="7.48153799213469">
        <ele>12.15</ele>
        <time>2025-05-19T07:02:12Z</time>
      </trkpt>
      <trkpt lat="43.7646200414747" lon="7.481851978227496">
        <ele>11.19</ele>
        <time>2025-05-19T07:02:24Z</time>
      </trkpt>
      <trkpt lat="43.764754990115762" lon="7.48222203925252">
        <ele>11.19</ele>
        <time>2025-05-19T07:02:31Z</time>
      </trkpt>
      <trkpt lat="43.764782985672355" lon="7.482320023700595">
        <ele>11.67</ele>
        <time>2025-05-19T07:02:32Z</time>
      </trkpt>
      <trkpt lat="43.76487803645432" lon="7.482714978978038">
        <ele>12.15</ele>
        <time>2025-05-19T07:02:38Z</time>
      </trkpt>
      <trkpt lat="43.764954982325435" lon="7.483117980882525">
        <ele>12.630000000000001</ele>
        <time>2025-05-19T07:02:42Z</time>
      </trkpt>
      <trkpt lat="43.764961017295718" lon="7.483364995568991">
        <ele>12.630000000000001</ele>
        <time>2025-05-19T07:02:45Z</time>
      </trkpt>
      <trkpt lat="43.764961017295718" lon="7.483540009707212">
        <ele>12.630000000000001</ele>
        <time>2025-05-19T07:02:47Z</time>
      </trkpt>
      <trkpt lat="43.764961017295718" lon="7.483740001916885">
        <ele>12.15</ele>
        <time>2025-05-19T07:02:49Z</time>
      </trkpt>
      <trkpt lat="43.764961017295718" lon="7.483838992193341">
        <ele>12.15</ele>
        <time>2025-05-19T07:02:50Z</time>
      </trkpt>
      <trkpt lat="43.764982977882028" lon="7.484252974390984">
        <ele>11.67</ele>
        <time>2025-05-19T07:02:54Z</time>
      </trkpt>
      <trkpt lat="43.764982977882028" lon="7.484328998252749">
        <ele>11.67</ele>
        <time>2025-05-19T07:02:55Z</time>
      </trkpt>
      <trkpt lat="43.764982977882028" lon="7.484388006851077">
        <ele>11.19</ele>
        <time>2025-05-19T07:02:56Z</time>
      </trkpt>
      <trkpt lat="43.764982977882028" lon="7.484454978257418">
        <ele>11.19</ele>
        <time>2025-05-19T07:02:57Z</time>
      </trkpt>
      <trkpt lat="43.764982977882028" lon="7.484533013775945">
        <ele>10.710000000000001</ele>
        <time>2025-05-19T07:02:58Z</time>
      </trkpt>
      <trkpt lat="43.764982977882028" lon="7.484621023759246">
        <ele>10.710000000000001</ele>
        <time>2025-05-19T07:02:59Z</time>
      </trkpt>
      <trkpt lat="43.764982977882028" lon="7.484706016257405">
        <ele>10.23</ele>
        <time>2025-05-19T07:03:00Z</time>
      </trkpt>
      <trkpt lat="43.764984989538789" lon="7.484798971563578">
        <ele>9.75</ele>
        <time>2025-05-19T07:03:01Z</time>
      </trkpt>
      <trkpt lat="43.764995969831944" lon="7.484882036224008">
        <ele>9.27</ele>
        <time>2025-05-19T07:03:02Z</time>
      </trkpt>
      <trkpt lat="43.76500703394413" lon="7.484963005408645">
        <ele>8.789999999999999</ele>
        <time>2025-05-19T07:03:03Z</time>
      </trkpt>
      <trkpt lat="43.765017008408904" lon="7.485036011785269">
        <ele>8.310000000000001</ele>
        <time>2025-05-19T07:03:04Z</time>
      </trkpt>
      <trkpt lat="43.765026982873678" lon="7.485113041475415">
        <ele>7.83</ele>
        <time>2025-05-19T07:03:05Z</time>
      </trkpt>
      <trkpt lat="43.765038968995214" lon="7.485201973468065">
        <ele>6.87</ele>
        <time>2025-05-19T07:03:06Z</time>
      </trkpt>
      <trkpt lat="43.765051038935781" lon="7.485295012593269">
        <ele>5.91</ele>
        <time>2025-05-19T07:03:07Z</time>
      </trkpt>
      <trkpt lat="43.765064030885696" lon="7.485389979556203">
        <ele>5.42</ele>
        <time>2025-05-19T07:03:08Z</time>
      </trkpt>
      <trkpt lat="43.76526796258986" lon="7.486247029155493">
        <ele>4.94</ele>
        <time>2025-05-19T07:03:16Z</time>
      </trkpt>
      <trkpt lat="43.765367036685348" lon="7.486567972227931">
        <ele>5.91</ele>
        <time>2025-05-19T07:03:19Z</time>
      </trkpt>
      <trkpt lat="43.765558982267976" lon="7.486996036022902">
        <ele>8.789999999999999</ele>
        <time>2025-05-19T07:03:25Z</time>
      </trkpt>
      <trkpt lat="43.765558982267976" lon="7.486996036022902">
        <ele>9.27</ele>
        <time>2025-05-19T07:03:32Z</time>
      </trkpt>
      <trkpt lat="43.765572980046272" lon="7.487020008265972">
        <ele>9.27</ele>
        <time>2025-05-19T07:03:43Z</time>
      </trkpt>
      <trkpt lat="43.76558898948133" lon="7.487046997994185">
        <ele>9.75</ele>
        <time>2025-05-19T07:03:44Z</time>
      </trkpt>
      <trkpt lat="43.765643974766135" lon="7.487142970785499">
        <ele>11.19</ele>
        <time>2025-05-19T07:03:46Z</time>
      </trkpt>
      <trkpt lat="43.765755034983158" lon="7.487461986020207">
        <ele>13.119999999999999</ele>
        <time>2025-05-19T07:03:54Z</time>
      </trkpt>
      <trkpt lat="43.76569502055645" lon="7.487545972689986">
        <ele>13.119999999999999</ele>
        <time>2025-05-19T07:03:55Z</time>
      </trkpt>
      <trkpt lat="43.765664007514715" lon="7.487588971853256">
        <ele>13.119999999999999</ele>
        <time>2025-05-19T07:03:56Z</time>
      </trkpt>
      <trkpt lat="43.765612961724401" lon="7.4876609724015">
        <ele>12.630000000000001</ele>
        <time>2025-05-19T07:04:04Z</time>
      </trkpt>
      <trkpt lat="43.765469966456294" lon="7.487915027886629">
        <ele>11.67</ele>
        <time>2025-05-19T07:04:20Z</time>
      </trkpt>
      <trkpt lat="43.765442976728082" lon="7.487973030656576">
        <ele>11.67</ele>
        <time>2025-05-19T07:04:21Z</time>
      </trkpt>
      <trkpt lat="43.765420010313392" lon="7.488022986799479">
        <ele>11.67</ele>
        <time>2025-05-19T07:04:22Z</time>
      </trkpt>
      <trkpt lat="43.765419004485011" lon="7.488049976527691">
        <ele>11.19</ele>
        <time>2025-05-19T07:04:23Z</time>
      </trkpt>
      <trkpt lat="43.765449011698365" lon="7.4880909640342">
        <ele>11.19</ele>
        <time>2025-05-19T07:04:24Z</time>
      </trkpt>
      <trkpt lat="43.765482036396861" lon="7.488133041188121">
        <ele>11.19</ele>
        <time>2025-05-19T07:04:25Z</time>
      </trkpt>
      <trkpt lat="43.76552302390337" lon="7.488179979845882">
        <ele>11.19</ele>
        <time>2025-05-19T07:04:26Z</time>
      </trkpt>
      <trkpt lat="43.765568034723401" lon="7.488232031464577">
        <ele>10.710000000000001</ele>
        <time>2025-05-19T07:04:27Z</time>
      </trkpt>
      <trkpt lat="43.765616985037923" lon="7.488287016749382">
        <ele>10.710000000000001</ele>
        <time>2025-05-19T07:04:28Z</time>
      </trkpt>
      <trkpt lat="43.765774983912706" lon="7.488447027280927">
        <ele>9.75</ele>
        <time>2025-05-19T07:04:31Z</time>
      </trkpt>
      <trkpt lat="43.765830975025892" lon="7.488503018394113">
        <ele>9.75</ele>
        <time>2025-05-19T07:04:32Z</time>
      </trkpt>
      <trkpt lat="43.765885960310698" lon="7.488554986193776">
        <ele>9.75</ele>
        <time>2025-05-19T07:04:33Z</time>
      </trkpt>
      <trkpt lat="43.766639996320009" lon="7.489245990291238">
        <ele>8.310000000000001</ele>
        <time>2025-05-19T07:04:44Z</time>
      </trkpt>
      <trkpt lat="43.767496040090919" lon="7.490101028233767">
        <ele>9.75</ele>
        <time>2025-05-19T07:04:56Z</time>
      </trkpt>
      <trkpt lat="43.768396005034447" lon="7.491296958178282">
        <ele>11.19</ele>
        <time>2025-05-19T07:05:11Z</time>
      </trkpt>
      <trkpt lat="43.76904702745378" lon="7.492186026647687">
        <ele>13.119999999999999</ele>
        <time>2025-05-19T07:05:23Z</time>
      </trkpt>
      <trkpt lat="43.769561005756259" lon="7.492984989657998">
        <ele>12.15</ele>
        <time>2025-05-19T07:05:33Z</time>
      </trkpt>
      <trkpt lat="43.770177997648716" lon="7.494120988994837">
        <ele>13.119999999999999</ele>
        <time>2025-05-19T07:05:46Z</time>
      </trkpt>
      <trkpt lat="43.770564990118146" lon="7.494852980598807">
        <ele>12.630000000000001</ele>
        <time>2025-05-19T07:05:56Z</time>
      </trkpt>
      <trkpt lat="43.771103024482727" lon="7.495847996324301">
        <ele>13.119999999999999</ele>
        <time>2025-05-19T07:06:07Z</time>
      </trkpt>
      <trkpt lat="43.771464033052325" lon="7.496546963229775">
        <ele>11.67</ele>
        <time>2025-05-19T07:06:17Z</time>
      </trkpt>
      <trkpt lat="43.771623959764838" lon="7.496860027313232">
        <ele>10.23</ele>
        <time>2025-05-19T07:06:27Z</time>
      </trkpt>
      <trkpt lat="43.771732002496719" lon="7.497088015079498">
        <ele>10.23</ele>
        <time>2025-05-19T07:06:33Z</time>
      </trkpt>
      <trkpt lat="43.77175597473979" lon="7.497143000364304">
        <ele>10.23</ele>
        <time>2025-05-19T07:06:34Z</time>
      </trkpt>
      <trkpt lat="43.771810960024595" lon="7.497252970933914">
        <ele>9.27</ele>
        <time>2025-05-19T07:06:36Z</time>
      </trkpt>
      <trkpt lat="43.771833004429936" lon="7.497295970097184">
        <ele>8.789999999999999</ele>
        <time>2025-05-19T07:06:37Z</time>
      </trkpt>
      <trkpt lat="43.772133998572826" lon="7.497883038595319">
        <ele>5.91</ele>
        <time>2025-05-19T07:06:46Z</time>
      </trkpt>
      <trkpt lat="43.772303983569145" lon="7.498457031324506">
        <ele>5.42</ele>
        <time>2025-05-19T07:06:54Z</time>
      </trkpt>
      <trkpt lat="43.772329967468977" lon="7.498572031036019">
        <ele>5.91</ele>
        <time>2025-05-19T07:06:55Z</time>
      </trkpt>
      <trkpt lat="43.772381013259292" lon="7.498669009655714">
        <ele>5.91</ele>
        <time>2025-05-19T07:06:56Z</time>
      </trkpt>
      <trkpt lat="43.772701034322381" lon="7.499287007376552">
        <ele>6.39</ele>
        <time>2025-05-19T07:07:02Z</time>
      </trkpt>
      <trkpt lat="43.772758031263947" lon="7.499396977946162">
        <ele>5.91</ele>
        <time>2025-05-19T07:07:03Z</time>
      </trkpt>
      <trkpt lat="43.772814022377133" lon="7.499505020678043">
        <ele>5.91</ele>
        <time>2025-05-19T07:07:04Z</time>
      </trkpt>
      <trkpt lat="43.772929022088647" lon="7.499695038422942">
        <ele>5.42</ele>
        <time>2025-05-19T07:07:06Z</time>
      </trkpt>
      <trkpt lat="43.773122979328036" lon="7.49999200925231">
        <ele>5.42</ele>
        <time>2025-05-19T07:07:09Z</time>
      </trkpt>
      <trkpt lat="43.773179976269603" lon="7.5001220125705">
        <ele>5.91</ele>
        <time>2025-05-19T07:07:10Z</time>
      </trkpt>
      <trkpt lat="43.773587001487613" lon="7.501141000539064">
        <ele>6.87</ele>
        <time>2025-05-19T07:07:20Z</time>
      </trkpt>
      <trkpt lat="43.773749023675919" lon="7.50153997913003">
        <ele>8.310000000000001</ele>
        <time>2025-05-19T07:07:27Z</time>
      </trkpt>
      <trkpt lat="43.773782970383763" lon="7.501628994941711">
        <ele>8.310000000000001</ele>
        <time>2025-05-19T07:07:28Z</time>
      </trkpt>
      <trkpt lat="43.773822030052543" lon="7.501720022410154">
        <ele>8.789999999999999</ele>
        <time>2025-05-19T07:07:29Z</time>
      </trkpt>
      <trkpt lat="43.774108020588756" lon="7.502711014822125">
        <ele>11.19</ele>
        <time>2025-05-19T07:07:38Z</time>
      </trkpt>
      <trkpt lat="43.774171974509954" lon="7.502947971224785">
        <ele>11.19</ele>
        <time>2025-05-19T07:07:40Z</time>
      </trkpt>
      <trkpt lat="43.774230983108282" lon="7.503169002011418">
        <ele>11.19</ele>
        <time>2025-05-19T07:07:42Z</time>
      </trkpt>
      <trkpt lat="43.774263001978397" lon="7.503270003944635">
        <ele>11.67</ele>
        <time>2025-05-19T07:07:43Z</time>
      </trkpt>
      <trkpt lat="43.774295020848513" lon="7.503372011706233">
        <ele>12.15</ele>
        <time>2025-05-19T07:07:44Z</time>
      </trkpt>
      <trkpt lat="43.774325028061867" lon="7.503469996154308">
        <ele>12.630000000000001</ele>
        <time>2025-05-19T07:07:45Z</time>
      </trkpt>
      <trkpt lat="43.774349000304937" lon="7.503567980602384">
        <ele>12.630000000000001</ele>
        <time>2025-05-19T07:07:46Z</time>
      </trkpt>
      <trkpt lat="43.774575982242823" lon="7.504380019381642">
        <ele>13.119999999999999</ele>
        <time>2025-05-19T07:07:55Z</time>
      </trkpt>
      <trkpt lat="43.774721994996071" lon="7.504857033491135">
        <ele>14.08</ele>
        <time>2025-05-19T07:08:00Z</time>
      </trkpt>
      <trkpt lat="43.774748984724283" lon="7.504926016554236">
        <ele>14.08</ele>
        <time>2025-05-19T07:08:01Z</time>
      </trkpt>
      <trkpt lat="43.774772034958005" lon="7.505001034587622">
        <ele>14.08</ele>
        <time>2025-05-19T07:08:02Z</time>
      </trkpt>
      <trkpt lat="43.774788966402411" lon="7.505100024864078">
        <ele>14.08</ele>
        <time>2025-05-19T07:08:03Z</time>
      </trkpt>
      <trkpt lat="43.774776980280876" lon="7.505160039290786">
        <ele>14.08</ele>
        <time>2025-05-19T07:08:04Z</time>
      </trkpt>
      <trkpt lat="43.774682013317943" lon="7.505272021517158">
        <ele>14.08</ele>
        <time>2025-05-19T07:08:05Z</time>
      </trkpt>
      <trkpt lat="43.774680001661181" lon="7.505277972668409">
        <ele>14.56</ele>
        <time>2025-05-19T07:08:06Z</time>
      </trkpt>
      <trkpt lat="43.774627028033137" lon="7.505434965714812">
        <ele>14.56</ele>
        <time>2025-05-19T07:08:08Z</time>
      </trkpt>
      <trkpt lat="43.774600960314274" lon="7.50551400706172">
        <ele>14.08</ele>
        <time>2025-05-19T07:08:09Z</time>
      </trkpt>
      <trkpt lat="43.774576988071203" lon="7.505586007609963">
        <ele>14.08</ele>
        <time>2025-05-19T07:08:10Z</time>
      </trkpt>
      <trkpt lat="43.774398034438491" lon="7.506156982854009">
        <ele>12.630000000000001</ele>
        <time>2025-05-19T07:08:21Z</time>
      </trkpt>
      <trkpt lat="43.774381019175053" lon="7.506477003917098">
        <ele>13.119999999999999</ele>
        <time>2025-05-19T07:08:25Z</time>
      </trkpt>
      <trkpt lat="43.774381019175053" lon="7.50656702555716">
        <ele>13.119999999999999</ele>
        <time>2025-05-19T07:08:26Z</time>
      </trkpt>
      <trkpt lat="43.774382025003433" lon="7.506656041368842">
        <ele>12.630000000000001</ele>
        <time>2025-05-19T07:08:27Z</time>
      </trkpt>
      <trkpt lat="43.774398034438491" lon="7.506829965859652">
        <ele>12.630000000000001</ele>
        <time>2025-05-19T07:08:29Z</time>
      </trkpt>
      <trkpt lat="43.774429969489574" lon="7.506961980834603">
        <ele>12.630000000000001</ele>
        <time>2025-05-19T07:08:31Z</time>
      </trkpt>
      <trkpt lat="43.774718977510929" lon="7.50774702988565">
        <ele>12.15</ele>
        <time>2025-05-19T07:08:40Z</time>
      </trkpt>
      <trkpt lat="43.775005973875523" lon="7.508342983201146">
        <ele>10.710000000000001</ele>
        <time>2025-05-19T07:08:49Z</time>
      </trkpt>
      <trkpt lat="43.775046039372683" lon="7.508382964879274">
        <ele>10.710000000000001</ele>
        <time>2025-05-19T07:08:50Z</time>
      </trkpt>
      <trkpt lat="43.775144023820758" lon="7.508367039263248">
        <ele>10.710000000000001</ele>
        <time>2025-05-19T07:08:51Z</time>
      </trkpt>
      <trkpt lat="43.775218036025763" lon="7.508404003456235">
        <ele>10.710000000000001</ele>
        <time>2025-05-19T07:08:52Z</time>
      </trkpt>
      <trkpt lat="43.775305040180683" lon="7.508439961820841">
        <ele>10.710000000000001</ele>
        <time>2025-05-19T07:08:53Z</time>
      </trkpt>
      <trkpt lat="43.775418028235435" lon="7.508487990126014">
        <ele>10.23</ele>
        <time>2025-05-19T07:08:54Z</time>
      </trkpt>
      <trkpt lat="43.775573009625077" lon="7.508517997339368">
        <ele>10.23</ele>
        <time>2025-05-19T07:08:55Z</time>
      </trkpt>
      <trkpt lat="43.77585900016129" lon="7.508533000946045">
        <ele>10.23</ele>
        <time>2025-05-19T07:08:57Z</time>
      </trkpt>
      <trkpt lat="43.775955978780985" lon="7.508510034531355">
        <ele>10.23</ele>
        <time>2025-05-19T07:08:58Z</time>
      </trkpt>
      <trkpt lat="43.776040971279144" lon="7.508493019267917">
        <ele>10.23</ele>
        <time>2025-05-19T07:08:59Z</time>
      </trkpt>
      <trkpt lat="43.77620198763907" lon="7.508408026769757">
        <ele>10.23</ele>
        <time>2025-05-19T07:09:01Z</time>
      </trkpt>
      <trkpt lat="43.776283962652087" lon="7.508363015949726">
        <ele>10.23</ele>
        <time>2025-05-19T07:09:02Z</time>
      </trkpt>
      <trkpt lat="43.77719197422266" lon="7.507861023768783">
        <ele>9.75</ele>
        <time>2025-05-19T07:09:13Z</time>
      </trkpt>
      <trkpt lat="43.777994960546494" lon="7.507536979392171">
        <ele>11.67</ele>
        <time>2025-05-19T07:09:22Z</time>
      </trkpt>
      <trkpt lat="43.778713038191199" lon="7.507361965253949">
        <ele>13.119999999999999</ele>
        <time>2025-05-19T07:09:30Z</time>
      </trkpt>
      <trkpt lat="43.778769029304385" lon="7.507389960810542">
        <ele>13.119999999999999</ele>
        <time>2025-05-19T07:09:31Z</time>
      </trkpt>
      <trkpt lat="43.778828037902713" lon="7.507419968023896">
        <ele>13.119999999999999</ele>
        <time>2025-05-19T07:09:32Z</time>
      </trkpt>
      <trkpt lat="43.778884029015899" lon="7.507453998550773">
        <ele>13.119999999999999</ele>
        <time>2025-05-19T07:09:33Z</time>
      </trkpt>
      <trkpt lat="43.778947982937098" lon="7.507506972178817">
        <ele>13.119999999999999</ele>
        <time>2025-05-19T07:09:34Z</time>
      </trkpt>
      <trkpt lat="43.77901897765696" lon="7.507566986605525">
        <ele>13.119999999999999</ele>
        <time>2025-05-19T07:09:35Z</time>
      </trkpt>
      <trkpt lat="43.779816012829542" lon="7.508247010409832">
        <ele>12.15</ele>
        <time>2025-05-19T07:09:43Z</time>
      </trkpt>
      <trkpt lat="43.780422024428844" lon="7.50895100645721">
        <ele>10.710000000000001</ele>
        <time>2025-05-19T07:09:51Z</time>
      </trkpt>
      <trkpt lat="43.780987970530987" lon="7.50950999557972">
        <ele>10.23</ele>
        <time>2025-05-19T07:09:57Z</time>
      </trkpt>
      <trkpt lat="43.781795985996723" lon="7.510719001293182">
        <ele>6.87</ele>
        <time>2025-05-19T07:10:07Z</time>
      </trkpt>
      <trkpt lat="43.782364027574658" lon="7.511855000630021">
        <ele>7.35</ele>
        <time>2025-05-19T07:10:17Z</time>
      </trkpt>
      <trkpt lat="43.782528983429074" lon="7.512206034734845">
        <ele>8.310000000000001</ele>
        <time>2025-05-19T07:10:24Z</time>
      </trkpt>
      <trkpt lat="43.782528983429074" lon="7.512206034734845">
        <ele>8.310000000000001</ele>
        <time>2025-05-19T07:10:37Z</time>
      </trkpt>
      <trkpt lat="43.78256100229919" lon="7.512277029454708">
        <ele>8.789999999999999</ele>
        <time>2025-05-19T07:11:10Z</time>
      </trkpt>
      <trkpt lat="43.782593021169305" lon="7.512347018346191">
        <ele>8.789999999999999</ele>
        <time>2025-05-19T07:11:11Z</time>
      </trkpt>
      <trkpt lat="43.783015972003341" lon="7.513522999361157">
        <ele>9.75</ele>
        <time>2025-05-19T07:11:21Z</time>
      </trkpt>
      <trkpt lat="43.783397013321519" lon="7.514671990647912">
        <ele>9.27</ele>
        <time>2025-05-19T07:11:28Z</time>
      </trkpt>
      <trkpt lat="43.783800015226007" lon="7.516314005479217">
        <ele>9.75</ele>
        <time>2025-05-19T07:11:39Z</time>
      </trkpt>
      <trkpt lat="43.784061027690768" lon="7.517517982050777">
        <ele>11.19</ele>
        <time>2025-05-19T07:11:49Z</time>
      </trkpt>
      <trkpt lat="43.784441985189915" lon="7.519164020195603">
        <ele>11.67</ele>
        <time>2025-05-19T07:12:01Z</time>
      </trkpt>
      <trkpt lat="43.784591015428305" lon="7.520050993189216">
        <ele>11.67</ele>
        <time>2025-05-19T07:12:09Z</time>
      </trkpt>
      <trkpt lat="43.784748008474708" lon="7.52167196944356">
        <ele>11.67</ele>
        <time>2025-05-19T07:12:20Z</time>
      </trkpt>
      <trkpt lat="43.784972978755832" lon="7.523250030353665">
        <ele>10.710000000000001</ele>
        <time>2025-05-19T07:12:30Z</time>
      </trkpt>
      <trkpt lat="43.785127960145473" lon="7.524846028536558">
        <ele>11.19</ele>
        <time>2025-05-19T07:12:40Z</time>
      </trkpt>
      <trkpt lat="43.785105999559164" lon="7.526072971522808">
        <ele>11.19</ele>
        <time>2025-05-19T07:12:47Z</time>
      </trkpt>
      <trkpt lat="43.785002985969186" lon="7.527480041608214">
        <ele>10.710000000000001</ele>
        <time>2025-05-19T07:12:55Z</time>
      </trkpt>
      <trkpt lat="43.784961998462677" lon="7.527634017169476">
        <ele>10.23</ele>
        <time>2025-05-19T07:12:56Z</time>
      </trkpt>
      <trkpt lat="43.784922016784549" lon="7.527785981073976">
        <ele>10.23</ele>
        <time>2025-05-19T07:12:57Z</time>
      </trkpt>
      <trkpt lat="43.784613981842995" lon="7.528734980151057">
        <ele>8.789999999999999</ele>
        <time>2025-05-19T07:13:03Z</time>
      </trkpt>
      <trkpt lat="43.784540975466371" lon="7.528832964599133">
        <ele>8.789999999999999</ele>
        <time>2025-05-19T07:13:04Z</time>
      </trkpt>
      <trkpt lat="43.784413989633322" lon="7.529002027586103">
        <ele>8.789999999999999</ele>
        <time>2025-05-19T07:13:06Z</time>
      </trkpt>
      <trkpt lat="43.784373002126813" lon="7.529118033125997">
        <ele>8.789999999999999</ele>
        <time>2025-05-19T07:13:07Z</time>
      </trkpt>
      <trkpt lat="43.784362021833658" lon="7.529224986210465">
        <ele>8.310000000000001</ele>
        <time>2025-05-19T07:13:08Z</time>
      </trkpt>
      <trkpt lat="43.784349029883742" lon="7.52934099175036">
        <ele>8.789999999999999</ele>
        <time>2025-05-19T07:13:09Z</time>
      </trkpt>
      <trkpt lat="43.784337965771556" lon="7.529456997290254">
        <ele>8.789999999999999</ele>
        <time>2025-05-19T07:13:10Z</time>
      </trkpt>
      <trkpt lat="43.784344000741839" lon="7.529581971466541">
        <ele>8.789999999999999</ele>
        <time>2025-05-19T07:13:11Z</time>
      </trkpt>
      <trkpt lat="43.784350035712123" lon="7.529707029461861">
        <ele>8.789999999999999</ele>
        <time>2025-05-19T07:13:12Z</time>
      </trkpt>
      <trkpt lat="43.784450031816959" lon="7.531214011833072">
        <ele>11.67</ele>
        <time>2025-05-19T07:13:24Z</time>
      </trkpt>
      <trkpt lat="43.784522032365203" lon="7.531503019854426">
        <ele>12.15</ele>
        <time>2025-05-19T07:13:26Z</time>
      </trkpt>
      <trkpt lat="43.784562014043331" lon="7.531660012900829">
        <ele>12.630000000000001</ele>
        <time>2025-05-19T07:13:27Z</time>
      </trkpt>
      <trkpt lat="43.784638037905097" lon="7.531793033704162">
        <ele>12.630000000000001</ele>
        <time>2025-05-19T07:13:28Z</time>
      </trkpt>
      <trkpt lat="43.784822020679712" lon="7.532180026173592">
        <ele>14.08</ele>
        <time>2025-05-19T07:13:31Z</time>
      </trkpt>
      <trkpt lat="43.784857979044318" lon="7.532314974814653">
        <ele>15.039999999999999</ele>
        <time>2025-05-19T07:13:32Z</time>
      </trkpt>
      <trkpt lat="43.784873988479376" lon="7.532523013651371">
        <ele>15.52</ele>
        <time>2025-05-19T07:13:33Z</time>
      </trkpt>
      <trkpt lat="43.784873988479376" lon="7.532643964514136">
        <ele>16.48</ele>
        <time>2025-05-19T07:13:34Z</time>
      </trkpt>
      <trkpt lat="43.784873988479376" lon="7.53288796171546">
        <ele>16.960000000000001</ele>
        <time>2025-05-19T07:13:35Z</time>
      </trkpt>
      <trkpt lat="43.784868959337473" lon="7.532982006669045">
        <ele>17.920000000000002</ele>
        <time>2025-05-19T07:13:36Z</time>
      </trkpt>
      <trkpt lat="43.784852027893066" lon="7.533318037167192">
        <ele>17.920000000000002</ele>
        <time>2025-05-19T07:13:38Z</time>
      </trkpt>
      <trkpt lat="43.784405020996928" lon="7.538925027474761">
        <ele>17.920000000000002</ele>
        <time>2025-05-19T07:14:08Z</time>
      </trkpt>
      <trkpt lat="43.784524966031313" lon="7.539651989936829">
        <ele>33.299999999999997</ele>
        <time>2025-05-19T07:14:13Z</time>
      </trkpt>
      <trkpt lat="43.785024024546146" lon="7.541234996169806">
        <ele>34.740000000000002</ele>
        <time>2025-05-19T07:14:17Z</time>
      </trkpt>
      <trkpt lat="43.785050008445978" lon="7.541440017521381">
        <ele>35.710000000000001</ele>
        <time>2025-05-19T07:14:18Z</time>
      </trkpt>
      <trkpt lat="43.785103987902403" lon="7.541870009154081">
        <ele>38.109999999999999</ele>
        <time>2025-05-19T07:14:20Z</time>
      </trkpt>
      <trkpt lat="43.785084960982203" lon="7.542327996343374">
        <ele>39.07</ele>
        <time>2025-05-19T07:14:22Z</time>
      </trkpt>
      <trkpt lat="43.785071969032288" lon="7.542542992159724">
        <ele>38.109999999999999</ele>
        <time>2025-05-19T07:14:23Z</time>
      </trkpt>
      <trkpt lat="43.78503299318254" lon="7.542759999632835">
        <ele>38.590000000000003</ele>
        <time>2025-05-19T07:14:24Z</time>
      </trkpt>
      <trkpt lat="43.784868959337473" lon="7.543357964605093">
        <ele>39.549999999999997</ele>
        <time>2025-05-19T07:14:27Z</time>
      </trkpt>
      <trkpt lat="43.784807017073035" lon="7.543553011491895">
        <ele>39.07</ele>
        <time>2025-05-19T07:14:28Z</time>
      </trkpt>
      <trkpt lat="43.784744990989566" lon="7.543745040893555">
        <ele>38.590000000000003</ele>
        <time>2025-05-19T07:14:29Z</time>
      </trkpt>
      <trkpt lat="43.784639965742826" lon="7.544072018936276">
        <ele>38.109999999999999</ele>
        <time>2025-05-19T07:14:31Z</time>
      </trkpt>
      <trkpt lat="43.784589003771544" lon="7.544234041124582">
        <ele>37.630000000000003</ele>
        <time>2025-05-19T07:14:32Z</time>
      </trkpt>
      <trkpt lat="43.78400101326406" lon="7.545787040144205">
        <ele>37.630000000000003</ele>
        <time>2025-05-19T07:14:40Z</time>
      </trkpt>
      <trkpt lat="43.783021001145244" lon="7.547737006098032">
        <ele>44.359999999999999</ele>
        <time>2025-05-19T07:14:50Z</time>
      </trkpt>
      <trkpt lat="43.782551027834415" lon="7.548950035125017">
        <ele>49.649999999999999</ele>
        <time>2025-05-19T07:14:56Z</time>
      </trkpt>
      <trkpt lat="43.782502999529243" lon="7.549170982092619">
        <ele>50.609999999999999</ele>
        <time>2025-05-19T07:14:57Z</time>
      </trkpt>
      <trkpt lat="43.782492019236088" lon="7.549415985122323">
        <ele>51.090000000000003</ele>
        <time>2025-05-19T07:14:58Z</time>
      </trkpt>
      <trkpt lat="43.782492019236088" lon="7.549876989796758">
        <ele>51.090000000000003</ele>
        <time>2025-05-19T07:15:00Z</time>
      </trkpt>
      <trkpt lat="43.782592015340924" lon="7.551296968013048">
        <ele>50.130000000000003</ele>
        <time>2025-05-19T07:15:06Z</time>
      </trkpt>
      <trkpt lat="43.78288496285677" lon="7.552129961550236">
        <ele>47.719999999999999</ele>
        <time>2025-05-19T07:15:10Z</time>
      </trkpt>
      <trkpt lat="43.784768041223288" lon="7.556600030511618">
        <ele>47.719999999999999</ele>
        <time>2025-05-19T07:15:33Z</time>
      </trkpt>
      <trkpt lat="43.785155033692718" lon="7.556947963312268">
        <ele>41.469999999999999</ele>
        <time>2025-05-19T07:15:37Z</time>
      </trkpt>
      <trkpt lat="43.786173015832901" lon="7.557579958811402">
        <ele>40.509999999999998</ele>
        <time>2025-05-19T07:15:47Z</time>
      </trkpt>
      <trkpt lat="43.78653896972537" lon="7.557793026790023">
        <ele>40.509999999999998</ele>
        <time>2025-05-19T07:15:51Z</time>
      </trkpt>
      <trkpt lat="43.786913976073265" lon="7.557996036484838">
        <ele>40.990000000000002</ele>
        <time>2025-05-19T07:15:55Z</time>
      </trkpt>
      <trkpt lat="43.787851994857192" lon="7.558353021740913">
        <ele>38.590000000000003</ele>
        <time>2025-05-19T07:16:03Z</time>
      </trkpt>
      <trkpt lat="43.788306964561343" lon="7.558663990348578">
        <ele>36.189999999999998</ele>
        <time>2025-05-19T07:16:07Z</time>
      </trkpt>
      <trkpt lat="43.788409978151321" lon="7.558782007545233">
        <ele>35.710000000000001</ele>
        <time>2025-05-19T07:16:08Z</time>
      </trkpt>
      <trkpt lat="43.788510980084538" lon="7.558897007256746">
        <ele>35.710000000000001</ele>
        <time>2025-05-19T07:16:09Z</time>
      </trkpt>
      <trkpt lat="43.789188992232084" lon="7.559934016317129">
        <ele>33.299999999999997</ele>
        <time>2025-05-19T07:16:17Z</time>
      </trkpt>
      <trkpt lat="43.789275996387005" lon="7.560059996321797">
        <ele>33.299999999999997</ele>
        <time>2025-05-19T07:16:18Z</time>
      </trkpt>
      <trkpt lat="43.790328009054065" lon="7.561606960371137">
        <ele>28.98</ele>
        <time>2025-05-19T07:16:30Z</time>
      </trkpt>
      <trkpt lat="43.790417024865746" lon="7.561710979789496">
        <ele>28.5</ele>
        <time>2025-05-19T07:16:31Z</time>
      </trkpt>
      <trkpt lat="43.790512997657061" lon="7.561798989772797">
        <ele>28.02</ele>
        <time>2025-05-19T07:16:32Z</time>
      </trkpt>
      <trkpt lat="43.790608970448375" lon="7.561886999756098">
        <ele>27.530000000000001</ele>
        <time>2025-05-19T07:16:33Z</time>
      </trkpt>
      <trkpt lat="43.790712989866734" lon="7.561965035274625">
        <ele>27.530000000000001</ele>
        <time>2025-05-19T07:16:34Z</time>
      </trkpt>
      <trkpt lat="43.790821032598615" lon="7.562023038044572">
        <ele>27.530000000000001</ele>
        <time>2025-05-19T07:16:35Z</time>
      </trkpt>
      <trkpt lat="43.791504995897412" lon="7.562381029129028">
        <ele>30.420000000000002</ele>
        <time>2025-05-19T07:16:41Z</time>
      </trkpt>
      <trkpt lat="43.791957031935453" lon="7.562602981925011">
        <ele>33.299999999999997</ele>
        <time>2025-05-19T07:16:45Z</time>
      </trkpt>
      <trkpt lat="43.792586009949446" lon="7.562889978289604">
        <ele>37.149999999999999</ele>
        <time>2025-05-19T07:16:52Z</time>
      </trkpt>
      <trkpt lat="43.792662033811212" lon="7.562928032130003">
        <ele>37.149999999999999</ele>
        <time>2025-05-19T07:16:53Z</time>
      </trkpt>
      <trkpt lat="43.79274501465261" lon="7.562969019636512">
        <ele>37.149999999999999</ele>
        <time>2025-05-19T07:16:54Z</time>
      </trkpt>
      <trkpt lat="43.793312972411513" lon="7.563159037381411">
        <ele>37.149999999999999</ele>
        <time>2025-05-19T07:17:00Z</time>
      </trkpt>
      <trkpt lat="43.79341296851635" lon="7.563161971047521">
        <ele>36.670000000000002</ele>
        <time>2025-05-19T07:17:01Z</time>
      </trkpt>
      <trkpt lat="43.793528974056244" lon="7.56315995939076">
        <ele>36.670000000000002</ele>
        <time>2025-05-19T07:17:02Z</time>
      </trkpt>
      <trkpt lat="43.79422802478075" lon="7.563143027946353">
        <ele>32.340000000000003</ele>
        <time>2025-05-19T07:17:09Z</time>
      </trkpt>
      <trkpt lat="43.794469004496932" lon="7.563204970210791">
        <ele>30.899999999999999</ele>
        <time>2025-05-19T07:17:12Z</time>
      </trkpt>
      <trkpt lat="43.79452901892364" lon="7.563256016001105">
        <ele>30.899999999999999</ele>
        <time>2025-05-19T07:17:13Z</time>
      </trkpt>
      <trkpt lat="43.794569000601768" lon="7.563308989629149">
        <ele>30.899999999999999</ele>
        <time>2025-05-19T07:17:14Z</time>
      </trkpt>
      <trkpt lat="43.794573023915291" lon="7.563315024599433">
        <ele>30.420000000000002</ele>
        <time>2025-05-19T07:17:15Z</time>
      </trkpt>
      <trkpt lat="43.794573023915291" lon="7.563315024599433">
        <ele>30.420000000000002</ele>
        <time>2025-05-19T07:17:16Z</time>
      </trkpt>
      <trkpt lat="43.79467997699976" lon="7.563550975173712">
        <ele>29.940000000000001</ele>
        <time>2025-05-19T07:17:17Z</time>
      </trkpt>
      <trkpt lat="43.794671008363366" lon="7.563629010692239">
        <ele>29.460000000000001</ele>
        <time>2025-05-19T07:17:18Z</time>
      </trkpt>
      <trkpt lat="43.794659022241831" lon="7.563744010403752">
        <ele>28.98</ele>
        <time>2025-05-19T07:17:19Z</time>
      </trkpt>
      <trkpt lat="43.794605964794755" lon="7.563849035650492">
        <ele>28.5</ele>
        <time>2025-05-19T07:17:20Z</time>
      </trkpt>
      <trkpt lat="43.794561037793756" lon="7.563938973471522">
        <ele>28.5</ele>
        <time>2025-05-19T07:17:21Z</time>
      </trkpt>
      <trkpt lat="43.794519966468215" lon="7.564021032303572">
        <ele>28.5</ele>
        <time>2025-05-19T07:17:22Z</time>
      </trkpt>
      <trkpt lat="43.794262977316976" lon="7.564468961209059">
        <ele>26.57</ele>
        <time>2025-05-19T07:17:29Z</time>
      </trkpt>
      <trkpt lat="43.793871039524674" lon="7.565123001113534">
        <ele>24.649999999999999</ele>
        <time>2025-05-19T07:17:36Z</time>
      </trkpt>
      <trkpt lat="43.793616984039545" lon="7.565538994967938">
        <ele>24.649999999999999</ele>
        <time>2025-05-19T07:17:40Z</time>
      </trkpt>
      <trkpt lat="43.793578008189797" lon="7.565655000507832">
        <ele>24.649999999999999</ele>
        <time>2025-05-19T07:17:41Z</time>
      </trkpt>
      <trkpt lat="43.793540960177779" lon="7.56578198634088">
        <ele>24.649999999999999</ele>
        <time>2025-05-19T07:17:42Z</time>
      </trkpt>
      <trkpt lat="43.793531991541386" lon="7.566206026822329">
        <ele>25.129999999999999</ele>
        <time>2025-05-19T07:17:45Z</time>
      </trkpt>
      <trkpt lat="43.793646991252899" lon="7.567537995055318">
        <ele>27.530000000000001</ele>
        <time>2025-05-19T07:17:55Z</time>
      </trkpt>
      <trkpt lat="43.793679010123014" lon="7.567798001691699">
        <ele>28.02</ele>
        <time>2025-05-19T07:17:57Z</time>
      </trkpt>
      <trkpt lat="43.793817982077599" lon="7.569058975204825">
        <ele>30.899999999999999</ele>
        <time>2025-05-19T07:18:07Z</time>
      </trkpt>
      <trkpt lat="43.793981010094285" lon="7.570272004231811">
        <ele>32.82</ele>
        <time>2025-05-19T07:18:15Z</time>
      </trkpt>
      <trkpt lat="43.794027026742697" lon="7.570409970358014">
        <ele>32.82</ele>
        <time>2025-05-19T07:18:16Z</time>
      </trkpt>
      <trkpt lat="43.794080000370741" lon="7.570535028353334">
        <ele>32.82</ele>
        <time>2025-05-19T07:18:17Z</time>
      </trkpt>
      <trkpt lat="43.794152000918984" lon="7.570637036114931">
        <ele>32.82</ele>
        <time>2025-05-19T07:18:18Z</time>
      </trkpt>
      <trkpt lat="43.794226013123989" lon="7.570732003077865">
        <ele>32.82</ele>
        <time>2025-05-19T07:18:19Z</time>
      </trkpt>
      <trkpt lat="43.794315028935671" lon="7.570802997797728">
        <ele>33.299999999999997</ele>
        <time>2025-05-19T07:18:20Z</time>
      </trkpt>
      <trkpt lat="43.794414019212127" lon="7.570862006396055">
        <ele>33.299999999999997</ele>
        <time>2025-05-19T07:18:21Z</time>
      </trkpt>
      <trkpt lat="43.794515021145344" lon="7.570923026651144">
        <ele>32.82</ele>
        <time>2025-05-19T07:18:22Z</time>
      </trkpt>
      <trkpt lat="43.795092031359673" lon="7.571289986371994">
        <ele>32.340000000000003</ele>
        <time>2025-05-19T07:18:28Z</time>
      </trkpt>
      <trkpt lat="43.795155985280871" lon="7.571379002183676">
        <ele>32.340000000000003</ele>
        <time>2025-05-19T07:18:29Z</time>
      </trkpt>
      <trkpt lat="43.795208958908916" lon="7.571486039087176">
        <ele>32.340000000000003</ele>
        <time>2025-05-19T07:18:30Z</time>
      </trkpt>
      <trkpt lat="43.795237960293889" lon="7.571621993556619">
        <ele>32.340000000000003</ele>
        <time>2025-05-19T07:18:31Z</time>
      </trkpt>
      <trkpt lat="43.795237960293889" lon="7.571757026016712">
        <ele>31.859999999999999</ele>
        <time>2025-05-19T07:18:32Z</time>
      </trkpt>
      <trkpt lat="43.795182975009084" lon="7.571877976879478">
        <ele>31.859999999999999</ele>
        <time>2025-05-19T07:18:33Z</time>
      </trkpt>
      <trkpt lat="43.79513100720942" lon="7.571961963549256">
        <ele>31.859999999999999</ele>
        <time>2025-05-19T07:18:34Z</time>
      </trkpt>
      <trkpt lat="43.795028999447823" lon="7.572020972147584">
        <ele>31.379999999999999</ele>
        <time>2025-05-19T07:18:35Z</time>
      </trkpt>
      <trkpt lat="43.79493503831327" lon="7.57207696326077">
        <ele>31.379999999999999</ele>
        <time>2025-05-19T07:18:36Z</time>
      </trkpt>
      <trkpt lat="43.794834958389401" lon="7.572134966030717">
        <ele>31.379999999999999</ele>
        <time>2025-05-19T07:18:37Z</time>
      </trkpt>
      <trkpt lat="43.794454000890255" lon="7.572392961010337">
        <ele>31.379999999999999</ele>
        <time>2025-05-19T07:18:41Z</time>
      </trkpt>
      <trkpt lat="43.794386023655534" lon="7.572473008185625">
        <ele>31.379999999999999</ele>
        <time>2025-05-19T07:18:42Z</time>
      </trkpt>
      <trkpt lat="43.794319974258542" lon="7.572552971541882">
        <ele>30.899999999999999</ele>
        <time>2025-05-19T07:18:43Z</time>
      </trkpt>
      <trkpt lat="43.794284015893936" lon="7.572662020102143">
        <ele>30.899999999999999</ele>
        <time>2025-05-19T07:18:44Z</time>
      </trkpt>
      <trkpt lat="43.794267000630498" lon="7.572782970964909">
        <ele>30.899999999999999</ele>
        <time>2025-05-19T07:18:45Z</time>
      </trkpt>
      <trkpt lat="43.794251997023821" lon="7.572910040616989">
        <ele>30.899999999999999</ele>
        <time>2025-05-19T07:18:46Z</time>
      </trkpt>
      <trkpt lat="43.794289967045188" lon="7.573026968166232">
        <ele>30.899999999999999</ele>
        <time>2025-05-19T07:18:47Z</time>
      </trkpt>
      <trkpt lat="43.794330032542348" lon="7.573151020333171">
        <ele>30.899999999999999</ele>
        <time>2025-05-19T07:18:48Z</time>
      </trkpt>
      <trkpt lat="43.79442298784852" lon="7.573442962020636">
        <ele>30.899999999999999</ele>
        <time>2025-05-19T07:18:50Z</time>
      </trkpt>
      <trkpt lat="43.794435979798436" lon="7.57357900030911">
        <ele>30.899999999999999</ele>
        <time>2025-05-19T07:18:51Z</time>
      </trkpt>
      <trkpt lat="43.794444026425481" lon="7.573735993355513">
        <ele>30.899999999999999</ele>
        <time>2025-05-19T07:18:52Z</time>
      </trkpt>
      <trkpt lat="43.79442298784852" lon="7.574021983891726">
        <ele>31.859999999999999</ele>
        <time>2025-05-19T07:18:54Z</time>
      </trkpt>
      <trkpt lat="43.794366996735334" lon="7.574189035221934">
        <ele>32.340000000000003</ele>
        <time>2025-05-19T07:18:55Z</time>
      </trkpt>
      <trkpt lat="43.794319974258542" lon="7.57433102466166">
        <ele>33.299999999999997</ele>
        <time>2025-05-19T07:18:56Z</time>
      </trkpt>
      <trkpt lat="43.794272029772401" lon="7.574473014101386">
        <ele>34.259999999999998</ele>
        <time>2025-05-19T07:18:57Z</time>
      </trkpt>
      <trkpt lat="43.794226013123989" lon="7.57461198605597">
        <ele>34.740000000000002</ele>
        <time>2025-05-19T07:18:58Z</time>
      </trkpt>
      <trkpt lat="43.794132973998785" lon="7.57489001378417">
        <ele>35.710000000000001</ele>
        <time>2025-05-19T07:19:00Z</time>
      </trkpt>
      <trkpt lat="43.794085029512644" lon="7.575034014880657">
        <ele>36.189999999999998</ele>
        <time>2025-05-19T07:19:01Z</time>
      </trkpt>
      <trkpt lat="43.79403498955071" lon="7.575186984613538">
        <ele>36.670000000000002</ele>
        <time>2025-05-19T07:19:02Z</time>
      </trkpt>
      <trkpt lat="43.79394999705255" lon="7.57551496848464">
        <ele>38.109999999999999</ele>
        <time>2025-05-19T07:19:04Z</time>
      </trkpt>
      <trkpt lat="43.793661994859576" lon="7.576577961444855">
        <ele>41.469999999999999</ele>
        <time>2025-05-19T07:19:11Z</time>
      </trkpt>
      <trkpt lat="43.793626958504319" lon="7.576747024431825">
        <ele>42.439999999999998</ele>
        <time>2025-05-19T07:19:12Z</time>
      </trkpt>
      <trkpt lat="43.793594017624855" lon="7.576905023306608">
        <ele>42.920000000000002</ele>
        <time>2025-05-19T07:19:13Z</time>
      </trkpt>
      <trkpt lat="43.79337097518146" lon="7.578271022066474">
        <ele>48.200000000000003</ele>
        <time>2025-05-19T07:19:22Z</time>
      </trkpt>
      <trkpt lat="43.793308027088642" lon="7.578431032598019">
        <ele>48.68</ele>
        <time>2025-05-19T07:19:23Z</time>
      </trkpt>
      <trkpt lat="43.793211970478296" lon="7.578675029799342">
        <ele>49.649999999999999</ele>
        <time>2025-05-19T07:19:25Z</time>
      </trkpt>
      <trkpt lat="43.793172994628549" lon="7.578774020075798">
        <ele>50.130000000000003</ele>
        <time>2025-05-19T07:19:26Z</time>
      </trkpt>
      <trkpt lat="43.793137036263943" lon="7.57886697538197">
        <ele>51.090000000000003</ele>
        <time>2025-05-19T07:19:27Z</time>
      </trkpt>
      <trkpt lat="43.793135024607182" lon="7.578978035598993">
        <ele>51.57</ele>
        <time>2025-05-19T07:19:28Z</time>
      </trkpt>
      <trkpt lat="43.793147010728717" lon="7.579090017825365">
        <ele>52.530000000000001</ele>
        <time>2025-05-19T07:19:29Z</time>
      </trkpt>
      <trkpt lat="43.793191015720367" lon="7.579190013930202">
        <ele>53.490000000000002</ele>
        <time>2025-05-19T07:19:30Z</time>
      </trkpt>
      <trkpt lat="43.793247006833553" lon="7.579291015863419">
        <ele>54.450000000000003</ele>
        <time>2025-05-19T07:19:31Z</time>
      </trkpt>
      <trkpt lat="43.793316995725036" lon="7.57937902584672">
        <ele>55.409999999999997</ele>
        <time>2025-05-19T07:19:32Z</time>
      </trkpt>
      <trkpt lat="43.79339000210166" lon="7.579472986981273">
        <ele>55.890000000000001</ele>
        <time>2025-05-19T07:19:33Z</time>
      </trkpt>
      <trkpt lat="43.793456973508" lon="7.579557979479432">
        <ele>56.859999999999999</ele>
        <time>2025-05-19T07:19:34Z</time>
      </trkpt>
      <trkpt lat="43.793489998206496" lon="7.579669039696455">
        <ele>56.859999999999999</ele>
        <time>2025-05-19T07:19:35Z</time>
      </trkpt>
      <trkpt lat="43.793522017076612" lon="7.579779010266066">
        <ele>57.82</ele>
        <time>2025-05-19T07:19:36Z</time>
      </trkpt>
      <trkpt lat="43.793564010411501" lon="7.579923011362553">
        <ele>58.299999999999997</ele>
        <time>2025-05-19T07:19:37Z</time>
      </trkpt>
      <trkpt lat="43.793538026511669" lon="7.58002501912415">
        <ele>58.780000000000001</ele>
        <time>2025-05-19T07:19:38Z</time>
      </trkpt>
      <trkpt lat="43.793505001813173" lon="7.580156028270721">
        <ele>59.740000000000002</ele>
        <time>2025-05-19T07:19:39Z</time>
      </trkpt>
      <trkpt lat="43.793470971286297" lon="7.580290976911783">
        <ele>60.219999999999999</ele>
        <time>2025-05-19T07:19:40Z</time>
      </trkpt>
      <trkpt lat="43.793334010988474" lon="7.580830017104745">
        <ele>62.619999999999997</ele>
        <time>2025-05-19T07:19:44Z</time>
      </trkpt>
      <trkpt lat="43.793298974633217" lon="7.580965971574187">
        <ele>63.579999999999998</ele>
        <time>2025-05-19T07:19:45Z</time>
      </trkpt>
      <trkpt lat="43.793266033753753" lon="7.581096980720758">
        <ele>64.549999999999997</ele>
        <time>2025-05-19T07:19:46Z</time>
      </trkpt>
      <trkpt lat="43.793232003226876" lon="7.581232013180852">
        <ele>65.030000000000001</ele>
        <time>2025-05-19T07:19:47Z</time>
      </trkpt>
      <trkpt lat="43.793226974084973" lon="7.581382971256971">
        <ele>65.989999999999995</ele>
        <time>2025-05-19T07:19:48Z</time>
      </trkpt>
      <trkpt lat="43.793235020712018" lon="7.581519009545445">
        <ele>66.469999999999999</ele>
        <time>2025-05-19T07:19:49Z</time>
      </trkpt>
      <trkpt lat="43.79324197769165" lon="7.581660998985171">
        <ele>67.430000000000007</ele>
        <time>2025-05-19T07:19:50Z</time>
      </trkpt>
      <trkpt lat="43.793249018490314" lon="7.581791002303362">
        <ele>67.909999999999997</ele>
        <time>2025-05-19T07:19:51Z</time>
      </trkpt>
      <trkpt lat="43.793255975469947" lon="7.581931985914707">
        <ele>68.390000000000001</ele>
        <time>2025-05-19T07:19:52Z</time>
      </trkpt>
      <trkpt lat="43.793270979076624" lon="7.582223005592823">
        <ele>69.349999999999994</ele>
        <time>2025-05-19T07:19:54Z</time>
      </trkpt>
      <trkpt lat="43.793296040967107" lon="7.582621984183788">
        <ele>70.790000000000006</ele>
        <time>2025-05-19T07:19:57Z</time>
      </trkpt>
      <trkpt lat="43.79330400377512" lon="7.582771014422178">
        <ele>71.269999999999996</ele>
        <time>2025-05-19T07:19:58Z</time>
      </trkpt>
      <trkpt lat="43.793307021260262" lon="7.583721019327641">
        <ele>72.719999999999999</ele>
        <time>2025-05-19T07:20:04Z</time>
      </trkpt>
      <trkpt lat="43.793270979076624" lon="7.583857979625464">
        <ele>72.719999999999999</ele>
        <time>2025-05-19T07:20:05Z</time>
      </trkpt>
      <trkpt lat="43.793236026540399" lon="7.583992006257176">
        <ele>72.239999999999995</ele>
        <time>2025-05-19T07:20:06Z</time>
      </trkpt>
      <trkpt lat="43.793204007670283" lon="7.584115974605084">
        <ele>72.239999999999995</ele>
        <time>2025-05-19T07:20:07Z</time>
      </trkpt>
      <trkpt lat="43.793194033205509" lon="7.584265004843473">
        <ele>71.760000000000005</ele>
        <time>2025-05-19T07:20:08Z</time>
      </trkpt>
      <trkpt lat="43.793235020712018" lon="7.584390984848142">
        <ele>71.269999999999996</ele>
        <time>2025-05-19T07:20:09Z</time>
      </trkpt>
      <trkpt lat="43.793279025703669" lon="7.584531968459487">
        <ele>71.269999999999996</ele>
        <time>2025-05-19T07:20:10Z</time>
      </trkpt>
      <trkpt lat="43.79332797601819" lon="7.584684016183019">
        <ele>70.790000000000006</ele>
        <time>2025-05-19T07:20:11Z</time>
      </trkpt>
      <trkpt lat="43.793380027636886" lon="7.584846038371325">
        <ele>70.310000000000002</ele>
        <time>2025-05-19T07:20:12Z</time>
      </trkpt>
      <trkpt lat="43.793431995436549" lon="7.585008982568979">
        <ele>70.790000000000006</ele>
        <time>2025-05-19T07:20:13Z</time>
      </trkpt>
      <trkpt lat="43.793484969064593" lon="7.585175028070808">
        <ele>70.790000000000006</ele>
        <time>2025-05-19T07:20:14Z</time>
      </trkpt>
      <trkpt lat="43.793508019298315" lon="7.585336966440082">
        <ele>71.269999999999996</ele>
        <time>2025-05-19T07:20:15Z</time>
      </trkpt>
      <trkpt lat="43.79352000541985" lon="7.585518015548587">
        <ele>71.269999999999996</ele>
        <time>2025-05-19T07:20:16Z</time>
      </trkpt>
      <trkpt lat="43.793532997369766" lon="7.585696969181299">
        <ele>71.269999999999996</ele>
        <time>2025-05-19T07:20:17Z</time>
      </trkpt>
      <trkpt lat="43.79354196600616" lon="7.585855973884463">
        <ele>71.269999999999996</ele>
        <time>2025-05-19T07:20:18Z</time>
      </trkpt>
      <trkpt lat="43.793526962399483" lon="7.58601900190115">
        <ele>71.269999999999996</ele>
        <time>2025-05-19T07:20:19Z</time>
      </trkpt>
      <trkpt lat="43.793517993763089" lon="7.587134968489409">
        <ele>72.239999999999995</ele>
        <time>2025-05-19T07:20:26Z</time>
      </trkpt>
      <trkpt lat="43.79349603317678" lon="7.587289027869701">
        <ele>72.239999999999995</ele>
        <time>2025-05-19T07:20:27Z</time>
      </trkpt>
      <trkpt lat="43.793479017913342" lon="7.587410984560847">
        <ele>72.719999999999999</ele>
        <time>2025-05-19T07:20:28Z</time>
      </trkpt>
      <trkpt lat="43.793408023193479" lon="7.587584992870688">
        <ele>73.200000000000003</ele>
        <time>2025-05-19T07:20:29Z</time>
      </trkpt>
      <trkpt lat="43.79334700293839" lon="7.58773603476584">
        <ele>73.200000000000003</ele>
        <time>2025-05-19T07:20:30Z</time>
      </trkpt>
      <trkpt lat="43.793281959369779" lon="7.587894033640623">
        <ele>73.200000000000003</ele>
        <time>2025-05-19T07:20:31Z</time>
      </trkpt>
      <trkpt lat="43.79283201880753" lon="7.589222984388471">
        <ele>75.599999999999994</ele>
        <time>2025-05-19T07:20:39Z</time>
      </trkpt>
      <trkpt lat="43.792791031301022" lon="7.589404033496976">
        <ele>76.079999999999998</ele>
        <time>2025-05-19T07:20:40Z</time>
      </trkpt>
      <trkpt lat="43.792504034936428" lon="7.591000031679869">
        <ele>79.450000000000003</ele>
        <time>2025-05-19T07:20:49Z</time>
      </trkpt>
      <trkpt lat="43.792247967794538" lon="7.592427972704172">
        <ele>78.480000000000004</ele>
        <time>2025-05-19T07:20:57Z</time>
      </trkpt>
      <trkpt lat="43.792218966409564" lon="7.592586977407336">
        <ele>78.480000000000004</ele>
        <time>2025-05-19T07:20:58Z</time>
      </trkpt>
      <trkpt lat="43.792164986953139" lon="7.592719998210669">
        <ele>78</ele>
        <time>2025-05-19T07:20:59Z</time>
      </trkpt>
      <trkpt lat="43.79210296086967" lon="7.592844972386956">
        <ele>77.519999999999996</ele>
        <time>2025-05-19T07:21:00Z</time>
      </trkpt>
      <trkpt lat="43.79203800112009" lon="7.592974975705147">
        <ele>77.519999999999996</ele>
        <time>2025-05-19T07:21:01Z</time>
      </trkpt>
      <trkpt lat="43.791748993098736" lon="7.593510998412967">
        <ele>76.079999999999998</ele>
        <time>2025-05-19T07:21:05Z</time>
      </trkpt>
      <trkpt lat="43.791508013382554" lon="7.593973008915782">
        <ele>75.120000000000005</ele>
        <time>2025-05-19T07:21:08Z</time>
      </trkpt>
      <trkpt lat="43.791416985914111" lon="7.594127990305424">
        <ele>75.120000000000005</ele>
        <time>2025-05-19T07:21:09Z</time>
      </trkpt>
      <trkpt lat="43.790803011506796" lon="7.595010017976165">
        <ele>74.159999999999997</ele>
        <time>2025-05-19T07:21:16Z</time>
      </trkpt>
      <trkpt lat="43.790750037878752" lon="7.59513096883893">
        <ele>74.159999999999997</ele>
        <time>2025-05-19T07:21:17Z</time>
      </trkpt>
      <trkpt lat="43.79070402123034" lon="7.595276981592178">
        <ele>74.159999999999997</ele>
        <time>2025-05-19T07:21:18Z</time>
      </trkpt>
      <trkpt lat="43.790664961561561" lon="7.595425006002188">
        <ele>73.680000000000007</ele>
        <time>2025-05-19T07:21:19Z</time>
      </trkpt>
      <trkpt lat="43.790650963783264" lon="7.595593985170126">
        <ele>73.200000000000003</ele>
        <time>2025-05-19T07:21:20Z</time>
      </trkpt>
      <trkpt lat="43.790646018460393" lon="7.595760030671954">
        <ele>72.239999999999995</ele>
        <time>2025-05-19T07:21:21Z</time>
      </trkpt>
      <trkpt lat="43.790648030117154" lon="7.595920963212848">
        <ele>71.760000000000005</ele>
        <time>2025-05-19T07:21:22Z</time>
      </trkpt>
      <trkpt lat="43.790658004581928" lon="7.596077034249902">
        <ele>71.269999999999996</ele>
        <time>2025-05-19T07:21:23Z</time>
      </trkpt>
      <trkpt lat="43.790710978209972" lon="7.596726967021823">
        <ele>68.390000000000001</ele>
        <time>2025-05-19T07:21:27Z</time>
      </trkpt>
      <trkpt lat="43.790799994021654" lon="7.597198029980063">
        <ele>66.950000000000003</ele>
        <time>2025-05-19T07:21:30Z</time>
      </trkpt>
      <trkpt lat="43.790841987356544" lon="7.597344964742661">
        <ele>66.469999999999999</ele>
        <time>2025-05-19T07:21:31Z</time>
      </trkpt>
      <trkpt lat="43.790881969034672" lon="7.597487038001418">
        <ele>65.510000000000005</ele>
        <time>2025-05-19T07:21:32Z</time>
      </trkpt>
      <trkpt lat="43.791311038658023" lon="7.598483981564641">
        <ele>61.659999999999997</ele>
        <time>2025-05-19T07:21:39Z</time>
      </trkpt>
      <trkpt lat="43.791643967851996" lon="7.599213039502502">
        <ele>58.780000000000001</ele>
        <time>2025-05-19T07:21:45Z</time>
      </trkpt>
      <trkpt lat="43.791639022529125" lon="7.599357962608337">
        <ele>58.299999999999997</ele>
        <time>2025-05-19T07:21:46Z</time>
      </trkpt>
      <trkpt lat="43.791615972295403" lon="7.599504981189966">
        <ele>57.82</ele>
        <time>2025-05-19T07:21:47Z</time>
      </trkpt>
      <trkpt lat="43.791576996445656" lon="7.599639007821679">
        <ele>56.859999999999999</ele>
        <time>2025-05-19T07:21:48Z</time>
      </trkpt>
      <trkpt lat="43.791528968140483" lon="7.599773034453392">
        <ele>56.369999999999997</ele>
        <time>2025-05-19T07:21:49Z</time>
      </trkpt>
      <trkpt lat="43.791473982855678" lon="7.599903959780932">
        <ele>55.890000000000001</ele>
        <time>2025-05-19T07:21:50Z</time>
      </trkpt>
      <trkpt lat="43.790708966553211" lon="7.601597020402551">
        <ele>47.719999999999999</ele>
        <time>2025-05-19T07:22:03Z</time>
      </trkpt>
      <trkpt lat="43.790027014911175" lon="7.602523975074291">
        <ele>45.32</ele>
        <time>2025-05-19T07:22:12Z</time>
      </trkpt>
      <trkpt lat="43.789963982999325" lon="7.602654984220862">
        <ele>44.840000000000003</ele>
        <time>2025-05-19T07:22:13Z</time>
      </trkpt>
      <trkpt lat="43.789928024634719" lon="7.602805020287633">
        <ele>44.359999999999999</ele>
        <time>2025-05-19T07:22:14Z</time>
      </trkpt>
      <trkpt lat="43.789890976622701" lon="7.602961007505655">
        <ele>43.880000000000003</ele>
        <time>2025-05-19T07:22:15Z</time>
      </trkpt>
      <trkpt lat="43.789859963580966" lon="7.6031210180372">
        <ele>43.399999999999999</ele>
        <time>2025-05-19T07:22:16Z</time>
      </trkpt>
      <trkpt lat="43.789700036868453" lon="7.604048978537321">
        <ele>37.630000000000003</ele>
        <time>2025-05-19T07:22:22Z</time>
      </trkpt>
      <trkpt lat="43.789688972756267" lon="7.604176970198751">
        <ele>37.149999999999999</ele>
        <time>2025-05-19T07:22:23Z</time>
      </trkpt>
      <trkpt lat="43.789720991626382" lon="7.604289958253503">
        <ele>36.189999999999998</ele>
        <time>2025-05-19T07:22:24Z</time>
      </trkpt>
      <trkpt lat="43.789753010496497" lon="7.604404035955668">
        <ele>35.710000000000001</ele>
        <time>2025-05-19T07:22:25Z</time>
      </trkpt>
      <trkpt lat="43.789810007438064" lon="7.604483999311924">
        <ele>34.740000000000002</ele>
        <time>2025-05-19T07:22:26Z</time>
      </trkpt>
      <trkpt lat="43.789873961359262" lon="7.604534961283207">
        <ele>34.259999999999998</ele>
        <time>2025-05-19T07:22:27Z</time>
      </trkpt>
      <trkpt lat="43.789964988827705" lon="7.604534961283207">
        <ele>33.299999999999997</ele>
        <time>2025-05-19T07:22:28Z</time>
      </trkpt>
      <trkpt lat="43.790056016296148" lon="7.604534961283207">
        <ele>32.82</ele>
        <time>2025-05-19T07:22:29Z</time>
      </trkpt>
      <trkpt lat="43.790127011016011" lon="7.604509983211756">
        <ele>31.859999999999999</ele>
        <time>2025-05-19T07:22:30Z</time>
      </trkpt>
      <trkpt lat="43.79021099768579" lon="7.60445399209857">
        <ele>30.899999999999999</ele>
        <time>2025-05-19T07:22:31Z</time>
      </trkpt>
      <trkpt lat="43.790303030982614" lon="7.604393977671862">
        <ele>30.420000000000002</ele>
        <time>2025-05-19T07:22:32Z</time>
      </trkpt>
      <trkpt lat="43.790770992636681" lon="7.604062976315618">
        <ele>27.530000000000001</ele>
        <time>2025-05-19T07:22:37Z</time>
      </trkpt>
      <trkpt lat="43.790939971804619" lon="7.603924004361033">
        <ele>26.57</ele>
        <time>2025-05-19T07:22:39Z</time>
      </trkpt>
      <trkpt lat="43.791612032800913" lon="7.603397034108639">
        <ele>21.77</ele>
        <time>2025-05-19T07:22:47Z</time>
      </trkpt>
      <trkpt lat="43.791654026135802" lon="7.603377001360059">
        <ele>21.289999999999999</ele>
        <time>2025-05-19T07:22:48Z</time>
      </trkpt>
      <trkpt lat="43.791718985885382" lon="7.603355040773749">
        <ele>20.32</ele>
        <time>2025-05-19T07:22:49Z</time>
      </trkpt>
      <trkpt lat="43.791796015575528" lon="7.603397034108639">
        <ele>19.84</ele>
        <time>2025-05-19T07:22:50Z</time>
      </trkpt>
      <trkpt lat="43.791796015575528" lon="7.603397034108639">
        <ele>18.399999999999999</ele>
        <time>2025-05-19T07:22:57Z</time>
      </trkpt>
      <trkpt lat="43.791804984211922" lon="7.603569030761719">
        <ele>17.440000000000001</ele>
        <time>2025-05-19T07:23:02Z</time>
      </trkpt>
      <trkpt lat="43.791815964505076" lon="7.603585962206125">
        <ele>16.960000000000001</ele>
        <time>2025-05-19T07:23:03Z</time>
      </trkpt>
      <trkpt lat="43.79186499863863" lon="7.603638013824821">
        <ele>16.48</ele>
        <time>2025-05-19T07:23:04Z</time>
      </trkpt>
      <trkpt lat="43.791917972266674" lon="7.603651005774736">
        <ele>16</ele>
        <time>2025-05-19T07:23:05Z</time>
      </trkpt>
      <trkpt lat="43.791933981701732" lon="7.603655029088259">
        <ele>16</ele>
        <time>2025-05-19T07:23:06Z</time>
      </trkpt>
      <trkpt lat="43.792028026655316" lon="7.603632984682918">
        <ele>15.52</ele>
        <time>2025-05-19T07:23:07Z</time>
      </trkpt>
      <trkpt lat="43.79207999445498" lon="7.603677995502949">
        <ele>15.52</ele>
        <time>2025-05-19T07:23:08Z</time>
      </trkpt>
      <trkpt lat="43.792133973911405" lon="7.603734992444515">
        <ele>15.52</ele>
        <time>2025-05-19T07:23:09Z</time>
      </trkpt>
      <trkpt lat="43.792168004438281" lon="7.603815961629152">
        <ele>15.039999999999999</ele>
        <time>2025-05-19T07:23:10Z</time>
      </trkpt>
      <trkpt lat="43.792203962802887" lon="7.603898020461202">
        <ele>14.56</ele>
        <time>2025-05-19T07:23:11Z</time>
      </trkpt>
      <trkpt lat="43.792687011882663" lon="7.604939974844456">
        <ele>13.119999999999999</ele>
        <time>2025-05-19T07:23:24Z</time>
      </trkpt>
      <trkpt lat="43.792712995782495" lon="7.604995965957642">
        <ele>12.630000000000001</ele>
        <time>2025-05-19T07:23:25Z</time>
      </trkpt>
      <trkpt lat="43.792735040187836" lon="7.605045000091195">
        <ele>12.15</ele>
        <time>2025-05-19T07:23:26Z</time>
      </trkpt>
      <trkpt lat="43.792664967477322" lon="7.605095962062478">
        <ele>12.15</ele>
        <time>2025-05-19T07:23:27Z</time>
      </trkpt>
      <trkpt lat="43.792620040476322" lon="7.605146002024412">
        <ele>11.67</ele>
        <time>2025-05-19T07:23:28Z</time>
      </trkpt>
      <trkpt lat="43.792566983029246" lon="7.605202998965979">
        <ele>11.67</ele>
        <time>2025-05-19T07:23:29Z</time>
      </trkpt>
      <trkpt lat="43.792511997744441" lon="7.605264019221067">
        <ele>11.19</ele>
        <time>2025-05-19T07:23:30Z</time>
      </trkpt>
      <trkpt lat="43.792455000802875" lon="7.605326967313886">
        <ele>10.710000000000001</ele>
        <time>2025-05-19T07:23:31Z</time>
      </trkpt>
      <trkpt lat="43.792197005823255" lon="7.605609018355608">
        <ele>9.75</ele>
        <time>2025-05-19T07:23:35Z</time>
      </trkpt>
      <trkpt lat="43.791489992290735" lon="7.606260040774941">
        <ele>8.789999999999999</ele>
        <time>2025-05-19T07:23:44Z</time>
      </trkpt>
      <trkpt lat="43.790779961273074" lon="7.606877032667399">
        <ele>8.789999999999999</ele>
        <time>2025-05-19T07:23:54Z</time>
      </trkpt>
      <trkpt lat="43.79023103043437" lon="7.607219014316797">
        <ele>7.35</ele>
        <time>2025-05-19T07:24:03Z</time>
      </trkpt>
      <trkpt lat="43.790184007957578" lon="7.607235023751855">
        <ele>7.35</ele>
        <time>2025-05-19T07:24:04Z</time>
      </trkpt>
      <trkpt lat="43.78971797414124" lon="7.607392016798258">
        <ele>5.91</ele>
        <time>2025-05-19T07:24:12Z</time>
      </trkpt>
      <trkpt lat="43.788880035281181" lon="7.607687981799245">
        <ele>5.42</ele>
        <time>2025-05-19T07:24:23Z</time>
      </trkpt>
      <trkpt lat="43.788392962887883" lon="7.607860984280706">
        <ele>4.46</ele>
        <time>2025-05-19T07:24:31Z</time>
      </trkpt>
      <trkpt lat="43.788371002301574" lon="7.607899038121104">
        <ele>4.46</ele>
        <time>2025-05-19T07:24:32Z</time>
      </trkpt>
      <trkpt lat="43.788345018401742" lon="7.607943965122104">
        <ele>4.94</ele>
        <time>2025-05-19T07:24:33Z</time>
      </trkpt>
      <trkpt lat="43.788306964561343" lon="7.608011020347476">
        <ele>4.94</ele>
        <time>2025-05-19T07:24:34Z</time>
      </trkpt>
      <trkpt lat="43.788302019238472" lon="7.608033986762166">
        <ele>4.94</ele>
        <time>2025-05-19T07:24:35Z</time>
      </trkpt>
      <trkpt lat="43.788286009803414" lon="7.60810699313879">
        <ele>4.94</ele>
        <time>2025-05-19T07:24:36Z</time>
      </trkpt>
      <trkpt lat="43.788188025355339" lon="7.608547965064645">
        <ele>4.46</ele>
        <time>2025-05-19T07:24:42Z</time>
      </trkpt>
      <trkpt lat="43.788172015920281" lon="7.608615020290017">
        <ele>4.46</ele>
        <time>2025-05-19T07:24:43Z</time>
      </trkpt>
      <trkpt lat="43.788158018141985" lon="7.608675034716725">
        <ele>3.98</ele>
        <time>2025-05-19T07:24:44Z</time>
      </trkpt>
      <trkpt lat="43.788143014535308" lon="7.608736976981163">
        <ele>3.5</ele>
        <time>2025-05-19T07:24:45Z</time>
      </trkpt>
      <trkpt lat="43.788123987615108" lon="7.60881400667131">
        <ele>3.5</ele>
        <time>2025-05-19T07:24:46Z</time>
      </trkpt>
      <trkpt lat="43.78810403868556" lon="7.60890000499785">
        <ele>3.5</ele>
        <time>2025-05-19T07:24:47Z</time>
      </trkpt>
      <trkpt lat="43.788059027865529" lon="7.609085999429226">
        <ele>3.5</ele>
        <time>2025-05-19T07:24:49Z</time>
      </trkpt>
      <trkpt lat="43.788036983460188" lon="7.609177026897669">
        <ele>3.02</ele>
        <time>2025-05-19T07:24:50Z</time>
      </trkpt>
      <trkpt lat="43.788015022873878" lon="7.60926797054708">
        <ele>3.02</ele>
        <time>2025-05-19T07:24:51Z</time>
      </trkpt>
      <trkpt lat="43.78795400261879" lon="7.60952303186059">
        <ele>5.42</ele>
        <time>2025-05-19T07:24:54Z</time>
      </trkpt>
      <trkpt lat="43.787932964041829" lon="7.609610036015511">
        <ele>5.91</ele>
        <time>2025-05-19T07:24:55Z</time>
      </trkpt>
      <trkpt lat="43.78791100345552" lon="7.609699973836541">
        <ele>6.87</ele>
        <time>2025-05-19T07:24:56Z</time>
      </trkpt>
      <trkpt lat="43.787889964878559" lon="7.609788989648223">
        <ele>7.83</ele>
        <time>2025-05-19T07:24:57Z</time>
      </trkpt>
      <trkpt lat="43.78786800429225" lon="7.609876999631524">
        <ele>8.789999999999999</ele>
        <time>2025-05-19T07:24:58Z</time>
      </trkpt>
      <trkpt lat="43.787821987643838" lon="7.610070034861565">
        <ele>10.23</ele>
        <time>2025-05-19T07:25:01Z</time>
      </trkpt>
      <trkpt lat="43.787807989865541" lon="7.610128037631512">
        <ele>11.19</ele>
        <time>2025-05-19T07:25:02Z</time>
      </trkpt>
      <trkpt lat="43.787748981267214" lon="7.610371029004455">
        <ele>12.15</ele>
        <time>2025-05-19T07:25:06Z</time>
      </trkpt>
      <trkpt lat="43.787735989317298" lon="7.610427020117641">
        <ele>12.15</ele>
        <time>2025-05-19T07:25:07Z</time>
      </trkpt>
      <trkpt lat="43.787690978497267" lon="7.610615026205778">
        <ele>12.630000000000001</ele>
        <time>2025-05-19T07:25:10Z</time>
      </trkpt>
      <trkpt lat="43.78767597489059" lon="7.610675040632486">
        <ele>12.630000000000001</ele>
        <time>2025-05-19T07:25:11Z</time>
      </trkpt>
      <trkpt lat="43.787662982940674" lon="7.610730025917292">
        <ele>13.119999999999999</ele>
        <time>2025-05-19T07:25:12Z</time>
      </trkpt>
      <trkpt lat="43.787649990990758" lon="7.610780987888575">
        <ele>13.119999999999999</ele>
        <time>2025-05-19T07:25:13Z</time>
      </trkpt>
      <trkpt lat="43.787639010697603" lon="7.610827004536986">
        <ele>13.119999999999999</ele>
        <time>2025-05-19T07:25:14Z</time>
      </trkpt>
      <trkpt lat="43.787627024576068" lon="7.61087603867054">
        <ele>13.119999999999999</ele>
        <time>2025-05-19T07:25:15Z</time>
      </trkpt>
      <trkpt lat="43.787612020969391" lon="7.610938986763358">
        <ele>13.6</ele>
        <time>2025-05-19T07:25:16Z</time>
      </trkpt>
      <trkpt lat="43.787471959367394" lon="7.611504010856152">
        <ele>13.119999999999999</ele>
        <time>2025-05-19T07:25:23Z</time>
      </trkpt>
      <trkpt lat="43.787448992952704" lon="7.611595038324595">
        <ele>13.119999999999999</ele>
        <time>2025-05-19T07:25:24Z</time>
      </trkpt>
      <trkpt lat="43.787425020709634" lon="7.611690005287528">
        <ele>13.119999999999999</ele>
        <time>2025-05-19T07:25:25Z</time>
      </trkpt>
      <trkpt lat="43.7873749807477" lon="7.611885974183679">
        <ele>13.6</ele>
        <time>2025-05-19T07:25:27Z</time>
      </trkpt>
      <trkpt lat="43.787212958559394" lon="7.612473964691162">
        <ele>14.08</ele>
        <time>2025-05-19T07:25:34Z</time>
      </trkpt>
      <trkpt lat="43.787201978266239" lon="7.612513024359942">
        <ele>14.56</ele>
        <time>2025-05-19T07:25:35Z</time>
      </trkpt>
      <trkpt lat="43.787182029336691" lon="7.612589970231056">
        <ele>14.56</ele>
        <time>2025-05-19T07:25:36Z</time>
      </trkpt>
      <trkpt lat="43.786951024085283" lon="7.61345598846674">
        <ele>16</ele>
        <time>2025-05-19T07:25:47Z</time>
      </trkpt>
      <trkpt lat="43.786844993010163" lon="7.613854967057705">
        <ele>16</ele>
        <time>2025-05-19T07:25:55Z</time>
      </trkpt>
      <trkpt lat="43.786739967763424" lon="7.614286970347166">
        <ele>15.52</ele>
        <time>2025-05-19T07:26:04Z</time>
      </trkpt>
      <trkpt lat="43.786726975813508" lon="7.614353019744158">
        <ele>15.039999999999999</ele>
        <time>2025-05-19T07:26:10Z</time>
      </trkpt>
      <trkpt lat="43.786722030490637" lon="7.614381015300751">
        <ele>15.039999999999999</ele>
        <time>2025-05-19T07:26:11Z</time>
      </trkpt>
      <trkpt lat="43.786717001348734" lon="7.614405993372202">
        <ele>14.56</ele>
        <time>2025-05-19T07:26:12Z</time>
      </trkpt>
      <trkpt lat="43.786717001348734" lon="7.614405993372202">
        <ele>14.56</ele>
        <time>2025-05-19T07:26:13Z</time>
      </trkpt>
      <trkpt lat="43.786689005792141" lon="7.61440297588706">
        <ele>12.15</ele>
        <time>2025-05-19T08:04:49Z</time>
      </trkpt>
      <trkpt lat="43.78666402772069" lon="7.614440023899078">
        <ele>18.399999999999999</ele>
        <time>2025-05-19T08:05:31Z</time>
      </trkpt>
      <trkpt lat="43.786662016063929" lon="7.614404987543821">
        <ele>14.56</ele>
        <time>2025-05-19T08:06:23Z</time>
      </trkpt>
      <trkpt lat="43.786655981093645" lon="7.614414962008596">
        <ele>15.52</ele>
        <time>2025-05-19T08:06:53Z</time>
      </trkpt>
      <trkpt lat="43.78670702688396" lon="7.614459972828627">
        <ele>15.52</ele>
        <time>2025-05-19T08:06:55Z</time>
      </trkpt>
      <trkpt lat="43.786697974428535" lon="7.6145080011338">
        <ele>15.52</ele>
        <time>2025-05-19T08:06:56Z</time>
      </trkpt>
      <trkpt lat="43.786684982478619" lon="7.614575978368521">
        <ele>15.52</ele>
        <time>2025-05-19T08:06:57Z</time>
      </trkpt>
      <trkpt lat="43.786640977486968" lon="7.614805977791548">
        <ele>15.039999999999999</ele>
        <time>2025-05-19T08:07:00Z</time>
      </trkpt>
      <trkpt lat="43.78662496805191" lon="7.614890970289707">
        <ele>15.039999999999999</ele>
        <time>2025-05-19T08:07:01Z</time>
      </trkpt>
      <trkpt lat="43.786608958616853" lon="7.614975962787867">
        <ele>14.56</ele>
        <time>2025-05-19T08:07:02Z</time>
      </trkpt>
      <trkpt lat="43.786485996097326" lon="7.615624973550439">
        <ele>14.08</ele>
        <time>2025-05-19T08:07:10Z</time>
      </trkpt>
      <trkpt lat="43.786439979448915" lon="7.615864025428891">
        <ele>13.6</ele>
        <time>2025-05-19T08:07:14Z</time>
      </trkpt>
      <trkpt lat="43.786401003599167" lon="7.616006014868617">
        <ele>13.6</ele>
        <time>2025-05-19T08:07:15Z</time>
      </trkpt>
      <trkpt lat="43.786416007205844" lon="7.616068962961435">
        <ele>13.119999999999999</ele>
        <time>2025-05-19T08:07:16Z</time>
      </trkpt>
      <trkpt lat="43.786482978612185" lon="7.616036022081971">
        <ele>13.119999999999999</ele>
        <time>2025-05-19T08:07:17Z</time>
      </trkpt>
      <trkpt lat="43.786499993875623" lon="7.616040967404842">
        <ele>12.630000000000001</ele>
        <time>2025-05-19T08:07:18Z</time>
      </trkpt>
      <trkpt lat="43.786482978612185" lon="7.616036022081971">
        <ele>12.630000000000001</ele>
        <time>2025-05-19T08:07:19Z</time>
      </trkpt>
      <trkpt lat="43.786585992202163" lon="7.616064017638564">
        <ele>12.15</ele>
        <time>2025-05-19T08:07:20Z</time>
      </trkpt>
      <trkpt lat="43.786636032164097" lon="7.616078015416861">
        <ele>12.15</ele>
        <time>2025-05-19T08:07:21Z</time>
      </trkpt>
      <trkpt lat="43.786696968600154" lon="7.616095030680299">
        <ele>11.67</ele>
        <time>2025-05-19T08:07:22Z</time>
      </trkpt>
      <trkpt lat="43.78681699745357" lon="7.616128977388144">
        <ele>11.19</ele>
        <time>2025-05-19T08:07:24Z</time>
      </trkpt>
      <trkpt lat="43.78688002936542" lon="7.616145992651582">
        <ele>11.19</ele>
        <time>2025-05-19T08:07:25Z</time>
      </trkpt>
      <trkpt lat="43.786942977458239" lon="7.616164013743401">
        <ele>11.19</ele>
        <time>2025-05-19T08:07:26Z</time>
      </trkpt>
      <trkpt lat="43.787070969119668" lon="7.616198966279626">
        <ele>11.19</ele>
        <time>2025-05-19T08:07:28Z</time>
      </trkpt>
      <trkpt lat="43.787131989374757" lon="7.616215981543064">
        <ele>11.19</ele>
        <time>2025-05-19T08:07:29Z</time>
      </trkpt>
      <trkpt lat="43.787195021286607" lon="7.616234002634883">
        <ele>11.19</ele>
        <time>2025-05-19T08:07:30Z</time>
      </trkpt>
      <trkpt lat="43.787386966869235" lon="7.616265015676618">
        <ele>10.710000000000001</ele>
        <time>2025-05-19T08:07:33Z</time>
      </trkpt>
      <trkpt lat="43.787714028730989" lon="7.6163350045681">
        <ele>11.19</ele>
        <time>2025-05-19T08:07:39Z</time>
      </trkpt>
      <trkpt lat="43.787714028730989" lon="7.6163350045681">
        <ele>11.19</ele>
        <time>2025-05-19T08:07:40Z</time>
      </trkpt>
      <trkpt lat="43.787860041484237" lon="7.616370040923357">
        <ele>10.23</ele>
        <time>2025-05-19T08:07:48Z</time>
      </trkpt>
      <trkpt lat="43.788329008966684" lon="7.616439023986459">
        <ele>9.27</ele>
        <time>2025-05-19T08:07:55Z</time>
      </trkpt>
      <trkpt lat="43.788729999214411" lon="7.616510018706322">
        <ele>9.27</ele>
        <time>2025-05-19T08:08:01Z</time>
      </trkpt>
      <trkpt lat="43.788782972842455" lon="7.616519993171096">
        <ele>9.75</ele>
        <time>2025-05-19T08:08:02Z</time>
      </trkpt>
      <trkpt lat="43.789123026654124" lon="7.616571960970759">
        <ele>9.75</ele>
        <time>2025-05-19T08:08:11Z</time>
      </trkpt>
      <trkpt lat="43.789123026654124" lon="7.616571960970759">
        <ele>10.23</ele>
        <time>2025-05-19T08:08:13Z</time>
      </trkpt>
      <trkpt lat="43.789123026654124" lon="7.616571960970759">
        <ele>10.23</ele>
        <time>2025-05-19T08:08:14Z</time>
      </trkpt>
      <trkpt lat="43.7890500202775" lon="7.616567015647888">
        <ele>10.23</ele>
        <time>2025-05-19T08:08:15Z</time>
      </trkpt>
      <trkpt lat="43.789008026942611" lon="7.616559974849224">
        <ele>9.75</ele>
        <time>2025-05-19T08:08:16Z</time>
      </trkpt>
      <trkpt lat="43.788953041657805" lon="7.61655000038445">
        <ele>9.27</ele>
        <time>2025-05-19T08:08:17Z</time>
      </trkpt>
      <trkpt lat="43.788893027231097" lon="7.616539020091295">
        <ele>8.789999999999999</ele>
        <time>2025-05-19T08:08:18Z</time>
      </trkpt>
      <trkpt lat="43.788363039493561" lon="7.616444975137711">
        <ele>7.35</ele>
        <time>2025-05-19T08:08:27Z</time>
      </trkpt>
      <trkpt lat="43.788363039493561" lon="7.616444975137711">
        <ele>7.35</ele>
        <time>2025-05-19T08:08:47Z</time>
      </trkpt>
      <trkpt lat="43.788156006485224" lon="7.616408010944724">
        <ele>7.35</ele>
        <time>2025-05-19T08:08:56Z</time>
      </trkpt>
      <trkpt lat="43.78810596652329" lon="7.616399964317679">
        <ele>9.75</ele>
        <time>2025-05-19T08:08:57Z</time>
      </trkpt>
      <trkpt lat="43.788114013150334" lon="7.61640097014606">
        <ele>10.710000000000001</ele>
        <time>2025-05-19T08:08:58Z</time>
      </trkpt>
      <trkpt lat="43.788099009543657" lon="7.616444975137711">
        <ele>11.67</ele>
        <time>2025-05-19T08:08:59Z</time>
      </trkpt>
      <trkpt lat="43.788077970966697" lon="7.616508007049561">
        <ele>12.15</ele>
        <time>2025-05-19T08:09:00Z</time>
      </trkpt>
      <trkpt lat="43.788092974573374" lon="7.616569027304649">
        <ele>12.15</ele>
        <time>2025-05-19T08:09:01Z</time>
      </trkpt>
      <trkpt lat="43.788131028413773" lon="7.616639016196132">
        <ele>12.630000000000001</ele>
        <time>2025-05-19T08:09:02Z</time>
      </trkpt>
      <trkpt lat="43.788167992606759" lon="7.616706993430853">
        <ele>12.630000000000001</ele>
        <time>2025-05-19T08:09:03Z</time>
      </trkpt>
      <trkpt lat="43.788196993991733" lon="7.616817969828844">
        <ele>12.630000000000001</ele>
        <time>2025-05-19T08:09:04Z</time>
      </trkpt>
      <trkpt lat="43.78819297067821" lon="7.616916038095951">
        <ele>12.630000000000001</ele>
        <time>2025-05-19T08:09:05Z</time>
      </trkpt>
      <trkpt lat="43.788188025355339" lon="7.617018967866898">
        <ele>12.630000000000001</ele>
        <time>2025-05-19T08:09:06Z</time>
      </trkpt>
      <trkpt lat="43.788182996213436" lon="7.617119969800115">
        <ele>12.630000000000001</ele>
        <time>2025-05-19T08:09:07Z</time>
      </trkpt>
      <trkpt lat="43.788173021748662" lon="7.617314010858536">
        <ele>12.15</ele>
        <time>2025-05-19T08:09:09Z</time>
      </trkpt>
      <trkpt lat="43.788142008706927" lon="7.617974001914263">
        <ele>11.19</ele>
        <time>2025-05-19T08:09:16Z</time>
      </trkpt>
      <trkpt lat="43.78814603202045" lon="7.61809897609055">
        <ele>11.19</ele>
        <time>2025-05-19T08:09:17Z</time>
      </trkpt>
      <trkpt lat="43.788188025355339" lon="7.618111968040466">
        <ele>10.710000000000001</ele>
        <time>2025-05-19T08:09:18Z</time>
      </trkpt>
      <trkpt lat="43.788231024518609" lon="7.618125965818763">
        <ele>10.23</ele>
        <time>2025-05-19T08:09:19Z</time>
      </trkpt>
      <trkpt lat="43.788274023681879" lon="7.61813904158771">
        <ele>10.23</ele>
        <time>2025-05-19T08:09:20Z</time>
      </trkpt>
      <trkpt lat="43.78831802867353" lon="7.618153039366007">
        <ele>9.75</ele>
        <time>2025-05-19T08:09:21Z</time>
      </trkpt>
      <trkpt lat="43.7883610278368" lon="7.618166031315923">
        <ele>9.75</ele>
        <time>2025-05-19T08:09:22Z</time>
      </trkpt>
      <trkpt lat="43.788446020334959" lon="7.618193021044135">
        <ele>8.789999999999999</ele>
        <time>2025-05-19T08:09:24Z</time>
      </trkpt>
      <trkpt lat="43.788478961214423" lon="7.618202995508909">
        <ele>8.789999999999999</ele>
        <time>2025-05-19T08:09:25Z</time>
      </trkpt>
      <trkpt lat="43.788661016151309" lon="7.61826996691525">
        <ele>7.35</ele>
        <time>2025-05-19T08:09:29Z</time>
      </trkpt>
      <trkpt lat="43.788777021691203" lon="7.61831296607852">
        <ele>6.87</ele>
        <time>2025-05-19T08:09:31Z</time>
      </trkpt>
      <trkpt lat="43.789078015834093" lon="7.618422014638782">
        <ele>6.87</ele>
        <time>2025-05-19T08:09:39Z</time>
      </trkpt>
      <trkpt lat="43.789160996675491" lon="7.618610020726919">
        <ele>7.35</ele>
        <time>2025-05-19T08:09:44Z</time>
      </trkpt>
      <trkpt lat="43.789149010553956" lon="7.618673974648118">
        <ele>6.87</ele>
        <time>2025-05-19T08:09:45Z</time>
      </trkpt>
      <trkpt lat="43.78913501277566" lon="7.618753015995026">
        <ele>6.87</ele>
        <time>2025-05-19T08:09:46Z</time>
      </trkpt>
      <trkpt lat="43.789004003629088" lon="7.619500011205673">
        <ele>6.39</ele>
        <time>2025-05-19T08:09:55Z</time>
      </trkpt>
      <trkpt lat="43.788898978382349" lon="7.620094958692789">
        <ele>6.39</ele>
        <time>2025-05-19T08:10:02Z</time>
      </trkpt>
      <trkpt lat="43.788817003369331" lon="7.620559986680746">
        <ele>7.83</ele>
        <time>2025-05-19T08:10:07Z</time>
      </trkpt>
      <trkpt lat="43.788782972842455" lon="7.620916971936822">
        <ele>9.27</ele>
        <time>2025-05-19T08:10:11Z</time>
      </trkpt>
      <trkpt lat="43.788778027519584" lon="7.620998024940491">
        <ele>9.75</ele>
        <time>2025-05-19T08:10:12Z</time>
      </trkpt>
      <trkpt lat="43.788794036954641" lon="7.622068980708718">
        <ele>12.15</ele>
        <time>2025-05-19T08:10:23Z</time>
      </trkpt>
      <trkpt lat="43.788930997252464" lon="7.623421987518668">
        <ele>14.56</ele>
        <time>2025-05-19T08:10:34Z</time>
      </trkpt>
      <trkpt lat="43.788942983374" lon="7.623541010543704">
        <ele>14.56</ele>
        <time>2025-05-19T08:10:35Z</time>
      </trkpt>
      <trkpt lat="43.789053959771991" lon="7.624683966860175">
        <ele>16</ele>
        <time>2025-05-19T08:10:43Z</time>
      </trkpt>
      <trkpt lat="43.789245989173651" lon="7.626393036916852">
        <ele>21.77</ele>
        <time>2025-05-19T08:10:54Z</time>
      </trkpt>
      <trkpt lat="43.789315978065133" lon="7.626815987750888">
        <ele>24.170000000000002</ele>
        <time>2025-05-19T08:10:57Z</time>
      </trkpt>
      <trkpt lat="43.789395019412041" lon="7.626925958320499">
        <ele>24.170000000000002</ele>
        <time>2025-05-19T08:10:58Z</time>
      </trkpt>
      <trkpt lat="43.789476994425058" lon="7.627039030194283">
        <ele>24.170000000000002</ele>
        <time>2025-05-19T08:10:59Z</time>
      </trkpt>
      <trkpt lat="43.789749993011355" lon="7.627419987693429">
        <ele>24.649999999999999</ele>
        <time>2025-05-19T08:11:03Z</time>
      </trkpt>
      <trkpt lat="43.789798021316528" lon="7.627515038475394">
        <ele>24.170000000000002</ele>
        <time>2025-05-19T08:11:04Z</time>
      </trkpt>
      <trkpt lat="43.789832973852754" lon="7.627622997388244">
        <ele>24.170000000000002</ele>
        <time>2025-05-19T08:11:05Z</time>
      </trkpt>
      <trkpt lat="43.789840014651418" lon="7.627747971564531">
        <ele>23.690000000000001</ele>
        <time>2025-05-19T08:11:06Z</time>
      </trkpt>
      <trkpt lat="43.78984596580267" lon="7.627873029559851">
        <ele>23.210000000000001</ele>
        <time>2025-05-19T08:11:07Z</time>
      </trkpt>
      <trkpt lat="43.789847977459431" lon="7.627996997907758">
        <ele>22.73</ele>
        <time>2025-05-19T08:11:08Z</time>
      </trkpt>
      <trkpt lat="43.789799027144909" lon="7.628093976527453">
        <ele>21.77</ele>
        <time>2025-05-19T08:11:09Z</time>
      </trkpt>
      <trkpt lat="43.789749993011355" lon="7.628191960975528">
        <ele>21.289999999999999</ele>
        <time>2025-05-19T08:11:10Z</time>
      </trkpt>
      <trkpt lat="43.789701964706182" lon="7.628288017585874">
        <ele>20.809999999999999</ele>
        <time>2025-05-19T08:11:11Z</time>
      </trkpt>
      <trkpt lat="43.789654020220041" lon="7.628372004255652">
        <ele>19.84</ele>
        <time>2025-05-19T08:11:12Z</time>
      </trkpt>
      <trkpt lat="43.78960900940001" lon="7.628459008410573">
        <ele>18.879999999999999</ele>
        <time>2025-05-19T08:11:13Z</time>
      </trkpt>
      <trkpt lat="43.789574978873134" lon="7.628552969545126">
        <ele>18.399999999999999</ele>
        <time>2025-05-19T08:11:14Z</time>
      </trkpt>
      <trkpt lat="43.78954203799367" lon="7.628641985356808">
        <ele>17.920000000000002</ele>
        <time>2025-05-19T08:11:15Z</time>
      </trkpt>
      <trkpt lat="43.789529968053102" lon="7.628735024482012">
        <ele>16.960000000000001</ele>
        <time>2025-05-19T08:11:16Z</time>
      </trkpt>
      <trkpt lat="43.789529968053102" lon="7.628829991444945">
        <ele>16</ele>
        <time>2025-05-19T08:11:17Z</time>
      </trkpt>
      <trkpt lat="43.789529968053102" lon="7.628889000043273">
        <ele>15.52</ele>
        <time>2025-05-19T08:11:18Z</time>
      </trkpt>
      <trkpt lat="43.789494009688497" lon="7.629034006968141">
        <ele>15.039999999999999</ele>
        <time>2025-05-19T08:11:19Z</time>
      </trkpt>
      <trkpt lat="43.789528962224722" lon="7.629081029444933">
        <ele>14.08</ele>
        <time>2025-05-19T08:11:20Z</time>
      </trkpt>
      <trkpt lat="43.789615966379642" lon="7.628996036946774">
        <ele>13.6</ele>
        <time>2025-05-19T08:11:21Z</time>
      </trkpt>
      <trkpt lat="43.789653014391661" lon="7.629003999754787">
        <ele>13.119999999999999</ele>
        <time>2025-05-19T08:11:22Z</time>
      </trkpt>
      <trkpt lat="43.789713028818369" lon="7.629015985876322">
        <ele>12.630000000000001</ele>
        <time>2025-05-19T08:11:23Z</time>
      </trkpt>
      <trkpt lat="43.789921989664435" lon="7.62905596755445">
        <ele>9.75</ele>
        <time>2025-05-19T08:11:30Z</time>
      </trkpt>
      <trkpt lat="43.790025003254414" lon="7.629073988646269">
        <ele>8.789999999999999</ele>
        <time>2025-05-19T08:11:43Z</time>
      </trkpt>
      <trkpt lat="43.790723970159888" lon="7.629169961437583">
        <ele>4.94</ele>
        <time>2025-05-19T08:11:51Z</time>
      </trkpt>
      <trkpt lat="43.791694007813931" lon="7.629330977797508">
        <ele>3.02</ele>
        <time>2025-05-19T08:12:01Z</time>
      </trkpt>
      <trkpt lat="43.792632026597857" lon="7.629543039947748">
        <ele>4.46</ele>
        <time>2025-05-19T08:12:11Z</time>
      </trkpt>
      <trkpt lat="43.792852973565459" lon="7.629542034119368">
        <ele>4.46</ele>
        <time>2025-05-19T08:12:13Z</time>
      </trkpt>
      <trkpt lat="43.794070025905967" lon="7.629371965304017">
        <ele>7.35</ele>
        <time>2025-05-19T08:12:24Z</time>
      </trkpt>
      <trkpt lat="43.794966973364353" lon="7.62905303388834">
        <ele>9.27</ele>
        <time>2025-05-19T08:12:32Z</time>
      </trkpt>
      <trkpt lat="43.795900968834758" lon="7.62849303893745">
        <ele>8.789999999999999</ele>
        <time>2025-05-19T08:12:40Z</time>
      </trkpt>
      <trkpt lat="43.796789031475782" lon="7.627682005986571">
        <ele>6.39</ele>
        <time>2025-05-19T08:12:49Z</time>
      </trkpt>
      <trkpt lat="43.797264033928514" lon="7.62720599770546">
        <ele>7.35</ele>
        <time>2025-05-19T08:12:56Z</time>
      </trkpt>
      <trkpt lat="43.797883037477732" lon="7.626677015796304">
        <ele>9.27</ele>
        <time>2025-05-19T08:13:04Z</time>
      </trkpt>
      <trkpt lat="43.798949969932437" lon="7.626120960339904">
        <ele>9.75</ele>
        <time>2025-05-19T08:13:13Z</time>
      </trkpt>
      <trkpt lat="43.800447983667254" lon="7.62561502866447">
        <ele>12.15</ele>
        <time>2025-05-19T08:13:26Z</time>
      </trkpt>
      <trkpt lat="43.801419027149677" lon="7.625306993722916">
        <ele>11.67</ele>
        <time>2025-05-19T08:13:34Z</time>
      </trkpt>
      <trkpt lat="43.801842983812094" lon="7.625168021768332">
        <ele>12.15</ele>
        <time>2025-05-19T08:13:38Z</time>
      </trkpt>
      <trkpt lat="43.803091971203685" lon="7.624768959358335">
        <ele>14.56</ele>
        <time>2025-05-19T08:13:49Z</time>
      </trkpt>
      <trkpt lat="43.804073994979262" lon="7.624598974362016">
        <ele>14.56</ele>
        <time>2025-05-19T08:13:57Z</time>
      </trkpt>
      <trkpt lat="43.804205004125834" lon="7.624608026817441">
        <ele>14.08</ele>
        <time>2025-05-19T08:13:58Z</time>
      </trkpt>
      <trkpt lat="43.804357973858714" lon="7.624619007110596">
        <ele>14.08</ele>
        <time>2025-05-19T08:13:59Z</time>
      </trkpt>
      <trkpt lat="43.804459981620312" lon="7.624644991010428">
        <ele>13.6</ele>
        <time>2025-05-19T08:14:00Z</time>
      </trkpt>
      <trkpt lat="43.804571963846684" lon="7.62467198073864">
        <ele>13.6</ele>
        <time>2025-05-19T08:14:01Z</time>
      </trkpt>
      <trkpt lat="43.804673971608281" lon="7.624706011265516">
        <ele>13.6</ele>
        <time>2025-05-19T08:14:02Z</time>
      </trkpt>
      <trkpt lat="43.804772039875388" lon="7.624741969630122">
        <ele>13.6</ele>
        <time>2025-05-19T08:14:03Z</time>
      </trkpt>
      <trkpt lat="43.804843034595251" lon="7.624820005148649">
        <ele>14.08</ele>
        <time>2025-05-19T08:14:04Z</time>
      </trkpt>
      <trkpt lat="43.804909000173211" lon="7.624904997646809">
        <ele>14.56</ele>
        <time>2025-05-19T08:14:05Z</time>
      </trkpt>
      <trkpt lat="43.804974965751171" lon="7.624985966831446">
        <ele>15.039999999999999</ele>
        <time>2025-05-19T08:14:06Z</time>
      </trkpt>
      <trkpt lat="43.805130030959845" lon="7.625004993751645">
        <ele>15.52</ele>
        <time>2025-05-19T08:14:07Z</time>
      </trkpt>
      <trkpt lat="43.805147968232632" lon="7.624996025115252">
        <ele>16</ele>
        <time>2025-05-19T08:14:08Z</time>
      </trkpt>
      <trkpt lat="43.805218040943146" lon="7.624957971274853">
        <ele>16.48</ele>
        <time>2025-05-19T08:14:09Z</time>
      </trkpt>
      <trkpt lat="43.805300015956163" lon="7.624914972111583">
        <ele>16.960000000000001</ele>
        <time>2025-05-19T08:14:10Z</time>
      </trkpt>
      <trkpt lat="43.805391965433955" lon="7.624866021797061">
        <ele>16.960000000000001</ele>
        <time>2025-05-19T08:14:11Z</time>
      </trkpt>
      <trkpt lat="43.805493973195553" lon="7.624837020412087">
        <ele>16.960000000000001</ele>
        <time>2025-05-19T08:14:12Z</time>
      </trkpt>
      <trkpt lat="43.805604027584195" lon="7.624846994876862">
        <ele>16.960000000000001</ele>
        <time>2025-05-19T08:14:13Z</time>
      </trkpt>
      <trkpt lat="43.805717015638947" lon="7.624856969341636">
        <ele>16.960000000000001</ele>
        <time>2025-05-19T08:14:14Z</time>
      </trkpt>
      <trkpt lat="43.806765004992485" lon="7.62495101429522">
        <ele>16.960000000000001</ele>
        <time>2025-05-19T08:14:23Z</time>
      </trkpt>
      <trkpt lat="43.807126013562083" lon="7.624984038993716">
        <ele>16.960000000000001</ele>
        <time>2025-05-19T08:14:26Z</time>
      </trkpt>
      <trkpt lat="43.807233972474933" lon="7.624996025115252">
        <ele>16.960000000000001</ele>
        <time>2025-05-19T08:14:27Z</time>
      </trkpt>
      <trkpt lat="43.807703023776412" lon="7.625137008726597">
        <ele>16.48</ele>
        <time>2025-05-19T08:14:31Z</time>
      </trkpt>
      <trkpt lat="43.808750007301569" lon="7.62576799839735">
        <ele>16</ele>
        <time>2025-05-19T08:14:41Z</time>
      </trkpt>
      <trkpt lat="43.80941703915596" lon="7.626406028866768">
        <ele>18.399999999999999</ele>
        <time>2025-05-19T08:14:50Z</time>
      </trkpt>
      <trkpt lat="43.810329996049404" lon="7.627284033223987">
        <ele>19.84</ele>
        <time>2025-05-19T08:15:00Z</time>
      </trkpt>
      <trkpt lat="43.810936007648706" lon="7.627803962677717">
        <ele>18.399999999999999</ele>
        <time>2025-05-19T08:15:07Z</time>
      </trkpt>
      <trkpt lat="43.811177993193269" lon="7.627934971824288">
        <ele>17.920000000000002</ele>
        <time>2025-05-19T08:15:10Z</time>
      </trkpt>
      <trkpt lat="43.811260974034667" lon="7.627977970987558">
        <ele>17.440000000000001</ele>
        <time>2025-05-19T08:15:11Z</time>
      </trkpt>
      <trkpt lat="43.811555011197925" lon="7.628131024539471">
        <ele>16.960000000000001</ele>
        <time>2025-05-19T08:15:15Z</time>
      </trkpt>
      <trkpt lat="43.811626005917788" lon="7.628166982904077">
        <ele>16.960000000000001</ele>
        <time>2025-05-19T08:15:16Z</time>
      </trkpt>
      <trkpt lat="43.812501998618245" lon="7.628571996465325">
        <ele>16.48</ele>
        <time>2025-05-19T08:15:27Z</time>
      </trkpt>
      <trkpt lat="43.8132019713521" lon="7.628877013921738">
        <ele>16.48</ele>
        <time>2025-05-19T08:15:34Z</time>
      </trkpt>
      <trkpt lat="43.813273971900344" lon="7.628885982558131">
        <ele>16.48</ele>
        <time>2025-05-19T08:15:35Z</time>
      </trkpt>
      <trkpt lat="43.813331974670291" lon="7.628894029185176">
        <ele>16.48</ele>
        <time>2025-05-19T08:15:36Z</time>
      </trkpt>
      <trkpt lat="43.813377991318703" lon="7.628899980336428">
        <ele>16.960000000000001</ele>
        <time>2025-05-19T08:15:37Z</time>
      </trkpt>
      <trkpt lat="43.813407998532057" lon="7.62890400364995">
        <ele>16.960000000000001</ele>
        <time>2025-05-19T08:15:38Z</time>
      </trkpt>
      <trkpt lat="43.81345602683723" lon="7.628910960629582">
        <ele>17.440000000000001</ele>
        <time>2025-05-19T08:15:48Z</time>
      </trkpt>
      <trkpt lat="43.81350003182888" lon="7.628901991993189">
        <ele>17.920000000000002</ele>
        <time>2025-05-19T08:15:50Z</time>
      </trkpt>
      <trkpt lat="43.813970005139709" lon="7.628764025866985">
        <ele>19.84</ele>
        <time>2025-05-19T08:15:56Z</time>
      </trkpt>
      <trkpt lat="43.814119035378098" lon="7.628651037812233">
        <ele>20.809999999999999</ele>
        <time>2025-05-19T08:15:58Z</time>
      </trkpt>
      <trkpt lat="43.814174020662904" lon="7.628564033657312">
        <ele>21.289999999999999</ele>
        <time>2025-05-19T08:15:59Z</time>
      </trkpt>
      <trkpt lat="43.81442204117775" lon="7.628222974017263">
        <ele>24.170000000000002</ele>
        <time>2025-05-19T08:16:04Z</time>
      </trkpt>
      <trkpt lat="43.814477026462555" lon="7.628168994560838">
        <ele>24.649999999999999</ele>
        <time>2025-05-19T08:16:05Z</time>
      </trkpt>
      <trkpt lat="43.814658997580409" lon="7.627986017614603">
        <ele>26.09</ele>
        <time>2025-05-19T08:16:08Z</time>
      </trkpt>
      <trkpt lat="43.814730998128653" lon="7.62791401706636">
        <ele>27.050000000000001</ele>
        <time>2025-05-19T08:16:09Z</time>
      </trkpt>
      <trkpt lat="43.815165013074875" lon="7.627515960484743">
        <ele>29.460000000000001</ele>
        <time>2025-05-19T08:16:14Z</time>
      </trkpt>
      <trkpt lat="43.815237013623118" lon="7.627452006563544">
        <ele>30.899999999999999</ele>
        <time>2025-05-19T08:16:15Z</time>
      </trkpt>
      <trkpt lat="43.815416973084211" lon="7.627366008237004">
        <ele>33.299999999999997</ele>
        <time>2025-05-19T08:16:17Z</time>
      </trkpt>
      <trkpt lat="43.815510012209415" lon="7.627366008237004">
        <ele>34.740000000000002</ele>
        <time>2025-05-19T08:16:18Z</time>
      </trkpt>
      <trkpt lat="43.815603973343968" lon="7.627366008237004">
        <ele>36.189999999999998</ele>
        <time>2025-05-19T08:16:19Z</time>
      </trkpt>
      <trkpt lat="43.815852999687195" lon="7.627394003793597">
        <ele>38.590000000000003</ele>
        <time>2025-05-19T08:16:22Z</time>
      </trkpt>
      <trkpt lat="43.815902033820748" lon="7.627409007400274">
        <ele>39.07</ele>
        <time>2025-05-19T08:16:23Z</time>
      </trkpt>
      <trkpt lat="43.815957019105554" lon="7.627472039312124">
        <ele>39.549999999999997</ele>
        <time>2025-05-19T08:16:24Z</time>
      </trkpt>
      <trkpt lat="43.816063972190022" lon="7.627596007660031">
        <ele>40.509999999999998</ele>
        <time>2025-05-19T08:16:26Z</time>
      </trkpt>
      <trkpt lat="43.816119041293859" lon="7.627659039571881">
        <ele>40.990000000000002</ele>
        <time>2025-05-19T08:16:27Z</time>
      </trkpt>
      <trkpt lat="43.816170003265142" lon="7.627716036513448">
        <ele>40.990000000000002</ele>
        <time>2025-05-19T08:16:28Z</time>
      </trkpt>
      <trkpt lat="43.816222976893187" lon="7.627760963514447">
        <ele>41.469999999999999</ele>
        <time>2025-05-19T08:16:29Z</time>
      </trkpt>
      <trkpt lat="43.816285002976656" lon="7.627787031233311">
        <ele>41.950000000000003</ele>
        <time>2025-05-19T08:16:30Z</time>
      </trkpt>
      <trkpt lat="43.816351974382997" lon="7.627816032618284">
        <ele>42.439999999999998</ele>
        <time>2025-05-19T08:16:31Z</time>
      </trkpt>
      <trkpt lat="43.816395979374647" lon="7.627816032618284">
        <ele>42.920000000000002</ele>
        <time>2025-05-19T08:16:32Z</time>
      </trkpt>
      <trkpt lat="43.816454987972975" lon="7.627816032618284">
        <ele>42.920000000000002</ele>
        <time>2025-05-19T08:16:33Z</time>
      </trkpt>
      <trkpt lat="43.816517014056444" lon="7.627813015133143">
        <ele>43.399999999999999</ele>
        <time>2025-05-19T08:16:34Z</time>
      </trkpt>
      <trkpt lat="43.81659303791821" lon="7.627806980162859">
        <ele>43.880000000000003</ele>
        <time>2025-05-19T08:16:35Z</time>
      </trkpt>
      <trkpt lat="43.816665960475802" lon="7.627801029011607">
        <ele>44.359999999999999</ele>
        <time>2025-05-19T08:16:36Z</time>
      </trkpt>
      <trkpt lat="43.816738966852427" lon="7.627794994041324">
        <ele>44.840000000000003</ele>
        <time>2025-05-19T08:16:37Z</time>
      </trkpt>
      <trkpt lat="43.816815996542573" lon="7.627783007919788">
        <ele>44.840000000000003</ele>
        <time>2025-05-19T08:16:38Z</time>
      </trkpt>
      <trkpt lat="43.817235007882118" lon="7.627730034291744">
        <ele>45.799999999999997</ele>
        <time>2025-05-19T08:16:43Z</time>
      </trkpt>
      <trkpt lat="43.817574977874756" lon="7.627708995714784">
        <ele>44.840000000000003</ele>
        <time>2025-05-19T08:16:47Z</time>
      </trkpt>
      <trkpt lat="43.81764798425138" lon="7.627698015421629">
        <ele>44.840000000000003</ele>
        <time>2025-05-19T08:16:48Z</time>
      </trkpt>
      <trkpt lat="43.817726019769907" lon="7.627686029300094">
        <ele>44.840000000000003</ele>
        <time>2025-05-19T08:16:49Z</time>
      </trkpt>
      <trkpt lat="43.817801959812641" lon="7.627673959359527">
        <ele>44.840000000000003</ele>
        <time>2025-05-19T08:16:50Z</time>
      </trkpt>
      <trkpt lat="43.817886030301452" lon="7.627660967409611">
        <ele>45.32</ele>
        <time>2025-05-19T08:16:51Z</time>
      </trkpt>
      <trkpt lat="43.817985020577908" lon="7.627645963802934">
        <ele>45.32</ele>
        <time>2025-05-19T08:16:52Z</time>
      </trkpt>
      <trkpt lat="43.819046001881361" lon="7.627524007111788">
        <ele>47.240000000000002</ele>
        <time>2025-05-19T08:17:02Z</time>
      </trkpt>
      <trkpt lat="43.819800037890673" lon="7.627525012940168">
        <ele>47.240000000000002</ele>
        <time>2025-05-19T08:17:10Z</time>
      </trkpt>
      <trkpt lat="43.82003297097981" lon="7.6275700237602">
        <ele>47.719999999999999</ele>
        <time>2025-05-19T08:17:12Z</time>
      </trkpt>
      <trkpt lat="43.82091298699379" lon="7.627931032329798">
        <ele>48.200000000000003</ele>
        <time>2025-05-19T08:17:21Z</time>
      </trkpt>
      <trkpt lat="43.82170801050961" lon="7.628224985674024">
        <ele>49.649999999999999</ele>
        <time>2025-05-19T08:17:29Z</time>
      </trkpt>
      <trkpt lat="43.822906035929918" lon="7.628331016749144">
        <ele>49.649999999999999</ele>
        <time>2025-05-19T08:17:39Z</time>
      </trkpt>
      <trkpt lat="43.823965005576611" lon="7.628368986770511">
        <ele>47.719999999999999</ele>
        <time>2025-05-19T08:17:49Z</time>
      </trkpt>
      <trkpt lat="43.825441980734468" lon="7.628289023414254">
        <ele>46.759999999999998</ele>
        <time>2025-05-19T08:18:02Z</time>
      </trkpt>
      <trkpt lat="43.826845027506351" lon="7.6277219876647">
        <ele>48.200000000000003</ele>
        <time>2025-05-19T08:18:15Z</time>
      </trkpt>
      <trkpt lat="43.82699497975409" lon="7.627665996551514">
        <ele>48.200000000000003</ele>
        <time>2025-05-19T08:18:16Z</time>
      </trkpt>
      <trkpt lat="43.827107967808843" lon="7.627645041793585">
        <ele>48.200000000000003</ele>
        <time>2025-05-19T08:18:17Z</time>
      </trkpt>
      <trkpt lat="43.827247023582458" lon="7.627645041793585">
        <ele>48.68</ele>
        <time>2025-05-19T08:18:18Z</time>
      </trkpt>
      <trkpt lat="43.82738197222352" lon="7.627645041793585">
        <ele>48.68</ele>
        <time>2025-05-19T08:18:19Z</time>
      </trkpt>
      <trkpt lat="43.827522033825517" lon="7.627683011814952">
        <ele>49.159999999999997</ele>
        <time>2025-05-19T08:18:20Z</time>
      </trkpt>
      <trkpt lat="43.82765899412334" lon="7.627719976007938">
        <ele>49.649999999999999</ele>
        <time>2025-05-19T08:18:21Z</time>
      </trkpt>
      <trkpt lat="43.828477989882231" lon="7.627929020673037">
        <ele>52.530000000000001</ele>
        <time>2025-05-19T08:18:27Z</time>
      </trkpt>
      <trkpt lat="43.828616961836815" lon="7.627940000966191">
        <ele>53.009999999999998</ele>
        <time>2025-05-19T08:18:28Z</time>
      </trkpt>
      <trkpt lat="43.829942978918552" lon="7.627873029559851">
        <ele>60.219999999999999</ele>
        <time>2025-05-19T08:18:38Z</time>
      </trkpt>
      <trkpt lat="43.830559970811009" lon="7.627693992108107">
        <ele>61.659999999999997</ele>
        <time>2025-05-19T08:18:43Z</time>
      </trkpt>
      <trkpt lat="43.830686034634709" lon="7.627705978229642">
        <ele>62.140000000000001</ele>
        <time>2025-05-19T08:18:44Z</time>
      </trkpt>
      <trkpt lat="43.831129018217325" lon="7.627708995714784">
        <ele>63.100000000000001</ele>
        <time>2025-05-19T08:18:48Z</time>
      </trkpt>
      <trkpt lat="43.831237982958555" lon="7.627696003764868">
        <ele>63.100000000000001</ele>
        <time>2025-05-19T08:18:49Z</time>
      </trkpt>
      <trkpt lat="43.831748021766543" lon="7.627481007948518">
        <ele>62.619999999999997</ele>
        <time>2025-05-19T08:18:54Z</time>
      </trkpt>
      <trkpt lat="43.831852041184902" lon="7.627415964379907">
        <ele>62.619999999999997</ele>
        <time>2025-05-19T08:18:55Z</time>
      </trkpt>
      <trkpt lat="43.831954970955849" lon="7.627343041822314">
        <ele>62.619999999999997</ele>
        <time>2025-05-19T08:18:56Z</time>
      </trkpt>
      <trkpt lat="43.832370964810252" lon="7.626997036859393">
        <ele>62.140000000000001</ele>
        <time>2025-05-19T08:19:00Z</time>
      </trkpt>
      <trkpt lat="43.832488982006907" lon="7.626939034089446">
        <ele>62.140000000000001</ele>
        <time>2025-05-19T08:19:01Z</time>
      </trkpt>
      <trkpt lat="43.832617979496717" lon="7.626900980249047">
        <ele>61.659999999999997</ele>
        <time>2025-05-19T08:19:02Z</time>
      </trkpt>
      <trkpt lat="43.832749994471669" lon="7.6268620043993">
        <ele>61.18</ele>
        <time>2025-05-19T08:19:03Z</time>
      </trkpt>
      <trkpt lat="43.832885026931763" lon="7.626860998570919">
        <ele>61.18</ele>
        <time>2025-05-19T08:19:04Z</time>
      </trkpt>
      <trkpt lat="43.833027016371489" lon="7.626877008005977">
        <ele>60.700000000000003</ele>
        <time>2025-05-19T08:19:05Z</time>
      </trkpt>
      <trkpt lat="43.834352027624846" lon="7.626741975545883">
        <ele>59.740000000000002</ele>
        <time>2025-05-19T08:19:15Z</time>
      </trkpt>
      <trkpt lat="43.83558701723814" lon="7.626557992771268">
        <ele>62.140000000000001</ele>
        <time>2025-05-19T08:19:26Z</time>
      </trkpt>
      <trkpt lat="43.835720960050821" lon="7.626571990549564">
        <ele>62.619999999999997</ele>
        <time>2025-05-19T08:19:27Z</time>
      </trkpt>
      <trkpt lat="43.835854986682534" lon="7.626623036339879">
        <ele>62.619999999999997</ele>
        <time>2025-05-19T08:19:28Z</time>
      </trkpt>
      <trkpt lat="43.835993958637118" lon="7.626675004139543">
        <ele>62.619999999999997</ele>
        <time>2025-05-19T08:19:29Z</time>
      </trkpt>
      <trkpt lat="43.836128991097212" lon="7.626725966110826">
        <ele>62.140000000000001</ele>
        <time>2025-05-19T08:19:30Z</time>
      </trkpt>
      <trkpt lat="43.836366031318903" lon="7.626815987750888">
        <ele>62.140000000000001</ele>
        <time>2025-05-19T08:19:32Z</time>
      </trkpt>
      <trkpt lat="43.836479019373655" lon="7.626847000792623">
        <ele>62.140000000000001</ele>
        <time>2025-05-19T08:19:33Z</time>
      </trkpt>
      <trkpt lat="43.83659603074193" lon="7.626822022721171">
        <ele>62.140000000000001</ele>
        <time>2025-05-19T08:19:34Z</time>
      </trkpt>
      <trkpt lat="43.836714969947934" lon="7.626796960830689">
        <ele>62.140000000000001</ele>
        <time>2025-05-19T08:19:35Z</time>
      </trkpt>
      <trkpt lat="43.836836004629731" lon="7.626771982759237">
        <ele>62.140000000000001</ele>
        <time>2025-05-19T08:19:36Z</time>
      </trkpt>
      <trkpt lat="43.837819034233689" lon="7.6265839766711">
        <ele>63.579999999999998</ele>
        <time>2025-05-19T08:19:44Z</time>
      </trkpt>
      <trkpt lat="43.837946020066738" lon="7.626609960570931">
        <ele>64.069999999999993</ele>
        <time>2025-05-19T08:19:45Z</time>
      </trkpt>
      <trkpt lat="43.838064037263393" lon="7.626677015796304">
        <ele>64.549999999999997</ele>
        <time>2025-05-19T08:19:46Z</time>
      </trkpt>
      <trkpt lat="43.838310968130827" lon="7.62679997831583">
        <ele>65.030000000000001</ele>
        <time>2025-05-19T08:19:48Z</time>
      </trkpt>
      <trkpt lat="43.838448012247682" lon="7.626828979700804">
        <ele>65.510000000000005</ele>
        <time>2025-05-19T08:19:49Z</time>
      </trkpt>
      <trkpt lat="43.838584972545505" lon="7.626828979700804">
        <ele>65.510000000000005</ele>
        <time>2025-05-19T08:19:50Z</time>
      </trkpt>
      <trkpt lat="43.839109009131789" lon="7.626752033829689">
        <ele>67.909999999999997</ele>
        <time>2025-05-19T08:19:54Z</time>
      </trkpt>
      <trkpt lat="43.839228032156825" lon="7.626695958897471">
        <ele>68.390000000000001</ele>
        <time>2025-05-19T08:19:55Z</time>
      </trkpt>
      <trkpt lat="43.839343031868339" lon="7.626636028289795">
        <ele>68.390000000000001</ele>
        <time>2025-05-19T08:19:56Z</time>
      </trkpt>
      <trkpt lat="43.83945501409471" lon="7.626557992771268">
        <ele>68.870000000000005</ele>
        <time>2025-05-19T08:19:57Z</time>
      </trkpt>
      <trkpt lat="43.83956003934145" lon="7.626466965302825">
        <ele>68.870000000000005</ele>
        <time>2025-05-19T08:19:58Z</time>
      </trkpt>
      <trkpt lat="43.839657017961144" lon="7.626351965591312">
        <ele>68.870000000000005</ele>
        <time>2025-05-19T08:19:59Z</time>
      </trkpt>
      <trkpt lat="43.839752990752459" lon="7.626238977536559">
        <ele>69.349999999999994</ele>
        <time>2025-05-19T08:20:00Z</time>
      </trkpt>
      <trkpt lat="43.839845024049282" lon="7.626130012795329">
        <ele>69.349999999999994</ele>
        <time>2025-05-19T08:20:01Z</time>
      </trkpt>
      <trkpt lat="43.839954994618893" lon="7.626063041388989">
        <ele>68.870000000000005</ele>
        <time>2025-05-19T08:20:02Z</time>
      </trkpt>
      <trkpt lat="43.840074017643929" lon="7.626010989770293">
        <ele>68.870000000000005</ele>
        <time>2025-05-19T08:20:03Z</time>
      </trkpt>
      <trkpt lat="43.841156959533691" lon="7.625906970351934">
        <ele>68.390000000000001</ele>
        <time>2025-05-19T08:20:11Z</time>
      </trkpt>
      <trkpt lat="43.842349033802748" lon="7.625709995627403">
        <ele>67.430000000000007</ele>
        <time>2025-05-19T08:20:20Z</time>
      </trkpt>
      <trkpt lat="43.842473002150655" lon="7.625651992857456">
        <ele>67.430000000000007</ele>
        <time>2025-05-19T08:20:21Z</time>
      </trkpt>
      <trkpt lat="43.842596970498562" lon="7.625588960945606">
        <ele>67.430000000000007</ele>
        <time>2025-05-19T08:20:22Z</time>
      </trkpt>
      <trkpt lat="43.843717966228724" lon="7.624883959069848">
        <ele>66.469999999999999</ele>
        <time>2025-05-19T08:20:31Z</time>
      </trkpt>
      <trkpt lat="43.845040965825319" lon="7.624524962157011">
        <ele>63.579999999999998</ele>
        <time>2025-05-19T08:20:42Z</time>
      </trkpt>
      <trkpt lat="43.846099013462663" lon="7.624217011034489">
        <ele>58.780000000000001</ele>
        <time>2025-05-19T08:20:52Z</time>
      </trkpt>
      <trkpt lat="43.846762022003531" lon="7.624061023816466">
        <ele>54.450000000000003</ele>
        <time>2025-05-19T08:21:01Z</time>
      </trkpt>
      <trkpt lat="43.846842991188169" lon="7.624046020209789">
        <ele>54.450000000000003</ele>
        <time>2025-05-19T08:21:02Z</time>
      </trkpt>
      <trkpt lat="43.847558973357081" lon="7.623909981921315">
        <ele>54.93</ele>
        <time>2025-05-19T08:21:10Z</time>
      </trkpt>
      <trkpt lat="43.847651006653905" lon="7.623896989971399">
        <ele>54.93</ele>
        <time>2025-05-19T08:21:11Z</time>
      </trkpt>
      <trkpt lat="43.847741028293967" lon="7.623882992193103">
        <ele>54.93</ele>
        <time>2025-05-19T08:21:12Z</time>
      </trkpt>
      <trkpt lat="43.848468996584415" lon="7.623750977218151">
        <ele>56.369999999999997</ele>
        <time>2025-05-19T08:21:21Z</time>
      </trkpt>
      <trkpt lat="43.849168969318271" lon="7.623623991385102">
        <ele>56.859999999999999</ele>
        <time>2025-05-19T08:21:28Z</time>
      </trkpt>
      <trkpt lat="43.850034987553954" lon="7.623220989480615">
        <ele>60.219999999999999</ele>
        <time>2025-05-19T08:21:38Z</time>
      </trkpt>
      <trkpt lat="43.850525999441743" lon="7.622976992279291">
        <ele>62.619999999999997</ele>
        <time>2025-05-19T08:21:43Z</time>
      </trkpt>
      <trkpt lat="43.850619960576296" lon="7.62295201420784">
        <ele>63.579999999999998</ele>
        <time>2025-05-19T08:21:44Z</time>
      </trkpt>
      <trkpt lat="43.850714005529881" lon="7.622984033077955">
        <ele>64.069999999999993</ele>
        <time>2025-05-19T08:21:45Z</time>
      </trkpt>
      <trkpt lat="43.850806038826704" lon="7.6230179797858">
        <ele>64.069999999999993</ele>
        <time>2025-05-19T08:21:46Z</time>
      </trkpt>
      <trkpt lat="43.850896982476115" lon="7.623071959242225">
        <ele>64.549999999999997</ele>
        <time>2025-05-19T08:21:47Z</time>
      </trkpt>
      <trkpt lat="43.850985998287797" lon="7.62312401086092">
        <ele>64.549999999999997</ele>
        <time>2025-05-19T08:21:48Z</time>
      </trkpt>
      <trkpt lat="43.851265031844378" lon="7.623289972543716">
        <ele>65.989999999999995</ele>
        <time>2025-05-19T08:21:54Z</time>
      </trkpt>
      <trkpt lat="43.851568959653378" lon="7.623480996116996">
        <ele>67.430000000000007</ele>
        <time>2025-05-19T08:22:00Z</time>
      </trkpt>
      <trkpt lat="43.851626962423325" lon="7.623520977795124">
        <ele>67.430000000000007</ele>
        <time>2025-05-19T08:22:01Z</time>
      </trkpt>
      <trkpt lat="43.851689994335175" lon="7.623560037463903">
        <ele>66.950000000000003</ele>
        <time>2025-05-19T08:22:02Z</time>
      </trkpt>
      <trkpt lat="43.851986965164542" lon="7.62374603189528">
        <ele>66.469999999999999</ele>
        <time>2025-05-19T08:22:07Z</time>
      </trkpt>
      <trkpt lat="43.852057037875056" lon="7.623790036886931">
        <ele>66.469999999999999</ele>
        <time>2025-05-19T08:22:08Z</time>
      </trkpt>
      <trkpt lat="43.852401031181216" lon="7.624002015218139">
        <ele>65.030000000000001</ele>
        <time>2025-05-19T08:22:16Z</time>
      </trkpt>
      <trkpt lat="43.852487029507756" lon="7.624054988846183">
        <ele>64.549999999999997</ele>
        <time>2025-05-19T08:22:19Z</time>
      </trkpt>
      <trkpt lat="43.852575039491057" lon="7.624108968302608">
        <ele>64.069999999999993</ele>
        <time>2025-05-19T08:22:21Z</time>
      </trkpt>
      <trkpt lat="43.852636981755495" lon="7.624147022143006">
        <ele>64.069999999999993</ele>
        <time>2025-05-19T08:22:22Z</time>
      </trkpt>
      <trkpt lat="43.852707976475358" lon="7.624181974679232">
        <ele>63.579999999999998</ele>
        <time>2025-05-19T08:22:23Z</time>
      </trkpt>
      <trkpt lat="43.852837979793549" lon="7.624247018247843">
        <ele>63.579999999999998</ele>
        <time>2025-05-19T08:22:25Z</time>
      </trkpt>
      <trkpt lat="43.852914003655314" lon="7.624274007976055">
        <ele>63.579999999999998</ele>
        <time>2025-05-19T08:22:26Z</time>
      </trkpt>
      <trkpt lat="43.852994972839952" lon="7.6242630276829">
        <ele>63.579999999999998</ele>
        <time>2025-05-19T08:22:27Z</time>
      </trkpt>
      <trkpt lat="43.85309899225831" lon="7.624250035732985">
        <ele>63.100000000000001</ele>
        <time>2025-05-19T08:22:28Z</time>
      </trkpt>
      <trkpt lat="43.85320401750505" lon="7.624236959964037">
        <ele>62.619999999999997</ele>
        <time>2025-05-19T08:22:29Z</time>
      </trkpt>
      <trkpt lat="43.853296972811222" lon="7.624225979670882">
        <ele>61.659999999999997</ele>
        <time>2025-05-19T08:22:30Z</time>
      </trkpt>
      <trkpt lat="43.853381965309381" lon="7.624214999377728">
        <ele>61.18</ele>
        <time>2025-05-19T08:22:31Z</time>
      </trkpt>
      <trkpt lat="43.853919999673963" lon="7.624098993837833">
        <ele>58.780000000000001</ele>
        <time>2025-05-19T08:22:40Z</time>
      </trkpt>
      <trkpt lat="43.854374969378114" lon="7.624000003561378">
        <ele>58.299999999999997</ele>
        <time>2025-05-19T08:22:48Z</time>
      </trkpt>
      <trkpt lat="43.854488041251898" lon="7.623975025489926">
        <ele>57.82</ele>
        <time>2025-05-19T08:22:50Z</time>
      </trkpt>
      <trkpt lat="43.85455803014338" lon="7.623960021883249">
        <ele>57.82</ele>
        <time>2025-05-19T08:22:51Z</time>
      </trkpt>
      <trkpt lat="43.855409966781735" lon="7.623784001916647">
        <ele>57.340000000000003</ele>
        <time>2025-05-19T08:22:59Z</time>
      </trkpt>
      <trkpt lat="43.856385033577681" lon="7.623691968619824">
        <ele>59.740000000000002</ele>
        <time>2025-05-19T08:23:06Z</time>
      </trkpt>
      <trkpt lat="43.857758995145559" lon="7.623932026326656">
        <ele>60.700000000000003</ele>
        <time>2025-05-19T08:23:17Z</time>
      </trkpt>
      <trkpt lat="43.858989039435983" lon="7.623851979151368">
        <ele>62.619999999999997</ele>
        <time>2025-05-19T08:23:27Z</time>
      </trkpt>
      <trkpt lat="43.860298041254282" lon="7.623675037175417">
        <ele>65.510000000000005</ele>
        <time>2025-05-19T08:23:37Z</time>
      </trkpt>
      <trkpt lat="43.860421003773808" lon="7.623583003878593">
        <ele>65.989999999999995</ele>
        <time>2025-05-19T08:23:38Z</time>
      </trkpt>
      <trkpt lat="43.860536003485322" lon="7.623498011380434">
        <ele>66.469999999999999</ele>
        <time>2025-05-19T08:23:39Z</time>
      </trkpt>
      <trkpt lat="43.861069008708" lon="7.623100960627198">
        <ele>67.909999999999997</ele>
        <time>2025-05-19T08:23:44Z</time>
      </trkpt>
      <trkpt lat="43.861149977892637" lon="7.623025020584464">
        <ele>68.390000000000001</ele>
        <time>2025-05-19T08:23:45Z</time>
      </trkpt>
      <trkpt lat="43.861213009804487" lon="7.622911026701331">
        <ele>68.870000000000005</ele>
        <time>2025-05-19T08:23:46Z</time>
      </trkpt>
      <trkpt lat="43.86126103810966" lon="7.622790997847915">
        <ele>69.349999999999994</ele>
        <time>2025-05-19T08:23:47Z</time>
      </trkpt>
      <trkpt lat="43.861299008131027" lon="7.622659988701344">
        <ele>69.349999999999994</ele>
        <time>2025-05-19T08:23:48Z</time>
      </trkpt>
      <trkpt lat="43.861334966495633" lon="7.622534008696675">
        <ele>70.310000000000002</ele>
        <time>2025-05-19T08:23:49Z</time>
      </trkpt>
      <trkpt lat="43.861419036984444" lon="7.622311972081661">
        <ele>71.269999999999996</ele>
        <time>2025-05-19T08:23:51Z</time>
      </trkpt>
      <trkpt lat="43.861480979248881" lon="7.622215999290347">
        <ele>71.760000000000005</ele>
        <time>2025-05-19T08:23:52Z</time>
      </trkpt>
      <trkpt lat="43.86156396009028" lon="7.622142992913723">
        <ele>71.760000000000005</ele>
        <time>2025-05-19T08:23:53Z</time>
      </trkpt>
      <trkpt lat="43.861656999215484" lon="7.622084990143776">
        <ele>72.239999999999995</ele>
        <time>2025-05-19T08:23:54Z</time>
      </trkpt>
      <trkpt lat="43.861764036118984" lon="7.622077027335763">
        <ele>72.719999999999999</ele>
        <time>2025-05-19T08:23:55Z</time>
      </trkpt>
      <trkpt lat="43.861854979768395" lon="7.622069986537099">
        <ele>73.200000000000003</ele>
        <time>2025-05-19T08:23:56Z</time>
      </trkpt>
      <trkpt lat="43.86199101805687" lon="7.622090019285679">
        <ele>73.680000000000007</ele>
        <time>2025-05-19T08:23:58Z</time>
      </trkpt>
      <trkpt lat="43.86205798946321" lon="7.622109968215227">
        <ele>74.159999999999997</ele>
        <time>2025-05-19T08:23:59Z</time>
      </trkpt>
      <trkpt lat="43.862107023596764" lon="7.622183980420232">
        <ele>74.159999999999997</ele>
        <time>2025-05-19T08:24:00Z</time>
      </trkpt>
      <trkpt lat="43.862165026366711" lon="7.622269978746772">
        <ele>74.640000000000001</ele>
        <time>2025-05-19T08:24:01Z</time>
      </trkpt>
      <trkpt lat="43.86222898028791" lon="7.622366035357118">
        <ele>74.640000000000001</ele>
        <time>2025-05-19T08:24:02Z</time>
      </trkpt>
      <trkpt lat="43.862300980836153" lon="7.622453961521387">
        <ele>74.640000000000001</ele>
        <time>2025-05-19T08:24:03Z</time>
      </trkpt>
      <trkpt lat="43.862393014132977" lon="7.622526967898011">
        <ele>74.640000000000001</ele>
        <time>2025-05-19T08:24:04Z</time>
      </trkpt>
      <trkpt lat="43.862497033551335" lon="7.62260802090168">
        <ele>74.640000000000001</ele>
        <time>2025-05-19T08:24:05Z</time>
      </trkpt>
      <trkpt lat="43.862851001322269" lon="7.622795021161437">
        <ele>73.680000000000007</ele>
        <time>2025-05-19T08:24:08Z</time>
      </trkpt>
      <trkpt lat="43.862989973276854" lon="7.62282301671803">
        <ele>73.680000000000007</ele>
        <time>2025-05-19T08:24:09Z</time>
      </trkpt>
      <trkpt lat="43.863128023222089" lon="7.622850006446242">
        <ele>73.680000000000007</ele>
        <time>2025-05-19T08:24:10Z</time>
      </trkpt>
      <trkpt lat="43.863273030146956" lon="7.622835002839565">
        <ele>73.680000000000007</ele>
        <time>2025-05-19T08:24:11Z</time>
      </trkpt>
      <trkpt lat="43.863419964909554" lon="7.622798038646579">
        <ele>73.200000000000003</ele>
        <time>2025-05-19T08:24:12Z</time>
      </trkpt>
      <trkpt lat="43.863566983491182" lon="7.622760990634561">
        <ele>73.680000000000007</ele>
        <time>2025-05-19T08:24:13Z</time>
      </trkpt>
      <trkpt lat="43.863709978759289" lon="7.622725032269955">
        <ele>73.680000000000007</ele>
        <time>2025-05-19T08:24:14Z</time>
      </trkpt>
      <trkpt lat="43.863841993734241" lon="7.622692007571459">
        <ele>73.680000000000007</ele>
        <time>2025-05-19T08:24:15Z</time>
      </trkpt>
      <trkpt lat="43.863966967910528" lon="7.622695025056601">
        <ele>73.680000000000007</ele>
        <time>2025-05-19T08:24:16Z</time>
      </trkpt>
      <trkpt lat="43.864095965400338" lon="7.622702987864614">
        <ele>73.680000000000007</ele>
        <time>2025-05-19T08:24:17Z</time>
      </trkpt>
      <trkpt lat="43.864212976768613" lon="7.622726960107684">
        <ele>74.159999999999997</ele>
        <time>2025-05-19T08:24:18Z</time>
      </trkpt>
      <trkpt lat="43.864324036985636" lon="7.622788986191154">
        <ele>74.159999999999997</ele>
        <time>2025-05-19T08:24:19Z</time>
      </trkpt>
      <trkpt lat="43.864425038918853" lon="7.62284598313272">
        <ele>74.159999999999997</ele>
        <time>2025-05-19T08:24:20Z</time>
      </trkpt>
      <trkpt lat="43.864525035023689" lon="7.622901974245906">
        <ele>74.159999999999997</ele>
        <time>2025-05-19T08:24:21Z</time>
      </trkpt>
      <trkpt lat="43.864611033350229" lon="7.623002976179123">
        <ele>74.159999999999997</ele>
        <time>2025-05-19T08:24:22Z</time>
      </trkpt>
      <trkpt lat="43.864699965342879" lon="7.623108001425862">
        <ele>73.680000000000007</ele>
        <time>2025-05-19T08:24:23Z</time>
      </trkpt>
      <trkpt lat="43.865523990243673" lon="7.624070998281241">
        <ele>74.640000000000001</ele>
        <time>2025-05-19T08:24:31Z</time>
      </trkpt>
      <trkpt lat="43.866146011278033" lon="7.624654965475202">
        <ele>76.560000000000002</ele>
        <time>2025-05-19T08:24:36Z</time>
      </trkpt>
      <trkpt lat="43.866296969354153" lon="7.624724032357335">
        <ele>77.519999999999996</ele>
        <time>2025-05-19T08:24:37Z</time>
      </trkpt>
      <trkpt lat="43.867721976712346" lon="7.625305987894535">
        <ele>80.409999999999997</ele>
        <time>2025-05-19T08:24:46Z</time>
      </trkpt>
      <trkpt lat="43.869610000401735" lon="7.625391986221075">
        <ele>82.329999999999998</ele>
        <time>2025-05-19T08:24:58Z</time>
      </trkpt>
      <trkpt lat="43.870750023052096" lon="7.625463986769319">
        <ele>82.810000000000002</ele>
        <time>2025-05-19T08:25:05Z</time>
      </trkpt>
      <trkpt lat="43.870876003056765" lon="7.625499023124576">
        <ele>82.810000000000002</ele>
        <time>2025-05-19T08:25:06Z</time>
      </trkpt>
      <trkpt lat="43.871011035516858" lon="7.625623997300863">
        <ele>82.810000000000002</ele>
        <time>2025-05-19T08:25:07Z</time>
      </trkpt>
      <trkpt lat="43.871130980551243" lon="7.625734973698854">
        <ele>82.810000000000002</ele>
        <time>2025-05-19T08:25:08Z</time>
      </trkpt>
      <trkpt lat="43.871222008019686" lon="7.625880986452103">
        <ele>82.810000000000002</ele>
        <time>2025-05-19T08:25:09Z</time>
      </trkpt>
      <trkpt lat="43.871302977204323" lon="7.626065975055099">
        <ele>83.290000000000006</ele>
        <time>2025-05-19T08:25:10Z</time>
      </trkpt>
      <trkpt lat="43.871355028823018" lon="7.626269990578294">
        <ele>83.769999999999996</ele>
        <time>2025-05-19T08:25:11Z</time>
      </trkpt>
      <trkpt lat="43.871392998844385" lon="7.626491021364927">
        <ele>83.769999999999996</ele>
        <time>2025-05-19T08:25:12Z</time>
      </trkpt>
      <trkpt lat="43.871408002451062" lon="7.626726971939206">
        <ele>84.25</ele>
        <time>2025-05-19T08:25:13Z</time>
      </trkpt>
      <trkpt lat="43.871535994112492" lon="7.628220040351152">
        <ele>85.209999999999994</ele>
        <time>2025-05-19T08:25:19Z</time>
      </trkpt>
      <trkpt lat="43.871584022417665" lon="7.62847300618887">
        <ele>85.689999999999998</ele>
        <time>2025-05-19T08:25:20Z</time>
      </trkpt>
      <trkpt lat="43.871627021580935" lon="7.628695964813232">
        <ele>85.689999999999998</ele>
        <time>2025-05-19T08:25:21Z</time>
      </trkpt>
      <trkpt lat="43.87172601185739" lon="7.628916995599866">
        <ele>85.689999999999998</ele>
        <time>2025-05-19T08:25:22Z</time>
      </trkpt>
      <trkpt lat="43.871813016012311" lon="7.629114976152778">
        <ele>85.689999999999998</ele>
        <time>2025-05-19T08:25:23Z</time>
      </trkpt>
      <trkpt lat="43.871903959661722" lon="7.629294013604522">
        <ele>85.689999999999998</ele>
        <time>2025-05-19T08:25:24Z</time>
      </trkpt>
      <trkpt lat="43.872035974636674" lon="7.629417981952429">
        <ele>86.180000000000007</ele>
        <time>2025-05-19T08:25:25Z</time>
      </trkpt>
      <trkpt lat="43.872142005711794" lon="7.629511021077633">
        <ele>86.659999999999997</ele>
        <time>2025-05-19T08:25:26Z</time>
      </trkpt>
      <trkpt lat="43.872310984879732" lon="7.629559971392155">
        <ele>87.140000000000001</ele>
        <time>2025-05-19T08:25:27Z</time>
      </trkpt>
      <trkpt lat="43.872469989582896" lon="7.629604982212186">
        <ele>87.620000000000005</ele>
        <time>2025-05-19T08:25:28Z</time>
      </trkpt>
      <trkpt lat="43.872620025649667" lon="7.629630966112018">
        <ele>88.099999999999994</ele>
        <time>2025-05-19T08:25:29Z</time>
      </trkpt>
      <trkpt lat="43.872782969847322" lon="7.629574974998832">
        <ele>88.579999999999998</ele>
        <time>2025-05-19T08:25:30Z</time>
      </trkpt>
      <trkpt lat="43.872951027005911" lon="7.629517978057265">
        <ele>89.060000000000002</ele>
        <time>2025-05-19T08:25:31Z</time>
      </trkpt>
      <trkpt lat="43.873113971203566" lon="7.629461986944079">
        <ele>89.540000000000006</ele>
        <time>2025-05-19T08:25:32Z</time>
      </trkpt>
      <trkpt lat="43.873404990881681" lon="7.629361990839243">
        <ele>90.5</ele>
        <time>2025-05-19T08:25:34Z</time>
      </trkpt>
      <trkpt lat="43.873538011685014" lon="7.629360985010862">
        <ele>90.980000000000004</ele>
        <time>2025-05-19T08:25:35Z</time>
      </trkpt>
      <trkpt lat="43.873672038316727" lon="7.629360985010862">
        <ele>91.459999999999994</ele>
        <time>2025-05-19T08:25:36Z</time>
      </trkpt>
      <trkpt lat="43.87378896586597" lon="7.629426028579474">
        <ele>91.459999999999994</ele>
        <time>2025-05-19T08:25:37Z</time>
      </trkpt>
      <trkpt lat="43.873882004991174" lon="7.629538010805845">
        <ele>91.939999999999998</ele>
        <time>2025-05-19T08:25:38Z</time>
      </trkpt>
      <trkpt lat="43.873983006924391" lon="7.629676982760429">
        <ele>92.420000000000002</ele>
        <time>2025-05-19T08:25:39Z</time>
      </trkpt>
      <trkpt lat="43.874060036614537" lon="7.629845039919019">
        <ele>92.420000000000002</ele>
        <time>2025-05-19T08:25:40Z</time>
      </trkpt>
      <trkpt lat="43.87413396500051" lon="7.630013013258576">
        <ele>92.900000000000006</ele>
        <time>2025-05-19T08:25:41Z</time>
      </trkpt>
      <trkpt lat="43.874414004385471" lon="7.630705023184419">
        <ele>95.310000000000002</ele>
        <time>2025-05-19T08:25:47Z</time>
      </trkpt>
      <trkpt lat="43.874532021582127" lon="7.631236016750336">
        <ele>96.75</ele>
        <time>2025-05-19T08:25:51Z</time>
      </trkpt>
      <trkpt lat="43.87466898187995" lon="7.632673010230064">
        <ele>98.670000000000002</ele>
        <time>2025-05-19T08:26:01Z</time>
      </trkpt>
      <trkpt lat="43.874832009896636" lon="7.633876986801624">
        <ele>99.629999999999995</ele>
        <time>2025-05-19T08:26:09Z</time>
      </trkpt>
      <trkpt lat="43.87488498352468" lon="7.634022999554873">
        <ele>99.629999999999995</ele>
        <time>2025-05-19T08:26:10Z</time>
      </trkpt>
      <trkpt lat="43.874936029314995" lon="7.634163983166218">
        <ele>99.629999999999995</ele>
        <time>2025-05-19T08:26:11Z</time>
      </trkpt>
      <trkpt lat="43.875001994892955" lon="7.634271020069718">
        <ele>99.629999999999995</ele>
        <time>2025-05-19T08:26:12Z</time>
      </trkpt>
      <trkpt lat="43.875080030411482" lon="7.634369004517794">
        <ele>99.629999999999995</ele>
        <time>2025-05-19T08:26:13Z</time>
      </trkpt>
      <trkpt lat="43.875155970454216" lon="7.634463971480727">
        <ele>99.629999999999995</ele>
        <time>2025-05-19T08:26:14Z</time>
      </trkpt>
      <trkpt lat="43.875225037336349" lon="7.634546030312777">
        <ele>99.150000000000006</ele>
        <time>2025-05-19T08:26:15Z</time>
      </trkpt>
      <trkpt lat="43.876103041693568" lon="7.635394027456641">
        <ele>96.75</ele>
        <time>2025-05-19T08:26:27Z</time>
      </trkpt>
      <trkpt lat="43.876921031624079" lon="7.636249987408519">
        <ele>97.709999999999994</ele>
        <time>2025-05-19T08:26:37Z</time>
      </trkpt>
      <trkpt lat="43.877736004069448" lon="7.637189012020826">
        <ele>101.08</ele>
        <time>2025-05-19T08:26:48Z</time>
      </trkpt>
      <trkpt lat="43.878274960443377" lon="7.637788988649845">
        <ele>103.48</ele>
        <time>2025-05-19T08:26:55Z</time>
      </trkpt>
      <trkpt lat="43.878521975129843" lon="7.638097023591399">
        <ele>103.95999999999999</ele>
        <time>2025-05-19T08:27:00Z</time>
      </trkpt>
      <trkpt lat="43.878556005656719" lon="7.638140022754669">
        <ele>104.44</ele>
        <time>2025-05-19T08:27:01Z</time>
      </trkpt>
      <trkpt lat="43.878718027845025" lon="7.638342026621103">
        <ele>104.92</ele>
        <time>2025-05-19T08:27:09Z</time>
      </trkpt>
      <trkpt lat="43.878743005916476" lon="7.638373039662838">
        <ele>104.92</ele>
        <time>2025-05-19T08:27:10Z</time>
      </trkpt>
      <trkpt lat="43.878767983987927" lon="7.638403968885541">
        <ele>104.92</ele>
        <time>2025-05-19T08:27:11Z</time>
      </trkpt>
      <trkpt lat="43.878793967887759" lon="7.638434981927276">
        <ele>104.92</ele>
        <time>2025-05-19T08:27:12Z</time>
      </trkpt>
      <trkpt lat="43.878821963444352" lon="7.638470018282533">
        <ele>104.44</ele>
        <time>2025-05-19T08:27:13Z</time>
      </trkpt>
      <trkpt lat="43.878855993971229" lon="7.638512011617422">
        <ele>103.95999999999999</ele>
        <time>2025-05-19T08:27:14Z</time>
      </trkpt>
      <trkpt lat="43.878892036154866" lon="7.638557022437453">
        <ele>103.48</ele>
        <time>2025-05-19T08:27:15Z</time>
      </trkpt>
      <trkpt lat="43.878933023661375" lon="7.638606978580356">
        <ele>103.48</ele>
        <time>2025-05-19T08:27:16Z</time>
      </trkpt>
      <trkpt lat="43.8789870031178" lon="7.638674033805728">
        <ele>103</ele>
        <time>2025-05-19T08:27:17Z</time>
      </trkpt>
      <trkpt lat="43.87900996953249" lon="7.638693982735276">
        <ele>103</ele>
        <time>2025-05-19T08:27:18Z</time>
      </trkpt>
      <trkpt lat="43.879040982574224" lon="7.63872298412025">
        <ele>102.52</ele>
        <time>2025-05-19T08:27:19Z</time>
      </trkpt>
      <trkpt lat="43.879071995615959" lon="7.638749973848462">
        <ele>102.04000000000001</ele>
        <time>2025-05-19T08:27:20Z</time>
      </trkpt>
      <trkpt lat="43.87922303751111" lon="7.638888023793697">
        <ele>101.08</ele>
        <time>2025-05-19T08:27:25Z</time>
      </trkpt>
      <trkpt lat="43.879236029461026" lon="7.638891041278839">
        <ele>101.08</ele>
        <time>2025-05-19T08:27:26Z</time>
      </trkpt>
      <trkpt lat="43.879273999482393" lon="7.638897998258472">
        <ele>101.08</ele>
        <time>2025-05-19T08:27:27Z</time>
      </trkpt>
      <trkpt lat="43.879364021122456" lon="7.63891601935029">
        <ele>101.08</ele>
        <time>2025-05-19T08:27:29Z</time>
      </trkpt>
      <trkpt lat="43.879409031942487" lon="7.638924987986684">
        <ele>101.56</ele>
        <time>2025-05-19T08:27:30Z</time>
      </trkpt>
      <trkpt lat="43.879453958943486" lon="7.638934040442109">
        <ele>101.56</ele>
        <time>2025-05-19T08:27:31Z</time>
      </trkpt>
      <trkpt lat="43.879554038867354" lon="7.638953989371657">
        <ele>102.04000000000001</ele>
        <time>2025-05-19T08:27:33Z</time>
      </trkpt>
      <trkpt lat="43.879900965839624" lon="7.639020038768649">
        <ele>103.48</ele>
        <time>2025-05-19T08:27:42Z</time>
      </trkpt>
      <trkpt lat="43.879992999136448" lon="7.639037976041436">
        <ele>103.48</ele>
        <time>2025-05-19T08:27:44Z</time>
      </trkpt>
      <trkpt lat="43.88004002161324" lon="7.639047028496862">
        <ele>103.48</ele>
        <time>2025-05-19T08:27:45Z</time>
      </trkpt>
      <trkpt lat="43.880224004387856" lon="7.639083992689848">
        <ele>104.44</ele>
        <time>2025-05-19T08:27:49Z</time>
      </trkpt>
      <trkpt lat="43.880720967426896" lon="7.639236962422729">
        <ele>106.36</ele>
        <time>2025-05-19T08:27:57Z</time>
      </trkpt>
      <trkpt lat="43.880972005426884" lon="7.639404013752937">
        <ele>106.84</ele>
        <time>2025-05-19T08:28:02Z</time>
      </trkpt>
      <trkpt lat="43.88100796379149" lon="7.639429997652769">
        <ele>106.84</ele>
        <time>2025-05-19T08:28:03Z</time>
      </trkpt>
      <trkpt lat="43.881332008168101" lon="7.639671983197331">
        <ele>107.31999999999999</ele>
        <time>2025-05-19T08:28:12Z</time>
      </trkpt>
      <trkpt lat="43.881730986759067" lon="7.639960991218686">
        <ele>107.31999999999999</ele>
        <time>2025-05-19T08:28:19Z</time>
      </trkpt>
      <trkpt lat="43.881792007014155" lon="7.639994015917182">
        <ele>106.36</ele>
        <time>2025-05-19T08:28:20Z</time>
      </trkpt>
      <trkpt lat="43.881855960935354" lon="7.640028968453407">
        <ele>105.88</ele>
        <time>2025-05-19T08:28:21Z</time>
      </trkpt>
      <trkpt lat="43.882358958944678" lon="7.640201970934868">
        <ele>105.40000000000001</ele>
        <time>2025-05-19T08:28:26Z</time>
      </trkpt>
      <trkpt lat="43.883411977440119" lon="7.640586029738188">
        <ele>112.13</ele>
        <time>2025-05-19T08:28:35Z</time>
      </trkpt>
      <trkpt lat="43.88362898491323" lon="7.640690971165896">
        <ele>112.61</ele>
        <time>2025-05-19T08:28:37Z</time>
      </trkpt>
      <trkpt lat="43.883741972967982" lon="7.640690971165896">
        <ele>113.09</ele>
        <time>2025-05-19T08:28:38Z</time>
      </trkpt>
      <trkpt lat="43.883850015699863" lon="7.64067797921598">
        <ele>113.09</ele>
        <time>2025-05-19T08:28:39Z</time>
      </trkpt>
      <trkpt lat="43.883963003754616" lon="7.64063598588109">
        <ele>113.56999999999999</ele>
        <time>2025-05-19T08:28:40Z</time>
      </trkpt>
      <trkpt lat="43.884072974324226" lon="7.640596004202962">
        <ele>113.56999999999999</ele>
        <time>2025-05-19T08:28:41Z</time>
      </trkpt>
      <trkpt lat="43.884385032579303" lon="7.640434987843037">
        <ele>114.05</ele>
        <time>2025-05-19T08:28:44Z</time>
      </trkpt>
      <trkpt lat="43.884490979835391" lon="7.640364998951554">
        <ele>114.53</ele>
        <time>2025-05-19T08:28:45Z</time>
      </trkpt>
      <trkpt lat="43.884821981191635" lon="7.640170035883784">
        <ele>114.05</ele>
        <time>2025-05-19T08:28:48Z</time>
      </trkpt>
      <trkpt lat="43.884947039186954" lon="7.640151008963585">
        <ele>114.05</ele>
        <time>2025-05-19T08:28:49Z</time>
      </trkpt>
      <trkpt lat="43.885072013363242" lon="7.640132987871766">
        <ele>114.05</ele>
        <time>2025-05-19T08:28:50Z</time>
      </trkpt>
      <trkpt lat="43.885332019999623" lon="7.640094012022018">
        <ele>114.05</ele>
        <time>2025-05-19T08:28:52Z</time>
      </trkpt>
      <trkpt lat="43.885459005832672" lon="7.640132987871766">
        <ele>114.53</ele>
        <time>2025-05-19T08:28:53Z</time>
      </trkpt>
      <trkpt lat="43.885592026636004" lon="7.640190990641713">
        <ele>115.01000000000001</ele>
        <time>2025-05-19T08:28:54Z</time>
      </trkpt>
      <trkpt lat="43.886098964139819" lon="7.640500031411648">
        <ele>117.90000000000001</ele>
        <time>2025-05-19T08:28:58Z</time>
      </trkpt>
      <trkpt lat="43.8862260337919" lon="7.640602961182594">
        <ele>118.86</ele>
        <time>2025-05-19T08:28:59Z</time>
      </trkpt>
      <trkpt lat="43.887262959033251" lon="7.641547014936805">
        <ele>127.51000000000001</ele>
        <time>2025-05-19T08:29:08Z</time>
      </trkpt>
      <trkpt lat="43.888180023059249" lon="7.642116984352469">
        <ele>127.98999999999999</ele>
        <time>2025-05-19T08:29:16Z</time>
      </trkpt>
      <trkpt lat="43.888283036649227" lon="7.642206000164151">
        <ele>127.98999999999999</ele>
        <time>2025-05-19T08:29:17Z</time>
      </trkpt>
      <trkpt lat="43.888360988348722" lon="7.64231001958251">
        <ele>127.98999999999999</ele>
        <time>2025-05-19T08:29:18Z</time>
      </trkpt>
      <trkpt lat="43.888424020260572" lon="7.64246198348701">
        <ele>128.47</ele>
        <time>2025-05-19T08:29:19Z</time>
      </trkpt>
      <trkpt lat="43.888477999716997" lon="7.642628028988838">
        <ele>128.47</ele>
        <time>2025-05-19T08:29:20Z</time>
      </trkpt>
      <trkpt lat="43.888586964458227" lon="7.642965987324715">
        <ele>128.47</ele>
        <time>2025-05-19T08:29:22Z</time>
      </trkpt>
      <trkpt lat="43.888662988319993" lon="7.643107976764441">
        <ele>128.47</ele>
        <time>2025-05-19T08:29:23Z</time>
      </trkpt>
      <trkpt lat="43.888774970546365" lon="7.643205039203167">
        <ele>128.47</ele>
        <time>2025-05-19T08:29:24Z</time>
      </trkpt>
      <trkpt lat="43.888891981914639" lon="7.643306963145733">
        <ele>128.47</ele>
        <time>2025-05-19T08:29:25Z</time>
      </trkpt>
      <trkpt lat="43.889012010768056" lon="7.643409976735711">
        <ele>128.94999999999999</ele>
        <time>2025-05-19T08:29:26Z</time>
      </trkpt>
      <trkpt lat="43.889393974095583" lon="7.643694961443543">
        <ele>129.43000000000001</ele>
        <time>2025-05-19T08:29:29Z</time>
      </trkpt>
      <trkpt lat="43.889518026262522" lon="7.64375003054738">
        <ele>129.91999999999999</ele>
        <time>2025-05-19T08:29:30Z</time>
      </trkpt>
      <trkpt lat="43.889658004045486" lon="7.64379302971065">
        <ele>130.40000000000001</ele>
        <time>2025-05-19T08:29:31Z</time>
      </trkpt>
      <trkpt lat="43.890018006786704" lon="7.643903000280261">
        <ele>130.88</ele>
        <time>2025-05-19T08:29:34Z</time>
      </trkpt>
      <trkpt lat="43.890063017606735" lon="7.643984975293279">
        <ele>130.88</ele>
        <time>2025-05-19T08:29:35Z</time>
      </trkpt>
      <trkpt lat="43.890095958486199" lon="7.644082037732005">
        <ele>130.88</ele>
        <time>2025-05-19T08:29:36Z</time>
      </trkpt>
      <trkpt lat="43.890095958486199" lon="7.644171975553036">
        <ele>131.36000000000001</ele>
        <time>2025-05-19T08:29:37Z</time>
      </trkpt>
      <trkpt lat="43.890081038698554" lon="7.644316982477903">
        <ele>131.36000000000001</ele>
        <time>2025-05-19T08:29:38Z</time>
      </trkpt>
      <trkpt lat="43.890052959322929" lon="7.644421001896262">
        <ele>131.84</ele>
        <time>2025-05-19T08:29:39Z</time>
      </trkpt>
      <trkpt lat="43.890021024271846" lon="7.644542958587408">
        <ele>131.84</ele>
        <time>2025-05-19T08:29:40Z</time>
      </trkpt>
      <trkpt lat="43.890007026493549" lon="7.644657958298922">
        <ele>131.84</ele>
        <time>2025-05-19T08:29:41Z</time>
      </trkpt>
      <trkpt lat="43.890052959322929" lon="7.644731970503926">
        <ele>132.31999999999999</ele>
        <time>2025-05-19T08:29:42Z</time>
      </trkpt>
      <trkpt lat="43.890101993456483" lon="7.644811011850834">
        <ele>132.31999999999999</ele>
        <time>2025-05-19T08:29:43Z</time>
      </trkpt>
      <trkpt lat="43.890186985954642" lon="7.644834984093905">
        <ele>132.31999999999999</ele>
        <time>2025-05-19T08:29:44Z</time>
      </trkpt>
      <trkpt lat="43.890297962352633" lon="7.644865997135639">
        <ele>132.31999999999999</ele>
        <time>2025-05-19T08:29:45Z</time>
      </trkpt>
      <trkpt lat="43.890425032004714" lon="7.644902039319277">
        <ele>132.31999999999999</ele>
        <time>2025-05-19T08:29:46Z</time>
      </trkpt>
      <trkpt lat="43.89056802727282" lon="7.644942020997405">
        <ele>132.31999999999999</ele>
        <time>2025-05-19T08:29:47Z</time>
      </trkpt>
      <trkpt lat="43.891231035813689" lon="7.645159028470516">
        <ele>132.80000000000001</ele>
        <time>2025-05-19T08:29:51Z</time>
      </trkpt>
      <trkpt lat="43.89140697196126" lon="7.645227005705237">
        <ele>132.80000000000001</ele>
        <time>2025-05-19T08:29:52Z</time>
      </trkpt>
      <trkpt lat="43.891885997727513" lon="7.645497992634773">
        <ele>133.28</ele>
        <time>2025-05-19T08:29:55Z</time>
      </trkpt>
      <trkpt lat="43.892029998824" lon="7.645601006224752">
        <ele>133.75999999999999</ele>
        <time>2025-05-19T08:29:56Z</time>
      </trkpt>
      <trkpt lat="43.892164025455713" lon="7.645734027028084">
        <ele>134.24000000000001</ele>
        <time>2025-05-19T08:29:57Z</time>
      </trkpt>
      <trkpt lat="43.892407016828656" lon="7.646040972322226">
        <ele>135.68000000000001</ele>
        <time>2025-05-19T08:29:59Z</time>
      </trkpt>
      <trkpt lat="43.892526961863041" lon="7.64620098285377">
        <ele>136.63999999999999</ele>
        <time>2025-05-19T08:30:00Z</time>
      </trkpt>
      <trkpt lat="43.892913032323122" lon="7.646719990298152">
        <ele>140.00999999999999</ele>
        <time>2025-05-19T08:30:04Z</time>
      </trkpt>
      <trkpt lat="43.89308201149106" lon="7.646769024431706">
        <ele>140.49000000000001</ele>
        <time>2025-05-19T08:30:05Z</time>
      </trkpt>
      <trkpt lat="43.893206985667348" lon="7.646805988624692">
        <ele>141.44999999999999</ele>
        <time>2025-05-19T08:30:06Z</time>
      </trkpt>
      <trkpt lat="43.893336988985538" lon="7.646843958646059">
        <ele>141.93000000000001</ele>
        <time>2025-05-19T08:30:07Z</time>
      </trkpt>
      <trkpt lat="43.893471015617251" lon="7.646873965859413">
        <ele>141.93000000000001</ele>
        <time>2025-05-19T08:30:08Z</time>
      </trkpt>
      <trkpt lat="43.893615016713738" lon="7.646884024143219">
        <ele>142.41</ele>
        <time>2025-05-19T08:30:09Z</time>
      </trkpt>
      <trkpt lat="43.893763041123748" lon="7.64688603579998">
        <ele>142.88999999999999</ele>
        <time>2025-05-19T08:30:10Z</time>
      </trkpt>
      <trkpt lat="43.89391802251339" lon="7.646859968081117">
        <ele>142.88999999999999</ele>
        <time>2025-05-19T08:30:11Z</time>
      </trkpt>
      <trkpt lat="43.894562004134059" lon="7.646762989461422">
        <ele>143.84999999999999</ele>
        <time>2025-05-19T08:30:15Z</time>
      </trkpt>
      <trkpt lat="43.894867021590471" lon="7.646815963089466">
        <ele>144.34</ele>
        <time>2025-05-19T08:30:17Z</time>
      </trkpt>
      <trkpt lat="43.895170027390122" lon="7.646958958357573">
        <ele>145.30000000000001</ele>
        <time>2025-05-19T08:30:19Z</time>
      </trkpt>
      <trkpt lat="43.895327020436525" lon="7.647045962512493">
        <ele>145.78</ele>
        <time>2025-05-19T08:30:20Z</time>
      </trkpt>
      <trkpt lat="43.895475966855884" lon="7.647171020507813">
        <ele>146.74000000000001</ele>
        <time>2025-05-19T08:30:21Z</time>
      </trkpt>
      <trkpt lat="43.896721014752984" lon="7.648228984326124">
        <ele>148.66</ele>
        <time>2025-05-19T08:30:30Z</time>
      </trkpt>
      <trkpt lat="43.896856969222426" lon="7.648263014853001">
        <ele>148.18000000000001</ele>
        <time>2025-05-19T08:30:31Z</time>
      </trkpt>
      <trkpt lat="43.897005999460816" lon="7.64823803678155">
        <ele>148.18000000000001</ele>
        <time>2025-05-19T08:30:32Z</time>
      </trkpt>
      <trkpt lat="43.897169027477503" lon="7.648214986547828">
        <ele>148.18000000000001</ele>
        <time>2025-05-19T08:30:33Z</time>
      </trkpt>
      <trkpt lat="43.897339012473822" lon="7.648195959627628">
        <ele>147.69999999999999</ele>
        <time>2025-05-19T08:30:34Z</time>
      </trkpt>
      <trkpt lat="43.898419020697474" lon="7.648086994886398">
        <ele>145.30000000000001</ele>
        <time>2025-05-19T08:30:40Z</time>
      </trkpt>
      <trkpt lat="43.898580959066749" lon="7.64811197295785">
        <ele>145.30000000000001</ele>
        <time>2025-05-19T08:30:41Z</time>
      </trkpt>
      <trkpt lat="43.898713979870081" lon="7.648229990154505">
        <ele>145.30000000000001</ele>
        <time>2025-05-19T08:30:42Z</time>
      </trkpt>
      <trkpt lat="43.898847000673413" lon="7.648363010957837">
        <ele>145.30000000000001</ele>
        <time>2025-05-19T08:30:43Z</time>
      </trkpt>
      <trkpt lat="43.898981027305126" lon="7.64849703758955">
        <ele>145.78</ele>
        <time>2025-05-19T08:30:44Z</time>
      </trkpt>
      <trkpt lat="43.899138020351529" lon="7.648594016209245">
        <ele>146.25999999999999</ele>
        <time>2025-05-19T08:30:45Z</time>
      </trkpt>
      <trkpt lat="43.899301970377564" lon="7.648693006485701">
        <ele>146.74000000000001</ele>
        <time>2025-05-19T08:30:46Z</time>
      </trkpt>
      <trkpt lat="43.899471033364534" lon="7.648795014247298">
        <ele>146.74000000000001</ele>
        <time>2025-05-19T08:30:47Z</time>
      </trkpt>
      <trkpt lat="43.899643030017614" lon="7.648900039494038">
        <ele>147.22</ele>
        <time>2025-05-19T08:30:48Z</time>
      </trkpt>
      <trkpt lat="43.900294974446297" lon="7.649288037791848">
        <ele>149.13999999999999</ele>
        <time>2025-05-19T08:30:52Z</time>
      </trkpt>
      <trkpt lat="43.900576019659638" lon="7.64942298643291">
        <ele>149.62</ele>
        <time>2025-05-19T08:30:54Z</time>
      </trkpt>
      <trkpt lat="43.900715997442603" lon="7.649455005303025">
        <ele>150.09999999999999</ele>
        <time>2025-05-19T08:30:55Z</time>
      </trkpt>
      <trkpt lat="43.900857986882329" lon="7.649461962282658">
        <ele>150.09999999999999</ele>
        <time>2025-05-19T08:30:56Z</time>
      </trkpt>
      <trkpt lat="43.901454024016857" lon="7.649360038340092">
        <ele>150.58000000000001</ele>
        <time>2025-05-19T08:31:00Z</time>
      </trkpt>
      <trkpt lat="43.901571035385132" lon="7.649274040013552">
        <ele>151.06</ele>
        <time>2025-05-19T08:31:01Z</time>
      </trkpt>
      <trkpt lat="43.902463959529996" lon="7.648615976795554">
        <ele>152.03</ele>
        <time>2025-05-19T08:31:07Z</time>
      </trkpt>
      <trkpt lat="43.902615001425147" lon="7.648522015661001">
        <ele>152.03</ele>
        <time>2025-05-19T08:31:08Z</time>
      </trkpt>
      <trkpt lat="43.902782974764705" lon="7.648517992347479">
        <ele>152.50999999999999</ele>
        <time>2025-05-19T08:31:09Z</time>
      </trkpt>
      <trkpt lat="43.903515972197056" lon="7.648551017045975">
        <ele>151.06</ele>
        <time>2025-05-19T08:31:13Z</time>
      </trkpt>
      <trkpt lat="43.903671959415078" lon="7.648631986230612">
        <ele>150.58000000000001</ele>
        <time>2025-05-19T08:31:14Z</time>
      </trkpt>
      <trkpt lat="43.903816966339946" lon="7.648750003427267">
        <ele>150.58000000000001</ele>
        <time>2025-05-19T08:31:15Z</time>
      </trkpt>
      <trkpt lat="43.904230026528239" lon="7.649122998118401">
        <ele>148.18000000000001</ele>
        <time>2025-05-19T08:31:18Z</time>
      </trkpt>
      <trkpt lat="43.904310995712876" lon="7.649294994771481">
        <ele>147.22</ele>
        <time>2025-05-19T08:31:19Z</time>
      </trkpt>
      <trkpt lat="43.904388025403023" lon="7.649459028616548">
        <ele>146.74000000000001</ele>
        <time>2025-05-19T08:31:20Z</time>
      </trkpt>
      <trkpt lat="43.904463965445757" lon="7.649621972814202">
        <ele>146.25999999999999</ele>
        <time>2025-05-19T08:31:21Z</time>
      </trkpt>
      <trkpt lat="43.9045549929142" lon="7.649786006659269">
        <ele>146.25999999999999</ele>
        <time>2025-05-19T08:31:22Z</time>
      </trkpt>
      <trkpt lat="43.9046620298177" lon="7.64991600997746">
        <ele>145.78</ele>
        <time>2025-05-19T08:31:23Z</time>
      </trkpt>
      <trkpt lat="43.904767977073789" lon="7.65004500746727">
        <ele>146.25999999999999</ele>
        <time>2025-05-19T08:31:24Z</time>
      </trkpt>
      <trkpt lat="43.904896974563599" lon="7.6501539722085">
        <ele>146.25999999999999</ele>
        <time>2025-05-19T08:31:25Z</time>
      </trkpt>
      <trkpt lat="43.905032007023692" lon="7.650233013555408">
        <ele>146.25999999999999</ele>
        <time>2025-05-19T08:31:26Z</time>
      </trkpt>
      <trkpt lat="43.90517701394856" lon="7.650293027982116">
        <ele>146.74000000000001</ele>
        <time>2025-05-19T08:31:27Z</time>
      </trkpt>
      <trkpt lat="43.905326966196299" lon="7.650342984125018">
        <ele>147.22</ele>
        <time>2025-05-19T08:31:28Z</time>
      </trkpt>
      <trkpt lat="43.905619997531176" lon="7.650410961359739">
        <ele>147.69999999999999</ele>
        <time>2025-05-19T08:31:30Z</time>
      </trkpt>
      <trkpt lat="43.905761986970901" lon="7.650410961359739">
        <ele>148.18000000000001</ele>
        <time>2025-05-19T08:31:31Z</time>
      </trkpt>
      <trkpt lat="43.905915040522814" lon="7.650396041572094">
        <ele>148.66</ele>
        <time>2025-05-19T08:31:32Z</time>
      </trkpt>
      <trkpt lat="43.907195962965488" lon="7.649882985278964">
        <ele>149.62</ele>
        <time>2025-05-19T08:31:40Z</time>
      </trkpt>
      <trkpt lat="43.90764799900353" lon="7.649627001956105">
        <ele>150.09999999999999</ele>
        <time>2025-05-19T08:31:43Z</time>
      </trkpt>
      <trkpt lat="43.908383008092642" lon="7.649377975612879">
        <ele>152.03</ele>
        <time>2025-05-19T08:31:48Z</time>
      </trkpt>
      <trkpt lat="43.909478019922972" lon="7.649391973391175">
        <ele>157.78999999999999</ele>
        <time>2025-05-19T08:31:55Z</time>
      </trkpt>
      <trkpt lat="43.910422995686531" lon="7.650030003860593">
        <ele>159.24000000000001</ele>
        <time>2025-05-19T08:32:02Z</time>
      </trkpt>
      <trkpt lat="43.91106597147882" lon="7.65045203268528">
        <ele>162.12</ele>
        <time>2025-05-19T08:32:07Z</time>
      </trkpt>
      <trkpt lat="43.911355985328555" lon="7.650539958849549">
        <ele>163.08000000000001</ele>
        <time>2025-05-19T08:32:09Z</time>
      </trkpt>
      <trkpt lat="43.911827970296144" lon="7.650556974112988">
        <ele>164.52000000000001</ele>
        <time>2025-05-19T08:32:12Z</time>
      </trkpt>
      <trkpt lat="43.911982029676437" lon="7.650543982163072">
        <ele>165.47999999999999</ele>
        <time>2025-05-19T08:32:13Z</time>
      </trkpt>
      <trkpt lat="43.912125024944544" lon="7.650471981614828">
        <ele>165.96000000000001</ele>
        <time>2025-05-19T08:32:14Z</time>
      </trkpt>
      <trkpt lat="43.912269026041031" lon="7.650399981066585">
        <ele>166.44999999999999</ele>
        <time>2025-05-19T08:32:15Z</time>
      </trkpt>
      <trkpt lat="43.912417972460389" lon="7.650324963033199">
        <ele>167.41</ele>
        <time>2025-05-19T08:32:16Z</time>
      </trkpt>
      <trkpt lat="43.91252500936389" lon="7.650203006342053">
        <ele>167.88999999999999</ele>
        <time>2025-05-19T08:32:17Z</time>
      </trkpt>
      <trkpt lat="43.912607990205288" lon="7.65006504021585">
        <ele>168.84999999999999</ele>
        <time>2025-05-19T08:32:18Z</time>
      </trkpt>
      <trkpt lat="43.912658030167222" lon="7.649905029684305">
        <ele>169.81</ele>
        <time>2025-05-19T08:32:19Z</time>
      </trkpt>
      <trkpt lat="43.912668004631996" lon="7.649736972525716">
        <ele>170.77000000000001</ele>
        <time>2025-05-19T08:32:20Z</time>
      </trkpt>
      <trkpt lat="43.91267797909677" lon="7.649558018893004">
        <ele>171.72999999999999</ele>
        <time>2025-05-19T08:32:21Z</time>
      </trkpt>
      <trkpt lat="43.912689965218306" lon="7.649354003369808">
        <ele>172.21000000000001</ele>
        <time>2025-05-19T08:32:22Z</time>
      </trkpt>
      <trkpt lat="43.91269700601697" lon="7.649231040850282">
        <ele>173.16999999999999</ele>
        <time>2025-05-19T08:32:23Z</time>
      </trkpt>
      <trkpt lat="43.912779986858368" lon="7.649127021431923">
        <ele>173.66</ele>
        <time>2025-05-19T08:32:24Z</time>
      </trkpt>
      <trkpt lat="43.912880988791585" lon="7.649001041427255">
        <ele>174.62</ele>
        <time>2025-05-19T08:32:25Z</time>
      </trkpt>
      <trkpt lat="43.912979979068041" lon="7.648896016180515">
        <ele>175.58000000000001</ele>
        <time>2025-05-19T08:32:26Z</time>
      </trkpt>
      <trkpt lat="43.913120962679386" lon="7.648822003975511">
        <ele>176.06</ele>
        <time>2025-05-19T08:32:27Z</time>
      </trkpt>
      <trkpt lat="43.913267981261015" lon="7.648743968456984">
        <ele>177.02000000000001</ele>
        <time>2025-05-19T08:32:28Z</time>
      </trkpt>
      <trkpt lat="43.913409970700741" lon="7.648684959858656">
        <ele>177.97999999999999</ele>
        <time>2025-05-19T08:32:29Z</time>
      </trkpt>
      <trkpt lat="43.913567969575524" lon="7.648651013150811">
        <ele>178.94</ele>
        <time>2025-05-19T08:32:30Z</time>
      </trkpt>
      <trkpt lat="43.914276994764805" lon="7.64851899817586">
        <ele>182.78999999999999</ele>
        <time>2025-05-19T08:32:35Z</time>
      </trkpt>
      <trkpt lat="43.914419990032911" lon="7.648503994569182">
        <ele>183.27000000000001</ele>
        <time>2025-05-19T08:32:36Z</time>
      </trkpt>
      <trkpt lat="43.914556028321385" lon="7.648557974025607">
        <ele>183.75</ele>
        <time>2025-05-19T08:32:37Z</time>
      </trkpt>
      <trkpt lat="43.914701035246253" lon="7.648615976795554">
        <ele>184.22999999999999</ele>
        <time>2025-05-19T08:32:38Z</time>
      </trkpt>
      <trkpt lat="43.914848975837231" lon="7.648674985393882">
        <ele>184.71000000000001</ele>
        <time>2025-05-19T08:32:39Z</time>
      </trkpt>
      <trkpt lat="43.915755981579423" lon="7.648973967880011">
        <ele>187.59</ele>
        <time>2025-05-19T08:32:45Z</time>
      </trkpt>
      <trkpt lat="43.915914986282587" lon="7.648973967880011">
        <ele>188.08000000000001</ele>
        <time>2025-05-19T08:32:46Z</time>
      </trkpt>
      <trkpt lat="43.916074996814132" lon="7.648960975930095">
        <ele>188.56</ele>
        <time>2025-05-19T08:32:47Z</time>
      </trkpt>
      <trkpt lat="43.917415011674166" lon="7.648635003715754">
        <ele>191.91999999999999</ele>
        <time>2025-05-19T08:32:55Z</time>
      </trkpt>
      <trkpt lat="43.918257979676127" lon="7.648443980142474">
        <ele>193.36000000000001</ele>
        <time>2025-05-19T08:33:00Z</time>
      </trkpt>
      <trkpt lat="43.918422013521194" lon="7.64839000068605">
        <ele>193.84</ele>
        <time>2025-05-19T08:33:01Z</time>
      </trkpt>
      <trkpt lat="43.918578000739217" lon="7.648285981267691">
        <ele>193.84</ele>
        <time>2025-05-19T08:33:02Z</time>
      </trkpt>
      <trkpt lat="43.918732982128859" lon="7.648181961849332">
        <ele>194.31999999999999</ele>
        <time>2025-05-19T08:33:03Z</time>
      </trkpt>
      <trkpt lat="43.918891986832023" lon="7.648077020421624">
        <ele>194.80000000000001</ele>
        <time>2025-05-19T08:33:04Z</time>
      </trkpt>
      <trkpt lat="43.919326001778245" lon="7.647692039608955">
        <ele>195.77000000000001</ele>
        <time>2025-05-19T08:33:07Z</time>
      </trkpt>
      <trkpt lat="43.919456005096436" lon="7.64753102324903">
        <ele>196.72999999999999</ele>
        <time>2025-05-19T08:33:08Z</time>
      </trkpt>
      <trkpt lat="43.920072996988893" lon="7.646706998348236">
        <ele>199.61000000000001</ele>
        <time>2025-05-19T08:33:13Z</time>
      </trkpt>
      <trkpt lat="43.920213980600238" lon="7.646599961444736">
        <ele>200.09</ele>
        <time>2025-05-19T08:33:14Z</time>
      </trkpt>
      <trkpt lat="43.920357981696725" lon="7.646493008360267">
        <ele>201.05000000000001</ele>
        <time>2025-05-19T08:33:15Z</time>
      </trkpt>
      <trkpt lat="43.920781016349792" lon="7.646236019209027">
        <ele>203.94</ele>
        <time>2025-05-19T08:33:18Z</time>
      </trkpt>
      <trkpt lat="43.920915964990854" lon="7.646163012832403">
        <ele>205.38</ele>
        <time>2025-05-19T08:33:19Z</time>
      </trkpt>
      <trkpt lat="43.921039011329412" lon="7.646174998953939">
        <ele>206.81999999999999</ele>
        <time>2025-05-19T08:33:20Z</time>
      </trkpt>
      <trkpt lat="43.921181000769138" lon="7.646207017824054">
        <ele>208.25999999999999</ele>
        <time>2025-05-19T08:33:21Z</time>
      </trkpt>
      <trkpt lat="43.921317961066961" lon="7.646268960088491">
        <ele>209.69999999999999</ele>
        <time>2025-05-19T08:33:22Z</time>
      </trkpt>
      <trkpt lat="43.921452993527055" lon="7.64630600810051">
        <ele>210.66999999999999</ele>
        <time>2025-05-19T08:33:23Z</time>
      </trkpt>
      <trkpt lat="43.921585008502007" lon="7.646327968686819">
        <ele>212.11000000000001</ele>
        <time>2025-05-19T08:33:24Z</time>
      </trkpt>
      <trkpt lat="43.921696990728378" lon="7.646294021978974">
        <ele>213.06999999999999</ele>
        <time>2025-05-19T08:33:25Z</time>
      </trkpt>
      <trkpt lat="43.921826994046569" lon="7.646223027259111">
        <ele>213.55000000000001</ele>
        <time>2025-05-19T08:33:26Z</time>
      </trkpt>
      <trkpt lat="43.921964960172772" lon="7.646131999790669">
        <ele>214.50999999999999</ele>
        <time>2025-05-19T08:33:27Z</time>
      </trkpt>
      <trkpt lat="43.922218009829521" lon="7.645954973995686">
        <ele>215.94999999999999</ele>
        <time>2025-05-19T08:33:29Z</time>
      </trkpt>
      <trkpt lat="43.922355975955725" lon="7.645918009802699">
        <ele>216.43000000000001</ele>
        <time>2025-05-19T08:33:30Z</time>
      </trkpt>
      <trkpt lat="43.922487990930676" lon="7.645944999530911">
        <ele>216.91</ele>
        <time>2025-05-19T08:33:31Z</time>
      </trkpt>
      <trkpt lat="43.922628974542022" lon="7.645972995087504">
        <ele>217.88</ele>
        <time>2025-05-19T08:33:32Z</time>
      </trkpt>
      <trkpt lat="43.922780016437173" lon="7.646003002300859">
        <ele>218.36000000000001</ele>
        <time>2025-05-19T08:33:33Z</time>
      </trkpt>
      <trkpt lat="43.922932986170053" lon="7.646081959828734">
        <ele>218.84</ele>
        <time>2025-05-19T08:33:34Z</time>
      </trkpt>
      <trkpt lat="43.923074975609779" lon="7.646173993125558">
        <ele>219.31999999999999</ele>
        <time>2025-05-19T08:33:35Z</time>
      </trkpt>
      <trkpt lat="43.923212019726634" lon="7.646280024200678">
        <ele>220.28</ele>
        <time>2025-05-19T08:33:36Z</time>
      </trkpt>
      <trkpt lat="43.923313021659851" lon="7.646423019468784">
        <ele>221.24000000000001</ele>
        <time>2025-05-19T08:33:37Z</time>
      </trkpt>
      <trkpt lat="43.923403965309262" lon="7.646616976708174">
        <ele>222.19999999999999</ele>
        <time>2025-05-19T08:33:38Z</time>
      </trkpt>
      <trkpt lat="43.923963038250804" lon="7.648008037358522">
        <ele>226.53</ele>
        <time>2025-05-19T08:33:45Z</time>
      </trkpt>
      <trkpt lat="43.924153978005052" lon="7.648312970995903">
        <ele>226.53</ele>
        <time>2025-05-19T08:33:47Z</time>
      </trkpt>
      <trkpt lat="43.924251040443778" lon="7.648441968485713">
        <ele>226.53</ele>
        <time>2025-05-19T08:33:48Z</time>
      </trkpt>
      <trkpt lat="43.924349024891853" lon="7.648484967648983">
        <ele>226.53</ele>
        <time>2025-05-19T08:33:49Z</time>
      </trkpt>
      <trkpt lat="43.924477016553283" lon="7.648524027317762">
        <ele>226.05000000000001</ele>
        <time>2025-05-19T08:33:50Z</time>
      </trkpt>
      <trkpt lat="43.924596039578319" lon="7.648534001782537">
        <ele>226.05000000000001</ele>
        <time>2025-05-19T08:33:51Z</time>
      </trkpt>
      <trkpt lat="43.924756972119212" lon="7.648500977084041">
        <ele>226.05000000000001</ele>
        <time>2025-05-19T08:33:52Z</time>
      </trkpt>
      <trkpt lat="43.924872977659106" lon="7.648429982364178">
        <ele>225.56999999999999</ele>
        <time>2025-05-19T08:33:53Z</time>
      </trkpt>
      <trkpt lat="43.925010021775961" lon="7.648345995694399">
        <ele>225.56999999999999</ele>
        <time>2025-05-19T08:33:54Z</time>
      </trkpt>
      <trkpt lat="43.925115969032049" lon="7.648222027346492">
        <ele>225.09</ele>
        <time>2025-05-19T08:33:55Z</time>
      </trkpt>
      <trkpt lat="43.925204984843731" lon="7.648079032078385">
        <ele>224.61000000000001</ele>
        <time>2025-05-19T08:33:56Z</time>
      </trkpt>
      <trkpt lat="43.925290983170271" lon="7.647914998233318">
        <ele>224.61000000000001</ele>
        <time>2025-05-19T08:33:57Z</time>
      </trkpt>
      <trkpt lat="43.92537597566843" lon="7.647751970216632">
        <ele>224.12</ele>
        <time>2025-05-19T08:33:58Z</time>
      </trkpt>
      <trkpt lat="43.92548100091517" lon="7.647610986605287">
        <ele>223.63999999999999</ele>
        <time>2025-05-19T08:33:59Z</time>
      </trkpt>
      <trkpt lat="43.925604969263077" lon="7.647499004378915">
        <ele>223.63999999999999</ele>
        <time>2025-05-19T08:34:00Z</time>
      </trkpt>
      <trkpt lat="43.925744025036693" lon="7.647398002445698">
        <ele>223.16</ele>
        <time>2025-05-19T08:34:01Z</time>
      </trkpt>
      <trkpt lat="43.925893977284431" lon="7.647307980805636">
        <ele>222.68000000000001</ele>
        <time>2025-05-19T08:34:02Z</time>
      </trkpt>
      <trkpt lat="43.926038984209299" lon="7.647246960550547">
        <ele>222.68000000000001</ele>
        <time>2025-05-19T08:34:03Z</time>
      </trkpt>
      <trkpt lat="43.926180973649025" lon="7.647222988307476">
        <ele>222.68000000000001</ele>
        <time>2025-05-19T08:34:04Z</time>
      </trkpt>
      <trkpt lat="43.926303014159203" lon="7.647237991914153">
        <ele>222.19999999999999</ele>
        <time>2025-05-19T08:34:05Z</time>
      </trkpt>
      <trkpt lat="43.926431005820632" lon="7.647284008562565">
        <ele>222.19999999999999</ele>
        <time>2025-05-19T08:34:06Z</time>
      </trkpt>
      <trkpt lat="43.926538964733481" lon="7.647370006889105">
        <ele>222.19999999999999</ele>
        <time>2025-05-19T08:34:07Z</time>
      </trkpt>
      <trkpt lat="43.926656981930137" lon="7.647497998550534">
        <ele>222.19999999999999</ele>
        <time>2025-05-19T08:34:08Z</time>
      </trkpt>
      <trkpt lat="43.926774999126792" lon="7.647633031010628">
        <ele>222.19999999999999</ele>
        <time>2025-05-19T08:34:09Z</time>
      </trkpt>
      <trkpt lat="43.92743700183928" lon="7.648683032020927">
        <ele>227.00999999999999</ele>
        <time>2025-05-19T08:34:16Z</time>
      </trkpt>
      <trkpt lat="43.927516965195537" lon="7.648785039782524">
        <ele>227.97</ele>
        <time>2025-05-19T08:34:17Z</time>
      </trkpt>
      <trkpt lat="43.927606986835599" lon="7.648876989260316">
        <ele>228.44999999999999</ele>
        <time>2025-05-19T08:34:18Z</time>
      </trkpt>
      <trkpt lat="43.927703965455294" lon="7.648962987586856">
        <ele>229.41</ele>
        <time>2025-05-19T08:34:19Z</time>
      </trkpt>
      <trkpt lat="43.927804967388511" lon="7.649052003398538">
        <ele>229.88999999999999</ele>
        <time>2025-05-19T08:34:20Z</time>
      </trkpt>
      <trkpt lat="43.927905969321728" lon="7.649141019210219">
        <ele>230.37</ele>
        <time>2025-05-19T08:34:21Z</time>
      </trkpt>
      <trkpt lat="43.928373008966446" lon="7.649521976709366">
        <ele>233.25999999999999</ele>
        <time>2025-05-19T08:34:25Z</time>
      </trkpt>
      <trkpt lat="43.928490020334721" lon="7.649617027491331">
        <ele>234.22</ele>
        <time>2025-05-19T08:34:26Z</time>
      </trkpt>
      <trkpt lat="43.929126961156726" lon="7.650180039927363">
        <ele>237.58000000000001</ele>
        <time>2025-05-19T08:34:31Z</time>
      </trkpt>
      <trkpt lat="43.929327037185431" lon="7.650451026856899">
        <ele>238.53999999999999</ele>
        <time>2025-05-19T08:34:33Z</time>
      </trkpt>
      <trkpt lat="43.929407000541687" lon="7.65060500241816">
        <ele>239.02000000000001</ele>
        <time>2025-05-19T08:34:34Z</time>
      </trkpt>
      <trkpt lat="43.929486963897943" lon="7.650760989636183">
        <ele>239.99000000000001</ele>
        <time>2025-05-19T08:34:35Z</time>
      </trkpt>
      <trkpt lat="43.930047964677215" lon="7.652138974517584">
        <ele>242.38999999999999</ele>
        <time>2025-05-19T08:34:44Z</time>
      </trkpt>
      <trkpt lat="43.930163970217109" lon="7.652423959225416">
        <ele>242.87</ele>
        <time>2025-05-19T08:34:46Z</time>
      </trkpt>
      <trkpt lat="43.930220967158675" lon="7.65255999751389">
        <ele>242.87</ele>
        <time>2025-05-19T08:34:47Z</time>
      </trkpt>
      <trkpt lat="43.930266983807087" lon="7.652671979740262">
        <ele>242.87</ele>
        <time>2025-05-19T08:34:48Z</time>
      </trkpt>
      <trkpt lat="43.930303025990725" lon="7.652756972238421">
        <ele>242.87</ele>
        <time>2025-05-19T08:34:49Z</time>
      </trkpt>
      <trkpt lat="43.930335966870189" lon="7.652836013585329">
        <ele>242.87</ele>
        <time>2025-05-19T08:34:50Z</time>
      </trkpt>
      <trkpt lat="43.930365974083543" lon="7.652914971113205">
        <ele>242.87</ele>
        <time>2025-05-19T08:34:51Z</time>
      </trkpt>
      <trkpt lat="43.9304010104388" lon="7.653004992753267">
        <ele>242.87</ele>
        <time>2025-05-19T08:34:52Z</time>
      </trkpt>
      <trkpt lat="43.93044400960207" lon="7.653114963322878">
        <ele>242.87</ele>
        <time>2025-05-19T08:34:53Z</time>
      </trkpt>
      <trkpt lat="43.930590022355318" lon="7.653492987155914">
        <ele>242.87</ele>
        <time>2025-05-19T08:34:56Z</time>
      </trkpt>
      <trkpt lat="43.930737040936947" lon="7.653706977143884">
        <ele>243.34999999999999</ele>
        <time>2025-05-19T08:34:58Z</time>
      </trkpt>
      <trkpt lat="43.930892022326589" lon="7.653928007930517">
        <ele>243.34999999999999</ele>
        <time>2025-05-19T08:35:00Z</time>
      </trkpt>
      <trkpt lat="43.93096100538969" lon="7.654023980721831">
        <ele>242.87</ele>
        <time>2025-05-19T08:35:01Z</time>
      </trkpt>
      <trkpt lat="43.931451011449099" lon="7.654788997024298">
        <ele>242.87</ele>
        <time>2025-05-19T08:35:07Z</time>
      </trkpt>
      <trkpt lat="43.931484958156943" lon="7.654915982857347">
        <ele>242.87</ele>
        <time>2025-05-19T08:35:08Z</time>
      </trkpt>
      <trkpt lat="43.931537009775639" lon="7.655110023915768">
        <ele>243.34999999999999</ele>
        <time>2025-05-19T08:35:09Z</time>
      </trkpt>
      <trkpt lat="43.931657960638404" lon="7.655674964189529">
        <ele>244.78999999999999</ele>
        <time>2025-05-19T08:35:12Z</time>
      </trkpt>
      <trkpt lat="43.931706994771957" lon="7.655870011076331">
        <ele>244.78999999999999</ele>
        <time>2025-05-19T08:35:13Z</time>
      </trkpt>
      <trkpt lat="43.931805985048413" lon="7.656251974403858">
        <ele>245.27000000000001</ele>
        <time>2025-05-19T08:35:15Z</time>
      </trkpt>
      <trkpt lat="43.931854013353586" lon="7.656436963006854">
        <ele>245.75</ele>
        <time>2025-05-19T08:35:16Z</time>
      </trkpt>
      <trkpt lat="43.932129023596644" lon="7.657692991197109">
        <ele>246.22999999999999</ele>
        <time>2025-05-19T08:35:23Z</time>
      </trkpt>
      <trkpt lat="43.932360028848052" lon="7.659780001267791">
        <ele>248.16</ele>
        <time>2025-05-19T08:35:34Z</time>
      </trkpt>
      <trkpt lat="43.932522973045707" lon="7.66059497371316">
        <ele>248.63999999999999</ele>
        <time>2025-05-19T08:35:39Z</time>
      </trkpt>
      <trkpt lat="43.9325060416013" lon="7.660730006173253">
        <ele>248.63999999999999</ele>
        <time>2025-05-19T08:35:40Z</time>
      </trkpt>
      <trkpt lat="43.932450972497463" lon="7.660839976742864">
        <ele>248.63999999999999</ele>
        <time>2025-05-19T08:35:41Z</time>
      </trkpt>
      <trkpt lat="43.932374026626348" lon="7.660967968404293">
        <ele>248.16</ele>
        <time>2025-05-19T08:35:42Z</time>
      </trkpt>
      <trkpt lat="43.932288028299809" lon="7.661049021407962">
        <ele>248.16</ele>
        <time>2025-05-19T08:35:43Z</time>
      </trkpt>
      <trkpt lat="43.932188032194972" lon="7.661144994199276">
        <ele>248.16</ele>
        <time>2025-05-19T08:35:44Z</time>
      </trkpt>
      <trkpt lat="43.932006983086467" lon="7.661315985023975">
        <ele>249.59999999999999</ele>
        <time>2025-05-19T08:35:46Z</time>
      </trkpt>
      <trkpt lat="43.93192601390183" lon="7.661414975300431">
        <ele>250.56</ele>
        <time>2025-05-19T08:35:47Z</time>
      </trkpt>
      <trkpt lat="43.931856025010347" lon="7.661520000547171">
        <ele>251.52000000000001</ele>
        <time>2025-05-19T08:35:48Z</time>
      </trkpt>
      <trkpt lat="43.931795004755259" lon="7.661612033843994">
        <ele>252</ele>
        <time>2025-05-19T08:35:49Z</time>
      </trkpt>
      <trkpt lat="43.931759968400002" lon="7.66173399053514">
        <ele>252.47999999999999</ele>
        <time>2025-05-19T08:35:50Z</time>
      </trkpt>
      <trkpt lat="43.931723004207015" lon="7.661861982196569">
        <ele>252.96000000000001</ele>
        <time>2025-05-19T08:35:51Z</time>
      </trkpt>
      <trkpt lat="43.931687967851758" lon="7.661985028535128">
        <ele>253.93000000000001</ele>
        <time>2025-05-19T08:35:52Z</time>
      </trkpt>
      <trkpt lat="43.931656032800674" lon="7.662097010761499">
        <ele>254.41</ele>
        <time>2025-05-19T08:35:53Z</time>
      </trkpt>
      <trkpt lat="43.93158596009016" lon="7.662417031824589">
        <ele>256.32999999999998</ele>
        <time>2025-05-19T08:35:56Z</time>
      </trkpt>
      <trkpt lat="43.931571962311864" lon="7.662499006837606">
        <ele>256.81</ele>
        <time>2025-05-19T08:35:57Z</time>
      </trkpt>
      <trkpt lat="43.931557964533567" lon="7.662580981850624">
        <ele>257.29000000000002</ele>
        <time>2025-05-19T08:35:58Z</time>
      </trkpt>
      <trkpt lat="43.931542038917542" lon="7.662677960470319">
        <ele>257.76999999999998</ele>
        <time>2025-05-19T08:35:59Z</time>
      </trkpt>
      <trkpt lat="43.931525023654103" lon="7.662778040394187">
        <ele>258.25</ele>
        <time>2025-05-19T08:36:00Z</time>
      </trkpt>
      <trkpt lat="43.931508008390665" lon="7.662879964336753">
        <ele>258.73000000000002</ele>
        <time>2025-05-19T08:36:01Z</time>
      </trkpt>
      <trkpt lat="43.931455034762621" lon="7.663196967914701">
        <ele>259.20999999999998</ele>
        <time>2025-05-19T08:36:04Z</time>
      </trkpt>
      <trkpt lat="43.931483030319214" lon="7.663441970944405">
        <ele>259.69</ele>
        <time>2025-05-19T08:36:06Z</time>
      </trkpt>
      <trkpt lat="43.931601969525218" lon="7.663843967020512">
        <ele>261.62</ele>
        <time>2025-05-19T08:36:10Z</time>
      </trkpt>
      <trkpt lat="43.931643962860107" lon="7.663908004760742">
        <ele>261.62</ele>
        <time>2025-05-19T08:36:11Z</time>
      </trkpt>
      <trkpt lat="43.931915033608675" lon="7.664160970598459">
        <ele>263.54000000000002</ele>
        <time>2025-05-19T08:36:16Z</time>
      </trkpt>
      <trkpt lat="43.932052999734879" lon="7.66426800750196">
        <ele>263.54000000000002</ele>
        <time>2025-05-19T08:36:18Z</time>
      </trkpt>
      <trkpt lat="43.932135980576277" lon="7.664326010271907">
        <ele>263.54000000000002</ele>
        <time>2025-05-19T08:36:19Z</time>
      </trkpt>
      <trkpt lat="43.932245029136539" lon="7.664402034133673">
        <ele>264.01999999999998</ele>
        <time>2025-05-19T08:36:20Z</time>
      </trkpt>
      <trkpt lat="43.932290961965919" lon="7.66446297056973">
        <ele>264.01999999999998</ele>
        <time>2025-05-19T08:36:21Z</time>
      </trkpt>
      <trkpt lat="43.932354999706149" lon="7.664547963067889">
        <ele>264.01999999999998</ele>
        <time>2025-05-19T08:36:22Z</time>
      </trkpt>
      <trkpt lat="43.932374026626348" lon="7.664573024958372">
        <ele>264.01999999999998</ele>
        <time>2025-05-19T08:36:23Z</time>
      </trkpt>
      <trkpt lat="43.932410990819335" lon="7.664793971925974">
        <ele>264.5</ele>
        <time>2025-05-19T08:36:24Z</time>
      </trkpt>
      <trkpt lat="43.932437980547547" lon="7.664960017427802">
        <ele>264.5</ele>
        <time>2025-05-19T08:36:25Z</time>
      </trkpt>
      <trkpt lat="43.932394981384277" lon="7.66523796133697">
        <ele>263.54000000000002</ele>
        <time>2025-05-19T08:36:28Z</time>
      </trkpt>
      <trkpt lat="43.932351982221007" lon="7.665353966876864">
        <ele>263.54000000000002</ele>
        <time>2025-05-19T08:36:29Z</time>
      </trkpt>
      <trkpt lat="43.932275036349893" lon="7.665560999885202">
        <ele>264.01999999999998</ele>
        <time>2025-05-19T08:36:31Z</time>
      </trkpt>
      <trkpt lat="43.932230025529861" lon="7.665659990161657">
        <ele>264.01999999999998</ele>
        <time>2025-05-19T08:36:32Z</time>
      </trkpt>
      <trkpt lat="43.932018969208002" lon="7.666114959865809">
        <ele>264.98000000000002</ele>
        <time>2025-05-19T08:36:36Z</time>
      </trkpt>
      <trkpt lat="43.931960966438055" lon="7.666244963183999">
        <ele>264.5</ele>
        <time>2025-05-19T08:36:37Z</time>
      </trkpt>
      <trkpt lat="43.931913021951914" lon="7.666359962895513">
        <ele>264.5</ele>
        <time>2025-05-19T08:36:38Z</time>
      </trkpt>
      <trkpt lat="43.931872034445405" lon="7.666456019505858">
        <ele>264.01999999999998</ele>
        <time>2025-05-19T08:36:39Z</time>
      </trkpt>
      <trkpt lat="43.931833980605006" lon="7.66654503531754">
        <ele>263.06</ele>
        <time>2025-05-19T08:36:40Z</time>
      </trkpt>
      <trkpt lat="43.931793998926878" lon="7.666641008108854">
        <ele>262.10000000000002</ele>
        <time>2025-05-19T08:36:41Z</time>
      </trkpt>
      <trkpt lat="43.931744964793324" lon="7.666757013648748">
        <ele>261.62</ele>
        <time>2025-05-19T08:36:42Z</time>
      </trkpt>
      <trkpt lat="43.931446988135576" lon="7.667455980554223">
        <ele>257.29000000000002</ele>
        <time>2025-05-19T08:36:48Z</time>
      </trkpt>
      <trkpt lat="43.931029988452792" lon="7.668550992384553">
        <ele>253.93000000000001</ele>
        <time>2025-05-19T08:36:58Z</time>
      </trkpt>
      <trkpt lat="43.930982965976" lon="7.668686024844647">
        <ele>253.93000000000001</ele>
        <time>2025-05-19T08:36:59Z</time>
      </trkpt>
      <trkpt lat="43.930949019268155" lon="7.668848969042301">
        <ele>253.44</ele>
        <time>2025-05-19T08:37:00Z</time>
      </trkpt>
      <trkpt lat="43.930934015661478" lon="7.668987018987536">
        <ele>253.44</ele>
        <time>2025-05-19T08:37:01Z</time>
      </trkpt>
      <trkpt lat="43.930920017883182" lon="7.669122973456979">
        <ele>253.44</ele>
        <time>2025-05-19T08:37:02Z</time>
      </trkpt>
      <trkpt lat="43.930907025933266" lon="7.669250965118408">
        <ele>253.44</ele>
        <time>2025-05-19T08:37:03Z</time>
      </trkpt>
      <trkpt lat="43.930850028991699" lon="7.669654972851276">
        <ele>254.41</ele>
        <time>2025-05-19T08:37:07Z</time>
      </trkpt>
      <trkpt lat="43.930818010121584" lon="7.669742982834578">
        <ele>254.88999999999999</ele>
        <time>2025-05-19T08:37:08Z</time>
      </trkpt>
      <trkpt lat="43.930781967937946" lon="7.669839961454272">
        <ele>254.88999999999999</ele>
        <time>2025-05-19T08:37:09Z</time>
      </trkpt>
      <trkpt lat="43.930734023451805" lon="7.669952027499676">
        <ele>255.37</ele>
        <time>2025-05-19T08:37:10Z</time>
      </trkpt>
      <trkpt lat="43.930684989318252" lon="7.670067027211189">
        <ele>255.84999999999999</ele>
        <time>2025-05-19T08:37:11Z</time>
      </trkpt>
      <trkpt lat="43.93063897266984" lon="7.670203987509012">
        <ele>256.32999999999998</ele>
        <time>2025-05-19T08:37:12Z</time>
      </trkpt>
      <trkpt lat="43.930649030953646" lon="7.670385958626866">
        <ele>256.81</ele>
        <time>2025-05-19T08:37:13Z</time>
      </trkpt>
      <trkpt lat="43.930663028731942" lon="7.670549992471933">
        <ele>257.29000000000002</ele>
        <time>2025-05-19T08:37:14Z</time>
      </trkpt>
      <trkpt lat="43.930886993184686" lon="7.672092011198402">
        <ele>257.76999999999998</ele>
        <time>2025-05-19T08:37:22Z</time>
      </trkpt>
      <trkpt lat="43.931459980085492" lon="7.674091011285782">
        <ele>257.76999999999998</ele>
        <time>2025-05-19T08:37:31Z</time>
      </trkpt>
      <trkpt lat="43.931525023654103" lon="7.674314975738525">
        <ele>257.76999999999998</ele>
        <time>2025-05-19T08:37:32Z</time>
      </trkpt>
      <trkpt lat="43.931571962311864" lon="7.674557967111468">
        <ele>257.76999999999998</ele>
        <time>2025-05-19T08:37:33Z</time>
      </trkpt>
      <trkpt lat="43.931934982538223" lon="7.676578005775809">
        <ele>260.64999999999998</ele>
        <time>2025-05-19T08:37:42Z</time>
      </trkpt>
      <trkpt lat="43.932003965601325" lon="7.676713038235903">
        <ele>261.62</ele>
        <time>2025-05-19T08:37:43Z</time>
      </trkpt>
      <trkpt lat="43.932109996676445" lon="7.676824014633894">
        <ele>262.10000000000002</ele>
        <time>2025-05-19T08:37:44Z</time>
      </trkpt>
      <trkpt lat="43.93317399546504" lon="7.677802015095949">
        <ele>266.42000000000002</ele>
        <time>2025-05-19T08:37:52Z</time>
      </trkpt>
      <trkpt lat="43.93405300565064" lon="7.678439039736986">
        <ele>269.79000000000002</ele>
        <time>2025-05-19T08:37:58Z</time>
      </trkpt>
      <trkpt lat="43.934190971776843" lon="7.678564013913274">
        <ele>270.26999999999998</ele>
        <time>2025-05-19T08:37:59Z</time>
      </trkpt>
      <trkpt lat="43.934328015893698" lon="7.678709020838141">
        <ele>270.75</ele>
        <time>2025-05-19T08:38:00Z</time>
      </trkpt>
      <trkpt lat="43.935135025531054" lon="7.679937975481153">
        <ele>275.56</ele>
        <time>2025-05-19T08:38:07Z</time>
      </trkpt>
      <trkpt lat="43.935363013297319" lon="7.680450025945902">
        <ele>277.48000000000002</ele>
        <time>2025-05-19T08:38:10Z</time>
      </trkpt>
      <trkpt lat="43.935437025502324" lon="7.68059796653688">
        <ele>277.95999999999998</ele>
        <time>2025-05-19T08:38:11Z</time>
      </trkpt>
      <trkpt lat="43.935531992465258" lon="7.680699974298477">
        <ele>278.44</ele>
        <time>2025-05-19T08:38:12Z</time>
      </trkpt>
      <trkpt lat="43.935623019933701" lon="7.680797958746553">
        <ele>279.39999999999998</ele>
        <time>2025-05-19T08:38:13Z</time>
      </trkpt>
      <trkpt lat="43.935724021866918" lon="7.680890997871757">
        <ele>279.88</ele>
        <time>2025-05-19T08:38:14Z</time>
      </trkpt>
      <trkpt lat="43.93583700992167" lon="7.68094003200531">
        <ele>280.83999999999997</ele>
        <time>2025-05-19T08:38:15Z</time>
      </trkpt>
      <trkpt lat="43.935953015461564" lon="7.680989988148212">
        <ele>281.31999999999999</ele>
        <time>2025-05-19T08:38:16Z</time>
      </trkpt>
      <trkpt lat="43.936070026829839" lon="7.681040028110147">
        <ele>281.80000000000001</ele>
        <time>2025-05-19T08:38:17Z</time>
      </trkpt>
      <trkpt lat="43.936191983520985" lon="7.68109199590981">
        <ele>282.27999999999997</ele>
        <time>2025-05-19T08:38:18Z</time>
      </trkpt>
      <trkpt lat="43.936497000977397" lon="7.681266004219651">
        <ele>284.69</ele>
        <time>2025-05-19T08:38:21Z</time>
      </trkpt>
      <trkpt lat="43.936575958505273" lon="7.681374968960881">
        <ele>285.17000000000002</ele>
        <time>2025-05-19T08:38:22Z</time>
      </trkpt>
      <trkpt lat="43.936652988195419" lon="7.681500026956201">
        <ele>285.64999999999998</ele>
        <time>2025-05-19T08:38:23Z</time>
      </trkpt>
      <trkpt lat="43.93725598230958" lon="7.682706015184522">
        <ele>294.30000000000001</ele>
        <time>2025-05-19T08:38:31Z</time>
      </trkpt>
      <trkpt lat="43.937536021694541" lon="7.683081021532416">
        <ele>297.18000000000001</ele>
        <time>2025-05-19T08:38:34Z</time>
      </trkpt>
      <trkpt lat="43.937631994485855" lon="7.683199038729072">
        <ele>298.14999999999998</ele>
        <time>2025-05-19T08:38:35Z</time>
      </trkpt>
      <trkpt lat="43.938281005248427" lon="7.683775965124369">
        <ele>303.91000000000003</ele>
        <time>2025-05-19T08:38:41Z</time>
      </trkpt>
      <trkpt lat="43.939257999882102" lon="7.684589009732008">
        <ele>314.97000000000003</ele>
        <time>2025-05-19T08:38:50Z</time>
      </trkpt>
      <trkpt lat="43.93933997489512" lon="7.684634020552039">
        <ele>316.88999999999999</ele>
        <time>2025-05-19T08:38:51Z</time>
      </trkpt>
      <trkpt lat="43.939434019848704" lon="7.684626979753375">
        <ele>318.32999999999998</ele>
        <time>2025-05-19T08:38:52Z</time>
      </trkpt>
      <trkpt lat="43.939535021781921" lon="7.684620022773743">
        <ele>320.25999999999999</ele>
        <time>2025-05-19T08:38:53Z</time>
      </trkpt>
      <trkpt lat="43.939633006229997" lon="7.684624968096614">
        <ele>321.69999999999999</ele>
        <time>2025-05-19T08:38:54Z</time>
      </trkpt>
      <trkpt lat="43.939739037305117" lon="7.684666039422154">
        <ele>323.13999999999999</ele>
        <time>2025-05-19T08:38:55Z</time>
      </trkpt>
      <trkpt lat="43.939981022849679" lon="7.684810040518642">
        <ele>327.47000000000003</ele>
        <time>2025-05-19T08:38:58Z</time>
      </trkpt>
      <trkpt lat="43.940036008134484" lon="7.684858990833163">
        <ele>328.91000000000003</ele>
        <time>2025-05-19T08:38:59Z</time>
      </trkpt>
      <trkpt lat="43.940087975934148" lon="7.684907019138336">
        <ele>330.35000000000002</ele>
        <time>2025-05-19T08:39:00Z</time>
      </trkpt>
      <trkpt lat="43.94019702449441" lon="7.684924034401774">
        <ele>332.26999999999998</ele>
        <time>2025-05-19T08:39:01Z</time>
      </trkpt>
      <trkpt lat="43.940269025042653" lon="7.684911964461207">
        <ele>333.70999999999998</ele>
        <time>2025-05-19T08:39:02Z</time>
      </trkpt>
      <trkpt lat="43.940339013934135" lon="7.684899978339672">
        <ele>335.16000000000003</ele>
        <time>2025-05-19T08:39:03Z</time>
      </trkpt>
      <trkpt lat="43.940377989783883" lon="7.68489402718842">
        <ele>336.60000000000002</ele>
        <time>2025-05-19T08:39:04Z</time>
      </trkpt>
      <trkpt lat="43.940377989783883" lon="7.68489402718842">
        <ele>338.04000000000002</ele>
        <time>2025-05-19T08:39:05Z</time>
      </trkpt>
      <trkpt lat="43.940587034448981" lon="7.684976002201438">
        <ele>339</ele>
        <time>2025-05-19T08:39:07Z</time>
      </trkpt>
      <trkpt lat="43.940708991140127" lon="7.68502302467823">
        <ele>339.48000000000002</ele>
        <time>2025-05-19T08:39:08Z</time>
      </trkpt>
      <trkpt lat="43.941298993304372" lon="7.685465002432466">
        <ele>341.41000000000003</ele>
        <time>2025-05-19T08:39:14Z</time>
      </trkpt>
      <trkpt lat="43.941475013270974" lon="7.685598023235798">
        <ele>342.37</ele>
        <time>2025-05-19T08:39:16Z</time>
      </trkpt>
      <trkpt lat="43.941643992438912" lon="7.685666000470519">
        <ele>342.85000000000002</ele>
        <time>2025-05-19T08:39:18Z</time>
      </trkpt>
      <trkpt lat="43.941666036844254" lon="7.685688966885209">
        <ele>343.32999999999998</ele>
        <time>2025-05-19T08:39:19Z</time>
      </trkpt>
      <trkpt lat="43.941794028505683" lon="7.68581603653729">
        <ele>344.29000000000002</ele>
        <time>2025-05-19T08:39:21Z</time>
      </trkpt>
      <trkpt lat="43.941868962720037" lon="7.685878984630108">
        <ele>344.76999999999998</ele>
        <time>2025-05-19T08:39:22Z</time>
      </trkpt>
      <trkpt lat="43.941937023773789" lon="7.685871021822095">
        <ele>344.76999999999998</ele>
        <time>2025-05-19T08:39:23Z</time>
      </trkpt>
      <trkpt lat="43.942130981013179" lon="7.685846965759993">
        <ele>346.20999999999998</ele>
        <time>2025-05-19T08:39:25Z</time>
      </trkpt>
      <trkpt lat="43.942238017916679" lon="7.685842020437121">
        <ele>346.69</ele>
        <time>2025-05-19T08:39:26Z</time>
      </trkpt>
      <trkpt lat="43.942359974607825" lon="7.685857024043798">
        <ele>347.64999999999998</ele>
        <time>2025-05-19T08:39:27Z</time>
      </trkpt>
      <trkpt lat="43.942487966269255" lon="7.685874039307237">
        <ele>348.62</ele>
        <time>2025-05-19T08:39:28Z</time>
      </trkpt>
      <trkpt lat="43.942610006779432" lon="7.685888959094882">
        <ele>349.57999999999998</ele>
        <time>2025-05-19T08:39:29Z</time>
      </trkpt>
      <trkpt lat="43.942716959863901" lon="7.68590203486383">
        <ele>350.54000000000002</ele>
        <time>2025-05-19T08:39:30Z</time>
      </trkpt>
      <trkpt lat="43.942817961797118" lon="7.685866998508573">
        <ele>351.5</ele>
        <time>2025-05-19T08:39:31Z</time>
      </trkpt>
      <trkpt lat="43.943090038374066" lon="7.68577697686851">
        <ele>355.82999999999998</ele>
        <time>2025-05-19T08:39:34Z</time>
      </trkpt>
      <trkpt lat="43.943125996738672" lon="7.685790974646807">
        <ele>356.79000000000002</ele>
        <time>2025-05-19T08:39:35Z</time>
      </trkpt>
      <trkpt lat="43.943153992295265" lon="7.685802038758993">
        <ele>357.75</ele>
        <time>2025-05-19T08:39:36Z</time>
      </trkpt>
      <trkpt lat="43.943189028650522" lon="7.685880996286869">
        <ele>358.23000000000002</ele>
        <time>2025-05-19T08:39:38Z</time>
      </trkpt>
      <trkpt lat="43.943133037537336" lon="7.685936987400055">
        <ele>358.23000000000002</ele>
        <time>2025-05-19T08:39:39Z</time>
      </trkpt>
      <trkpt lat="43.943123985081911" lon="7.6859450340271">
        <ele>358.23000000000002</ele>
        <time>2025-05-19T08:39:40Z</time>
      </trkpt>
      <trkpt lat="43.943053996190429" lon="7.685957020148635">
        <ele>358.23000000000002</ele>
        <time>2025-05-19T08:39:41Z</time>
      </trkpt>
      <trkpt lat="43.94297101534903" lon="7.685971017926931">
        <ele>358.23000000000002</ele>
        <time>2025-05-19T08:39:42Z</time>
      </trkpt>
      <trkpt lat="43.942866995930672" lon="7.68598803319037">
        <ele>358.70999999999998</ele>
        <time>2025-05-19T08:39:43Z</time>
      </trkpt>
      <trkpt lat="43.942561978474259" lon="7.686032960191369">
        <ele>361.58999999999997</ele>
        <time>2025-05-19T08:39:46Z</time>
      </trkpt>
      <trkpt lat="43.942484026774764" lon="7.686036983504891">
        <ele>362.55000000000001</ele>
        <time>2025-05-19T08:39:47Z</time>
      </trkpt>
      <trkpt lat="43.942248998209834" lon="7.686049975454807">
        <ele>369.75999999999999</ele>
        <time>2025-05-19T08:39:54Z</time>
      </trkpt>
      <trkpt lat="43.942248998209834" lon="7.686049975454807">
        <ele>370.73000000000002</ele>
        <time>2025-05-19T08:40:28Z</time>
      </trkpt>
      <trkpt lat="43.942235000431538" lon="7.686049975454807">
        <ele>372.17000000000002</ele>
        <time>2025-05-19T08:40:40Z</time>
      </trkpt>
      <trkpt lat="43.942184038460255" lon="7.686061961576343">
        <ele>373.13</ele>
        <time>2025-05-19T08:40:41Z</time>
      </trkpt>
      <trkpt lat="43.942136010155082" lon="7.686090040951967">
        <ele>374.56999999999999</ele>
        <time>2025-05-19T08:40:42Z</time>
      </trkpt>
      <trkpt lat="43.941998966038227" lon="7.686166986823082">
        <ele>376.00999999999999</ele>
        <time>2025-05-19T08:40:44Z</time>
      </trkpt>
      <trkpt lat="43.941922020167112" lon="7.686209985986352">
        <ele>376.97000000000003</ele>
        <time>2025-05-19T08:40:45Z</time>
      </trkpt>
      <trkpt lat="43.941782964393497" lon="7.68628902733326">
        <ele>377.94</ele>
        <time>2025-05-19T08:40:47Z</time>
      </trkpt>
      <trkpt lat="43.941708030179143" lon="7.686331020668149">
        <ele>378.89999999999998</ele>
        <time>2025-05-19T08:40:48Z</time>
      </trkpt>
      <trkpt lat="43.941649021580815" lon="7.686307970434427">
        <ele>379.86000000000001</ele>
        <time>2025-05-19T08:40:49Z</time>
      </trkpt>
      <trkpt lat="43.941580960527062" lon="7.686261031776667">
        <ele>380.33999999999997</ele>
        <time>2025-05-19T08:40:50Z</time>
      </trkpt>
      <trkpt lat="43.941518012434244" lon="7.686174027621746">
        <ele>381.30000000000001</ele>
        <time>2025-05-19T08:40:51Z</time>
      </trkpt>
      <trkpt lat="43.941450035199523" lon="7.686079982668161">
        <ele>381.77999999999997</ele>
        <time>2025-05-19T08:40:52Z</time>
      </trkpt>
      <trkpt lat="43.941387003287673" lon="7.68599197268486">
        <ele>382.74000000000001</ele>
        <time>2025-05-19T08:40:53Z</time>
      </trkpt>
      <trkpt lat="43.941308967769146" lon="7.685901029035449">
        <ele>383.22000000000003</ele>
        <time>2025-05-19T08:40:54Z</time>
      </trkpt>
      <trkpt lat="43.941220035776496" lon="7.685888959094882">
        <ele>383.69999999999999</ele>
        <time>2025-05-19T08:40:55Z</time>
      </trkpt>
      <trkpt lat="43.941125990822911" lon="7.685875967144966">
        <ele>384.66000000000003</ele>
        <time>2025-05-19T08:40:56Z</time>
      </trkpt>
      <trkpt lat="43.941027000546455" lon="7.68586297519505">
        <ele>385.14999999999998</ele>
        <time>2025-05-19T08:40:57Z</time>
      </trkpt>
      <trkpt lat="43.94082197919488" lon="7.68579700961709">
        <ele>387.06999999999999</ele>
        <time>2025-05-19T08:40:59Z</time>
      </trkpt>
      <trkpt lat="43.940631961449981" lon="7.685730960220099">
        <ele>388.50999999999999</ele>
        <time>2025-05-19T08:41:01Z</time>
      </trkpt>
      <trkpt lat="43.940571025013924" lon="7.685708999633789">
        <ele>389.47000000000003</ele>
        <time>2025-05-19T08:41:02Z</time>
      </trkpt>
      <trkpt lat="43.940483015030622" lon="7.685774965211749">
        <ele>390.43000000000001</ele>
        <time>2025-05-19T08:41:03Z</time>
      </trkpt>
      <trkpt lat="43.940399028360844" lon="7.685837997123599">
        <ele>391.38999999999999</ele>
        <time>2025-05-19T08:41:04Z</time>
      </trkpt>
      <trkpt lat="43.94032996147871" lon="7.685928018763661">
        <ele>392.36000000000001</ele>
        <time>2025-05-19T08:41:05Z</time>
      </trkpt>
      <trkpt lat="43.940252009779215" lon="7.686030026525259">
        <ele>392.83999999999997</ele>
        <time>2025-05-19T08:41:06Z</time>
      </trkpt>
      <trkpt lat="43.940174980089068" lon="7.686130022630096">
        <ele>393.80000000000001</ele>
        <time>2025-05-19T08:41:07Z</time>
      </trkpt>
      <trkpt lat="43.940119994804263" lon="7.68620302900672">
        <ele>394.27999999999997</ele>
        <time>2025-05-19T08:41:08Z</time>
      </trkpt>
      <trkpt lat="43.940013963729143" lon="7.686210991814733">
        <ele>395.24000000000001</ele>
        <time>2025-05-19T08:41:09Z</time>
      </trkpt>
      <trkpt lat="43.939931988716125" lon="7.686217026785016">
        <ele>395.72000000000003</ele>
        <time>2025-05-19T08:41:10Z</time>
      </trkpt>
      <trkpt lat="43.939840039238334" lon="7.686223983764648">
        <ele>396.19999999999999</ele>
        <time>2025-05-19T08:41:11Z</time>
      </trkpt>
      <trkpt lat="43.939738031476736" lon="7.686232030391693">
        <ele>397.16000000000003</ele>
        <time>2025-05-19T08:41:12Z</time>
      </trkpt>
      <trkpt lat="43.939628982916474" lon="7.686239993199706">
        <ele>397.63999999999999</ele>
        <time>2025-05-19T08:41:13Z</time>
      </trkpt>
      <trkpt lat="43.939518006518483" lon="7.686239993199706">
        <ele>398.60000000000002</ele>
        <time>2025-05-19T08:41:14Z</time>
      </trkpt>
      <trkpt lat="43.93938397988677" lon="7.686221972107887">
        <ele>399.56999999999999</ele>
        <time>2025-05-19T08:41:15Z</time>
      </trkpt>
      <trkpt lat="43.93912598490715" lon="7.686189031228423">
        <ele>401.49000000000001</ele>
        <time>2025-05-19T08:41:17Z</time>
      </trkpt>
      <trkpt lat="43.939006039872766" lon="7.686131028458476">
        <ele>402.44999999999999</ele>
        <time>2025-05-19T08:41:18Z</time>
      </trkpt>
      <trkpt lat="43.93888802267611" lon="7.686036983504891">
        <ele>402.93000000000001</ele>
        <time>2025-05-19T08:41:19Z</time>
      </trkpt>
      <trkpt lat="43.938389969989657" lon="7.685654014348984">
        <ele>407.25999999999999</ele>
        <time>2025-05-19T08:41:24Z</time>
      </trkpt>
      <trkpt lat="43.938289973884821" lon="7.685617972165346">
        <ele>408.22000000000003</ele>
        <time>2025-05-19T08:41:25Z</time>
      </trkpt>
      <trkpt lat="43.938182014971972" lon="7.685578996315599">
        <ele>408.69999999999999</ele>
        <time>2025-05-19T08:41:26Z</time>
      </trkpt>
      <trkpt lat="43.938065003603697" lon="7.685537002980709">
        <ele>409.18000000000001</ele>
        <time>2025-05-19T08:41:27Z</time>
      </trkpt>
      <trkpt lat="43.937947992235422" lon="7.685494003817439">
        <ele>409.66000000000003</ele>
        <time>2025-05-19T08:41:28Z</time>
      </trkpt>
      <trkpt lat="43.937847996130586" lon="7.685434995219111">
        <ele>410.62</ele>
        <time>2025-05-19T08:41:29Z</time>
      </trkpt>
      <trkpt lat="43.937756968662143" lon="7.685348996892571">
        <ele>411.10000000000002</ele>
        <time>2025-05-19T08:41:30Z</time>
      </trkpt>
      <trkpt lat="43.937672981992364" lon="7.685270039364696">
        <ele>412.54000000000002</ele>
        <time>2025-05-19T08:41:31Z</time>
      </trkpt>
      <trkpt lat="43.937598969787359" lon="7.685199966654182">
        <ele>413.5</ele>
        <time>2025-05-19T08:41:32Z</time>
      </trkpt>
      <trkpt lat="43.937540967017412" lon="7.685145987197757">
        <ele>414.94999999999999</ele>
        <time>2025-05-19T08:41:33Z</time>
      </trkpt>
      <trkpt lat="43.937500985339284" lon="7.685141041874886">
        <ele>416.87</ele>
        <time>2025-05-19T08:41:34Z</time>
      </trkpt>
      <trkpt lat="43.937456980347633" lon="7.685163002461195">
        <ele>418.31</ele>
        <time>2025-05-19T08:41:35Z</time>
      </trkpt>
      <trkpt lat="43.93744801171124" lon="7.685197032988071">
        <ele>419.26999999999998</ele>
        <time>2025-05-19T08:41:36Z</time>
      </trkpt>
      <trkpt lat="43.937469972297549" lon="7.685246989130974">
        <ele>421.19</ele>
        <time>2025-05-19T08:41:37Z</time>
      </trkpt>
      <trkpt lat="43.937501991167665" lon="7.68532301299274">
        <ele>422.63999999999999</ele>
        <time>2025-05-19T08:41:38Z</time>
      </trkpt>
      <trkpt lat="43.937554964795709" lon="7.685364000499249">
        <ele>423.60000000000002</ele>
        <time>2025-05-19T08:41:39Z</time>
      </trkpt>
      <trkpt lat="43.937619002535939" lon="7.685414962470532">
        <ele>424.56</ele>
        <time>2025-05-19T08:41:40Z</time>
      </trkpt>
      <trkpt lat="43.937693014740944" lon="7.685472965240479">
        <ele>425.51999999999998</ele>
        <time>2025-05-19T08:41:41Z</time>
      </trkpt>
      <trkpt lat="43.938127029687166" lon="7.68581603653729">
        <ele>430.32999999999998</ele>
        <time>2025-05-19T08:41:46Z</time>
      </trkpt>
      <trkpt lat="43.938225014135242" lon="7.685892982408404">
        <ele>431.29000000000002</ele>
        <time>2025-05-19T08:41:47Z</time>
      </trkpt>
      <trkpt lat="43.938432969152927" lon="7.68609800375998">
        <ele>433.69</ele>
        <time>2025-05-19T08:41:49Z</time>
      </trkpt>
      <trkpt lat="43.938533971086144" lon="7.686214009299874">
        <ele>434.64999999999998</ele>
        <time>2025-05-19T08:41:50Z</time>
      </trkpt>
      <trkpt lat="43.938981983810663" lon="7.686706027016044">
        <ele>439.94</ele>
        <time>2025-05-19T08:41:55Z</time>
      </trkpt>
      <trkpt lat="43.939079968258739" lon="7.686788002029061">
        <ele>441.38</ele>
        <time>2025-05-19T08:41:56Z</time>
      </trkpt>
      <trkpt lat="43.93929798156023" lon="7.686910964548588">
        <ele>444.26999999999998</ele>
        <time>2025-05-19T08:41:58Z</time>
      </trkpt>
      <trkpt lat="43.939537033438683" lon="7.686982965096831">
        <ele>446.67000000000002</ele>
        <time>2025-05-19T08:42:00Z</time>
      </trkpt>
      <trkpt lat="43.939735013991594" lon="7.687009032815695">
        <ele>448.58999999999997</ele>
        <time>2025-05-19T08:42:02Z</time>
      </trkpt>
      <trkpt lat="43.939816989004612" lon="7.687030993402004">
        <ele>450.02999999999997</ele>
        <time>2025-05-19T08:42:03Z</time>
      </trkpt>
      <trkpt lat="43.939909022301435" lon="7.687095031142235">
        <ele>451.48000000000002</ele>
        <time>2025-05-19T08:42:04Z</time>
      </trkpt>
      <trkpt lat="43.940009018406272" lon="7.687164014205337">
        <ele>452.44</ele>
        <time>2025-05-19T08:42:05Z</time>
      </trkpt>
      <trkpt lat="43.940127035602927" lon="7.687215982005">
        <ele>453.88</ele>
        <time>2025-05-19T08:42:06Z</time>
      </trkpt>
      <trkpt lat="43.940233988687396" lon="7.687227968126535">
        <ele>455.31999999999999</ele>
        <time>2025-05-19T08:42:07Z</time>
      </trkpt>
      <trkpt lat="43.940355023369193" lon="7.687223022803664">
        <ele>456.75999999999999</ele>
        <time>2025-05-19T08:42:08Z</time>
      </trkpt>
      <trkpt lat="43.940487038344145" lon="7.68719301559031">
        <ele>458.20999999999998</ele>
        <time>2025-05-19T08:42:09Z</time>
      </trkpt>
      <trkpt lat="43.940587034448981" lon="7.687119003385305">
        <ele>459.64999999999998</ele>
        <time>2025-05-19T08:42:10Z</time>
      </trkpt>
      <trkpt lat="43.940677978098392" lon="7.687050020322204">
        <ele>460.61000000000001</ele>
        <time>2025-05-19T08:42:11Z</time>
      </trkpt>
      <trkpt lat="43.940744027495384" lon="7.687014983966947">
        <ele>461.56999999999999</ele>
        <time>2025-05-19T08:42:12Z</time>
      </trkpt>
      <trkpt lat="43.940804963931441" lon="7.687006015330553">
        <ele>462.52999999999997</ele>
        <time>2025-05-19T08:42:13Z</time>
      </trkpt>
      <trkpt lat="43.940871013328433" lon="7.686996962875128">
        <ele>463.49000000000001</ele>
        <time>2025-05-19T08:42:14Z</time>
      </trkpt>
      <trkpt lat="43.940903032198548" lon="7.68702001310885">
        <ele>463.97000000000003</ele>
        <time>2025-05-19T08:42:15Z</time>
      </trkpt>
      <trkpt lat="43.940975032746792" lon="7.687073992565274">
        <ele>464.44999999999999</ele>
        <time>2025-05-19T08:42:16Z</time>
      </trkpt>
      <trkpt lat="43.941046027466655" lon="7.687127972021699">
        <ele>465.42000000000002</ele>
        <time>2025-05-19T08:42:17Z</time>
      </trkpt>
      <trkpt lat="43.94110101275146" lon="7.687168959528208">
        <ele>465.89999999999998</ele>
        <time>2025-05-19T08:42:18Z</time>
      </trkpt>
      <trkpt lat="43.941140994429588" lon="7.687198966741562">
        <ele>466.38</ele>
        <time>2025-05-19T08:42:19Z</time>
      </trkpt>
      <trkpt lat="43.941174019128084" lon="7.687224028632045">
        <ele>467.33999999999997</ele>
        <time>2025-05-19T08:42:20Z</time>
      </trkpt>
      <trkpt lat="43.941206960007548" lon="7.687248000875115">
        <ele>467.81999999999999</ele>
        <time>2025-05-19T08:42:21Z</time>
      </trkpt>
      <trkpt lat="43.941264040768147" lon="7.687291000038385">
        <ele>468.77999999999997</ele>
        <time>2025-05-19T08:42:22Z</time>
      </trkpt>
      <trkpt lat="43.941332018002868" lon="7.687341962009668">
        <ele>469.25999999999999</ele>
        <time>2025-05-19T08:42:23Z</time>
      </trkpt>
      <trkpt lat="43.941385997459292" lon="7.687383033335209">
        <ele>470.22000000000003</ele>
        <time>2025-05-19T08:42:24Z</time>
      </trkpt>
      <trkpt lat="43.941441988572478" lon="7.687424020841718">
        <ele>470.69999999999999</ele>
        <time>2025-05-19T08:42:25Z</time>
      </trkpt>
      <trkpt lat="43.941557994112372" lon="7.687512030825019">
        <ele>471.18000000000001</ele>
        <time>2025-05-19T08:42:26Z</time>
      </trkpt>
      <trkpt lat="43.941603004932404" lon="7.687563998624682">
        <ele>471.66000000000003</ele>
        <time>2025-05-19T08:42:27Z</time>
      </trkpt>
      <trkpt lat="43.941672993823886" lon="7.68764496780932">
        <ele>472.63</ele>
        <time>2025-05-19T08:42:28Z</time>
      </trkpt>
      <trkpt lat="43.941734014078975" lon="7.687716968357563">
        <ele>473.11000000000001</ele>
        <time>2025-05-19T08:42:29Z</time>
      </trkpt>
      <trkpt lat="43.941825963556767" lon="7.687810007482767">
        <ele>473.58999999999997</ele>
        <time>2025-05-19T08:42:30Z</time>
      </trkpt>
      <trkpt lat="43.941956972703338" lon="7.687780000269413">
        <ele>474.55000000000001</ele>
        <time>2025-05-19T08:42:31Z</time>
      </trkpt>
      <trkpt lat="43.942044982686639" lon="7.687710011377931">
        <ele>475.02999999999997</ele>
        <time>2025-05-19T08:42:32Z</time>
      </trkpt>
      <trkpt lat="43.942127041518688" lon="7.687643961980939">
        <ele>475.99000000000001</ele>
        <time>2025-05-19T08:42:33Z</time>
      </trkpt>
      <trkpt lat="43.942326027899981" lon="7.687485041096807">
        <ele>476.94999999999999</ele>
        <time>2025-05-19T08:42:36Z</time>
      </trkpt>
      <trkpt lat="43.942372966557741" lon="7.687446987256408">
        <ele>477.43000000000001</ele>
        <time>2025-05-19T08:42:37Z</time>
      </trkpt>
      <trkpt lat="43.942387970164418" lon="7.687457967549563">
        <ele>477.91000000000003</ele>
        <time>2025-05-19T08:42:38Z</time>
      </trkpt>
      <trkpt lat="43.942523002624512" lon="7.68755704164505">
        <ele>478.87</ele>
        <time>2025-05-19T08:42:40Z</time>
      </trkpt>
      <trkpt lat="43.942597014829516" lon="7.687612026929855">
        <ele>479.35000000000002</ele>
        <time>2025-05-19T08:42:41Z</time>
      </trkpt>
      <trkpt lat="43.942668009549379" lon="7.687663994729519">
        <ele>479.35000000000002</ele>
        <time>2025-05-19T08:42:42Z</time>
      </trkpt>
      <trkpt lat="43.942780997604132" lon="7.687747981399298">
        <ele>479.35000000000002</ele>
        <time>2025-05-19T08:42:43Z</time>
      </trkpt>
      <trkpt lat="43.942852998152375" lon="7.687747981399298">
        <ele>479.35000000000002</ele>
        <time>2025-05-19T08:42:44Z</time>
      </trkpt>
      <trkpt lat="43.942959029227495" lon="7.687747981399298">
        <ele>479.35000000000002</ele>
        <time>2025-05-19T08:42:45Z</time>
      </trkpt>
      <trkpt lat="43.943077968433499" lon="7.687747981399298">
        <ele>479.35000000000002</ele>
        <time>2025-05-19T08:42:46Z</time>
      </trkpt>
      <trkpt lat="43.943197997286916" lon="7.687747981399298">
        <ele>479.35000000000002</ele>
        <time>2025-05-19T08:42:47Z</time>
      </trkpt>
      <trkpt lat="43.943307967856526" lon="7.687777988612652">
        <ele>478.87</ele>
        <time>2025-05-19T08:42:48Z</time>
      </trkpt>
      <trkpt lat="43.943391032516956" lon="7.687811013311148">
        <ele>478.38999999999999</ele>
        <time>2025-05-19T08:42:49Z</time>
      </trkpt>
      <trkpt lat="43.943467978388071" lon="7.687873961403966">
        <ele>477.91000000000003</ele>
        <time>2025-05-19T08:42:50Z</time>
      </trkpt>
      <trkpt lat="43.943511983379722" lon="7.687954008579254">
        <ele>477.43000000000001</ele>
        <time>2025-05-19T08:42:51Z</time>
      </trkpt>
      <trkpt lat="43.943556994199753" lon="7.688035983592272">
        <ele>476.94999999999999</ele>
        <time>2025-05-19T08:42:52Z</time>
      </trkpt>
      <trkpt lat="43.943633018061519" lon="7.688084011897445">
        <ele>476.47000000000003</ele>
        <time>2025-05-19T08:42:53Z</time>
      </trkpt>
      <trkpt lat="43.943713987246156" lon="7.688068002462387">
        <ele>475.99000000000001</ele>
        <time>2025-05-19T08:42:54Z</time>
      </trkpt>
      <trkpt lat="43.943819012492895" lon="7.688023997470737">
        <ele>475.99000000000001</ele>
        <time>2025-05-19T08:42:55Z</time>
      </trkpt>
      <trkpt lat="43.943942980840802" lon="7.687971023842692">
        <ele>475.99000000000001</ele>
        <time>2025-05-19T08:42:56Z</time>
      </trkpt>
      <trkpt lat="43.944369032979012" lon="7.687789974734187">
        <ele>477.43000000000001</ele>
        <time>2025-05-19T08:42:59Z</time>
      </trkpt>
      <trkpt lat="43.944502975791693" lon="7.68773197196424">
        <ele>477.91000000000003</ele>
        <time>2025-05-19T08:43:00Z</time>
      </trkpt>
      <trkpt lat="43.944619987159967" lon="7.687683021649718">
        <ele>478.87</ele>
        <time>2025-05-19T08:43:01Z</time>
      </trkpt>
      <trkpt lat="43.944744039326906" lon="7.687661983072758">
        <ele>479.35000000000002</ele>
        <time>2025-05-19T08:43:02Z</time>
      </trkpt>
      <trkpt lat="43.94485903903842" lon="7.687661983072758">
        <ele>480.31999999999999</ele>
        <time>2025-05-19T08:43:03Z</time>
      </trkpt>
      <trkpt lat="43.944984013214707" lon="7.687683021649718">
        <ele>481.27999999999997</ele>
        <time>2025-05-19T08:43:04Z</time>
      </trkpt>
      <trkpt lat="43.945113010704517" lon="7.687716968357563">
        <ele>481.75999999999999</ele>
        <time>2025-05-19T08:43:05Z</time>
      </trkpt>
      <trkpt lat="43.94524703733623" lon="7.687753010541201">
        <ele>482.72000000000003</ele>
        <time>2025-05-19T08:43:06Z</time>
      </trkpt>
      <trkpt lat="43.94569898955524" lon="7.687918972223997">
        <ele>487.05000000000001</ele>
        <time>2025-05-19T08:43:11Z</time>
      </trkpt>
      <trkpt lat="43.94576302729547" lon="7.688022991642356">
        <ele>487.52999999999997</ele>
        <time>2025-05-19T08:43:12Z</time>
      </trkpt>
      <trkpt lat="43.945808038115501" lon="7.688097003847361">
        <ele>488.00999999999999</ele>
        <time>2025-05-19T08:43:13Z</time>
      </trkpt>
      <trkpt lat="43.945854976773262" lon="7.688173027709127">
        <ele>488.97000000000003</ele>
        <time>2025-05-19T08:43:14Z</time>
      </trkpt>
      <trkpt lat="43.945954972878098" lon="7.6882020290941">
        <ele>489.93000000000001</ele>
        <time>2025-05-19T08:43:15Z</time>
      </trkpt>
      <trkpt lat="43.946007024496794" lon="7.688204040750861">
        <ele>490.41000000000003</ele>
        <time>2025-05-19T08:43:16Z</time>
      </trkpt>
      <trkpt lat="43.946083970367908" lon="7.688207980245352">
        <ele>491.37</ele>
        <time>2025-05-19T08:43:17Z</time>
      </trkpt>
      <trkpt lat="43.946185978129506" lon="7.688212003558874">
        <ele>492.32999999999998</ele>
        <time>2025-05-19T08:43:18Z</time>
      </trkpt>
      <trkpt lat="43.946288991719484" lon="7.688217032700777">
        <ele>493.29000000000002</ele>
        <time>2025-05-19T08:43:19Z</time>
      </trkpt>
      <trkpt lat="43.946342971175909" lon="7.688219966366887">
        <ele>493.76999999999998</ele>
        <time>2025-05-19T08:43:20Z</time>
      </trkpt>
      <trkpt lat="43.946460988372564" lon="7.688336977735162">
        <ele>494.74000000000001</ele>
        <time>2025-05-19T08:43:21Z</time>
      </trkpt>
      <trkpt lat="43.94653600640595" lon="7.688413001596928">
        <ele>495.22000000000003</ele>
        <time>2025-05-19T08:43:22Z</time>
      </trkpt>
      <trkpt lat="43.946608006954193" lon="7.688483996316791">
        <ele>495.69999999999999</ele>
        <time>2025-05-19T08:43:23Z</time>
      </trkpt>
      <trkpt lat="43.946683024987578" lon="7.68854602240026">
        <ele>496.18000000000001</ele>
        <time>2025-05-19T08:43:24Z</time>
      </trkpt>
      <trkpt lat="43.946761982515454" lon="7.688598996028304">
        <ele>496.66000000000003</ele>
        <time>2025-05-19T08:43:25Z</time>
      </trkpt>
      <trkpt lat="43.946844041347504" lon="7.688653981313109">
        <ele>497.62</ele>
        <time>2025-05-19T08:43:26Z</time>
      </trkpt>
      <trkpt lat="43.946984019130468" lon="7.688696980476379">
        <ele>498.57999999999998</ele>
        <time>2025-05-19T08:43:28Z</time>
      </trkpt>
      <trkpt lat="43.947057025507092" lon="7.688701003789902">
        <ele>499.06</ele>
        <time>2025-05-19T08:43:29Z</time>
      </trkpt>
      <trkpt lat="43.947234973311424" lon="7.688711984083056">
        <ele>500.5</ele>
        <time>2025-05-19T08:43:32Z</time>
      </trkpt>
      <trkpt lat="43.94724402576685" lon="7.688712989911437">
        <ele>501.45999999999998</ele>
        <time>2025-05-19T08:43:33Z</time>
      </trkpt>
      <trkpt lat="43.94724402576685" lon="7.688712989911437">
        <ele>501.94999999999999</ele>
        <time>2025-05-19T08:43:34Z</time>
      </trkpt>
      <trkpt lat="43.947265986353159" lon="7.688841987401247">
        <ele>502.91000000000003</ele>
        <time>2025-05-19T08:43:35Z</time>
      </trkpt>
      <trkpt lat="43.947265986353159" lon="7.688841987401247">
        <ele>503.38999999999999</ele>
        <time>2025-05-19T08:43:36Z</time>
      </trkpt>
      <trkpt lat="43.947265986353159" lon="7.688841987401247">
        <ele>504.35000000000002</ele>
        <time>2025-05-19T08:43:37Z</time>
      </trkpt>
      <trkpt lat="43.947258023545146" lon="7.68884701654315">
        <ele>505.79000000000002</ele>
        <time>2025-05-19T08:43:38Z</time>
      </trkpt>
      <trkpt lat="43.94720102660358" lon="7.688884986564517">
        <ele>506.75</ele>
        <time>2025-05-19T08:43:39Z</time>
      </trkpt>
      <trkpt lat="43.947058031335473" lon="7.688877023756504">
        <ele>507.23000000000002</ele>
        <time>2025-05-19T08:43:40Z</time>
      </trkpt>
      <trkpt lat="43.946907995268703" lon="7.688868977129459">
        <ele>507.70999999999998</ele>
        <time>2025-05-19T08:43:41Z</time>
      </trkpt>
      <trkpt lat="43.946777991950512" lon="7.688843999058008">
        <ele>507.70999999999998</ele>
        <time>2025-05-19T08:43:42Z</time>
      </trkpt>
      <trkpt lat="43.946486972272396" lon="7.688689017668366">
        <ele>511.07999999999998</ele>
        <time>2025-05-19T08:43:45Z</time>
      </trkpt>
      <trkpt lat="43.946323022246361" lon="7.688601007685065">
        <ele>513</ele>
        <time>2025-05-19T08:43:47Z</time>
      </trkpt>
      <trkpt lat="43.946266025304794" lon="7.688569994643331">
        <ele>513.96000000000004</ele>
        <time>2025-05-19T08:43:48Z</time>
      </trkpt>
      <trkpt lat="43.9461500197649" lon="7.688583992421627">
        <ele>514.91999999999996</ele>
        <time>2025-05-19T08:43:49Z</time>
      </trkpt>
      <trkpt lat="43.946170974522829" lon="7.688669990748167">
        <ele>515.88</ele>
        <time>2025-05-19T08:43:50Z</time>
      </trkpt>
      <trkpt lat="43.946170974522829" lon="7.688669990748167">
        <ele>517.33000000000004</ele>
        <time>2025-05-19T08:43:51Z</time>
      </trkpt>
      <trkpt lat="43.946273988112807" lon="7.688707960769534">
        <ele>517.80999999999995</ele>
        <time>2025-05-19T08:43:52Z</time>
      </trkpt>
      <trkpt lat="43.946320004761219" lon="7.688723970204592">
        <ele>518.28999999999996</ele>
        <time>2025-05-19T08:43:53Z</time>
      </trkpt>
      <trkpt lat="43.946421006694436" lon="7.688771998509765">
        <ele>519.25</ele>
        <time>2025-05-19T08:43:54Z</time>
      </trkpt>
      <trkpt lat="43.946474986150861" lon="7.688838969916105">
        <ele>519.73000000000002</ele>
        <time>2025-05-19T08:43:55Z</time>
      </trkpt>
      <trkpt lat="43.946544975042343" lon="7.688923962414265">
        <ele>520.21000000000004</ele>
        <time>2025-05-19T08:43:56Z</time>
      </trkpt>
      <trkpt lat="43.946627033874393" lon="7.689010966569185">
        <ele>521.16999999999996</ele>
        <time>2025-05-19T08:43:57Z</time>
      </trkpt>
      <trkpt lat="43.946742033585906" lon="7.689093025401235">
        <ele>521.64999999999998</ele>
        <time>2025-05-19T08:43:58Z</time>
      </trkpt>
      <trkpt lat="43.946847980841994" lon="7.689143987372518">
        <ele>522.13</ele>
        <time>2025-05-19T08:43:59Z</time>
      </trkpt>
      <trkpt lat="43.946963986381888" lon="7.689196038991213">
        <ele>523.09000000000003</ele>
        <time>2025-05-19T08:44:00Z</time>
      </trkpt>
      <trkpt lat="43.947070017457008" lon="7.689222022891045">
        <ele>524.05999999999995</ele>
        <time>2025-05-19T08:44:01Z</time>
      </trkpt>
      <trkpt lat="43.947180993855" lon="7.689242977648974">
        <ele>525.01999999999998</ele>
        <time>2025-05-19T08:44:02Z</time>
      </trkpt>
      <trkpt lat="43.947638981044292" lon="7.689300980418921">
        <ele>529.34000000000003</ele>
        <time>2025-05-19T08:44:06Z</time>
      </trkpt>
      <trkpt lat="43.947748029604554" lon="7.689282037317753">
        <ele>530.78999999999996</ele>
        <time>2025-05-19T08:44:07Z</time>
      </trkpt>
      <trkpt lat="43.947854982689023" lon="7.689264016225934">
        <ele>531.75</ele>
        <time>2025-05-19T08:44:08Z</time>
      </trkpt>
      <trkpt lat="43.948106020689011" lon="7.689222022891045">
        <ele>537.02999999999997</ele>
        <time>2025-05-19T08:44:11Z</time>
      </trkpt>
      <trkpt lat="43.948155976831913" lon="7.689215987920761">
        <ele>537.99000000000001</ele>
        <time>2025-05-19T08:44:12Z</time>
      </trkpt>
      <trkpt lat="43.948196964338422" lon="7.689210958778858">
        <ele>539.44000000000005</ele>
        <time>2025-05-19T08:44:13Z</time>
      </trkpt>
      <trkpt lat="43.948230994865298" lon="7.689211964607239">
        <ele>540.39999999999998</ele>
        <time>2025-05-19T08:44:14Z</time>
      </trkpt>
      <trkpt lat="43.948230994865298" lon="7.689245995134115">
        <ele>541.36000000000001</ele>
        <time>2025-05-19T08:44:15Z</time>
      </trkpt>
      <trkpt lat="43.948230994865298" lon="7.689276002347469">
        <ele>542.32000000000005</ele>
        <time>2025-05-19T08:44:16Z</time>
      </trkpt>
      <trkpt lat="43.948195958510041" lon="7.689323024824262">
        <ele>543.75999999999999</ele>
        <time>2025-05-19T08:44:17Z</time>
      </trkpt>
      <trkpt lat="43.948125969618559" lon="7.689341967925429">
        <ele>544.72000000000003</ele>
        <time>2025-05-19T08:44:18Z</time>
      </trkpt>
      <trkpt lat="43.948022034019232" lon="7.689370969310403">
        <ele>545.69000000000005</ele>
        <time>2025-05-19T08:44:19Z</time>
      </trkpt>
      <trkpt lat="43.947895970195532" lon="7.689420003443956">
        <ele>547.13</ele>
        <time>2025-05-19T08:44:20Z</time>
      </trkpt>
      <trkpt lat="43.947762027382851" lon="7.689475994557142">
        <ele>548.09000000000003</ele>
        <time>2025-05-19T08:44:21Z</time>
      </trkpt>
      <trkpt lat="43.947637975215912" lon="7.689528968185186">
        <ele>549.52999999999997</ele>
        <time>2025-05-19T08:44:22Z</time>
      </trkpt>
      <trkpt lat="43.947494979947805" lon="7.68955503590405">
        <ele>550.97000000000003</ele>
        <time>2025-05-19T08:44:23Z</time>
      </trkpt>
      <trkpt lat="43.947140006348491" lon="7.689584037289023">
        <ele>554.82000000000005</ele>
        <time>2025-05-19T08:44:26Z</time>
      </trkpt>
      <trkpt lat="43.947044033557177" lon="7.689616978168488">
        <ele>555.77999999999997</ele>
        <time>2025-05-19T08:44:27Z</time>
      </trkpt>
      <trkpt lat="43.946957029402256" lon="7.689645979553461">
        <ele>556.74000000000001</ele>
        <time>2025-05-19T08:44:28Z</time>
      </trkpt>
      <trkpt lat="43.946843035519123" lon="7.689673975110054">
        <ele>557.70000000000005</ele>
        <time>2025-05-19T08:44:29Z</time>
      </trkpt>
      <trkpt lat="43.946741027757525" lon="7.689640028402209">
        <ele>558.65999999999997</ele>
        <time>2025-05-19T08:44:30Z</time>
      </trkpt>
      <trkpt lat="43.946636002510786" lon="7.689604992046952">
        <ele>559.13999999999999</ele>
        <time>2025-05-19T08:44:31Z</time>
      </trkpt>
      <trkpt lat="43.946527959778905" lon="7.689569033682346">
        <ele>560.59000000000003</ele>
        <time>2025-05-19T08:44:32Z</time>
      </trkpt>
      <trkpt lat="43.946331990882754" lon="7.689502984285355">
        <ele>562.99000000000001</ele>
        <time>2025-05-19T08:44:34Z</time>
      </trkpt>
      <trkpt lat="43.946251021698117" lon="7.689477000385523">
        <ele>563.95000000000005</ele>
        <time>2025-05-19T08:44:35Z</time>
      </trkpt>
      <trkpt lat="43.946191007271409" lon="7.689485969021916">
        <ele>565.38999999999999</ele>
        <time>2025-05-19T08:44:36Z</time>
      </trkpt>
      <trkpt lat="43.946137027814984" lon="7.68953500315547">
        <ele>566.35000000000002</ele>
        <time>2025-05-19T08:44:37Z</time>
      </trkpt>
      <trkpt lat="43.946083970367908" lon="7.689584037289023">
        <ele>567.79999999999995</ele>
        <time>2025-05-19T08:44:38Z</time>
      </trkpt>
      <trkpt lat="43.946030996739864" lon="7.689633993431926">
        <ele>568.75999999999999</ele>
        <time>2025-05-19T08:44:39Z</time>
      </trkpt>
      <trkpt lat="43.945980034768581" lon="7.689680010080338">
        <ele>569.72000000000003</ele>
        <time>2025-05-19T08:44:40Z</time>
      </trkpt>
      <trkpt lat="43.94593502394855" lon="7.689722003415227">
        <ele>570.67999999999995</ele>
        <time>2025-05-19T08:44:41Z</time>
      </trkpt>
      <trkpt lat="43.945847013965249" lon="7.689632987603545">
        <ele>571.63999999999999</ele>
        <time>2025-05-19T08:44:42Z</time>
      </trkpt>
      <trkpt lat="43.945778030902147" lon="7.689564004540443">
        <ele>572.60000000000002</ele>
        <time>2025-05-19T08:44:43Z</time>
      </trkpt>
      <trkpt lat="43.945678034797311" lon="7.689507007598877">
        <ele>573.55999999999995</ele>
        <time>2025-05-19T08:44:44Z</time>
      </trkpt>
      <trkpt lat="43.945549037307501" lon="7.689464008435607">
        <ele>574.03999999999996</ele>
        <time>2025-05-19T08:44:45Z</time>
      </trkpt>
      <trkpt lat="43.945453986525536" lon="7.689502984285355">
        <ele>575.00999999999999</ele>
        <time>2025-05-19T08:44:46Z</time>
      </trkpt>
      <trkpt lat="43.945347033441067" lon="7.689545983448625">
        <ele>575.49000000000001</ele>
        <time>2025-05-19T08:44:47Z</time>
      </trkpt>
      <trkpt lat="43.944417983293533" lon="7.689779000356793">
        <ele>584.13999999999999</ele>
        <time>2025-05-19T08:44:55Z</time>
      </trkpt>
      <trkpt lat="43.944329973310232" lon="7.68981596454978">
        <ele>585.58000000000004</ele>
        <time>2025-05-19T08:44:56Z</time>
      </trkpt>
      <trkpt lat="43.944161999970675" lon="7.689946973696351">
        <ele>587.98000000000002</ele>
        <time>2025-05-19T08:44:58Z</time>
      </trkpt>
      <trkpt lat="43.944071978330612" lon="7.690016962587833">
        <ele>588.95000000000005</ele>
        <time>2025-05-19T08:44:59Z</time>
      </trkpt>
      <trkpt lat="43.943876009434462" lon="7.690169010311365">
        <ele>591.35000000000002</ele>
        <time>2025-05-19T08:45:01Z</time>
      </trkpt>
      <trkpt lat="43.943748017773032" lon="7.690238999202848">
        <ele>592.30999999999995</ele>
        <time>2025-05-19T08:45:02Z</time>
      </trkpt>
      <trkpt lat="43.943622959777713" lon="7.690246040001512">
        <ele>593.75</ele>
        <time>2025-05-19T08:45:03Z</time>
      </trkpt>
      <trkpt lat="43.943060031160712" lon="7.690279986709356">
        <ele>601.91999999999996</ele>
        <time>2025-05-19T08:45:08Z</time>
      </trkpt>
      <trkpt lat="43.942917035892606" lon="7.690327009186149">
        <ele>603.36000000000001</ele>
        <time>2025-05-19T08:45:09Z</time>
      </trkpt>
      <trkpt lat="43.942793989554048" lon="7.690367996692658">
        <ele>605.28999999999996</ele>
        <time>2025-05-19T08:45:10Z</time>
      </trkpt>
      <trkpt lat="43.941906010732055" lon="7.690770998597145">
        <ele>616.82000000000005</ele>
        <time>2025-05-19T08:45:18Z</time>
      </trkpt>
      <trkpt lat="43.941749017685652" lon="7.690839981660247">
        <ele>618.75</ele>
        <time>2025-05-19T08:45:20Z</time>
      </trkpt>
      <trkpt lat="43.941708030179143" lon="7.690859008580446">
        <ele>619.71000000000004</ele>
        <time>2025-05-19T08:45:21Z</time>
      </trkpt>
      <trkpt lat="43.941664025187492" lon="7.690946012735367">
        <ele>620.19000000000005</ele>
        <time>2025-05-19T08:45:22Z</time>
      </trkpt>
      <trkpt lat="43.941621026024222" lon="7.691032011061907">
        <ele>621.14999999999998</ele>
        <time>2025-05-19T08:45:23Z</time>
      </trkpt>
      <trkpt lat="43.941607028245926" lon="7.691112980246544">
        <ele>621.63</ele>
        <time>2025-05-19T08:45:24Z</time>
      </trkpt>
      <trkpt lat="43.941626977175474" lon="7.69123300909996">
        <ele>622.59000000000003</ele>
        <time>2025-05-19T08:45:25Z</time>
      </trkpt>
      <trkpt lat="43.941650027409196" lon="7.691369969397783">
        <ele>623.07000000000005</ele>
        <time>2025-05-19T08:45:26Z</time>
      </trkpt>
      <trkpt lat="43.941751029342413" lon="7.691989978775382">
        <ele>624.99000000000001</ele>
        <time>2025-05-19T08:45:30Z</time>
      </trkpt>
      <trkpt lat="43.941751029342413" lon="7.692273035645485">
        <ele>625.96000000000004</ele>
        <time>2025-05-19T08:45:32Z</time>
      </trkpt>
      <trkpt lat="43.941751029342413" lon="7.692517032846808">
        <ele>626.91999999999996</ele>
        <time>2025-05-19T08:45:34Z</time>
      </trkpt>
      <trkpt lat="43.941751029342413" lon="7.692617028951645">
        <ele>627.39999999999998</ele>
        <time>2025-05-19T08:45:35Z</time>
      </trkpt>
      <trkpt lat="43.941783970221877" lon="7.692705038934946">
        <ele>627.88</ele>
        <time>2025-05-19T08:45:36Z</time>
      </trkpt>
      <trkpt lat="43.941841972991824" lon="7.692781984806061">
        <ele>628.36000000000001</ele>
        <time>2025-05-19T08:45:37Z</time>
      </trkpt>
      <trkpt lat="43.941909028217196" lon="7.692872006446123">
        <ele>628.84000000000003</ele>
        <time>2025-05-19T08:45:38Z</time>
      </trkpt>
      <trkpt lat="43.94198396243155" lon="7.692970996722579">
        <ele>628.84000000000003</ele>
        <time>2025-05-19T08:45:39Z</time>
      </trkpt>
      <trkpt lat="43.942385958507657" lon="7.693750010803342">
        <ele>631.72000000000003</ele>
        <time>2025-05-19T08:45:45Z</time>
      </trkpt>
      <trkpt lat="43.942459970712662" lon="7.693843971937895">
        <ele>632.67999999999995</ele>
        <time>2025-05-19T08:45:46Z</time>
      </trkpt>
      <trkpt lat="43.942610006779432" lon="7.694033989682794">
        <ele>634.13</ele>
        <time>2025-05-19T08:45:48Z</time>
      </trkpt>
      <trkpt lat="43.942694999277592" lon="7.694142032414675">
        <ele>635.09000000000003</ele>
        <time>2025-05-19T08:45:49Z</time>
      </trkpt>
      <trkpt lat="43.942714026197791" lon="7.694244962185621">
        <ele>636.04999999999995</ele>
        <time>2025-05-19T08:45:50Z</time>
      </trkpt>
      <trkpt lat="43.942765993997455" lon="7.694529024884105">
        <ele>637.97000000000003</ele>
        <time>2025-05-19T08:45:52Z</time>
      </trkpt>
      <trkpt lat="43.942814022302628" lon="7.694787019863725">
        <ele>639.88999999999999</ele>
        <time>2025-05-19T08:45:54Z</time>
      </trkpt>
      <trkpt lat="43.942832965403795" lon="7.694892967119813">
        <ele>640.86000000000001</ele>
        <time>2025-05-19T08:45:55Z</time>
      </trkpt>
      <trkpt lat="43.942876970395446" lon="7.695003021508455">
        <ele>641.34000000000003</ele>
        <time>2025-05-19T08:45:56Z</time>
      </trkpt>
      <trkpt lat="43.943234039470553" lon="7.695565028116107">
        <ele>644.22000000000003</ele>
        <time>2025-05-19T08:46:01Z</time>
      </trkpt>
      <trkpt lat="43.943281983956695" lon="7.695702994242311">
        <ele>644.70000000000005</ele>
        <time>2025-05-19T08:46:02Z</time>
      </trkpt>
      <trkpt lat="43.943369993939996" lon="7.695955038070679">
        <ele>646.62</ele>
        <time>2025-05-19T08:46:04Z</time>
      </trkpt>
      <trkpt lat="43.943406958132982" lon="7.696057967841625">
        <ele>647.10000000000002</ele>
        <time>2025-05-19T08:46:05Z</time>
      </trkpt>
      <trkpt lat="43.943450041115284" lon="7.696128962561488">
        <ele>648.07000000000005</ele>
        <time>2025-05-19T08:46:06Z</time>
      </trkpt>
      <trkpt lat="43.943541990593076" lon="7.696156958118081">
        <ele>648.54999999999995</ele>
        <time>2025-05-19T08:46:07Z</time>
      </trkpt>
      <trkpt lat="43.9436149969697" lon="7.696154024451971">
        <ele>649.02999999999997</ele>
        <time>2025-05-19T08:46:08Z</time>
      </trkpt>
      <trkpt lat="43.943708958104253" lon="7.696151006966829">
        <ele>649.50999999999999</ele>
        <time>2025-05-19T08:46:09Z</time>
      </trkpt>
      <trkpt lat="43.943820018321276" lon="7.696146983653307">
        <ele>649.50999999999999</ele>
        <time>2025-05-19T08:46:10Z</time>
      </trkpt>
      <trkpt lat="43.944055968895555" lon="7.696139020845294">
        <ele>650.47000000000003</ele>
        <time>2025-05-19T08:46:12Z</time>
      </trkpt>
      <trkpt lat="43.944180021062493" lon="7.696096021682024">
        <ele>650.95000000000005</ele>
        <time>2025-05-19T08:46:13Z</time>
      </trkpt>
      <trkpt lat="43.944369032979012" lon="7.696009017527103">
        <ele>650.95000000000005</ele>
        <time>2025-05-19T08:46:15Z</time>
      </trkpt>
      <trkpt lat="43.944447990506887" lon="7.696009017527103">
        <ele>651.42999999999995</ele>
        <time>2025-05-19T08:46:16Z</time>
      </trkpt>
      <trkpt lat="43.944524014368653" lon="7.696012035012245">
        <ele>651.90999999999997</ele>
        <time>2025-05-19T08:46:17Z</time>
      </trkpt>
      <trkpt lat="43.944596014916897" lon="7.696059979498386">
        <ele>651.90999999999997</ele>
        <time>2025-05-19T08:46:18Z</time>
      </trkpt>
      <trkpt lat="43.944662986323237" lon="7.696133991703391">
        <ele>652.38999999999999</ele>
        <time>2025-05-19T08:46:19Z</time>
      </trkpt>
      <trkpt lat="43.944701040163636" lon="7.696237005293369">
        <ele>652.38999999999999</ele>
        <time>2025-05-19T08:46:20Z</time>
      </trkpt>
      <trkpt lat="43.944739010185003" lon="7.696339013054967">
        <ele>652.87</ele>
        <time>2025-05-19T08:46:21Z</time>
      </trkpt>
      <trkpt lat="43.944777986034751" lon="7.696439009159803">
        <ele>653.83000000000004</ele>
        <time>2025-05-19T08:46:22Z</time>
      </trkpt>
      <trkpt lat="43.944845963269472" lon="7.696506986394525">
        <ele>654.30999999999995</ele>
        <time>2025-05-19T08:46:23Z</time>
      </trkpt>
      <trkpt lat="43.944930033758283" lon="7.696555014699698">
        <ele>654.79999999999995</ele>
        <time>2025-05-19T08:46:24Z</time>
      </trkpt>
      <trkpt lat="43.945112004876137" lon="7.696640007197857">
        <ele>655.75999999999999</ele>
        <time>2025-05-19T08:46:26Z</time>
      </trkpt>
      <trkpt lat="43.945204960182309" lon="7.696683006361127">
        <ele>656.24000000000001</ele>
        <time>2025-05-19T08:46:27Z</time>
      </trkpt>
      <trkpt lat="43.945300010964274" lon="7.696727011352778">
        <ele>656.72000000000003</ele>
        <time>2025-05-19T08:46:28Z</time>
      </trkpt>
      <trkpt lat="43.945463038980961" lon="7.696803035214543">
        <ele>656.72000000000003</ele>
        <time>2025-05-19T08:46:30Z</time>
      </trkpt>
      <trkpt lat="43.945494974032044" lon="7.696864977478981">
        <ele>656.72000000000003</ele>
        <time>2025-05-19T08:46:31Z</time>
      </trkpt>
      <trkpt lat="43.945537973195314" lon="7.696952987462282">
        <ele>656.72000000000003</ele>
        <time>2025-05-19T08:46:32Z</time>
      </trkpt>
      <trkpt lat="43.94556999206543" lon="7.697048960253596">
        <ele>656.24000000000001</ele>
        <time>2025-05-19T08:46:33Z</time>
      </trkpt>
      <trkpt lat="43.945566974580288" lon="7.697174018248916">
        <ele>656.24000000000001</ele>
        <time>2025-05-19T08:46:34Z</time>
      </trkpt>
      <trkpt lat="43.94555096514523" lon="7.697796961292625">
        <ele>656.24000000000001</ele>
        <time>2025-05-19T08:46:39Z</time>
      </trkpt>
      <trkpt lat="43.945579966530204" lon="7.697916990146041">
        <ele>656.72000000000003</ele>
        <time>2025-05-19T08:46:40Z</time>
      </trkpt>
      <trkpt lat="43.9456129912287" lon="7.697960995137692">
        <ele>657.20000000000005</ele>
        <time>2025-05-19T08:46:41Z</time>
      </trkpt>
      <trkpt lat="43.945664959028363" lon="7.697969963774085">
        <ele>657.67999999999995</ele>
        <time>2025-05-19T08:46:42Z</time>
      </trkpt>
      <trkpt lat="43.945704018697143" lon="7.697977004572749">
        <ele>657.67999999999995</ele>
        <time>2025-05-19T08:46:43Z</time>
      </trkpt>
      <trkpt lat="43.945760009810328" lon="7.697986979037523">
        <ele>658.15999999999997</ele>
        <time>2025-05-19T08:46:44Z</time>
      </trkpt>
      <trkpt lat="43.945839973166585" lon="7.69800097681582">
        <ele>658.15999999999997</ele>
        <time>2025-05-19T08:46:45Z</time>
      </trkpt>
      <trkpt lat="43.945936029776931" lon="7.698017992079258">
        <ele>658.63999999999999</ele>
        <time>2025-05-19T08:46:46Z</time>
      </trkpt>
      <trkpt lat="43.946032002568245" lon="7.698055962100625">
        <ele>658.63999999999999</ele>
        <time>2025-05-19T08:46:47Z</time>
      </trkpt>
      <trkpt lat="43.946111965924501" lon="7.698099967092276">
        <ele>658.63999999999999</ele>
        <time>2025-05-19T08:46:48Z</time>
      </trkpt>
      <trkpt lat="43.946184972301126" lon="7.698196023702622">
        <ele>659.12</ele>
        <time>2025-05-19T08:46:49Z</time>
      </trkpt>
      <trkpt lat="43.94621497951448" lon="7.698336001485586">
        <ele>659.60000000000002</ele>
        <time>2025-05-19T08:46:50Z</time>
      </trkpt>
      <trkpt lat="43.946220008656383" lon="7.698477990925312">
        <ele>660.55999999999995</ele>
        <time>2025-05-19T08:46:51Z</time>
      </trkpt>
      <trkpt lat="43.946225959807634" lon="7.698631966486573">
        <ele>661.51999999999998</ele>
        <time>2025-05-19T08:46:52Z</time>
      </trkpt>
      <trkpt lat="43.94623601809144" lon="7.698862971737981">
        <ele>663.45000000000005</ele>
        <time>2025-05-19T08:46:54Z</time>
      </trkpt>
      <trkpt lat="43.946283962577581" lon="7.698960034176707">
        <ele>664.40999999999997</ele>
        <time>2025-05-19T08:46:55Z</time>
      </trkpt>
      <trkpt lat="43.94632201641798" lon="7.69903396256268">
        <ele>665.37</ele>
        <time>2025-05-19T08:46:56Z</time>
      </trkpt>
      <trkpt lat="43.946369038894773" lon="7.699068998917937">
        <ele>665.85000000000002</ele>
        <time>2025-05-19T08:46:57Z</time>
      </trkpt>
      <trkpt lat="43.946446990594268" lon="7.699127001687884">
        <ele>666.80999999999995</ele>
        <time>2025-05-19T08:46:58Z</time>
      </trkpt>
      <trkpt lat="43.946542041376233" lon="7.699196990579367">
        <ele>667.76999999999998</ele>
        <time>2025-05-19T08:46:59Z</time>
      </trkpt>
      <trkpt lat="43.946634996682405" lon="7.699264967814088">
        <ele>668.25</ele>
        <time>2025-05-19T08:47:00Z</time>
      </trkpt>
      <trkpt lat="43.94672904163599" lon="7.699335040524602">
        <ele>669.22000000000003</ele>
        <time>2025-05-19T08:47:01Z</time>
      </trkpt>
      <trkpt lat="43.946798024699092" lon="7.699335040524602">
        <ele>670.17999999999995</ele>
        <time>2025-05-19T08:47:02Z</time>
      </trkpt>
      <trkpt lat="43.946889974176884" lon="7.699335040524602">
        <ele>670.65999999999997</ele>
        <time>2025-05-19T08:47:03Z</time>
      </trkpt>
      <trkpt lat="43.946978989988565" lon="7.699335040524602">
        <ele>671.13999999999999</ele>
        <time>2025-05-19T08:47:04Z</time>
      </trkpt>
      <trkpt lat="43.947050990536809" lon="7.699335040524602">
        <ele>671.13999999999999</ele>
        <time>2025-05-19T08:47:05Z</time>
      </trkpt>
      <trkpt lat="43.947108993306756" lon="7.699409974738956">
        <ele>671.62</ele>
        <time>2025-05-19T08:47:06Z</time>
      </trkpt>
      <trkpt lat="43.947177976369858" lon="7.699501002207398">
        <ele>672.10000000000002</ele>
        <time>2025-05-19T08:47:07Z</time>
      </trkpt>
      <trkpt lat="43.947248971089721" lon="7.699593035504222">
        <ele>672.58000000000004</ele>
        <time>2025-05-19T08:47:08Z</time>
      </trkpt>
      <trkpt lat="43.94735299050808" lon="7.69969898276031">
        <ele>673.05999999999995</ele>
        <time>2025-05-19T08:47:09Z</time>
      </trkpt>
      <trkpt lat="43.947456004098058" lon="7.69969898276031">
        <ele>674.01999999999998</ele>
        <time>2025-05-19T08:47:10Z</time>
      </trkpt>
      <trkpt lat="43.947563963010907" lon="7.69969898276031">
        <ele>674.5</ele>
        <time>2025-05-19T08:47:11Z</time>
      </trkpt>
      <trkpt lat="43.947669994086027" lon="7.69969898276031">
        <ele>675.46000000000004</ele>
        <time>2025-05-19T08:47:12Z</time>
      </trkpt>
      <trkpt lat="43.947752974927425" lon="7.69969898276031">
        <ele>675.94000000000005</ele>
        <time>2025-05-19T08:47:13Z</time>
      </trkpt>
      <trkpt lat="43.947780970484018" lon="7.69969898276031">
        <ele>676.41999999999996</ele>
        <time>2025-05-19T08:47:14Z</time>
      </trkpt>
      <trkpt lat="43.947851965203881" lon="7.699735024943948">
        <ele>676.90999999999997</ele>
        <time>2025-05-19T08:47:15Z</time>
      </trkpt>
      <trkpt lat="43.947865962982178" lon="7.69974198192358">
        <ele>677.38999999999999</ele>
        <time>2025-05-19T08:47:16Z</time>
      </trkpt>
      <trkpt lat="43.947865962982178" lon="7.69974198192358">
        <ele>677.87</ele>
        <time>2025-05-19T08:47:17Z</time>
      </trkpt>
      <trkpt lat="43.947888007387519" lon="7.699872991070151">
        <ele>678.35000000000002</ele>
        <time>2025-05-19T08:47:18Z</time>
      </trkpt>
      <trkpt lat="43.947910973802209" lon="7.700011041015387">
        <ele>678.35000000000002</ele>
        <time>2025-05-19T08:47:19Z</time>
      </trkpt>
      <trkpt lat="43.947937041521072" lon="7.70016903989017">
        <ele>678.83000000000004</ele>
        <time>2025-05-19T08:47:20Z</time>
      </trkpt>
      <trkpt lat="43.947974005714059" lon="7.70038596354425">
        <ele>679.30999999999995</ele>
        <time>2025-05-19T08:47:21Z</time>
      </trkpt>
      <trkpt lat="43.947974005714059" lon="7.700458969920874">
        <ele>679.78999999999996</ele>
        <time>2025-05-19T08:47:22Z</time>
      </trkpt>
      <trkpt lat="43.947974005714059" lon="7.700585033744574">
        <ele>680.26999999999998</ele>
        <time>2025-05-19T08:47:23Z</time>
      </trkpt>
      <trkpt lat="43.947974005714059" lon="7.700715959072113">
        <ele>680.26999999999998</ele>
        <time>2025-05-19T08:47:24Z</time>
      </trkpt>
      <trkpt lat="43.947985991835594" lon="7.700902037322521">
        <ele>680.75</ele>
        <time>2025-05-19T08:47:25Z</time>
      </trkpt>
      <trkpt lat="43.948042988777161" lon="7.701003961265087">
        <ele>681.23000000000002</ele>
        <time>2025-05-19T08:47:26Z</time>
      </trkpt>
      <trkpt lat="43.948101997375488" lon="7.701112003996968">
        <ele>681.71000000000004</ele>
        <time>2025-05-19T08:47:27Z</time>
      </trkpt>
      <trkpt lat="43.948158994317055" lon="7.701215017586947">
        <ele>682.19000000000005</ele>
        <time>2025-05-19T08:47:28Z</time>
      </trkpt>
      <trkpt lat="43.948209034278989" lon="7.701305961236358">
        <ele>682.66999999999996</ele>
        <time>2025-05-19T08:47:29Z</time>
      </trkpt>
      <trkpt lat="43.948253961279988" lon="7.701387014240027">
        <ele>683.14999999999998</ele>
        <time>2025-05-19T08:47:30Z</time>
      </trkpt>
      <trkpt lat="43.9482999779284" lon="7.701472006738186">
        <ele>683.63</ele>
        <time>2025-05-19T08:47:31Z</time>
      </trkpt>
      <trkpt lat="43.948322022333741" lon="7.701537972316146">
        <ele>684.60000000000002</ele>
        <time>2025-05-19T08:47:32Z</time>
      </trkpt>
      <trkpt lat="43.948335014283657" lon="7.701625982299447">
        <ele>685.08000000000004</ele>
        <time>2025-05-19T08:47:33Z</time>
      </trkpt>
      <trkpt lat="43.948319004848599" lon="7.701671998947859">
        <ele>685.55999999999995</ele>
        <time>2025-05-19T08:47:34Z</time>
      </trkpt>
      <trkpt lat="43.948257984593511" lon="7.701732013374567">
        <ele>685.55999999999995</ele>
        <time>2025-05-19T08:47:35Z</time>
      </trkpt>
      <trkpt lat="43.948199981823564" lon="7.701791021972895">
        <ele>686.03999999999996</ele>
        <time>2025-05-19T08:47:36Z</time>
      </trkpt>
      <trkpt lat="43.948124041780829" lon="7.701866962015629">
        <ele>686.03999999999996</ele>
        <time>2025-05-19T08:47:37Z</time>
      </trkpt>
      <trkpt lat="43.948027985170484" lon="7.701901998370886">
        <ele>686.03999999999996</ele>
        <time>2025-05-19T08:47:38Z</time>
      </trkpt>
      <trkpt lat="43.947907034307718" lon="7.701946003362536">
        <ele>686.51999999999998</ele>
        <time>2025-05-19T08:47:39Z</time>
      </trkpt>
      <trkpt lat="43.947419039905071" lon="7.702125962823629">
        <ele>689.88</ele>
        <time>2025-05-19T08:47:43Z</time>
      </trkpt>
      <trkpt lat="43.947285013273358" lon="7.702184971421957">
        <ele>690.84000000000003</ele>
        <time>2025-05-19T08:47:44Z</time>
      </trkpt>
      <trkpt lat="43.947133971378207" lon="7.702302988618612">
        <ele>691.80999999999995</ele>
        <time>2025-05-19T08:47:45Z</time>
      </trkpt>
      <trkpt lat="43.94709499552846" lon="7.702410025522113">
        <ele>692.76999999999998</ele>
        <time>2025-05-19T08:47:46Z</time>
      </trkpt>
      <trkpt lat="43.94705300219357" lon="7.702582022175193">
        <ele>693.73000000000002</ele>
        <time>2025-05-19T08:47:47Z</time>
      </trkpt>
      <trkpt lat="43.947058031335473" lon="7.702688975259662">
        <ele>694.69000000000005</ele>
        <time>2025-05-19T08:47:48Z</time>
      </trkpt>
      <trkpt lat="43.947061970829964" lon="7.702799029648304">
        <ele>695.64999999999998</ele>
        <time>2025-05-19T08:47:49Z</time>
      </trkpt>
      <trkpt lat="43.94707303494215" lon="7.703046966344118">
        <ele>697.09000000000003</ele>
        <time>2025-05-19T08:47:51Z</time>
      </trkpt>
      <trkpt lat="43.947036992758512" lon="7.703100023791194">
        <ele>698.04999999999995</ele>
        <time>2025-05-19T08:47:52Z</time>
      </trkpt>
      <trkpt lat="43.94698703661561" lon="7.703175963833928">
        <ele>699.01999999999998</ele>
        <time>2025-05-19T08:47:53Z</time>
      </trkpt>
      <trkpt lat="43.946907995268703" lon="7.703220974653959">
        <ele>699.98000000000002</ele>
        <time>2025-05-19T08:47:54Z</time>
      </trkpt>
      <trkpt lat="43.946811016649008" lon="7.703273026272655">
        <ele>701.89999999999998</ele>
        <time>2025-05-19T08:47:55Z</time>
      </trkpt>
      <trkpt lat="43.946710014715791" lon="7.703319964930415">
        <ele>703.82000000000005</ele>
        <time>2025-05-19T08:47:56Z</time>
      </trkpt>
      <trkpt lat="43.946613958105445" lon="7.703363969922066">
        <ele>705.25999999999999</ele>
        <time>2025-05-19T08:47:57Z</time>
      </trkpt>
      <trkpt lat="43.946446990594268" lon="7.703505959361792">
        <ele>707.66999999999996</ele>
        <time>2025-05-19T08:47:59Z</time>
      </trkpt>
      <trkpt lat="43.946368033066392" lon="7.703590029850602">
        <ele>708.63</ele>
        <time>2025-05-19T08:48:00Z</time>
      </trkpt>
      <trkpt lat="43.946209028363228" lon="7.70375800319016">
        <ele>710.54999999999995</ele>
        <time>2025-05-19T08:48:02Z</time>
      </trkpt>
      <trkpt lat="43.946170974522829" lon="7.703797984868288">
        <ele>711.99000000000001</ele>
        <time>2025-05-19T08:48:03Z</time>
      </trkpt>
      <trkpt lat="43.946124035865068" lon="7.703922959044576">
        <ele>712.95000000000005</ele>
        <time>2025-05-19T08:48:04Z</time>
      </trkpt>
      <trkpt lat="43.94610702060163" lon="7.703969981521368">
        <ele>714.39999999999998</ele>
        <time>2025-05-19T08:48:05Z</time>
      </trkpt>
      <trkpt lat="43.946120012551546" lon="7.70399403758347">
        <ele>715.84000000000003</ele>
        <time>2025-05-19T08:48:06Z</time>
      </trkpt>
      <trkpt lat="43.946156976744533" lon="7.704064026474953">
        <ele>717.75999999999999</ele>
        <time>2025-05-19T08:48:07Z</time>
      </trkpt>
      <trkpt lat="43.946202993392944" lon="7.704150024801493">
        <ele>719.20000000000005</ele>
        <time>2025-05-19T08:48:08Z</time>
      </trkpt>
      <trkpt lat="43.946260996162891" lon="7.704257983714342">
        <ele>720.64999999999998</ele>
        <time>2025-05-19T08:48:09Z</time>
      </trkpt>
      <trkpt lat="43.946326961740851" lon="7.704382035881281">
        <ele>721.61000000000001</ele>
        <time>2025-05-19T08:48:10Z</time>
      </trkpt>
      <trkpt lat="43.946454031392932" lon="7.70461798645556">
        <ele>724.49000000000001</ele>
        <time>2025-05-19T08:48:12Z</time>
      </trkpt>
      <trkpt lat="43.946540029719472" lon="7.704716976732016">
        <ele>725.45000000000005</ele>
        <time>2025-05-19T08:48:13Z</time>
      </trkpt>
      <trkpt lat="43.946624016389251" lon="7.704814961180091">
        <ele>726.40999999999997</ele>
        <time>2025-05-19T08:48:14Z</time>
      </trkpt>
      <trkpt lat="43.946714960038662" lon="7.704930966719985">
        <ele>727.86000000000001</ele>
        <time>2025-05-19T08:48:15Z</time>
      </trkpt>
      <trkpt lat="43.946762988343835" lon="7.705052001401782">
        <ele>728.82000000000005</ele>
        <time>2025-05-19T08:48:16Z</time>
      </trkpt>
      <trkpt lat="43.946800958365202" lon="7.705212011933327">
        <ele>729.77999999999997</ele>
        <time>2025-05-19T08:48:17Z</time>
      </trkpt>
      <trkpt lat="43.94681403413415" lon="7.705354001373053">
        <ele>730.74000000000001</ele>
        <time>2025-05-19T08:48:18Z</time>
      </trkpt>
      <trkpt lat="43.946827026084065" lon="7.705494984984398">
        <ele>731.70000000000005</ele>
        <time>2025-05-19T08:48:19Z</time>
      </trkpt>
      <trkpt lat="43.946828031912446" lon="7.705664969980717">
        <ele>733.13999999999999</ele>
        <time>2025-05-19T08:48:20Z</time>
      </trkpt>
      <trkpt lat="43.946806993335485" lon="7.705814000219107">
        <ele>734.10000000000002</ele>
        <time>2025-05-19T08:48:21Z</time>
      </trkpt>
      <trkpt lat="43.946786960586905" lon="7.705960012972355">
        <ele>735.07000000000005</ele>
        <time>2025-05-19T08:48:22Z</time>
      </trkpt>
      <trkpt lat="43.946765000000596" lon="7.706116000190377">
        <ele>736.02999999999997</ele>
        <time>2025-05-19T08:48:23Z</time>
      </trkpt>
      <trkpt lat="43.946748990565538" lon="7.706260001286864">
        <ele>736.99000000000001</ele>
        <time>2025-05-19T08:48:24Z</time>
      </trkpt>
      <trkpt lat="43.946740021929145" lon="7.706415988504887">
        <ele>738.42999999999995</ele>
        <time>2025-05-19T08:48:25Z</time>
      </trkpt>
      <trkpt lat="43.94673096947372" lon="7.706570969894528">
        <ele>739.87</ele>
        <time>2025-05-19T08:48:26Z</time>
      </trkpt>
      <trkpt lat="43.946698028594255" lon="7.70672301761806">
        <ele>740.83000000000004</ele>
        <time>2025-05-19T08:48:27Z</time>
      </trkpt>
      <trkpt lat="43.946661986410618" lon="7.706856038421392">
        <ele>741.78999999999996</ele>
        <time>2025-05-19T08:48:28Z</time>
      </trkpt>
      <trkpt lat="43.94660197198391" lon="7.707075979560614">
        <ele>744.20000000000005</ele>
        <time>2025-05-19T08:48:30Z</time>
      </trkpt>
      <trkpt lat="43.946599960327148" lon="7.707081008702517">
        <ele>745.15999999999997</ele>
        <time>2025-05-19T08:48:31Z</time>
      </trkpt>
      <trkpt lat="43.94664203748107" lon="7.707184022292495">
        <ele>746.12</ele>
        <time>2025-05-19T08:48:32Z</time>
      </trkpt>
      <trkpt lat="43.946653017774224" lon="7.707187039777637">
        <ele>747.55999999999995</ele>
        <time>2025-05-19T08:48:33Z</time>
      </trkpt>
      <trkpt lat="43.946729963645339" lon="7.707178993150592">
        <ele>749</ele>
        <time>2025-05-19T08:48:34Z</time>
      </trkpt>
      <trkpt lat="43.94683700054884" lon="7.707167007029057">
        <ele>749.97000000000003</ele>
        <time>2025-05-19T08:48:35Z</time>
      </trkpt>
      <trkpt lat="43.946930039674044" lon="7.707112021744251">
        <ele>750.92999999999995</ele>
        <time>2025-05-19T08:48:36Z</time>
      </trkpt>
      <trkpt lat="43.94703296944499" lon="7.707051001489162">
        <ele>751.88999999999999</ele>
        <time>2025-05-19T08:48:37Z</time>
      </trkpt>
      <trkpt lat="43.947131959721446" lon="7.706992998719215">
        <ele>752.85000000000002</ele>
        <time>2025-05-19T08:48:38Z</time>
      </trkpt>
      <trkpt lat="43.94720102660358" lon="7.706952011212707">
        <ele>753.80999999999995</ele>
        <time>2025-05-19T08:48:39Z</time>
      </trkpt>
      <trkpt lat="43.947306973859668" lon="7.706997022032738">
        <ele>754.28999999999996</ele>
        <time>2025-05-19T08:48:40Z</time>
      </trkpt>
      <trkpt lat="43.947390038520098" lon="7.707031974568963">
        <ele>755.25</ele>
        <time>2025-05-19T08:48:41Z</time>
      </trkpt>
      <trkpt lat="43.947470001876354" lon="7.707064999267459">
        <ele>755.73000000000002</ele>
        <time>2025-05-19T08:48:42Z</time>
      </trkpt>
      <trkpt lat="43.947533033788204" lon="7.707091988995671">
        <ele>756.69000000000005</ele>
        <time>2025-05-19T08:48:43Z</time>
      </trkpt>
      <trkpt lat="43.947640992701054" lon="7.707101041451097">
        <ele>757.17999999999995</ele>
        <time>2025-05-19T08:48:44Z</time>
      </trkpt>
      <trkpt lat="43.947702012956142" lon="7.707057958468795">
        <ele>758.13999999999999</ele>
        <time>2025-05-19T08:48:45Z</time>
      </trkpt>
      <trkpt lat="43.947947015985847" lon="7.706884033977985">
        <ele>760.53999999999996</ele>
        <time>2025-05-19T08:48:48Z</time>
      </trkpt>
      <trkpt lat="43.948124041780829" lon="7.706758975982666">
        <ele>762.46000000000004</ele>
        <time>2025-05-19T08:48:50Z</time>
      </trkpt>
      <trkpt lat="43.948184978216887" lon="7.70676601678133">
        <ele>762.94000000000005</ele>
        <time>2025-05-19T08:48:51Z</time>
      </trkpt>
      <trkpt lat="43.948272988200188" lon="7.706775991246104">
        <ele>763.41999999999996</ele>
        <time>2025-05-19T08:48:52Z</time>
      </trkpt>
      <trkpt lat="43.948362004011869" lon="7.706786971539259">
        <ele>763.89999999999998</ele>
        <time>2025-05-19T08:48:53Z</time>
      </trkpt>
      <trkpt lat="43.948488989844918" lon="7.706801975145936">
        <ele>764.38999999999999</ele>
        <time>2025-05-19T08:48:54Z</time>
      </trkpt>
      <trkpt lat="43.948565013706684" lon="7.706794012337923">
        <ele>764.38999999999999</ele>
        <time>2025-05-19T08:48:55Z</time>
      </trkpt>
      <trkpt lat="43.948672972619534" lon="7.706782026216388">
        <ele>764.87</ele>
        <time>2025-05-19T08:48:56Z</time>
      </trkpt>
      <trkpt lat="43.948785960674286" lon="7.706769034266472">
        <ele>765.35000000000002</ele>
        <time>2025-05-19T08:48:57Z</time>
      </trkpt>
      <trkpt lat="43.948900038376451" lon="7.706755958497524">
        <ele>765.83000000000004</ele>
        <time>2025-05-19T08:48:58Z</time>
      </trkpt>
      <trkpt lat="43.949015038087964" lon="7.706743972375989">
        <ele>766.30999999999995</ele>
        <time>2025-05-19T08:48:59Z</time>
      </trkpt>
      <trkpt lat="43.949126014485955" lon="7.706730980426073">
        <ele>766.78999999999996</ele>
        <time>2025-05-19T08:49:00Z</time>
      </trkpt>
      <trkpt lat="43.949260963127017" lon="7.706715976819396">
        <ele>767.26999999999998</ele>
        <time>2025-05-19T08:49:01Z</time>
      </trkpt>
      <trkpt lat="43.949303962290287" lon="7.706732992082834">
        <ele>767.75</ele>
        <time>2025-05-19T08:49:02Z</time>
      </trkpt>
      <trkpt lat="43.949392978101969" lon="7.706780014559627">
        <ele>768.23000000000002</ele>
        <time>2025-05-19T08:49:03Z</time>
      </trkpt>
      <trkpt lat="43.949472019448876" lon="7.706847991794348">
        <ele>768.71000000000004</ele>
        <time>2025-05-19T08:49:04Z</time>
      </trkpt>
      <trkpt lat="43.949546031653881" lon="7.706911023706198">
        <ele>769.66999999999996</ele>
        <time>2025-05-19T08:49:05Z</time>
      </trkpt>
      <trkpt lat="43.949666982516646" lon="7.707014959305525">
        <ele>771.11000000000001</ele>
        <time>2025-05-19T08:49:07Z</time>
      </trkpt>
      <trkpt lat="43.949703024700284" lon="7.707106992602348">
        <ele>772.08000000000004</ele>
        <time>2025-05-19T08:49:08Z</time>
      </trkpt>
      <trkpt lat="43.949731020256877" lon="7.707212017849088">
        <ele>773.03999999999996</ele>
        <time>2025-05-19T08:49:09Z</time>
      </trkpt>
      <trkpt lat="43.949720039963722" lon="7.70734696649015">
        <ele>773.51999999999998</ele>
        <time>2025-05-19T08:49:10Z</time>
      </trkpt>
      <trkpt lat="43.949705958366394" lon="7.707508988678455">
        <ele>774.48000000000002</ele>
        <time>2025-05-19T08:49:11Z</time>
      </trkpt>
      <trkpt lat="43.949691960588098" lon="7.707676040008664">
        <ele>775.44000000000005</ele>
        <time>2025-05-19T08:49:12Z</time>
      </trkpt>
      <trkpt lat="43.949651978909969" lon="7.708139978349209">
        <ele>778.32000000000005</ele>
        <time>2025-05-19T08:49:15Z</time>
      </trkpt>
      <trkpt lat="43.949676034972072" lon="7.708252966403961">
        <ele>778.80999999999995</ele>
        <time>2025-05-19T08:49:16Z</time>
      </trkpt>
      <trkpt lat="43.949715010821819" lon="7.708332007750869">
        <ele>779.28999999999996</ele>
        <time>2025-05-19T08:49:17Z</time>
      </trkpt>
      <trkpt lat="43.949754992499948" lon="7.708410965278745">
        <ele>779.76999999999998</ele>
        <time>2025-05-19T08:49:18Z</time>
      </trkpt>
      <trkpt lat="43.949797991663218" lon="7.708413982763887">
        <ele>779.76999999999998</ele>
        <time>2025-05-19T08:49:19Z</time>
      </trkpt>
      <trkpt lat="43.949878960847855" lon="7.708419011905789">
        <ele>780.25</ele>
        <time>2025-05-19T08:49:20Z</time>
      </trkpt>
      <trkpt lat="43.950355974957347" lon="7.70839998498559">
        <ele>781.21000000000004</ele>
        <time>2025-05-19T08:49:24Z</time>
      </trkpt>
      <trkpt lat="43.950669039040804" lon="7.70835698582232">
        <ele>782.16999999999996</ele>
        <time>2025-05-19T08:49:27Z</time>
      </trkpt>
      <trkpt lat="43.950741961598396" lon="7.708347011357546">
        <ele>782.64999999999998</ele>
        <time>2025-05-19T08:49:28Z</time>
      </trkpt>
      <trkpt lat="43.950808010995388" lon="7.708418006077409">
        <ele>783.13</ele>
        <time>2025-05-19T08:49:29Z</time>
      </trkpt>
      <trkpt lat="43.950871964916587" lon="7.708486989140511">
        <ele>784.09000000000003</ele>
        <time>2025-05-19T08:49:30Z</time>
      </trkpt>
      <trkpt lat="43.950928039848804" lon="7.708547003567219">
        <ele>784.57000000000005</ele>
        <time>2025-05-19T08:49:31Z</time>
      </trkpt>
      <trkpt lat="43.950980007648468" lon="7.708602994680405">
        <ele>785.04999999999995</ele>
        <time>2025-05-19T08:49:32Z</time>
      </trkpt>
      <trkpt lat="43.951058965176344" lon="7.708646999672055">
        <ele>786.01999999999998</ele>
        <time>2025-05-19T08:49:33Z</time>
      </trkpt>
      <trkpt lat="43.951152004301548" lon="7.708646999672055">
        <ele>786.5</ele>
        <time>2025-05-19T08:49:34Z</time>
      </trkpt>
      <trkpt lat="43.951256023719907" lon="7.708646999672055">
        <ele>786.98000000000002</ele>
        <time>2025-05-19T08:49:35Z</time>
      </trkpt>
      <trkpt lat="43.951365994289517" lon="7.708646999672055">
        <ele>787.46000000000004</ele>
        <time>2025-05-19T08:49:36Z</time>
      </trkpt>
      <trkpt lat="43.951584007591009" lon="7.708656974136829">
        <ele>787.94000000000005</ele>
        <time>2025-05-19T08:49:38Z</time>
      </trkpt>
      <trkpt lat="43.951729014515877" lon="7.708711959421635">
        <ele>787.94000000000005</ele>
        <time>2025-05-19T08:49:39Z</time>
      </trkpt>
      <trkpt lat="43.951781988143921" lon="7.708765016868711">
        <ele>787.94000000000005</ele>
        <time>2025-05-19T08:49:40Z</time>
      </trkpt>
      <trkpt lat="43.951878966763616" lon="7.708861995488405">
        <ele>787.94000000000005</ele>
        <time>2025-05-19T08:49:41Z</time>
      </trkpt>
      <trkpt lat="43.951932024210691" lon="7.708967020735145">
        <ele>787.94000000000005</ele>
        <time>2025-05-19T08:49:42Z</time>
      </trkpt>
      <trkpt lat="43.951986003667116" lon="7.709075985476375">
        <ele>788.89999999999998</ele>
        <time>2025-05-19T08:49:43Z</time>
      </trkpt>
      <trkpt lat="43.952050963416696" lon="7.709204982966185">
        <ele>789.86000000000001</ele>
        <time>2025-05-19T08:49:44Z</time>
      </trkpt>
      <trkpt lat="43.952089017257094" lon="7.709243958815932">
        <ele>790.82000000000005</ele>
        <time>2025-05-19T08:49:45Z</time>
      </trkpt>
      <trkpt lat="43.952165963128209" lon="7.709290981292725">
        <ele>792.25999999999999</ele>
        <time>2025-05-19T08:49:46Z</time>
      </trkpt>
      <trkpt lat="43.952241986989975" lon="7.709290981292725">
        <ele>793.22000000000003</ele>
        <time>2025-05-19T08:49:47Z</time>
      </trkpt>
      <trkpt lat="43.952337959781289" lon="7.709276983514428">
        <ele>794.66999999999996</ele>
        <time>2025-05-19T08:49:48Z</time>
      </trkpt>
      <trkpt lat="43.952433010563254" lon="7.709232978522778">
        <ele>795.63</ele>
        <time>2025-05-19T08:49:49Z</time>
      </trkpt>
      <trkpt lat="43.952527977526188" lon="7.709187967702746">
        <ele>796.59000000000003</ele>
        <time>2025-05-19T08:49:50Z</time>
      </trkpt>
      <trkpt lat="43.952623028308153" lon="7.709143040701747">
        <ele>798.02999999999997</ele>
        <time>2025-05-19T08:49:51Z</time>
      </trkpt>
      <trkpt lat="43.952719001099467" lon="7.70912803709507">
        <ele>798.99000000000001</ele>
        <time>2025-05-19T08:49:52Z</time>
      </trkpt>
      <trkpt lat="43.952825032174587" lon="7.709146980196238">
        <ele>800.44000000000005</ele>
        <time>2025-05-19T08:49:53Z</time>
      </trkpt>
      <trkpt lat="43.953178999945521" lon="7.709228033199906">
        <ele>804.27999999999997</ele>
        <time>2025-05-19T08:49:57Z</time>
      </trkpt>
      <trkpt lat="43.953273966908455" lon="7.709290981292725">
        <ele>804.75999999999999</ele>
        <time>2025-05-19T08:49:58Z</time>
      </trkpt>
      <trkpt lat="43.953289976343513" lon="7.709344960749149">
        <ele>805.24000000000001</ele>
        <time>2025-05-19T08:49:59Z</time>
      </trkpt>
      <trkpt lat="43.953317971900105" lon="7.709440011531115">
        <ele>806.20000000000005</ele>
        <time>2025-05-19T08:50:00Z</time>
      </trkpt>
      <trkpt lat="43.953338004648685" lon="7.709505977109075">
        <ele>806.67999999999995</ele>
        <time>2025-05-19T08:50:01Z</time>
      </trkpt>
      <trkpt lat="43.95341201685369" lon="7.709578983485699">
        <ele>807.15999999999997</ele>
        <time>2025-05-19T08:50:02Z</time>
      </trkpt>
      <trkpt lat="43.953483011573553" lon="7.709628017619252">
        <ele>808.13</ele>
        <time>2025-05-19T08:50:03Z</time>
      </trkpt>
      <trkpt lat="43.953555012121797" lon="7.709657019004226">
        <ele>808.61000000000001</ele>
        <time>2025-05-19T08:50:04Z</time>
      </trkpt>
      <trkpt lat="43.953660037368536" lon="7.709699012339115">
        <ele>809.09000000000003</ele>
        <time>2025-05-19T08:50:05Z</time>
      </trkpt>
      <trkpt lat="43.953703958541155" lon="7.709691971540451">
        <ele>809.09000000000003</ele>
        <time>2025-05-19T08:50:06Z</time>
      </trkpt>
      <trkpt lat="43.953858017921448" lon="7.709671016782522">
        <ele>809.09000000000003</ele>
        <time>2025-05-19T08:50:08Z</time>
      </trkpt>
      <trkpt lat="43.953960025683045" lon="7.709656013175845">
        <ele>808.61000000000001</ele>
        <time>2025-05-19T08:50:09Z</time>
      </trkpt>
      <trkpt lat="43.95399397239089" lon="7.709689037874341">
        <ele>808.13</ele>
        <time>2025-05-19T08:50:10Z</time>
      </trkpt>
      <trkpt lat="43.954043006524444" lon="7.709799008443952">
        <ele>808.13</ele>
        <time>2025-05-19T08:50:11Z</time>
      </trkpt>
      <trkpt lat="43.954071002081037" lon="7.709920965135098">
        <ele>808.13</ele>
        <time>2025-05-19T08:50:12Z</time>
      </trkpt>
      <trkpt lat="43.954102015122771" lon="7.710055997595191">
        <ele>808.13</ele>
        <time>2025-05-19T08:50:13Z</time>
      </trkpt>
      <trkpt lat="43.954132022336125" lon="7.710186000913382">
        <ele>808.13</ele>
        <time>2025-05-19T08:50:14Z</time>
      </trkpt>
      <trkpt lat="43.954146020114422" lon="7.710295971482992">
        <ele>807.63999999999999</ele>
        <time>2025-05-19T08:50:15Z</time>
      </trkpt>
      <trkpt lat="43.954102015122771" lon="7.710396973416209">
        <ele>807.63999999999999</ele>
        <time>2025-05-19T08:50:16Z</time>
      </trkpt>
      <trkpt lat="43.954052980989218" lon="7.710509039461613">
        <ele>807.63999999999999</ele>
        <time>2025-05-19T08:50:17Z</time>
      </trkpt>
      <trkpt lat="43.954003024846315" lon="7.710625967010856">
        <ele>807.63999999999999</ele>
        <time>2025-05-19T08:50:18Z</time>
      </trkpt>
      <trkpt lat="43.954003024846315" lon="7.71076200529933">
        <ele>808.13</ele>
        <time>2025-05-19T08:50:19Z</time>
      </trkpt>
      <trkpt lat="43.954003024846315" lon="7.710921010002494">
        <ele>809.57000000000005</ele>
        <time>2025-05-19T08:50:20Z</time>
      </trkpt>
      <trkpt lat="43.954003024846315" lon="7.711060987785459">
        <ele>809.09000000000003</ele>
        <time>2025-05-19T08:50:21Z</time>
      </trkpt>
      <trkpt lat="43.953977962955832" lon="7.711162995547056">
        <ele>811.00999999999999</ele>
        <time>2025-05-19T08:50:22Z</time>
      </trkpt>
      <trkpt lat="43.953914009034634" lon="7.711283024400473">
        <ele>811.97000000000003</ele>
        <time>2025-05-19T08:50:23Z</time>
      </trkpt>
      <trkpt lat="43.953788029029965" lon="7.711539007723332">
        <ele>812.92999999999995</ele>
        <time>2025-05-19T08:50:25Z</time>
      </trkpt>
      <trkpt lat="43.953736983239651" lon="7.711674040183425">
        <ele>813.40999999999997</ele>
        <time>2025-05-19T08:50:26Z</time>
      </trkpt>
      <trkpt lat="43.953684009611607" lon="7.71181502379477">
        <ele>814.37</ele>
        <time>2025-05-19T08:50:27Z</time>
      </trkpt>
      <trkpt lat="43.953632041811943" lon="7.711955001577735">
        <ele>815.82000000000005</ele>
        <time>2025-05-19T08:50:28Z</time>
      </trkpt>
      <trkpt lat="43.953587030991912" lon="7.712019961327314">
        <ele>816.77999999999997</ele>
        <time>2025-05-19T08:50:29Z</time>
      </trkpt>
      <trkpt lat="43.95349801518023" lon="7.712096991017461">
        <ele>817.74000000000001</ele>
        <time>2025-05-19T08:50:30Z</time>
      </trkpt>
      <trkpt lat="43.953408999368548" lon="7.712173014879227">
        <ele>819.17999999999995</ele>
        <time>2025-05-19T08:50:31Z</time>
      </trkpt>
      <trkpt lat="43.95332601852715" lon="7.71224400959909">
        <ele>820.13999999999999</ele>
        <time>2025-05-19T08:50:32Z</time>
      </trkpt>
      <trkpt lat="43.953255023807287" lon="7.712363032624126">
        <ele>821.10000000000002</ele>
        <time>2025-05-19T08:50:33Z</time>
      </trkpt>
      <trkpt lat="43.953199032694101" lon="7.71248297765851">
        <ele>821.58000000000004</ele>
        <time>2025-05-19T08:50:34Z</time>
      </trkpt>
      <trkpt lat="43.953167013823986" lon="7.712602000683546">
        <ele>822.54999999999995</ele>
        <time>2025-05-19T08:50:35Z</time>
      </trkpt>
      <trkpt lat="43.95313298329711" lon="7.712725969031453">
        <ele>823.50999999999999</ele>
        <time>2025-05-19T08:50:36Z</time>
      </trkpt>
      <trkpt lat="43.953100964426994" lon="7.712842980399728">
        <ele>824.47000000000003</ele>
        <time>2025-05-19T08:50:37Z</time>
      </trkpt>
      <trkpt lat="43.953064000234008" lon="7.712951023131609">
        <ele>825.90999999999997</ele>
        <time>2025-05-19T08:50:38Z</time>
      </trkpt>
      <trkpt lat="43.953001974150538" lon="7.713073985651135">
        <ele>826.87</ele>
        <time>2025-05-19T08:50:39Z</time>
      </trkpt>
      <trkpt lat="43.952947994694114" lon="7.713182028383017">
        <ele>827.83000000000004</ele>
        <time>2025-05-19T08:50:40Z</time>
      </trkpt>
      <trkpt lat="43.952901978045702" lon="7.713274983689189">
        <ele>829.26999999999998</ele>
        <time>2025-05-19T08:50:41Z</time>
      </trkpt>
      <trkpt lat="43.952887980267406" lon="7.713420996442437">
        <ele>830.24000000000001</ele>
        <time>2025-05-19T08:50:42Z</time>
      </trkpt>
      <trkpt lat="43.952887980267406" lon="7.713529039174318">
        <ele>831.67999999999995</ele>
        <time>2025-05-19T08:50:43Z</time>
      </trkpt>
      <trkpt lat="43.952915975823998" lon="7.713644038885832">
        <ele>833.12</ele>
        <time>2025-05-19T08:50:44Z</time>
      </trkpt>
      <trkpt lat="43.952962998300791" lon="7.713744034990668">
        <ele>834.55999999999995</ele>
        <time>2025-05-19T08:50:45Z</time>
      </trkpt>
      <trkpt lat="43.953014966100454" lon="7.713858028873801">
        <ele>836</ele>
        <time>2025-05-19T08:50:46Z</time>
      </trkpt>
      <trkpt lat="43.953070035204291" lon="7.713975962251425">
        <ele>836.48000000000002</ele>
        <time>2025-05-19T08:50:47Z</time>
      </trkpt>
      <trkpt lat="43.953126026317477" lon="7.714095991104841">
        <ele>837.45000000000005</ele>
        <time>2025-05-19T08:50:48Z</time>
      </trkpt>
      <trkpt lat="43.953181011602283" lon="7.714205961674452">
        <ele>838.40999999999997</ele>
        <time>2025-05-19T08:50:49Z</time>
      </trkpt>
      <trkpt lat="43.953242031857371" lon="7.714295983314514">
        <ele>839.37</ele>
        <time>2025-05-19T08:50:50Z</time>
      </trkpt>
      <trkpt lat="43.953297017142177" lon="7.714378964155912">
        <ele>840.33000000000004</ele>
        <time>2025-05-19T08:50:51Z</time>
      </trkpt>
      <trkpt lat="43.953430959954858" lon="7.714525982737541">
        <ele>842.25</ele>
        <time>2025-05-19T08:50:53Z</time>
      </trkpt>
      <trkpt lat="43.953516958281398" lon="7.714563030749559">
        <ele>843.21000000000004</ele>
        <time>2025-05-19T08:50:54Z</time>
      </trkpt>
      <trkpt lat="43.953616032376885" lon="7.714605024084449">
        <ele>844.17999999999995</ele>
        <time>2025-05-19T08:50:55Z</time>
      </trkpt>
      <trkpt lat="43.954371996223927" lon="7.714926972985268">
        <ele>851.38</ele>
        <time>2025-05-19T08:51:02Z</time>
      </trkpt>
      <trkpt lat="43.954456988722086" lon="7.714964020997286">
        <ele>851.87</ele>
        <time>2025-05-19T08:51:03Z</time>
      </trkpt>
      <trkpt lat="43.954553967341781" lon="7.71499696187675">
        <ele>852.83000000000004</ele>
        <time>2025-05-19T08:51:04Z</time>
      </trkpt>
      <trkpt lat="43.954646000638604" lon="7.714986987411976">
        <ele>853.30999999999995</ele>
        <time>2025-05-19T08:51:05Z</time>
      </trkpt>
      <trkpt lat="43.954777009785175" lon="7.714943988248706">
        <ele>854.26999999999998</ele>
        <time>2025-05-19T08:51:06Z</time>
      </trkpt>
      <trkpt lat="43.954886980354786" lon="7.714858995750547">
        <ele>855.23000000000002</ele>
        <time>2025-05-19T08:51:07Z</time>
      </trkpt>
      <trkpt lat="43.955262992531061" lon="7.714524976909161">
        <ele>856.19000000000005</ele>
        <time>2025-05-19T08:51:10Z</time>
      </trkpt>
      <trkpt lat="43.955512018874288" lon="7.714291037991643">
        <ele>856.66999999999996</ele>
        <time>2025-05-19T08:51:12Z</time>
      </trkpt>
      <trkpt lat="43.955631963908672" lon="7.714176960289478">
        <ele>856.66999999999996</ele>
        <time>2025-05-19T08:51:13Z</time>
      </trkpt>
      <trkpt lat="43.955980986356735" lon="7.713883006945252">
        <ele>857.14999999999998</ele>
        <time>2025-05-19T08:51:16Z</time>
      </trkpt>
      <trkpt lat="43.956089029088616" lon="7.713801031932235">
        <ele>857.14999999999998</ele>
        <time>2025-05-19T08:51:17Z</time>
      </trkpt>
      <trkpt lat="43.956379964947701" lon="7.713470030575991">
        <ele>857.14999999999998</ele>
        <time>2025-05-19T08:51:20Z</time>
      </trkpt>
      <trkpt lat="43.956513991579413" lon="7.713303985074163">
        <ele>857.14999999999998</ele>
        <time>2025-05-19T08:51:21Z</time>
      </trkpt>
      <trkpt lat="43.957411022856832" lon="7.712555984035134">
        <ele>857.14999999999998</ele>
        <time>2025-05-19T08:51:30Z</time>
      </trkpt>
      <trkpt lat="43.957472965121269" lon="7.712494963780046">
        <ele>857.14999999999998</ele>
        <time>2025-05-19T08:51:31Z</time>
      </trkpt>
      <trkpt lat="43.957554018124938" lon="7.712461017072201">
        <ele>857.14999999999998</ele>
        <time>2025-05-19T08:51:32Z</time>
      </trkpt>
      <trkpt lat="43.957653008401394" lon="7.712512984871864">
        <ele>857.14999999999998</ele>
        <time>2025-05-19T08:51:33Z</time>
      </trkpt>
      <trkpt lat="43.957678992301226" lon="7.712586997076869">
        <ele>857.14999999999998</ele>
        <time>2025-05-19T08:51:34Z</time>
      </trkpt>
      <trkpt lat="43.957715034484863" lon="7.712683975696564">
        <ele>856.66999999999996</ele>
        <time>2025-05-19T08:51:35Z</time>
      </trkpt>
      <trkpt lat="43.957746969535947" lon="7.712818002328277">
        <ele>856.66999999999996</ele>
        <time>2025-05-19T08:51:36Z</time>
      </trkpt>
      <trkpt lat="43.957764990627766" lon="7.712950017303228">
        <ele>856.19000000000005</ele>
        <time>2025-05-19T08:51:37Z</time>
      </trkpt>
      <trkpt lat="43.957784017547965" lon="7.713083038106561">
        <ele>856.19000000000005</ele>
        <time>2025-05-19T08:51:38Z</time>
      </trkpt>
      <trkpt lat="43.957802960649133" lon="7.713223015889525">
        <ele>856.19000000000005</ele>
        <time>2025-05-19T08:51:39Z</time>
      </trkpt>
      <trkpt lat="43.957822993397713" lon="7.713368022814393">
        <ele>856.19000000000005</ele>
        <time>2025-05-19T08:51:40Z</time>
      </trkpt>
      <trkpt lat="43.957860041409731" lon="7.713459972292185">
        <ele>856.66999999999996</ele>
        <time>2025-05-19T08:51:41Z</time>
      </trkpt>
      <trkpt lat="43.957908991724253" lon="7.713583018630743">
        <ele>857.14999999999998</ele>
        <time>2025-05-19T08:51:42Z</time>
      </trkpt>
      <trkpt lat="43.957965988665819" lon="7.713626017794013">
        <ele>857.63</ele>
        <time>2025-05-19T08:51:43Z</time>
      </trkpt>
      <trkpt lat="43.958045030012727" lon="7.713685026392341">
        <ele>858.11000000000001</ele>
        <time>2025-05-19T08:51:44Z</time>
      </trkpt>
      <trkpt lat="43.95813999697566" lon="7.713728025555611">
        <ele>858.59000000000003</ele>
        <time>2025-05-19T08:51:45Z</time>
      </trkpt>
      <trkpt lat="43.958244016394019" lon="7.713758032768965">
        <ele>859.08000000000004</ele>
        <time>2025-05-19T08:51:46Z</time>
      </trkpt>
      <trkpt lat="43.958350969478488" lon="7.713788961991668">
        <ele>860.03999999999996</ele>
        <time>2025-05-19T08:51:47Z</time>
      </trkpt>
      <trkpt lat="43.958536963909864" lon="7.713849982246757">
        <ele>861</ele>
        <time>2025-05-19T08:51:49Z</time>
      </trkpt>
      <trkpt lat="43.958601001650095" lon="7.713945033028722">
        <ele>861.96000000000004</ele>
        <time>2025-05-19T08:51:50Z</time>
      </trkpt>
      <trkpt lat="43.958660010248423" lon="7.714105965569615">
        <ele>862.91999999999996</ele>
        <time>2025-05-19T08:51:51Z</time>
      </trkpt>
      <trkpt lat="43.958660010248423" lon="7.714279973879457">
        <ele>864.36000000000001</ele>
        <time>2025-05-19T08:51:52Z</time>
      </trkpt>
      <trkpt lat="43.958660010248423" lon="7.714462028816342">
        <ele>865.32000000000005</ele>
        <time>2025-05-19T08:51:53Z</time>
      </trkpt>
      <trkpt lat="43.95859002135694" lon="7.714616004377604">
        <ele>866.28999999999996</ele>
        <time>2025-05-19T08:51:54Z</time>
      </trkpt>
      <trkpt lat="43.958522966131568" lon="7.714764028787613">
        <ele>866.76999999999998</ele>
        <time>2025-05-19T08:51:55Z</time>
      </trkpt>
      <trkpt lat="43.958453983068466" lon="7.714914986863732">
        <ele>868.21000000000004</ele>
        <time>2025-05-19T08:51:56Z</time>
      </trkpt>
      <trkpt lat="43.958349963650107" lon="7.715143980458379">
        <ele>870.13</ele>
        <time>2025-05-19T08:51:58Z</time>
      </trkpt>
      <trkpt lat="43.958337977528572" lon="7.715169964358211">
        <ele>871.57000000000005</ele>
        <time>2025-05-19T08:51:59Z</time>
      </trkpt>
      <trkpt lat="43.958325991407037" lon="7.7153380215168">
        <ele>872.52999999999997</ele>
        <time>2025-05-19T08:52:00Z</time>
      </trkpt>
      <trkpt lat="43.958319034427404" lon="7.715435000136495">
        <ele>873.98000000000002</ele>
        <time>2025-05-19T08:52:01Z</time>
      </trkpt>
      <trkpt lat="43.958333032205701" lon="7.715522004291415">
        <ele>875.41999999999996</ele>
        <time>2025-05-19T08:52:02Z</time>
      </trkpt>
      <trkpt lat="43.958364967256784" lon="7.715615965425968">
        <ele>876.86000000000001</ele>
        <time>2025-05-19T08:52:03Z</time>
      </trkpt>
      <trkpt lat="43.958393968641758" lon="7.715703975409269">
        <ele>878.29999999999995</ele>
        <time>2025-05-19T08:52:04Z</time>
      </trkpt>
      <trkpt lat="43.958409978076816" lon="7.715731970965862">
        <ele>879.74000000000001</ele>
        <time>2025-05-19T08:52:05Z</time>
      </trkpt>
      <trkpt lat="43.958468986675143" lon="7.715766001492739">
        <ele>880.71000000000004</ele>
        <time>2025-05-19T08:52:06Z</time>
      </trkpt>
      <trkpt lat="43.95854601636529" lon="7.715807994827628">
        <ele>881.66999999999996</ele>
        <time>2025-05-19T08:52:07Z</time>
      </trkpt>
      <trkpt lat="43.958646012470126" lon="7.715863985940814">
        <ele>882.63</ele>
        <time>2025-05-19T08:52:08Z</time>
      </trkpt>
      <trkpt lat="43.958754977211356" lon="7.715924000367522">
        <ele>884.07000000000005</ele>
        <time>2025-05-19T08:52:09Z</time>
      </trkpt>
      <trkpt lat="43.958852961659431" lon="7.716029025614262">
        <ele>885.50999999999999</ele>
        <time>2025-05-19T08:52:10Z</time>
      </trkpt>
      <trkpt lat="43.958932003006339" lon="7.716133967041969">
        <ele>886.47000000000003</ele>
        <time>2025-05-19T08:52:11Z</time>
      </trkpt>
      <trkpt lat="43.958995034918189" lon="7.71626103669405">
        <ele>887.90999999999997</ele>
        <time>2025-05-19T08:52:12Z</time>
      </trkpt>
      <trkpt lat="43.959015989676118" lon="7.716354997828603">
        <ele>888.88</ele>
        <time>2025-05-19T08:52:13Z</time>
      </trkpt>
      <trkpt lat="43.959016995504498" lon="7.716475026682019">
        <ele>889.84000000000003</ele>
        <time>2025-05-19T08:52:14Z</time>
      </trkpt>
      <trkpt lat="43.959008026868105" lon="7.71658499725163">
        <ele>890.79999999999995</ele>
        <time>2025-05-19T08:52:15Z</time>
      </trkpt>
      <trkpt lat="43.95899604074657" lon="7.716720029711723">
        <ele>891.75999999999999</ele>
        <time>2025-05-19T08:52:16Z</time>
      </trkpt>
      <trkpt lat="43.958982964977622" lon="7.716869981959462">
        <ele>893.20000000000005</ele>
        <time>2025-05-19T08:52:17Z</time>
      </trkpt>
      <trkpt lat="43.959001991897821" lon="7.716996967792511">
        <ele>894.15999999999997</ele>
        <time>2025-05-19T08:52:18Z</time>
      </trkpt>
      <trkpt lat="43.959023030474782" lon="7.717107022181153">
        <ele>895.12</ele>
        <time>2025-05-19T08:52:19Z</time>
      </trkpt>
      <trkpt lat="43.959039961919188" lon="7.717197965830565">
        <ele>896.09000000000003</ele>
        <time>2025-05-19T08:52:20Z</time>
      </trkpt>
      <trkpt lat="43.959065023809671" lon="7.717234008014202">
        <ele>897.04999999999995</ele>
        <time>2025-05-19T08:52:21Z</time>
      </trkpt>
      <trkpt lat="43.959138030186296" lon="7.717246999964118">
        <ele>898.00999999999999</ele>
        <time>2025-05-19T08:52:22Z</time>
      </trkpt>
      <trkpt lat="43.959231991320848" lon="7.717264015227556">
        <ele>898.97000000000003</ele>
        <time>2025-05-19T08:52:23Z</time>
      </trkpt>
      <trkpt lat="43.959333999082446" lon="7.717268038541079">
        <ele>899.45000000000005</ele>
        <time>2025-05-19T08:52:24Z</time>
      </trkpt>
      <trkpt lat="43.959447992965579" lon="7.717256974428892">
        <ele>900.40999999999997</ele>
        <time>2025-05-19T08:52:25Z</time>
      </trkpt>
      <trkpt lat="43.959566010162234" lon="7.717244988307357">
        <ele>901.37</ele>
        <time>2025-05-19T08:52:26Z</time>
      </trkpt>
      <trkpt lat="43.960424987599254" lon="7.717158989980817">
        <ele>910.02999999999997</ele>
        <time>2025-05-19T08:52:33Z</time>
      </trkpt>
      <trkpt lat="43.960568988695741" lon="7.71714499220252">
        <ele>910.99000000000001</ele>
        <time>2025-05-19T08:52:34Z</time>
      </trkpt>
      <trkpt lat="43.960660016164184" lon="7.717185979709029">
        <ele>911.95000000000005</ele>
        <time>2025-05-19T08:52:35Z</time>
      </trkpt>
      <trkpt lat="43.960780967026949" lon="7.717241970822215">
        <ele>912.90999999999997</ele>
        <time>2025-05-19T08:52:36Z</time>
      </trkpt>
      <trkpt lat="43.960892027243972" lon="7.717324029654265">
        <ele>913.87</ele>
        <time>2025-05-19T08:52:37Z</time>
      </trkpt>
      <trkpt lat="43.960989005863667" lon="7.717435006052256">
        <ele>914.83000000000004</ele>
        <time>2025-05-19T08:52:38Z</time>
      </trkpt>
      <trkpt lat="43.9610839728266" lon="7.717543970793486">
        <ele>916.26999999999998</ele>
        <time>2025-05-19T08:52:39Z</time>
      </trkpt>
      <trkpt lat="43.961173994466662" lon="7.717646984383464">
        <ele>917.24000000000001</ele>
        <time>2025-05-19T08:52:40Z</time>
      </trkpt>
      <trkpt lat="43.961252029985189" lon="7.717738011851907">
        <ele>918.20000000000005</ele>
        <time>2025-05-19T08:52:41Z</time>
      </trkpt>
      <trkpt lat="43.961330987513065" lon="7.717794002965093">
        <ele>919.15999999999997</ele>
        <time>2025-05-19T08:52:42Z</time>
      </trkpt>
      <trkpt lat="43.961398964747787" lon="7.717827027663589">
        <ele>920.12</ele>
        <time>2025-05-19T08:52:43Z</time>
      </trkpt>
      <trkpt lat="43.961469959467649" lon="7.717799032106996">
        <ele>921.08000000000004</ele>
        <time>2025-05-19T08:52:44Z</time>
      </trkpt>
      <trkpt lat="43.961543971672654" lon="7.717756032943726">
        <ele>922.03999999999996</ele>
        <time>2025-05-19T08:52:45Z</time>
      </trkpt>
      <trkpt lat="43.96161999553442" lon="7.71766098216176">
        <ele>923</ele>
        <time>2025-05-19T08:52:46Z</time>
      </trkpt>
      <trkpt lat="43.961703982204199" lon="7.717556040734053">
        <ele>923.96000000000004</ele>
        <time>2025-05-19T08:52:47Z</time>
      </trkpt>
      <trkpt lat="43.96187799051404" lon="7.717339033260942">
        <ele>925.40999999999997</ele>
        <time>2025-05-19T08:52:49Z</time>
      </trkpt>
      <trkpt lat="43.961971029639244" lon="7.717225039377809">
        <ele>926.37</ele>
        <time>2025-05-19T08:52:50Z</time>
      </trkpt>
      <trkpt lat="43.962452989071608" lon="7.71679999306798">
        <ele>931.64999999999998</ele>
        <time>2025-05-19T08:52:55Z</time>
      </trkpt>
      <trkpt lat="43.962518032640219" lon="7.716730004176498">
        <ele>933.10000000000002</ele>
        <time>2025-05-19T08:52:56Z</time>
      </trkpt>
      <trkpt lat="43.962654992938042" lon="7.716502016410232">
        <ele>936.46000000000004</ele>
        <time>2025-05-19T08:52:59Z</time>
      </trkpt>
      <trkpt lat="43.962708972394466" lon="7.716421969234943">
        <ele>937.41999999999996</ele>
        <time>2025-05-19T08:53:00Z</time>
      </trkpt>
      <trkpt lat="43.962875017896295" lon="7.716267993673682">
        <ele>940.30999999999995</ele>
        <time>2025-05-19T08:53:02Z</time>
      </trkpt>
      <trkpt lat="43.963797027245164" lon="7.715435000136495">
        <ele>953.76999999999998</ele>
        <time>2025-05-19T08:53:11Z</time>
      </trkpt>
      <trkpt lat="43.964373031631112" lon="7.715008025988936">
        <ele>962.89999999999998</ele>
        <time>2025-05-19T08:53:17Z</time>
      </trkpt>
      <trkpt lat="43.964446038007736" lon="7.714998973533511">
        <ele>964.34000000000003</ele>
        <time>2025-05-19T08:53:18Z</time>
      </trkpt>
      <trkpt lat="43.964504040777683" lon="7.714998973533511">
        <ele>965.77999999999997</ele>
        <time>2025-05-19T08:53:19Z</time>
      </trkpt>
      <trkpt lat="43.964553996920586" lon="7.71508296020329">
        <ele>967.22000000000003</ele>
        <time>2025-05-19T08:53:20Z</time>
      </trkpt>
      <trkpt lat="43.964581992477179" lon="7.715149009600282">
        <ele>968.17999999999995</ele>
        <time>2025-05-19T08:53:21Z</time>
      </trkpt>
      <trkpt lat="43.964581992477179" lon="7.715149009600282">
        <ele>969.63</ele>
        <time>2025-05-19T08:53:22Z</time>
      </trkpt>
      <trkpt lat="43.964574029669166" lon="7.715300973504782">
        <ele>971.54999999999995</ele>
        <time>2025-05-19T08:53:23Z</time>
      </trkpt>
      <trkpt lat="43.964567994698882" lon="7.715425025671721">
        <ele>972.99000000000001</ele>
        <time>2025-05-19T08:53:24Z</time>
      </trkpt>
      <trkpt lat="43.964589033275843" lon="7.715626023709774">
        <ele>973.95000000000005</ele>
        <time>2025-05-19T08:53:25Z</time>
      </trkpt>
      <trkpt lat="43.964624991640449" lon="7.715685032308102">
        <ele>974.90999999999997</ele>
        <time>2025-05-19T08:53:26Z</time>
      </trkpt>
      <trkpt lat="43.964711995795369" lon="7.715735994279385">
        <ele>975.88</ele>
        <time>2025-05-19T08:53:27Z</time>
      </trkpt>
      <trkpt lat="43.964767986908555" lon="7.715769018977881">
        <ele>976.36000000000001</ele>
        <time>2025-05-19T08:53:28Z</time>
      </trkpt>
      <trkpt lat="43.964833030477166" lon="7.715807994827628">
        <ele>977.32000000000005</ele>
        <time>2025-05-19T08:53:29Z</time>
      </trkpt>
      <trkpt lat="43.965042997151613" lon="7.715970017015934">
        <ele>980.20000000000005</ele>
        <time>2025-05-19T08:53:32Z</time>
      </trkpt>
      <trkpt lat="43.965098988264799" lon="7.7160460408777">
        <ele>980.67999999999995</ele>
        <time>2025-05-19T08:53:33Z</time>
      </trkpt>
      <trkpt lat="43.965132012963295" lon="7.716144025325775">
        <ele>981.15999999999997</ele>
        <time>2025-05-19T08:53:34Z</time>
      </trkpt>
      <trkpt lat="43.965152967721224" lon="7.716253995895386">
        <ele>981.63999999999999</ele>
        <time>2025-05-19T08:53:35Z</time>
      </trkpt>
      <trkpt lat="43.965177023783326" lon="7.716381987556815">
        <ele>982.12</ele>
        <time>2025-05-19T08:53:36Z</time>
      </trkpt>
      <trkpt lat="43.965218011289835" lon="7.716495981439948">
        <ele>982.60000000000002</ele>
        <time>2025-05-19T08:53:37Z</time>
      </trkpt>
      <trkpt lat="43.965274002403021" lon="7.716624978929758">
        <ele>983.09000000000003</ele>
        <time>2025-05-19T08:53:38Z</time>
      </trkpt>
      <trkpt lat="43.96533502265811" lon="7.716765962541103">
        <ele>983.57000000000005</ele>
        <time>2025-05-19T08:53:39Z</time>
      </trkpt>
      <trkpt lat="43.965397970750928" lon="7.716911975294352">
        <ele>984.04999999999995</ele>
        <time>2025-05-19T08:53:40Z</time>
      </trkpt>
      <trkpt lat="43.965467037633061" lon="7.717083971947432">
        <ele>985.00999999999999</ele>
        <time>2025-05-19T08:53:41Z</time>
      </trkpt>
      <trkpt lat="43.965506013482809" lon="7.717265021055937">
        <ele>985.97000000000003</ele>
        <time>2025-05-19T08:53:42Z</time>
      </trkpt>
      <trkpt lat="43.965725032612681" lon="7.718294989317656">
        <ele>991.74000000000001</ele>
        <time>2025-05-19T08:53:48Z</time>
      </trkpt>
      <trkpt lat="43.965758979320526" lon="7.718396997079253">
        <ele>993.17999999999995</ele>
        <time>2025-05-19T08:53:49Z</time>
      </trkpt>
      <trkpt lat="43.965825028717518" lon="7.718504033982754">
        <ele>994.13999999999999</ele>
        <time>2025-05-19T08:53:50Z</time>
      </trkpt>
      <trkpt lat="43.965893005952239" lon="7.718612998723984">
        <ele>995.58000000000004</ele>
        <time>2025-05-19T08:53:51Z</time>
      </trkpt>
      <trkpt lat="43.965965006500483" lon="7.718727998435497">
        <ele>996.53999999999996</ele>
        <time>2025-05-19T08:53:52Z</time>
      </trkpt>
      <trkpt lat="43.966182013973594" lon="7.719078026711941">
        <ele>1000.39</ele>
        <time>2025-05-19T08:53:55Z</time>
      </trkpt>
      <trkpt lat="43.96623901091516" lon="7.719208030030131">
        <ele>1001.83</ele>
        <time>2025-05-19T08:53:56Z</time>
      </trkpt>
      <trkpt lat="43.966255020350218" lon="7.719352031126618">
        <ele>1003.27</ele>
        <time>2025-05-19T08:53:57Z</time>
      </trkpt>
      <trkpt lat="43.966272035613656" lon="7.719499971717596">
        <ele>1004.72</ele>
        <time>2025-05-19T08:53:58Z</time>
      </trkpt>
      <trkpt lat="43.966287961229682" lon="7.719650007784367">
        <ele>1006.16</ele>
        <time>2025-05-19T08:53:59Z</time>
      </trkpt>
      <trkpt lat="43.96630497649312" lon="7.719796020537615">
        <ele>1007.6</ele>
        <time>2025-05-19T08:54:00Z</time>
      </trkpt>
      <trkpt lat="43.966319980099797" lon="7.719933986663818">
        <ele>1009.04</ele>
        <time>2025-05-19T08:54:01Z</time>
      </trkpt>
      <trkpt lat="43.966378988698125" lon="7.720039011910558">
        <ele>1010.48</ele>
        <time>2025-05-19T08:54:02Z</time>
      </trkpt>
      <trkpt lat="43.966427017003298" lon="7.720127021893859">
        <ele>1011.9299999999999</ele>
        <time>2025-05-19T08:54:03Z</time>
      </trkpt>
      <trkpt lat="43.966530030593276" lon="7.72021695971489">
        <ele>1013.37</ele>
        <time>2025-05-19T08:54:04Z</time>
      </trkpt>
      <trkpt lat="43.966619968414307" lon="7.720298012718558">
        <ele>1014.8099999999999</ele>
        <time>2025-05-19T08:54:05Z</time>
      </trkpt>
      <trkpt lat="43.966706972569227" lon="7.720374036580324">
        <ele>1016.25</ele>
        <time>2025-05-19T08:54:06Z</time>
      </trkpt>
      <trkpt lat="43.966787019744515" lon="7.720444025471807">
        <ele>1018.17</ele>
        <time>2025-05-19T08:54:07Z</time>
      </trkpt>
      <trkpt lat="43.966848962008953" lon="7.720547961071134">
        <ele>1019.62</ele>
        <time>2025-05-19T08:54:08Z</time>
      </trkpt>
      <trkpt lat="43.966865977272391" lon="7.720696991309524">
        <ele>1020.58</ele>
        <time>2025-05-19T08:54:09Z</time>
      </trkpt>
      <trkpt lat="43.966850973665714" lon="7.720828000456095">
        <ele>1022.02</ele>
        <time>2025-05-19T08:54:10Z</time>
      </trkpt>
      <trkpt lat="43.966834964230657" lon="7.720964038744569">
        <ele>1022.98</ele>
        <time>2025-05-19T08:54:11Z</time>
      </trkpt>
      <trkpt lat="43.966768998652697" lon="7.721078032627702">
        <ele>1024.4200000000001</ele>
        <time>2025-05-19T08:54:12Z</time>
      </trkpt>
      <trkpt lat="43.966706972569227" lon="7.721184985712171">
        <ele>1025.3800000000001</ele>
        <time>2025-05-19T08:54:13Z</time>
      </trkpt>
      <trkpt lat="43.96664503030479" lon="7.721292022615671">
        <ele>1026.3399999999999</ele>
        <time>2025-05-19T08:54:14Z</time>
      </trkpt>
      <trkpt lat="43.966589961200953" lon="7.721407022327185">
        <ele>1027.3099999999999</ele>
        <time>2025-05-19T08:54:15Z</time>
      </trkpt>
      <trkpt lat="43.966556014493108" lon="7.721544988453388">
        <ele>1028.75</ele>
        <time>2025-05-19T08:54:16Z</time>
      </trkpt>
      <trkpt lat="43.966426011174917" lon="7.721965005621314">
        <ele>1032.5899999999999</ele>
        <time>2025-05-19T08:54:19Z</time>
      </trkpt>
      <trkpt lat="43.966355016455054" lon="7.722088973969221">
        <ele>1033.55</ele>
        <time>2025-05-19T08:54:20Z</time>
      </trkpt>
      <trkpt lat="43.966130968183279" lon="7.722484013065696">
        <ele>1037.8800000000001</ele>
        <time>2025-05-19T08:54:23Z</time>
      </trkpt>
      <trkpt lat="43.966095009818673" lon="7.722610998898745">
        <ele>1038.8399999999999</ele>
        <time>2025-05-19T08:54:24Z</time>
      </trkpt>
      <trkpt lat="43.966075982898474" lon="7.72275198251009">
        <ele>1040.28</ele>
        <time>2025-05-19T08:54:25Z</time>
      </trkpt>
      <trkpt lat="43.966068020090461" lon="7.722885003313422">
        <ele>1041.73</ele>
        <time>2025-05-19T08:54:26Z</time>
      </trkpt>
      <trkpt lat="43.966090986505151" lon="7.723024981096387">
        <ele>1043.1700000000001</ele>
        <time>2025-05-19T08:54:27Z</time>
      </trkpt>
      <trkpt lat="43.966114036738873" lon="7.723121037706733">
        <ele>1044.6099999999999</ele>
        <time>2025-05-19T08:54:28Z</time>
      </trkpt>
      <trkpt lat="43.96617597900331" lon="7.723208041861653">
        <ele>1045.5699999999999</ele>
        <time>2025-05-19T08:54:29Z</time>
      </trkpt>
      <trkpt lat="43.966244962066412" lon="7.723283981904388">
        <ele>1047.01</ele>
        <time>2025-05-19T08:54:30Z</time>
      </trkpt>
      <trkpt lat="43.96675399504602" lon="7.723711039870977">
        <ele>1052.3</ele>
        <time>2025-05-19T08:54:35Z</time>
      </trkpt>
      <trkpt lat="43.966835970059037" lon="7.723813969641924">
        <ele>1053.26</ele>
        <time>2025-05-19T08:54:36Z</time>
      </trkpt>
      <trkpt lat="43.9669069647789" lon="7.723901979625225">
        <ele>1054.22</ele>
        <time>2025-05-19T08:54:37Z</time>
      </trkpt>
      <trkpt lat="43.966942001134157" lon="7.723946990445256">
        <ele>1055.1800000000001</ele>
        <time>2025-05-19T08:54:38Z</time>
      </trkpt>
      <trkpt lat="43.967063035815954" lon="7.723970962688327">
        <ele>1056.1500000000001</ele>
        <time>2025-05-19T08:54:39Z</time>
      </trkpt>
      <trkpt lat="43.967164037749171" lon="7.723990995436907">
        <ele>1057.1099999999999</ele>
        <time>2025-05-19T08:54:40Z</time>
      </trkpt>
      <trkpt lat="43.967276019975543" lon="7.724013039842248">
        <ele>1058.0699999999999</ele>
        <time>2025-05-19T08:54:41Z</time>
      </trkpt>
      <trkpt lat="43.967394037172198" lon="7.724037012085319">
        <ele>1059.03</ele>
        <time>2025-05-19T08:54:42Z</time>
      </trkpt>
      <trkpt lat="43.967826040461659" lon="7.724181013181806">
        <ele>1063.3599999999999</ele>
        <time>2025-05-19T08:54:46Z</time>
      </trkpt>
      <trkpt lat="43.967901980504394" lon="7.724229963496327">
        <ele>1063.8399999999999</ele>
        <time>2025-05-19T08:54:47Z</time>
      </trkpt>
      <trkpt lat="43.967940034344792" lon="7.724329959601164">
        <ele>1064.8</ele>
        <time>2025-05-19T08:54:48Z</time>
      </trkpt>
      <trkpt lat="43.967951014637947" lon="7.724418975412846">
        <ele>1065.76</ele>
        <time>2025-05-19T08:54:49Z</time>
      </trkpt>
      <trkpt lat="43.967951014637947" lon="7.724572028964758">
        <ele>1067.2</ele>
        <time>2025-05-19T08:54:50Z</time>
      </trkpt>
      <trkpt lat="43.967951014637947" lon="7.724713012576103">
        <ele>1068.1600000000001</ele>
        <time>2025-05-19T08:54:51Z</time>
      </trkpt>
      <trkpt lat="43.967951014637947" lon="7.725017024204135">
        <ele>1070.5699999999999</ele>
        <time>2025-05-19T08:54:53Z</time>
      </trkpt>
      <trkpt lat="43.96795897744596" lon="7.725340984761715">
        <ele>1072.49</ele>
        <time>2025-05-19T08:54:55Z</time>
      </trkpt>
      <trkpt lat="43.967990996316075" lon="7.725509963929653">
        <ele>1073.45</ele>
        <time>2025-05-19T08:54:56Z</time>
      </trkpt>
      <trkpt lat="43.968084035441279" lon="7.726051015779376">
        <ele>1077.78</ele>
        <time>2025-05-19T08:54:59Z</time>
      </trkpt>
      <trkpt lat="43.968097027391195" lon="7.726227035745978">
        <ele>1079.22</ele>
        <time>2025-05-19T08:55:00Z</time>
      </trkpt>
      <trkpt lat="43.968116976320744" lon="7.726513026282191">
        <ele>1082.5799999999999</ele>
        <time>2025-05-19T08:55:02Z</time>
      </trkpt>
      <trkpt lat="43.968134997412562" lon="7.726607993245125">
        <ele>1084.02</ele>
        <time>2025-05-19T08:55:03Z</time>
      </trkpt>
      <trkpt lat="43.968181014060974" lon="7.726688962429762">
        <ele>1084.99</ele>
        <time>2025-05-19T08:55:04Z</time>
      </trkpt>
      <trkpt lat="43.968233987689018" lon="7.72674503736198">
        <ele>1086.4300000000001</ele>
        <time>2025-05-19T08:55:05Z</time>
      </trkpt>
      <trkpt lat="43.968316968530416" lon="7.726774960756302">
        <ele>1087.3900000000001</ele>
        <time>2025-05-19T08:55:06Z</time>
      </trkpt>
      <trkpt lat="43.968402966856956" lon="7.726805973798037">
        <ele>1088.3499999999999</ele>
        <time>2025-05-19T08:55:07Z</time>
      </trkpt>
      <trkpt lat="43.968479996547103" lon="7.726832963526249">
        <ele>1089.3099999999999</ele>
        <time>2025-05-19T08:55:08Z</time>
      </trkpt>
      <trkpt lat="43.968541016802192" lon="7.726906975731254">
        <ele>1090.27</ele>
        <time>2025-05-19T08:55:09Z</time>
      </trkpt>
      <trkpt lat="43.968569012358785" lon="7.727014012634754">
        <ele>1091.23</ele>
        <time>2025-05-19T08:55:10Z</time>
      </trkpt>
      <trkpt lat="43.968556020408869" lon="7.727124989032745">
        <ele>1091.71</ele>
        <time>2025-05-19T08:55:11Z</time>
      </trkpt>
      <trkpt lat="43.968518972396851" lon="7.727235965430737">
        <ele>1092.6800000000001</ele>
        <time>2025-05-19T08:55:12Z</time>
      </trkpt>
      <trkpt lat="43.968462981283665" lon="7.727355994284153">
        <ele>1093.1600000000001</ele>
        <time>2025-05-19T08:55:13Z</time>
      </trkpt>
      <trkpt lat="43.968401039019227" lon="7.727487003430724">
        <ele>1093.6400000000001</ele>
        <time>2025-05-19T08:55:14Z</time>
      </trkpt>
      <trkpt lat="43.968368014320731" lon="7.727657994255424">
        <ele>1094.5999999999999</ele>
        <time>2025-05-19T08:55:15Z</time>
      </trkpt>
      <trkpt lat="43.968335995450616" lon="7.727824961766601">
        <ele>1095.0799999999999</ele>
        <time>2025-05-19T08:55:16Z</time>
      </trkpt>
      <trkpt lat="43.968306994065642" lon="7.727977009490132">
        <ele>1096.04</ele>
        <time>2025-05-19T08:55:17Z</time>
      </trkpt>
      <trkpt lat="43.968281010165811" lon="7.728109024465084">
        <ele>1097.48</ele>
        <time>2025-05-19T08:55:18Z</time>
      </trkpt>
      <trkpt lat="43.96823700517416" lon="7.72820801474154">
        <ele>1097.96</ele>
        <time>2025-05-19T08:55:19Z</time>
      </trkpt>
      <trkpt lat="43.968177996575832" lon="7.728298958390951">
        <ele>1098.9200000000001</ele>
        <time>2025-05-19T08:55:20Z</time>
      </trkpt>
      <trkpt lat="43.968113958835602" lon="7.728398032486439">
        <ele>1099.8900000000001</ele>
        <time>2025-05-19T08:55:21Z</time>
      </trkpt>
      <trkpt lat="43.968050004914403" lon="7.728496016934514">
        <ele>1101.3299999999999</ele>
        <time>2025-05-19T08:55:22Z</time>
      </trkpt>
      <trkpt lat="43.968024021014571" lon="7.728616967797279">
        <ele>1102.29</ele>
        <time>2025-05-19T08:55:23Z</time>
      </trkpt>
      <trkpt lat="43.968008011579514" lon="7.728741019964218">
        <ele>1103.25</ele>
        <time>2025-05-19T08:55:24Z</time>
      </trkpt>
      <trkpt lat="43.967990996316075" lon="7.728874962776899">
        <ele>1104.6900000000001</ele>
        <time>2025-05-19T08:55:25Z</time>
      </trkpt>
      <trkpt lat="43.967951014637947" lon="7.729180986061692">
        <ele>1107.0999999999999</ele>
        <time>2025-05-19T08:55:27Z</time>
      </trkpt>
      <trkpt lat="43.967870967462659" lon="7.72962799295783">
        <ele>1110.46</ele>
        <time>2025-05-19T08:55:30Z</time>
      </trkpt>
      <trkpt lat="43.967879014089704" lon="7.729791020974517">
        <ele>1111.9000000000001</ele>
        <time>2025-05-19T08:55:31Z</time>
      </trkpt>
      <trkpt lat="43.967885971069336" lon="7.730138031765819">
        <ele>1114.3099999999999</ele>
        <time>2025-05-19T08:55:33Z</time>
      </trkpt>
      <trkpt lat="43.967882031574845" lon="7.730322014540434">
        <ele>1116.23</ele>
        <time>2025-05-19T08:55:34Z</time>
      </trkpt>
      <trkpt lat="43.967865016311407" lon="7.730513038113713">
        <ele>1117.6700000000001</ele>
        <time>2025-05-19T08:55:35Z</time>
      </trkpt>
      <trkpt lat="43.967800978571177" lon="7.730962978675962">
        <ele>1122</ele>
        <time>2025-05-19T08:55:38Z</time>
      </trkpt>
      <trkpt lat="43.967820005491376" lon="7.731132041662931">
        <ele>1123.4400000000001</ele>
        <time>2025-05-19T08:55:39Z</time>
      </trkpt>
      <trkpt lat="43.967836014926434" lon="7.731271013617516">
        <ele>1124.4000000000001</ele>
        <time>2025-05-19T08:55:40Z</time>
      </trkpt>
      <trkpt lat="43.967941962182522" lon="7.732151029631496">
        <ele>1127.76</ele>
        <time>2025-05-19T08:55:47Z</time>
      </trkpt>
      <trkpt lat="43.967951014637947" lon="7.732294024899602">
        <ele>1127.28</ele>
        <time>2025-05-19T08:55:48Z</time>
      </trkpt>
      <trkpt lat="43.967929976060987" lon="7.732424028217793">
        <ele>1127.28</ele>
        <time>2025-05-19T08:55:49Z</time>
      </trkpt>
      <trkpt lat="43.967757979407907" lon="7.733544018119574">
        <ele>1126.3199999999999</ele>
        <time>2025-05-19T08:55:56Z</time>
      </trkpt>
      <trkpt lat="43.967757979407907" lon="7.733696987852454">
        <ele>1125.8399999999999</ele>
        <time>2025-05-19T08:55:57Z</time>
      </trkpt>
      <trkpt lat="43.967757979407907" lon="7.733847023919225">
        <ele>1125.8399999999999</ele>
        <time>2025-05-19T08:55:58Z</time>
      </trkpt>
      <trkpt lat="43.967739958316088" lon="7.733993036672473">
        <ele>1125.8399999999999</ele>
        <time>2025-05-19T08:55:59Z</time>
      </trkpt>
      <trkpt lat="43.967701988294721" lon="7.734141983091831">
        <ele>1125.8399999999999</ele>
        <time>2025-05-19T08:56:00Z</time>
      </trkpt>
      <trkpt lat="43.967663012444973" lon="7.734295958653092">
        <ele>1125.3599999999999</ele>
        <time>2025-05-19T08:56:01Z</time>
      </trkpt>
      <trkpt lat="43.967623030766845" lon="7.734449012205005">
        <ele>1124.8800000000001</ele>
        <time>2025-05-19T08:56:02Z</time>
      </trkpt>
      <trkpt lat="43.967583971098065" lon="7.734599970281124">
        <ele>1124.8800000000001</ele>
        <time>2025-05-19T08:56:03Z</time>
      </trkpt>
      <trkpt lat="43.967543989419937" lon="7.734769033268094">
        <ele>1124.4000000000001</ele>
        <time>2025-05-19T08:56:04Z</time>
      </trkpt>
      <trkpt lat="43.967559998854995" lon="7.734938012436032">
        <ele>1124.4000000000001</ele>
        <time>2025-05-19T08:56:05Z</time>
      </trkpt>
      <trkpt lat="43.967575002461672" lon="7.735107997432351">
        <ele>1123.9200000000001</ele>
        <time>2025-05-19T08:56:06Z</time>
      </trkpt>
      <trkpt lat="43.967591011896729" lon="7.735279994085431">
        <ele>1123.4400000000001</ele>
        <time>2025-05-19T08:56:07Z</time>
      </trkpt>
      <trkpt lat="43.967650020495057" lon="7.73592003621161">
        <ele>1122</ele>
        <time>2025-05-19T08:56:12Z</time>
      </trkpt>
      <trkpt lat="43.967778012156487" lon="7.736111981794238">
        <ele>1122</ele>
        <time>2025-05-19T08:56:13Z</time>
      </trkpt>
      <trkpt lat="43.967822017148137" lon="7.73617803119123">
        <ele>1121.52</ele>
        <time>2025-05-19T08:56:14Z</time>
      </trkpt>
      <trkpt lat="43.967822017148137" lon="7.73617803119123">
        <ele>1121.52</ele>
        <time>2025-05-19T08:56:15Z</time>
      </trkpt>
      <trkpt lat="43.967903992161155" lon="7.736173002049327">
        <ele>1121.52</ele>
        <time>2025-05-19T08:56:16Z</time>
      </trkpt>
      <trkpt lat="43.967987978830934" lon="7.736167972907424">
        <ele>1121.03</ele>
        <time>2025-05-19T08:56:17Z</time>
      </trkpt>
      <trkpt lat="43.968078000470996" lon="7.736163027584553">
        <ele>1121.03</ele>
        <time>2025-05-19T08:56:18Z</time>
      </trkpt>
      <trkpt lat="43.968223007395864" lon="7.736169984564185">
        <ele>1120.55</ele>
        <time>2025-05-19T08:56:19Z</time>
      </trkpt>
      <trkpt lat="43.968318980187178" lon="7.736205020919442">
        <ele>1120.0699999999999</ele>
        <time>2025-05-19T08:56:20Z</time>
      </trkpt>
      <trkpt lat="43.968358961865306" lon="7.736220024526119">
        <ele>1119.5899999999999</ele>
        <time>2025-05-19T08:56:22Z</time>
      </trkpt>
      <trkpt lat="43.968444038182497" lon="7.736564017832279">
        <ele>1119.5899999999999</ele>
        <time>2025-05-19T08:56:23Z</time>
      </trkpt>
      <trkpt lat="43.968439009040594" lon="7.736543985083699">
        <ele>1119.5899999999999</ele>
        <time>2025-05-19T08:56:24Z</time>
      </trkpt>
      <trkpt lat="43.968493994325399" lon="7.736639035865665">
        <ele>1120.0699999999999</ele>
        <time>2025-05-19T08:56:25Z</time>
      </trkpt>
      <trkpt lat="43.968530036509037" lon="7.736693015322089">
        <ele>1120.55</ele>
        <time>2025-05-19T08:56:26Z</time>
      </trkpt>
      <trkpt lat="43.968620980158448" lon="7.736749006435275">
        <ele>1120.55</ele>
        <time>2025-05-19T08:56:27Z</time>
      </trkpt>
      <trkpt lat="43.968698009848595" lon="7.736795023083687">
        <ele>1121.03</ele>
        <time>2025-05-19T08:56:28Z</time>
      </trkpt>
      <trkpt lat="43.968779984861612" lon="7.73684598505497">
        <ele>1121.52</ele>
        <time>2025-05-19T08:56:29Z</time>
      </trkpt>
      <trkpt lat="43.968863971531391" lon="7.736882027238607">
        <ele>1121.52</ele>
        <time>2025-05-19T08:56:30Z</time>
      </trkpt>
      <trkpt lat="43.968966985121369" lon="7.736916979774833">
        <ele>1121.52</ele>
        <time>2025-05-19T08:56:31Z</time>
      </trkpt>
      <trkpt lat="43.969048960134387" lon="7.73697598837316">
        <ele>1122</ele>
        <time>2025-05-19T08:56:32Z</time>
      </trkpt>
      <trkpt lat="43.969126995652914" lon="7.737054023891687">
        <ele>1122</ele>
        <time>2025-05-19T08:56:33Z</time>
      </trkpt>
      <trkpt lat="43.969237972050905" lon="7.737165000289679">
        <ele>1122.48</ele>
        <time>2025-05-19T08:56:34Z</time>
      </trkpt>
      <trkpt lat="43.969710040837526" lon="7.737529026344419">
        <ele>1123.9200000000001</ele>
        <time>2025-05-19T08:56:40Z</time>
      </trkpt>
      <trkpt lat="43.969710040837526" lon="7.737529026344419">
        <ele>1124.4000000000001</ele>
        <time>2025-05-19T08:56:41Z</time>
      </trkpt>
      <trkpt lat="43.96978497505188" lon="7.737764976918697">
        <ele>1125.3599999999999</ele>
        <time>2025-05-19T08:56:42Z</time>
      </trkpt>
      <trkpt lat="43.969824034720659" lon="7.737885005772114">
        <ele>1126.8</ele>
        <time>2025-05-19T08:56:43Z</time>
      </trkpt>
      <trkpt lat="43.969864016398787" lon="7.738010985776782">
        <ele>1128.24</ele>
        <time>2025-05-19T08:56:44Z</time>
      </trkpt>
      <trkpt lat="43.969907015562057" lon="7.738147024065256">
        <ele>1128.73</ele>
        <time>2025-05-19T08:56:45Z</time>
      </trkpt>
      <trkpt lat="43.969946997240186" lon="7.738274009898305">
        <ele>1129.21</ele>
        <time>2025-05-19T08:56:46Z</time>
      </trkpt>
      <trkpt lat="43.970011034980416" lon="7.738474002107978">
        <ele>1130.1700000000001</ele>
        <time>2025-05-19T08:56:47Z</time>
      </trkpt>
      <trkpt lat="43.970011034980416" lon="7.738474002107978">
        <ele>1131.1300000000001</ele>
        <time>2025-05-19T08:56:48Z</time>
      </trkpt>
      <trkpt lat="43.969989996403456" lon="7.738503003492951">
        <ele>1131.6099999999999</ele>
        <time>2025-05-19T08:56:49Z</time>
      </trkpt>
      <trkpt lat="43.96993400529027" lon="7.738581039011478">
        <ele>1131.6099999999999</ele>
        <time>2025-05-19T08:56:50Z</time>
      </trkpt>
      <trkpt lat="43.969835015013814" lon="7.738619009032846">
        <ele>1132.0899999999999</ele>
        <time>2025-05-19T08:56:51Z</time>
      </trkpt>
      <trkpt lat="43.969735018908978" lon="7.738612974062562">
        <ele>1131.6099999999999</ele>
        <time>2025-05-19T08:56:52Z</time>
      </trkpt>
      <trkpt lat="43.969609960913658" lon="7.738604005426168">
        <ele>1130.6500000000001</ele>
        <time>2025-05-19T08:56:53Z</time>
      </trkpt>
      <trkpt lat="43.969303015619516" lon="7.738558994606137">
        <ele>1127.28</ele>
        <time>2025-05-19T08:56:55Z</time>
      </trkpt>
      <trkpt lat="43.969024987891316" lon="7.738575004041195">
        <ele>1124.8800000000001</ele>
        <time>2025-05-19T08:56:57Z</time>
      </trkpt>
      <trkpt lat="43.968750983476639" lon="7.738591013476253">
        <ele>1122.96</ele>
        <time>2025-05-19T08:56:59Z</time>
      </trkpt>
      <trkpt lat="43.968618968501687" lon="7.738597970455885">
        <ele>1122</ele>
        <time>2025-05-19T08:57:00Z</time>
      </trkpt>
      <trkpt lat="43.968477984890342" lon="7.738641975447536">
        <ele>1121.03</ele>
        <time>2025-05-19T08:57:01Z</time>
      </trkpt>
      <trkpt lat="43.968363991007209" lon="7.738705007359386">
        <ele>1120.0699999999999</ele>
        <time>2025-05-19T08:57:02Z</time>
      </trkpt>
      <trkpt lat="43.968244967982173" lon="7.738789999857545">
        <ele>1119.1099999999999</ele>
        <time>2025-05-19T08:57:03Z</time>
      </trkpt>
      <trkpt lat="43.968132985755801" lon="7.738883038982749">
        <ele>1118.1500000000001</ele>
        <time>2025-05-19T08:57:04Z</time>
      </trkpt>
      <trkpt lat="43.968025026842952" lon="7.738992003723979">
        <ele>1117.1900000000001</ele>
        <time>2025-05-19T08:57:05Z</time>
      </trkpt>
      <trkpt lat="43.967937016859651" lon="7.739117983728647">
        <ele>1115.75</ele>
        <time>2025-05-19T08:57:06Z</time>
      </trkpt>
      <trkpt lat="43.967652032151818" lon="7.739481003955007">
        <ele>1113.3399999999999</ele>
        <time>2025-05-19T08:57:09Z</time>
      </trkpt>
      <trkpt lat="43.967466037720442" lon="7.739666998386383">
        <ele>1111.4200000000001</ele>
        <time>2025-05-19T08:57:11Z</time>
      </trkpt>
      <trkpt lat="43.967425972223282" lon="7.739794990047813">
        <ele>1110.46</ele>
        <time>2025-05-19T08:57:12Z</time>
      </trkpt>
      <trkpt lat="43.967392025515437" lon="7.739929016679525">
        <ele>1109.02</ele>
        <time>2025-05-19T08:57:13Z</time>
      </trkpt>
      <trkpt lat="43.967322958633304" lon="7.740193968638778">
        <ele>1106.6099999999999</ele>
        <time>2025-05-19T08:57:15Z</time>
      </trkpt>
      <trkpt lat="43.967292029410601" lon="7.740313997492194">
        <ele>1105.6500000000001</ele>
        <time>2025-05-19T08:57:16Z</time>
      </trkpt>
      <trkpt lat="43.967240983620286" lon="7.740383986383677">
        <ele>1104.6900000000001</ele>
        <time>2025-05-19T08:57:17Z</time>
      </trkpt>
      <trkpt lat="43.967185998335481" lon="7.740439977496862">
        <ele>1103.73</ele>
        <time>2025-05-19T08:57:18Z</time>
      </trkpt>
      <trkpt lat="43.967178035527468" lon="7.740448024123907">
        <ele>1102.29</ele>
        <time>2025-05-19T08:57:19Z</time>
      </trkpt>
      <trkpt lat="43.967060018330812" lon="7.740473002195358">
        <ele>1101.3299999999999</ele>
        <time>2025-05-19T08:57:20Z</time>
      </trkpt>
      <trkpt lat="43.966973014175892" lon="7.740491023287177">
        <ele>1100.3699999999999</ele>
        <time>2025-05-19T08:57:21Z</time>
      </trkpt>
      <trkpt lat="43.966850973665714" lon="7.740551959723234">
        <ele>1099.4000000000001</ele>
        <time>2025-05-19T08:57:22Z</time>
      </trkpt>
      <trkpt lat="43.966804035007954" lon="7.740623038262129">
        <ele>1097.96</ele>
        <time>2025-05-19T08:57:23Z</time>
      </trkpt>
      <trkpt lat="43.966804035007954" lon="7.740757986903191">
        <ele>1097.48</ele>
        <time>2025-05-19T08:57:24Z</time>
      </trkpt>
      <trkpt lat="43.966801017522812" lon="7.741154031828046">
        <ele>1095.0799999999999</ele>
        <time>2025-05-19T08:57:28Z</time>
      </trkpt>
      <trkpt lat="43.966757012531161" lon="7.741258973255754">
        <ele>1094.5999999999999</ele>
        <time>2025-05-19T08:57:29Z</time>
      </trkpt>
      <trkpt lat="43.966708984225988" lon="7.741374978795648">
        <ele>1093.6400000000001</ele>
        <time>2025-05-19T08:57:30Z</time>
      </trkpt>
      <trkpt lat="43.966692974790931" lon="7.741506993770599">
        <ele>1092.6800000000001</ele>
        <time>2025-05-19T08:57:31Z</time>
      </trkpt>
      <trkpt lat="43.966708984225988" lon="7.741633979603648">
        <ele>1092.2</ele>
        <time>2025-05-19T08:57:32Z</time>
      </trkpt>
      <trkpt lat="43.966724993661046" lon="7.741764988750219">
        <ele>1091.23</ele>
        <time>2025-05-19T08:57:33Z</time>
      </trkpt>
      <trkpt lat="43.966748965904117" lon="7.742062965407968">
        <ele>1089.79</ele>
        <time>2025-05-19T08:57:35Z</time>
      </trkpt>
      <trkpt lat="43.966748965904117" lon="7.742200009524822">
        <ele>1088.8299999999999</ele>
        <time>2025-05-19T08:57:36Z</time>
      </trkpt>
      <trkpt lat="43.966748965904117" lon="7.74232498370111">
        <ele>1087.8699999999999</ele>
        <time>2025-05-19T08:57:37Z</time>
      </trkpt>
      <trkpt lat="43.966748965904117" lon="7.742438977584243">
        <ele>1087.3900000000001</ele>
        <time>2025-05-19T08:57:38Z</time>
      </trkpt>
      <trkpt lat="43.966748965904117" lon="7.742550037801266">
        <ele>1086.4300000000001</ele>
        <time>2025-05-19T08:57:39Z</time>
      </trkpt>
      <trkpt lat="43.966771010309458" lon="7.74260401725769">
        <ele>1085.47</ele>
        <time>2025-05-19T08:57:40Z</time>
      </trkpt>
      <trkpt lat="43.966825995594263" lon="7.742665959522128">
        <ele>1084.5</ele>
        <time>2025-05-19T08:57:41Z</time>
      </trkpt>
      <trkpt lat="43.966933032497764" lon="7.742653973400593">
        <ele>1084.02</ele>
        <time>2025-05-19T08:57:42Z</time>
      </trkpt>
      <trkpt lat="43.967031016945839" lon="7.742608962580562">
        <ele>1083.0599999999999</ele>
        <time>2025-05-19T08:57:43Z</time>
      </trkpt>
      <trkpt lat="43.96714098751545" lon="7.742558000609279">
        <ele>1082.0999999999999</ele>
        <time>2025-05-19T08:57:44Z</time>
      </trkpt>
      <trkpt lat="43.967259004712105" lon="7.742507038637996">
        <ele>1081.1400000000001</ele>
        <time>2025-05-19T08:57:45Z</time>
      </trkpt>
      <trkpt lat="43.967388002201915" lon="7.742450963705778">
        <ele>1079.7</ele>
        <time>2025-05-19T08:57:46Z</time>
      </trkpt>
      <trkpt lat="43.967456985265017" lon="7.742421962320805">
        <ele>1078.74</ele>
        <time>2025-05-19T08:57:47Z</time>
      </trkpt>
      <trkpt lat="43.967456985265017" lon="7.742421962320805">
        <ele>1077.29</ele>
        <time>2025-05-19T08:57:48Z</time>
      </trkpt>
      <trkpt lat="43.967653959989548" lon="7.742499997839332">
        <ele>1076.3299999999999</ele>
        <time>2025-05-19T08:57:49Z</time>
      </trkpt>
      <trkpt lat="43.967671981081367" lon="7.742507960647345">
        <ele>1074.8900000000001</ele>
        <time>2025-05-19T08:57:50Z</time>
      </trkpt>
      <trkpt lat="43.967671981081367" lon="7.742507960647345">
        <ele>1073.45</ele>
        <time>2025-05-19T08:57:51Z</time>
      </trkpt>
      <trkpt lat="43.967671981081367" lon="7.742507960647345">
        <ele>1072.49</ele>
        <time>2025-05-19T08:57:52Z</time>
      </trkpt>
      <trkpt lat="43.967677010223269" lon="7.742550959810615">
        <ele>1071.05</ele>
        <time>2025-05-19T08:57:53Z</time>
      </trkpt>
      <trkpt lat="43.967682039365172" lon="7.742597982287407">
        <ele>1070.0799999999999</ele>
        <time>2025-05-19T08:57:54Z</time>
      </trkpt>
      <trkpt lat="43.967688996344805" lon="7.742661014199257">
        <ele>1068.6400000000001</ele>
        <time>2025-05-19T08:57:55Z</time>
      </trkpt>
      <trkpt lat="43.967693019658327" lon="7.742700995877385">
        <ele>1067.2</ele>
        <time>2025-05-19T08:57:56Z</time>
      </trkpt>
      <trkpt lat="43.967693019658327" lon="7.742700995877385">
        <ele>1066.24</ele>
        <time>2025-05-19T08:57:57Z</time>
      </trkpt>
      <trkpt lat="43.967611966654658" lon="7.743545975536108">
        <ele>1060.95</ele>
        <time>2025-05-19T08:58:03Z</time>
      </trkpt>
      <trkpt lat="43.967684973031282" lon="7.743855016306043">
        <ele>1058.0699999999999</ele>
        <time>2025-05-19T08:58:07Z</time>
      </trkpt>
      <trkpt lat="43.967703999951482" lon="7.743931962177157">
        <ele>1057.1099999999999</ele>
        <time>2025-05-19T08:58:08Z</time>
      </trkpt>
      <trkpt lat="43.967726966366172" lon="7.744031036272645">
        <ele>1055.6700000000001</ele>
        <time>2025-05-19T08:58:09Z</time>
      </trkpt>
      <trkpt lat="43.967922013252974" lon="7.744206972420216">
        <ele>1054.7</ele>
        <time>2025-05-19T08:58:10Z</time>
      </trkpt>
      <trkpt lat="43.967911032959819" lon="7.744203032925725">
        <ele>1052.78</ele>
        <time>2025-05-19T08:58:11Z</time>
      </trkpt>
      <trkpt lat="43.968057967722416" lon="7.744246032088995">
        <ele>1051.8199999999999</ele>
        <time>2025-05-19T08:58:12Z</time>
      </trkpt>
      <trkpt lat="43.968128962442279" lon="7.744201021268964">
        <ele>1050.3800000000001</ele>
        <time>2025-05-19T08:58:13Z</time>
      </trkpt>
      <trkpt lat="43.96821697242558" lon="7.744147041812539">
        <ele>1049.4200000000001</ele>
        <time>2025-05-19T08:58:14Z</time>
      </trkpt>
      <trkpt lat="43.968401039019227" lon="7.744031036272645">
        <ele>1047.97</ele>
        <time>2025-05-19T08:58:15Z</time>
      </trkpt>
      <trkpt lat="43.968508997932076" lon="7.744031036272645">
        <ele>1047.49</ele>
        <time>2025-05-19T08:58:16Z</time>
      </trkpt>
      <trkpt lat="43.968508997932076" lon="7.744031036272645">
        <ele>1047.01</ele>
        <time>2025-05-19T08:58:17Z</time>
      </trkpt>
      <trkpt lat="43.968626009300351" lon="7.744225999340415">
        <ele>1046.05</ele>
        <time>2025-05-19T08:58:18Z</time>
      </trkpt>
      <trkpt lat="43.968657022342086" lon="7.74436597712338">
        <ele>1045.5699999999999</ele>
        <time>2025-05-19T08:58:19Z</time>
      </trkpt>
      <trkpt lat="43.96868702955544" lon="7.744500003755093">
        <ele>1044.6099999999999</ele>
        <time>2025-05-19T08:58:20Z</time>
      </trkpt>
      <trkpt lat="43.968712007626891" lon="7.744613997638226">
        <ele>1044.1300000000001</ele>
        <time>2025-05-19T08:58:21Z</time>
      </trkpt>
      <trkpt lat="43.968745032325387" lon="7.744761016219854">
        <ele>1043.1700000000001</ele>
        <time>2025-05-19T08:58:22Z</time>
      </trkpt>
      <trkpt lat="43.968745032325387" lon="7.744761016219854">
        <ele>1042.21</ele>
        <time>2025-05-19T08:58:23Z</time>
      </trkpt>
      <trkpt lat="43.968874029815197" lon="7.744846008718014">
        <ele>1041.73</ele>
        <time>2025-05-19T08:58:24Z</time>
      </trkpt>
      <trkpt lat="43.968874029815197" lon="7.744846008718014">
        <ele>1040.76</ele>
        <time>2025-05-19T08:58:25Z</time>
      </trkpt>
      <trkpt lat="43.969409968703985" lon="7.744761016219854">
        <ele>1038.3599999999999</ele>
        <time>2025-05-19T08:58:29Z</time>
      </trkpt>
      <trkpt lat="43.969748010858893" lon="7.744608968496323">
        <ele>1036.4400000000001</ele>
        <time>2025-05-19T08:58:32Z</time>
      </trkpt>
      <trkpt lat="43.969839038327336" lon="7.744566975161433">
        <ele>1036.4400000000001</ele>
        <time>2025-05-19T08:58:33Z</time>
      </trkpt>
      <trkpt lat="43.969929981976748" lon="7.744631012901664">
        <ele>1035.96</ele>
        <time>2025-05-19T08:58:34Z</time>
      </trkpt>
      <trkpt lat="43.970044981688261" lon="7.74470997042954">
        <ele>1035.48</ele>
        <time>2025-05-19T08:58:35Z</time>
      </trkpt>
      <trkpt lat="43.970164004713297" lon="7.74479303508997">
        <ele>1035.48</ele>
        <time>2025-05-19T08:58:36Z</time>
      </trkpt>
      <trkpt lat="43.970272969454527" lon="7.744868975132704">
        <ele>1035</ele>
        <time>2025-05-19T08:58:37Z</time>
      </trkpt>
      <trkpt lat="43.970398027449846" lon="7.744910968467593">
        <ele>1034.04</ele>
        <time>2025-05-19T08:58:38Z</time>
      </trkpt>
      <trkpt lat="43.970515038818121" lon="7.744910968467593">
        <ele>1033.55</ele>
        <time>2025-05-19T08:58:39Z</time>
      </trkpt>
      <trkpt lat="43.970619980245829" lon="7.744910968467593">
        <ele>1032.5899999999999</ele>
        <time>2025-05-19T08:58:40Z</time>
      </trkpt>
      <trkpt lat="43.970761969685555" lon="7.744910968467593">
        <ele>1031.1500000000001</ele>
        <time>2025-05-19T08:58:41Z</time>
      </trkpt>
      <trkpt lat="43.970798011869192" lon="7.74488003924489">
        <ele>1030.1900000000001</ele>
        <time>2025-05-19T08:58:42Z</time>
      </trkpt>
      <trkpt lat="43.970893984660506" lon="7.74479697458446">
        <ele>1029.23</ele>
        <time>2025-05-19T08:58:43Z</time>
      </trkpt>
      <trkpt lat="43.970953999087214" lon="7.744681974872947">
        <ele>1028.27</ele>
        <time>2025-05-19T08:58:44Z</time>
      </trkpt>
      <trkpt lat="43.971020970493555" lon="7.744552977383137">
        <ele>1027.3099999999999</ele>
        <time>2025-05-19T08:58:45Z</time>
      </trkpt>
      <trkpt lat="43.971088025718927" lon="7.744422974064946">
        <ele>1026.3399999999999</ele>
        <time>2025-05-19T08:58:46Z</time>
      </trkpt>
      <trkpt lat="43.971157008782029" lon="7.744290037080646">
        <ele>1025.3800000000001</ele>
        <time>2025-05-19T08:58:47Z</time>
      </trkpt>
      <trkpt lat="43.971191961318254" lon="7.744223987683654">
        <ele>1024.4200000000001</ele>
        <time>2025-05-19T08:58:48Z</time>
      </trkpt>
      <trkpt lat="43.971363035961986" lon="7.744074035435915">
        <ele>1022.98</ele>
        <time>2025-05-19T08:58:49Z</time>
      </trkpt>
      <trkpt lat="43.971365969628096" lon="7.744073029607534">
        <ele>1022.02</ele>
        <time>2025-05-19T08:58:50Z</time>
      </trkpt>
      <trkpt lat="43.971493961289525" lon="7.744035981595516">
        <ele>1021.0599999999999</ele>
        <time>2025-05-19T08:58:51Z</time>
      </trkpt>
      <trkpt lat="43.971616001799703" lon="7.74406498298049">
        <ele>1020.1</ele>
        <time>2025-05-19T08:58:52Z</time>
      </trkpt>
      <trkpt lat="43.971752962097526" lon="7.744123991578817">
        <ele>1019.13</ele>
        <time>2025-05-19T08:58:53Z</time>
      </trkpt>
      <trkpt lat="43.971891012042761" lon="7.744207978248596">
        <ele>1018.17</ele>
        <time>2025-05-19T08:58:54Z</time>
      </trkpt>
      <trkpt lat="43.972023027017713" lon="7.744288025423884">
        <ele>1017.21</ele>
        <time>2025-05-19T08:58:55Z</time>
      </trkpt>
      <trkpt lat="43.972198963165283" lon="7.744395984336734">
        <ele>1016.25</ele>
        <time>2025-05-19T08:58:56Z</time>
      </trkpt>
      <trkpt lat="43.972281021997333" lon="7.744405036792159">
        <ele>1015.29</ele>
        <time>2025-05-19T08:58:57Z</time>
      </trkpt>
      <trkpt lat="43.972409013658762" lon="7.744407970458269">
        <ele>1013.85</ele>
        <time>2025-05-19T08:58:58Z</time>
      </trkpt>
      <trkpt lat="43.972543040290475" lon="7.744331024587154">
        <ele>1012.89</ele>
        <time>2025-05-19T08:58:59Z</time>
      </trkpt>
      <trkpt lat="43.97257698699832" lon="7.74425701238215">
        <ele>1011.9299999999999</ele>
        <time>2025-05-19T08:59:00Z</time>
      </trkpt>
      <trkpt lat="43.972617974504828" lon="7.74417101405561">
        <ele>1010.96</ele>
        <time>2025-05-19T08:59:01Z</time>
      </trkpt>
      <trkpt lat="43.972658962011337" lon="7.744081998243928">
        <ele>1009.04</ele>
        <time>2025-05-19T08:59:02Z</time>
      </trkpt>
      <trkpt lat="43.972692992538214" lon="7.744009997695684">
        <ele>1007.6</ele>
        <time>2025-05-19T08:59:03Z</time>
      </trkpt>
      <trkpt lat="43.972692992538214" lon="7.744009997695684">
        <ele>1002.3099999999999</ele>
        <time>2025-05-19T08:59:08Z</time>
      </trkpt>
      <trkpt lat="43.972692992538214" lon="7.744009997695684">
        <ele>1002.3099999999999</ele>
        <time>2025-05-19T08:59:09Z</time>
      </trkpt>
      <trkpt lat="43.972692992538214" lon="7.744009997695684">
        <ele>1001.83</ele>
        <time>2025-05-19T08:59:10Z</time>
      </trkpt>
      <trkpt lat="43.972800029441714" lon="7.743966998532414">
        <ele>1001.83</ele>
        <time>2025-05-19T08:59:13Z</time>
      </trkpt>
      <trkpt lat="43.973650960251689" lon="7.743000984191895">
        <ele>1004.72</ele>
        <time>2025-05-19T08:59:18Z</time>
      </trkpt>
      <trkpt lat="43.97399595938623" lon="7.742459010332823">
        <ele>1004.23</ele>
        <time>2025-05-19T08:59:23Z</time>
      </trkpt>
      <trkpt lat="43.9742979593575" lon="7.74195802398026">
        <ele>1002.79</ele>
        <time>2025-05-19T08:59:27Z</time>
      </trkpt>
      <trkpt lat="43.974495017901063" lon="7.741791978478432">
        <ele>999.90999999999997</ele>
        <time>2025-05-19T08:59:30Z</time>
      </trkpt>
      <trkpt lat="43.974913023412228" lon="7.741799019277096">
        <ele>996.53999999999996</ele>
        <time>2025-05-19T08:59:34Z</time>
      </trkpt>
      <trkpt lat="43.975461032241583" lon="7.742871986702085">
        <ele>985.00999999999999</ele>
        <time>2025-05-19T08:59:37Z</time>
      </trkpt>
      <trkpt lat="43.975461032241583" lon="7.742871986702085">
        <ele>983.57000000000005</ele>
        <time>2025-05-19T08:59:41Z</time>
      </trkpt>
      <trkpt lat="43.975567985326052" lon="7.743086982518435">
        <ele>984.04999999999995</ele>
        <time>2025-05-19T08:59:46Z</time>
      </trkpt>
      <trkpt lat="43.975567985326052" lon="7.743086982518435">
        <ele>984.04999999999995</ele>
        <time>2025-05-19T08:59:48Z</time>
      </trkpt>
      <trkpt lat="43.975462038069963" lon="7.74348403327167">
        <ele>981.15999999999997</ele>
        <time>2025-05-19T08:59:49Z</time>
      </trkpt>
      <trkpt lat="43.975430019199848" lon="7.743603978306055">
        <ele>981.15999999999997</ele>
        <time>2025-05-19T08:59:50Z</time>
      </trkpt>
      <trkpt lat="43.975396994501352" lon="7.743730964139104">
        <ele>980.67999999999995</ele>
        <time>2025-05-19T08:59:51Z</time>
      </trkpt>
      <trkpt lat="43.975446028634906" lon="7.744094990193844">
        <ele>980.20000000000005</ele>
        <time>2025-05-19T08:59:52Z</time>
      </trkpt>
      <trkpt lat="43.975477963685989" lon="7.744332030415535">
        <ele>980.20000000000005</ele>
        <time>2025-05-19T08:59:54Z</time>
      </trkpt>
      <trkpt lat="43.975494978949428" lon="7.744454992935062">
        <ele>980.20000000000005</ele>
        <time>2025-05-19T08:59:55Z</time>
      </trkpt>
      <trkpt lat="43.975504031404853" lon="7.744524981826544">
        <ele>980.67999999999995</ele>
        <time>2025-05-19T08:59:56Z</time>
      </trkpt>
      <trkpt lat="43.975504031404853" lon="7.744524981826544">
        <ele>981.63999999999999</ele>
        <time>2025-05-19T08:59:58Z</time>
      </trkpt>
      <trkpt lat="43.975504031404853" lon="7.744524981826544">
        <ele>981.63999999999999</ele>
        <time>2025-05-19T08:59:59Z</time>
      </trkpt>
      <trkpt lat="43.975526997819543" lon="7.745341965928674">
        <ele>981.63999999999999</ele>
        <time>2025-05-19T09:00:00Z</time>
      </trkpt>
      <trkpt lat="43.975617019459605" lon="7.745398040860891">
        <ele>981.63999999999999</ele>
        <time>2025-05-19T09:00:01Z</time>
      </trkpt>
      <trkpt lat="43.975727995857596" lon="7.745466018095613">
        <ele>981.63999999999999</ele>
        <time>2025-05-19T09:00:02Z</time>
      </trkpt>
      <trkpt lat="43.976028990000486" lon="7.745652012526989">
        <ele>981.63999999999999</ele>
        <time>2025-05-19T09:00:05Z</time>
      </trkpt>
      <trkpt lat="43.976648999378085" lon="7.746144030243158">
        <ele>983.09000000000003</ele>
        <time>2025-05-19T09:00:12Z</time>
      </trkpt>
      <trkpt lat="43.976790988817811" lon="7.746370006352663">
        <ele>983.57000000000005</ele>
        <time>2025-05-19T09:00:14Z</time>
      </trkpt>
      <trkpt lat="43.976857038214803" lon="7.746425997465849">
        <ele>983.57000000000005</ele>
        <time>2025-05-19T09:00:15Z</time>
      </trkpt>
      <trkpt lat="43.97695804014802" lon="7.746497998014092">
        <ele>984.04999999999995</ele>
        <time>2025-05-19T09:00:16Z</time>
      </trkpt>
      <trkpt lat="43.977042026817799" lon="7.746494980528951">
        <ele>984.04999999999995</ele>
        <time>2025-05-19T09:00:17Z</time>
      </trkpt>
      <trkpt lat="43.97713397629559" lon="7.746491963043809">
        <ele>984.04999999999995</ele>
        <time>2025-05-19T09:00:18Z</time>
      </trkpt>
      <trkpt lat="43.977229027077556" lon="7.746488023549318">
        <ele>984.04999999999995</ele>
        <time>2025-05-19T09:00:19Z</time>
      </trkpt>
      <trkpt lat="43.977317959070206" lon="7.746485006064177">
        <ele>984.52999999999997</ele>
        <time>2025-05-19T09:00:20Z</time>
      </trkpt>
      <trkpt lat="43.977399012073874" lon="7.746481988579035">
        <ele>984.52999999999997</ele>
        <time>2025-05-19T09:00:21Z</time>
      </trkpt>
      <trkpt lat="43.97790402173996" lon="7.746592964977026">
        <ele>984.52999999999997</ele>
        <time>2025-05-19T09:00:27Z</time>
      </trkpt>
      <trkpt lat="43.978079035878181" lon="7.746649039909244">
        <ele>984.04999999999995</ele>
        <time>2025-05-19T09:00:28Z</time>
      </trkpt>
      <trkpt lat="43.978105019778013" lon="7.746637975797057">
        <ele>983.57000000000005</ele>
        <time>2025-05-19T09:00:29Z</time>
      </trkpt>
      <trkpt lat="43.978293025866151" lon="7.746563041582704">
        <ele>983.57000000000005</ele>
        <time>2025-05-19T09:00:30Z</time>
      </trkpt>
      <trkpt lat="43.97831398062408" lon="7.74653404019773">
        <ele>982.60000000000002</ele>
        <time>2025-05-19T09:00:31Z</time>
      </trkpt>
      <trkpt lat="43.978359997272491" lon="7.746466984972358">
        <ele>981.63999999999999</ele>
        <time>2025-05-19T09:00:32Z</time>
      </trkpt>
      <trkpt lat="43.97839997895062" lon="7.746409988030791">
        <ele>980.67999999999995</ele>
        <time>2025-05-19T09:00:33Z</time>
      </trkpt>
      <trkpt lat="43.97848698310554" lon="7.746284008026123">
        <ele>980.20000000000005</ele>
        <time>2025-05-19T09:00:34Z</time>
      </trkpt>
      <trkpt lat="43.97848698310554" lon="7.746284008026123">
        <ele>979.24000000000001</ele>
        <time>2025-05-19T09:00:35Z</time>
      </trkpt>
      <trkpt lat="43.978551020845771" lon="7.746241008862853">
        <ele>978.75999999999999</ele>
        <time>2025-05-19T09:00:36Z</time>
      </trkpt>
      <trkpt lat="43.978558983653784" lon="7.746243020519614">
        <ele>978.27999999999997</ele>
        <time>2025-05-19T09:00:37Z</time>
      </trkpt>
      <trkpt lat="43.978661997243762" lon="7.746274033561349">
        <ele>977.79999999999995</ele>
        <time>2025-05-19T09:00:38Z</time>
      </trkpt>
      <trkpt lat="43.978922003880143" lon="7.746349973604083">
        <ele>976.36000000000001</ele>
        <time>2025-05-19T09:00:40Z</time>
      </trkpt>
      <trkpt lat="43.979028034955263" lon="7.746380986645818">
        <ele>975.38999999999999</ele>
        <time>2025-05-19T09:00:41Z</time>
      </trkpt>
      <trkpt lat="43.97928100079298" lon="7.746456004679203">
        <ele>974.90999999999997</ele>
        <time>2025-05-19T09:00:42Z</time>
      </trkpt>
      <trkpt lat="43.97928100079298" lon="7.746456004679203">
        <ele>973.47000000000003</ele>
        <time>2025-05-19T09:00:43Z</time>
      </trkpt>
      <trkpt lat="43.979490967467427" lon="7.746387021616101">
        <ele>972.50999999999999</ele>
        <time>2025-05-19T09:00:44Z</time>
      </trkpt>
      <trkpt lat="43.979570008814335" lon="7.746269004419446">
        <ele>971.07000000000005</ele>
        <time>2025-05-19T09:00:45Z</time>
      </trkpt>
      <trkpt lat="43.979791039600968" lon="7.745936997234821">
        <ele>967.70000000000005</ele>
        <time>2025-05-19T09:00:48Z</time>
      </trkpt>
      <trkpt lat="43.9799689874053" lon="7.745695011690259">
        <ele>964.34000000000003</ele>
        <time>2025-05-19T09:00:51Z</time>
      </trkpt>
      <trkpt lat="43.98007401265204" lon="7.745575988665223">
        <ele>963.38</ele>
        <time>2025-05-19T09:00:52Z</time>
      </trkpt>
      <trkpt lat="43.980083987116814" lon="7.745573977008462">
        <ele>959.04999999999995</ele>
        <time>2025-05-19T09:00:53Z</time>
      </trkpt>
      <trkpt lat="43.980168979614973" lon="7.745556961745024">
        <ele>955.69000000000005</ele>
        <time>2025-05-19T09:00:54Z</time>
      </trkpt>
      <trkpt lat="43.980181971564889" lon="7.745555033907294">
        <ele>952.79999999999995</ele>
        <time>2025-05-19T09:00:55Z</time>
      </trkpt>
      <trkpt lat="43.98024600930512" lon="7.745683025568724">
        <ele>950.39999999999998</ele>
        <time>2025-05-19T09:00:56Z</time>
      </trkpt>
      <trkpt lat="43.98024600930512" lon="7.745683025568724">
        <ele>948.96000000000004</ele>
        <time>2025-05-19T09:00:57Z</time>
      </trkpt>
      <trkpt lat="43.98024600930512" lon="7.745683025568724">
        <ele>947.51999999999998</ele>
        <time>2025-05-19T09:00:58Z</time>
      </trkpt>
      <trkpt lat="43.980223964899778" lon="7.745979996398091">
        <ele>946.55999999999995</ele>
        <time>2025-05-19T09:00:59Z</time>
      </trkpt>
      <trkpt lat="43.980212984606624" lon="7.74629800580442">
        <ele>946.07000000000005</ele>
        <time>2025-05-19T09:01:00Z</time>
      </trkpt>
      <trkpt lat="43.980367965996265" lon="7.746739983558655">
        <ele>940.78999999999996</ele>
        <time>2025-05-19T09:01:02Z</time>
      </trkpt>
      <trkpt lat="43.980736015364528" lon="7.747320011258125">
        <ele>932.62</ele>
        <time>2025-05-19T09:01:06Z</time>
      </trkpt>
      <trkpt lat="43.981017982587218" lon="7.747762994840741">
        <ele>927.80999999999995</ele>
        <time>2025-05-19T09:01:09Z</time>
      </trkpt>
      <trkpt lat="43.981135999783874" lon="7.747882017865777">
        <ele>927.33000000000004</ele>
        <time>2025-05-19T09:01:10Z</time>
      </trkpt>
      <trkpt lat="43.981243036687374" lon="7.747988970950246">
        <ele>926.37</ele>
        <time>2025-05-19T09:01:11Z</time>
      </trkpt>
      <trkpt lat="43.98134496062994" lon="7.748088967055082">
        <ele>925.40999999999997</ele>
        <time>2025-05-19T09:01:12Z</time>
      </trkpt>
      <trkpt lat="43.981455015018582" lon="7.748148981481791">
        <ele>924.45000000000005</ele>
        <time>2025-05-19T09:01:13Z</time>
      </trkpt>
      <trkpt lat="43.981575965881348" lon="7.748215030878782">
        <ele>923.48000000000002</ele>
        <time>2025-05-19T09:01:14Z</time>
      </trkpt>
      <trkpt lat="43.981575965881348" lon="7.748215030878782">
        <ele>922.51999999999998</ele>
        <time>2025-05-19T09:01:15Z</time>
      </trkpt>
      <trkpt lat="43.981589963659644" lon="7.748212013393641">
        <ele>920.60000000000002</ele>
        <time>2025-05-19T09:01:16Z</time>
      </trkpt>
      <trkpt lat="43.98166598752141" lon="7.748196003958583">
        <ele>919.15999999999997</ele>
        <time>2025-05-19T09:01:17Z</time>
      </trkpt>
      <trkpt lat="43.981833960860968" lon="7.748159039765596">
        <ele>917.24000000000001</ele>
        <time>2025-05-19T09:01:19Z</time>
      </trkpt>
      <trkpt lat="43.98190101608634" lon="7.748144958168268">
        <ele>916.75</ele>
        <time>2025-05-19T09:01:20Z</time>
      </trkpt>
      <trkpt lat="43.982069995254278" lon="7.748107993975282">
        <ele>915.78999999999996</ele>
        <time>2025-05-19T09:01:21Z</time>
      </trkpt>
      <trkpt lat="43.982091033831239" lon="7.748129032552242">
        <ele>914.35000000000002</ele>
        <time>2025-05-19T09:01:22Z</time>
      </trkpt>
      <trkpt lat="43.982151970267296" lon="7.748189968988299">
        <ele>912.90999999999997</ele>
        <time>2025-05-19T09:01:23Z</time>
      </trkpt>
      <trkpt lat="43.982264958322048" lon="7.748307986184955">
        <ele>911.47000000000003</ele>
        <time>2025-05-19T09:01:24Z</time>
      </trkpt>
      <trkpt lat="43.982292031869292" lon="7.748430026695132">
        <ele>909.53999999999996</ele>
        <time>2025-05-19T09:01:25Z</time>
      </trkpt>
      <trkpt lat="43.982347017154098" lon="7.748705036938191">
        <ele>907.13999999999999</ele>
        <time>2025-05-19T09:01:26Z</time>
      </trkpt>
      <trkpt lat="43.982332013547421" lon="7.748887008056045">
        <ele>905.22000000000003</ele>
        <time>2025-05-19T09:01:27Z</time>
      </trkpt>
      <trkpt lat="43.982278034090996" lon="7.749525038525462">
        <ele>898.00999999999999</ele>
        <time>2025-05-19T09:01:30Z</time>
      </trkpt>
      <trkpt lat="43.982234029099345" lon="7.749794013798237">
        <ele>895.12</ele>
        <time>2025-05-19T09:01:31Z</time>
      </trkpt>
      <trkpt lat="43.982162028551102" lon="7.750032981857657">
        <ele>892.24000000000001</ele>
        <time>2025-05-19T09:01:32Z</time>
      </trkpt>
      <trkpt lat="43.982063960283995" lon="7.750277984887362">
        <ele>890.79999999999995</ele>
        <time>2025-05-19T09:01:33Z</time>
      </trkpt>
      <trkpt lat="43.981969999149442" lon="7.750483006238937">
        <ele>888.39999999999998</ele>
        <time>2025-05-19T09:01:34Z</time>
      </trkpt>
      <trkpt lat="43.981876960024238" lon="7.750686015933752">
        <ele>886.47000000000003</ele>
        <time>2025-05-19T09:01:35Z</time>
      </trkpt>
      <trkpt lat="43.981789033859968" lon="7.750877039507031">
        <ele>884.54999999999995</ele>
        <time>2025-05-19T09:01:36Z</time>
      </trkpt>
      <trkpt lat="43.981704041361809" lon="7.751062028110027">
        <ele>882.14999999999998</ele>
        <time>2025-05-19T09:01:37Z</time>
      </trkpt>
      <trkpt lat="43.981628017500043" lon="7.751226983964443">
        <ele>880.22000000000003</ele>
        <time>2025-05-19T09:01:38Z</time>
      </trkpt>
      <trkpt lat="43.981517041102052" lon="7.75152001529932">
        <ele>876.38</ele>
        <time>2025-05-19T09:01:40Z</time>
      </trkpt>
      <trkpt lat="43.981412015855312" lon="7.752068024128676">
        <ele>871.09000000000003</ele>
        <time>2025-05-19T09:01:43Z</time>
      </trkpt>
      <trkpt lat="43.980975989252329" lon="7.75332204066217">
        <ele>861.48000000000002</ele>
        <time>2025-05-19T09:01:50Z</time>
      </trkpt>
      <trkpt lat="43.98061104118824" lon="7.754009021446109">
        <ele>860.03999999999996</ele>
        <time>2025-05-19T09:01:55Z</time>
      </trkpt>
      <trkpt lat="43.98061104118824" lon="7.754115974530578">
        <ele>859.08000000000004</ele>
        <time>2025-05-19T09:01:58Z</time>
      </trkpt>
      <trkpt lat="43.980641970410943" lon="7.754115974530578">
        <ele>856.19000000000005</ele>
        <time>2025-05-19T09:02:00Z</time>
      </trkpt>
      <trkpt lat="43.98069703951478" lon="7.754115974530578">
        <ele>856.19000000000005</ele>
        <time>2025-05-19T09:02:01Z</time>
      </trkpt>
      <trkpt lat="43.980716988444328" lon="7.75407699868083">
        <ele>855.71000000000004</ele>
        <time>2025-05-19T09:02:02Z</time>
      </trkpt>
      <trkpt lat="43.980757975950837" lon="7.753998041152954">
        <ele>855.71000000000004</ele>
        <time>2025-05-19T09:02:03Z</time>
      </trkpt>
      <trkpt lat="43.980809021741152" lon="7.753900978714228">
        <ele>855.23000000000002</ele>
        <time>2025-05-19T09:02:04Z</time>
      </trkpt>
      <trkpt lat="43.98086903616786" lon="7.753785979002714">
        <ele>854.26999999999998</ele>
        <time>2025-05-19T09:02:05Z</time>
      </trkpt>
      <trkpt lat="43.980954028666019" lon="7.753623034805059">
        <ele>853.30999999999995</ele>
        <time>2025-05-19T09:02:06Z</time>
      </trkpt>
      <trkpt lat="43.981037009507418" lon="7.75358104147017">
        <ele>851.87</ele>
        <time>2025-05-19T09:02:07Z</time>
      </trkpt>
      <trkpt lat="43.981142034754157" lon="7.753528989851475">
        <ele>850.41999999999996</ele>
        <time>2025-05-19T09:02:08Z</time>
      </trkpt>
      <trkpt lat="43.981245970353484" lon="7.753477022051811">
        <ele>849.94000000000005</ele>
        <time>2025-05-19T09:02:09Z</time>
      </trkpt>
      <trkpt lat="43.98134496062994" lon="7.753426982089877">
        <ele>848.01999999999998</ele>
        <time>2025-05-19T09:02:10Z</time>
      </trkpt>
      <trkpt lat="43.981429031118751" lon="7.753359004855156">
        <ele>846.58000000000004</ele>
        <time>2025-05-19T09:02:11Z</time>
      </trkpt>
      <trkpt lat="43.981517963111401" lon="7.753263032063842">
        <ele>844.65999999999997</ele>
        <time>2025-05-19T09:02:12Z</time>
      </trkpt>
      <trkpt lat="43.981605973094702" lon="7.753167981281877">
        <ele>843.21000000000004</ele>
        <time>2025-05-19T09:02:13Z</time>
      </trkpt>
      <trkpt lat="43.981685014441609" lon="7.753068991005421">
        <ele>841.28999999999996</ele>
        <time>2025-05-19T09:02:14Z</time>
      </trkpt>
      <trkpt lat="43.981758020818233" lon="7.752948040142655">
        <ele>839.37</ele>
        <time>2025-05-19T09:02:15Z</time>
      </trkpt>
      <trkpt lat="43.981818035244942" lon="7.752805966883898">
        <ele>837.45000000000005</ele>
        <time>2025-05-19T09:02:16Z</time>
      </trkpt>
      <trkpt lat="43.981864973902702" lon="7.752649979665875">
        <ele>836</ele>
        <time>2025-05-19T09:02:17Z</time>
      </trkpt>
      <trkpt lat="43.981910990551114" lon="7.752500027418137">
        <ele>833.60000000000002</ele>
        <time>2025-05-19T09:02:18Z</time>
      </trkpt>
      <trkpt lat="43.982019033282995" lon="7.75214496999979">
        <ele>828.78999999999996</ele>
        <time>2025-05-19T09:02:21Z</time>
      </trkpt>
      <trkpt lat="43.982079969719052" lon="7.752068024128676">
        <ele>826.87</ele>
        <time>2025-05-19T09:02:22Z</time>
      </trkpt>
      <trkpt lat="43.982134032994509" lon="7.75201303884387">
        <ele>824.95000000000005</ele>
        <time>2025-05-19T09:02:23Z</time>
      </trkpt>
      <trkpt lat="43.982221959158778" lon="7.751990994438529">
        <ele>823.02999999999997</ele>
        <time>2025-05-19T09:02:24Z</time>
      </trkpt>
      <trkpt lat="43.982324972748756" lon="7.751966016367078">
        <ele>821.10000000000002</ele>
        <time>2025-05-19T09:02:25Z</time>
      </trkpt>
      <trkpt lat="43.982478026300669" lon="7.75192704051733">
        <ele>818.70000000000005</ele>
        <time>2025-05-19T09:02:26Z</time>
      </trkpt>
      <trkpt lat="43.982569975778461" lon="7.751856967806816">
        <ele>816.29999999999995</ele>
        <time>2025-05-19T09:02:27Z</time>
      </trkpt>
      <trkpt lat="43.9826750010252" lon="7.75177700445056">
        <ele>813.88999999999999</ele>
        <time>2025-05-19T09:02:28Z</time>
      </trkpt>
      <trkpt lat="43.982772985473275" lon="7.751702992245555">
        <ele>811.49000000000001</ele>
        <time>2025-05-19T09:02:29Z</time>
      </trkpt>
      <trkpt lat="43.982855966314673" lon="7.751639038324356">
        <ele>809.09000000000003</ele>
        <time>2025-05-19T09:02:30Z</time>
      </trkpt>
      <trkpt lat="43.982964009046555" lon="7.751505011692643">
        <ele>806.20000000000005</ele>
        <time>2025-05-19T09:02:31Z</time>
      </trkpt>
      <trkpt lat="43.983036009594798" lon="7.75134801864624">
        <ele>803.79999999999995</ele>
        <time>2025-05-19T09:02:32Z</time>
      </trkpt>
      <trkpt lat="43.983073979616165" lon="7.751196976751089">
        <ele>801.39999999999998</ele>
        <time>2025-05-19T09:02:33Z</time>
      </trkpt>
      <trkpt lat="43.983114967122674" lon="7.751039983704686">
        <ele>798.99000000000001</ele>
        <time>2025-05-19T09:02:34Z</time>
      </trkpt>
      <trkpt lat="43.983153020963073" lon="7.750891037285328">
        <ele>796.59000000000003</ele>
        <time>2025-05-19T09:02:35Z</time>
      </trkpt>
      <trkpt lat="43.98319099098444" lon="7.75074502453208">
        <ele>794.19000000000005</ele>
        <time>2025-05-19T09:02:36Z</time>
      </trkpt>
      <trkpt lat="43.983228038996458" lon="7.750598005950451">
        <ele>791.77999999999997</ele>
        <time>2025-05-19T09:02:37Z</time>
      </trkpt>
      <trkpt lat="43.983295010402799" lon="7.750503960996866">
        <ele>789.38</ele>
        <time>2025-05-19T09:02:38Z</time>
      </trkpt>
      <trkpt lat="43.983364999294281" lon="7.75040396489203">
        <ele>786.98000000000002</ele>
        <time>2025-05-19T09:02:39Z</time>
      </trkpt>
      <trkpt lat="43.983444962650537" lon="7.750290976837277">
        <ele>784.57000000000005</ele>
        <time>2025-05-19T09:02:40Z</time>
      </trkpt>
      <trkpt lat="43.983871014788747" lon="7.749911025166512">
        <ele>770.63</ele>
        <time>2025-05-19T09:02:45Z</time>
      </trkpt>
      <trkpt lat="43.984001018106937" lon="7.74980298243463">
        <ele>768.23000000000002</ele>
        <time>2025-05-19T09:02:46Z</time>
      </trkpt>
      <trkpt lat="43.984024990350008" lon="7.74980298243463">
        <ele>765.83000000000004</ele>
        <time>2025-05-19T09:02:47Z</time>
      </trkpt>
      <trkpt lat="43.984173014760017" lon="7.74980298243463">
        <ele>763.89999999999998</ele>
        <time>2025-05-19T09:02:48Z</time>
      </trkpt>
      <trkpt lat="43.984215008094907" lon="7.749829972162843">
        <ele>762.46000000000004</ele>
        <time>2025-05-19T09:02:49Z</time>
      </trkpt>
      <trkpt lat="43.984345011413097" lon="7.749911025166512">
        <ele>761.98000000000002</ele>
        <time>2025-05-19T09:02:50Z</time>
      </trkpt>
      <trkpt lat="43.98439203388989" lon="7.750020995736122">
        <ele>761.5</ele>
        <time>2025-05-19T09:02:51Z</time>
      </trkpt>
      <trkpt lat="43.984440984204412" lon="7.750134989619255">
        <ele>761.5</ele>
        <time>2025-05-19T09:02:52Z</time>
      </trkpt>
      <trkpt lat="43.984468979761004" lon="7.750289971008897">
        <ele>761.5</ele>
        <time>2025-05-19T09:02:53Z</time>
      </trkpt>
      <trkpt lat="43.984461016952991" lon="7.750415029004216">
        <ele>761.01999999999998</ele>
        <time>2025-05-19T09:02:54Z</time>
      </trkpt>
      <trkpt lat="43.984451964497566" lon="7.75057596154511">
        <ele>760.53999999999996</ele>
        <time>2025-05-19T09:02:55Z</time>
      </trkpt>
      <trkpt lat="43.984411982819438" lon="7.750663971528411">
        <ele>760.53999999999996</ele>
        <time>2025-05-19T09:02:56Z</time>
      </trkpt>
      <trkpt lat="43.984359009191394" lon="7.750785006210208">
        <ele>760.05999999999995</ele>
        <time>2025-05-19T09:02:57Z</time>
      </trkpt>
      <trkpt lat="43.984301006421447" lon="7.750916015356779">
        <ele>759.58000000000004</ele>
        <time>2025-05-19T09:02:58Z</time>
      </trkpt>
      <trkpt lat="43.983850982040167" lon="7.75192704051733">
        <ele>754.76999999999998</ele>
        <time>2025-05-19T09:03:05Z</time>
      </trkpt>
      <trkpt lat="43.983837990090251" lon="7.752038016915321">
        <ele>753.80999999999995</ele>
        <time>2025-05-19T09:03:06Z</time>
      </trkpt>
      <trkpt lat="43.983820974826813" lon="7.752192998304963">
        <ele>752.37</ele>
        <time>2025-05-19T09:03:07Z</time>
      </trkpt>
      <trkpt lat="43.983802031725645" lon="7.752353008836508">
        <ele>751.40999999999997</ele>
        <time>2025-05-19T09:03:08Z</time>
      </trkpt>
      <trkpt lat="43.983785016462207" lon="7.75250799022615">
        <ele>749.97000000000003</ele>
        <time>2025-05-19T09:03:09Z</time>
      </trkpt>
      <trkpt lat="43.983757020905614" lon="7.752692978829145">
        <ele>748.03999999999996</ele>
        <time>2025-05-19T09:03:10Z</time>
      </trkpt>
      <trkpt lat="43.983462983742356" lon="7.753230007365346">
        <ele>742.27999999999997</ele>
        <time>2025-05-19T09:03:14Z</time>
      </trkpt>
      <trkpt lat="43.983400035649538" lon="7.75334601290524">
        <ele>741.30999999999995</ele>
        <time>2025-05-19T09:03:15Z</time>
      </trkpt>
      <trkpt lat="43.983361981809139" lon="7.753484984859824">
        <ele>740.35000000000002</ele>
        <time>2025-05-19T09:03:16Z</time>
      </trkpt>
      <trkpt lat="43.983258968219161" lon="7.754789041355252">
        <ele>730.74000000000001</ele>
        <time>2025-05-19T09:03:23Z</time>
      </trkpt>
      <trkpt lat="43.983036009594798" lon="7.756087984889746">
        <ele>722.09000000000003</ele>
        <time>2025-05-19T09:03:29Z</time>
      </trkpt>
      <trkpt lat="43.983036009594798" lon="7.756284037604928">
        <ele>720.64999999999998</ele>
        <time>2025-05-19T09:03:30Z</time>
      </trkpt>
      <trkpt lat="43.983056964352727" lon="7.757690018042922">
        <ele>710.07000000000005</ele>
        <time>2025-05-19T09:03:38Z</time>
      </trkpt>
      <trkpt lat="43.983041038736701" lon="7.757778028026223">
        <ele>709.11000000000001</ele>
        <time>2025-05-19T09:03:39Z</time>
      </trkpt>
      <trkpt lat="43.983080014586449" lon="7.757925968617201">
        <ele>708.63</ele>
        <time>2025-05-19T09:03:40Z</time>
      </trkpt>
      <trkpt lat="43.983099963515997" lon="7.757979026064277">
        <ele>708.14999999999998</ele>
        <time>2025-05-19T09:03:41Z</time>
      </trkpt>
      <trkpt lat="43.983172969892621" lon="7.75800802744925">
        <ele>707.66999999999996</ele>
        <time>2025-05-19T09:03:42Z</time>
      </trkpt>
      <trkpt lat="43.983207000419497" lon="7.758021019399166">
        <ele>707.19000000000005</ele>
        <time>2025-05-19T09:03:43Z</time>
      </trkpt>
      <trkpt lat="43.983207000419497" lon="7.758021019399166">
        <ele>706.71000000000004</ele>
        <time>2025-05-19T09:03:44Z</time>
      </trkpt>
      <trkpt lat="43.98329702205956" lon="7.757950024679303">
        <ele>705.75</ele>
        <time>2025-05-19T09:03:45Z</time>
      </trkpt>
      <trkpt lat="43.9833639934659" lon="7.757837036624551">
        <ele>704.77999999999997</ele>
        <time>2025-05-19T09:03:46Z</time>
      </trkpt>
      <trkpt lat="43.98342995904386" lon="7.757704015821219">
        <ele>703.34000000000003</ele>
        <time>2025-05-19T09:03:47Z</time>
      </trkpt>
      <trkpt lat="43.983507994562387" lon="7.757549034431577">
        <ele>702.38</ele>
        <time>2025-05-19T09:03:48Z</time>
      </trkpt>
      <trkpt lat="43.983551999554038" lon="7.757390029728413">
        <ele>701.41999999999996</ele>
        <time>2025-05-19T09:03:49Z</time>
      </trkpt>
      <trkpt lat="43.983597010374069" lon="7.757229013368487">
        <ele>700.46000000000004</ele>
        <time>2025-05-19T09:03:50Z</time>
      </trkpt>
      <trkpt lat="43.983628023415804" lon="7.75706397369504">
        <ele>699.98000000000002</ele>
        <time>2025-05-19T09:03:51Z</time>
      </trkpt>
      <trkpt lat="43.983647972345352" lon="7.756917960941792">
        <ele>699.01999999999998</ele>
        <time>2025-05-19T09:03:52Z</time>
      </trkpt>
      <trkpt lat="43.98366398178041" lon="7.756804972887039">
        <ele>698.04999999999995</ele>
        <time>2025-05-19T09:03:53Z</time>
      </trkpt>
      <trkpt lat="43.983678985387087" lon="7.756690979003906">
        <ele>697.09000000000003</ele>
        <time>2025-05-19T09:03:54Z</time>
      </trkpt>
      <trkpt lat="43.983709998428822" lon="7.756673041731119">
        <ele>696.13</ele>
        <time>2025-05-19T09:03:55Z</time>
      </trkpt>
      <trkpt lat="43.983817035332322" lon="7.756657032296062">
        <ele>695.16999999999996</ele>
        <time>2025-05-19T09:03:56Z</time>
      </trkpt>
      <trkpt lat="43.983850982040167" lon="7.756690979003906">
        <ele>694.21000000000004</ele>
        <time>2025-05-19T09:03:57Z</time>
      </trkpt>
      <trkpt lat="43.983850982040167" lon="7.756690979003906">
        <ele>693.25</ele>
        <time>2025-05-19T09:03:58Z</time>
      </trkpt>
      <trkpt lat="43.983850982040167" lon="7.756862975656986">
        <ele>692.28999999999996</ele>
        <time>2025-05-19T09:03:59Z</time>
      </trkpt>
      <trkpt lat="43.983819968998432" lon="7.756994990631938">
        <ele>691.33000000000004</ele>
        <time>2025-05-19T09:04:00Z</time>
      </trkpt>
      <trkpt lat="43.983780993148685" lon="7.757163969799876">
        <ele>690.36000000000001</ele>
        <time>2025-05-19T09:04:01Z</time>
      </trkpt>
      <trkpt lat="43.983740005642176" lon="7.757338983938098">
        <ele>689.39999999999998</ele>
        <time>2025-05-19T09:04:02Z</time>
      </trkpt>
      <trkpt lat="43.983698012307286" lon="7.757521960884333">
        <ele>688.91999999999996</ele>
        <time>2025-05-19T09:04:03Z</time>
      </trkpt>
      <trkpt lat="43.983608996495605" lon="7.758009033277631">
        <ele>687</ele>
        <time>2025-05-19T09:04:06Z</time>
      </trkpt>
      <trkpt lat="43.983572032302618" lon="7.758214976638556">
        <ele>687</ele>
        <time>2025-05-19T09:04:07Z</time>
      </trkpt>
      <trkpt lat="43.983464995399117" lon="7.758494010195136">
        <ele>686.51999999999998</ele>
        <time>2025-05-19T09:04:08Z</time>
      </trkpt>
      <trkpt lat="43.983464995399117" lon="7.758494010195136">
        <ele>686.03999999999996</ele>
        <time>2025-05-19T09:04:09Z</time>
      </trkpt>
      <trkpt lat="43.983412021771073" lon="7.758552012965083">
        <ele>685.55999999999995</ele>
        <time>2025-05-19T09:04:10Z</time>
      </trkpt>
      <trkpt lat="43.983292998746037" lon="7.758686961606145">
        <ele>684.60000000000002</ele>
        <time>2025-05-19T09:04:11Z</time>
      </trkpt>
      <trkpt lat="43.98323399014771" lon="7.758726021274924">
        <ele>683.63</ele>
        <time>2025-05-19T09:04:12Z</time>
      </trkpt>
      <trkpt lat="43.982649017125368" lon="7.759116031229496">
        <ele>681.23000000000002</ele>
        <time>2025-05-19T09:04:17Z</time>
      </trkpt>
      <trkpt lat="43.98256603628397" lon="7.759216027334333">
        <ele>680.75</ele>
        <time>2025-05-19T09:04:18Z</time>
      </trkpt>
      <trkpt lat="43.982462016865611" lon="7.75933999568224">
        <ele>679.78999999999996</ele>
        <time>2025-05-19T09:04:19Z</time>
      </trkpt>
      <trkpt lat="43.982366966083646" lon="7.759454995393753">
        <ele>678.35000000000002</ele>
        <time>2025-05-19T09:04:20Z</time>
      </trkpt>
      <trkpt lat="43.982177032157779" lon="7.759694969281554">
        <ele>676.90999999999997</ele>
        <time>2025-05-19T09:04:21Z</time>
      </trkpt>
      <trkpt lat="43.982177032157779" lon="7.759694969281554">
        <ele>675.46000000000004</ele>
        <time>2025-05-19T09:04:22Z</time>
      </trkpt>
      <trkpt lat="43.98200998082757" lon="7.759810974821448">
        <ele>673.53999999999996</ele>
        <time>2025-05-19T09:04:24Z</time>
      </trkpt>
      <trkpt lat="43.981897998601198" lon="7.759888004511595">
        <ele>673.05999999999995</ele>
        <time>2025-05-19T09:04:25Z</time>
      </trkpt>
      <trkpt lat="43.981896992772818" lon="7.759894961491227">
        <ele>672.10000000000002</ele>
        <time>2025-05-19T09:04:26Z</time>
      </trkpt>
      <trkpt lat="43.981983996927738" lon="7.760060001164675">
        <ele>672.10000000000002</ele>
        <time>2025-05-19T09:04:27Z</time>
      </trkpt>
      <trkpt lat="43.98207301273942" lon="7.760018007829785">
        <ele>671.13999999999999</ele>
        <time>2025-05-19T09:04:28Z</time>
      </trkpt>
      <trkpt lat="43.982149036601186" lon="7.759981965646148">
        <ele>670.65999999999997</ele>
        <time>2025-05-19T09:04:29Z</time>
      </trkpt>
      <trkpt lat="43.982247021049261" lon="7.759935026988387">
        <ele>670.17999999999995</ele>
        <time>2025-05-19T09:04:30Z</time>
      </trkpt>
      <trkpt lat="43.982582967728376" lon="7.759875012561679">
        <ele>667.76999999999998</ele>
        <time>2025-05-19T09:04:33Z</time>
      </trkpt>
      <trkpt lat="43.982693022117019" lon="7.759896973147988">
        <ele>666.80999999999995</ele>
        <time>2025-05-19T09:04:34Z</time>
      </trkpt>
      <trkpt lat="43.982756976038218" lon="7.759909965097904">
        <ele>665.85000000000002</ele>
        <time>2025-05-19T09:04:35Z</time>
      </trkpt>
      <trkpt lat="43.98325502872467" lon="7.760315984487534">
        <ele>662.49000000000001</ele>
        <time>2025-05-19T09:04:40Z</time>
      </trkpt>
      <trkpt lat="43.983335997909307" lon="7.760382033884525">
        <ele>662.00999999999999</ele>
        <time>2025-05-19T09:04:41Z</time>
      </trkpt>
      <trkpt lat="43.983443034812808" lon="7.760382033884525">
        <ele>661.51999999999998</ele>
        <time>2025-05-19T09:04:42Z</time>
      </trkpt>
      <trkpt lat="43.983521992340684" lon="7.760319001972675">
        <ele>661.03999999999996</ele>
        <time>2025-05-19T09:04:43Z</time>
      </trkpt>
      <trkpt lat="43.983567003160715" lon="7.760267034173012">
        <ele>660.55999999999995</ele>
        <time>2025-05-19T09:04:44Z</time>
      </trkpt>
      <trkpt lat="43.98362098261714" lon="7.760175000876188">
        <ele>659.60000000000002</ele>
        <time>2025-05-19T09:04:45Z</time>
      </trkpt>
      <trkpt lat="43.983686026185751" lon="7.760062012821436">
        <ele>657.67999999999995</ele>
        <time>2025-05-19T09:04:46Z</time>
      </trkpt>
      <trkpt lat="43.983752997592092" lon="7.759946007281542">
        <ele>655.75999999999999</ele>
        <time>2025-05-19T09:04:47Z</time>
      </trkpt>
      <trkpt lat="43.98387998342514" lon="7.759724976494908">
        <ele>651.42999999999995</ele>
        <time>2025-05-19T09:04:49Z</time>
      </trkpt>
      <trkpt lat="43.983928011730313" lon="7.75964199565351">
        <ele>649.50999999999999</ele>
        <time>2025-05-19T09:04:50Z</time>
      </trkpt>
      <trkpt lat="43.984195981174707" lon="7.759174033999443">
        <ele>639.88999999999999</ele>
        <time>2025-05-19T09:04:56Z</time>
      </trkpt>
      <trkpt lat="43.984462022781372" lon="7.758254958316684">
        <ele>634.13</ele>
        <time>2025-05-19T09:05:02Z</time>
      </trkpt>
      <trkpt lat="43.984535029157996" lon="7.757854973897338">
        <ele>630.27999999999997</ele>
        <time>2025-05-19T09:05:04Z</time>
      </trkpt>
      <trkpt lat="43.984559001401067" lon="7.757721031084657">
        <ele>627.88</ele>
        <time>2025-05-19T09:05:05Z</time>
      </trkpt>
      <trkpt lat="43.98463100194931" lon="7.757542999461293">
        <ele>625.47000000000003</ele>
        <time>2025-05-19T09:05:06Z</time>
      </trkpt>
      <trkpt lat="43.984684981405735" lon="7.757409978657961">
        <ele>623.54999999999995</ele>
        <time>2025-05-19T09:05:07Z</time>
      </trkpt>
      <trkpt lat="43.98473896086216" lon="7.75727603584528">
        <ele>621.14999999999998</ele>
        <time>2025-05-19T09:05:08Z</time>
      </trkpt>
      <trkpt lat="43.984793024137616" lon="7.757143015041947">
        <ele>619.23000000000002</ele>
        <time>2025-05-19T09:05:09Z</time>
      </trkpt>
      <trkpt lat="43.984840968623757" lon="7.757022986188531">
        <ele>617.29999999999995</ele>
        <time>2025-05-19T09:05:10Z</time>
      </trkpt>
      <trkpt lat="43.984890002757311" lon="7.756902035325766">
        <ele>615.38</ele>
        <time>2025-05-19T09:05:11Z</time>
      </trkpt>
      <trkpt lat="43.984938031062484" lon="7.756785023957491">
        <ele>612.98000000000002</ele>
        <time>2025-05-19T09:05:12Z</time>
      </trkpt>
      <trkpt lat="43.984967032447457" lon="7.756713023409247">
        <ele>611.05999999999995</ele>
        <time>2025-05-19T09:05:13Z</time>
      </trkpt>
      <trkpt lat="43.985028974711895" lon="7.756644962355495">
        <ele>608.16999999999996</ele>
        <time>2025-05-19T09:05:14Z</time>
      </trkpt>
      <trkpt lat="43.98508102633059" lon="7.756589977070689">
        <ele>606.25</ele>
        <time>2025-05-19T09:05:15Z</time>
      </trkpt>
      <trkpt lat="43.985118996351957" lon="7.75654898956418">
        <ele>603.85000000000002</ele>
        <time>2025-05-19T09:05:16Z</time>
      </trkpt>
      <trkpt lat="43.985159983858466" lon="7.756503978744149">
        <ele>601.91999999999996</ele>
        <time>2025-05-19T09:05:17Z</time>
      </trkpt>
      <trkpt lat="43.985245982185006" lon="7.756412029266357">
        <ele>600</ele>
        <time>2025-05-19T09:05:18Z</time>
      </trkpt>
      <trkpt lat="43.985246988013387" lon="7.756379004567862">
        <ele>598.08000000000004</ele>
        <time>2025-05-19T09:05:19Z</time>
      </trkpt>
      <trkpt lat="43.985248999670148" lon="7.756339022889733">
        <ele>596.63999999999999</ele>
        <time>2025-05-19T09:05:20Z</time>
      </trkpt>
      <trkpt lat="43.98525201715529" lon="7.756284037604928">
        <ele>595.19000000000005</ele>
        <time>2025-05-19T09:05:21Z</time>
      </trkpt>
      <trkpt lat="43.985256040468812" lon="7.756212037056685">
        <ele>593.26999999999998</ele>
        <time>2025-05-19T09:05:22Z</time>
      </trkpt>
      <trkpt lat="43.985259979963303" lon="7.756127966567874">
        <ele>591.83000000000004</ele>
        <time>2025-05-19T09:05:23Z</time>
      </trkpt>
      <trkpt lat="43.985265009105206" lon="7.756017995998263">
        <ele>590.38999999999999</ele>
        <time>2025-05-19T09:05:24Z</time>
      </trkpt>
      <trkpt lat="43.985284036025405" lon="7.755910959094763">
        <ele>588.95000000000005</ele>
        <time>2025-05-19T09:05:25Z</time>
      </trkpt>
      <trkpt lat="43.985315971076488" lon="7.755781039595604">
        <ele>587.5</ele>
        <time>2025-05-19T09:05:26Z</time>
      </trkpt>
      <trkpt lat="43.985344972461462" lon="7.755658999085426">
        <ele>586.05999999999995</ele>
        <time>2025-05-19T09:05:27Z</time>
      </trkpt>
      <trkpt lat="43.985389983281493" lon="7.755471998825669">
        <ele>583.65999999999997</ele>
        <time>2025-05-19T09:05:29Z</time>
      </trkpt>
      <trkpt lat="43.985396018251777" lon="7.755447020754218">
        <ele>582.70000000000005</ele>
        <time>2025-05-19T09:05:30Z</time>
      </trkpt>
      <trkpt lat="43.985416973009706" lon="7.755189025774598">
        <ele>584.62</ele>
        <time>2025-05-19T09:05:31Z</time>
      </trkpt>
      <trkpt lat="43.985562985762954" lon="7.755202017724514">
        <ele>584.13999999999999</ele>
        <time>2025-05-19T09:05:32Z</time>
      </trkpt>
      <trkpt lat="43.985584024339914" lon="7.755241999402642">
        <ele>582.70000000000005</ele>
        <time>2025-05-19T09:05:33Z</time>
      </trkpt>
      <trkpt lat="43.985547982156277" lon="7.755404021590948">
        <ele>581.73000000000002</ele>
        <time>2025-05-19T09:05:34Z</time>
      </trkpt>
      <trkpt lat="43.985521998256445" lon="7.755501000210643">
        <ele>580.28999999999996</ele>
        <time>2025-05-19T09:05:35Z</time>
      </trkpt>
      <trkpt lat="43.98548997938633" lon="7.75562304072082">
        <ele>578.85000000000002</ele>
        <time>2025-05-19T09:05:36Z</time>
      </trkpt>
      <trkpt lat="43.985455026850104" lon="7.75575103238225">
        <ele>577.40999999999997</ele>
        <time>2025-05-19T09:05:37Z</time>
      </trkpt>
      <trkpt lat="43.985433988273144" lon="7.755890004336834">
        <ele>576.45000000000005</ele>
        <time>2025-05-19T09:05:38Z</time>
      </trkpt>
      <trkpt lat="43.98542501963675" lon="7.756025958806276">
        <ele>575.00999999999999</ele>
        <time>2025-05-19T09:05:39Z</time>
      </trkpt>
      <trkpt lat="43.985417978838086" lon="7.756155962124467">
        <ele>573.55999999999995</ele>
        <time>2025-05-19T09:05:40Z</time>
      </trkpt>
      <trkpt lat="43.985457960516214" lon="7.756282025948167">
        <ele>573.08000000000004</ele>
        <time>2025-05-19T09:05:41Z</time>
      </trkpt>
      <trkpt lat="43.985492996871471" lon="7.756390990689397">
        <ele>571.15999999999997</ele>
        <time>2025-05-19T09:05:42Z</time>
      </trkpt>
      <trkpt lat="43.985519986599684" lon="7.756477994844317">
        <ele>569.72000000000003</ele>
        <time>2025-05-19T09:05:43Z</time>
      </trkpt>
      <trkpt lat="43.985568014904857" lon="7.756627025082707">
        <ele>568.75999999999999</ele>
        <time>2025-05-19T09:05:44Z</time>
      </trkpt>
      <trkpt lat="43.985515963286161" lon="7.756716040894389">
        <ele>567.32000000000005</ele>
        <time>2025-05-19T09:05:45Z</time>
      </trkpt>
      <trkpt lat="43.98544798605144" lon="7.756832968443632">
        <ele>565.87</ele>
        <time>2025-05-19T09:05:46Z</time>
      </trkpt>
      <trkpt lat="43.985384032130241" lon="7.756944028660655">
        <ele>564.42999999999995</ele>
        <time>2025-05-19T09:05:47Z</time>
      </trkpt>
      <trkpt lat="43.985328963026404" lon="7.757045030593872">
        <ele>563.95000000000005</ele>
        <time>2025-05-19T09:05:48Z</time>
      </trkpt>
      <trkpt lat="43.985198959708214" lon="7.757567977532744">
        <ele>560.11000000000001</ele>
        <time>2025-05-19T09:05:51Z</time>
      </trkpt>
      <trkpt lat="43.985085971653461" lon="7.757874000817537">
        <ele>558.17999999999995</ele>
        <time>2025-05-19T09:05:53Z</time>
      </trkpt>
      <trkpt lat="43.985030986368656" lon="7.758021019399166">
        <ele>558.17999999999995</ele>
        <time>2025-05-19T09:05:54Z</time>
      </trkpt>
      <trkpt lat="43.985043978318572" lon="7.758165020495653">
        <ele>556.74000000000001</ele>
        <time>2025-05-19T09:05:55Z</time>
      </trkpt>
      <trkpt lat="43.985058981925249" lon="7.758326036855578">
        <ele>556.25999999999999</ele>
        <time>2025-05-19T09:05:56Z</time>
      </trkpt>
      <trkpt lat="43.985072979703546" lon="7.75848001241684">
        <ele>555.29999999999995</ele>
        <time>2025-05-19T09:05:57Z</time>
      </trkpt>
      <trkpt lat="43.985096029937267" lon="7.758729960769415">
        <ele>554.34000000000003</ele>
        <time>2025-05-19T09:05:58Z</time>
      </trkpt>
      <trkpt lat="43.984983041882515" lon="7.75985699146986">
        <ele>546.64999999999998</ele>
        <time>2025-05-19T09:06:05Z</time>
      </trkpt>
      <trkpt lat="43.984959991648793" lon="7.760034017264843">
        <ele>545.69000000000005</ele>
        <time>2025-05-19T09:06:06Z</time>
      </trkpt>
      <trkpt lat="43.984896037727594" lon="7.760204002261162">
        <ele>544.24000000000001</ele>
        <time>2025-05-19T09:06:07Z</time>
      </trkpt>
      <trkpt lat="43.984446013346314" lon="7.761457012966275">
        <ele>535.59000000000003</ele>
        <time>2025-05-19T09:06:14Z</time>
      </trkpt>
      <trkpt lat="43.984407959505916" lon="7.761636972427368">
        <ele>534.63</ele>
        <time>2025-05-19T09:06:15Z</time>
      </trkpt>
      <trkpt lat="43.984302012249827" lon="7.762140976265073">
        <ele>530.29999999999995</ele>
        <time>2025-05-19T09:06:18Z</time>
      </trkpt>
      <trkpt lat="43.984273010864854" lon="7.762186992913485">
        <ele>529.34000000000003</ele>
        <time>2025-05-19T09:06:19Z</time>
      </trkpt>
      <trkpt lat="43.984214002266526" lon="7.762279026210308">
        <ele>528.38</ele>
        <time>2025-05-19T09:06:20Z</time>
      </trkpt>
      <trkpt lat="43.984161028638482" lon="7.762362007051706">
        <ele>527.41999999999996</ele>
        <time>2025-05-19T09:06:21Z</time>
      </trkpt>
      <trkpt lat="43.984122974798083" lon="7.762420009821653">
        <ele>526.94000000000005</ele>
        <time>2025-05-19T09:06:22Z</time>
      </trkpt>
      <trkpt lat="43.984022978693247" lon="7.762570967897773">
        <ele>528.38</ele>
        <time>2025-05-19T09:06:23Z</time>
      </trkpt>
      <trkpt lat="43.984057009220123" lon="7.762627964839339">
        <ele>529.34000000000003</ele>
        <time>2025-05-19T09:06:24Z</time>
      </trkpt>
      <trkpt lat="43.984173014760017" lon="7.762635005638003">
        <ele>529.82000000000005</ele>
        <time>2025-05-19T09:06:25Z</time>
      </trkpt>
      <trkpt lat="43.98428700864315" lon="7.762483041733503">
        <ele>530.29999999999995</ele>
        <time>2025-05-19T09:06:26Z</time>
      </trkpt>
      <trkpt lat="43.984354985877872" lon="7.76239201426506">
        <ele>530.78999999999996</ele>
        <time>2025-05-19T09:06:27Z</time>
      </trkpt>
      <trkpt lat="43.98443796671927" lon="7.762279026210308">
        <ele>530.29999999999995</ele>
        <time>2025-05-19T09:06:28Z</time>
      </trkpt>
      <trkpt lat="43.984599988907576" lon="7.762017007917166">
        <ele>530.78999999999996</ele>
        <time>2025-05-19T09:06:30Z</time>
      </trkpt>
      <trkpt lat="43.984678024426103" lon="7.761889016255736">
        <ele>530.78999999999996</ele>
        <time>2025-05-19T09:06:31Z</time>
      </trkpt>
      <trkpt lat="43.984847003594041" lon="7.76166002266109">
        <ele>529.82000000000005</ele>
        <time>2025-05-19T09:06:33Z</time>
      </trkpt>
      <trkpt lat="43.984935013577342" lon="7.761573018506169">
        <ele>529.34000000000003</ele>
        <time>2025-05-19T09:06:34Z</time>
      </trkpt>
      <trkpt lat="43.985073985531926" lon="7.761365985497832">
        <ele>528.86000000000001</ele>
        <time>2025-05-19T09:06:36Z</time>
      </trkpt>
      <trkpt lat="43.985127964988351" lon="7.761256014928222">
        <ele>528.86000000000001</ele>
        <time>2025-05-19T09:06:37Z</time>
      </trkpt>
      <trkpt lat="43.98525302298367" lon="7.761001037433744">
        <ele>528.38</ele>
        <time>2025-05-19T09:06:39Z</time>
      </trkpt>
      <trkpt lat="43.98546701297164" lon="7.760564005002379">
        <ele>528.86000000000001</ele>
        <time>2025-05-19T09:06:42Z</time>
      </trkpt>
      <trkpt lat="43.985543036833405" lon="7.76041598059237">
        <ele>528.38</ele>
        <time>2025-05-19T09:06:43Z</time>
      </trkpt>
      <trkpt lat="43.985623000189662" lon="7.760283965617418">
        <ele>527.89999999999998</ele>
        <time>2025-05-19T09:06:44Z</time>
      </trkpt>
      <trkpt lat="43.985774964094162" lon="7.760035023093224">
        <ele>526.46000000000004</ele>
        <time>2025-05-19T09:06:46Z</time>
      </trkpt>
      <trkpt lat="43.985829027369618" lon="7.759934021160007">
        <ele>525.98000000000002</ele>
        <time>2025-05-19T09:06:47Z</time>
      </trkpt>
      <trkpt lat="43.985868003219366" lon="7.759760012850165">
        <ele>525.5</ele>
        <time>2025-05-19T09:06:48Z</time>
      </trkpt>
      <trkpt lat="43.985860962420702" lon="7.759719025343657">
        <ele>525.01999999999998</ele>
        <time>2025-05-19T09:06:49Z</time>
      </trkpt>
      <trkpt lat="43.985840007662773" lon="7.759589022025466">
        <ele>524.05999999999995</ele>
        <time>2025-05-19T09:06:50Z</time>
      </trkpt>
      <trkpt lat="43.985817963257432" lon="7.759461030364037">
        <ele>523.58000000000004</ele>
        <time>2025-05-19T09:06:51Z</time>
      </trkpt>
      <trkpt lat="43.985815029591322" lon="7.759308982640505">
        <ele>522.61000000000001</ele>
        <time>2025-05-19T09:06:52Z</time>
      </trkpt>
      <trkpt lat="43.985842019319534" lon="7.759152995422483">
        <ele>521.16999999999996</ele>
        <time>2025-05-19T09:06:53Z</time>
      </trkpt>
      <trkpt lat="43.985873032361269" lon="7.75897697545588">
        <ele>520.21000000000004</ele>
        <time>2025-05-19T09:06:54Z</time>
      </trkpt>
      <trkpt lat="43.98594100959599" lon="7.758586965501308">
        <ele>517.80999999999995</ele>
        <time>2025-05-19T09:06:56Z</time>
      </trkpt>
      <trkpt lat="43.986060032621026" lon="7.758259987458587">
        <ele>514.91999999999996</ele>
        <time>2025-05-19T09:06:58Z</time>
      </trkpt>
      <trkpt lat="43.986137984320521" lon="7.758139036595821">
        <ele>513.48000000000002</ele>
        <time>2025-05-19T09:06:59Z</time>
      </trkpt>
      <trkpt lat="43.98621903732419" lon="7.758012972772121">
        <ele>512.03999999999996</ele>
        <time>2025-05-19T09:07:00Z</time>
      </trkpt>
      <trkpt lat="43.98656303063035" lon="7.75749396532774">
        <ele>504.82999999999998</ele>
        <time>2025-05-19T09:07:05Z</time>
      </trkpt>
      <trkpt lat="43.986639976501465" lon="7.757377959787846">
        <ele>506.26999999999998</ele>
        <time>2025-05-19T09:07:06Z</time>
      </trkpt>
      <trkpt lat="43.98673402145505" lon="7.75738500058651">
        <ele>506.26999999999998</ele>
        <time>2025-05-19T09:07:07Z</time>
      </trkpt>
      <trkpt lat="43.986748019233346" lon="7.757527995854616">
        <ele>505.31</ele>
        <time>2025-05-19T09:07:08Z</time>
      </trkpt>
      <trkpt lat="43.986682975664735" lon="7.757646013051271">
        <ele>503.87</ele>
        <time>2025-05-19T09:07:09Z</time>
      </trkpt>
      <trkpt lat="43.986622039228678" lon="7.757759001106024">
        <ele>502.91000000000003</ele>
        <time>2025-05-19T09:07:10Z</time>
      </trkpt>
      <trkpt lat="43.986552972346544" lon="7.757884981110692">
        <ele>501.94999999999999</ele>
        <time>2025-05-19T09:07:11Z</time>
      </trkpt>
      <trkpt lat="43.986490024253726" lon="7.757999980822206">
        <ele>500.98000000000002</ele>
        <time>2025-05-19T09:07:12Z</time>
      </trkpt>
      <trkpt lat="43.986232029274106" lon="7.758485963568091">
        <ele>496.66000000000003</ele>
        <time>2025-05-19T09:07:16Z</time>
      </trkpt>
      <trkpt lat="43.986215014010668" lon="7.758599035441876">
        <ele>495.69999999999999</ele>
        <time>2025-05-19T09:07:17Z</time>
      </trkpt>
      <trkpt lat="43.986238986253738" lon="7.75871504098177">
        <ele>494.25999999999999</ele>
        <time>2025-05-19T09:07:18Z</time>
      </trkpt>
      <trkpt lat="43.986276034265757" lon="7.758836997672916">
        <ele>492.81</ele>
        <time>2025-05-19T09:07:19Z</time>
      </trkpt>
      <trkpt lat="43.986315010115504" lon="7.758967000991106">
        <ele>491.37</ele>
        <time>2025-05-19T09:07:20Z</time>
      </trkpt>
      <trkpt lat="43.986339988186955" lon="7.759050987660885">
        <ele>489.44999999999999</ele>
        <time>2025-05-19T09:07:21Z</time>
      </trkpt>
      <trkpt lat="43.986339988186955" lon="7.759050987660885">
        <ele>487.52999999999997</ele>
        <time>2025-05-19T09:07:22Z</time>
      </trkpt>
      <trkpt lat="43.986322972923517" lon="7.759214015677571">
        <ele>485.60000000000002</ele>
        <time>2025-05-19T09:07:23Z</time>
      </trkpt>
      <trkpt lat="43.986309980973601" lon="7.759336978197098">
        <ele>483.68000000000001</ele>
        <time>2025-05-19T09:07:24Z</time>
      </trkpt>
      <trkpt lat="43.986354991793633" lon="7.759582987055183">
        <ele>482.24000000000001</ele>
        <time>2025-05-19T09:07:25Z</time>
      </trkpt>
      <trkpt lat="43.986404025927186" lon="7.759688012301922">
        <ele>479.83999999999997</ele>
        <time>2025-05-19T09:07:26Z</time>
      </trkpt>
      <trkpt lat="43.986447025090456" lon="7.759780967608094">
        <ele>477.43000000000001</ele>
        <time>2025-05-19T09:07:27Z</time>
      </trkpt>
      <trkpt lat="43.986484995111823" lon="7.759931003674865">
        <ele>476.47000000000003</ele>
        <time>2025-05-19T09:07:28Z</time>
      </trkpt>
      <trkpt lat="43.986511984840035" lon="7.760038040578365">
        <ele>475.02999999999997</ele>
        <time>2025-05-19T09:07:29Z</time>
      </trkpt>
      <trkpt lat="43.986496981233358" lon="7.760171983391047">
        <ele>473.58999999999997</ele>
        <time>2025-05-19T09:07:30Z</time>
      </trkpt>
      <trkpt lat="43.98647896014154" lon="7.760336017236114">
        <ele>472.63</ele>
        <time>2025-05-19T09:07:31Z</time>
      </trkpt>
      <trkpt lat="43.986459011211991" lon="7.760516982525587">
        <ele>471.66000000000003</ele>
        <time>2025-05-19T09:07:32Z</time>
      </trkpt>
      <trkpt lat="43.986438978463411" lon="7.760697025805712">
        <ele>470.22000000000003</ele>
        <time>2025-05-19T09:07:33Z</time>
      </trkpt>
      <trkpt lat="43.98645699955523" lon="7.761068008840084">
        <ele>466.86000000000001</ele>
        <time>2025-05-19T09:07:35Z</time>
      </trkpt>
      <trkpt lat="43.98647896014154" lon="7.761247968301177">
        <ele>465.42000000000002</ele>
        <time>2025-05-19T09:07:36Z</time>
      </trkpt>
      <trkpt lat="43.986529000103474" lon="7.761650970205665">
        <ele>462.52999999999997</ele>
        <time>2025-05-19T09:07:38Z</time>
      </trkpt>
      <trkpt lat="43.986554984003305" lon="7.761862026527524">
        <ele>461.08999999999997</ele>
        <time>2025-05-19T09:07:39Z</time>
      </trkpt>
      <trkpt lat="43.98660896345973" lon="7.762452028691769">
        <ele>458.69</ele>
        <time>2025-05-19T09:07:42Z</time>
      </trkpt>
      <trkpt lat="43.986623967066407" lon="7.762613967061043">
        <ele>457.72000000000003</ele>
        <time>2025-05-19T09:07:43Z</time>
      </trkpt>
      <trkpt lat="43.986639976501465" lon="7.762785041704774">
        <ele>456.75999999999999</ele>
        <time>2025-05-19T09:07:44Z</time>
      </trkpt>
      <trkpt lat="43.986593959853053" lon="7.762941028922796">
        <ele>455.80000000000001</ele>
        <time>2025-05-19T09:07:45Z</time>
      </trkpt>
      <trkpt lat="43.986535035073757" lon="7.763138003647327">
        <ele>455.31999999999999</ele>
        <time>2025-05-19T09:07:46Z</time>
      </trkpt>
      <trkpt lat="43.986482983455062" lon="7.763307988643646">
        <ele>454.36000000000001</ele>
        <time>2025-05-19T09:07:47Z</time>
      </trkpt>
      <trkpt lat="43.986235968768597" lon="7.763970997184515">
        <ele>450.02999999999997</ele>
        <time>2025-05-19T09:07:51Z</time>
      </trkpt>
      <trkpt lat="43.986146030947566" lon="7.764093959704042">
        <ele>449.06999999999999</ele>
        <time>2025-05-19T09:07:52Z</time>
      </trkpt>
      <trkpt lat="43.98585501126945" lon="7.764547001570463">
        <ele>446.19</ele>
        <time>2025-05-19T09:07:55Z</time>
      </trkpt>
      <trkpt lat="43.985773036256433" lon="7.764739030972123">
        <ele>445.23000000000002</ele>
        <time>2025-05-19T09:07:56Z</time>
      </trkpt>
      <trkpt lat="43.985692989081144" lon="7.7649250254035">
        <ele>444.75</ele>
        <time>2025-05-19T09:07:57Z</time>
      </trkpt>
      <trkpt lat="43.985543036833405" lon="7.765273964032531">
        <ele>442.81999999999999</ele>
        <time>2025-05-19T09:07:59Z</time>
      </trkpt>
      <trkpt lat="43.985430970788002" lon="7.765416959300637">
        <ele>441.86000000000001</ele>
        <time>2025-05-19T09:08:00Z</time>
      </trkpt>
      <trkpt lat="43.985326029360294" lon="7.76552801951766">
        <ele>440.89999999999998</ele>
        <time>2025-05-19T09:08:01Z</time>
      </trkpt>
      <trkpt lat="43.985213041305542" lon="7.765647964552045">
        <ele>439.94</ele>
        <time>2025-05-19T09:08:02Z</time>
      </trkpt>
      <trkpt lat="43.985114973038435" lon="7.765790959820151">
        <ele>438.98000000000002</ele>
        <time>2025-05-19T09:08:03Z</time>
      </trkpt>
      <trkpt lat="43.985019000247121" lon="7.765948036685586">
        <ele>438.01999999999998</ele>
        <time>2025-05-19T09:08:04Z</time>
      </trkpt>
      <trkpt lat="43.984919004142284" lon="7.766111986711621">
        <ele>436.57999999999998</ele>
        <time>2025-05-19T09:08:05Z</time>
      </trkpt>
      <trkpt lat="43.984741978347301" lon="7.766400994732976">
        <ele>434.64999999999998</ele>
        <time>2025-05-19T09:08:07Z</time>
      </trkpt>
      <trkpt lat="43.984686993062496" lon="7.766524963080883">
        <ele>434.64999999999998</ele>
        <time>2025-05-19T09:08:08Z</time>
      </trkpt>
      <trkpt lat="43.984643993899226" lon="7.766662007197738">
        <ele>434.17000000000002</ele>
        <time>2025-05-19T09:08:09Z</time>
      </trkpt>
      <trkpt lat="43.984599988907576" lon="7.766799973323941">
        <ele>433.69</ele>
        <time>2025-05-19T09:08:10Z</time>
      </trkpt>
      <trkpt lat="43.984585991129279" lon="7.766940034925938">
        <ele>433.20999999999998</ele>
        <time>2025-05-19T09:08:11Z</time>
      </trkpt>
      <trkpt lat="43.984595965594053" lon="7.767098033800721">
        <ele>433.20999999999998</ele>
        <time>2025-05-19T09:08:12Z</time>
      </trkpt>
      <trkpt lat="43.98460702970624" lon="7.767262989655137">
        <ele>432.73000000000002</ele>
        <time>2025-05-19T09:08:13Z</time>
      </trkpt>
      <trkpt lat="43.984644999727607" lon="7.767848968505859">
        <ele>432.25</ele>
        <time>2025-05-19T09:08:16Z</time>
      </trkpt>
      <trkpt lat="43.984666038304567" lon="7.768004033714533">
        <ele>432.25</ele>
        <time>2025-05-19T09:08:17Z</time>
      </trkpt>
      <trkpt lat="43.984734015539289" lon="7.768509965389967">
        <ele>433.69</ele>
        <time>2025-05-19T09:08:20Z</time>
      </trkpt>
      <trkpt lat="43.984776008874178" lon="7.768821017816663">
        <ele>434.64999999999998</ele>
        <time>2025-05-19T09:08:22Z</time>
      </trkpt>
      <trkpt lat="43.984796963632107" lon="7.768968958407641">
        <ele>435.13</ele>
        <time>2025-05-19T09:08:23Z</time>
      </trkpt>
      <trkpt lat="43.984863013029099" lon="7.769109020009637">
        <ele>435.61000000000001</ele>
        <time>2025-05-19T09:08:24Z</time>
      </trkpt>
      <trkpt lat="43.984934007748961" lon="7.769258972257376">
        <ele>435.61000000000001</ele>
        <time>2025-05-19T09:08:25Z</time>
      </trkpt>
      <trkpt lat="43.985008019953966" lon="7.76939501054585">
        <ele>435.61000000000001</ele>
        <time>2025-05-19T09:08:26Z</time>
      </trkpt>
      <trkpt lat="43.985092006623745" lon="7.769526019692421">
        <ele>435.61000000000001</ele>
        <time>2025-05-19T09:08:27Z</time>
      </trkpt>
      <trkpt lat="43.985185967758298" lon="7.769674966111779">
        <ele>435.61000000000001</ele>
        <time>2025-05-19T09:08:28Z</time>
      </trkpt>
      <trkpt lat="43.985288981348276" lon="7.769836988300085">
        <ele>435.61000000000001</ele>
        <time>2025-05-19T09:08:29Z</time>
      </trkpt>
      <trkpt lat="43.985394006595016" lon="7.770001022145152">
        <ele>435.61000000000001</ele>
        <time>2025-05-19T09:08:30Z</time>
      </trkpt>
      <trkpt lat="43.985874960198998" lon="7.771105002611876">
        <ele>435.13</ele>
        <time>2025-05-19T09:08:36Z</time>
      </trkpt>
      <trkpt lat="43.986018039286137" lon="7.771450001746416">
        <ele>435.61000000000001</ele>
        <time>2025-05-19T09:08:38Z</time>
      </trkpt>
      <trkpt lat="43.986148964613676" lon="7.771812016144395">
        <ele>435.61000000000001</ele>
        <time>2025-05-19T09:08:40Z</time>
      </trkpt>
      <trkpt lat="43.986211996525526" lon="7.771986024454236">
        <ele>435.61000000000001</ele>
        <time>2025-05-19T09:08:41Z</time>
      </trkpt>
      <trkpt lat="43.986275028437376" lon="7.772159026935697">
        <ele>435.61000000000001</ele>
        <time>2025-05-19T09:08:42Z</time>
      </trkpt>
      <trkpt lat="43.986466974020004" lon="7.772691026329994">
        <ele>435.61000000000001</ele>
        <time>2025-05-19T09:08:45Z</time>
      </trkpt>
      <trkpt lat="43.986532017588615" lon="7.772870985791087">
        <ele>436.10000000000002</ele>
        <time>2025-05-19T09:08:46Z</time>
      </trkpt>
      <trkpt lat="43.986589014530182" lon="7.773206010460854">
        <ele>436.10000000000002</ele>
        <time>2025-05-19T09:08:48Z</time>
      </trkpt>
      <trkpt lat="43.986610975116491" lon="7.773387981578708">
        <ele>436.57999999999998</ele>
        <time>2025-05-19T09:08:49Z</time>
      </trkpt>
      <trkpt lat="43.986655985936522" lon="7.773746978491545">
        <ele>438.01999999999998</ele>
        <time>2025-05-19T09:08:51Z</time>
      </trkpt>
      <trkpt lat="43.986659003421664" lon="7.774275960400701">
        <ele>439.94</ele>
        <time>2025-05-19T09:08:54Z</time>
      </trkpt>
      <trkpt lat="43.986642993986607" lon="7.774474024772644">
        <ele>439.94</ele>
        <time>2025-05-19T09:08:55Z</time>
      </trkpt>
      <trkpt lat="43.986612986773252" lon="7.774654990062118">
        <ele>440.42000000000002</ele>
        <time>2025-05-19T09:08:56Z</time>
      </trkpt>
      <trkpt lat="43.986406037583947" lon="7.775595020502806">
        <ele>439.94</ele>
        <time>2025-05-19T09:09:01Z</time>
      </trkpt>
      <trkpt lat="43.986334959045053" lon="7.775761988013983">
        <ele>439.94</ele>
        <time>2025-05-19T09:09:02Z</time>
      </trkpt>
      <trkpt lat="43.986096996814013" lon="7.776326006278396">
        <ele>439.45999999999998</ele>
        <time>2025-05-19T09:09:06Z</time>
      </trkpt>
      <trkpt lat="43.986039999872446" lon="7.776518035680056">
        <ele>438.98000000000002</ele>
        <time>2025-05-19T09:09:07Z</time>
      </trkpt>
      <trkpt lat="43.986168997362256" lon="7.776496997103095">
        <ele>438.98000000000002</ele>
        <time>2025-05-19T09:09:08Z</time>
      </trkpt>
      <trkpt lat="43.986210990697145" lon="7.776624988764525">
        <ele>438.98000000000002</ele>
        <time>2025-05-19T09:09:09Z</time>
      </trkpt>
      <trkpt lat="43.986239992082119" lon="7.776671005412936">
        <ele>438.98000000000002</ele>
        <time>2025-05-19T09:09:10Z</time>
      </trkpt>
      <trkpt lat="43.986301012337208" lon="7.77676597237587">
        <ele>439.45999999999998</ele>
        <time>2025-05-19T09:09:11Z</time>
      </trkpt>
      <trkpt lat="43.986440990120173" lon="7.776939980685711">
        <ele>441.38</ele>
        <time>2025-05-19T09:09:13Z</time>
      </trkpt>
      <trkpt lat="43.986556995660067" lon="7.777166962623596">
        <ele>443.31</ele>
        <time>2025-05-19T09:09:15Z</time>
      </trkpt>
      <trkpt lat="43.986576022580266" lon="7.777205016463995">
        <ele>444.26999999999998</ele>
        <time>2025-05-19T09:09:16Z</time>
      </trkpt>
      <trkpt lat="43.986576022580266" lon="7.777334013953805">
        <ele>444.75</ele>
        <time>2025-05-19T09:09:17Z</time>
      </trkpt>
      <trkpt lat="43.986576022580266" lon="7.777376007288694">
        <ele>445.70999999999998</ele>
        <time>2025-05-19T09:09:18Z</time>
      </trkpt>
      <trkpt lat="43.986505027860403" lon="7.777485977858305">
        <ele>446.67000000000002</ele>
        <time>2025-05-19T09:09:19Z</time>
      </trkpt>
      <trkpt lat="43.986444007605314" lon="7.77758102864027">
        <ele>448.11000000000001</ele>
        <time>2025-05-19T09:09:20Z</time>
      </trkpt>
      <trkpt lat="43.986382987350225" lon="7.777712037786841">
        <ele>449.06999999999999</ele>
        <time>2025-05-19T09:09:21Z</time>
      </trkpt>
      <trkpt lat="43.986382987350225" lon="7.777784038335085">
        <ele>449.55000000000001</ele>
        <time>2025-05-19T09:09:22Z</time>
      </trkpt>
      <trkpt lat="43.986448030918837" lon="7.777848998084664">
        <ele>450.51999999999998</ele>
        <time>2025-05-19T09:09:23Z</time>
      </trkpt>
      <trkpt lat="43.986468985676765" lon="7.777870036661625">
        <ele>451</ele>
        <time>2025-05-19T09:09:24Z</time>
      </trkpt>
      <trkpt lat="43.986525982618332" lon="7.77781798504293">
        <ele>451.95999999999998</ele>
        <time>2025-05-19T09:09:25Z</time>
      </trkpt>
      <trkpt lat="43.986593959853053" lon="7.777755036950111">
        <ele>451.95999999999998</ele>
        <time>2025-05-19T09:09:26Z</time>
      </trkpt>
      <trkpt lat="43.986679958179593" lon="7.777675995603204">
        <ele>452.44</ele>
        <time>2025-05-19T09:09:27Z</time>
      </trkpt>
      <trkpt lat="43.986770985648036" lon="7.777588991448283">
        <ele>452.44</ele>
        <time>2025-05-19T09:09:28Z</time>
      </trkpt>
      <trkpt lat="43.986861007288098" lon="7.777498969808221">
        <ele>452.44</ele>
        <time>2025-05-19T09:09:29Z</time>
      </trkpt>
      <trkpt lat="43.987137023359537" lon="7.77723602950573">
        <ele>453.88</ele>
        <time>2025-05-19T09:09:33Z</time>
      </trkpt>
      <trkpt lat="43.987280018627644" lon="7.777116000652313">
        <ele>454.36000000000001</ele>
        <time>2025-05-19T09:09:36Z</time>
      </trkpt>
      <trkpt lat="43.987313965335488" lon="7.77708699926734">
        <ele>454.83999999999997</ele>
        <time>2025-05-19T09:09:37Z</time>
      </trkpt>
      <trkpt lat="43.987327041104436" lon="7.777076018974185">
        <ele>454.83999999999997</ele>
        <time>2025-05-19T09:09:38Z</time>
      </trkpt>
      <trkpt lat="43.987327041104436" lon="7.777076018974185">
        <ele>454.83999999999997</ele>
        <time>2025-05-19T09:09:39Z</time>
      </trkpt>
      <trkpt lat="43.987428965047002" lon="7.777138967067003">
        <ele>456.27999999999997</ele>
        <time>2025-05-19T09:09:50Z</time>
      </trkpt>
      <trkpt lat="43.987392000854015" lon="7.777162017300725">
        <ele>457.24000000000001</ele>
        <time>2025-05-19T09:09:53Z</time>
      </trkpt>
      <trkpt lat="43.987392000854015" lon="7.777162017300725">
        <ele>457.72000000000003</ele>
        <time>2025-05-19T09:09:54Z</time>
      </trkpt>
      <trkpt lat="43.987490991130471" lon="7.777224965393543">
        <ele>457.72000000000003</ele>
        <time>2025-05-19T09:09:55Z</time>
      </trkpt>
      <trkpt lat="43.987458972260356" lon="7.777278022840619">
        <ele>457.72000000000003</ele>
        <time>2025-05-19T09:09:56Z</time>
      </trkpt>
      <trkpt lat="43.987421002238989" lon="7.777341976761818">
        <ele>457.72000000000003</ele>
        <time>2025-05-19T09:09:57Z</time>
      </trkpt>
      <trkpt lat="43.987374985590577" lon="7.777397967875004">
        <ele>457.72000000000003</ele>
        <time>2025-05-19T09:09:58Z</time>
      </trkpt>
      <trkpt lat="43.987117996439338" lon="7.777686975896359">
        <ele>458.20999999999998</ele>
        <time>2025-05-19T09:10:02Z</time>
      </trkpt>
      <trkpt lat="43.98645699955523" lon="7.778315031901002">
        <ele>464.93000000000001</ele>
        <time>2025-05-19T09:10:09Z</time>
      </trkpt>
      <trkpt lat="43.986389022320509" lon="7.77844101190567">
        <ele>466.38</ele>
        <time>2025-05-19T09:10:10Z</time>
      </trkpt>
      <trkpt lat="43.986338982358575" lon="7.778576966375113">
        <ele>467.81999999999999</ele>
        <time>2025-05-19T09:10:11Z</time>
      </trkpt>
      <trkpt lat="43.986295983195305" lon="7.778734965249896">
        <ele>469.25999999999999</ele>
        <time>2025-05-19T09:10:12Z</time>
      </trkpt>
      <trkpt lat="43.986250972375274" lon="7.778902016580105">
        <ele>470.22000000000003</ele>
        <time>2025-05-19T09:10:13Z</time>
      </trkpt>
      <trkpt lat="43.986205039545894" lon="7.779073007404804">
        <ele>471.66000000000003</ele>
        <time>2025-05-19T09:10:14Z</time>
      </trkpt>
      <trkpt lat="43.986079981550574" lon="7.779536023736">
        <ele>475.02999999999997</ele>
        <time>2025-05-19T09:10:17Z</time>
      </trkpt>
      <trkpt lat="43.986072018742561" lon="7.779679019004107">
        <ele>475.99000000000001</ele>
        <time>2025-05-19T09:10:18Z</time>
      </trkpt>
      <trkpt lat="43.986094985157251" lon="7.779828971251845">
        <ele>476.94999999999999</ele>
        <time>2025-05-19T09:10:19Z</time>
      </trkpt>
      <trkpt lat="43.98613303899765" lon="7.780336998403072">
        <ele>479.83999999999997</ele>
        <time>2025-05-19T09:10:22Z</time>
      </trkpt>
      <trkpt lat="43.986118035390973" lon="7.780513018369675">
        <ele>480.80000000000001</ele>
        <time>2025-05-19T09:10:23Z</time>
      </trkpt>
      <trkpt lat="43.986104959622025" lon="7.780694989487529">
        <ele>481.75999999999999</ele>
        <time>2025-05-19T09:10:24Z</time>
      </trkpt>
      <trkpt lat="43.986118035390973" lon="7.780878972262144">
        <ele>482.72000000000003</ele>
        <time>2025-05-19T09:10:25Z</time>
      </trkpt>
      <trkpt lat="43.986131027340889" lon="7.78106396086514">
        <ele>483.68000000000001</ele>
        <time>2025-05-19T09:10:26Z</time>
      </trkpt>
      <trkpt lat="43.986147036775947" lon="7.781281974166632">
        <ele>484.63999999999999</ele>
        <time>2025-05-19T09:10:27Z</time>
      </trkpt>
      <trkpt lat="43.986104959622025" lon="7.781404014676809">
        <ele>485.60000000000002</ele>
        <time>2025-05-19T09:10:28Z</time>
      </trkpt>
      <trkpt lat="43.986051985993981" lon="7.781555978581309">
        <ele>486.56</ele>
        <time>2025-05-19T09:10:29Z</time>
      </trkpt>
      <trkpt lat="43.985856017097831" lon="7.781996028497815">
        <ele>489.93000000000001</ele>
        <time>2025-05-19T09:10:32Z</time>
      </trkpt>
      <trkpt lat="43.985611014068127" lon="7.782427025958896">
        <ele>493.76999999999998</ele>
        <time>2025-05-19T09:10:35Z</time>
      </trkpt>
      <trkpt lat="43.985562985762954" lon="7.782594999298453">
        <ele>495.22000000000003</ele>
        <time>2025-05-19T09:10:36Z</time>
      </trkpt>
      <trkpt lat="43.985517974942923" lon="7.782754004001617">
        <ele>496.66000000000003</ele>
        <time>2025-05-19T09:10:37Z</time>
      </trkpt>
      <trkpt lat="43.985342038795352" lon="7.783369990065694">
        <ele>503.38999999999999</ele>
        <time>2025-05-19T09:10:41Z</time>
      </trkpt>
      <trkpt lat="43.985331980511546" lon="7.78351197950542">
        <ele>505.31</ele>
        <time>2025-05-19T09:10:42Z</time>
      </trkpt>
      <trkpt lat="43.98533801548183" lon="7.783650029450655">
        <ele>507.23000000000002</ele>
        <time>2025-05-19T09:10:43Z</time>
      </trkpt>
      <trkpt lat="43.985368022695184" lon="7.783794030547142">
        <ele>508.67000000000002</ele>
        <time>2025-05-19T09:10:44Z</time>
      </trkpt>
      <trkpt lat="43.985400041565299" lon="7.783943982794881">
        <ele>510.60000000000002</ele>
        <time>2025-05-19T09:10:45Z</time>
      </trkpt>
      <trkpt lat="43.985463995486498" lon="7.784251011908054">
        <ele>513.48000000000002</ele>
        <time>2025-05-19T09:10:47Z</time>
      </trkpt>
      <trkpt lat="43.985496014356613" lon="7.784400964155793">
        <ele>514.91999999999996</ele>
        <time>2025-05-19T09:10:48Z</time>
      </trkpt>
      <trkpt lat="43.985558962449431" lon="7.784512024372816">
        <ele>516.37</ele>
        <time>2025-05-19T09:10:49Z</time>
      </trkpt>
      <trkpt lat="43.985643032938242" lon="7.784624006599188">
        <ele>517.80999999999995</ele>
        <time>2025-05-19T09:10:50Z</time>
      </trkpt>
      <trkpt lat="43.985730959102511" lon="7.784743029624224">
        <ele>519.25</ele>
        <time>2025-05-19T09:10:51Z</time>
      </trkpt>
      <trkpt lat="43.985823998227715" lon="7.784870015457273">
        <ele>520.69000000000005</ele>
        <time>2025-05-19T09:10:52Z</time>
      </trkpt>
      <trkpt lat="43.985918965190649" lon="7.784998007118702">
        <ele>522.13</ele>
        <time>2025-05-19T09:10:53Z</time>
      </trkpt>
      <trkpt lat="43.986106971278787" lon="7.78525298461318">
        <ele>525.5</ele>
        <time>2025-05-19T09:10:55Z</time>
      </trkpt>
      <trkpt lat="43.986191963776946" lon="7.785366978496313">
        <ele>526.94000000000005</ele>
        <time>2025-05-19T09:10:56Z</time>
      </trkpt>
      <trkpt lat="43.986249966546893" lon="7.785522965714335">
        <ele>528.38</ele>
        <time>2025-05-19T09:10:57Z</time>
      </trkpt>
      <trkpt lat="43.986274022608995" lon="7.785665960982442">
        <ele>529.82000000000005</ele>
        <time>2025-05-19T09:10:58Z</time>
      </trkpt>
      <trkpt lat="43.986297994852066" lon="7.785805016756058">
        <ele>531.26999999999998</ele>
        <time>2025-05-19T09:10:59Z</time>
      </trkpt>
      <trkpt lat="43.986322972923517" lon="7.785947006195784">
        <ele>532.71000000000004</ele>
        <time>2025-05-19T09:11:00Z</time>
      </trkpt>
      <trkpt lat="43.986346023157239" lon="7.786083966493607">
        <ele>534.63</ele>
        <time>2025-05-19T09:11:01Z</time>
      </trkpt>
      <trkpt lat="43.986354991793633" lon="7.786212963983417">
        <ele>536.07000000000005</ele>
        <time>2025-05-19T09:11:02Z</time>
      </trkpt>
      <trkpt lat="43.986337976530194" lon="7.786315977573395">
        <ele>537.50999999999999</ele>
        <time>2025-05-19T09:11:03Z</time>
      </trkpt>
      <trkpt lat="43.986320039257407" lon="7.786425026133657">
        <ele>538.96000000000004</ele>
        <time>2025-05-19T09:11:04Z</time>
      </trkpt>
      <trkpt lat="43.986299000680447" lon="7.786548994481564">
        <ele>539.91999999999996</ele>
        <time>2025-05-19T09:11:05Z</time>
      </trkpt>
      <trkpt lat="43.986277962103486" lon="7.786674974486232">
        <ele>541.36000000000001</ele>
        <time>2025-05-19T09:11:06Z</time>
      </trkpt>
      <trkpt lat="43.98630796931684" lon="7.786764996126294">
        <ele>542.32000000000005</ele>
        <time>2025-05-19T09:11:07Z</time>
      </trkpt>
      <trkpt lat="43.986353985965252" lon="7.786857029423118">
        <ele>543.27999999999997</ele>
        <time>2025-05-19T09:11:08Z</time>
      </trkpt>
      <trkpt lat="43.986420035362244" lon="7.786939004436135">
        <ele>544.24000000000001</ele>
        <time>2025-05-19T09:11:09Z</time>
      </trkpt>
      <trkpt lat="43.986473008990288" lon="7.787004970014095">
        <ele>544.72000000000003</ele>
        <time>2025-05-19T09:11:10Z</time>
      </trkpt>
      <trkpt lat="43.986511984840035" lon="7.787124998867512">
        <ele>545.69000000000005</ele>
        <time>2025-05-19T09:11:11Z</time>
      </trkpt>
      <trkpt lat="43.986503016203642" lon="7.787213008850813">
        <ele>546.16999999999996</ele>
        <time>2025-05-19T09:11:12Z</time>
      </trkpt>
      <trkpt lat="43.986441995948553" lon="7.787337983027101">
        <ele>547.13</ele>
        <time>2025-05-19T09:11:13Z</time>
      </trkpt>
      <trkpt lat="43.98637100122869" lon="7.787408977746964">
        <ele>547.61000000000001</ele>
        <time>2025-05-19T09:11:14Z</time>
      </trkpt>
      <trkpt lat="43.986293971538544" lon="7.78748600743711">
        <ele>548.09000000000003</ele>
        <time>2025-05-19T09:11:15Z</time>
      </trkpt>
      <trkpt lat="43.986227000132203" lon="7.787568988278508">
        <ele>549.04999999999995</ele>
        <time>2025-05-19T09:11:16Z</time>
      </trkpt>
      <trkpt lat="43.986189030110836" lon="7.787728998810053">
        <ele>550.00999999999999</ele>
        <time>2025-05-19T09:11:17Z</time>
      </trkpt>
      <trkpt lat="43.986128009855747" lon="7.78858202509582">
        <ele>553.38</ele>
        <time>2025-05-19T09:11:22Z</time>
      </trkpt>
      <trkpt lat="43.986115017905831" lon="7.788771959021688">
        <ele>553.86000000000001</ele>
        <time>2025-05-19T09:11:23Z</time>
      </trkpt>
      <trkpt lat="43.98609196767211" lon="7.788958037272096">
        <ele>554.82000000000005</ele>
        <time>2025-05-19T09:11:24Z</time>
      </trkpt>
      <trkpt lat="43.986037988215685" lon="7.789128022268415">
        <ele>555.29999999999995</ele>
        <time>2025-05-19T09:11:25Z</time>
      </trkpt>
      <trkpt lat="43.985987026244402" lon="7.789288032799959">
        <ele>556.25999999999999</ele>
        <time>2025-05-19T09:11:26Z</time>
      </trkpt>
      <trkpt lat="43.985943021252751" lon="7.789423987269402">
        <ele>556.74000000000001</ele>
        <time>2025-05-19T09:11:27Z</time>
      </trkpt>
      <trkpt lat="43.985929023474455" lon="7.789567988365889">
        <ele>557.70000000000005</ele>
        <time>2025-05-19T09:11:28Z</time>
      </trkpt>
      <trkpt lat="43.985923994332552" lon="7.789706960320473">
        <ele>558.17999999999995</ele>
        <time>2025-05-19T09:11:29Z</time>
      </trkpt>
      <trkpt lat="43.985912008211017" lon="7.790050031617284">
        <ele>559.62</ele>
        <time>2025-05-19T09:11:31Z</time>
      </trkpt>
      <trkpt lat="43.985882000997663" lon="7.79021599330008">
        <ele>560.11000000000001</ele>
        <time>2025-05-19T09:11:32Z</time>
      </trkpt>
      <trkpt lat="43.985846964642406" lon="7.790396036580205">
        <ele>560.59000000000003</ele>
        <time>2025-05-19T09:11:33Z</time>
      </trkpt>
      <trkpt lat="43.985846964642406" lon="7.790571972727776">
        <ele>561.07000000000005</ele>
        <time>2025-05-19T09:11:34Z</time>
      </trkpt>
      <trkpt lat="43.985846964642406" lon="7.7907520160079">
        <ele>561.54999999999995</ele>
        <time>2025-05-19T09:11:35Z</time>
      </trkpt>
      <trkpt lat="43.985846964642406" lon="7.791066002100706">
        <ele>562.50999999999999</ele>
        <time>2025-05-19T09:11:37Z</time>
      </trkpt>
      <trkpt lat="43.985777981579304" lon="7.791226012632251">
        <ele>562.99000000000001</ele>
        <time>2025-05-19T09:11:38Z</time>
      </trkpt>
      <trkpt lat="43.985722996294498" lon="7.791355010122061">
        <ele>563.95000000000005</ele>
        <time>2025-05-19T09:11:39Z</time>
      </trkpt>
      <trkpt lat="43.985669016838074" lon="7.791480990126729">
        <ele>564.90999999999997</ele>
        <time>2025-05-19T09:11:40Z</time>
      </trkpt>
      <trkpt lat="43.985620988532901" lon="7.79159196652472">
        <ele>565.38999999999999</ele>
        <time>2025-05-19T09:11:41Z</time>
      </trkpt>
      <trkpt lat="43.985588969662786" lon="7.791666984558106">
        <ele>565.87</ele>
        <time>2025-05-19T09:11:42Z</time>
      </trkpt>
      <trkpt lat="43.985615037381649" lon="7.79180302284658">
        <ele>566.35000000000002</ele>
        <time>2025-05-19T09:11:43Z</time>
      </trkpt>
      <trkpt lat="43.985630040988326" lon="7.791886003687978">
        <ele>567.32000000000005</ele>
        <time>2025-05-19T09:11:44Z</time>
      </trkpt>
      <trkpt lat="43.985641021281481" lon="7.791947023943067">
        <ele>567.32000000000005</ele>
        <time>2025-05-19T09:11:45Z</time>
      </trkpt>
      <trkpt lat="43.985687037929893" lon="7.791993962600827">
        <ele>567.79999999999995</ele>
        <time>2025-05-19T09:11:46Z</time>
      </trkpt>
      <trkpt lat="43.985734982416034" lon="7.791969990357757">
        <ele>567.79999999999995</ele>
        <time>2025-05-19T09:11:47Z</time>
      </trkpt>
      <trkpt lat="43.985771024599671" lon="7.791877035051584">
        <ele>567.79999999999995</ele>
        <time>2025-05-19T09:11:48Z</time>
      </trkpt>
      <trkpt lat="43.985804971307516" lon="7.791779972612858">
        <ele>568.27999999999997</ele>
        <time>2025-05-19T09:11:49Z</time>
      </trkpt>
      <trkpt lat="43.985847970470786" lon="7.791658015921712">
        <ele>568.27999999999997</ele>
        <time>2025-05-19T09:11:50Z</time>
      </trkpt>
      <trkpt lat="43.985912008211017" lon="7.791529018431902">
        <ele>568.27999999999997</ele>
        <time>2025-05-19T09:11:51Z</time>
      </trkpt>
      <trkpt lat="43.985988032072783" lon="7.791401026770473">
        <ele>568.75999999999999</ele>
        <time>2025-05-19T09:11:52Z</time>
      </trkpt>
      <trkpt lat="43.986571999266744" lon="7.790196966379881">
        <ele>577.40999999999997</ele>
        <time>2025-05-19T09:12:01Z</time>
      </trkpt>
      <trkpt lat="43.986630002036691" lon="7.790055982768536">
        <ele>578.85000000000002</ele>
        <time>2025-05-19T09:12:02Z</time>
      </trkpt>
      <trkpt lat="43.986686998978257" lon="7.789917010813952">
        <ele>579.80999999999995</ele>
        <time>2025-05-19T09:12:03Z</time>
      </trkpt>
      <trkpt lat="43.986731003969908" lon="7.789778038859367">
        <ele>580.76999999999998</ele>
        <time>2025-05-19T09:12:04Z</time>
      </trkpt>
      <trkpt lat="43.986749025061727" lon="7.789620961993933">
        <ele>581.25</ele>
        <time>2025-05-19T09:12:05Z</time>
      </trkpt>
      <trkpt lat="43.986766962334514" lon="7.789462963119149">
        <ele>581.73000000000002</ele>
        <time>2025-05-19T09:12:06Z</time>
      </trkpt>
      <trkpt lat="43.986782971769571" lon="7.789323991164565">
        <ele>582.22000000000003</ele>
        <time>2025-05-19T09:12:07Z</time>
      </trkpt>
      <trkpt lat="43.986795963719487" lon="7.789213014766574">
        <ele>583.17999999999995</ele>
        <time>2025-05-19T09:12:08Z</time>
      </trkpt>
      <trkpt lat="43.986807027831674" lon="7.789117963984609">
        <ele>583.65999999999997</ele>
        <time>2025-05-19T09:12:09Z</time>
      </trkpt>
      <trkpt lat="43.986847009509802" lon="7.789029031991959">
        <ele>584.13999999999999</ele>
        <time>2025-05-19T09:12:10Z</time>
      </trkpt>
      <trkpt lat="43.98688598535955" lon="7.788982009515166">
        <ele>584.62</ele>
        <time>2025-05-19T09:12:11Z</time>
      </trkpt>
      <trkpt lat="43.986947005614638" lon="7.788942027837038">
        <ele>585.10000000000002</ele>
        <time>2025-05-19T09:12:12Z</time>
      </trkpt>
      <trkpt lat="43.986962009221315" lon="7.788942027837038">
        <ele>585.58000000000004</ele>
        <time>2025-05-19T09:12:13Z</time>
      </trkpt>
      <trkpt lat="43.986962009221315" lon="7.788942027837038">
        <ele>586.05999999999995</ele>
        <time>2025-05-19T09:12:14Z</time>
      </trkpt>
      <trkpt lat="43.986962009221315" lon="7.788942027837038">
        <ele>586.05999999999995</ele>
        <time>2025-05-19T09:12:15Z</time>
      </trkpt>
      <trkpt lat="43.987048007547855" lon="7.789134979248047">
        <ele>586.05999999999995</ele>
        <time>2025-05-19T09:12:16Z</time>
      </trkpt>
      <trkpt lat="43.987048007547855" lon="7.789134979248047">
        <ele>586.05999999999995</ele>
        <time>2025-05-19T09:12:17Z</time>
      </trkpt>
      <trkpt lat="43.987078014761209" lon="7.789308987557888">
        <ele>585.10000000000002</ele>
        <time>2025-05-19T09:12:18Z</time>
      </trkpt>
      <trkpt lat="43.987111039459705" lon="7.789502022787929">
        <ele>583.65999999999997</ele>
        <time>2025-05-19T09:12:19Z</time>
      </trkpt>
      <trkpt lat="43.987226039171219" lon="7.790546994656324">
        <ele>582.22000000000003</ele>
        <time>2025-05-19T09:12:24Z</time>
      </trkpt>
      <trkpt lat="43.987004002556205" lon="7.79182699508965">
        <ele>583.65999999999997</ele>
        <time>2025-05-19T09:12:31Z</time>
      </trkpt>
      <trkpt lat="43.986924961209297" lon="7.792051965370774">
        <ele>585.10000000000002</ele>
        <time>2025-05-19T09:12:33Z</time>
      </trkpt>
      <trkpt lat="43.986898977309465" lon="7.79212698340416">
        <ele>585.58000000000004</ele>
        <time>2025-05-19T09:12:34Z</time>
      </trkpt>
      <trkpt lat="43.986811973154545" lon="7.792375003919005">
        <ele>585.58000000000004</ele>
        <time>2025-05-19T09:12:35Z</time>
      </trkpt>
      <trkpt lat="43.986812978982925" lon="7.792378021404147">
        <ele>585.58000000000004</ele>
        <time>2025-05-19T09:12:36Z</time>
      </trkpt>
      <trkpt lat="43.986825970932841" lon="7.792430995032191">
        <ele>585.58000000000004</ele>
        <time>2025-05-19T09:12:37Z</time>
      </trkpt>
      <trkpt lat="43.986940970644355" lon="7.792525039985776">
        <ele>586.05999999999995</ele>
        <time>2025-05-19T09:12:38Z</time>
      </trkpt>
      <trkpt lat="43.986940970644355" lon="7.792525039985776">
        <ele>586.05999999999995</ele>
        <time>2025-05-19T09:12:39Z</time>
      </trkpt>
      <trkpt lat="43.986988998949528" lon="7.792356982827187">
        <ele>586.53999999999996</ele>
        <time>2025-05-19T09:12:40Z</time>
      </trkpt>
      <trkpt lat="43.987055970355868" lon="7.792123965919018">
        <ele>586.05999999999995</ele>
        <time>2025-05-19T09:12:42Z</time>
      </trkpt>
      <trkpt lat="43.987197037786245" lon="7.791801011189818">
        <ele>585.58000000000004</ele>
        <time>2025-05-19T09:12:44Z</time>
      </trkpt>
      <trkpt lat="43.987482022494078" lon="7.791385017335415">
        <ele>586.53999999999996</ele>
        <time>2025-05-19T09:12:47Z</time>
      </trkpt>
      <trkpt lat="43.987670028582215" lon="7.791109001263976">
        <ele>587.98000000000002</ele>
        <time>2025-05-19T09:12:49Z</time>
      </trkpt>
      <trkpt lat="43.987719984725118" lon="7.790970029309392">
        <ele>588.95000000000005</ele>
        <time>2025-05-19T09:12:50Z</time>
      </trkpt>
      <trkpt lat="43.987778993323445" lon="7.790791997686029">
        <ele>589.90999999999997</ele>
        <time>2025-05-19T09:12:51Z</time>
      </trkpt>
      <trkpt lat="43.987819980829954" lon="7.79034398496151">
        <ele>593.75</ele>
        <time>2025-05-19T09:12:55Z</time>
      </trkpt>
      <trkpt lat="43.987825009971857" lon="7.790286988019943">
        <ele>594.23000000000002</ele>
        <time>2025-05-19T09:12:56Z</time>
      </trkpt>
      <trkpt lat="43.987842025235295" lon="7.790100993588567">
        <ele>594.71000000000004</ele>
        <time>2025-05-19T09:12:57Z</time>
      </trkpt>
      <trkpt lat="43.987842025235295" lon="7.790100993588567">
        <ele>595.19000000000005</ele>
        <time>2025-05-19T09:12:58Z</time>
      </trkpt>
      <trkpt lat="43.987842025235295" lon="7.790100993588567">
        <ele>595.66999999999996</ele>
        <time>2025-05-19T09:12:59Z</time>
      </trkpt>
      <trkpt lat="43.987885024398565" lon="7.790014995262027">
        <ele>598.55999999999995</ele>
        <time>2025-05-19T09:13:01Z</time>
      </trkpt>
      <trkpt lat="43.987949984148145" lon="7.790296040475369">
        <ele>600</ele>
        <time>2025-05-19T09:13:03Z</time>
      </trkpt>
      <trkpt lat="43.98791897110641" lon="7.79062301851809">
        <ele>600.96000000000004</ele>
        <time>2025-05-19T09:13:05Z</time>
      </trkpt>
      <trkpt lat="43.987908996641636" lon="7.790732989087701">
        <ele>601.44000000000005</ele>
        <time>2025-05-19T09:13:06Z</time>
      </trkpt>
      <trkpt lat="43.987902961671352" lon="7.790793003514409">
        <ele>601.91999999999996</ele>
        <time>2025-05-19T09:13:07Z</time>
      </trkpt>
      <trkpt lat="43.987902961671352" lon="7.790793003514409">
        <ele>603.36000000000001</ele>
        <time>2025-05-19T09:13:15Z</time>
      </trkpt>
      <trkpt lat="43.987902961671352" lon="7.790793003514409">
        <ele>612.01999999999998</ele>
        <time>2025-05-19T09:13:46Z</time>
      </trkpt>
      <trkpt lat="43.987879995256662" lon="7.791039012372494">
        <ele>614.89999999999998</ele>
        <time>2025-05-19T09:14:07Z</time>
      </trkpt>
      <trkpt lat="43.987861974164844" lon="7.791221989318728">
        <ele>624.02999999999997</ele>
        <time>2025-05-19T09:14:10Z</time>
      </trkpt>
      <trkpt lat="43.987854011356831" lon="7.791305975988507">
        <ele>626.44000000000005</ele>
        <time>2025-05-19T09:14:11Z</time>
      </trkpt>
      <trkpt lat="43.987842025235295" lon="7.791431033983827">
        <ele>627.39999999999998</ele>
        <time>2025-05-19T09:14:12Z</time>
      </trkpt>
      <trkpt lat="43.987807994708419" lon="7.791500017046928">
        <ele>627.88</ele>
        <time>2025-05-19T09:14:13Z</time>
      </trkpt>
      <trkpt lat="43.98776700720191" lon="7.791580986231566">
        <ele>628.36000000000001</ele>
        <time>2025-05-19T09:14:14Z</time>
      </trkpt>
      <trkpt lat="43.987530972808599" lon="7.792097982019186">
        <ele>631.72000000000003</ele>
        <time>2025-05-19T09:14:19Z</time>
      </trkpt>
      <trkpt lat="43.987366016954184" lon="7.792646996676922">
        <ele>636.52999999999997</ele>
        <time>2025-05-19T09:14:24Z</time>
      </trkpt>
      <trkpt lat="43.987324023619294" lon="7.792787980288267">
        <ele>638.45000000000005</ele>
        <time>2025-05-19T09:14:26Z</time>
      </trkpt>
      <trkpt lat="43.987306002527475" lon="7.792846988886595">
        <ele>639.40999999999997</ele>
        <time>2025-05-19T09:14:27Z</time>
      </trkpt>
      <trkpt lat="43.987321006134152" lon="7.792893005535007">
        <ele>640.86000000000001</ele>
        <time>2025-05-19T09:14:28Z</time>
      </trkpt>
      <trkpt lat="43.987349001690745" lon="7.792975986376405">
        <ele>641.82000000000005</ele>
        <time>2025-05-19T09:14:29Z</time>
      </trkpt>
      <trkpt lat="43.987349001690745" lon="7.792975986376405">
        <ele>642.77999999999997</ele>
        <time>2025-05-19T09:14:30Z</time>
      </trkpt>
      <trkpt lat="43.987367022782564" lon="7.792983027175069">
        <ele>643.74000000000001</ele>
        <time>2025-05-19T09:14:31Z</time>
      </trkpt>
      <trkpt lat="43.987367022782564" lon="7.792983027175069">
        <ele>645.65999999999997</ele>
        <time>2025-05-19T09:14:38Z</time>
      </trkpt>
      <trkpt lat="43.987456038594246" lon="7.793018985539675">
        <ele>647.10000000000002</ele>
        <time>2025-05-19T09:14:39Z</time>
      </trkpt>
      <trkpt lat="43.987464001402259" lon="7.793001970276237">
        <ele>648.07000000000005</ele>
        <time>2025-05-19T09:14:40Z</time>
      </trkpt>
      <trkpt lat="43.987493002787232" lon="7.79294497333467">
        <ele>649.02999999999997</ele>
        <time>2025-05-19T09:14:41Z</time>
      </trkpt>
      <trkpt lat="43.987519992515445" lon="7.792852018028498">
        <ele>649.50999999999999</ele>
        <time>2025-05-19T09:14:42Z</time>
      </trkpt>
      <trkpt lat="43.987519992515445" lon="7.792810024693608">
        <ele>650.47000000000003</ele>
        <time>2025-05-19T09:14:43Z</time>
      </trkpt>
      <trkpt lat="43.987519992515445" lon="7.792810024693608">
        <ele>651.42999999999995</ele>
        <time>2025-05-19T09:14:44Z</time>
      </trkpt>
      <trkpt lat="43.987480010837317" lon="7.792788986116648">
        <ele>653.83000000000004</ele>
        <time>2025-05-19T09:19:33Z</time>
      </trkpt>
      <trkpt lat="43.987508006393909" lon="7.792822010815144">
        <ele>661.51999999999998</ele>
        <time>2025-05-19T09:20:01Z</time>
      </trkpt>
      <trkpt lat="43.987519992515445" lon="7.792785968631506">
        <ele>661.03999999999996</ele>
        <time>2025-05-19T09:20:04Z</time>
      </trkpt>
      <trkpt lat="43.987519992515445" lon="7.792747998610139">
        <ele>661.03999999999996</ele>
        <time>2025-05-19T09:20:05Z</time>
      </trkpt>
      <trkpt lat="43.987519992515445" lon="7.792692007496953">
        <ele>661.03999999999996</ele>
        <time>2025-05-19T09:20:06Z</time>
      </trkpt>
      <trkpt lat="43.987610014155507" lon="7.792430995032191">
        <ele>661.03999999999996</ele>
        <time>2025-05-19T09:20:09Z</time>
      </trkpt>
      <trkpt lat="43.987651001662016" lon="7.792350025847554">
        <ele>661.51999999999998</ele>
        <time>2025-05-19T09:20:10Z</time>
      </trkpt>
      <trkpt lat="43.98774404078722" lon="7.792202001437545">
        <ele>662.97000000000003</ele>
        <time>2025-05-19T09:20:12Z</time>
      </trkpt>
      <trkpt lat="43.987802965566516" lon="7.792159002274275">
        <ele>663.92999999999995</ele>
        <time>2025-05-19T09:20:13Z</time>
      </trkpt>
      <trkpt lat="43.987933974713087" lon="7.79206202365458">
        <ele>665.37</ele>
        <time>2025-05-19T09:20:15Z</time>
      </trkpt>
      <trkpt lat="43.988081999123096" lon="7.791953980922699">
        <ele>666.80999999999995</ele>
        <time>2025-05-19T09:20:17Z</time>
      </trkpt>
      <trkpt lat="43.988204039633274" lon="7.791767986491323">
        <ele>668.25</ele>
        <time>2025-05-19T09:20:19Z</time>
      </trkpt>
      <trkpt lat="43.988263970240951" lon="7.791652986779809">
        <ele>668.73000000000002</ele>
        <time>2025-05-19T09:20:20Z</time>
      </trkpt>
      <trkpt lat="43.988388022407889" lon="7.791417958214879">
        <ele>670.65999999999997</ele>
        <time>2025-05-19T09:20:22Z</time>
      </trkpt>
      <trkpt lat="43.988448036834598" lon="7.791303964331746">
        <ele>671.62</ele>
        <time>2025-05-19T09:20:23Z</time>
      </trkpt>
      <trkpt lat="43.98873302154243" lon="7.790889982134104">
        <ele>676.41999999999996</ele>
        <time>2025-05-19T09:20:28Z</time>
      </trkpt>
      <trkpt lat="43.98875598795712" lon="7.79085997492075">
        <ele>677.38999999999999</ele>
        <time>2025-05-19T09:20:29Z</time>
      </trkpt>
      <trkpt lat="43.988767974078655" lon="7.790844971314073">
        <ele>678.35000000000002</ele>
        <time>2025-05-19T09:20:30Z</time>
      </trkpt>
      <trkpt lat="43.988790018483996" lon="7.790815969929099">
        <ele>684.60000000000002</ele>
        <time>2025-05-19T09:20:37Z</time>
      </trkpt>
      <trkpt lat="43.988808961585164" lon="7.790791997686029">
        <ele>685.08000000000004</ele>
        <time>2025-05-19T09:20:38Z</time>
      </trkpt>
      <trkpt lat="43.988895965740085" lon="7.790680015459657">
        <ele>688.44000000000005</ele>
        <time>2025-05-19T09:20:44Z</time>
      </trkpt>
      <trkpt lat="43.988895965740085" lon="7.790680015459657">
        <ele>687.48000000000002</ele>
        <time>2025-05-19T09:21:23Z</time>
      </trkpt>
      <trkpt lat="43.989052036777139" lon="7.790480023249984">
        <ele>687.96000000000004</ele>
        <time>2025-05-19T09:21:34Z</time>
      </trkpt>
      <trkpt lat="43.989231996238232" lon="7.790248012170196">
        <ele>688.91999999999996</ele>
        <time>2025-05-19T09:21:37Z</time>
      </trkpt>
      <trkpt lat="43.989291004836559" lon="7.790155978873372">
        <ele>689.88</ele>
        <time>2025-05-19T09:21:38Z</time>
      </trkpt>
      <trkpt lat="43.989370968192816" lon="7.78993796557188">
        <ele>690.84000000000003</ele>
        <time>2025-05-19T09:21:40Z</time>
      </trkpt>
      <trkpt lat="43.989412961527705" lon="7.789822965860367">
        <ele>691.33000000000004</ele>
        <time>2025-05-19T09:21:41Z</time>
      </trkpt>
      <trkpt lat="43.989453027024865" lon="7.789714001119137">
        <ele>692.28999999999996</ele>
        <time>2025-05-19T09:21:42Z</time>
      </trkpt>
      <trkpt lat="43.989713033661246" lon="7.789003970101476">
        <ele>696.61000000000001</ele>
        <time>2025-05-19T09:21:50Z</time>
      </trkpt>
      <trkpt lat="43.989733988419175" lon="7.788946973159909">
        <ele>697.57000000000005</ele>
        <time>2025-05-19T09:21:51Z</time>
      </trkpt>
      <trkpt lat="43.989748992025852" lon="7.78890497982502">
        <ele>698.04999999999995</ele>
        <time>2025-05-19T09:21:52Z</time>
      </trkpt>
      <trkpt lat="43.989773970097303" lon="7.788838008418679">
        <ele>700.46000000000004</ele>
        <time>2025-05-19T09:22:00Z</time>
      </trkpt>
      <trkpt lat="43.989972034469247" lon="7.788296034559608">
        <ele>702.38</ele>
        <time>2025-05-19T09:22:06Z</time>
      </trkpt>
      <trkpt lat="43.990116035565734" lon="7.787954974919558">
        <ele>703.34000000000003</ele>
        <time>2025-05-19T09:22:09Z</time>
      </trkpt>
      <trkpt lat="43.990247966721654" lon="7.787753976881504">
        <ele>704.29999999999995</ele>
        <time>2025-05-19T09:22:11Z</time>
      </trkpt>
      <trkpt lat="43.990318039432168" lon="7.787649035453796">
        <ele>705.25999999999999</ele>
        <time>2025-05-19T09:22:12Z</time>
      </trkpt>
      <trkpt lat="43.990697991102934" lon="7.786975968629122">
        <ele>710.54999999999995</ele>
        <time>2025-05-19T09:22:18Z</time>
      </trkpt>
      <trkpt lat="43.990781977772713" lon="7.786453021690249">
        <ele>714.88</ele>
        <time>2025-05-19T09:22:23Z</time>
      </trkpt>
      <trkpt lat="43.990834029391408" lon="7.786400970071554">
        <ele>715.84000000000003</ele>
        <time>2025-05-19T09:22:24Z</time>
      </trkpt>
      <trkpt lat="43.990859007462859" lon="7.786374986171722">
        <ele>716.32000000000005</ele>
        <time>2025-05-19T09:22:25Z</time>
      </trkpt>
      <trkpt lat="43.990876022726297" lon="7.786358976736665">
        <ele>717.27999999999997</ele>
        <time>2025-05-19T09:22:26Z</time>
      </trkpt>
      <trkpt lat="43.990924973040819" lon="7.786410022526979">
        <ele>717.75999999999999</ele>
        <time>2025-05-19T09:22:27Z</time>
      </trkpt>
      <trkpt lat="43.990932013839483" lon="7.786453021690249">
        <ele>718.24000000000001</ele>
        <time>2025-05-19T09:22:28Z</time>
      </trkpt>
      <trkpt lat="43.990874011069536" lon="7.786672962829471">
        <ele>720.15999999999997</ele>
        <time>2025-05-19T09:22:30Z</time>
      </trkpt>
      <trkpt lat="43.990803016349673" lon="7.787011004984379">
        <ele>721.61000000000001</ele>
        <time>2025-05-19T09:22:33Z</time>
      </trkpt>
      <trkpt lat="43.990781977772713" lon="7.787155006080866">
        <ele>722.09000000000003</ele>
        <time>2025-05-19T09:22:34Z</time>
      </trkpt>
      <trkpt lat="43.990761023014784" lon="7.787295989692211">
        <ele>722.57000000000005</ele>
        <time>2025-05-19T09:22:35Z</time>
      </trkpt>
      <trkpt lat="43.990740990266204" lon="7.787432027980685">
        <ele>723.52999999999997</ele>
        <time>2025-05-19T09:22:36Z</time>
      </trkpt>
      <trkpt lat="43.990720035508275" lon="7.787573011592031">
        <ele>724.00999999999999</ele>
        <time>2025-05-19T09:22:37Z</time>
      </trkpt>
      <trkpt lat="43.990700002759695" lon="7.787716006860137">
        <ele>724.97000000000003</ele>
        <time>2025-05-19T09:22:38Z</time>
      </trkpt>
      <trkpt lat="43.990714000537992" lon="7.787886997684836">
        <ele>726.40999999999997</ele>
        <time>2025-05-19T09:22:39Z</time>
      </trkpt>
      <trkpt lat="43.990733027458191" lon="7.788034016266465">
        <ele>727.37</ele>
        <time>2025-05-19T09:22:40Z</time>
      </trkpt>
      <trkpt lat="43.990750964730978" lon="7.788180029019713">
        <ele>728.34000000000003</ele>
        <time>2025-05-19T09:22:41Z</time>
      </trkpt>
      <trkpt lat="43.990768985822797" lon="7.78832302428782">
        <ele>729.29999999999995</ele>
        <time>2025-05-19T09:22:42Z</time>
      </trkpt>
      <trkpt lat="43.990762028843164" lon="7.788470964878798">
        <ele>730.25999999999999</ele>
        <time>2025-05-19T09:22:43Z</time>
      </trkpt>
      <trkpt lat="43.990708971396089" lon="7.788591999560595">
        <ele>731.22000000000003</ele>
        <time>2025-05-19T09:22:44Z</time>
      </trkpt>
      <trkpt lat="43.990655997768044" lon="7.78871102258563">
        <ele>732.17999999999995</ele>
        <time>2025-05-19T09:22:45Z</time>
      </trkpt>
      <trkpt lat="43.990604029968381" lon="7.788828033953905">
        <ele>733.62</ele>
        <time>2025-05-19T09:22:46Z</time>
      </trkpt>
      <trkpt lat="43.990554995834827" lon="7.788936998695135">
        <ele>734.58000000000004</ele>
        <time>2025-05-19T09:22:47Z</time>
      </trkpt>
      <trkpt lat="43.990523982793093" lon="7.789039006456733">
        <ele>735.07000000000005</ele>
        <time>2025-05-19T09:22:48Z</time>
      </trkpt>
      <trkpt lat="43.99051995947957" lon="7.789161968976259">
        <ele>736.02999999999997</ele>
        <time>2025-05-19T09:22:49Z</time>
      </trkpt>
      <trkpt lat="43.99051702581346" lon="7.789295995607972">
        <ele>736.99000000000001</ele>
        <time>2025-05-19T09:22:50Z</time>
      </trkpt>
      <trkpt lat="43.990513002499938" lon="7.789431028068066">
        <ele>737.47000000000003</ele>
        <time>2025-05-19T09:22:51Z</time>
      </trkpt>
      <trkpt lat="43.990505961701274" lon="7.789716012775898">
        <ele>738.90999999999997</ele>
        <time>2025-05-19T09:22:53Z</time>
      </trkpt>
      <trkpt lat="43.9904959872365" lon="7.789865965023637">
        <ele>739.87</ele>
        <time>2025-05-19T09:22:54Z</time>
      </trkpt>
      <trkpt lat="43.990451982244849" lon="7.790009966120124">
        <ele>740.35000000000002</ele>
        <time>2025-05-19T09:22:55Z</time>
      </trkpt>
      <trkpt lat="43.990404037758708" lon="7.790166037157178">
        <ele>741.30999999999995</ele>
        <time>2025-05-19T09:22:56Z</time>
      </trkpt>
      <trkpt lat="43.990353997796774" lon="7.790330993011594">
        <ele>741.78999999999996</ele>
        <time>2025-05-19T09:22:57Z</time>
      </trkpt>
      <trkpt lat="43.989881007000804" lon="7.791442014276981">
        <ele>750.92999999999995</ele>
        <time>2025-05-19T09:23:05Z</time>
      </trkpt>
      <trkpt lat="43.989844964817166" lon="7.791518960148096">
        <ele>751.88999999999999</ele>
        <time>2025-05-19T09:23:06Z</time>
      </trkpt>
      <trkpt lat="43.989821998402476" lon="7.791603030636907">
        <ele>753.80999999999995</ele>
        <time>2025-05-19T09:23:07Z</time>
      </trkpt>
      <trkpt lat="43.989837002009153" lon="7.791664972901344">
        <ele>755.25</ele>
        <time>2025-05-19T09:23:08Z</time>
      </trkpt>
      <trkpt lat="43.989906990900636" lon="7.791752982884646">
        <ele>756.69000000000005</ele>
        <time>2025-05-19T09:23:09Z</time>
      </trkpt>
      <trkpt lat="43.989977985620499" lon="7.791752982884646">
        <ele>758.13999999999999</ele>
        <time>2025-05-19T09:23:10Z</time>
      </trkpt>
      <trkpt lat="43.99006700143218" lon="7.791752982884646">
        <ele>759.10000000000002</ele>
        <time>2025-05-19T09:23:11Z</time>
      </trkpt>
      <trkpt lat="43.990137996152043" lon="7.791752982884646">
        <ele>760.05999999999995</ele>
        <time>2025-05-19T09:23:12Z</time>
      </trkpt>
      <trkpt lat="43.990248972550035" lon="7.791662039235234">
        <ele>761.5</ele>
        <time>2025-05-19T09:23:13Z</time>
      </trkpt>
      <trkpt lat="43.990332959219813" lon="7.79159196652472">
        <ele>762.46000000000004</ele>
        <time>2025-05-19T09:23:14Z</time>
      </trkpt>
      <trkpt lat="43.990420969203115" lon="7.791519965976477">
        <ele>763.89999999999998</ele>
        <time>2025-05-19T09:23:15Z</time>
      </trkpt>
      <trkpt lat="43.990503028035164" lon="7.791451988741756">
        <ele>765.83000000000004</ele>
        <time>2025-05-19T09:23:16Z</time>
      </trkpt>
      <trkpt lat="43.990578968077898" lon="7.791434973478317">
        <ele>767.26999999999998</ele>
        <time>2025-05-19T09:23:17Z</time>
      </trkpt>
      <trkpt lat="43.990684999153018" lon="7.791411001235247">
        <ele>769.19000000000005</ele>
        <time>2025-05-19T09:23:18Z</time>
      </trkpt>
      <trkpt lat="43.990782983601093" lon="7.791388034820557">
        <ele>770.63</ele>
        <time>2025-05-19T09:23:19Z</time>
      </trkpt>
      <trkpt lat="43.990893037989736" lon="7.791388034820557">
        <ele>772.55999999999995</ele>
        <time>2025-05-19T09:23:20Z</time>
      </trkpt>
      <trkpt lat="43.991009965538979" lon="7.791388034820557">
        <ele>774</ele>
        <time>2025-05-19T09:23:21Z</time>
      </trkpt>
      <trkpt lat="43.991132006049156" lon="7.791388034820557">
        <ele>775.44000000000005</ele>
        <time>2025-05-19T09:23:22Z</time>
      </trkpt>
      <trkpt lat="43.991250023245811" lon="7.791388034820557">
        <ele>777.36000000000001</ele>
        <time>2025-05-19T09:23:23Z</time>
      </trkpt>
      <trkpt lat="43.991894004866481" lon="7.791434973478317">
        <ele>785.04999999999995</ele>
        <time>2025-05-19T09:23:29Z</time>
      </trkpt>
      <trkpt lat="43.991961982101202" lon="7.791474033147097">
        <ele>786.01999999999998</ele>
        <time>2025-05-19T09:23:30Z</time>
      </trkpt>
      <trkpt lat="43.992012022063136" lon="7.791604036465287">
        <ele>786.98000000000002</ele>
        <time>2025-05-19T09:23:31Z</time>
      </trkpt>
      <trkpt lat="43.992058038711548" lon="7.791723981499672">
        <ele>787.94000000000005</ele>
        <time>2025-05-19T09:23:32Z</time>
      </trkpt>
      <trkpt lat="43.99210698902607" lon="7.791852978989482">
        <ele>788.89999999999998</ele>
        <time>2025-05-19T09:23:33Z</time>
      </trkpt>
      <trkpt lat="43.992158034816384" lon="7.791987005621195">
        <ele>789.86000000000001</ele>
        <time>2025-05-19T09:23:34Z</time>
      </trkpt>
      <trkpt lat="43.992207990959287" lon="7.792116003111005">
        <ele>790.82000000000005</ele>
        <time>2025-05-19T09:23:35Z</time>
      </trkpt>
      <trkpt lat="43.992243027314544" lon="7.792245000600815">
        <ele>792.25999999999999</ele>
        <time>2025-05-19T09:23:36Z</time>
      </trkpt>
      <trkpt lat="43.992251995950937" lon="7.792389001697302">
        <ele>793.71000000000004</ele>
        <time>2025-05-19T09:23:37Z</time>
      </trkpt>
      <trkpt lat="43.99225995875895" lon="7.792528979480267">
        <ele>794.66999999999996</ele>
        <time>2025-05-19T09:23:38Z</time>
      </trkpt>
      <trkpt lat="43.992242021486163" lon="7.792646996676922">
        <ele>795.63</ele>
        <time>2025-05-19T09:23:39Z</time>
      </trkpt>
      <trkpt lat="43.992211008444428" lon="7.792761996388435">
        <ele>797.07000000000005</ele>
        <time>2025-05-19T09:23:40Z</time>
      </trkpt>
      <trkpt lat="43.992176977917552" lon="7.79296400025487">
        <ele>798.50999999999999</ele>
        <time>2025-05-19T09:23:42Z</time>
      </trkpt>
      <trkpt lat="43.992176977917552" lon="7.793104983866215">
        <ele>798.99000000000001</ele>
        <time>2025-05-19T09:23:43Z</time>
      </trkpt>
      <trkpt lat="43.992206985130906" lon="7.793152006343007">
        <ele>798.99000000000001</ele>
        <time>2025-05-19T09:23:44Z</time>
      </trkpt>
      <trkpt lat="43.992264987900853" lon="7.793241022154689">
        <ele>798.99000000000001</ele>
        <time>2025-05-19T09:23:45Z</time>
      </trkpt>
      <trkpt lat="43.992332965135574" lon="7.793345041573048">
        <ele>798.99000000000001</ele>
        <time>2025-05-19T09:23:46Z</time>
      </trkpt>
      <trkpt lat="43.992467997595668" lon="7.793554002419114">
        <ele>798.99000000000001</ele>
        <time>2025-05-19T09:23:48Z</time>
      </trkpt>
      <trkpt lat="43.992541003972292" lon="7.793665984645486">
        <ele>799.47000000000003</ele>
        <time>2025-05-19T09:23:49Z</time>
      </trkpt>
      <trkpt lat="43.992734039202332" lon="7.793963039293885">
        <ele>800.44000000000005</ele>
        <time>2025-05-19T09:23:52Z</time>
      </trkpt>
      <trkpt lat="43.992820037528872" lon="7.794029004871845">
        <ele>800.91999999999996</ele>
        <time>2025-05-19T09:23:53Z</time>
      </trkpt>
      <trkpt lat="43.992907963693142" lon="7.794095976278186">
        <ele>800.91999999999996</ele>
        <time>2025-05-19T09:23:54Z</time>
      </trkpt>
      <trkpt lat="43.993012988939881" lon="7.794178035110235">
        <ele>800.91999999999996</ele>
        <time>2025-05-19T09:23:55Z</time>
      </trkpt>
      <trkpt lat="43.993090018630028" lon="7.794198989868164">
        <ele>801.39999999999998</ele>
        <time>2025-05-19T09:23:56Z</time>
      </trkpt>
      <trkpt lat="43.993193032220006" lon="7.794228997081518">
        <ele>801.39999999999998</ele>
        <time>2025-05-19T09:23:57Z</time>
      </trkpt>
      <trkpt lat="43.993307026103139" lon="7.794261015951634">
        <ele>801.39999999999998</ele>
        <time>2025-05-19T09:23:58Z</time>
      </trkpt>
      <trkpt lat="43.993421019986272" lon="7.794294040650129">
        <ele>801.88</ele>
        <time>2025-05-19T09:23:59Z</time>
      </trkpt>
      <trkpt lat="43.993516992777586" lon="7.794321030378342">
        <ele>801.88</ele>
        <time>2025-05-19T09:24:00Z</time>
      </trkpt>
      <trkpt lat="43.993595028296113" lon="7.794343996793032">
        <ele>802.36000000000001</ele>
        <time>2025-05-19T09:24:01Z</time>
      </trkpt>
      <trkpt lat="43.993619000539184" lon="7.794362017884851">
        <ele>802.36000000000001</ele>
        <time>2025-05-19T09:24:02Z</time>
      </trkpt>
      <trkpt lat="43.993650013580918" lon="7.794452961534262">
        <ele>802.84000000000003</ele>
        <time>2025-05-19T09:24:03Z</time>
      </trkpt>
      <trkpt lat="43.993684966117144" lon="7.79455304145813">
        <ele>802.84000000000003</ele>
        <time>2025-05-19T09:24:04Z</time>
      </trkpt>
      <trkpt lat="43.993720002472401" lon="7.794656977057457">
        <ele>803.32000000000005</ele>
        <time>2025-05-19T09:24:05Z</time>
      </trkpt>
      <trkpt lat="43.993795020505786" lon="7.794873984530568">
        <ele>804.27999999999997</ele>
        <time>2025-05-19T09:24:07Z</time>
      </trkpt>
      <trkpt lat="43.993835002183914" lon="7.794982027262449">
        <ele>804.75999999999999</ele>
        <time>2025-05-19T09:24:08Z</time>
      </trkpt>
      <trkpt lat="43.993884036317468" lon="7.795059978961945">
        <ele>805.24000000000001</ele>
        <time>2025-05-19T09:24:09Z</time>
      </trkpt>
      <trkpt lat="43.993942039087415" lon="7.795142959803343">
        <ele>805.72000000000003</ele>
        <time>2025-05-19T09:24:10Z</time>
      </trkpt>
      <trkpt lat="43.994014039635658" lon="7.795146983116865">
        <ele>806.20000000000005</ele>
        <time>2025-05-19T09:24:11Z</time>
      </trkpt>
      <trkpt lat="43.994095008820295" lon="7.795151006430388">
        <ele>806.67999999999995</ele>
        <time>2025-05-19T09:24:12Z</time>
      </trkpt>
      <trkpt lat="43.994465991854668" lon="7.795181013643742">
        <ele>808.13</ele>
        <time>2025-05-19T09:24:16Z</time>
      </trkpt>
      <trkpt lat="43.994566993787885" lon="7.795201968401671">
        <ele>808.61000000000001</ele>
        <time>2025-05-19T09:24:17Z</time>
      </trkpt>
      <trkpt lat="43.994792969897389" lon="7.795248990878463">
        <ele>809.57000000000005</ele>
        <time>2025-05-19T09:24:19Z</time>
      </trkpt>
      <trkpt lat="43.994902018457651" lon="7.795272041112185">
        <ele>810.04999999999995</ele>
        <time>2025-05-19T09:24:20Z</time>
      </trkpt>
      <trkpt lat="43.995000002905726" lon="7.795358039438725">
        <ele>810.52999999999997</ele>
        <time>2025-05-19T09:24:21Z</time>
      </trkpt>
      <trkpt lat="43.99517803452909" lon="7.795514026656747">
        <ele>811.49000000000001</ele>
        <time>2025-05-19T09:24:23Z</time>
      </trkpt>
      <trkpt lat="43.995242994278669" lon="7.795570017769933">
        <ele>811.49000000000001</ele>
        <time>2025-05-19T09:24:24Z</time>
      </trkpt>
      <trkpt lat="43.995299991220236" lon="7.795590972527862">
        <ele>811.49000000000001</ele>
        <time>2025-05-19T09:24:25Z</time>
      </trkpt>
      <trkpt lat="43.995377020910382" lon="7.795614022761583">
        <ele>811.97000000000003</ele>
        <time>2025-05-19T09:24:26Z</time>
      </trkpt>
      <trkpt lat="43.995503000915051" lon="7.795550990849733">
        <ele>811.97000000000003</ele>
        <time>2025-05-19T09:24:27Z</time>
      </trkpt>
      <trkpt lat="43.995549017563462" lon="7.795496005564928">
        <ele>811.97000000000003</ele>
        <time>2025-05-19T09:24:28Z</time>
      </trkpt>
      <trkpt lat="43.99563199840486" lon="7.795398021116853">
        <ele>811.97000000000003</ele>
        <time>2025-05-19T09:24:29Z</time>
      </trkpt>
      <trkpt lat="43.995739035308361" lon="7.795272041112185">
        <ele>811.97000000000003</ele>
        <time>2025-05-19T09:24:30Z</time>
      </trkpt>
      <trkpt lat="43.995826961472631" lon="7.795219989493489">
        <ele>811.97000000000003</ele>
        <time>2025-05-19T09:24:31Z</time>
      </trkpt>
      <trkpt lat="43.995935004204512" lon="7.795157041400671">
        <ele>812.45000000000005</ele>
        <time>2025-05-19T09:24:32Z</time>
      </trkpt>
      <trkpt lat="43.996596001088619" lon="7.794768959283829">
        <ele>812.92999999999995</ele>
        <time>2025-05-19T09:24:38Z</time>
      </trkpt>
      <trkpt lat="43.997029010206461" lon="7.794653037562966">
        <ele>813.40999999999997</ele>
        <time>2025-05-19T09:24:42Z</time>
      </trkpt>
      <trkpt lat="43.997364034876227" lon="7.794567961245775">
        <ele>813.40999999999997</ele>
        <time>2025-05-19T09:24:45Z</time>
      </trkpt>
      <trkpt lat="43.997532008215785" lon="7.794521022588015">
        <ele>813.40999999999997</ele>
        <time>2025-05-19T09:24:47Z</time>
      </trkpt>
      <trkpt lat="43.997617000713944" lon="7.794521022588015">
        <ele>813.40999999999997</ele>
        <time>2025-05-19T09:24:48Z</time>
      </trkpt>
      <trkpt lat="43.997699981555343" lon="7.794521022588015">
        <ele>813.40999999999997</ele>
        <time>2025-05-19T09:24:49Z</time>
      </trkpt>
      <trkpt lat="43.997781034559011" lon="7.794521022588015">
        <ele>812.92999999999995</ele>
        <time>2025-05-19T09:24:50Z</time>
      </trkpt>
      <trkpt lat="43.997860997915268" lon="7.794509958475828">
        <ele>812.92999999999995</ele>
        <time>2025-05-19T09:24:51Z</time>
      </trkpt>
      <trkpt lat="43.997939033433795" lon="7.794468970969319">
        <ele>812.45000000000005</ele>
        <time>2025-05-19T09:24:52Z</time>
      </trkpt>
      <trkpt lat="43.998025031760335" lon="7.794422032311559">
        <ele>812.45000000000005</ele>
        <time>2025-05-19T09:24:53Z</time>
      </trkpt>
      <trkpt lat="43.998119998723269" lon="7.794370986521244">
        <ele>811.97000000000003</ele>
        <time>2025-05-19T09:24:54Z</time>
      </trkpt>
      <trkpt lat="43.998217983171344" lon="7.794380038976669">
        <ele>811.97000000000003</ele>
        <time>2025-05-19T09:24:55Z</time>
      </trkpt>
      <trkpt lat="43.998328037559986" lon="7.794390013441443">
        <ele>811.49000000000001</ele>
        <time>2025-05-19T09:24:56Z</time>
      </trkpt>
      <trkpt lat="43.998430967330933" lon="7.794398982077837">
        <ele>811.00999999999999</ele>
        <time>2025-05-19T09:24:57Z</time>
      </trkpt>
      <trkpt lat="43.998519983142614" lon="7.794407028704882">
        <ele>810.52999999999997</ele>
        <time>2025-05-19T09:24:58Z</time>
      </trkpt>
      <trkpt lat="43.998624002560973" lon="7.794394958764315">
        <ele>810.52999999999997</ele>
        <time>2025-05-19T09:24:59Z</time>
      </trkpt>
      <trkpt lat="43.998705977573991" lon="7.794349025934935">
        <ele>810.52999999999997</ele>
        <time>2025-05-19T09:25:00Z</time>
      </trkpt>
      <trkpt lat="43.998964978381991" lon="7.794241989031434">
        <ele>810.52999999999997</ele>
        <time>2025-05-19T09:25:03Z</time>
      </trkpt>
      <trkpt lat="43.999021975323558" lon="7.794241989031434">
        <ele>810.52999999999997</ele>
        <time>2025-05-19T09:25:04Z</time>
      </trkpt>
      <trkpt lat="43.999397987499833" lon="7.794454973191023">
        <ele>811.00999999999999</ele>
        <time>2025-05-19T09:25:08Z</time>
      </trkpt>
      <trkpt lat="43.999426988884807" lon="7.794478023424745">
        <ele>811.00999999999999</ele>
        <time>2025-05-19T09:25:09Z</time>
      </trkpt>
      <trkpt lat="43.99949898943305" lon="7.794556980952621">
        <ele>812.45000000000005</ele>
        <time>2025-05-19T09:25:10Z</time>
      </trkpt>
      <trkpt lat="43.999671991914511" lon="7.794711962342262">
        <ele>813.40999999999997</ele>
        <time>2025-05-19T09:25:12Z</time>
      </trkpt>
      <trkpt lat="43.999757990241051" lon="7.794744987040758">
        <ele>814.37</ele>
        <time>2025-05-19T09:25:13Z</time>
      </trkpt>
      <trkpt lat="43.999850023537874" lon="7.794780023396015">
        <ele>815.34000000000003</ele>
        <time>2025-05-19T09:25:14Z</time>
      </trkpt>
      <trkpt lat="43.999962005764246" lon="7.794799972325563">
        <ele>815.82000000000005</ele>
        <time>2025-05-19T09:25:15Z</time>
      </trkpt>
      <trkpt lat="44.00005797855556" lon="7.794799972325563">
        <ele>816.77999999999997</ele>
        <time>2025-05-19T09:25:16Z</time>
      </trkpt>
      <trkpt lat="44.000150011852384" lon="7.794799972325563">
        <ele>818.22000000000003</ele>
        <time>2025-05-19T09:25:17Z</time>
      </trkpt>
      <trkpt lat="44.00022896938026" lon="7.794816987589002">
        <ele>819.17999999999995</ele>
        <time>2025-05-19T09:25:18Z</time>
      </trkpt>
      <trkpt lat="44.000316979363561" lon="7.794850012287498">
        <ele>820.13999999999999</ele>
        <time>2025-05-19T09:25:19Z</time>
      </trkpt>
      <trkpt lat="44.000480007380247" lon="7.794949002563953">
        <ele>822.05999999999995</ele>
        <time>2025-05-19T09:25:21Z</time>
      </trkpt>
      <trkpt lat="44.000564999878407" lon="7.795033995062113">
        <ele>823.50999999999999</ele>
        <time>2025-05-19T09:25:22Z</time>
      </trkpt>
      <trkpt lat="44.000746970996261" lon="7.795215966179967">
        <ele>826.38999999999999</ele>
        <time>2025-05-19T09:25:24Z</time>
      </trkpt>
      <trkpt lat="44.000886026769876" lon="7.795388968661428">
        <ele>828.30999999999995</ele>
        <time>2025-05-19T09:25:26Z</time>
      </trkpt>
      <trkpt lat="44.000946963205934" lon="7.795502040535212">
        <ele>830.24000000000001</ele>
        <time>2025-05-19T09:25:27Z</time>
      </trkpt>
      <trkpt lat="44.001062968745828" lon="7.795713013038039">
        <ele>833.60000000000002</ele>
        <time>2025-05-19T09:25:29Z</time>
      </trkpt>
      <trkpt lat="44.001138992607594" lon="7.795814014971256">
        <ele>835.03999999999996</ele>
        <time>2025-05-19T09:25:30Z</time>
      </trkpt>
      <trkpt lat="44.001189032569528" lon="7.795850979164243">
        <ele>835.51999999999998</ele>
        <time>2025-05-19T09:25:31Z</time>
      </trkpt>
      <trkpt lat="44.001315012574196" lon="7.795960027724505">
        <ele>836</ele>
        <time>2025-05-19T09:25:32Z</time>
      </trkpt>
      <trkpt lat="44.001415008679032" lon="7.796047031879425">
        <ele>836.96000000000004</ele>
        <time>2025-05-19T09:25:33Z</time>
      </trkpt>
      <trkpt lat="44.001510981470346" lon="7.796130012720823">
        <ele>837.45000000000005</ele>
        <time>2025-05-19T09:25:34Z</time>
      </trkpt>
      <trkpt lat="44.001587005332112" lon="7.796264039352536">
        <ele>838.40999999999997</ele>
        <time>2025-05-19T09:25:35Z</time>
      </trkpt>
      <trkpt lat="44.001664035022259" lon="7.796397982165217">
        <ele>839.37</ele>
        <time>2025-05-19T09:25:36Z</time>
      </trkpt>
      <trkpt lat="44.001739975064993" lon="7.79653200879693">
        <ele>840.33000000000004</ele>
        <time>2025-05-19T09:25:37Z</time>
      </trkpt>
      <trkpt lat="44.001802001148462" lon="7.796665029600263">
        <ele>841.76999999999998</ele>
        <time>2025-05-19T09:25:38Z</time>
      </trkpt>
      <trkpt lat="44.001853968948126" lon="7.796796960756183">
        <ele>842.73000000000002</ele>
        <time>2025-05-19T09:25:39Z</time>
      </trkpt>
      <trkpt lat="44.001903003081679" lon="7.79691799543798">
        <ele>843.69000000000005</ele>
        <time>2025-05-19T09:25:40Z</time>
      </trkpt>
      <trkpt lat="44.001942984759808" lon="7.797036012634635">
        <ele>845.13999999999999</ele>
        <time>2025-05-19T09:25:41Z</time>
      </trkpt>
      <trkpt lat="44.001962011680007" lon="7.797185964882374">
        <ele>847.05999999999995</ele>
        <time>2025-05-19T09:25:42Z</time>
      </trkpt>
      <trkpt lat="44.001981038600206" lon="7.797337006777525">
        <ele>848.98000000000002</ele>
        <time>2025-05-19T09:25:43Z</time>
      </trkpt>
      <trkpt lat="44.001997970044613" lon="7.797473967075348">
        <ele>850.89999999999998</ele>
        <time>2025-05-19T09:25:44Z</time>
      </trkpt>
      <trkpt lat="44.002011967822909" lon="7.797589972615242">
        <ele>852.83000000000004</ele>
        <time>2025-05-19T09:25:45Z</time>
      </trkpt>
      <trkpt lat="44.002024959772825" lon="7.797690974548459">
        <ele>854.26999999999998</ele>
        <time>2025-05-19T09:25:46Z</time>
      </trkpt>
      <trkpt lat="44.002025965601206" lon="7.797697009518743">
        <ele>855.71000000000004</ele>
        <time>2025-05-19T09:25:47Z</time>
      </trkpt>
      <trkpt lat="44.002078017219901" lon="7.797775967046619">
        <ele>856.66999999999996</ele>
        <time>2025-05-19T09:25:48Z</time>
      </trkpt>
      <trkpt lat="44.002105006948113" lon="7.797815026715398">
        <ele>857.14999999999998</ele>
        <time>2025-05-19T09:25:49Z</time>
      </trkpt>
      <trkpt lat="44.002130990847945" lon="7.797854002565146">
        <ele>857.63</ele>
        <time>2025-05-19T09:25:50Z</time>
      </trkpt>
      <trkpt lat="44.002154041081667" lon="7.797889960929751">
        <ele>858.11000000000001</ele>
        <time>2025-05-19T09:25:51Z</time>
      </trkpt>
      <trkpt lat="44.002160998061299" lon="7.797894990071654">
        <ele>858.11000000000001</ele>
        <time>2025-05-19T09:25:52Z</time>
      </trkpt>
      <trkpt lat="44.002185976132751" lon="7.797917034476996">
        <ele>858.11000000000001</ele>
        <time>2025-05-19T09:25:53Z</time>
      </trkpt>
      <trkpt lat="44.002202991396189" lon="7.797932038083673">
        <ele>858.11000000000001</ele>
        <time>2025-05-19T09:25:54Z</time>
      </trkpt>
      <trkpt lat="44.002202991396189" lon="7.797932038083673">
        <ele>858.11000000000001</ele>
        <time>2025-05-19T09:26:10Z</time>
      </trkpt>
      <trkpt lat="44.002240961417556" lon="7.797963973134756">
        <ele>858.59000000000003</ele>
        <time>2025-05-19T09:26:11Z</time>
      </trkpt>
      <trkpt lat="44.002281026914716" lon="7.797998003661633">
        <ele>858.59000000000003</ele>
        <time>2025-05-19T09:26:12Z</time>
      </trkpt>
      <trkpt lat="44.002329977229238" lon="7.798039996996522">
        <ele>858.59000000000003</ele>
        <time>2025-05-19T09:26:13Z</time>
      </trkpt>
      <trkpt lat="44.002455035224557" lon="7.798147033900023">
        <ele>858.59000000000003</ele>
        <time>2025-05-19T09:26:14Z</time>
      </trkpt>
      <trkpt lat="44.002478001639247" lon="7.798226997256279">
        <ele>858.59000000000003</ele>
        <time>2025-05-19T09:26:15Z</time>
      </trkpt>
      <trkpt lat="44.002514965832233" lon="7.798360018059611">
        <ele>858.11000000000001</ele>
        <time>2025-05-19T09:26:16Z</time>
      </trkpt>
      <trkpt lat="44.002558970823884" lon="7.79848599806428">
        <ele>858.11000000000001</ele>
        <time>2025-05-19T09:26:17Z</time>
      </trkpt>
      <trkpt lat="44.002623008564115" lon="7.798621030524373">
        <ele>858.59000000000003</ele>
        <time>2025-05-19T09:26:18Z</time>
      </trkpt>
      <trkpt lat="44.002734990790486" lon="7.798861004412174">
        <ele>860.03999999999996</ele>
        <time>2025-05-19T09:26:20Z</time>
      </trkpt>
      <trkpt lat="44.002756029367447" lon="7.798967035487294">
        <ele>860.51999999999998</ele>
        <time>2025-05-19T09:26:21Z</time>
      </trkpt>
      <trkpt lat="44.002773966640234" lon="7.799055967479944">
        <ele>860.51999999999998</ele>
        <time>2025-05-19T09:26:22Z</time>
      </trkpt>
      <trkpt lat="44.002788970246911" lon="7.799129979684949">
        <ele>860.51999999999998</ele>
        <time>2025-05-19T09:26:23Z</time>
      </trkpt>
      <trkpt lat="44.002811014652252" lon="7.799177002161741">
        <ele>860.51999999999998</ele>
        <time>2025-05-19T09:26:24Z</time>
      </trkpt>
      <trkpt lat="44.002842027693987" lon="7.799177002161741">
        <ele>861.48000000000002</ele>
        <time>2025-05-19T09:26:25Z</time>
      </trkpt>
      <trkpt lat="44.00289399549365" lon="7.799156969413161">
        <ele>861.48000000000002</ele>
        <time>2025-05-19T09:26:26Z</time>
      </trkpt>
      <trkpt lat="44.002915034070611" lon="7.799054039642215">
        <ele>860.51999999999998</ele>
        <time>2025-05-19T09:26:27Z</time>
      </trkpt>
      <trkpt lat="44.002898018807173" lon="7.798997964709997">
        <ele>860.03999999999996</ele>
        <time>2025-05-19T09:26:28Z</time>
      </trkpt>
      <trkpt lat="44.002875974401832" lon="7.798928981646895">
        <ele>859.55999999999995</ele>
        <time>2025-05-19T09:26:29Z</time>
      </trkpt>
      <trkpt lat="44.002852002158761" lon="7.798852035775781">
        <ele>859.08000000000004</ele>
        <time>2025-05-19T09:26:30Z</time>
      </trkpt>
      <trkpt lat="44.002708001062274" lon="7.798523968085647">
        <ele>857.14999999999998</ele>
        <time>2025-05-19T09:26:33Z</time>
      </trkpt>
      <trkpt lat="44.002584032714367" lon="7.798276031389833">
        <ele>854.26999999999998</ele>
        <time>2025-05-19T09:26:36Z</time>
      </trkpt>
      <trkpt lat="44.002531981095672" lon="7.797987023368478">
        <ele>853.78999999999996</ele>
        <time>2025-05-19T09:26:37Z</time>
      </trkpt>
      <trkpt lat="44.002460986375809" lon="7.797894990071654">
        <ele>853.78999999999996</ele>
        <time>2025-05-19T09:26:38Z</time>
      </trkpt>
      <trkpt lat="44.002393009141088" lon="7.797807985916734">
        <ele>854.26999999999998</ele>
        <time>2025-05-19T09:26:39Z</time>
      </trkpt>
      <trkpt lat="44.002327965572476" lon="7.797725005075336">
        <ele>854.26999999999998</ele>
        <time>2025-05-19T09:26:40Z</time>
      </trkpt>
      <trkpt lat="44.00226904079318" lon="7.79764998704195">
        <ele>853.78999999999996</ele>
        <time>2025-05-19T09:26:41Z</time>
      </trkpt>
      <trkpt lat="44.002154041081667" lon="7.797503974288702">
        <ele>853.78999999999996</ele>
        <time>2025-05-19T09:26:42Z</time>
      </trkpt>
      <trkpt lat="44.002154041081667" lon="7.797440020367503">
        <ele>853.30999999999995</ele>
        <time>2025-05-19T09:26:43Z</time>
      </trkpt>
      <trkpt lat="44.002154041081667" lon="7.797317979857326">
        <ele>855.23000000000002</ele>
        <time>2025-05-19T09:26:44Z</time>
      </trkpt>
      <trkpt lat="44.002096960321069" lon="7.796888994053006">
        <ele>859.08000000000004</ele>
        <time>2025-05-19T09:26:47Z</time>
      </trkpt>
      <trkpt lat="44.002070976421237" lon="7.796784974634647">
        <ele>860.51999999999998</ele>
        <time>2025-05-19T09:26:48Z</time>
      </trkpt>
      <trkpt lat="44.002039963379502" lon="7.796658994629979">
        <ele>863.39999999999998</ele>
        <time>2025-05-19T09:26:50Z</time>
      </trkpt>
      <trkpt lat="44.002028983086348" lon="7.796615995466709">
        <ele>865.32000000000005</ele>
        <time>2025-05-19T09:26:51Z</time>
      </trkpt>
      <trkpt lat="44.002000987529755" lon="7.796503007411957">
        <ele>866.28999999999996</ele>
        <time>2025-05-19T09:26:53Z</time>
      </trkpt>
      <trkpt lat="44.00201003998518" lon="7.796396976336837">
        <ele>867.73000000000002</ele>
        <time>2025-05-19T09:26:55Z</time>
      </trkpt>
      <trkpt lat="44.001998975872993" lon="7.796409968286753">
        <ele>868.69000000000005</ele>
        <time>2025-05-19T09:26:56Z</time>
      </trkpt>
      <trkpt lat="44.002013979479671" lon="7.79655396938324">
        <ele>870.61000000000001</ele>
        <time>2025-05-19T09:26:57Z</time>
      </trkpt>
      <trkpt lat="44.002047004178166" lon="7.796687996014953">
        <ele>872.52999999999997</ele>
        <time>2025-05-19T09:26:58Z</time>
      </trkpt>
      <trkpt lat="44.002154041081667" lon="7.79726299457252">
        <ele>876.86000000000001</ele>
        <time>2025-05-19T09:27:02Z</time>
      </trkpt>
      <trkpt lat="44.002154041081667" lon="7.797503974288702">
        <ele>877.82000000000005</ele>
        <time>2025-05-19T09:27:03Z</time>
      </trkpt>
      <trkpt lat="44.002200979739428" lon="7.79756298288703">
        <ele>878.77999999999997</ele>
        <time>2025-05-19T09:27:04Z</time>
      </trkpt>
      <trkpt lat="44.002255965024233" lon="7.797633977606893">
        <ele>879.74000000000001</ele>
        <time>2025-05-19T09:27:05Z</time>
      </trkpt>
      <trkpt lat="44.002315979450941" lon="7.797710001468658">
        <ele>880.71000000000004</ele>
        <time>2025-05-19T09:27:06Z</time>
      </trkpt>
      <trkpt lat="44.002385968342423" lon="7.797800023108721">
        <ele>881.66999999999996</ele>
        <time>2025-05-19T09:27:07Z</time>
      </trkpt>
      <trkpt lat="44.002461992204189" lon="7.797895995900035">
        <ele>882.63</ele>
        <time>2025-05-19T09:27:08Z</time>
      </trkpt>
      <trkpt lat="44.00252996943891" lon="7.797984005883336">
        <ele>883.11000000000001</ele>
        <time>2025-05-19T09:27:09Z</time>
      </trkpt>
      <trkpt lat="44.002541033551097" lon="7.797996997833252">
        <ele>884.07000000000005</ele>
        <time>2025-05-19T09:27:10Z</time>
      </trkpt>
      <trkpt lat="44.002558970823884" lon="7.79811903834343">
        <ele>884.54999999999995</ele>
        <time>2025-05-19T09:27:11Z</time>
      </trkpt>
      <trkpt lat="44.00261202827096" lon="7.798332022503018">
        <ele>885.02999999999997</ele>
        <time>2025-05-19T09:27:12Z</time>
      </trkpt>
      <trkpt lat="44.002675982192159" lon="7.798461019992828">
        <ele>885.99000000000001</ele>
        <time>2025-05-19T09:27:13Z</time>
      </trkpt>
      <trkpt lat="44.002927020192146" lon="7.799091003835201">
        <ele>889.84000000000003</ele>
        <time>2025-05-19T09:27:18Z</time>
      </trkpt>
      <trkpt lat="44.002927020192146" lon="7.799091003835201">
        <ele>890.79999999999995</ele>
        <time>2025-05-19T09:27:19Z</time>
      </trkpt>
      <trkpt lat="44.003442004323006" lon="7.799112964421511">
        <ele>894.15999999999997</ele>
        <time>2025-05-19T09:27:21Z</time>
      </trkpt>
      <trkpt lat="44.003442004323006" lon="7.799241961911321">
        <ele>896.09000000000003</ele>
        <time>2025-05-19T09:27:22Z</time>
      </trkpt>
      <trkpt lat="44.003393976017833" lon="7.799365008249879">
        <ele>897.04999999999995</ele>
        <time>2025-05-19T09:27:23Z</time>
      </trkpt>
      <trkpt lat="44.003334967419505" lon="7.799520995467901">
        <ele>898.97000000000003</ele>
        <time>2025-05-19T09:27:24Z</time>
      </trkpt>
      <trkpt lat="44.003272019326687" lon="7.79958100989461">
        <ele>900.40999999999997</ele>
        <time>2025-05-19T09:27:25Z</time>
      </trkpt>
      <trkpt lat="44.003174034878612" lon="7.799673965200782">
        <ele>901.37</ele>
        <time>2025-05-19T09:27:26Z</time>
      </trkpt>
      <trkpt lat="44.003088036552072" lon="7.799756024032831">
        <ele>902.33000000000004</ele>
        <time>2025-05-19T09:27:27Z</time>
      </trkpt>
      <trkpt lat="44.003015030175447" lon="7.799827018752694">
        <ele>903.77999999999997</ele>
        <time>2025-05-19T09:27:28Z</time>
      </trkpt>
      <trkpt lat="44.00295602157712" lon="7.79988300986588">
        <ele>904.74000000000001</ele>
        <time>2025-05-19T09:27:29Z</time>
      </trkpt>
      <trkpt lat="44.002836998552084" lon="7.800047965720296">
        <ele>906.17999999999995</ele>
        <time>2025-05-19T09:27:30Z</time>
      </trkpt>
      <trkpt lat="44.0028309635818" lon="7.800304032862186">
        <ele>907.62</ele>
        <time>2025-05-19T09:27:31Z</time>
      </trkpt>
      <trkpt lat="44.002877986058593" lon="7.800432024523616">
        <ele>908.58000000000004</ele>
        <time>2025-05-19T09:27:32Z</time>
      </trkpt>
      <trkpt lat="44.002982005476952" lon="7.800603015348315">
        <ele>910.02999999999997</ele>
        <time>2025-05-19T09:27:33Z</time>
      </trkpt>
      <trkpt lat="44.003068003803492" lon="7.800710974261165">
        <ele>910.50999999999999</ele>
        <time>2025-05-19T09:27:34Z</time>
      </trkpt>
      <trkpt lat="44.003155007958412" lon="7.800819016993046">
        <ele>910.99000000000001</ele>
        <time>2025-05-19T09:27:35Z</time>
      </trkpt>
      <trkpt lat="44.003230025991797" lon="7.800912978127599">
        <ele>911.47000000000003</ele>
        <time>2025-05-19T09:27:36Z</time>
      </trkpt>
      <trkpt lat="44.003248969092965" lon="7.800937034189701">
        <ele>911.95000000000005</ele>
        <time>2025-05-19T09:27:37Z</time>
      </trkpt>
      <trkpt lat="44.003261961042881" lon="7.801036024466157">
        <ele>912.90999999999997</ele>
        <time>2025-05-19T09:27:38Z</time>
      </trkpt>
      <trkpt lat="44.003275036811829" lon="7.801130991429091">
        <ele>913.38999999999999</ele>
        <time>2025-05-19T09:27:39Z</time>
      </trkpt>
      <trkpt lat="44.003328010439873" lon="7.801318997517228">
        <ele>914.35000000000002</ele>
        <time>2025-05-19T09:27:40Z</time>
      </trkpt>
      <trkpt lat="44.003390036523342" lon="7.801419999450445">
        <ele>914.83000000000004</ele>
        <time>2025-05-19T09:27:41Z</time>
      </trkpt>
      <trkpt lat="44.003457007929683" lon="7.801528964191675">
        <ele>915.30999999999995</ele>
        <time>2025-05-19T09:27:42Z</time>
      </trkpt>
      <trkpt lat="44.003528002649546" lon="7.801644969731569">
        <ele>916.26999999999998</ele>
        <time>2025-05-19T09:27:43Z</time>
      </trkpt>
      <trkpt lat="44.003543006256223" lon="7.801739014685154">
        <ele>917.24000000000001</ele>
        <time>2025-05-19T09:27:44Z</time>
      </trkpt>
      <trkpt lat="44.003591034561396" lon="7.802021987736225">
        <ele>918.67999999999995</ele>
        <time>2025-05-19T09:27:46Z</time>
      </trkpt>
      <trkpt lat="44.003592040389776" lon="7.80203104019165">
        <ele>919.15999999999997</ele>
        <time>2025-05-19T09:27:47Z</time>
      </trkpt>
      <trkpt lat="44.00353797711432" lon="7.802104968577623">
        <ele>919.15999999999997</ele>
        <time>2025-05-19T09:27:48Z</time>
      </trkpt>
      <trkpt lat="44.003177974373102" lon="7.802405040711165">
        <ele>928.76999999999998</ele>
        <time>2025-05-19T09:27:52Z</time>
      </trkpt>
      <trkpt lat="44.003013018518686" lon="7.802500007674098">
        <ele>933.10000000000002</ele>
        <time>2025-05-19T09:27:54Z</time>
      </trkpt>
      <trkpt lat="44.002942023798823" lon="7.802539989352226">
        <ele>934.05999999999995</ele>
        <time>2025-05-19T09:27:55Z</time>
      </trkpt>
      <trkpt lat="44.002809002995491" lon="7.802678039297462">
        <ele>936.94000000000005</ele>
        <time>2025-05-19T09:27:56Z</time>
      </trkpt>
      <trkpt lat="44.002792993560433" lon="7.802785998210311">
        <ele>938.38</ele>
        <time>2025-05-19T09:27:57Z</time>
      </trkpt>
      <trkpt lat="44.002775978296995" lon="7.802897980436683">
        <ele>939.83000000000004</ele>
        <time>2025-05-19T09:27:58Z</time>
      </trkpt>
      <trkpt lat="44.002762986347079" lon="7.802991019561887">
        <ele>941.26999999999998</ele>
        <time>2025-05-19T09:27:59Z</time>
      </trkpt>
      <trkpt lat="44.002755023539066" lon="7.803039969876409">
        <ele>943.19000000000005</ele>
        <time>2025-05-19T09:28:00Z</time>
      </trkpt>
      <trkpt lat="44.002714036032557" lon="7.803060002624989">
        <ele>944.63</ele>
        <time>2025-05-19T09:28:01Z</time>
      </trkpt>
      <trkpt lat="44.00263600051403" lon="7.803098978474736">
        <ele>946.07000000000005</ele>
        <time>2025-05-19T09:28:03Z</time>
      </trkpt>
      <trkpt lat="44.002619991078973" lon="7.803095038980246">
        <ele>947.51999999999998</ele>
        <time>2025-05-19T09:28:04Z</time>
      </trkpt>
      <trkpt lat="44.002580009400845" lon="7.803037958219647">
        <ele>948</ele>
        <time>2025-05-19T09:28:05Z</time>
      </trkpt>
      <trkpt lat="44.002475989982486" lon="7.802889011800289">
        <ele>948.96000000000004</ele>
        <time>2025-05-19T09:28:06Z</time>
      </trkpt>
      <trkpt lat="44.002368031069636" lon="7.802884988486767">
        <ele>950.39999999999998</ele>
        <time>2025-05-19T09:28:07Z</time>
      </trkpt>
      <trkpt lat="44.002412036061287" lon="7.802867973223329">
        <ele>951.84000000000003</ele>
        <time>2025-05-19T09:28:08Z</time>
      </trkpt>
      <trkpt lat="44.002253031358123" lon="7.80293301679194">
        <ele>953.27999999999997</ele>
        <time>2025-05-19T09:28:09Z</time>
      </trkpt>
      <trkpt lat="44.002186981961131" lon="7.802959000691772">
        <ele>954.73000000000002</ele>
        <time>2025-05-19T09:28:10Z</time>
      </trkpt>
      <trkpt lat="44.002063013613224" lon="7.803009962663055">
        <ele>957.61000000000001</ele>
        <time>2025-05-19T09:28:12Z</time>
      </trkpt>
      <trkpt lat="44.001964023336768" lon="7.803050028160214">
        <ele>959.52999999999997</ele>
        <time>2025-05-19T09:28:14Z</time>
      </trkpt>
      <trkpt lat="44.001920018345118" lon="7.803067965433002">
        <ele>960.98000000000002</ele>
        <time>2025-05-19T09:28:15Z</time>
      </trkpt>
      <trkpt lat="44.001875007525086" lon="7.80308598652482">
        <ele>961.94000000000005</ele>
        <time>2025-05-19T09:28:16Z</time>
      </trkpt>
      <trkpt lat="44.001833014190197" lon="7.803104007616639">
        <ele>962.89999999999998</ele>
        <time>2025-05-19T09:28:18Z</time>
      </trkpt>
      <trkpt lat="44.001833014190197" lon="7.803104007616639">
        <ele>964.34000000000003</ele>
        <time>2025-05-19T09:28:21Z</time>
      </trkpt>
      <trkpt lat="44.001833014190197" lon="7.803104007616639">
        <ele>964.34000000000003</ele>
        <time>2025-05-19T09:28:22Z</time>
      </trkpt>
      <trkpt lat="44.001833014190197" lon="7.803104007616639">
        <ele>964.82000000000005</ele>
        <time>2025-05-19T09:28:23Z</time>
      </trkpt>
      <trkpt lat="44.001795966178179" lon="7.803064025938511">
        <ele>964.82000000000005</ele>
        <time>2025-05-19T09:28:24Z</time>
      </trkpt>
      <trkpt lat="44.001661017537117" lon="7.802916001528502">
        <ele>967.22000000000003</ele>
        <time>2025-05-19T09:28:27Z</time>
      </trkpt>
      <trkpt lat="44.001612989231944" lon="7.802865039557219">
        <ele>968.66999999999996</ele>
        <time>2025-05-19T09:28:28Z</time>
      </trkpt>
      <trkpt lat="44.001538977026939" lon="7.802813993766904">
        <ele>970.11000000000001</ele>
        <time>2025-05-19T09:28:30Z</time>
      </trkpt>
      <trkpt lat="44.001513998955488" lon="7.802799995988607">
        <ele>970.59000000000003</ele>
        <time>2025-05-19T09:28:31Z</time>
      </trkpt>
      <trkpt lat="44.001480974256992" lon="7.802779963240027">
        <ele>972.02999999999997</ele>
        <time>2025-05-19T09:28:32Z</time>
      </trkpt>
      <trkpt lat="44.001409979537129" lon="7.802794966846705">
        <ele>973.95000000000005</ele>
        <time>2025-05-19T09:28:33Z</time>
      </trkpt>
      <trkpt lat="44.001363962888718" lon="7.802837966009975">
        <ele>975.88</ele>
        <time>2025-05-19T09:28:34Z</time>
      </trkpt>
      <trkpt lat="44.001305960118771" lon="7.802892029285431">
        <ele>976.84000000000003</ele>
        <time>2025-05-19T09:28:35Z</time>
      </trkpt>
      <trkpt lat="44.001237982884049" lon="7.80295598320663">
        <ele>978.75999999999999</ele>
        <time>2025-05-19T09:28:36Z</time>
      </trkpt>
      <trkpt lat="44.001165982335806" lon="7.803023038432002">
        <ele>980.67999999999995</ele>
        <time>2025-05-19T09:28:37Z</time>
      </trkpt>
      <trkpt lat="44.00108702480793" lon="7.803096966817975">
        <ele>982.12</ele>
        <time>2025-05-19T09:28:38Z</time>
      </trkpt>
      <trkpt lat="44.000741019845009" lon="7.803421011194587">
        <ele>986.92999999999995</ele>
        <time>2025-05-19T09:28:42Z</time>
      </trkpt>
      <trkpt lat="44.000661978498101" lon="7.803495023399591">
        <ele>988.37</ele>
        <time>2025-05-19T09:28:43Z</time>
      </trkpt>
      <trkpt lat="44.000462992116809" lon="7.803681017830968">
        <ele>991.25999999999999</ele>
        <time>2025-05-19T09:28:46Z</time>
      </trkpt>
      <trkpt lat="44.000425022095442" lon="7.803698033094406">
        <ele>992.22000000000003</ele>
        <time>2025-05-19T09:28:47Z</time>
      </trkpt>
      <trkpt lat="44.000333994626999" lon="7.803653022274375">
        <ele>992.70000000000005</ele>
        <time>2025-05-19T09:28:48Z</time>
      </trkpt>
      <trkpt lat="44.000247996300459" lon="7.803559983149171">
        <ele>993.65999999999997</ele>
        <time>2025-05-19T09:28:49Z</time>
      </trkpt>
      <trkpt lat="44.000151017680764" lon="7.803431991487742">
        <ele>994.62</ele>
        <time>2025-05-19T09:28:50Z</time>
      </trkpt>
      <trkpt lat="43.999751033261418" lon="7.802953971549869">
        <ele>997.99000000000001</ele>
        <time>2025-05-19T09:28:55Z</time>
      </trkpt>
      <trkpt lat="43.999662017449737" lon="7.802921030670404">
        <ele>998.95000000000005</ele>
        <time>2025-05-19T09:28:56Z</time>
      </trkpt>
      <trkpt lat="43.999600997194648" lon="7.802910972386599">
        <ele>999.90999999999997</ele>
        <time>2025-05-19T09:28:57Z</time>
      </trkpt>
      <trkpt lat="43.999508963897824" lon="7.802965035662055">
        <ele>1002.79</ele>
        <time>2025-05-19T09:28:58Z</time>
      </trkpt>
      <trkpt lat="43.999379966408014" lon="7.803038964048028">
        <ele>1008.08</ele>
        <time>2025-05-19T09:29:00Z</time>
      </trkpt>
      <trkpt lat="43.999343002215028" lon="7.803061008453369">
        <ele>1010</ele>
        <time>2025-05-19T09:29:01Z</time>
      </trkpt>
      <trkpt lat="43.999338978901505" lon="7.803069977089763">
        <ele>1011.9299999999999</ele>
        <time>2025-05-19T09:29:02Z</time>
      </trkpt>
      <trkpt lat="43.999319029971957" lon="7.803110964596272">
        <ele>1013.37</ele>
        <time>2025-05-19T09:29:03Z</time>
      </trkpt>
      <trkpt lat="43.999302014708519" lon="7.80314801260829">
        <ele>1014.8099999999999</ele>
        <time>2025-05-19T09:29:04Z</time>
      </trkpt>
      <trkpt lat="43.999339984729886" lon="7.803172990679741">
        <ele>1015.77</ele>
        <time>2025-05-19T09:29:05Z</time>
      </trkpt>
      <trkpt lat="43.999395975843072" lon="7.803172990679741">
        <ele>1016.73</ele>
        <time>2025-05-19T09:29:06Z</time>
      </trkpt>
      <trkpt lat="43.999452972784638" lon="7.803141977638006">
        <ele>1017.6900000000001</ele>
        <time>2025-05-19T09:29:07Z</time>
      </trkpt>
      <trkpt lat="43.999516004696488" lon="7.803107025101781">
        <ele>1018.17</ele>
        <time>2025-05-19T09:29:08Z</time>
      </trkpt>
      <trkpt lat="43.999582976102829" lon="7.803070982918143">
        <ele>1018.17</ele>
        <time>2025-05-19T09:29:09Z</time>
      </trkpt>
      <trkpt lat="43.999641984701157" lon="7.803095960989595">
        <ele>1018.65</ele>
        <time>2025-05-19T09:29:10Z</time>
      </trkpt>
      <trkpt lat="43.999693030491471" lon="7.803139965981245">
        <ele>1019.13</ele>
        <time>2025-05-19T09:29:11Z</time>
      </trkpt>
      <trkpt lat="43.999751033261418" lon="7.803190005943179">
        <ele>1019.13</ele>
        <time>2025-05-19T09:29:12Z</time>
      </trkpt>
      <trkpt lat="43.999793026596308" lon="7.803261000663042">
        <ele>1019.62</ele>
        <time>2025-05-19T09:29:13Z</time>
      </trkpt>
      <trkpt lat="43.999852035194635" lon="7.80336300842464">
        <ele>1019.62</ele>
        <time>2025-05-19T09:29:14Z</time>
      </trkpt>
      <trkpt lat="43.999909032136202" lon="7.803629972040653">
        <ele>1020.1</ele>
        <time>2025-05-19T09:29:16Z</time>
      </trkpt>
      <trkpt lat="43.999968040734529" lon="7.803712030872703">
        <ele>1020.58</ele>
        <time>2025-05-19T09:29:17Z</time>
      </trkpt>
      <trkpt lat="44.000023026019335" lon="7.803788976743817">
        <ele>1020.58</ele>
        <time>2025-05-19T09:29:18Z</time>
      </trkpt>
      <trkpt lat="44.000284960493445" lon="7.804001038894057">
        <ele>1022.98</ele>
        <time>2025-05-19T09:29:25Z</time>
      </trkpt>
      <trkpt lat="44.000287977978587" lon="7.804004978388548">
        <ele>1023.9400000000001</ele>
        <time>2025-05-19T09:29:27Z</time>
      </trkpt>
      <trkpt lat="44.000287977978587" lon="7.804004978388548">
        <ele>1024.4200000000001</ele>
        <time>2025-05-19T09:29:28Z</time>
      </trkpt>
      <trkpt lat="44.000203991308808" lon="7.803885033354163">
        <ele>1024.9000000000001</ele>
        <time>2025-05-19T09:29:29Z</time>
      </trkpt>
      <trkpt lat="44.000126039609313" lon="7.80377296730876">
        <ele>1025.8599999999999</ele>
        <time>2025-05-19T09:29:30Z</time>
      </trkpt>
      <trkpt lat="43.999978015199304" lon="7.803726028650999">
        <ele>1027.3099999999999</ele>
        <time>2025-05-19T09:29:31Z</time>
      </trkpt>
      <trkpt lat="43.999896040186286" lon="7.803611028939486">
        <ele>1027.79</ele>
        <time>2025-05-19T09:29:32Z</time>
      </trkpt>
      <trkpt lat="43.999828984960914" lon="7.80351497232914">
        <ele>1028.75</ele>
        <time>2025-05-19T09:29:33Z</time>
      </trkpt>
      <trkpt lat="43.999708034098148" lon="7.803339958190918">
        <ele>1030.1900000000001</ele>
        <time>2025-05-19T09:29:34Z</time>
      </trkpt>
      <trkpt lat="43.999636033549905" lon="7.803339958190918">
        <ele>1031.1500000000001</ele>
        <time>2025-05-19T09:29:35Z</time>
      </trkpt>
      <trkpt lat="43.999444004148245" lon="7.803408019244671">
        <ele>1032.1099999999999</ele>
        <time>2025-05-19T09:29:36Z</time>
      </trkpt>
      <trkpt lat="43.999375021085143" lon="7.803500974550843">
        <ele>1034.04</ele>
        <time>2025-05-19T09:29:37Z</time>
      </trkpt>
      <trkpt lat="43.99930696003139" lon="7.803594013676047">
        <ele>1035.48</ele>
        <time>2025-05-19T09:29:38Z</time>
      </trkpt>
      <trkpt lat="43.999238982796669" lon="7.80368696898222">
        <ele>1036.9200000000001</ele>
        <time>2025-05-19T09:29:39Z</time>
      </trkpt>
      <trkpt lat="43.999169999733567" lon="7.803781013935804">
        <ele>1038.3599999999999</ele>
        <time>2025-05-19T09:29:40Z</time>
      </trkpt>
      <trkpt lat="43.999105961993337" lon="7.803869023919106">
        <ele>1039.8</ele>
        <time>2025-05-19T09:29:41Z</time>
      </trkpt>
      <trkpt lat="43.999051982536912" lon="7.80394303612411">
        <ele>1041.25</ele>
        <time>2025-05-19T09:29:42Z</time>
      </trkpt>
      <trkpt lat="43.999015018343925" lon="7.804040014743805">
        <ele>1043.1700000000001</ele>
        <time>2025-05-19T09:29:43Z</time>
      </trkpt>
      <trkpt lat="43.99900303222239" lon="7.804134981706739">
        <ele>1044.1300000000001</ele>
        <time>2025-05-19T09:29:44Z</time>
      </trkpt>
      <trkpt lat="43.998991968110204" lon="7.80422399751842">
        <ele>1045.5699999999999</ele>
        <time>2025-05-19T09:29:45Z</time>
      </trkpt>
      <trkpt lat="43.998965984210372" lon="7.804426001384854">
        <ele>1048.45</ele>
        <time>2025-05-19T09:29:47Z</time>
      </trkpt>
      <trkpt lat="43.998932037502527" lon="7.804543012753129">
        <ele>1049.4200000000001</ele>
        <time>2025-05-19T09:29:48Z</time>
      </trkpt>
      <trkpt lat="43.998884009197354" lon="7.804628005251288">
        <ele>1050.3800000000001</ele>
        <time>2025-05-19T09:29:49Z</time>
      </trkpt>
      <trkpt lat="43.998807985335588" lon="7.80469598248601">
        <ele>1051.8199999999999</ele>
        <time>2025-05-19T09:29:50Z</time>
      </trkpt>
      <trkpt lat="43.998734978958964" lon="7.804750967770815">
        <ele>1053.26</ele>
        <time>2025-05-19T09:29:51Z</time>
      </trkpt>
      <trkpt lat="43.998665995895863" lon="7.80480301938951">
        <ele>1055.1800000000001</ele>
        <time>2025-05-19T09:29:52Z</time>
      </trkpt>
      <trkpt lat="43.998606987297535" lon="7.804852975532413">
        <ele>1056.1500000000001</ele>
        <time>2025-05-19T09:29:53Z</time>
      </trkpt>
      <trkpt lat="43.99855200201273" lon="7.804942997172475">
        <ele>1058.0699999999999</ele>
        <time>2025-05-19T09:29:54Z</time>
      </trkpt>
      <trkpt lat="43.998493999242783" lon="7.805036036297679">
        <ele>1059.51</ele>
        <time>2025-05-19T09:29:55Z</time>
      </trkpt>
      <trkpt lat="43.998442031443119" lon="7.805121028795838">
        <ele>1060.47</ele>
        <time>2025-05-19T09:29:56Z</time>
      </trkpt>
      <trkpt lat="43.998348992317915" lon="7.805188000202179">
        <ele>1061.4300000000001</ele>
        <time>2025-05-19T09:29:57Z</time>
      </trkpt>
      <trkpt lat="43.998280009254813" lon="7.805237034335733">
        <ele>1062.3900000000001</ele>
        <time>2025-05-19T09:29:58Z</time>
      </trkpt>
      <trkpt lat="43.99820901453495" lon="7.805286990478635">
        <ele>1063.8399999999999</ele>
        <time>2025-05-19T09:29:59Z</time>
      </trkpt>
      <trkpt lat="43.998141959309578" lon="7.805336024612188">
        <ele>1064.8</ele>
        <time>2025-05-19T09:30:00Z</time>
      </trkpt>
      <trkpt lat="43.998114969581366" lon="7.80540400184691">
        <ele>1066.24</ele>
        <time>2025-05-19T09:30:01Z</time>
      </trkpt>
      <trkpt lat="43.998069036751986" lon="7.805517995730043">
        <ele>1067.2</ele>
        <time>2025-05-19T09:30:02Z</time>
      </trkpt>
      <trkpt lat="43.998022014275193" lon="7.805636012926698">
        <ele>1068.1600000000001</ele>
        <time>2025-05-19T09:30:03Z</time>
      </trkpt>
      <trkpt lat="43.997977003455162" lon="7.80574799515307">
        <ele>1068.6400000000001</ele>
        <time>2025-05-19T09:30:04Z</time>
      </trkpt>
      <trkpt lat="43.997911037877202" lon="7.805842040106654">
        <ele>1069.1199999999999</ele>
        <time>2025-05-19T09:30:05Z</time>
      </trkpt>
      <trkpt lat="43.997851023450494" lon="7.805918985977769">
        <ele>1069.5999999999999</ele>
        <time>2025-05-19T09:30:06Z</time>
      </trkpt>
      <trkpt lat="43.997791009023786" lon="7.805998027324677">
        <ele>1070.0799999999999</ele>
        <time>2025-05-19T09:30:07Z</time>
      </trkpt>
      <trkpt lat="43.9977159909904" lon="7.80606902204454">
        <ele>1070.5699999999999</ele>
        <time>2025-05-19T09:30:08Z</time>
      </trkpt>
      <trkpt lat="43.997639967128634" lon="7.8061159607023">
        <ele>1071.05</ele>
        <time>2025-05-19T09:30:09Z</time>
      </trkpt>
      <trkpt lat="43.997550029307604" lon="7.80615602619946">
        <ele>1072.01</ele>
        <time>2025-05-19T09:30:10Z</time>
      </trkpt>
      <trkpt lat="43.997461013495922" lon="7.806168012320995">
        <ele>1072.49</ele>
        <time>2025-05-19T09:30:11Z</time>
      </trkpt>
      <trkpt lat="43.997192038223147" lon="7.806245964020491">
        <ele>1074.4100000000001</ele>
        <time>2025-05-19T09:30:14Z</time>
      </trkpt>
      <trkpt lat="43.99713302962482" lon="7.806279994547367">
        <ele>1074.8900000000001</ele>
        <time>2025-05-19T09:30:15Z</time>
      </trkpt>
      <trkpt lat="43.997094975784421" lon="7.806363981217146">
        <ele>1075.3699999999999</ele>
        <time>2025-05-19T09:30:16Z</time>
      </trkpt>
      <trkpt lat="43.997046025469899" lon="7.806472023949027">
        <ele>1075.8499999999999</ele>
        <time>2025-05-19T09:30:17Z</time>
      </trkpt>
      <trkpt lat="43.996992968022823" lon="7.806589035317302">
        <ele>1076.3299999999999</ele>
        <time>2025-05-19T09:30:18Z</time>
      </trkpt>
      <trkpt lat="43.996753999963403" lon="7.807048028334975">
        <ele>1077.29</ele>
        <time>2025-05-19T09:30:22Z</time>
      </trkpt>
      <trkpt lat="43.996686022728682" lon="7.807121034711599">
        <ele>1077.78</ele>
        <time>2025-05-19T09:30:23Z</time>
      </trkpt>
      <trkpt lat="43.996546966955066" lon="7.807267969474196">
        <ele>1077.78</ele>
        <time>2025-05-19T09:30:25Z</time>
      </trkpt>
      <trkpt lat="43.996474966406822" lon="7.807343993335962">
        <ele>1078.26</ele>
        <time>2025-05-19T09:30:26Z</time>
      </trkpt>
      <trkpt lat="43.996422998607159" lon="7.807436026632786">
        <ele>1078.26</ele>
        <time>2025-05-19T09:30:27Z</time>
      </trkpt>
      <trkpt lat="43.996375976130366" lon="7.80755496583879">
        <ele>1078.26</ele>
        <time>2025-05-19T09:30:28Z</time>
      </trkpt>
      <trkpt lat="43.996329037472606" lon="7.807674994692206">
        <ele>1078.26</ele>
        <time>2025-05-19T09:30:29Z</time>
      </trkpt>
      <trkpt lat="43.996143965050578" lon="7.807995015755296">
        <ele>1078.74</ele>
        <time>2025-05-19T09:30:32Z</time>
      </trkpt>
      <trkpt lat="43.996070958673954" lon="7.808079002425075">
        <ele>1078.74</ele>
        <time>2025-05-19T09:30:33Z</time>
      </trkpt>
      <trkpt lat="43.995942967012525" lon="7.808228032663465">
        <ele>1079.22</ele>
        <time>2025-05-19T09:30:35Z</time>
      </trkpt>
      <trkpt lat="43.995880018919706" lon="7.808301039040089">
        <ele>1079.22</ele>
        <time>2025-05-19T09:30:36Z</time>
      </trkpt>
      <trkpt lat="43.995812041684985" lon="7.808381002396345">
        <ele>1079.22</ele>
        <time>2025-05-19T09:30:37Z</time>
      </trkpt>
      <trkpt lat="43.995741968974471" lon="7.808460965752602">
        <ele>1079.7</ele>
        <time>2025-05-19T09:30:38Z</time>
      </trkpt>
      <trkpt lat="43.995686983689666" lon="7.808525003492832">
        <ele>1079.7</ele>
        <time>2025-05-19T09:30:39Z</time>
      </trkpt>
      <trkpt lat="43.995648007839918" lon="7.808571020141244">
        <ele>1079.7</ele>
        <time>2025-05-19T09:30:40Z</time>
      </trkpt>
      <trkpt lat="43.995615988969803" lon="7.80860798433423">
        <ele>1079.7</ele>
        <time>2025-05-19T09:30:41Z</time>
      </trkpt>
      <trkpt lat="43.995590005069971" lon="7.808636985719204">
        <ele>1079.7</ele>
        <time>2025-05-19T09:30:42Z</time>
      </trkpt>
      <trkpt lat="43.99558799341321" lon="7.808640003204346">
        <ele>1080.1800000000001</ele>
        <time>2025-05-19T09:30:43Z</time>
      </trkpt>
      <trkpt lat="43.99558799341321" lon="7.808640003204346">
        <ele>1080.6600000000001</ele>
        <time>2025-05-19T09:30:44Z</time>
      </trkpt>
      <trkpt lat="43.995591010898352" lon="7.8086700104177">
        <ele>1081.1400000000001</ele>
        <time>2025-05-19T09:30:45Z</time>
      </trkpt>
      <trkpt lat="43.995594028383493" lon="7.80871300958097">
        <ele>1081.1400000000001</ele>
        <time>2025-05-19T09:30:46Z</time>
      </trkpt>
      <trkpt lat="43.995598973706365" lon="7.808775035664439">
        <ele>1081.1400000000001</ele>
        <time>2025-05-19T09:30:47Z</time>
      </trkpt>
      <trkpt lat="43.995604002848268" lon="7.808848964050412">
        <ele>1081.1400000000001</ele>
        <time>2025-05-19T09:30:48Z</time>
      </trkpt>
      <trkpt lat="43.995611965656281" lon="7.808943009003997">
        <ele>1081.1400000000001</ele>
        <time>2025-05-19T09:30:49Z</time>
      </trkpt>
      <trkpt lat="43.995620012283325" lon="7.809050967916846">
        <ele>1081.1400000000001</ele>
        <time>2025-05-19T09:30:50Z</time>
      </trkpt>
      <trkpt lat="43.995628980919719" lon="7.809168985113502">
        <ele>1081.6199999999999</ele>
        <time>2025-05-19T09:30:51Z</time>
      </trkpt>
      <trkpt lat="43.995700981467962" lon="7.809394961223006">
        <ele>1081.6199999999999</ele>
        <time>2025-05-19T09:30:53Z</time>
      </trkpt>
      <trkpt lat="43.9957370236516" lon="7.809497974812985">
        <ele>1081.6199999999999</ele>
        <time>2025-05-19T09:30:54Z</time>
      </trkpt>
      <trkpt lat="43.995785973966122" lon="7.809586990624666">
        <ele>1081.6199999999999</ele>
        <time>2025-05-19T09:30:55Z</time>
      </trkpt>
      <trkpt lat="43.99586702696979" lon="7.809665026143193">
        <ele>1081.6199999999999</ele>
        <time>2025-05-19T09:30:56Z</time>
      </trkpt>
      <trkpt lat="43.995957970619202" lon="7.809750018641353">
        <ele>1081.6199999999999</ele>
        <time>2025-05-19T09:30:57Z</time>
      </trkpt>
      <trkpt lat="43.996156034991145" lon="7.809939030557871">
        <ele>1081.6199999999999</ele>
        <time>2025-05-19T09:30:59Z</time>
      </trkpt>
      <trkpt lat="43.996247984468937" lon="7.810074985027313">
        <ele>1081.6199999999999</ele>
        <time>2025-05-19T09:31:00Z</time>
      </trkpt>
      <trkpt lat="43.996329959481955" lon="7.810219991952181">
        <ele>1082.0999999999999</ele>
        <time>2025-05-19T09:31:01Z</time>
      </trkpt>
      <trkpt lat="43.996401960030198" lon="7.81034697778523">
        <ele>1082.0999999999999</ele>
        <time>2025-05-19T09:31:02Z</time>
      </trkpt>
      <trkpt lat="43.996470021083951" lon="7.810464994981885">
        <ele>1082.0999999999999</ele>
        <time>2025-05-19T09:31:03Z</time>
      </trkpt>
      <trkpt lat="43.996570017188787" lon="7.810530960559845">
        <ele>1082.5799999999999</ele>
        <time>2025-05-19T09:31:04Z</time>
      </trkpt>
      <trkpt lat="43.996677976101637" lon="7.81060203909874">
        <ele>1082.5799999999999</ele>
        <time>2025-05-19T09:31:05Z</time>
      </trkpt>
      <trkpt lat="43.997256997972727" lon="7.811007974669337">
        <ele>1085.47</ele>
        <time>2025-05-19T09:31:10Z</time>
      </trkpt>
      <trkpt lat="43.99735095910728" lon="7.811131021007896">
        <ele>1085.95</ele>
        <time>2025-05-19T09:31:11Z</time>
      </trkpt>
      <trkpt lat="43.998186970129609" lon="7.812233995646238">
        <ele>1096.04</ele>
        <time>2025-05-19T09:31:19Z</time>
      </trkpt>
      <trkpt lat="43.998250002041459" lon="7.812355030328035">
        <ele>1097.48</ele>
        <time>2025-05-19T09:31:20Z</time>
      </trkpt>
      <trkpt lat="43.998291995376348" lon="7.812487967312336">
        <ele>1098.9200000000001</ele>
        <time>2025-05-19T09:31:21Z</time>
      </trkpt>
      <trkpt lat="43.998301969841123" lon="7.812652001157403">
        <ele>1100.8499999999999</ele>
        <time>2025-05-19T09:31:22Z</time>
      </trkpt>
      <trkpt lat="43.998313033953309" lon="7.812831038609147">
        <ele>1101.8099999999999</ele>
        <time>2025-05-19T09:31:23Z</time>
      </trkpt>
      <trkpt lat="43.998325020074844" lon="7.813018038868904">
        <ele>1103.73</ele>
        <time>2025-05-19T09:31:24Z</time>
      </trkpt>
      <trkpt lat="43.998333988711238" lon="7.813216019421816">
        <ele>1104.6900000000001</ele>
        <time>2025-05-19T09:31:25Z</time>
      </trkpt>
      <trkpt lat="43.998328037559986" lon="7.813411988317967">
        <ele>1106.1300000000001</ele>
        <time>2025-05-19T09:31:26Z</time>
      </trkpt>
      <trkpt lat="43.99831797927618" lon="7.813754975795746">
        <ele>1109.02</ele>
        <time>2025-05-19T09:31:28Z</time>
      </trkpt>
      <trkpt lat="43.998314961791039" lon="7.813924038782716">
        <ele>1109.98</ele>
        <time>2025-05-19T09:31:29Z</time>
      </trkpt>
      <trkpt lat="43.998355027288198" lon="7.814082959666848">
        <ele>1111.4200000000001</ele>
        <time>2025-05-19T09:31:30Z</time>
      </trkpt>
      <trkpt lat="43.998647974804044" lon="7.815362038090825">
        <ele>1121.03</ele>
        <time>2025-05-19T09:31:37Z</time>
      </trkpt>
      <trkpt lat="43.998672030866146" lon="7.815704019740224">
        <ele>1123.4400000000001</ele>
        <time>2025-05-19T09:31:39Z</time>
      </trkpt>
      <trkpt lat="43.998684016987681" lon="7.81588900834322">
        <ele>1124.8800000000001</ele>
        <time>2025-05-19T09:31:40Z</time>
      </trkpt>
      <trkpt lat="43.998885015025735" lon="7.817678963765502">
        <ele>1137.8599999999999</ele>
        <time>2025-05-19T09:31:49Z</time>
      </trkpt>
      <trkpt lat="43.998901024460793" lon="7.817819025367498">
        <ele>1138.8199999999999</ele>
        <time>2025-05-19T09:31:50Z</time>
      </trkpt>
      <trkpt lat="43.998914016410708" lon="7.81793100759387">
        <ele>1140.26</ele>
        <time>2025-05-19T09:31:51Z</time>
      </trkpt>
      <trkpt lat="43.998964978381991" lon="7.817980963736773">
        <ele>1141.22</ele>
        <time>2025-05-19T09:31:52Z</time>
      </trkpt>
      <trkpt lat="43.999021975323558" lon="7.81803896650672">
        <ele>1142.1800000000001</ele>
        <time>2025-05-19T09:31:53Z</time>
      </trkpt>
      <trkpt lat="43.999085007235408" lon="7.81803896650672">
        <ele>1143.1400000000001</ele>
        <time>2025-05-19T09:31:54Z</time>
      </trkpt>
      <trkpt lat="43.999172011390328" lon="7.818028992041946">
        <ele>1144.1099999999999</ele>
        <time>2025-05-19T09:31:55Z</time>
      </trkpt>
      <trkpt lat="43.999269995838404" lon="7.817983981221914">
        <ele>1145.0699999999999</ele>
        <time>2025-05-19T09:31:56Z</time>
      </trkpt>
      <trkpt lat="44.000194016844034" lon="7.817585002630949">
        <ele>1154.6800000000001</ele>
        <time>2025-05-19T09:32:05Z</time>
      </trkpt>
      <trkpt lat="44.000241961330175" lon="7.817567987367511">
        <ele>1155.6400000000001</ele>
        <time>2025-05-19T09:32:06Z</time>
      </trkpt>
      <trkpt lat="44.000244978815317" lon="7.81756597571075">
        <ele>1156.5999999999999</ele>
        <time>2025-05-19T09:32:07Z</time>
      </trkpt>
      <trkpt lat="44.000284960493445" lon="7.817634036764503">
        <ele>1157.5599999999999</ele>
        <time>2025-05-19T09:32:08Z</time>
      </trkpt>
      <trkpt lat="44.000309016555548" lon="7.817674018442631">
        <ele>1158.53</ele>
        <time>2025-05-19T09:32:09Z</time>
      </trkpt>
      <trkpt lat="44.000307004898787" lon="7.817684998735786">
        <ele>1159.49</ele>
        <time>2025-05-19T09:32:10Z</time>
      </trkpt>
      <trkpt lat="44.000295018777251" lon="7.817745013162494">
        <ele>1160.45</ele>
        <time>2025-05-19T09:32:11Z</time>
      </trkpt>
      <trkpt lat="44.000282026827335" lon="7.817809972912073">
        <ele>1161.4100000000001</ele>
        <time>2025-05-19T09:32:12Z</time>
      </trkpt>
      <trkpt lat="44.000267023220658" lon="7.817884990945458">
        <ele>1162.8499999999999</ele>
        <time>2025-05-19T09:32:13Z</time>
      </trkpt>
      <trkpt lat="44.000226035714149" lon="7.818090012297034">
        <ele>1164.29</ele>
        <time>2025-05-19T09:32:15Z</time>
      </trkpt>
      <trkpt lat="44.000200973823667" lon="7.818215992301703">
        <ele>1165.26</ele>
        <time>2025-05-19T09:32:16Z</time>
      </trkpt>
      <trkpt lat="44.000183958560228" lon="7.818570965901017">
        <ele>1167.6600000000001</ele>
        <time>2025-05-19T09:32:19Z</time>
      </trkpt>
      <trkpt lat="44.000171972438693" lon="7.818647995591164">
        <ele>1168.6199999999999</ele>
        <time>2025-05-19T09:32:20Z</time>
      </trkpt>
      <trkpt lat="44.000132996588945" lon="7.818694012239575">
        <ele>1169.5799999999999</ele>
        <time>2025-05-19T09:32:21Z</time>
      </trkpt>
      <trkpt lat="44.000091003254056" lon="7.818742962554097">
        <ele>1170.54</ele>
        <time>2025-05-19T09:32:22Z</time>
      </trkpt>
      <trkpt lat="44.000041969120502" lon="7.818799037486315">
        <ele>1171.5</ele>
        <time>2025-05-19T09:32:23Z</time>
      </trkpt>
      <trkpt lat="43.999986983835697" lon="7.818862991407514">
        <ele>1172.47</ele>
        <time>2025-05-19T09:32:24Z</time>
      </trkpt>
      <trkpt lat="43.999926969408989" lon="7.818931974470615">
        <ele>1173.4300000000001</ele>
        <time>2025-05-19T09:32:25Z</time>
      </trkpt>
      <trkpt lat="43.99988598190248" lon="7.819042028859258">
        <ele>1174.8699999999999</ele>
        <time>2025-05-19T09:32:26Z</time>
      </trkpt>
      <trkpt lat="43.999866032972932" lon="7.819144958630204">
        <ele>1175.8299999999999</ele>
        <time>2025-05-19T09:32:27Z</time>
      </trkpt>
      <trkpt lat="43.999848011881113" lon="7.819243026897311">
        <ele>1176.79</ele>
        <time>2025-05-19T09:32:28Z</time>
      </trkpt>
      <trkpt lat="43.999830996617675" lon="7.819330031052232">
        <ele>1177.75</ele>
        <time>2025-05-19T09:32:29Z</time>
      </trkpt>
      <trkpt lat="43.999815993010998" lon="7.819411000236869">
        <ele>1178.23</ele>
        <time>2025-05-19T09:32:30Z</time>
      </trkpt>
      <trkpt lat="43.999826973304152" lon="7.819485012441874">
        <ele>1179.1900000000001</ele>
        <time>2025-05-19T09:32:31Z</time>
      </trkpt>
      <trkpt lat="43.999838037416339" lon="7.819552989676595">
        <ele>1179.6700000000001</ele>
        <time>2025-05-19T09:32:32Z</time>
      </trkpt>
      <trkpt lat="43.999850023537874" lon="7.819629013538361">
        <ele>1180.6400000000001</ele>
        <time>2025-05-19T09:32:33Z</time>
      </trkpt>
      <trkpt lat="43.999900985509157" lon="7.819948028773069">
        <ele>1183.52</ele>
        <time>2025-05-19T09:32:37Z</time>
      </trkpt>
      <trkpt lat="43.999900985509157" lon="7.820031009614468">
        <ele>1184</ele>
        <time>2025-05-19T09:32:38Z</time>
      </trkpt>
      <trkpt lat="43.999900985509157" lon="7.820034027099609">
        <ele>1184.96</ele>
        <time>2025-05-19T09:32:39Z</time>
      </trkpt>
      <trkpt lat="43.99986200965941" lon="7.820076020434499">
        <ele>1185.4400000000001</ele>
        <time>2025-05-19T09:32:40Z</time>
      </trkpt>
      <trkpt lat="43.999822027981281" lon="7.820119019597769">
        <ele>1186.4000000000001</ele>
        <time>2025-05-19T09:32:41Z</time>
      </trkpt>
      <trkpt lat="43.999773999676108" lon="7.820170987397432">
        <ele>1186.4000000000001</ele>
        <time>2025-05-19T09:32:42Z</time>
      </trkpt>
      <trkpt lat="43.999719014391303" lon="7.82022999599576">
        <ele>1186.4000000000001</ele>
        <time>2025-05-19T09:32:43Z</time>
      </trkpt>
      <trkpt lat="43.999656988307834" lon="7.82029596157372">
        <ele>1186.8800000000001</ele>
        <time>2025-05-19T09:32:44Z</time>
      </trkpt>
      <trkpt lat="43.999597979709506" lon="7.820377014577389">
        <ele>1187.3699999999999</ele>
        <time>2025-05-19T09:32:45Z</time>
      </trkpt>
      <trkpt lat="43.999581970274448" lon="7.820499977096915">
        <ele>1187.8499999999999</ele>
        <time>2025-05-19T09:32:46Z</time>
      </trkpt>
      <trkpt lat="43.999581970274448" lon="7.820499977096915">
        <ele>1188.3299999999999</ele>
        <time>2025-05-19T09:32:47Z</time>
      </trkpt>
      <trkpt lat="43.999548023566604" lon="7.82076601870358">
        <ele>1189.29</ele>
        <time>2025-05-19T09:32:48Z</time>
      </trkpt>
      <trkpt lat="43.999530002474785" lon="7.820908008143306">
        <ele>1190.25</ele>
        <time>2025-05-19T09:32:49Z</time>
      </trkpt>
      <trkpt lat="43.999470993876457" lon="7.821171032264829">
        <ele>1191.6900000000001</ele>
        <time>2025-05-19T09:32:51Z</time>
      </trkpt>
      <trkpt lat="43.999436041340232" lon="7.821287037804723">
        <ele>1192.1700000000001</ele>
        <time>2025-05-19T09:32:52Z</time>
      </trkpt>
      <trkpt lat="43.999352976679802" lon="7.821570010855794">
        <ele>1194.5799999999999</ele>
        <time>2025-05-19T09:32:55Z</time>
      </trkpt>
      <trkpt lat="43.999343002215028" lon="7.821645028889179">
        <ele>1195.0599999999999</ele>
        <time>2025-05-19T09:32:56Z</time>
      </trkpt>
      <trkpt lat="43.999343002215028" lon="7.8217320330441">
        <ele>1195.54</ele>
        <time>2025-05-19T09:32:57Z</time>
      </trkpt>
      <trkpt lat="43.999352976679802" lon="7.821830017492175">
        <ele>1196.5</ele>
        <time>2025-05-19T09:32:58Z</time>
      </trkpt>
      <trkpt lat="43.999381978064775" lon="7.821931019425392">
        <ele>1196.98</ele>
        <time>2025-05-19T09:32:59Z</time>
      </trkpt>
      <trkpt lat="43.99941299110651" lon="7.822040989995003">
        <ele>1197.46</ele>
        <time>2025-05-19T09:33:00Z</time>
      </trkpt>
      <trkpt lat="43.999701999127865" lon="7.82308897934854">
        <ele>1204.1900000000001</ele>
        <time>2025-05-19T09:33:09Z</time>
      </trkpt>
      <trkpt lat="43.999721026048064" lon="7.823176989331842">
        <ele>1205.1500000000001</ele>
        <time>2025-05-19T09:33:10Z</time>
      </trkpt>
      <trkpt lat="43.999737035483122" lon="7.823253013193607">
        <ele>1206.1099999999999</ele>
        <time>2025-05-19T09:33:11Z</time>
      </trkpt>
      <trkpt lat="43.999708034098148" lon="7.823359966278076">
        <ele>1207.55</ele>
        <time>2025-05-19T09:33:12Z</time>
      </trkpt>
      <trkpt lat="43.999653970822692" lon="7.823414029553533">
        <ele>1208.51</ele>
        <time>2025-05-19T09:33:13Z</time>
      </trkpt>
      <trkpt lat="43.999591022729874" lon="7.823435990139842">
        <ele>1209</ele>
        <time>2025-05-19T09:33:14Z</time>
      </trkpt>
      <trkpt lat="43.999503012746572" lon="7.823454011231661">
        <ele>1209.96</ele>
        <time>2025-05-19T09:33:15Z</time>
      </trkpt>
      <trkpt lat="43.999401004984975" lon="7.82347597181797">
        <ele>1210.9200000000001</ele>
        <time>2025-05-19T09:33:16Z</time>
      </trkpt>
      <trkpt lat="43.998743025586009" lon="7.823617961257696">
        <ele>1217.1700000000001</ele>
        <time>2025-05-19T09:33:23Z</time>
      </trkpt>
      <trkpt lat="43.998743025586009" lon="7.823617961257696">
        <ele>1218.1300000000001</ele>
        <time>2025-05-19T09:33:24Z</time>
      </trkpt>
      <trkpt lat="43.998706983402371" lon="7.823706977069378">
        <ele>1218.6099999999999</ele>
        <time>2025-05-19T09:33:25Z</time>
      </trkpt>
      <trkpt lat="43.99868099950254" lon="7.82377302646637">
        <ele>1219.0899999999999</ele>
        <time>2025-05-19T09:33:26Z</time>
      </trkpt>
      <trkpt lat="43.998657027259469" lon="7.823832035064697">
        <ele>1219.5699999999999</ele>
        <time>2025-05-19T09:33:27Z</time>
      </trkpt>
      <trkpt lat="43.998665995895863" lon="7.823934964835644">
        <ele>1220.53</ele>
        <time>2025-05-19T09:33:28Z</time>
      </trkpt>
      <trkpt lat="43.998676976189017" lon="7.824068991467357">
        <ele>1221.01</ele>
        <time>2025-05-19T09:33:29Z</time>
      </trkpt>
      <trkpt lat="43.998688962310553" lon="7.824215004220605">
        <ele>1221.97</ele>
        <time>2025-05-19T09:33:30Z</time>
      </trkpt>
      <trkpt lat="43.998743025586009" lon="7.825238015502691">
        <ele>1227.26</ele>
        <time>2025-05-19T09:33:38Z</time>
      </trkpt>
      <trkpt lat="43.998758029192686" lon="7.825349997729063">
        <ele>1228.22</ele>
        <time>2025-05-19T09:33:39Z</time>
      </trkpt>
      <trkpt lat="43.998802034184337" lon="7.825454017147422">
        <ele>1229.1800000000001</ele>
        <time>2025-05-19T09:33:40Z</time>
      </trkpt>
      <trkpt lat="43.999180980026722" lon="7.826455989852548">
        <ele>1236.3900000000001</ele>
        <time>2025-05-19T09:33:49Z</time>
      </trkpt>
      <trkpt lat="43.999188020825386" lon="7.826536959037185">
        <ele>1237.3499999999999</ele>
        <time>2025-05-19T09:33:50Z</time>
      </trkpt>
      <trkpt lat="43.999185003340244" lon="7.82661197707057">
        <ele>1238.8</ele>
        <time>2025-05-19T09:33:51Z</time>
      </trkpt>
      <trkpt lat="43.999137980863452" lon="7.82667500898242">
        <ele>1239.28</ele>
        <time>2025-05-19T09:33:52Z</time>
      </trkpt>
      <trkpt lat="43.999082995578647" lon="7.826752038672566">
        <ele>1240.24</ele>
        <time>2025-05-19T09:33:53Z</time>
      </trkpt>
      <trkpt lat="43.999017030000687" lon="7.826838959008455">
        <ele>1241.2</ele>
        <time>2025-05-19T09:33:54Z</time>
      </trkpt>
      <trkpt lat="43.998931031674147" lon="7.826896039769054">
        <ele>1241.6800000000001</ele>
        <time>2025-05-19T09:33:55Z</time>
      </trkpt>
      <trkpt lat="43.998841010034084" lon="7.826954964548349">
        <ele>1242.1600000000001</ele>
        <time>2025-05-19T09:33:56Z</time>
      </trkpt>
      <trkpt lat="43.998755011707544" lon="7.827011039480567">
        <ele>1243.1199999999999</ele>
        <time>2025-05-19T09:33:57Z</time>
      </trkpt>
      <trkpt lat="43.998334994539618" lon="7.827286971732974">
        <ele>1247.9300000000001</ele>
        <time>2025-05-19T09:34:03Z</time>
      </trkpt>
      <trkpt lat="43.998291995376348" lon="7.827358972281218">
        <ele>1248.4100000000001</ele>
        <time>2025-05-19T09:34:04Z</time>
      </trkpt>
      <trkpt lat="43.998205997049809" lon="7.827500961720944">
        <ele>1249.8499999999999</ele>
        <time>2025-05-19T09:34:06Z</time>
      </trkpt>
      <trkpt lat="43.998194010928273" lon="7.82757799141109">
        <ele>1250.3299999999999</ele>
        <time>2025-05-19T09:34:07Z</time>
      </trkpt>
      <trkpt lat="43.998178001493216" lon="7.827678993344307">
        <ele>1250.8099999999999</ele>
        <time>2025-05-19T09:34:08Z</time>
      </trkpt>
      <trkpt lat="43.998160986229777" lon="7.827789969742298">
        <ele>1251.29</ele>
        <time>2025-05-19T09:34:09Z</time>
      </trkpt>
      <trkpt lat="43.998141959309578" lon="7.827908992767334">
        <ele>1251.77</ele>
        <time>2025-05-19T09:34:10Z</time>
      </trkpt>
      <trkpt lat="43.99812201038003" lon="7.828123988583684">
        <ele>1253.22</ele>
        <time>2025-05-19T09:34:12Z</time>
      </trkpt>
      <trkpt lat="43.998081022873521" lon="7.828214010223746">
        <ele>1253.7</ele>
        <time>2025-05-19T09:34:13Z</time>
      </trkpt>
      <trkpt lat="43.998039029538631" lon="7.828288022428751">
        <ele>1253.7</ele>
        <time>2025-05-19T09:34:14Z</time>
      </trkpt>
      <trkpt lat="43.997984966263175" lon="7.828307971358299">
        <ele>1254.1800000000001</ele>
        <time>2025-05-19T09:34:15Z</time>
      </trkpt>
      <trkpt lat="43.997913971543312" lon="7.828326998278499">
        <ele>1254.6600000000001</ele>
        <time>2025-05-19T09:34:16Z</time>
      </trkpt>
      <trkpt lat="43.997829984873533" lon="7.828349964693189">
        <ele>1254.6600000000001</ele>
        <time>2025-05-19T09:34:17Z</time>
      </trkpt>
      <trkpt lat="43.997739963233471" lon="7.828374020755291">
        <ele>1254.6600000000001</ele>
        <time>2025-05-19T09:34:18Z</time>
      </trkpt>
      <trkpt lat="43.99764901958406" lon="7.828419031575322">
        <ele>1255.1400000000001</ele>
        <time>2025-05-19T09:34:19Z</time>
      </trkpt>
      <trkpt lat="43.99756302125752" lon="7.828470999374986">
        <ele>1255.1400000000001</ele>
        <time>2025-05-19T09:34:20Z</time>
      </trkpt>
      <trkpt lat="43.997485991567373" lon="7.828517016023397">
        <ele>1255.6199999999999</ele>
        <time>2025-05-19T09:34:21Z</time>
      </trkpt>
      <trkpt lat="43.99739102460444" lon="7.828574012964964">
        <ele>1256.0999999999999</ele>
        <time>2025-05-19T09:34:23Z</time>
      </trkpt>
      <trkpt lat="43.997342996299267" lon="7.828529002144933">
        <ele>1256.5799999999999</ele>
        <time>2025-05-19T09:34:24Z</time>
      </trkpt>
      <trkpt lat="43.997315000742674" lon="7.82850201241672">
        <ele>1256.5799999999999</ele>
        <time>2025-05-19T09:34:25Z</time>
      </trkpt>
      <trkpt lat="43.997280970215797" lon="7.828469993546605">
        <ele>1257.0599999999999</ele>
        <time>2025-05-19T09:34:26Z</time>
      </trkpt>
      <trkpt lat="43.997239982709289" lon="7.828431017696858">
        <ele>1257.0599999999999</ele>
        <time>2025-05-19T09:34:27Z</time>
      </trkpt>
      <trkpt lat="43.997197989374399" lon="7.828391036018729">
        <ele>1257.54</ele>
        <time>2025-05-19T09:34:28Z</time>
      </trkpt>
      <trkpt lat="43.99715700186789" lon="7.82835197634995">
        <ele>1257.54</ele>
        <time>2025-05-19T09:34:29Z</time>
      </trkpt>
      <trkpt lat="43.99711299687624" lon="7.82830998301506">
        <ele>1258.02</ele>
        <time>2025-05-19T09:34:30Z</time>
      </trkpt>
      <trkpt lat="43.997067986056209" lon="7.82826698385179">
        <ele>1258.5</ele>
        <time>2025-05-19T09:34:31Z</time>
      </trkpt>
      <trkpt lat="43.997018029913306" lon="7.828219961374998">
        <ele>1258.98</ele>
        <time>2025-05-19T09:34:32Z</time>
      </trkpt>
      <trkpt lat="43.99696203880012" lon="7.828166987746954">
        <ele>1259.46</ele>
        <time>2025-05-19T09:34:33Z</time>
      </trkpt>
      <trkpt lat="43.996907975524664" lon="7.82811501994729">
        <ele>1259.9400000000001</ele>
        <time>2025-05-19T09:34:34Z</time>
      </trkpt>
      <trkpt lat="43.996647968888283" lon="7.827868005260825">
        <ele>1261.8699999999999</ele>
        <time>2025-05-19T09:34:38Z</time>
      </trkpt>
      <trkpt lat="43.996589966118336" lon="7.827812014147639">
        <ele>1261.8699999999999</ele>
        <time>2025-05-19T09:34:39Z</time>
      </trkpt>
      <trkpt lat="43.99644797667861" lon="7.827775971964002">
        <ele>1262.3499999999999</ele>
        <time>2025-05-19T09:34:40Z</time>
      </trkpt>
      <trkpt lat="43.996370024979115" lon="7.827824000269175">
        <ele>1262.8299999999999</ele>
        <time>2025-05-19T09:34:41Z</time>
      </trkpt>
      <trkpt lat="43.996286038309336" lon="7.827875968068838">
        <ele>1263.79</ele>
        <time>2025-05-19T09:34:42Z</time>
      </trkpt>
      <trkpt lat="43.996182018890977" lon="7.827973030507565">
        <ele>1264.75</ele>
        <time>2025-05-19T09:34:43Z</time>
      </trkpt>
      <trkpt lat="43.996032988652587" lon="7.828166987746954">
        <ele>1266.1900000000001</ele>
        <time>2025-05-19T09:34:45Z</time>
      </trkpt>
      <trkpt lat="43.995959982275963" lon="7.828261032700539">
        <ele>1266.6700000000001</ele>
        <time>2025-05-19T09:34:46Z</time>
      </trkpt>
      <trkpt lat="43.99586702696979" lon="7.828383995220065">
        <ele>1267.6400000000001</ele>
        <time>2025-05-19T09:34:47Z</time>
      </trkpt>
      <trkpt lat="43.99584699422121" lon="7.828518021851778">
        <ele>1268.1199999999999</ele>
        <time>2025-05-19T09:34:48Z</time>
      </trkpt>
      <trkpt lat="43.995826961472631" lon="7.828654982149601">
        <ele>1268.5999999999999</ele>
        <time>2025-05-19T09:34:49Z</time>
      </trkpt>
      <trkpt lat="43.995600985363126" lon="7.829525023698807">
        <ele>1275.3299999999999</ele>
        <time>2025-05-19T09:34:56Z</time>
      </trkpt>
      <trkpt lat="43.99554499424994" lon="7.829669024795294">
        <ele>1276.29</ele>
        <time>2025-05-19T09:34:57Z</time>
      </trkpt>
      <trkpt lat="43.995490008965135" lon="7.830072026699781">
        <ele>1280.1300000000001</ele>
        <time>2025-05-19T09:35:00Z</time>
      </trkpt>
      <trkpt lat="43.995031015947461" lon="7.831449005752802">
        <ele>1294.0699999999999</ele>
        <time>2025-05-19T09:35:09Z</time>
      </trkpt>
      <trkpt lat="43.994644023478031" lon="7.832307983189821">
        <ele>1303.6900000000001</ele>
        <time>2025-05-19T09:35:15Z</time>
      </trkpt>
      <trkpt lat="43.994473032653332" lon="7.832478974014521">
        <ele>1306.5699999999999</ele>
        <time>2025-05-19T09:35:17Z</time>
      </trkpt>
      <trkpt lat="43.994215037673712" lon="7.832736968994141">
        <ele>1310.9000000000001</ele>
        <time>2025-05-19T09:35:20Z</time>
      </trkpt>
      <trkpt lat="43.994125016033649" lon="7.832826990634203">
        <ele>1312.3399999999999</ele>
        <time>2025-05-19T09:35:21Z</time>
      </trkpt>
      <trkpt lat="43.993133017793298" lon="7.833871962502599">
        <ele>1326.28</ele>
        <time>2025-05-19T09:35:31Z</time>
      </trkpt>
      <trkpt lat="43.993016006425023" lon="7.833943963050842">
        <ele>1327.72</ele>
        <time>2025-05-19T09:35:32Z</time>
      </trkpt>
      <trkpt lat="43.992685005068779" lon="7.834132974967361">
        <ele>1332.04</ele>
        <time>2025-05-19T09:35:35Z</time>
      </trkpt>
      <trkpt lat="43.992589032277465" lon="7.834139009937644">
        <ele>1333.01</ele>
        <time>2025-05-19T09:35:36Z</time>
      </trkpt>
      <trkpt lat="43.992489036172628" lon="7.834144961088896">
        <ele>1333.97</ele>
        <time>2025-05-19T09:35:37Z</time>
      </trkpt>
      <trkpt lat="43.992130039259791" lon="7.834184020757675">
        <ele>1337.8099999999999</ele>
        <time>2025-05-19T09:35:41Z</time>
      </trkpt>
      <trkpt lat="43.992054015398026" lon="7.83419500105083">
        <ele>1338.77</ele>
        <time>2025-05-19T09:35:42Z</time>
      </trkpt>
      <trkpt lat="43.992002969607711" lon="7.834245041012764">
        <ele>1339.73</ele>
        <time>2025-05-19T09:35:43Z</time>
      </trkpt>
      <trkpt lat="43.991930969059467" lon="7.834322992712259">
        <ele>1340.22</ele>
        <time>2025-05-19T09:35:44Z</time>
      </trkpt>
      <trkpt lat="43.991930969059467" lon="7.834322992712259">
        <ele>1341.1800000000001</ele>
        <time>2025-05-19T09:35:45Z</time>
      </trkpt>
      <trkpt lat="43.991753021255136" lon="7.834486020728946">
        <ele>1342.1400000000001</ele>
        <time>2025-05-19T09:35:46Z</time>
      </trkpt>
      <trkpt lat="43.99165503680706" lon="7.83454000018537">
        <ele>1343.0999999999999</ele>
        <time>2025-05-19T09:35:47Z</time>
      </trkpt>
      <trkpt lat="43.991468958556652" lon="7.834642007946968">
        <ele>1345.5</ele>
        <time>2025-05-19T09:35:49Z</time>
      </trkpt>
      <trkpt lat="43.991381032392383" lon="7.83469095826149">
        <ele>1346.46</ele>
        <time>2025-05-19T09:35:50Z</time>
      </trkpt>
      <trkpt lat="43.99105497635901" lon="7.834995975717902">
        <ele>1350.79</ele>
        <time>2025-05-19T09:35:54Z</time>
      </trkpt>
      <trkpt lat="43.990965960547328" lon="7.835007961839438">
        <ele>1351.27</ele>
        <time>2025-05-19T09:35:55Z</time>
      </trkpt>
      <trkpt lat="43.99088398553431" lon="7.835004022344947">
        <ele>1351.75</ele>
        <time>2025-05-19T09:35:56Z</time>
      </trkpt>
      <trkpt lat="43.990807039663196" lon="7.834999999031425">
        <ele>1352.71</ele>
        <time>2025-05-19T09:35:57Z</time>
      </trkpt>
      <trkpt lat="43.990737972781062" lon="7.834995975717902">
        <ele>1353.1900000000001</ele>
        <time>2025-05-19T09:35:58Z</time>
      </trkpt>
      <trkpt lat="43.990677036345005" lon="7.83499295823276">
        <ele>1354.1500000000001</ele>
        <time>2025-05-19T09:35:59Z</time>
      </trkpt>
      <trkpt lat="43.990626996383071" lon="7.834991030395031">
        <ele>1354.6300000000001</ele>
        <time>2025-05-19T09:36:00Z</time>
      </trkpt>
      <trkpt lat="43.990609981119633" lon="7.83499002456665">
        <ele>1355.5999999999999</ele>
        <time>2025-05-19T09:36:01Z</time>
      </trkpt>
      <trkpt lat="43.990634037181735" lon="7.835061019286513">
        <ele>1356.0799999999999</ele>
        <time>2025-05-19T09:36:02Z</time>
      </trkpt>
      <trkpt lat="43.990652980282903" lon="7.83511902205646">
        <ele>1356.5599999999999</ele>
        <time>2025-05-19T09:36:03Z</time>
      </trkpt>
      <trkpt lat="43.990712994709611" lon="7.835122961550951">
        <ele>1357.04</ele>
        <time>2025-05-19T09:36:04Z</time>
      </trkpt>
      <trkpt lat="43.990780971944332" lon="7.835127990692854">
        <ele>1358</ele>
        <time>2025-05-19T09:36:05Z</time>
      </trkpt>
      <trkpt lat="43.990862024948001" lon="7.835134025663137">
        <ele>1358.48</ele>
        <time>2025-05-19T09:36:06Z</time>
      </trkpt>
      <trkpt lat="43.991109961643815" lon="7.835070993751288">
        <ele>1359.9200000000001</ele>
        <time>2025-05-19T09:36:09Z</time>
      </trkpt>
      <trkpt lat="43.991969022899866" lon="7.834692969918251">
        <ele>1365.21</ele>
        <time>2025-05-19T09:36:18Z</time>
      </trkpt>
      <trkpt lat="43.99225702509284" lon="7.834575958549976">
        <ele>1367.6099999999999</ele>
        <time>2025-05-19T09:36:21Z</time>
      </trkpt>
      <trkpt lat="43.992346962913871" lon="7.83455902710557">
        <ele>1368.5699999999999</ele>
        <time>2025-05-19T09:36:22Z</time>
      </trkpt>
      <trkpt lat="43.992456011474133" lon="7.83454000018537">
        <ele>1369.05</ele>
        <time>2025-05-19T09:36:23Z</time>
      </trkpt>
      <trkpt lat="43.992533963173628" lon="7.834573024883866">
        <ele>1369.54</ele>
        <time>2025-05-19T09:36:24Z</time>
      </trkpt>
      <trkpt lat="43.992627002298832" lon="7.834613006561995">
        <ele>1370.02</ele>
        <time>2025-05-19T09:36:25Z</time>
      </trkpt>
      <trkpt lat="43.992720963433385" lon="7.834652988240123">
        <ele>1370.98</ele>
        <time>2025-05-19T09:36:26Z</time>
      </trkpt>
      <trkpt lat="43.992819031700492" lon="7.834658017382026">
        <ele>1371.46</ele>
        <time>2025-05-19T09:36:27Z</time>
      </trkpt>
      <trkpt lat="43.992908969521523" lon="7.834634967148304">
        <ele>1371.9400000000001</ele>
        <time>2025-05-19T09:36:28Z</time>
      </trkpt>
      <trkpt lat="43.992995973676443" lon="7.834590040147305">
        <ele>1372.9000000000001</ele>
        <time>2025-05-19T09:36:29Z</time>
      </trkpt>
      <trkpt lat="43.993088006973267" lon="7.834544023498893">
        <ele>1373.3800000000001</ele>
        <time>2025-05-19T09:36:30Z</time>
      </trkpt>
      <trkpt lat="43.993484973907471" lon="7.834343025460839">
        <ele>1375.78</ele>
        <time>2025-05-19T09:36:34Z</time>
      </trkpt>
      <trkpt lat="43.993592010810971" lon="7.834288962185383">
        <ele>1376.75</ele>
        <time>2025-05-19T09:36:35Z</time>
      </trkpt>
      <trkpt lat="43.993698041886091" lon="7.834234982728958">
        <ele>1377.23</ele>
        <time>2025-05-19T09:36:36Z</time>
      </trkpt>
      <trkpt lat="43.994558025151491" lon="7.833813037723303">
        <ele>1383.96</ele>
        <time>2025-05-19T09:36:44Z</time>
      </trkpt>
      <trkpt lat="43.994650980457664" lon="7.833785964176059">
        <ele>1384.9200000000001</ele>
        <time>2025-05-19T09:36:45Z</time>
      </trkpt>
      <trkpt lat="43.994920961558819" lon="7.833707006648183">
        <ele>1386.8399999999999</ele>
        <time>2025-05-19T09:36:48Z</time>
      </trkpt>
      <trkpt lat="43.99522396735847" lon="7.833552025258541">
        <ele>1388.76</ele>
        <time>2025-05-19T09:36:53Z</time>
      </trkpt>
      <trkpt lat="43.995318012312055" lon="7.833609022200108">
        <ele>1388.76</ele>
        <time>2025-05-19T09:36:54Z</time>
      </trkpt>
      <trkpt lat="43.995331004261971" lon="7.833616985008121">
        <ele>1389.24</ele>
        <time>2025-05-19T09:36:55Z</time>
      </trkpt>
      <trkpt lat="43.995326980948448" lon="7.833645986393094">
        <ele>1389.24</ele>
        <time>2025-05-19T09:36:56Z</time>
      </trkpt>
      <trkpt lat="43.995318012312055" lon="7.833718992769718">
        <ele>1389.72</ele>
        <time>2025-05-19T09:36:57Z</time>
      </trkpt>
      <trkpt lat="43.995308959856629" lon="7.83378797583282">
        <ele>1390.2</ele>
        <time>2025-05-19T09:36:58Z</time>
      </trkpt>
      <trkpt lat="43.995273001492023" lon="7.833842961117625">
        <ele>1390.6800000000001</ele>
        <time>2025-05-19T09:36:59Z</time>
      </trkpt>
      <trkpt lat="43.995238970965147" lon="7.833895012736321">
        <ele>1391.1700000000001</ele>
        <time>2025-05-19T09:37:00Z</time>
      </trkpt>
      <trkpt lat="43.995208963751793" lon="7.833940023556352">
        <ele>1391.1700000000001</ele>
        <time>2025-05-19T09:37:01Z</time>
      </trkpt>
      <trkpt lat="43.995182979851961" lon="7.83398000523448">
        <ele>1391.6500000000001</ele>
        <time>2025-05-19T09:37:02Z</time>
      </trkpt>
      <trkpt lat="43.995160013437271" lon="7.834015041589737">
        <ele>1392.1300000000001</ele>
        <time>2025-05-19T09:37:03Z</time>
      </trkpt>
      <trkpt lat="43.995132017880678" lon="7.834057034924626">
        <ele>1392.1300000000001</ele>
        <time>2025-05-19T09:37:04Z</time>
      </trkpt>
      <trkpt lat="43.994918027892709" lon="7.834380995482206">
        <ele>1393.5699999999999</ele>
        <time>2025-05-19T09:37:09Z</time>
      </trkpt>
      <trkpt lat="43.994801016524434" lon="7.83455902710557">
        <ele>1393.0899999999999</ele>
        <time>2025-05-19T09:37:11Z</time>
      </trkpt>
      <trkpt lat="43.994738990440965" lon="7.834652988240123">
        <ele>1393.0899999999999</ele>
        <time>2025-05-19T09:37:12Z</time>
      </trkpt>
      <trkpt lat="43.994674030691385" lon="7.834749966859818">
        <ele>1392.6099999999999</ele>
        <time>2025-05-19T09:37:13Z</time>
      </trkpt>
      <trkpt lat="43.994613010436296" lon="7.834843005985022">
        <ele>1392.1300000000001</ele>
        <time>2025-05-19T09:37:14Z</time>
      </trkpt>
      <trkpt lat="43.994558025151491" lon="7.83492598682642">
        <ele>1392.1300000000001</ele>
        <time>2025-05-19T09:37:15Z</time>
      </trkpt>
      <trkpt lat="43.994418969377875" lon="7.835080968216062">
        <ele>1391.6500000000001</ele>
        <time>2025-05-19T09:37:17Z</time>
      </trkpt>
      <trkpt lat="43.994236998260021" lon="7.835284983739257">
        <ele>1390.6800000000001</ele>
        <time>2025-05-19T09:37:20Z</time>
      </trkpt>
      <trkpt lat="43.994127027690411" lon="7.835408030077815">
        <ele>1390.6800000000001</ele>
        <time>2025-05-19T09:37:22Z</time>
      </trkpt>
      <trkpt lat="43.994009010493755" lon="7.835539039224386">
        <ele>1390.6800000000001</ele>
        <time>2025-05-19T09:37:24Z</time>
      </trkpt>
      <trkpt lat="43.993951007723808" lon="7.835605004802346">
        <ele>1390.6800000000001</ele>
        <time>2025-05-19T09:37:25Z</time>
      </trkpt>
      <trkpt lat="43.993895016610622" lon="7.835668036714196">
        <ele>1390.2</ele>
        <time>2025-05-19T09:37:26Z</time>
      </trkpt>
      <trkpt lat="43.993828967213631" lon="7.835740959271789">
        <ele>1390.2</ele>
        <time>2025-05-19T09:37:27Z</time>
      </trkpt>
      <trkpt lat="43.993809018284082" lon="7.8357869759202">
        <ele>1389.72</ele>
        <time>2025-05-19T09:37:28Z</time>
      </trkpt>
      <trkpt lat="43.993783034384251" lon="7.835847996175289">
        <ele>1389.72</ele>
        <time>2025-05-19T09:37:29Z</time>
      </trkpt>
      <trkpt lat="43.993682032451034" lon="7.83608696423471">
        <ele>1387.3199999999999</ele>
        <time>2025-05-19T09:37:32Z</time>
      </trkpt>
      <trkpt lat="43.993641966953874" lon="7.836180003359914">
        <ele>1386.8399999999999</ele>
        <time>2025-05-19T09:37:33Z</time>
      </trkpt>
      <trkpt lat="43.993600979447365" lon="7.836276981979609">
        <ele>1386.3599999999999</ele>
        <time>2025-05-19T09:37:34Z</time>
      </trkpt>
      <trkpt lat="43.993568038567901" lon="7.836357029154897">
        <ele>1386.3599999999999</ele>
        <time>2025-05-19T09:37:35Z</time>
      </trkpt>
      <trkpt lat="43.99352696724236" lon="7.83645099028945">
        <ele>1385.8800000000001</ele>
        <time>2025-05-19T09:37:36Z</time>
      </trkpt>
      <trkpt lat="43.993315994739532" lon="7.836689036339521">
        <ele>1384.9200000000001</ele>
        <time>2025-05-19T09:37:39Z</time>
      </trkpt>
      <trkpt lat="43.99324600584805" lon="7.836767993867397">
        <ele>1384.4400000000001</ele>
        <time>2025-05-19T09:37:40Z</time>
      </trkpt>
      <trkpt lat="43.993183979764581" lon="7.83683798275888">
        <ele>1384.4400000000001</ele>
        <time>2025-05-19T09:37:41Z</time>
      </trkpt>
      <trkpt lat="43.993127988651395" lon="7.83690101467073">
        <ele>1384.4400000000001</ele>
        <time>2025-05-19T09:37:42Z</time>
      </trkpt>
      <trkpt lat="43.993065962567925" lon="7.836971003562212">
        <ele>1384.4400000000001</ele>
        <time>2025-05-19T09:37:43Z</time>
      </trkpt>
      <trkpt lat="43.99301097728312" lon="7.837034035474062">
        <ele>1384.4400000000001</ele>
        <time>2025-05-19T09:37:44Z</time>
      </trkpt>
      <trkpt lat="43.992961021140218" lon="7.837089020758867">
        <ele>1384.9200000000001</ele>
        <time>2025-05-19T09:37:45Z</time>
      </trkpt>
      <trkpt lat="43.992919027805328" lon="7.837137971073389">
        <ele>1384.4400000000001</ele>
        <time>2025-05-19T09:37:46Z</time>
      </trkpt>
      <trkpt lat="43.992863036692142" lon="7.837277026847005">
        <ele>1384.4400000000001</ele>
        <time>2025-05-19T09:37:48Z</time>
      </trkpt>
      <trkpt lat="43.992863036692142" lon="7.837330000475049">
        <ele>1384.4400000000001</ele>
        <time>2025-05-19T09:37:49Z</time>
      </trkpt>
      <trkpt lat="43.992913998663425" lon="7.837683968245983">
        <ele>1382.51</ele>
        <time>2025-05-19T09:37:54Z</time>
      </trkpt>
      <trkpt lat="43.992997985333204" lon="7.83801899291575">
        <ele>1381.55</ele>
        <time>2025-05-19T09:37:59Z</time>
      </trkpt>
      <trkpt lat="43.993032015860081" lon="7.838189983740449">
        <ele>1380.5899999999999</ele>
        <time>2025-05-19T09:38:01Z</time>
      </trkpt>
      <trkpt lat="43.993164030835032" lon="7.838831031695008">
        <ele>1379.6300000000001</ele>
        <time>2025-05-19T09:38:07Z</time>
      </trkpt>
      <trkpt lat="43.993162019178271" lon="7.838966986164451">
        <ele>1378.6700000000001</ele>
        <time>2025-05-19T09:38:08Z</time>
      </trkpt>
      <trkpt lat="43.99316000752151" lon="7.839086009189487">
        <ele>1378.1900000000001</ele>
        <time>2025-05-19T09:38:09Z</time>
      </trkpt>
      <trkpt lat="43.993157995864749" lon="7.839206038042903">
        <ele>1377.23</ele>
        <time>2025-05-19T09:38:10Z</time>
      </trkpt>
      <trkpt lat="43.993155984207988" lon="7.839312991127372">
        <ele>1376.75</ele>
        <time>2025-05-19T09:38:11Z</time>
      </trkpt>
      <trkpt lat="43.993154978379607" lon="7.839418016374111">
        <ele>1376.26</ele>
        <time>2025-05-19T09:38:12Z</time>
      </trkpt>
      <trkpt lat="43.993152966722846" lon="7.839523041620851">
        <ele>1375.3</ele>
        <time>2025-05-19T09:38:13Z</time>
      </trkpt>
      <trkpt lat="43.993150033056736" lon="7.839747006073594">
        <ele>1374.3399999999999</ele>
        <time>2025-05-19T09:38:15Z</time>
      </trkpt>
      <trkpt lat="43.993148021399975" lon="7.839860999956727">
        <ele>1374.3399999999999</ele>
        <time>2025-05-19T09:38:16Z</time>
      </trkpt>
      <trkpt lat="43.993142992258072" lon="7.84016702324152">
        <ele>1372.4200000000001</ele>
        <time>2025-05-19T09:38:20Z</time>
      </trkpt>
      <trkpt lat="43.993148021399975" lon="7.840264001861215">
        <ele>1372.4200000000001</ele>
        <time>2025-05-19T09:38:21Z</time>
      </trkpt>
      <trkpt lat="43.993168976157904" lon="7.840330973267555">
        <ele>1372.4200000000001</ele>
        <time>2025-05-19T09:38:22Z</time>
      </trkpt>
      <trkpt lat="43.993335021659732" lon="7.840847969055176">
        <ele>1371.46</ele>
        <time>2025-05-19T09:38:31Z</time>
      </trkpt>
      <trkpt lat="43.993348013609648" lon="7.840934973210096">
        <ele>1370.98</ele>
        <time>2025-05-19T09:38:32Z</time>
      </trkpt>
      <trkpt lat="43.993361005559564" lon="7.841024994850159">
        <ele>1370.5</ele>
        <time>2025-05-19T09:38:33Z</time>
      </trkpt>
      <trkpt lat="43.99354599416256" lon="7.842067033052445">
        <ele>1367.1300000000001</ele>
        <time>2025-05-19T09:38:42Z</time>
      </trkpt>
      <trkpt lat="43.993591004982591" lon="7.84220902249217">
        <ele>1367.1300000000001</ele>
        <time>2025-05-19T09:38:43Z</time>
      </trkpt>
      <trkpt lat="43.993635009974241" lon="7.842344976961613">
        <ele>1367.1300000000001</ele>
        <time>2025-05-19T09:38:44Z</time>
      </trkpt>
      <trkpt lat="43.993664011359215" lon="7.8424889780581">
        <ele>1366.6500000000001</ele>
        <time>2025-05-19T09:38:45Z</time>
      </trkpt>
      <trkpt lat="43.993678009137511" lon="7.842645971104503">
        <ele>1366.1700000000001</ele>
        <time>2025-05-19T09:38:46Z</time>
      </trkpt>
      <trkpt lat="43.993693012744188" lon="7.842824002727866">
        <ele>1364.73</ele>
        <time>2025-05-19T09:38:47Z</time>
      </trkpt>
      <trkpt lat="43.993708016350865" lon="7.842994993552566">
        <ele>1362.8099999999999</ele>
        <time>2025-05-19T09:38:48Z</time>
      </trkpt>
      <trkpt lat="43.993715979158878" lon="7.84317503683269">
        <ele>1361.3599999999999</ele>
        <time>2025-05-19T09:38:49Z</time>
      </trkpt>
      <trkpt lat="43.993693012744188" lon="7.843314008787274">
        <ele>1360.4000000000001</ele>
        <time>2025-05-19T09:38:50Z</time>
      </trkpt>
      <trkpt lat="43.993646996095777" lon="7.843472007662058">
        <ele>1359.9200000000001</ele>
        <time>2025-05-19T09:38:51Z</time>
      </trkpt>
      <trkpt lat="43.993593016639352" lon="7.843591030687094">
        <ele>1358.96</ele>
        <time>2025-05-19T09:38:52Z</time>
      </trkpt>
      <trkpt lat="43.993538031354547" lon="7.843710975721479">
        <ele>1358</ele>
        <time>2025-05-19T09:38:53Z</time>
      </trkpt>
      <trkpt lat="43.993464019149542" lon="7.843874003738165">
        <ele>1357.52</ele>
        <time>2025-05-19T09:38:54Z</time>
      </trkpt>
      <trkpt lat="43.993437029421329" lon="7.843946004286408">
        <ele>1356.5599999999999</ele>
        <time>2025-05-19T09:38:55Z</time>
      </trkpt>
      <trkpt lat="43.993386989459395" lon="7.844079025089741">
        <ele>1355.5999999999999</ele>
        <time>2025-05-19T09:38:56Z</time>
      </trkpt>
      <trkpt lat="43.992979964241385" lon="7.845126008614898">
        <ele>1341.1800000000001</ele>
        <time>2025-05-19T09:39:03Z</time>
      </trkpt>
      <trkpt lat="43.992911987006664" lon="7.845228016376495">
        <ele>1338.77</ele>
        <time>2025-05-19T09:39:04Z</time>
      </trkpt>
      <trkpt lat="43.992719035595655" lon="7.845232961699367">
        <ele>1333.49</ele>
        <time>2025-05-19T09:39:07Z</time>
      </trkpt>
      <trkpt lat="43.992668995633721" lon="7.845221981406212">
        <ele>1332.04</ele>
        <time>2025-05-19T09:39:08Z</time>
      </trkpt>
      <trkpt lat="43.992601018399" lon="7.845207983627915">
        <ele>1330.1199999999999</ele>
        <time>2025-05-19T09:39:09Z</time>
      </trkpt>
      <trkpt lat="43.992584003135562" lon="7.845203960314393">
        <ele>1328.2</ele>
        <time>2025-05-19T09:39:10Z</time>
      </trkpt>
      <trkpt lat="43.99245198816061" lon="7.845150986686349">
        <ele>1326.76</ele>
        <time>2025-05-19T09:39:11Z</time>
      </trkpt>
      <trkpt lat="43.992356015369296" lon="7.845113016664982">
        <ele>1324.8299999999999</ele>
        <time>2025-05-19T09:39:12Z</time>
      </trkpt>
      <trkpt lat="43.992261970415711" lon="7.845074962824583">
        <ele>1322.9100000000001</ele>
        <time>2025-05-19T09:39:13Z</time>
      </trkpt>
      <trkpt lat="43.992218971252441" lon="7.845030035823584">
        <ele>1320.99</ele>
        <time>2025-05-19T09:39:14Z</time>
      </trkpt>
      <trkpt lat="43.992143031209707" lon="7.844949988648295">
        <ele>1319.0699999999999</ele>
        <time>2025-05-19T09:39:15Z</time>
      </trkpt>
      <trkpt lat="43.992060972377658" lon="7.844863990321755">
        <ele>1317.6199999999999</ele>
        <time>2025-05-19T09:39:16Z</time>
      </trkpt>
      <trkpt lat="43.991900039836764" lon="7.844695011153817">
        <ele>1313.78</ele>
        <time>2025-05-19T09:39:18Z</time>
      </trkpt>
      <trkpt lat="43.991804989054799" lon="7.844602977856994">
        <ele>1312.3399999999999</ele>
        <time>2025-05-19T09:39:19Z</time>
      </trkpt>
      <trkpt lat="43.991733994334936" lon="7.844602977856994">
        <ele>1310.4100000000001</ele>
        <time>2025-05-19T09:39:20Z</time>
      </trkpt>
      <trkpt lat="43.991661993786693" lon="7.844602977856994">
        <ele>1308.49</ele>
        <time>2025-05-19T09:39:21Z</time>
      </trkpt>
      <trkpt lat="43.991606002673507" lon="7.844733987003565">
        <ele>1306.5699999999999</ele>
        <time>2025-05-19T09:39:22Z</time>
      </trkpt>
      <trkpt lat="43.991565015166998" lon="7.844829959794879">
        <ele>1304.6500000000001</ele>
        <time>2025-05-19T09:39:23Z</time>
      </trkpt>
      <trkpt lat="43.99152503348887" lon="7.844925010576844">
        <ele>1302.24</ele>
        <time>2025-05-19T09:39:24Z</time>
      </trkpt>
      <trkpt lat="43.99148496799171" lon="7.845018971711397">
        <ele>1300.3199999999999</ele>
        <time>2025-05-19T09:39:25Z</time>
      </trkpt>
      <trkpt lat="43.991443980485201" lon="7.845116034150124">
        <ele>1298.4000000000001</ele>
        <time>2025-05-19T09:39:26Z</time>
      </trkpt>
      <trkpt lat="43.991402992978692" lon="7.845212006941438">
        <ele>1296.48</ele>
        <time>2025-05-19T09:39:27Z</time>
      </trkpt>
      <trkpt lat="43.991365022957325" lon="7.845303034409881">
        <ele>1295.03</ele>
        <time>2025-05-19T09:39:28Z</time>
      </trkpt>
      <trkpt lat="43.991265026852489" lon="7.845339998602867">
        <ele>1294.0699999999999</ele>
        <time>2025-05-19T09:39:29Z</time>
      </trkpt>
      <trkpt lat="43.991200989112258" lon="7.845359025523067">
        <ele>1292.6300000000001</ele>
        <time>2025-05-19T09:39:30Z</time>
      </trkpt>
      <trkpt lat="43.991132006049156" lon="7.845379980280995">
        <ele>1291.6700000000001</ele>
        <time>2025-05-19T09:39:31Z</time>
      </trkpt>
      <trkpt lat="43.991060005500913" lon="7.845402024686337">
        <ele>1290.23</ele>
        <time>2025-05-19T09:39:32Z</time>
      </trkpt>
      <trkpt lat="43.990932013839483" lon="7.845439994707704">
        <ele>1287.3399999999999</ele>
        <time>2025-05-19T09:39:34Z</time>
      </trkpt>
      <trkpt lat="43.990901000797749" lon="7.845503026619554">
        <ele>1285.4200000000001</ele>
        <time>2025-05-19T09:39:35Z</time>
      </trkpt>
      <trkpt lat="43.990873005241156" lon="7.845557006075978">
        <ele>1283.5</ele>
        <time>2025-05-19T09:39:36Z</time>
      </trkpt>
      <trkpt lat="43.990864036604762" lon="7.845592964440584">
        <ele>1281.5699999999999</ele>
        <time>2025-05-19T09:39:37Z</time>
      </trkpt>
      <trkpt lat="43.990851966664195" lon="7.845663959160447">
        <ele>1279.6500000000001</ele>
        <time>2025-05-19T09:39:38Z</time>
      </trkpt>
      <trkpt lat="43.99083998054266" lon="7.845738977193832">
        <ele>1277.73</ele>
        <time>2025-05-19T09:39:39Z</time>
      </trkpt>
      <trkpt lat="43.990827994421124" lon="7.845819024369121">
        <ele>1276.29</ele>
        <time>2025-05-19T09:39:40Z</time>
      </trkpt>
      <trkpt lat="43.990813996642828" lon="7.845902005210519">
        <ele>1275.3299999999999</ele>
        <time>2025-05-19T09:39:41Z</time>
      </trkpt>
      <trkpt lat="43.990470003336668" lon="7.846889980137348">
        <ele>1263.3099999999999</ele>
        <time>2025-05-19T09:39:51Z</time>
      </trkpt>
      <trkpt lat="43.990353997796774" lon="7.847185023128986">
        <ele>1260.4300000000001</ele>
        <time>2025-05-19T09:39:54Z</time>
      </trkpt>
      <trkpt lat="43.990320973098278" lon="7.847268003970385">
        <ele>1259.9400000000001</ele>
        <time>2025-05-19T09:39:55Z</time>
      </trkpt>
      <trkpt lat="43.990275040268898" lon="7.847362970933318">
        <ele>1258.98</ele>
        <time>2025-05-19T09:39:56Z</time>
      </trkpt>
      <trkpt lat="43.990227011963725" lon="7.847410999238491">
        <ele>1258.02</ele>
        <time>2025-05-19T09:39:57Z</time>
      </trkpt>
      <trkpt lat="43.990180995315313" lon="7.847457015886903">
        <ele>1257.54</ele>
        <time>2025-05-19T09:39:58Z</time>
      </trkpt>
      <trkpt lat="43.990103965625167" lon="7.847510995343328">
        <ele>1257.0599999999999</ele>
        <time>2025-05-19T09:39:59Z</time>
      </trkpt>
      <trkpt lat="43.99004403501749" lon="7.847531028091908">
        <ele>1256.5799999999999</ele>
        <time>2025-05-19T09:40:00Z</time>
      </trkpt>
      <trkpt lat="43.989944960922003" lon="7.847563968971372">
        <ele>1256.0999999999999</ele>
        <time>2025-05-19T09:40:01Z</time>
      </trkpt>
      <trkpt lat="43.989939009770751" lon="7.84758098423481">
        <ele>1255.1400000000001</ele>
        <time>2025-05-19T09:40:02Z</time>
      </trkpt>
      <trkpt lat="43.989909002557397" lon="7.847673017531633">
        <ele>1254.6600000000001</ele>
        <time>2025-05-19T09:40:03Z</time>
      </trkpt>
      <trkpt lat="43.989858962595463" lon="7.847821963950992">
        <ele>1254.1800000000001</ele>
        <time>2025-05-19T09:40:04Z</time>
      </trkpt>
      <trkpt lat="43.989803977310658" lon="7.847877033054829">
        <ele>1253.22</ele>
        <time>2025-05-19T09:40:05Z</time>
      </trkpt>
      <trkpt lat="43.989747986197472" lon="7.847933024168015">
        <ele>1252.74</ele>
        <time>2025-05-19T09:40:06Z</time>
      </trkpt>
      <trkpt lat="43.989709010347724" lon="7.847972000017762">
        <ele>1251.29</ele>
        <time>2025-05-19T09:40:07Z</time>
      </trkpt>
      <trkpt lat="43.989714961498976" lon="7.848034026101232">
        <ele>1250.3299999999999</ele>
        <time>2025-05-19T09:40:08Z</time>
      </trkpt>
      <trkpt lat="43.989729965105653" lon="7.848208034411073">
        <ele>1249.3699999999999</ele>
        <time>2025-05-19T09:40:09Z</time>
      </trkpt>
      <trkpt lat="43.989734994247556" lon="7.848221026360989">
        <ele>1248.4100000000001</ele>
        <time>2025-05-19T09:40:10Z</time>
      </trkpt>
      <trkpt lat="43.989770030602813" lon="7.848321022465825">
        <ele>1246.97</ele>
        <time>2025-05-19T09:40:11Z</time>
      </trkpt>
      <trkpt lat="43.98980900645256" lon="7.848430993035436">
        <ele>1246.01</ele>
        <time>2025-05-19T09:40:12Z</time>
      </trkpt>
      <trkpt lat="43.989849993959069" lon="7.84854699857533">
        <ele>1244.5599999999999</ele>
        <time>2025-05-19T09:40:13Z</time>
      </trkpt>
      <trkpt lat="43.989867009222507" lon="7.848658980801702">
        <ele>1243.5999999999999</ele>
        <time>2025-05-19T09:40:14Z</time>
      </trkpt>
      <trkpt lat="43.989881007000804" lon="7.848809016868472">
        <ele>1242.1600000000001</ele>
        <time>2025-05-19T09:40:15Z</time>
      </trkpt>
      <trkpt lat="43.989860974252224" lon="7.848899038508534">
        <ele>1241.2</ele>
        <time>2025-05-19T09:40:16Z</time>
      </trkpt>
      <trkpt lat="43.989838007837534" lon="7.849001968279481">
        <ele>1240.24</ele>
        <time>2025-05-19T09:40:17Z</time>
      </trkpt>
      <trkpt lat="43.989786962047219" lon="7.849112022668123">
        <ele>1238.8</ele>
        <time>2025-05-19T09:40:18Z</time>
      </trkpt>
      <trkpt lat="43.989751003682613" lon="7.849188968539238">
        <ele>1237.8299999999999</ele>
        <time>2025-05-19T09:40:19Z</time>
      </trkpt>
      <trkpt lat="43.989733988419175" lon="7.849329030141234">
        <ele>1236.8699999999999</ele>
        <time>2025-05-19T09:40:20Z</time>
      </trkpt>
      <trkpt lat="43.989775981754065" lon="7.849412010982633">
        <ele>1235.9100000000001</ele>
        <time>2025-05-19T09:40:21Z</time>
      </trkpt>
      <trkpt lat="43.989823004230857" lon="7.849502032622695">
        <ele>1234.95</ele>
        <time>2025-05-19T09:40:22Z</time>
      </trkpt>
      <trkpt lat="43.98987203836441" lon="7.849596999585629">
        <ele>1233.99</ele>
        <time>2025-05-19T09:40:23Z</time>
      </trkpt>
      <trkpt lat="43.989920988678932" lon="7.849691966548562">
        <ele>1233.03</ele>
        <time>2025-05-19T09:40:24Z</time>
      </trkpt>
      <trkpt lat="43.990016039460897" lon="7.849875027313829">
        <ele>1230.6199999999999</ele>
        <time>2025-05-19T09:40:26Z</time>
      </trkpt>
      <trkpt lat="43.99004302918911" lon="7.849964965134859">
        <ele>1229.6600000000001</ele>
        <time>2025-05-19T09:40:27Z</time>
      </trkpt>
      <trkpt lat="43.99004302918911" lon="7.850043000653386">
        <ele>1228.7</ele>
        <time>2025-05-19T09:40:28Z</time>
      </trkpt>
      <trkpt lat="43.990008998662233" lon="7.850161017850041">
        <ele>1228.22</ele>
        <time>2025-05-19T09:40:29Z</time>
      </trkpt>
      <trkpt lat="43.98993699811399" lon="7.850212985649705">
        <ele>1227.26</ele>
        <time>2025-05-19T09:40:30Z</time>
      </trkpt>
      <trkpt lat="43.989855023100972" lon="7.850273000076413">
        <ele>1226.78</ele>
        <time>2025-05-19T09:40:31Z</time>
      </trkpt>
      <trkpt lat="43.989770030602813" lon="7.850336031988263">
        <ele>1226.3</ele>
        <time>2025-05-19T09:40:32Z</time>
      </trkpt>
      <trkpt lat="43.98961597122252" lon="7.850448014214635">
        <ele>1224.8599999999999</ele>
        <time>2025-05-19T09:40:34Z</time>
      </trkpt>
      <trkpt lat="43.98948697373271" lon="7.850541975349188">
        <ele>1222.9300000000001</ele>
        <time>2025-05-19T09:40:36Z</time>
      </trkpt>
      <trkpt lat="43.989451015368104" lon="7.85056795924902">
        <ele>1221.97</ele>
        <time>2025-05-19T09:40:37Z</time>
      </trkpt>
      <trkpt lat="43.989451015368104" lon="7.85056795924902">
        <ele>1221.01</ele>
        <time>2025-05-19T09:40:38Z</time>
      </trkpt>
      <trkpt lat="43.989451015368104" lon="7.850689999759197">
        <ele>1220.53</ele>
        <time>2025-05-19T09:40:39Z</time>
      </trkpt>
      <trkpt lat="43.989451015368104" lon="7.850697040557861">
        <ele>1220.05</ele>
        <time>2025-05-19T09:40:40Z</time>
      </trkpt>
      <trkpt lat="43.989496026188135" lon="7.850804999470711">
        <ele>1219.0899999999999</ele>
        <time>2025-05-19T09:40:41Z</time>
      </trkpt>
      <trkpt lat="43.989531984552741" lon="7.850893009454012">
        <ele>1218.6099999999999</ele>
        <time>2025-05-19T09:40:42Z</time>
      </trkpt>
      <trkpt lat="43.989644972607493" lon="7.851169025525451">
        <ele>1216.6900000000001</ele>
        <time>2025-05-19T09:40:44Z</time>
      </trkpt>
      <trkpt lat="43.989660982042551" lon="7.851388966664672">
        <ele>1214.76</ele>
        <time>2025-05-19T09:40:46Z</time>
      </trkpt>
      <trkpt lat="43.989686965942383" lon="7.85174896940589">
        <ele>1209.48</ele>
        <time>2025-05-19T09:40:52Z</time>
      </trkpt>
      <trkpt lat="43.989697024226189" lon="7.851758021861315">
        <ele>1208.03</ele>
        <time>2025-05-19T09:40:53Z</time>
      </trkpt>
      <trkpt lat="43.989772964268923" lon="7.851833961904049">
        <ele>1207.0699999999999</ele>
        <time>2025-05-19T09:40:54Z</time>
      </trkpt>
      <trkpt lat="43.989772964268923" lon="7.851833961904049">
        <ele>1205.6300000000001</ele>
        <time>2025-05-19T09:40:55Z</time>
      </trkpt>
      <trkpt lat="43.989838007837534" lon="7.851833961904049">
        <ele>1204.6700000000001</ele>
        <time>2025-05-19T09:40:56Z</time>
      </trkpt>
      <trkpt lat="43.989838007837534" lon="7.851833961904049">
        <ele>1204.1900000000001</ele>
        <time>2025-05-19T09:40:57Z</time>
      </trkpt>
      <trkpt lat="43.989870026707649" lon="7.851820969954133">
        <ele>1203.23</ele>
        <time>2025-05-19T09:40:58Z</time>
      </trkpt>
      <trkpt lat="43.989918977022171" lon="7.851801021024585">
        <ele>1202.27</ele>
        <time>2025-05-19T09:40:59Z</time>
      </trkpt>
      <trkpt lat="43.989974968135357" lon="7.851777970790863">
        <ele>1200.8199999999999</ele>
        <time>2025-05-19T09:41:00Z</time>
      </trkpt>
      <trkpt lat="43.990031965076923" lon="7.851753998547792">
        <ele>1199.3800000000001</ele>
        <time>2025-05-19T09:41:01Z</time>
      </trkpt>
      <trkpt lat="43.99008602835238" lon="7.851732037961483">
        <ele>1198.4200000000001</ele>
        <time>2025-05-19T09:41:02Z</time>
      </trkpt>
      <trkpt lat="43.990135984495282" lon="7.851712005212903">
        <ele>1196.98</ele>
        <time>2025-05-19T09:41:03Z</time>
      </trkpt>
      <trkpt lat="43.990227011963725" lon="7.851688032969832">
        <ele>1196.02</ele>
        <time>2025-05-19T09:41:04Z</time>
      </trkpt>
      <trkpt lat="43.990480983629823" lon="7.85172700881958">
        <ele>1193.6099999999999</ele>
        <time>2025-05-19T09:41:06Z</time>
      </trkpt>
      <trkpt lat="43.990569999441504" lon="7.851847037672997">
        <ele>1192.1700000000001</ele>
        <time>2025-05-19T09:41:07Z</time>
      </trkpt>
      <trkpt lat="43.990589026361704" lon="7.85194200463593">
        <ele>1191.21</ele>
        <time>2025-05-19T09:41:08Z</time>
      </trkpt>
      <trkpt lat="43.990577040240169" lon="7.852095980197191">
        <ele>1190.25</ele>
        <time>2025-05-19T09:41:09Z</time>
      </trkpt>
      <trkpt lat="43.990589026361704" lon="7.85194200463593">
        <ele>1189.77</ele>
        <time>2025-05-19T09:41:10Z</time>
      </trkpt>
      <trkpt lat="43.990546027198434" lon="7.852499987930059">
        <ele>1189.29</ele>
        <time>2025-05-19T09:41:11Z</time>
      </trkpt>
      <trkpt lat="43.990546027198434" lon="7.852499987930059">
        <ele>1189.29</ele>
        <time>2025-05-19T09:41:12Z</time>
      </trkpt>
      <trkpt lat="43.990591960027814" lon="7.852561008185148">
        <ele>1188.8099999999999</ele>
        <time>2025-05-19T09:41:13Z</time>
      </trkpt>
      <trkpt lat="43.990695979446173" lon="7.852699980139732">
        <ele>1188.8099999999999</ele>
        <time>2025-05-19T09:41:15Z</time>
      </trkpt>
      <trkpt lat="43.990867976099253" lon="7.852928973734379">
        <ele>1188.8099999999999</ele>
        <time>2025-05-19T09:41:20Z</time>
      </trkpt>
      <trkpt lat="43.991148015484214" lon="7.85348997451365">
        <ele>1187.8499999999999</ele>
        <time>2025-05-19T09:41:24Z</time>
      </trkpt>
      <trkpt lat="43.991286987438798" lon="7.853792980313301">
        <ele>1186.4000000000001</ele>
        <time>2025-05-19T09:41:27Z</time>
      </trkpt>
      <trkpt lat="43.991329986602068" lon="7.853913009166718">
        <ele>1185.9200000000001</ele>
        <time>2025-05-19T09:41:28Z</time>
      </trkpt>
      <trkpt lat="43.991371979936957" lon="7.854031026363373">
        <ele>1184.96</ele>
        <time>2025-05-19T09:41:29Z</time>
      </trkpt>
      <trkpt lat="43.991599967703223" lon="7.854397986084223">
        <ele>1182.5599999999999</ele>
        <time>2025-05-19T09:41:33Z</time>
      </trkpt>
      <trkpt lat="43.991638021543622" lon="7.854425981640816">
        <ele>1182.0799999999999</ele>
        <time>2025-05-19T09:41:34Z</time>
      </trkpt>
      <trkpt lat="43.991682026535273" lon="7.854459006339312">
        <ele>1181.5999999999999</ele>
        <time>2025-05-19T09:41:35Z</time>
      </trkpt>
      <trkpt lat="43.991735000163317" lon="7.854496976360679">
        <ele>1180.6400000000001</ele>
        <time>2025-05-19T09:41:36Z</time>
      </trkpt>
      <trkpt lat="43.991818986833096" lon="7.854526983574033">
        <ele>1179.6700000000001</ele>
        <time>2025-05-19T09:41:37Z</time>
      </trkpt>
      <trkpt lat="43.991853017359972" lon="7.854512985795736">
        <ele>1178.71</ele>
        <time>2025-05-19T09:41:38Z</time>
      </trkpt>
      <trkpt lat="43.991887969896197" lon="7.85449898801744">
        <ele>1178.23</ele>
        <time>2025-05-19T09:41:39Z</time>
      </trkpt>
      <trkpt lat="43.991898028180003" lon="7.854494964703918">
        <ele>1177.27</ele>
        <time>2025-05-19T09:41:40Z</time>
      </trkpt>
      <trkpt lat="43.991900961846113" lon="7.854483984410763">
        <ele>1176.79</ele>
        <time>2025-05-19T09:41:41Z</time>
      </trkpt>
      <trkpt lat="43.991905990988016" lon="7.854468980804086">
        <ele>1176.3099999999999</ele>
        <time>2025-05-19T09:41:42Z</time>
      </trkpt>
      <trkpt lat="43.991842959076166" lon="7.854318022727966">
        <ele>1175.3499999999999</ele>
        <time>2025-05-19T09:41:43Z</time>
      </trkpt>
      <trkpt lat="43.991757966578007" lon="7.854275023564696">
        <ele>1172.95</ele>
        <time>2025-05-19T09:41:44Z</time>
      </trkpt>
      <trkpt lat="43.991689989343286" lon="7.85424099303782">
        <ele>1172.47</ele>
        <time>2025-05-19T09:41:45Z</time>
      </trkpt>
      <trkpt lat="43.991640033200383" lon="7.854216014966369">
        <ele>1171.98</ele>
        <time>2025-05-19T09:41:46Z</time>
      </trkpt>
      <trkpt lat="43.991640033200383" lon="7.854216014966369">
        <ele>1171.02</ele>
        <time>2025-05-19T09:41:48Z</time>
      </trkpt>
      <trkpt lat="43.991586975753307" lon="7.854126999154687">
        <ele>1170.0599999999999</ele>
        <time>2025-05-19T09:41:49Z</time>
      </trkpt>
      <trkpt lat="43.991554034873843" lon="7.854072013869882">
        <ele>1169.0999999999999</ele>
        <time>2025-05-19T09:41:50Z</time>
      </trkpt>
      <trkpt lat="43.991512963548303" lon="7.85400403663516">
        <ele>1168.1400000000001</ele>
        <time>2025-05-19T09:41:51Z</time>
      </trkpt>
      <trkpt lat="43.991511035710573" lon="7.854002024978399">
        <ele>1167.1800000000001</ele>
        <time>2025-05-19T09:41:52Z</time>
      </trkpt>
      <trkpt lat="43.991486979648471" lon="7.853898005560041">
        <ele>1166.7</ele>
        <time>2025-05-19T09:41:53Z</time>
      </trkpt>
      <trkpt lat="43.991460995748639" lon="7.853786023333669">
        <ele>1165.74</ele>
        <time>2025-05-19T09:41:54Z</time>
      </trkpt>
      <trkpt lat="43.991416990756989" lon="7.85361603833735">
        <ele>1164.77</ele>
        <time>2025-05-19T09:41:55Z</time>
      </trkpt>
      <trkpt lat="43.991275001317263" lon="7.853294005617499">
        <ele>1158.53</ele>
        <time>2025-05-19T09:41:59Z</time>
      </trkpt>
      <trkpt lat="43.99126997217536" lon="7.853222005069256">
        <ele>1157.0799999999999</ele>
        <time>2025-05-19T09:42:00Z</time>
      </trkpt>
      <trkpt lat="43.991255974397063" lon="7.853021007031202">
        <ele>1154.2</ele>
        <time>2025-05-19T09:42:02Z</time>
      </trkpt>
      <trkpt lat="43.991239964962006" lon="7.852796036750078">
        <ele>1150.8399999999999</ele>
        <time>2025-05-19T09:42:04Z</time>
      </trkpt>
      <trkpt lat="43.991172993555665" lon="7.852585986256599">
        <ele>1149.3900000000001</ele>
        <time>2025-05-19T09:42:05Z</time>
      </trkpt>
      <trkpt lat="43.991139968857169" lon="7.852525971829891">
        <ele>1147.95</ele>
        <time>2025-05-19T09:42:06Z</time>
      </trkpt>
      <trkpt lat="43.991113984957337" lon="7.852480039000511">
        <ele>1146.51</ele>
        <time>2025-05-19T09:42:07Z</time>
      </trkpt>
      <trkpt lat="43.991085989400744" lon="7.852428993210197">
        <ele>1144.5899999999999</ele>
        <time>2025-05-19T09:42:08Z</time>
      </trkpt>
      <trkpt lat="43.991051958873868" lon="7.852367972955108">
        <ele>1143.6300000000001</ele>
        <time>2025-05-19T09:42:09Z</time>
      </trkpt>
      <trkpt lat="43.991018012166023" lon="7.85230603069067">
        <ele>1142.1800000000001</ele>
        <time>2025-05-19T09:42:10Z</time>
      </trkpt>
      <trkpt lat="43.991018012166023" lon="7.85230603069067">
        <ele>1141.22</ele>
        <time>2025-05-19T09:42:11Z</time>
      </trkpt>
      <trkpt lat="43.991019017994404" lon="7.852302007377148">
        <ele>1141.22</ele>
        <time>2025-05-19T09:42:12Z</time>
      </trkpt>
      <trkpt lat="43.9910330157727" lon="7.852209974080324">
        <ele>1141.22</ele>
        <time>2025-05-19T09:42:13Z</time>
      </trkpt>
      <trkpt lat="43.991048019379377" lon="7.852122969925404">
        <ele>1141.22</ele>
        <time>2025-05-19T09:42:14Z</time>
      </trkpt>
      <trkpt lat="43.991064028814435" lon="7.852024985477328">
        <ele>1141.22</ele>
        <time>2025-05-19T09:42:15Z</time>
      </trkpt>
      <trkpt lat="43.99109797552228" lon="7.851810995489359">
        <ele>1141.22</ele>
        <time>2025-05-19T09:42:17Z</time>
      </trkpt>
      <trkpt lat="43.991113984957337" lon="7.851713011041284">
        <ele>1141.22</ele>
        <time>2025-05-19T09:42:18Z</time>
      </trkpt>
      <trkpt lat="43.991126976907253" lon="7.851632963865995">
        <ele>1141.22</ele>
        <time>2025-05-19T09:42:19Z</time>
      </trkpt>
      <trkpt lat="43.991066962480545" lon="7.851473037153482">
        <ele>1140.74</ele>
        <time>2025-05-19T09:42:20Z</time>
      </trkpt>
      <trkpt lat="43.991048019379377" lon="7.851462978869677">
        <ele>1141.22</ele>
        <time>2025-05-19T09:42:21Z</time>
      </trkpt>
      <trkpt lat="43.991029998287559" lon="7.851454010233283">
        <ele>1142.1800000000001</ele>
        <time>2025-05-19T09:42:22Z</time>
      </trkpt>
      <trkpt lat="43.991000996902585" lon="7.851440012454987">
        <ele>1142.6600000000001</ele>
        <time>2025-05-19T09:42:23Z</time>
      </trkpt>
      <trkpt lat="43.990959003567696" lon="7.851418973878026">
        <ele>1143.1400000000001</ele>
        <time>2025-05-19T09:42:24Z</time>
      </trkpt>
      <trkpt lat="43.990908963605762" lon="7.851393995806575">
        <ele>1143.1400000000001</ele>
        <time>2025-05-19T09:42:25Z</time>
      </trkpt>
      <trkpt lat="43.990856995806098" lon="7.851368011906743">
        <ele>1143.1400000000001</ele>
        <time>2025-05-19T09:42:26Z</time>
      </trkpt>
      <trkpt lat="43.990803016349673" lon="7.851341022178531">
        <ele>1143.1400000000001</ele>
        <time>2025-05-19T09:42:27Z</time>
      </trkpt>
      <trkpt lat="43.990706959739327" lon="7.851244965568185">
        <ele>1143.1400000000001</ele>
        <time>2025-05-19T09:42:29Z</time>
      </trkpt>
      <trkpt lat="43.990676030516624" lon="7.851213030517101">
        <ele>1143.1400000000001</ele>
        <time>2025-05-19T09:42:30Z</time>
      </trkpt>
      <trkpt lat="43.990648034960032" lon="7.851186040788889">
        <ele>1142.6600000000001</ele>
        <time>2025-05-19T09:42:31Z</time>
      </trkpt>
      <trkpt lat="43.990616016089916" lon="7.851154021918774">
        <ele>1142.6600000000001</ele>
        <time>2025-05-19T09:42:32Z</time>
      </trkpt>
      <trkpt lat="43.990569999441504" lon="7.851106999441981">
        <ele>1142.1800000000001</ele>
        <time>2025-05-19T09:42:33Z</time>
      </trkpt>
      <trkpt lat="43.990503028035164" lon="7.851040028035641">
        <ele>1141.7</ele>
        <time>2025-05-19T09:42:34Z</time>
      </trkpt>
      <trkpt lat="43.990509985014796" lon="7.850859984755516">
        <ele>1141.22</ele>
        <time>2025-05-19T09:42:35Z</time>
      </trkpt>
      <trkpt lat="43.990575028583407" lon="7.850788990035653">
        <ele>1140.74</ele>
        <time>2025-05-19T09:42:36Z</time>
      </trkpt>
      <trkpt lat="43.990659015253186" lon="7.85069796256721">
        <ele>1140.26</ele>
        <time>2025-05-19T09:42:37Z</time>
      </trkpt>
      <trkpt lat="43.99075398221612" lon="7.850594026967883">
        <ele>1140.26</ele>
        <time>2025-05-19T09:42:38Z</time>
      </trkpt>
      <trkpt lat="43.990975013002753" lon="7.85035396926105">
        <ele>1139.3</ele>
        <time>2025-05-19T09:42:41Z</time>
      </trkpt>
      <trkpt lat="43.991040978580713" lon="7.850155988708139">
        <ele>1138.8199999999999</ele>
        <time>2025-05-19T09:42:42Z</time>
      </trkpt>
      <trkpt lat="43.991081966087222" lon="7.850033026188612">
        <ele>1138.3399999999999</ele>
        <time>2025-05-19T09:42:43Z</time>
      </trkpt>
      <trkpt lat="43.991122031584382" lon="7.849912997335196">
        <ele>1137.3800000000001</ele>
        <time>2025-05-19T09:42:44Z</time>
      </trkpt>
      <trkpt lat="43.991156984120607" lon="7.849808977916837">
        <ele>1136.9000000000001</ele>
        <time>2025-05-19T09:42:45Z</time>
      </trkpt>
      <trkpt lat="43.991185985505581" lon="7.849721973761916">
        <ele>1135.9400000000001</ele>
        <time>2025-05-19T09:42:46Z</time>
      </trkpt>
      <trkpt lat="43.991210963577032" lon="7.849644022062421">
        <ele>1134.97</ele>
        <time>2025-05-19T09:42:47Z</time>
      </trkpt>
      <trkpt lat="43.991229990497231" lon="7.849589036777616">
        <ele>1134.49</ele>
        <time>2025-05-19T09:42:48Z</time>
      </trkpt>
      <trkpt lat="43.991277012974024" lon="7.849566992372274">
        <ele>1134.49</ele>
        <time>2025-05-19T09:42:49Z</time>
      </trkpt>
      <trkpt lat="43.991296961903572" lon="7.849560035392642">
        <ele>1133.53</ele>
        <time>2025-05-19T09:42:50Z</time>
      </trkpt>
      <trkpt lat="43.991323029622436" lon="7.849606974050403">
        <ele>1134.01</ele>
        <time>2025-05-19T09:42:51Z</time>
      </trkpt>
      <trkpt lat="43.991358987987041" lon="7.849673023447394">
        <ele>1134.01</ele>
        <time>2025-05-19T09:42:52Z</time>
      </trkpt>
      <trkpt lat="43.991405004635453" lon="7.849757010117173">
        <ele>1133.53</ele>
        <time>2025-05-19T09:42:53Z</time>
      </trkpt>
      <trkpt lat="43.991453032940626" lon="7.849845020100474">
        <ele>1133.05</ele>
        <time>2025-05-19T09:42:54Z</time>
      </trkpt>
      <trkpt lat="43.99150600656867" lon="7.849940992891789">
        <ele>1132.5699999999999</ele>
        <time>2025-05-19T09:42:55Z</time>
      </trkpt>
      <trkpt lat="43.991555040702224" lon="7.850031014531851">
        <ele>1132.0899999999999</ele>
        <time>2025-05-19T09:42:56Z</time>
      </trkpt>
      <trkpt lat="43.991598039865494" lon="7.850109972059727">
        <ele>1131.6099999999999</ele>
        <time>2025-05-19T09:42:57Z</time>
      </trkpt>
      <trkpt lat="43.991670962423086" lon="7.850230000913143">
        <ele>1130.6500000000001</ele>
        <time>2025-05-19T09:42:58Z</time>
      </trkpt>
      <trkpt lat="43.991738017648458" lon="7.85026696510613">
        <ele>1130.1700000000001</ele>
        <time>2025-05-19T09:42:59Z</time>
      </trkpt>
      <trkpt lat="43.991818986833096" lon="7.850311975926161">
        <ele>1129.21</ele>
        <time>2025-05-19T09:43:00Z</time>
      </trkpt>
      <trkpt lat="43.99191596545279" lon="7.850366039201617">
        <ele>1128.24</ele>
        <time>2025-05-19T09:43:01Z</time>
      </trkpt>
      <trkpt lat="43.992016967386007" lon="7.850423036143184">
        <ele>1126.8</ele>
        <time>2025-05-19T09:43:02Z</time>
      </trkpt>
      <trkpt lat="43.992113023996353" lon="7.850476009771228">
        <ele>1125.3599999999999</ele>
        <time>2025-05-19T09:43:03Z</time>
      </trkpt>
      <trkpt lat="43.992194999009371" lon="7.850521020591259">
        <ele>1123.9200000000001</ele>
        <time>2025-05-19T09:43:04Z</time>
      </trkpt>
      <trkpt lat="43.992274040356278" lon="7.850547004491091">
        <ele>1123.4400000000001</ele>
        <time>2025-05-19T09:43:05Z</time>
      </trkpt>
      <trkpt lat="43.992327013984323" lon="7.850547004491091">
        <ele>1122.48</ele>
        <time>2025-05-19T09:43:06Z</time>
      </trkpt>
      <trkpt lat="43.992351992055774" lon="7.850470980629325">
        <ele>1122</ele>
        <time>2025-05-19T09:43:07Z</time>
      </trkpt>
      <trkpt lat="43.992373030632734" lon="7.850409038364887">
        <ele>1121.03</ele>
        <time>2025-05-19T09:43:08Z</time>
      </trkpt>
      <trkpt lat="43.992401026189327" lon="7.850323962047696">
        <ele>1120.0699999999999</ele>
        <time>2025-05-19T09:43:09Z</time>
      </trkpt>
      <trkpt lat="43.992404965683818" lon="7.850235030055046">
        <ele>1119.5899999999999</ele>
        <time>2025-05-19T09:43:10Z</time>
      </trkpt>
      <trkpt lat="43.992389040067792" lon="7.850108966231346">
        <ele>1118.6300000000001</ele>
        <time>2025-05-19T09:43:11Z</time>
      </trkpt>
      <trkpt lat="43.992371018975973" lon="7.849977035075426">
        <ele>1117.6700000000001</ele>
        <time>2025-05-19T09:43:12Z</time>
      </trkpt>
      <trkpt lat="43.992352997884154" lon="7.849844014272094">
        <ele>1116.71</ele>
        <time>2025-05-19T09:43:13Z</time>
      </trkpt>
      <trkpt lat="43.992336988449097" lon="7.849722979590297">
        <ele>1115.75</ele>
        <time>2025-05-19T09:43:14Z</time>
      </trkpt>
      <trkpt lat="43.992327013984323" lon="7.849646033719182">
        <ele>1114.3099999999999</ele>
        <time>2025-05-19T09:43:15Z</time>
      </trkpt>
      <trkpt lat="43.992348974570632" lon="7.84951401874423">
        <ele>1112.8599999999999</ele>
        <time>2025-05-19T09:43:16Z</time>
      </trkpt>
      <trkpt lat="43.992360960692167" lon="7.849442018195987">
        <ele>1111.4200000000001</ele>
        <time>2025-05-19T09:43:17Z</time>
      </trkpt>
      <trkpt lat="43.992372024804354" lon="7.849376974627376">
        <ele>1109.98</ele>
        <time>2025-05-19T09:43:18Z</time>
      </trkpt>
      <trkpt lat="43.992390967905521" lon="7.849259041249752">
        <ele>1108.54</ele>
        <time>2025-05-19T09:43:19Z</time>
      </trkpt>
      <trkpt lat="43.992387028411031" lon="7.849209001287818">
        <ele>1106.6099999999999</ele>
        <time>2025-05-19T09:43:20Z</time>
      </trkpt>
      <trkpt lat="43.992380993440747" lon="7.849128032103181">
        <ele>1105.1700000000001</ele>
        <time>2025-05-19T09:43:21Z</time>
      </trkpt>
      <trkpt lat="43.992374036461115" lon="7.849042033776641">
        <ele>1103.73</ele>
        <time>2025-05-19T09:43:22Z</time>
      </trkpt>
      <trkpt lat="43.99236598983407" lon="7.848948994651437">
        <ele>1101.8099999999999</ele>
        <time>2025-05-19T09:43:23Z</time>
      </trkpt>
      <trkpt lat="43.992350986227393" lon="7.84876300022006">
        <ele>1098.4400000000001</ele>
        <time>2025-05-19T09:43:25Z</time>
      </trkpt>
      <trkpt lat="43.992347968742251" lon="7.848723018541932">
        <ele>1096.52</ele>
        <time>2025-05-19T09:43:26Z</time>
      </trkpt>
      <trkpt lat="43.992347968742251" lon="7.848723018541932">
        <ele>1094.5999999999999</ele>
        <time>2025-05-19T09:43:27Z</time>
      </trkpt>
      <trkpt lat="43.992347968742251" lon="7.848723018541932">
        <ele>1093.1600000000001</ele>
        <time>2025-05-19T09:43:28Z</time>
      </trkpt>
      <trkpt lat="43.99236598983407" lon="7.848678007721901">
        <ele>1091.71</ele>
        <time>2025-05-19T09:43:29Z</time>
      </trkpt>
      <trkpt lat="43.992390967905521" lon="7.848615981638432">
        <ele>1089.79</ele>
        <time>2025-05-19T09:43:30Z</time>
      </trkpt>
      <trkpt lat="43.992415023967624" lon="7.848618999123573">
        <ele>1088.3499999999999</ele>
        <time>2025-05-19T09:43:31Z</time>
      </trkpt>
      <trkpt lat="43.993094963952899" lon="7.848950000479817">
        <ele>1078.74</ele>
        <time>2025-05-19T09:43:38Z</time>
      </trkpt>
      <trkpt lat="43.993295039981604" lon="7.849067011848092">
        <ele>1076.3299999999999</ele>
        <time>2025-05-19T09:43:40Z</time>
      </trkpt>
      <trkpt lat="43.993497965857387" lon="7.849186034873128">
        <ele>1074.8900000000001</ele>
        <time>2025-05-19T09:43:42Z</time>
      </trkpt>
      <trkpt lat="43.99365303106606" lon="7.84934202209115">
        <ele>1072.97</ele>
        <time>2025-05-19T09:43:44Z</time>
      </trkpt>
      <trkpt lat="43.993850005790591" lon="7.849581995978952">
        <ele>1070.0799999999999</ele>
        <time>2025-05-19T09:43:47Z</time>
      </trkpt>
      <trkpt lat="43.993893004953861" lon="7.849633963778615">
        <ele>1069.5999999999999</ele>
        <time>2025-05-19T09:43:48Z</time>
      </trkpt>
      <trkpt lat="43.994146976619959" lon="7.849868992343545">
        <ele>1065.76</ele>
        <time>2025-05-19T09:43:52Z</time>
      </trkpt>
      <trkpt lat="43.994221994653344" lon="7.849906962364912">
        <ele>1064.3199999999999</ele>
        <time>2025-05-19T09:43:53Z</time>
      </trkpt>
      <trkpt lat="43.994291983544827" lon="7.849941998720169">
        <ele>1063.8399999999999</ele>
        <time>2025-05-19T09:43:54Z</time>
      </trkpt>
      <trkpt lat="43.994364989921451" lon="7.849978040903807">
        <ele>1063.3599999999999</ele>
        <time>2025-05-19T09:43:55Z</time>
      </trkpt>
      <trkpt lat="43.994422992691398" lon="7.850020034238696">
        <ele>1062.8699999999999</ele>
        <time>2025-05-19T09:43:56Z</time>
      </trkpt>
      <trkpt lat="43.994536986574531" lon="7.850118018686771">
        <ele>1062.3900000000001</ele>
        <time>2025-05-19T09:43:57Z</time>
      </trkpt>
      <trkpt lat="43.994571017101407" lon="7.850176021456718">
        <ele>1061.9100000000001</ele>
        <time>2025-05-19T09:43:58Z</time>
      </trkpt>
      <trkpt lat="43.994646035134792" lon="7.850303007289767">
        <ele>1061.4300000000001</ele>
        <time>2025-05-19T09:43:59Z</time>
      </trkpt>
      <trkpt lat="43.994795987382531" lon="7.850558990612626">
        <ele>1059.99</ele>
        <time>2025-05-19T09:44:01Z</time>
      </trkpt>
      <trkpt lat="43.994934037327766" lon="7.850793013349176">
        <ele>1059.03</ele>
        <time>2025-05-19T09:44:03Z</time>
      </trkpt>
      <trkpt lat="43.995036967098713" lon="7.850875994190574">
        <ele>1058.0699999999999</ele>
        <time>2025-05-19T09:44:04Z</time>
      </trkpt>
      <trkpt lat="43.995073009282351" lon="7.85088999196887">
        <ele>1057.1099999999999</ele>
        <time>2025-05-19T09:44:05Z</time>
      </trkpt>
      <trkpt lat="43.995177028700709" lon="7.850827965885401">
        <ele>1056.6300000000001</ele>
        <time>2025-05-19T09:44:06Z</time>
      </trkpt>
      <trkpt lat="43.995219022035599" lon="7.85080298781395">
        <ele>1056.1500000000001</ele>
        <time>2025-05-19T09:44:07Z</time>
      </trkpt>
      <trkpt lat="43.995288005098701" lon="7.850762000307441">
        <ele>1056.6300000000001</ele>
        <time>2025-05-19T09:44:08Z</time>
      </trkpt>
      <trkpt lat="43.995288005098701" lon="7.850762000307441">
        <ele>1055.6700000000001</ele>
        <time>2025-05-19T09:44:09Z</time>
      </trkpt>
      <trkpt lat="43.995363023132086" lon="7.850656975060701">
        <ele>1055.1800000000001</ele>
        <time>2025-05-19T09:44:10Z</time>
      </trkpt>
      <trkpt lat="43.995417002588511" lon="7.850582040846348">
        <ele>1054.22</ele>
        <time>2025-05-19T09:44:11Z</time>
      </trkpt>
      <trkpt lat="43.995469976216555" lon="7.850508028641343">
        <ele>1053.26</ele>
        <time>2025-05-19T09:44:12Z</time>
      </trkpt>
      <trkpt lat="43.995641972869635" lon="7.85026797093451">
        <ele>1050.3800000000001</ele>
        <time>2025-05-19T09:44:15Z</time>
      </trkpt>
      <trkpt lat="43.995822016149759" lon="7.849935041740537">
        <ele>1046.53</ele>
        <time>2025-05-19T09:44:18Z</time>
      </trkpt>
      <trkpt lat="43.995855040848255" lon="7.849820964038372">
        <ele>1045.5699999999999</ele>
        <time>2025-05-19T09:44:19Z</time>
      </trkpt>
      <trkpt lat="43.995885970070958" lon="7.849714010953903">
        <ele>1044.6099999999999</ele>
        <time>2025-05-19T09:44:20Z</time>
      </trkpt>
      <trkpt lat="43.995912037789822" lon="7.849624995142222">
        <ele>1043.1700000000001</ele>
        <time>2025-05-19T09:44:21Z</time>
      </trkpt>
      <trkpt lat="43.995938021689653" lon="7.84953698515892">
        <ele>1042.21</ele>
        <time>2025-05-19T09:44:22Z</time>
      </trkpt>
      <trkpt lat="43.99595201946795" lon="7.849486023187637">
        <ele>1040.76</ele>
        <time>2025-05-19T09:44:23Z</time>
      </trkpt>
      <trkpt lat="43.99597498588264" lon="7.849409999325872">
        <ele>1037.8800000000001</ele>
        <time>2025-05-19T09:44:25Z</time>
      </trkpt>
      <trkpt lat="43.996080011129379" lon="7.849357025697827">
        <ele>1033.0699999999999</ele>
        <time>2025-05-19T09:44:29Z</time>
      </trkpt>
      <trkpt lat="43.996155029162765" lon="7.849319977685809">
        <ele>1031.6300000000001</ele>
        <time>2025-05-19T09:44:30Z</time>
      </trkpt>
      <trkpt lat="43.996239015832543" lon="7.84927798435092">
        <ele>1030.1900000000001</ele>
        <time>2025-05-19T09:44:31Z</time>
      </trkpt>
      <trkpt lat="43.996310010552406" lon="7.849242025986314">
        <ele>1028.75</ele>
        <time>2025-05-19T09:44:32Z</time>
      </trkpt>
      <trkpt lat="43.996369019150734" lon="7.84921302460134">
        <ele>1027.79</ele>
        <time>2025-05-19T09:44:33Z</time>
      </trkpt>
      <trkpt lat="43.996430039405823" lon="7.849182011559606">
        <ele>1026.3399999999999</ele>
        <time>2025-05-19T09:44:34Z</time>
      </trkpt>
      <trkpt lat="43.996574962511659" lon="7.849109005182982">
        <ele>1025.3800000000001</ele>
        <time>2025-05-19T09:44:35Z</time>
      </trkpt>
      <trkpt lat="43.996574962511659" lon="7.849109005182982">
        <ele>1024.4200000000001</ele>
        <time>2025-05-19T09:44:36Z</time>
      </trkpt>
      <trkpt lat="43.996617961674929" lon="7.849114034324884">
        <ele>1023.46</ele>
        <time>2025-05-19T09:44:37Z</time>
      </trkpt>
      <trkpt lat="43.996674036607146" lon="7.849120991304517">
        <ele>1022.02</ele>
        <time>2025-05-19T09:44:38Z</time>
      </trkpt>
      <trkpt lat="43.996729021891952" lon="7.849128032103181">
        <ele>1020.58</ele>
        <time>2025-05-19T09:44:39Z</time>
      </trkpt>
      <trkpt lat="43.996785013005137" lon="7.849134989082813">
        <ele>1019.62</ele>
        <time>2025-05-19T09:44:40Z</time>
      </trkpt>
      <trkpt lat="43.996847039088607" lon="7.849143035709858">
        <ele>1018.65</ele>
        <time>2025-05-19T09:44:41Z</time>
      </trkpt>
      <trkpt lat="43.99709003046155" lon="7.849173964932561">
        <ele>1016.25</ele>
        <time>2025-05-19T09:44:43Z</time>
      </trkpt>
      <trkpt lat="43.99711400270462" lon="7.849153010174632">
        <ele>1015.29</ele>
        <time>2025-05-19T09:44:44Z</time>
      </trkpt>
      <trkpt lat="43.997187009081244" lon="7.849088972434402">
        <ele>1014.33</ele>
        <time>2025-05-19T09:44:45Z</time>
      </trkpt>
      <trkpt lat="43.997323969379067" lon="7.848970033228397">
        <ele>1012.41</ele>
        <time>2025-05-19T09:44:47Z</time>
      </trkpt>
      <trkpt lat="43.99747802875936" lon="7.848836006596685">
        <ele>1009.52</ele>
        <time>2025-05-19T09:44:50Z</time>
      </trkpt>
      <trkpt lat="43.997654970735312" lon="7.848635008558631">
        <ele>1006.64</ele>
        <time>2025-05-19T09:44:53Z</time>
      </trkpt>
      <trkpt lat="43.997722025960684" lon="7.848529983311892">
        <ele>1005.6799999999999</ele>
        <time>2025-05-19T09:44:55Z</time>
      </trkpt>
      <trkpt lat="43.997820010408759" lon="7.848380031064153">
        <ele>1006.64</ele>
        <time>2025-05-19T09:44:56Z</time>
      </trkpt>
      <trkpt lat="43.997820010408759" lon="7.848380031064153">
        <ele>1006.64</ele>
        <time>2025-05-19T09:44:57Z</time>
      </trkpt>
      <trkpt lat="43.997854040935636" lon="7.84837500192225">
        <ele>1006.16</ele>
        <time>2025-05-19T09:44:58Z</time>
      </trkpt>
      <trkpt lat="43.997983038425446" lon="7.848382964730263">
        <ele>1005.6799999999999</ele>
        <time>2025-05-19T09:44:59Z</time>
      </trkpt>
      <trkpt lat="43.998013967648149" lon="7.848486984148622">
        <ele>1005.6799999999999</ele>
        <time>2025-05-19T09:45:00Z</time>
      </trkpt>
      <trkpt lat="43.99801597930491" lon="7.848544986918569">
        <ele>1005.6799999999999</ele>
        <time>2025-05-19T09:45:01Z</time>
      </trkpt>
      <trkpt lat="43.998018996790051" lon="7.848615981638432">
        <ele>1005.6799999999999</ele>
        <time>2025-05-19T09:45:02Z</time>
      </trkpt>
      <trkpt lat="43.998030982911587" lon="7.848991993814707">
        <ele>1005.6799999999999</ele>
        <time>2025-05-19T09:45:06Z</time>
      </trkpt>
      <trkpt lat="43.998041041195393" lon="7.849118979647756">
        <ele>1006.16</ele>
        <time>2025-05-19T09:45:07Z</time>
      </trkpt>
      <trkpt lat="43.998090997338295" lon="7.84919299185276">
        <ele>1006.16</ele>
        <time>2025-05-19T09:45:08Z</time>
      </trkpt>
      <trkpt lat="43.998119998723269" lon="7.849238002672792">
        <ele>1005.6799999999999</ele>
        <time>2025-05-19T09:45:09Z</time>
      </trkpt>
      <trkpt lat="43.99822804145515" lon="7.849281001836062">
        <ele>1004.72</ele>
        <time>2025-05-19T09:45:10Z</time>
      </trkpt>
      <trkpt lat="43.99822804145515" lon="7.849281001836062">
        <ele>1002.79</ele>
        <time>2025-05-19T09:45:11Z</time>
      </trkpt>
      <trkpt lat="43.998313033953309" lon="7.849238002672792">
        <ele>1000.87</ele>
        <time>2025-05-19T09:45:12Z</time>
      </trkpt>
      <trkpt lat="43.998320996761322" lon="7.849218975752592">
        <ele>999.42999999999995</ele>
        <time>2025-05-19T09:45:13Z</time>
      </trkpt>
      <trkpt lat="43.998347986489534" lon="7.849150998517871">
        <ele>997.50999999999999</ele>
        <time>2025-05-19T09:45:14Z</time>
      </trkpt>
      <trkpt lat="43.998399032279849" lon="7.849023006856442">
        <ele>996.05999999999995</ele>
        <time>2025-05-19T09:45:15Z</time>
      </trkpt>
      <trkpt lat="43.998399032279849" lon="7.849023006856442">
        <ele>995.10000000000002</ele>
        <time>2025-05-19T09:45:16Z</time>
      </trkpt>
      <trkpt lat="43.998417975381017" lon="7.848773980513215">
        <ele>989.80999999999995</ele>
        <time>2025-05-19T09:45:19Z</time>
      </trkpt>
      <trkpt lat="43.998425016179681" lon="7.848680019378662">
        <ele>987.88999999999999</ele>
        <time>2025-05-19T09:45:20Z</time>
      </trkpt>
      <trkpt lat="43.998440019786358" lon="7.848479021340609">
        <ele>984.04999999999995</ele>
        <time>2025-05-19T09:45:22Z</time>
      </trkpt>
      <trkpt lat="43.99844697676599" lon="7.848384976387024">
        <ele>982.12</ele>
        <time>2025-05-19T09:45:23Z</time>
      </trkpt>
      <trkpt lat="43.998454017564654" lon="7.848292021080852">
        <ele>980.67999999999995</ele>
        <time>2025-05-19T09:45:24Z</time>
      </trkpt>
      <trkpt lat="43.998493999242783" lon="7.848135028034449">
        <ele>974.42999999999995</ele>
        <time>2025-05-19T09:45:27Z</time>
      </trkpt>
      <trkpt lat="43.998512020334601" lon="7.84811700694263">
        <ele>972.99000000000001</ele>
        <time>2025-05-19T09:45:28Z</time>
      </trkpt>
      <trkpt lat="43.99876800365746" lon="7.84880599938333">
        <ele>965.77999999999997</ele>
        <time>2025-05-19T09:45:34Z</time>
      </trkpt>
      <trkpt lat="43.998865988105536" lon="7.849297011271119">
        <ele>960.98000000000002</ele>
        <time>2025-05-19T09:45:38Z</time>
      </trkpt>
      <trkpt lat="43.998910998925567" lon="7.849477976560593">
        <ele>958.57000000000005</ele>
        <time>2025-05-19T09:45:40Z</time>
      </trkpt>
      <trkpt lat="43.998935976997018" lon="7.849544025957584">
        <ele>958.57000000000005</ele>
        <time>2025-05-19T09:45:41Z</time>
      </trkpt>
      <trkpt lat="43.99896003305912" lon="7.849606974050403">
        <ele>957.61000000000001</ele>
        <time>2025-05-19T09:45:42Z</time>
      </trkpt>
      <trkpt lat="43.999000014737248" lon="7.849709987640381">
        <ele>956.64999999999998</ele>
        <time>2025-05-19T09:45:43Z</time>
      </trkpt>
      <trkpt lat="43.999000014737248" lon="7.849709987640381">
        <ele>957.61000000000001</ele>
        <time>2025-05-19T09:45:44Z</time>
      </trkpt>
      <trkpt lat="43.999021975323558" lon="7.849580990150571">
        <ele>957.61000000000001</ele>
        <time>2025-05-19T09:45:45Z</time>
      </trkpt>
      <trkpt lat="43.999016024172306" lon="7.849545031785965">
        <ele>957.13</ele>
        <time>2025-05-19T09:45:46Z</time>
      </trkpt>
      <trkpt lat="43.999000014737248" lon="7.849452998489142">
        <ele>956.64999999999998</ele>
        <time>2025-05-19T09:45:47Z</time>
      </trkpt>
      <trkpt lat="43.998977970331907" lon="7.849402958527207">
        <ele>956.16999999999996</ele>
        <time>2025-05-19T09:45:48Z</time>
      </trkpt>
      <trkpt lat="43.998935976997018" lon="7.849307991564274">
        <ele>955.69000000000005</ele>
        <time>2025-05-19T09:45:49Z</time>
      </trkpt>
      <trkpt lat="43.998914016410708" lon="7.849259041249752">
        <ele>955.21000000000004</ele>
        <time>2025-05-19T09:45:50Z</time>
      </trkpt>
      <trkpt lat="43.998849978670478" lon="7.848958969116211">
        <ele>952.79999999999995</ele>
        <time>2025-05-19T09:45:53Z</time>
      </trkpt>
      <trkpt lat="43.998856013640761" lon="7.848769035190344">
        <ele>951.84000000000003</ele>
        <time>2025-05-19T09:45:54Z</time>
      </trkpt>
      <trkpt lat="43.998866993933916" lon="7.848434010520577">
        <ele>948.96000000000004</ele>
        <time>2025-05-19T09:45:57Z</time>
      </trkpt>
      <trkpt lat="43.998870011419058" lon="7.848337031900883">
        <ele>947.51999999999998</ele>
        <time>2025-05-19T09:45:58Z</time>
      </trkpt>
      <trkpt lat="43.998871017247438" lon="7.848294032737613">
        <ele>947.03999999999996</ele>
        <time>2025-05-19T09:45:59Z</time>
      </trkpt>
      <trkpt lat="43.998908987268806" lon="7.848218008875847">
        <ele>947.03999999999996</ele>
        <time>2025-05-19T09:46:00Z</time>
      </trkpt>
      <trkpt lat="43.998957015573978" lon="7.848122036084533">
        <ele>947.03999999999996</ele>
        <time>2025-05-19T09:46:01Z</time>
      </trkpt>
      <trkpt lat="43.998998003080487" lon="7.848080964758992">
        <ele>947.03999999999996</ele>
        <time>2025-05-19T09:46:02Z</time>
      </trkpt>
      <trkpt lat="43.99904795922339" lon="7.84803100861609">
        <ele>947.03999999999996</ele>
        <time>2025-05-19T09:46:03Z</time>
      </trkpt>
      <trkpt lat="43.999086013063788" lon="7.847993960604072">
        <ele>947.51999999999998</ele>
        <time>2025-05-19T09:46:04Z</time>
      </trkpt>
      <trkpt lat="43.999136975035071" lon="7.847912991419435">
        <ele>947.51999999999998</ele>
        <time>2025-05-19T09:46:05Z</time>
      </trkpt>
      <trkpt lat="43.999148039147258" lon="7.84786001779139">
        <ele>947.51999999999998</ele>
        <time>2025-05-19T09:46:06Z</time>
      </trkpt>
      <trkpt lat="43.999162036925554" lon="7.847798997536302">
        <ele>947.51999999999998</ele>
        <time>2025-05-19T09:46:07Z</time>
      </trkpt>
      <trkpt lat="43.999212998896837" lon="7.847563968971372">
        <ele>948.48000000000002</ele>
        <time>2025-05-19T09:46:10Z</time>
      </trkpt>
      <trkpt lat="43.9992839936167" lon="7.847355008125305">
        <ele>948.96000000000004</ele>
        <time>2025-05-19T09:46:12Z</time>
      </trkpt>
      <trkpt lat="43.99954198859632" lon="7.846750002354384">
        <ele>951.36000000000001</ele>
        <time>2025-05-19T09:46:17Z</time>
      </trkpt>
      <trkpt lat="43.999554980546236" lon="7.846609018743038">
        <ele>951.84000000000003</ele>
        <time>2025-05-19T09:46:18Z</time>
      </trkpt>
      <trkpt lat="43.999579036608338" lon="7.846340965479612">
        <ele>952.32000000000005</ele>
        <time>2025-05-19T09:46:20Z</time>
      </trkpt>
      <trkpt lat="43.999542994424701" lon="7.846213979646564">
        <ele>952.79999999999995</ele>
        <time>2025-05-19T09:46:21Z</time>
      </trkpt>
      <trkpt lat="43.999508963897824" lon="7.846095962449908">
        <ele>952.79999999999995</ele>
        <time>2025-05-19T09:46:22Z</time>
      </trkpt>
      <trkpt lat="43.999466970562935" lon="7.845986997708678">
        <ele>953.27999999999997</ele>
        <time>2025-05-19T09:46:23Z</time>
      </trkpt>
      <trkpt lat="43.999407961964607" lon="7.845869986340404">
        <ele>953.76999999999998</ele>
        <time>2025-05-19T09:46:24Z</time>
      </trkpt>
      <trkpt lat="43.99934601970017" lon="7.845745012164116">
        <ele>954.25</ele>
        <time>2025-05-19T09:46:25Z</time>
      </trkpt>
      <trkpt lat="43.999290028586984" lon="7.845634035766125">
        <ele>954.25</ele>
        <time>2025-05-19T09:46:26Z</time>
      </trkpt>
      <trkpt lat="43.999208975583315" lon="7.845421973615885">
        <ele>953.76999999999998</ele>
        <time>2025-05-19T09:46:28Z</time>
      </trkpt>
      <trkpt lat="43.999172011390328" lon="7.845309991389513">
        <ele>953.27999999999997</ele>
        <time>2025-05-19T09:46:29Z</time>
      </trkpt>
      <trkpt lat="43.999172011390328" lon="7.845186023041606">
        <ele>952.79999999999995</ele>
        <time>2025-05-19T09:46:30Z</time>
      </trkpt>
      <trkpt lat="43.999190032482147" lon="7.844915958121419">
        <ele>951.84000000000003</ele>
        <time>2025-05-19T09:46:32Z</time>
      </trkpt>
      <trkpt lat="43.999206963926554" lon="7.844767011702061">
        <ele>951.36000000000001</ele>
        <time>2025-05-19T09:46:33Z</time>
      </trkpt>
      <trkpt lat="43.99924099445343" lon="7.844463000074029">
        <ele>949.91999999999996</ele>
        <time>2025-05-19T09:46:35Z</time>
      </trkpt>
      <trkpt lat="43.999288016930223" lon="7.844048012048006">
        <ele>949.91999999999996</ele>
        <time>2025-05-19T09:46:38Z</time>
      </trkpt>
      <trkpt lat="43.999298997223377" lon="7.84394801594317">
        <ele>949.91999999999996</ele>
        <time>2025-05-19T09:46:39Z</time>
      </trkpt>
      <trkpt lat="43.999264966696501" lon="7.843880038708448">
        <ele>950.39999999999998</ele>
        <time>2025-05-19T09:46:40Z</time>
      </trkpt>
      <trkpt lat="43.999235965311527" lon="7.843831004574895">
        <ele>950.88</ele>
        <time>2025-05-19T09:46:41Z</time>
      </trkpt>
      <trkpt lat="43.999179974198341" lon="7.843771995976567">
        <ele>951.36000000000001</ele>
        <time>2025-05-19T09:46:42Z</time>
      </trkpt>
      <trkpt lat="43.99913102388382" lon="7.843720028176904">
        <ele>951.84000000000003</ele>
        <time>2025-05-19T09:46:43Z</time>
      </trkpt>
      <trkpt lat="43.999087018892169" lon="7.843673005700111">
        <ele>951.84000000000003</ele>
        <time>2025-05-19T09:46:44Z</time>
      </trkpt>
      <trkpt lat="43.999038990586996" lon="7.843621959909797">
        <ele>951.84000000000003</ele>
        <time>2025-05-19T09:46:45Z</time>
      </trkpt>
      <trkpt lat="43.998942011967301" lon="7.843520035967231">
        <ele>951.84000000000003</ele>
        <time>2025-05-19T09:46:47Z</time>
      </trkpt>
      <trkpt lat="43.998871017247438" lon="7.843444012105465">
        <ele>951.84000000000003</ele>
        <time>2025-05-19T09:46:48Z</time>
      </trkpt>
      <trkpt lat="43.998862970620394" lon="7.843418028205633">
        <ele>951.84000000000003</ele>
        <time>2025-05-19T09:46:49Z</time>
      </trkpt>
      <trkpt lat="43.998841010034084" lon="7.843344016000629">
        <ele>951.36000000000001</ele>
        <time>2025-05-19T09:46:50Z</time>
      </trkpt>
      <trkpt lat="43.998806979507208" lon="7.843230022117496">
        <ele>951.36000000000001</ele>
        <time>2025-05-19T09:46:51Z</time>
      </trkpt>
      <trkpt lat="43.99883002974093" lon="7.843161039054394">
        <ele>950.88</ele>
        <time>2025-05-19T09:46:52Z</time>
      </trkpt>
      <trkpt lat="43.998861964792013" lon="7.843093983829022">
        <ele>950.88</ele>
        <time>2025-05-19T09:46:53Z</time>
      </trkpt>
      <trkpt lat="43.998905969783664" lon="7.843066994100809">
        <ele>950.39999999999998</ele>
        <time>2025-05-19T09:46:54Z</time>
      </trkpt>
      <trkpt lat="43.998957015573978" lon="7.843036986887455">
        <ele>950.39999999999998</ele>
        <time>2025-05-19T09:46:55Z</time>
      </trkpt>
      <trkpt lat="43.99900496006012" lon="7.843032963573933">
        <ele>950.39999999999998</ele>
        <time>2025-05-19T09:46:56Z</time>
      </trkpt>
      <trkpt lat="43.999062962830067" lon="7.843028018251061">
        <ele>950.39999999999998</ele>
        <time>2025-05-19T09:46:57Z</time>
      </trkpt>
      <trkpt lat="43.999129012227058" lon="7.843021983280778">
        <ele>950.39999999999998</ele>
        <time>2025-05-19T09:46:58Z</time>
      </trkpt>
      <trkpt lat="43.999345013871789" lon="7.84300304017961">
        <ele>951.84000000000003</ele>
        <time>2025-05-19T09:47:01Z</time>
      </trkpt>
      <trkpt lat="43.999453978613019" lon="7.842989964410663">
        <ele>952.32000000000005</ele>
        <time>2025-05-19T09:47:02Z</time>
      </trkpt>
      <trkpt lat="43.999514998868108" lon="7.842925004661083">
        <ele>953.27999999999997</ele>
        <time>2025-05-19T09:47:03Z</time>
      </trkpt>
      <trkpt lat="43.999579036608338" lon="7.842857027426362">
        <ele>953.76999999999998</ele>
        <time>2025-05-19T09:47:04Z</time>
      </trkpt>
      <trkpt lat="43.999643996357918" lon="7.842787960544229">
        <ele>955.21000000000004</ele>
        <time>2025-05-19T09:47:05Z</time>
      </trkpt>
      <trkpt lat="43.999772993847728" lon="7.842649994418025">
        <ele>955.21000000000004</ele>
        <time>2025-05-19T09:47:07Z</time>
      </trkpt>
      <trkpt lat="43.999824039638042" lon="7.842557961121202">
        <ele>955.21000000000004</ele>
        <time>2025-05-19T09:47:08Z</time>
      </trkpt>
      <trkpt lat="43.999880030751228" lon="7.842415971681476">
        <ele>955.69000000000005</ele>
        <time>2025-05-19T09:47:09Z</time>
      </trkpt>
      <trkpt lat="43.999880030751228" lon="7.842300971969962">
        <ele>955.69000000000005</ele>
        <time>2025-05-19T09:47:10Z</time>
      </trkpt>
      <trkpt lat="43.99986200965941" lon="7.842139033600688">
        <ele>955.69000000000005</ele>
        <time>2025-05-19T09:47:11Z</time>
      </trkpt>
      <trkpt lat="43.999804006889462" lon="7.842013975605369">
        <ele>955.69000000000005</ele>
        <time>2025-05-19T09:47:12Z</time>
      </trkpt>
      <trkpt lat="43.999750027433038" lon="7.841896964237094">
        <ele>955.21000000000004</ele>
        <time>2025-05-19T09:47:13Z</time>
      </trkpt>
      <trkpt lat="43.999707028269768" lon="7.841804008930922">
        <ele>954.73000000000002</ele>
        <time>2025-05-19T09:47:14Z</time>
      </trkpt>
      <trkpt lat="43.999667968600988" lon="7.841720022261143">
        <ele>954.25</ele>
        <time>2025-05-19T09:47:15Z</time>
      </trkpt>
      <trkpt lat="43.999635027721524" lon="7.841647015884519">
        <ele>954.25</ele>
        <time>2025-05-19T09:47:16Z</time>
      </trkpt>
      <trkpt lat="43.999622035771608" lon="7.841621031984687">
        <ele>953.76999999999998</ele>
        <time>2025-05-19T09:47:17Z</time>
      </trkpt>
      <trkpt lat="43.999721026048064" lon="7.841463033109903">
        <ele>954.25</ele>
        <time>2025-05-19T09:47:24Z</time>
      </trkpt>
      <trkpt lat="43.999729994684458" lon="7.841449035331607">
        <ele>954.25</ele>
        <time>2025-05-19T09:47:25Z</time>
      </trkpt>
      <trkpt lat="43.999738963320851" lon="7.841448029503226">
        <ele>954.25</ele>
        <time>2025-05-19T09:47:26Z</time>
      </trkpt>
      <trkpt lat="43.999729994684458" lon="7.841449035331607">
        <ele>953.27999999999997</ele>
        <time>2025-05-19T09:47:27Z</time>
      </trkpt>
      <trkpt lat="43.999729994684458" lon="7.841449035331607">
        <ele>952.79999999999995</ele>
        <time>2025-05-19T09:47:28Z</time>
      </trkpt>
      <trkpt lat="43.999729994684458" lon="7.841449035331607">
        <ele>952.32000000000005</ele>
        <time>2025-05-19T09:47:29Z</time>
      </trkpt>
      <trkpt lat="43.999965023249388" lon="7.840265007689595">
        <ele>951.36000000000001</ele>
        <time>2025-05-19T09:47:34Z</time>
      </trkpt>
      <trkpt lat="43.999938033521175" lon="7.839627983048558">
        <ele>950.88</ele>
        <time>2025-05-19T09:47:38Z</time>
      </trkpt>
      <trkpt lat="43.999941973015666" lon="7.839208971709013">
        <ele>951.84000000000003</ele>
        <time>2025-05-19T09:47:43Z</time>
      </trkpt>
      <trkpt lat="44.000318991020322" lon="7.838891968131065">
        <ele>950.39999999999998</ele>
        <time>2025-05-19T09:47:47Z</time>
      </trkpt>
      <trkpt lat="44.000952998176217" lon="7.838616035878658">
        <ele>949.44000000000005</ele>
        <time>2025-05-19T09:47:51Z</time>
      </trkpt>
      <trkpt lat="44.001011000946164" lon="7.838504975661635">
        <ele>949.44000000000005</ele>
        <time>2025-05-19T09:47:52Z</time>
      </trkpt>
      <trkpt lat="44.001061040908098" lon="7.838409002870321">
        <ele>949.91999999999996</ele>
        <time>2025-05-19T09:47:53Z</time>
      </trkpt>
      <trkpt lat="44.001189032569528" lon="7.838166011497378">
        <ele>949.44000000000005</ele>
        <time>2025-05-19T09:47:54Z</time>
      </trkpt>
      <trkpt lat="44.001189032569528" lon="7.838166011497378">
        <ele>948.96000000000004</ele>
        <time>2025-05-19T09:47:55Z</time>
      </trkpt>
      <trkpt lat="44.001360023394227" lon="7.838015975430608">
        <ele>948.96000000000004</ele>
        <time>2025-05-19T09:47:56Z</time>
      </trkpt>
      <trkpt lat="44.001452978700399" lon="7.838002983480692">
        <ele>948.96000000000004</ele>
        <time>2025-05-19T09:47:57Z</time>
      </trkpt>
      <trkpt lat="44.001604020595551" lon="7.837983034551144">
        <ele>948.96000000000004</ele>
        <time>2025-05-19T09:47:58Z</time>
      </trkpt>
      <trkpt lat="44.001761013641953" lon="7.837960990145803">
        <ele>948.96000000000004</ele>
        <time>2025-05-19T09:47:59Z</time>
      </trkpt>
      <trkpt lat="44.001935021951795" lon="7.837978005409241">
        <ele>948.48000000000002</ele>
        <time>2025-05-19T09:48:00Z</time>
      </trkpt>
      <trkpt lat="44.002081034705043" lon="7.838015975430608">
        <ele>948</ele>
        <time>2025-05-19T09:48:01Z</time>
      </trkpt>
      <trkpt lat="44.002243978902698" lon="7.838057968765497">
        <ele>948.96000000000004</ele>
        <time>2025-05-19T09:48:02Z</time>
      </trkpt>
      <trkpt lat="44.002407006919384" lon="7.838099962100387">
        <ele>950.88</ele>
        <time>2025-05-19T09:48:03Z</time>
      </trkpt>
      <trkpt lat="44.002412036061287" lon="7.838100967928767">
        <ele>951.84000000000003</ele>
        <time>2025-05-19T09:48:04Z</time>
      </trkpt>
      <trkpt lat="44.002759968861938" lon="7.838060986250639">
        <ele>953.76999999999998</ele>
        <time>2025-05-19T09:48:05Z</time>
      </trkpt>
      <trkpt lat="44.002905981615186" lon="7.838112032040954">
        <ele>953.76999999999998</ele>
        <time>2025-05-19T09:48:06Z</time>
      </trkpt>
      <trkpt lat="44.003017041832209" lon="7.838151007890701">
        <ele>952.79999999999995</ele>
        <time>2025-05-19T09:48:07Z</time>
      </trkpt>
      <trkpt lat="44.003118965774775" lon="7.838186966255307">
        <ele>952.32000000000005</ele>
        <time>2025-05-19T09:48:08Z</time>
      </trkpt>
      <trkpt lat="44.003119971603155" lon="7.838186966255307">
        <ele>951.84000000000003</ele>
        <time>2025-05-19T09:48:09Z</time>
      </trkpt>
      <trkpt lat="44.00315199047327" lon="7.838159976527095">
        <ele>951.36000000000001</ele>
        <time>2025-05-19T09:48:10Z</time>
      </trkpt>
      <trkpt lat="44.003241006284952" lon="7.838081018999219">
        <ele>950.39999999999998</ele>
        <time>2025-05-19T09:48:11Z</time>
      </trkpt>
      <trkpt lat="44.003332033753395" lon="7.838000971823931">
        <ele>949.44000000000005</ele>
        <time>2025-05-19T09:48:12Z</time>
      </trkpt>
      <trkpt lat="44.003425994887948" lon="7.837920002639294">
        <ele>948.48000000000002</ele>
        <time>2025-05-19T09:48:13Z</time>
      </trkpt>
      <trkpt lat="44.00351501069963" lon="7.837840961292386">
        <ele>947.51999999999998</ele>
        <time>2025-05-19T09:48:14Z</time>
      </trkpt>
      <trkpt lat="44.003566978499293" lon="7.837796034291387">
        <ele>946.07000000000005</ele>
        <time>2025-05-19T09:48:15Z</time>
      </trkpt>
      <trkpt lat="44.003610983490944" lon="7.837756974622607">
        <ele>944.63</ele>
        <time>2025-05-19T09:48:16Z</time>
      </trkpt>
      <trkpt lat="44.003635039553046" lon="7.837737025693059">
        <ele>943.19000000000005</ele>
        <time>2025-05-19T09:48:17Z</time>
      </trkpt>
      <trkpt lat="44.003635039553046" lon="7.837737025693059">
        <ele>943.66999999999996</ele>
        <time>2025-05-19T09:48:18Z</time>
      </trkpt>
      <trkpt lat="44.003784991800785" lon="7.838423000648618">
        <ele>942.23000000000002</ele>
        <time>2025-05-19T09:48:20Z</time>
      </trkpt>
      <trkpt lat="44.003870990127325" lon="7.838573958724737">
        <ele>941.26999999999998</ele>
        <time>2025-05-19T09:48:21Z</time>
      </trkpt>
      <trkpt lat="44.003870990127325" lon="7.838573958724737">
        <ele>941.26999999999998</ele>
        <time>2025-05-19T09:48:22Z</time>
      </trkpt>
      <trkpt lat="44.003870990127325" lon="7.83868401311338">
        <ele>940.78999999999996</ele>
        <time>2025-05-19T09:48:23Z</time>
      </trkpt>
      <trkpt lat="44.003870990127325" lon="7.839010991156101">
        <ele>941.26999999999998</ele>
        <time>2025-05-19T09:48:25Z</time>
      </trkpt>
      <trkpt lat="44.003870990127325" lon="7.839165972545743">
        <ele>941.75</ele>
        <time>2025-05-19T09:48:26Z</time>
      </trkpt>
      <trkpt lat="44.003870990127325" lon="7.839305028319359">
        <ele>941.26999999999998</ele>
        <time>2025-05-19T09:48:27Z</time>
      </trkpt>
      <trkpt lat="44.003900997340679" lon="7.839540978893638">
        <ele>941.26999999999998</ele>
        <time>2025-05-19T09:48:28Z</time>
      </trkpt>
      <trkpt lat="44.003999987617135" lon="7.839689003303647">
        <ele>940.78999999999996</ele>
        <time>2025-05-19T09:48:29Z</time>
      </trkpt>
      <trkpt lat="44.004057990387082" lon="7.839750023558736">
        <ele>940.78999999999996</ele>
        <time>2025-05-19T09:48:30Z</time>
      </trkpt>
      <trkpt lat="44.004135020077229" lon="7.839829986914992">
        <ele>940.78999999999996</ele>
        <time>2025-05-19T09:48:31Z</time>
      </trkpt>
      <trkpt lat="44.004206014797091" lon="7.839903999119997">
        <ele>940.30999999999995</ele>
        <time>2025-05-19T09:48:32Z</time>
      </trkpt>
      <trkpt lat="44.00426996871829" lon="7.839970970526338">
        <ele>940.30999999999995</ele>
        <time>2025-05-19T09:48:33Z</time>
      </trkpt>
      <trkpt lat="44.004329983144999" lon="7.840032996609807">
        <ele>939.83000000000004</ele>
        <time>2025-05-19T09:48:34Z</time>
      </trkpt>
      <trkpt lat="44.004393015056849" lon="7.840098962187767">
        <ele>939.83000000000004</ele>
        <time>2025-05-19T09:48:35Z</time>
      </trkpt>
      <trkpt lat="44.004514971747994" lon="7.840226031839848">
        <ele>939.35000000000002</ele>
        <time>2025-05-19T09:48:36Z</time>
      </trkpt>
      <trkpt lat="44.00459099560976" lon="7.840261990204454">
        <ele>939.35000000000002</ele>
        <time>2025-05-19T09:48:37Z</time>
      </trkpt>
      <trkpt lat="44.004689985886216" lon="7.840308006852865">
        <ele>939.35000000000002</ele>
        <time>2025-05-19T09:48:38Z</time>
      </trkpt>
      <trkpt lat="44.004790987819433" lon="7.840356035158038">
        <ele>939.35000000000002</ele>
        <time>2025-05-19T09:48:39Z</time>
      </trkpt>
      <trkpt lat="44.004880003631115" lon="7.840397022664547">
        <ele>938.86000000000001</ele>
        <time>2025-05-19T09:48:40Z</time>
      </trkpt>
      <trkpt lat="44.004939012229443" lon="7.840470029041171">
        <ele>938.38</ele>
        <time>2025-05-19T09:48:41Z</time>
      </trkpt>
      <trkpt lat="44.005028028041124" lon="7.84057698212564">
        <ele>938.38</ele>
        <time>2025-05-19T09:48:42Z</time>
      </trkpt>
      <trkpt lat="44.005287028849125" lon="7.840890968218446">
        <ele>937.89999999999998</ele>
        <time>2025-05-19T09:48:45Z</time>
      </trkpt>
      <trkpt lat="44.005346037447453" lon="7.84102700650692">
        <ele>937.89999999999998</ele>
        <time>2025-05-19T09:48:46Z</time>
      </trkpt>
      <trkpt lat="44.005548041313887" lon="7.841493040323257">
        <ele>936.94000000000005</ele>
        <time>2025-05-19T09:48:49Z</time>
      </trkpt>
      <trkpt lat="44.005631022155285" lon="7.841684985905886">
        <ele>936.94000000000005</ele>
        <time>2025-05-19T09:48:50Z</time>
      </trkpt>
      <trkpt lat="44.00570897385478" lon="7.841792022809386">
        <ele>936.46000000000004</ele>
        <time>2025-05-19T09:48:51Z</time>
      </trkpt>
      <trkpt lat="44.005950037389994" lon="7.842160994186997">
        <ele>935.5</ele>
        <time>2025-05-19T09:48:54Z</time>
      </trkpt>
      <trkpt lat="44.005991024896502" lon="7.842303989455104">
        <ele>935.5</ele>
        <time>2025-05-19T09:48:55Z</time>
      </trkpt>
      <trkpt lat="44.006069982424378" lon="7.842580005526543">
        <ele>935.01999999999998</ele>
        <time>2025-05-19T09:48:57Z</time>
      </trkpt>
      <trkpt lat="44.006120022386312" lon="7.842717971652746">
        <ele>935.01999999999998</ele>
        <time>2025-05-19T09:48:58Z</time>
      </trkpt>
      <trkpt lat="44.006192022934556" lon="7.842816961929202">
        <ele>934.53999999999996</ele>
        <time>2025-05-19T09:48:59Z</time>
      </trkpt>
      <trkpt lat="44.006344992667437" lon="7.8430260065943">
        <ele>933.58000000000004</ele>
        <time>2025-05-19T09:49:01Z</time>
      </trkpt>
      <trkpt lat="44.006424034014344" lon="7.84313497133553">
        <ele>933.10000000000002</ele>
        <time>2025-05-19T09:49:02Z</time>
      </trkpt>
      <trkpt lat="44.006474995985627" lon="7.843268997967243">
        <ele>933.10000000000002</ele>
        <time>2025-05-19T09:49:03Z</time>
      </trkpt>
      <trkpt lat="44.006700972095132" lon="7.844067960977554">
        <ele>930.69000000000005</ele>
        <time>2025-05-19T09:49:08Z</time>
      </trkpt>
      <trkpt lat="44.006749000400305" lon="7.844177009537816">
        <ele>929.73000000000002</ele>
        <time>2025-05-19T09:49:09Z</time>
      </trkpt>
      <trkpt lat="44.006804991513491" lon="7.844233000651002">
        <ele>928.76999999999998</ele>
        <time>2025-05-19T09:49:10Z</time>
      </trkpt>
      <trkpt lat="44.006905993446708" lon="7.844259990379214">
        <ele>927.33000000000004</ele>
        <time>2025-05-19T09:49:11Z</time>
      </trkpt>
      <trkpt lat="44.007009007036686" lon="7.844257978722453">
        <ele>926.37</ele>
        <time>2025-05-19T09:49:12Z</time>
      </trkpt>
      <trkpt lat="44.007124006748199" lon="7.844252027571201">
        <ele>925.40999999999997</ele>
        <time>2025-05-19T09:49:13Z</time>
      </trkpt>
      <trkpt lat="44.007239006459713" lon="7.844244986772537">
        <ele>924.45000000000005</ele>
        <time>2025-05-19T09:49:14Z</time>
      </trkpt>
      <trkpt lat="44.007369009777904" lon="7.844238029792905">
        <ele>923.48000000000002</ele>
        <time>2025-05-19T09:49:15Z</time>
      </trkpt>
      <trkpt lat="44.007468000054359" lon="7.844176003709436">
        <ele>922.03999999999996</ele>
        <time>2025-05-19T09:49:16Z</time>
      </trkpt>
      <trkpt lat="44.007561039179564" lon="7.844116995111108">
        <ele>921.08000000000004</ele>
        <time>2025-05-19T09:49:17Z</time>
      </trkpt>
      <trkpt lat="44.007771005854011" lon="7.843984980136156">
        <ele>918.20000000000005</ele>
        <time>2025-05-19T09:49:19Z</time>
      </trkpt>
      <trkpt lat="44.007998993620276" lon="7.84384198486805">
        <ele>915.30999999999995</ele>
        <time>2025-05-19T09:49:21Z</time>
      </trkpt>
      <trkpt lat="44.008293030783534" lon="7.843654984608293">
        <ele>911.47000000000003</ele>
        <time>2025-05-19T09:49:24Z</time>
      </trkpt>
      <trkpt lat="44.00832898914814" lon="7.84356496296823">
        <ele>910.99000000000001</ele>
        <time>2025-05-19T09:49:25Z</time>
      </trkpt>
      <trkpt lat="44.008378023281693" lon="7.843437977135181">
        <ele>910.50999999999999</ele>
        <time>2025-05-19T09:49:26Z</time>
      </trkpt>
      <trkpt lat="44.008410964161158" lon="7.843293976038694">
        <ele>909.05999999999995</ele>
        <time>2025-05-19T09:49:27Z</time>
      </trkpt>
      <trkpt lat="44.008463015779853" lon="7.843058025464416">
        <ele>907.62</ele>
        <time>2025-05-19T09:49:28Z</time>
      </trkpt>
      <trkpt lat="44.008475001901388" lon="7.842958029359579">
        <ele>906.17999999999995</ele>
        <time>2025-05-19T09:49:29Z</time>
      </trkpt>
      <trkpt lat="44.008494028821588" lon="7.842797012999654">
        <ele>904.74000000000001</ele>
        <time>2025-05-19T09:49:30Z</time>
      </trkpt>
      <trkpt lat="44.008524036034942" lon="7.842540023848414">
        <ele>900.88999999999999</ele>
        <time>2025-05-19T09:49:32Z</time>
      </trkpt>
      <trkpt lat="44.008536022156477" lon="7.842438016086817">
        <ele>898.97000000000003</ele>
        <time>2025-05-19T09:49:33Z</time>
      </trkpt>
      <trkpt lat="44.008549014106393" lon="7.842328967526555">
        <ele>897.04999999999995</ele>
        <time>2025-05-19T09:49:34Z</time>
      </trkpt>
      <trkpt lat="44.008555971086025" lon="7.842318993061781">
        <ele>895.61000000000001</ele>
        <time>2025-05-19T09:49:35Z</time>
      </trkpt>
      <trkpt lat="44.008614979684353" lon="7.842236012220383">
        <ele>893.67999999999995</ele>
        <time>2025-05-19T09:49:36Z</time>
      </trkpt>
      <trkpt lat="44.008836010470986" lon="7.841925965622068">
        <ele>887.90999999999997</ele>
        <time>2025-05-19T09:49:39Z</time>
      </trkpt>
      <trkpt lat="44.009028039872646" lon="7.841741982847452">
        <ele>884.07000000000005</ele>
        <time>2025-05-19T09:49:41Z</time>
      </trkpt>
      <trkpt lat="44.009122001007199" lon="7.841659002006054">
        <ele>882.63</ele>
        <time>2025-05-19T09:49:42Z</time>
      </trkpt>
      <trkpt lat="44.009203976020217" lon="7.841588007286191">
        <ele>880.71000000000004</ele>
        <time>2025-05-19T09:49:43Z</time>
      </trkpt>
      <trkpt lat="44.009282011538744" lon="7.84152003005147">
        <ele>878.77999999999997</ele>
        <time>2025-05-19T09:49:44Z</time>
      </trkpt>
      <trkpt lat="44.009363986551762" lon="7.841449035331607">
        <ele>876.86000000000001</ele>
        <time>2025-05-19T09:49:45Z</time>
      </trkpt>
      <trkpt lat="44.009471023455262" lon="7.841384997591376">
        <ele>874.94000000000005</ele>
        <time>2025-05-19T09:49:46Z</time>
      </trkpt>
      <trkpt lat="44.009835971519351" lon="7.841406036168337">
        <ele>869.16999999999996</ele>
        <time>2025-05-19T09:49:49Z</time>
      </trkpt>
      <trkpt lat="44.009850975126028" lon="7.841397989541292">
        <ele>866.76999999999998</ele>
        <time>2025-05-19T09:49:50Z</time>
      </trkpt>
      <trkpt lat="44.009932028129697" lon="7.841358007863164">
        <ele>865.79999999999995</ele>
        <time>2025-05-19T09:49:51Z</time>
      </trkpt>
      <trkpt lat="44.009835971519351" lon="7.841406036168337">
        <ele>863.88</ele>
        <time>2025-05-19T09:49:52Z</time>
      </trkpt>
      <trkpt lat="44.010179964825511" lon="7.841234039515257">
        <ele>862.44000000000005</ele>
        <time>2025-05-19T09:49:53Z</time>
      </trkpt>
      <trkpt lat="44.010179964825511" lon="7.841234039515257">
        <ele>861</ele>
        <time>2025-05-19T09:49:54Z</time>
      </trkpt>
      <trkpt lat="44.010279960930347" lon="7.841292964294553">
        <ele>860.03999999999996</ele>
        <time>2025-05-19T09:49:55Z</time>
      </trkpt>
      <trkpt lat="44.010386997833848" lon="7.841355996206403">
        <ele>858.59000000000003</ele>
        <time>2025-05-19T09:49:56Z</time>
      </trkpt>
      <trkpt lat="44.010543990880251" lon="7.841449035331607">
        <ele>856.66999999999996</ele>
        <time>2025-05-19T09:49:57Z</time>
      </trkpt>
      <trkpt lat="44.010662008076906" lon="7.841423973441124">
        <ele>854.75</ele>
        <time>2025-05-19T09:49:58Z</time>
      </trkpt>
      <trkpt lat="44.01092603802681" lon="7.841366976499558">
        <ele>850.41999999999996</ele>
        <time>2025-05-19T09:50:00Z</time>
      </trkpt>
      <trkpt lat="44.01103600859642" lon="7.841344010084868">
        <ele>848.5</ele>
        <time>2025-05-19T09:50:01Z</time>
      </trkpt>
      <trkpt lat="44.011179003864527" lon="7.841276032850146">
        <ele>846.10000000000002</ele>
        <time>2025-05-19T09:50:02Z</time>
      </trkpt>
      <trkpt lat="44.011225020512938" lon="7.841216018423438">
        <ele>843.69000000000005</ele>
        <time>2025-05-19T09:50:03Z</time>
      </trkpt>
      <trkpt lat="44.011284029111266" lon="7.841138988733292">
        <ele>841.76999999999998</ele>
        <time>2025-05-19T09:50:04Z</time>
      </trkpt>
      <trkpt lat="44.011879982426763" lon="7.840561978518963">
        <ele>828.78999999999996</ele>
        <time>2025-05-19T09:50:10Z</time>
      </trkpt>
      <trkpt lat="44.012046027928591" lon="7.840418983250856">
        <ele>826.87</ele>
        <time>2025-05-19T09:50:11Z</time>
      </trkpt>
      <trkpt lat="44.012476019561291" lon="7.839953033253551">
        <ele>814.85000000000002</ele>
        <time>2025-05-19T09:50:16Z</time>
      </trkpt>
      <trkpt lat="44.012577021494508" lon="7.839833004400134">
        <ele>811.97000000000003</ele>
        <time>2025-05-19T09:50:17Z</time>
      </trkpt>
      <trkpt lat="44.012674000114202" lon="7.839658996090293">
        <ele>806.20000000000005</ele>
        <time>2025-05-19T09:50:19Z</time>
      </trkpt>
      <trkpt lat="44.012709958478808" lon="7.839593030512333">
        <ele>804.75999999999999</ele>
        <time>2025-05-19T09:50:20Z</time>
      </trkpt>
      <trkpt lat="44.0127760078758" lon="7.839475013315678">
        <ele>804.75999999999999</ele>
        <time>2025-05-19T09:50:21Z</time>
      </trkpt>
      <trkpt lat="44.0127760078758" lon="7.839475013315678">
        <ele>805.72000000000003</ele>
        <time>2025-05-19T09:50:22Z</time>
      </trkpt>
      <trkpt lat="44.012848008424044" lon="7.839592024683952">
        <ele>806.67999999999995</ele>
        <time>2025-05-19T09:50:23Z</time>
      </trkpt>
      <trkpt lat="44.012839961796999" lon="7.839646004140377">
        <ele>806.20000000000005</ele>
        <time>2025-05-19T09:50:24Z</time>
      </trkpt>
      <trkpt lat="44.012783970683813" lon="7.839722028002143">
        <ele>806.67999999999995</ele>
        <time>2025-05-19T09:50:25Z</time>
      </trkpt>
      <trkpt lat="44.012737032026052" lon="7.839783970266581">
        <ele>807.15999999999997</ele>
        <time>2025-05-19T09:50:26Z</time>
      </trkpt>
      <trkpt lat="44.012427991256118" lon="7.840196024626494">
        <ele>809.09000000000003</ele>
        <time>2025-05-19T09:50:30Z</time>
      </trkpt>
      <trkpt lat="44.012234034016728" lon="7.840486960485578">
        <ele>811.00999999999999</ele>
        <time>2025-05-19T09:50:32Z</time>
      </trkpt>
      <trkpt lat="44.012124985456467" lon="7.840687958523631">
        <ele>811.97000000000003</ele>
        <time>2025-05-19T09:50:33Z</time>
      </trkpt>
      <trkpt lat="44.01185198687017" lon="7.841340992599726">
        <ele>814.37</ele>
        <time>2025-05-19T09:50:37Z</time>
      </trkpt>
      <trkpt lat="44.011770011857152" lon="7.841482982039452">
        <ele>814.85000000000002</ele>
        <time>2025-05-19T09:50:38Z</time>
      </trkpt>
      <trkpt lat="44.011256033554673" lon="7.842370960861445">
        <ele>815.82000000000005</ele>
        <time>2025-05-19T09:50:44Z</time>
      </trkpt>
      <trkpt lat="44.011183027178049" lon="7.842524014413357">
        <ele>815.82000000000005</ele>
        <time>2025-05-19T09:50:45Z</time>
      </trkpt>
      <trkpt lat="44.011117983609438" lon="7.842671032994986">
        <ele>815.82000000000005</ele>
        <time>2025-05-19T09:50:46Z</time>
      </trkpt>
      <trkpt lat="44.01092897169292" lon="7.843032041564584">
        <ele>816.77999999999997</ele>
        <time>2025-05-19T09:50:49Z</time>
      </trkpt>
      <trkpt lat="44.01095001026988" lon="7.843274027109146">
        <ele>817.25999999999999</ele>
        <time>2025-05-19T09:50:50Z</time>
      </trkpt>
      <trkpt lat="44.010869963094592" lon="7.843331024050713">
        <ele>816.77999999999997</ele>
        <time>2025-05-19T09:50:51Z</time>
      </trkpt>
      <trkpt lat="44.010765021666884" lon="7.843379974365234">
        <ele>816.77999999999997</ele>
        <time>2025-05-19T09:50:52Z</time>
      </trkpt>
      <trkpt lat="44.010676005855203" lon="7.843379974365234">
        <ele>816.29999999999995</ele>
        <time>2025-05-19T09:50:53Z</time>
      </trkpt>
      <trkpt lat="44.010618003085256" lon="7.843379974365234">
        <ele>816.77999999999997</ele>
        <time>2025-05-19T09:50:54Z</time>
      </trkpt>
      <trkpt lat="44.010801985859871" lon="7.843379974365234">
        <ele>817.25999999999999</ele>
        <time>2025-05-19T09:50:55Z</time>
      </trkpt>
      <trkpt lat="44.010637030005455" lon="7.84319800324738">
        <ele>819.17999999999995</ele>
        <time>2025-05-19T09:50:57Z</time>
      </trkpt>
      <trkpt lat="44.010658990591764" lon="7.843196997419">
        <ele>819.17999999999995</ele>
        <time>2025-05-19T09:50:58Z</time>
      </trkpt>
      <trkpt lat="44.010693021118641" lon="7.843193979933858">
        <ele>818.70000000000005</ele>
        <time>2025-05-19T09:50:59Z</time>
      </trkpt>
      <trkpt lat="44.010749012231827" lon="7.843190040439367">
        <ele>818.70000000000005</ele>
        <time>2025-05-19T09:51:00Z</time>
      </trkpt>
      <trkpt lat="44.010801985859871" lon="7.843187022954226">
        <ele>817.74000000000001</ele>
        <time>2025-05-19T09:51:01Z</time>
      </trkpt>
      <trkpt lat="44.01090600527823" lon="7.843060037121177">
        <ele>817.74000000000001</ele>
        <time>2025-05-19T09:51:02Z</time>
      </trkpt>
      <trkpt lat="44.010995021089911" lon="7.842950988560915">
        <ele>817.25999999999999</ele>
        <time>2025-05-19T09:51:03Z</time>
      </trkpt>
      <trkpt lat="44.011056963354349" lon="7.84281101077795">
        <ele>816.77999999999997</ele>
        <time>2025-05-19T09:51:04Z</time>
      </trkpt>
      <trkpt lat="44.011117983609438" lon="7.842671032994986">
        <ele>816.29999999999995</ele>
        <time>2025-05-19T09:51:05Z</time>
      </trkpt>
      <trkpt lat="44.011563984677196" lon="7.841838039457798">
        <ele>812.45000000000005</ele>
        <time>2025-05-19T09:51:11Z</time>
      </trkpt>
      <trkpt lat="44.011838994920254" lon="7.841363959014416">
        <ele>811.49000000000001</ele>
        <time>2025-05-19T09:51:15Z</time>
      </trkpt>
      <trkpt lat="44.01193899102509" lon="7.841191040351987">
        <ele>811.49000000000001</ele>
        <time>2025-05-19T09:51:16Z</time>
      </trkpt>
      <trkpt lat="44.01193899102509" lon="7.841191040351987">
        <ele>811.00999999999999</ele>
        <time>2025-05-19T09:51:17Z</time>
      </trkpt>
      <trkpt lat="44.011995987966657" lon="7.841036980971694">
        <ele>810.52999999999997</ele>
        <time>2025-05-19T09:51:19Z</time>
      </trkpt>
      <trkpt lat="44.012018032371998" lon="7.840978978201747">
        <ele>810.04999999999995</ele>
        <time>2025-05-19T09:51:20Z</time>
      </trkpt>
      <trkpt lat="44.01256101205945" lon="7.841535033658147">
        <ele>810.04999999999995</ele>
        <time>2025-05-19T09:51:23Z</time>
      </trkpt>
      <trkpt lat="44.01256101205945" lon="7.841535033658147">
        <ele>809.57000000000005</ele>
        <time>2025-05-19T09:51:24Z</time>
      </trkpt>
      <trkpt lat="44.01253997348249" lon="7.841684985905886">
        <ele>809.09000000000003</ele>
        <time>2025-05-19T09:51:25Z</time>
      </trkpt>
      <trkpt lat="44.01249697431922" lon="7.841771990060806">
        <ele>809.57000000000005</ele>
        <time>2025-05-19T09:51:26Z</time>
      </trkpt>
      <trkpt lat="44.012426985427737" lon="7.841915991157293">
        <ele>810.04999999999995</ele>
        <time>2025-05-19T09:51:27Z</time>
      </trkpt>
      <trkpt lat="44.012192962691188" lon="7.842394011095166">
        <ele>810.04999999999995</ele>
        <time>2025-05-19T09:51:30Z</time>
      </trkpt>
      <trkpt lat="44.01198098435998" lon="7.842877982184291">
        <ele>809.09000000000003</ele>
        <time>2025-05-19T09:51:33Z</time>
      </trkpt>
      <trkpt lat="44.011921975761652" lon="7.843044027686119">
        <ele>808.61000000000001</ele>
        <time>2025-05-19T09:51:34Z</time>
      </trkpt>
      <trkpt lat="44.011870007961988" lon="7.843190962448716">
        <ele>808.13</ele>
        <time>2025-05-19T09:51:35Z</time>
      </trkpt>
      <trkpt lat="44.011774035170674" lon="7.843462033197284">
        <ele>807.63999999999999</ele>
        <time>2025-05-19T09:51:37Z</time>
      </trkpt>
      <trkpt lat="44.011729024350643" lon="7.843589019030333">
        <ele>806.67999999999995</ele>
        <time>2025-05-19T09:51:38Z</time>
      </trkpt>
      <trkpt lat="44.011682001873851" lon="7.843722961843014">
        <ele>806.20000000000005</ele>
        <time>2025-05-19T09:51:39Z</time>
      </trkpt>
      <trkpt lat="44.01161695830524" lon="7.843840979039669">
        <ele>805.24000000000001</ele>
        <time>2025-05-19T09:51:40Z</time>
      </trkpt>
      <trkpt lat="44.011545041576028" lon="7.843969976529479">
        <ele>804.27999999999997</ele>
        <time>2025-05-19T09:51:41Z</time>
      </trkpt>
      <trkpt lat="44.011463988572359" lon="7.844075001776218">
        <ele>803.79999999999995</ele>
        <time>2025-05-19T09:51:42Z</time>
      </trkpt>
      <trkpt lat="44.011301966384053" lon="7.844284968450666">
        <ele>802.36000000000001</ele>
        <time>2025-05-19T09:51:44Z</time>
      </trkpt>
      <trkpt lat="44.011219991371036" lon="7.844392005354166">
        <ele>801.88</ele>
        <time>2025-05-19T09:51:45Z</time>
      </trkpt>
      <trkpt lat="44.011124018579721" lon="7.844516979530454">
        <ele>800.91999999999996</ele>
        <time>2025-05-19T09:51:46Z</time>
      </trkpt>
      <trkpt lat="44.011054029688239" lon="7.84457003697753">
        <ele>800.44000000000005</ele>
        <time>2025-05-19T09:51:47Z</time>
      </trkpt>
      <trkpt lat="44.010935006663203" lon="7.844645977020264">
        <ele>799.95000000000005</ele>
        <time>2025-05-19T09:51:48Z</time>
      </trkpt>
      <trkpt lat="44.010853031650186" lon="7.844645977020264">
        <ele>798.99000000000001</ele>
        <time>2025-05-19T09:51:49Z</time>
      </trkpt>
      <trkpt lat="44.01067198254168" lon="7.844612030312419">
        <ele>798.02999999999997</ele>
        <time>2025-05-19T09:51:50Z</time>
      </trkpt>
      <trkpt lat="44.010587995871902" lon="7.844545980915427">
        <ele>797.07000000000005</ele>
        <time>2025-05-19T09:51:51Z</time>
      </trkpt>
      <trkpt lat="44.010523036122322" lon="7.844494013115764">
        <ele>796.11000000000001</ele>
        <time>2025-05-19T09:51:52Z</time>
      </trkpt>
      <trkpt lat="44.010415999218822" lon="7.844410026445985">
        <ele>796.11000000000001</ele>
        <time>2025-05-19T09:51:53Z</time>
      </trkpt>
      <trkpt lat="44.010415999218822" lon="7.844410026445985">
        <ele>797.07000000000005</ele>
        <time>2025-05-19T09:51:54Z</time>
      </trkpt>
      <trkpt lat="44.010415999218822" lon="7.844410026445985">
        <ele>798.50999999999999</ele>
        <time>2025-05-19T09:51:55Z</time>
      </trkpt>
      <trkpt lat="44.010405018925667" lon="7.844611024484038">
        <ele>799.95000000000005</ele>
        <time>2025-05-19T09:51:56Z</time>
      </trkpt>
      <trkpt lat="44.010522030293941" lon="7.844673972576857">
        <ele>800.91999999999996</ele>
        <time>2025-05-19T09:51:57Z</time>
      </trkpt>
      <trkpt lat="44.010577015578747" lon="7.84470004029572">
        <ele>800.91999999999996</ele>
        <time>2025-05-19T09:51:58Z</time>
      </trkpt>
      <trkpt lat="44.010712970048189" lon="7.844763994216919">
        <ele>799.95000000000005</ele>
        <time>2025-05-19T09:52:00Z</time>
      </trkpt>
      <trkpt lat="44.010780025273561" lon="7.844796013087034">
        <ele>798.99000000000001</ele>
        <time>2025-05-19T09:52:01Z</time>
      </trkpt>
      <trkpt lat="44.010914973914623" lon="7.844781009480357">
        <ele>798.50999999999999</ele>
        <time>2025-05-19T09:52:02Z</time>
      </trkpt>
      <trkpt lat="44.011008013039827" lon="7.844770029187203">
        <ele>798.02999999999997</ele>
        <time>2025-05-19T09:52:03Z</time>
      </trkpt>
      <trkpt lat="44.011110020801425" lon="7.844758965075016">
        <ele>797.54999999999995</ele>
        <time>2025-05-19T09:52:04Z</time>
      </trkpt>
      <trkpt lat="44.011209011077881" lon="7.844746978953481">
        <ele>796.59000000000003</ele>
        <time>2025-05-19T09:52:05Z</time>
      </trkpt>
      <trkpt lat="44.011304983869195" lon="7.844735998660326">
        <ele>796.11000000000001</ele>
        <time>2025-05-19T09:52:06Z</time>
      </trkpt>
      <trkpt lat="44.011404979974031" lon="7.844725018367171">
        <ele>795.63</ele>
        <time>2025-05-19T09:52:07Z</time>
      </trkpt>
      <trkpt lat="44.011498019099236" lon="7.844714038074017">
        <ele>794.66999999999996</ele>
        <time>2025-05-19T09:52:08Z</time>
      </trkpt>
      <trkpt lat="44.01157395914197" lon="7.844657963141799">
        <ele>793.71000000000004</ele>
        <time>2025-05-19T09:52:09Z</time>
      </trkpt>
      <trkpt lat="44.0116379968822" lon="7.844580011442304">
        <ele>792.25999999999999</ele>
        <time>2025-05-19T09:52:10Z</time>
      </trkpt>
      <trkpt lat="44.011726006865501" lon="7.844471968710423">
        <ele>790.34000000000003</ele>
        <time>2025-05-19T09:52:11Z</time>
      </trkpt>
      <trkpt lat="44.0118089877069" lon="7.844352023676038">
        <ele>788.41999999999996</ele>
        <time>2025-05-19T09:52:12Z</time>
      </trkpt>
      <trkpt lat="44.012265969067812" lon="7.843493968248367">
        <ele>777.36000000000001</ele>
        <time>2025-05-19T09:52:18Z</time>
      </trkpt>
      <trkpt lat="44.012399995699525" lon="7.843214012682438">
        <ele>773.51999999999998</ele>
        <time>2025-05-19T09:52:20Z</time>
      </trkpt>
      <trkpt lat="44.01269000954926" lon="7.842608001083136">
        <ele>764.38999999999999</ele>
        <time>2025-05-19T09:52:25Z</time>
      </trkpt>
      <trkpt lat="44.012749018147588" lon="7.842548992484808">
        <ele>764.38999999999999</ele>
        <time>2025-05-19T09:52:26Z</time>
      </trkpt>
      <trkpt lat="44.012848008424044" lon="7.842485960572958">
        <ele>763.89999999999998</ele>
        <time>2025-05-19T09:52:28Z</time>
      </trkpt>
      <trkpt lat="44.01294800452888" lon="7.842456959187985">
        <ele>764.38999999999999</ele>
        <time>2025-05-19T09:52:29Z</time>
      </trkpt>
      <trkpt lat="44.013028973713517" lon="7.842515967786312">
        <ele>764.87</ele>
        <time>2025-05-19T09:52:30Z</time>
      </trkpt>
      <trkpt lat="44.01337799616158" lon="7.84274403937161">
        <ele>765.83000000000004</ele>
        <time>2025-05-19T09:52:33Z</time>
      </trkpt>
      <trkpt lat="44.01346399448812" lon="7.842758037149906">
        <ele>766.30999999999995</ele>
        <time>2025-05-19T09:52:34Z</time>
      </trkpt>
      <trkpt lat="44.013544963672757" lon="7.842771029099822">
        <ele>767.26999999999998</ele>
        <time>2025-05-19T09:52:35Z</time>
      </trkpt>
      <trkpt lat="44.013590980321169" lon="7.842778991907835">
        <ele>767.26999999999998</ele>
        <time>2025-05-19T09:52:36Z</time>
      </trkpt>
      <trkpt lat="44.013590980321169" lon="7.842778991907835">
        <ele>767.75</ele>
        <time>2025-05-19T09:52:37Z</time>
      </trkpt>
      <trkpt lat="44.013628028333187" lon="7.842872031033039">
        <ele>768.71000000000004</ele>
        <time>2025-05-19T09:52:38Z</time>
      </trkpt>
      <trkpt lat="44.013633979484439" lon="7.842887034639716">
        <ele>768.23000000000002</ele>
        <time>2025-05-19T09:52:39Z</time>
      </trkpt>
      <trkpt lat="44.013633979484439" lon="7.842887034639716">
        <ele>767.75</ele>
        <time>2025-05-19T09:52:40Z</time>
      </trkpt>
      <trkpt lat="44.013607995584607" lon="7.842926010489464">
        <ele>767.75</ele>
        <time>2025-05-19T09:52:41Z</time>
      </trkpt>
      <trkpt lat="44.013504981994629" lon="7.842950988560915">
        <ele>768.23000000000002</ele>
        <time>2025-05-19T09:52:42Z</time>
      </trkpt>
      <trkpt lat="44.013372967019677" lon="7.842894997447729">
        <ele>768.23000000000002</ele>
        <time>2025-05-19T09:52:43Z</time>
      </trkpt>
      <trkpt lat="44.013276994228363" lon="7.842855015769601">
        <ele>768.23000000000002</ele>
        <time>2025-05-19T09:52:44Z</time>
      </trkpt>
      <trkpt lat="44.013098040595651" lon="7.842778991907835">
        <ele>768.23000000000002</ele>
        <time>2025-05-19T09:52:45Z</time>
      </trkpt>
      <trkpt lat="44.013098040595651" lon="7.842778991907835">
        <ele>768.71000000000004</ele>
        <time>2025-05-19T09:52:46Z</time>
      </trkpt>
      <trkpt lat="44.012945992872119" lon="7.842900026589632">
        <ele>768.71000000000004</ele>
        <time>2025-05-19T09:52:47Z</time>
      </trkpt>
      <trkpt lat="44.012942975386977" lon="7.842994993552566">
        <ele>769.19000000000005</ele>
        <time>2025-05-19T09:52:48Z</time>
      </trkpt>
      <trkpt lat="44.012939035892487" lon="7.84311099909246">
        <ele>769.66999999999996</ele>
        <time>2025-05-19T09:52:49Z</time>
      </trkpt>
      <trkpt lat="44.012934006750584" lon="7.843242008239031">
        <ele>770.14999999999998</ele>
        <time>2025-05-19T09:52:50Z</time>
      </trkpt>
      <trkpt lat="44.012925960123539" lon="7.843487011268735">
        <ele>772.08000000000004</ele>
        <time>2025-05-19T09:52:52Z</time>
      </trkpt>
      <trkpt lat="44.012814983725548" lon="7.843814995139837">
        <ele>772.55999999999995</ele>
        <time>2025-05-19T09:52:54Z</time>
      </trkpt>
      <trkpt lat="44.012708030641079" lon="7.844127975404263">
        <ele>773.03999999999996</ele>
        <time>2025-05-19T09:52:56Z</time>
      </trkpt>
      <trkpt lat="44.012654973194003" lon="7.844283962622285">
        <ele>773.03999999999996</ele>
        <time>2025-05-19T09:52:57Z</time>
      </trkpt>
      <trkpt lat="44.01260300539434" lon="7.844438022002578">
        <ele>773.03999999999996</ele>
        <time>2025-05-19T09:52:58Z</time>
      </trkpt>
      <trkpt lat="44.012551037594676" lon="7.844614963978529">
        <ele>772.55999999999995</ele>
        <time>2025-05-19T09:52:59Z</time>
      </trkpt>
      <trkpt lat="44.012521030381322" lon="7.844774974510074">
        <ele>772.55999999999995</ele>
        <time>2025-05-19T09:53:00Z</time>
      </trkpt>
      <trkpt lat="44.012492028996348" lon="7.844932973384857">
        <ele>772.55999999999995</ele>
        <time>2025-05-19T09:53:01Z</time>
      </trkpt>
      <trkpt lat="44.012433020398021" lon="7.845252994447947">
        <ele>773.03999999999996</ele>
        <time>2025-05-19T09:53:03Z</time>
      </trkpt>
      <trkpt lat="44.012402007356286" lon="7.845418034121394">
        <ele>773.03999999999996</ele>
        <time>2025-05-19T09:53:04Z</time>
      </trkpt>
      <trkpt lat="44.012390021234751" lon="7.845482993870974">
        <ele>773.03999999999996</ele>
        <time>2025-05-19T09:53:05Z</time>
      </trkpt>
      <trkpt lat="44.012319026514888" lon="7.845683991909027">
        <ele>773.03999999999996</ele>
        <time>2025-05-19T09:53:06Z</time>
      </trkpt>
      <trkpt lat="44.012278961017728" lon="7.845794968307018">
        <ele>773.03999999999996</ele>
        <time>2025-05-19T09:53:07Z</time>
      </trkpt>
      <trkpt lat="44.012279966846108" lon="7.845940981060267">
        <ele>773.51999999999998</ele>
        <time>2025-05-19T09:53:08Z</time>
      </trkpt>
      <trkpt lat="44.01228197850287" lon="7.845954978838563">
        <ele>774</ele>
        <time>2025-05-19T09:53:09Z</time>
      </trkpt>
      <trkpt lat="44.012307040393353" lon="7.845954978838563">
        <ele>774.96000000000004</ele>
        <time>2025-05-19T09:53:10Z</time>
      </trkpt>
      <trkpt lat="44.012344004586339" lon="7.845954978838563">
        <ele>775.91999999999996</ele>
        <time>2025-05-19T09:53:11Z</time>
      </trkpt>
      <trkpt lat="44.01236797682941" lon="7.845954978838563">
        <ele>776.39999999999998</ele>
        <time>2025-05-19T09:53:12Z</time>
      </trkpt>
      <trkpt lat="44.012397984042764" lon="7.845909968018532">
        <ele>776.39999999999998</ele>
        <time>2025-05-19T09:53:13Z</time>
      </trkpt>
      <trkpt lat="44.012430002912879" lon="7.845836961641908">
        <ele>776.88</ele>
        <time>2025-05-19T09:53:14Z</time>
      </trkpt>
      <trkpt lat="44.012467972934246" lon="7.845724979415536">
        <ele>776.88</ele>
        <time>2025-05-19T09:53:15Z</time>
      </trkpt>
      <trkpt lat="44.012507032603025" lon="7.845610985532403">
        <ele>776.88</ele>
        <time>2025-05-19T09:53:16Z</time>
      </trkpt>
      <trkpt lat="44.012546008452773" lon="7.845497997477651">
        <ele>776.88</ele>
        <time>2025-05-19T09:53:17Z</time>
      </trkpt>
      <trkpt lat="44.012629995122552" lon="7.845252994447947">
        <ele>776.39999999999998</ele>
        <time>2025-05-19T09:53:19Z</time>
      </trkpt>
      <trkpt lat="44.0126689709723" lon="7.845140006393194">
        <ele>775.91999999999996</ele>
        <time>2025-05-19T09:53:20Z</time>
      </trkpt>
      <trkpt lat="44.012743989005685" lon="7.845014026388526">
        <ele>775.91999999999996</ele>
        <time>2025-05-19T09:53:21Z</time>
      </trkpt>
      <trkpt lat="44.012972982600331" lon="7.844612030312419">
        <ele>774</ele>
        <time>2025-05-19T09:53:24Z</time>
      </trkpt>
      <trkpt lat="44.013027967885137" lon="7.844497030600905">
        <ele>773.51999999999998</ele>
        <time>2025-05-19T09:53:25Z</time>
      </trkpt>
      <trkpt lat="44.013079013675451" lon="7.844389993697405">
        <ele>773.03999999999996</ele>
        <time>2025-05-19T09:53:26Z</time>
      </trkpt>
      <trkpt lat="44.013141039758921" lon="7.844259990379214">
        <ele>772.55999999999995</ele>
        <time>2025-05-19T09:53:27Z</time>
      </trkpt>
      <trkpt lat="44.013151014223695" lon="7.844254039227963">
        <ele>771.60000000000002</ele>
        <time>2025-05-19T09:53:28Z</time>
      </trkpt>
      <trkpt lat="44.013141039758921" lon="7.844259990379214">
        <ele>769.66999999999996</ele>
        <time>2025-05-19T09:53:29Z</time>
      </trkpt>
      <trkpt lat="44.013141039758921" lon="7.844259990379214">
        <ele>768.71000000000004</ele>
        <time>2025-05-19T09:53:30Z</time>
      </trkpt>
      <trkpt lat="44.013299960643053" lon="7.8441640175879">
        <ele>767.26999999999998</ele>
        <time>2025-05-19T09:53:31Z</time>
      </trkpt>
      <trkpt lat="44.01335502974689" lon="7.844130992889404">
        <ele>766.78999999999996</ele>
        <time>2025-05-19T09:53:32Z</time>
      </trkpt>
      <trkpt lat="44.013504981994629" lon="7.843938041478396">
        <ele>765.35000000000002</ele>
        <time>2025-05-19T09:53:33Z</time>
      </trkpt>
      <trkpt lat="44.013562984764576" lon="7.843923959881067">
        <ele>764.38999999999999</ele>
        <time>2025-05-19T09:53:34Z</time>
      </trkpt>
      <trkpt lat="44.013701034709811" lon="7.843900993466377">
        <ele>763.41999999999996</ele>
        <time>2025-05-19T09:53:35Z</time>
      </trkpt>
      <trkpt lat="44.013819973915815" lon="7.843932006508112">
        <ele>762.94000000000005</ele>
        <time>2025-05-19T09:53:36Z</time>
      </trkpt>
      <trkpt lat="44.013951988890767" lon="7.843966959044337">
        <ele>761.98000000000002</ele>
        <time>2025-05-19T09:53:37Z</time>
      </trkpt>
      <trkpt lat="44.014056008309126" lon="7.843994032591581">
        <ele>760.53999999999996</ele>
        <time>2025-05-19T09:53:38Z</time>
      </trkpt>
      <trkpt lat="44.014171008020639" lon="7.844024039804936">
        <ele>759.10000000000002</ele>
        <time>2025-05-19T09:53:39Z</time>
      </trkpt>
      <trkpt lat="44.014267986640334" lon="7.843972994014621">
        <ele>758.13999999999999</ele>
        <time>2025-05-19T09:53:40Z</time>
      </trkpt>
      <trkpt lat="44.014360019937158" lon="7.843923959881067">
        <ele>757.17999999999995</ele>
        <time>2025-05-19T09:53:41Z</time>
      </trkpt>
      <trkpt lat="44.014578033238649" lon="7.843808960169554">
        <ele>752.37</ele>
        <time>2025-05-19T09:53:43Z</time>
      </trkpt>
      <trkpt lat="44.01457903906703" lon="7.843806026503444">
        <ele>749.97000000000003</ele>
        <time>2025-05-19T09:53:44Z</time>
      </trkpt>
      <trkpt lat="44.014591025188565" lon="7.843736037611961">
        <ele>748.03999999999996</ele>
        <time>2025-05-19T09:53:45Z</time>
      </trkpt>
      <trkpt lat="44.014620026573539" lon="7.843547025695443">
        <ele>746.12</ele>
        <time>2025-05-19T09:53:46Z</time>
      </trkpt>
      <trkpt lat="44.014591025188565" lon="7.843437977135181">
        <ele>744.20000000000005</ele>
        <time>2025-05-19T09:53:47Z</time>
      </trkpt>
      <trkpt lat="44.014554983004928" lon="7.84330302849412">
        <ele>742.27999999999997</ele>
        <time>2025-05-19T09:53:48Z</time>
      </trkpt>
      <trkpt lat="44.014515001326799" lon="7.843151986598969">
        <ele>740.35000000000002</ele>
        <time>2025-05-19T09:53:49Z</time>
      </trkpt>
      <trkpt lat="44.014349039644003" lon="7.842524014413357">
        <ele>730.74000000000001</ele>
        <time>2025-05-19T09:53:54Z</time>
      </trkpt>
      <trkpt lat="44.014341998845339" lon="7.842499958351255">
        <ele>730.74000000000001</ele>
        <time>2025-05-19T09:53:55Z</time>
      </trkpt>
      <trkpt lat="44.014406958594918" lon="7.842350006103516">
        <ele>730.25999999999999</ele>
        <time>2025-05-19T09:53:59Z</time>
      </trkpt>
      <trkpt lat="44.014406958594918" lon="7.842350006103516">
        <ele>729.77999999999997</ele>
        <time>2025-05-19T09:54:00Z</time>
      </trkpt>
      <trkpt lat="44.014444006606936" lon="7.842339025810361">
        <ele>729.77999999999997</ele>
        <time>2025-05-19T09:54:01Z</time>
      </trkpt>
      <trkpt lat="44.014530004933476" lon="7.842312958091497">
        <ele>729.29999999999995</ele>
        <time>2025-05-19T09:54:02Z</time>
      </trkpt>
      <trkpt lat="44.0146220382303" lon="7.842284962534905">
        <ele>729.29999999999995</ele>
        <time>2025-05-19T09:54:03Z</time>
      </trkpt>
      <trkpt lat="44.014699989929795" lon="7.842261996120215">
        <ele>729.77999999999997</ele>
        <time>2025-05-19T09:54:04Z</time>
      </trkpt>
      <trkpt lat="44.014787999913096" lon="7.842236012220383">
        <ele>728.82000000000005</ele>
        <time>2025-05-19T09:54:05Z</time>
      </trkpt>
      <trkpt lat="44.014836028218269" lon="7.842221008613706">
        <ele>727.86000000000001</ele>
        <time>2025-05-19T09:54:06Z</time>
      </trkpt>
      <trkpt lat="44.014836028218269" lon="7.842221008613706">
        <ele>727.37</ele>
        <time>2025-05-19T09:54:07Z</time>
      </trkpt>
      <trkpt lat="44.015157977119088" lon="7.842328967526555">
        <ele>727.37</ele>
        <time>2025-05-19T09:54:08Z</time>
      </trkpt>
      <trkpt lat="44.015187984332442" lon="7.842284962534905">
        <ele>727.86000000000001</ele>
        <time>2025-05-19T09:54:09Z</time>
      </trkpt>
      <trkpt lat="44.015245987102389" lon="7.842199970036745">
        <ele>728.34000000000003</ele>
        <time>2025-05-19T09:54:10Z</time>
      </trkpt>
      <trkpt lat="44.015361992642283" lon="7.842031996697187">
        <ele>728.34000000000003</ele>
        <time>2025-05-19T09:54:12Z</time>
      </trkpt>
      <trkpt lat="44.015394011512399" lon="7.841984974220395">
        <ele>728.82000000000005</ele>
        <time>2025-05-19T09:54:13Z</time>
      </trkpt>
      <trkpt lat="44.015473974868655" lon="7.841932000592351">
        <ele>728.82000000000005</ele>
        <time>2025-05-19T09:54:14Z</time>
      </trkpt>
      <trkpt lat="44.015549998730421" lon="7.841881038621068">
        <ele>728.82000000000005</ele>
        <time>2025-05-19T09:54:15Z</time>
      </trkpt>
      <trkpt lat="44.015625016763806" lon="7.841830998659134">
        <ele>729.29999999999995</ele>
        <time>2025-05-19T09:54:16Z</time>
      </trkpt>
      <trkpt lat="44.015718977898359" lon="7.841766960918903">
        <ele>729.29999999999995</ele>
        <time>2025-05-19T09:54:17Z</time>
      </trkpt>
      <trkpt lat="44.015777986496687" lon="7.841703006997705">
        <ele>729.29999999999995</ele>
        <time>2025-05-19T09:54:18Z</time>
      </trkpt>
      <trkpt lat="44.015858033671975" lon="7.841613991186023">
        <ele>729.29999999999995</ele>
        <time>2025-05-19T09:54:19Z</time>
      </trkpt>
      <trkpt lat="44.015930034220219" lon="7.841535033658147">
        <ele>729.29999999999995</ele>
        <time>2025-05-19T09:54:20Z</time>
      </trkpt>
      <trkpt lat="44.016025001183152" lon="7.84149999730289">
        <ele>729.29999999999995</ele>
        <time>2025-05-19T09:54:21Z</time>
      </trkpt>
      <trkpt lat="44.016144024208188" lon="7.84145699813962">
        <ele>728.82000000000005</ele>
        <time>2025-05-19T09:54:22Z</time>
      </trkpt>
      <trkpt lat="44.016463039442897" lon="7.841176958754659">
        <ele>729.29999999999995</ele>
        <time>2025-05-19T09:54:25Z</time>
      </trkpt>
      <trkpt lat="44.01666303165257" lon="7.841099007055163">
        <ele>724.97000000000003</ele>
        <time>2025-05-19T09:54:27Z</time>
      </trkpt>
      <trkpt lat="44.016981963068247" lon="7.841127002611756">
        <ele>724.49000000000001</ele>
        <time>2025-05-19T09:54:28Z</time>
      </trkpt>
      <trkpt lat="44.016981963068247" lon="7.841127002611756">
        <ele>724.00999999999999</ele>
        <time>2025-05-19T09:54:29Z</time>
      </trkpt>
      <trkpt lat="44.017131999135017" lon="7.840718971565366">
        <ele>723.52999999999997</ele>
        <time>2025-05-19T09:54:31Z</time>
      </trkpt>
      <trkpt lat="44.017131999135017" lon="7.840718971565366">
        <ele>723.04999999999995</ele>
        <time>2025-05-19T09:54:32Z</time>
      </trkpt>
      <trkpt lat="44.017128981649876" lon="7.840584022924304">
        <ele>723.04999999999995</ele>
        <time>2025-05-19T09:54:33Z</time>
      </trkpt>
      <trkpt lat="44.017096040770411" lon="7.840513028204441">
        <ele>723.04999999999995</ele>
        <time>2025-05-19T09:54:34Z</time>
      </trkpt>
      <trkpt lat="44.017056981101632" lon="7.840429041534662">
        <ele>723.04999999999995</ele>
        <time>2025-05-19T09:54:35Z</time>
      </trkpt>
      <trkpt lat="44.017024962231517" lon="7.84036198630929">
        <ele>723.52999999999997</ele>
        <time>2025-05-19T09:54:36Z</time>
      </trkpt>
      <trkpt lat="44.016981963068247" lon="7.840269031003118">
        <ele>723.52999999999997</ele>
        <time>2025-05-19T09:54:37Z</time>
      </trkpt>
      <trkpt lat="44.016981963068247" lon="7.840269031003118">
        <ele>723.52999999999997</ele>
        <time>2025-05-19T09:54:38Z</time>
      </trkpt>
      <trkpt lat="44.016981963068247" lon="7.840269031003118">
        <ele>724.00999999999999</ele>
        <time>2025-05-19T09:54:39Z</time>
      </trkpt>
      <trkpt lat="44.016981963068247" lon="7.839839039370418">
        <ele>724.00999999999999</ele>
        <time>2025-05-19T09:54:42Z</time>
      </trkpt>
      <trkpt lat="44.016981963068247" lon="7.839558999985457">
        <ele>725.45000000000005</ele>
        <time>2025-05-19T09:54:45Z</time>
      </trkpt>
      <trkpt lat="44.016981963068247" lon="7.839452968910337">
        <ele>725.92999999999995</ele>
        <time>2025-05-19T09:54:46Z</time>
      </trkpt>
      <trkpt lat="44.017046000808477" lon="7.839346015825868">
        <ele>726.88999999999999</ele>
        <time>2025-05-19T09:54:48Z</time>
      </trkpt>
      <trkpt lat="44.017046000808477" lon="7.839346015825868">
        <ele>726.88999999999999</ele>
        <time>2025-05-19T09:54:49Z</time>
      </trkpt>
      <trkpt lat="44.017216991633177" lon="7.839261023327708">
        <ele>727.37</ele>
        <time>2025-05-19T09:54:50Z</time>
      </trkpt>
      <trkpt lat="44.017497031018138" lon="7.838851986452937">
        <ele>727.37</ele>
        <time>2025-05-19T09:54:53Z</time>
      </trkpt>
      <trkpt lat="44.017582023516297" lon="7.838816028088331">
        <ele>726.88999999999999</ele>
        <time>2025-05-19T09:54:54Z</time>
      </trkpt>
      <trkpt lat="44.017856027930975" lon="7.838769005611539">
        <ele>725.92999999999995</ele>
        <time>2025-05-19T09:54:56Z</time>
      </trkpt>
      <trkpt lat="44.017797019332647" lon="7.838723994791508">
        <ele>726.88999999999999</ele>
        <time>2025-05-19T09:54:57Z</time>
      </trkpt>
      <trkpt lat="44.018075969070196" lon="7.838937984779477">
        <ele>726.40999999999997</ele>
        <time>2025-05-19T09:54:58Z</time>
      </trkpt>
      <trkpt lat="44.018075969070196" lon="7.838937984779477">
        <ele>725.45000000000005</ele>
        <time>2025-05-19T09:54:59Z</time>
      </trkpt>
      <trkpt lat="44.018140006810427" lon="7.838934967294335">
        <ele>724.97000000000003</ele>
        <time>2025-05-19T09:55:00Z</time>
      </trkpt>
      <trkpt lat="44.018217036500573" lon="7.838930021971464">
        <ele>724.97000000000003</ele>
        <time>2025-05-19T09:55:01Z</time>
      </trkpt>
      <trkpt lat="44.018441000953317" lon="7.838917030021548">
        <ele>723.52999999999997</ele>
        <time>2025-05-19T09:55:04Z</time>
      </trkpt>
      <trkpt lat="44.019125970080495" lon="7.838874030858278">
        <ele>722.57000000000005</ele>
        <time>2025-05-19T09:55:09Z</time>
      </trkpt>
      <trkpt lat="44.019191013649106" lon="7.838821979239583">
        <ele>722.57000000000005</ele>
        <time>2025-05-19T09:55:10Z</time>
      </trkpt>
      <trkpt lat="44.019276006147265" lon="7.838752996176481">
        <ele>722.57000000000005</ele>
        <time>2025-05-19T09:55:11Z</time>
      </trkpt>
      <trkpt lat="44.019359992817044" lon="7.83868401311338">
        <ele>722.57000000000005</ele>
        <time>2025-05-19T09:55:12Z</time>
      </trkpt>
      <trkpt lat="44.019363010302186" lon="7.838680995628238">
        <ele>722.09000000000003</ele>
        <time>2025-05-19T09:55:13Z</time>
      </trkpt>
      <trkpt lat="44.019422018900514" lon="7.83853598870337">
        <ele>722.09000000000003</ele>
        <time>2025-05-19T09:55:14Z</time>
      </trkpt>
      <trkpt lat="44.019469963386655" lon="7.838415037840605">
        <ele>721.61000000000001</ele>
        <time>2025-05-19T09:55:15Z</time>
      </trkpt>
      <trkpt lat="44.019508017227054" lon="7.83832099288702">
        <ele>721.61000000000001</ele>
        <time>2025-05-19T09:55:16Z</time>
      </trkpt>
      <trkpt lat="44.019679008051753" lon="7.838013963773847">
        <ele>720.15999999999997</ele>
        <time>2025-05-19T09:55:18Z</time>
      </trkpt>
      <trkpt lat="44.019849998876452" lon="7.838074984028935">
        <ele>719.20000000000005</ele>
        <time>2025-05-19T09:55:19Z</time>
      </trkpt>
      <trkpt lat="44.019917976111174" lon="7.838121000677347">
        <ele>718.24000000000001</ele>
        <time>2025-05-19T09:55:20Z</time>
      </trkpt>
      <trkpt lat="44.019920993596315" lon="7.838123012334108">
        <ele>717.75999999999999</ele>
        <time>2025-05-19T09:55:21Z</time>
      </trkpt>
      <trkpt lat="44.019956029951572" lon="7.838295008987188">
        <ele>717.75999999999999</ele>
        <time>2025-05-19T09:55:22Z</time>
      </trkpt>
      <trkpt lat="44.019963992759585" lon="7.838338008150458">
        <ele>719.67999999999995</ele>
        <time>2025-05-19T09:55:23Z</time>
      </trkpt>
      <trkpt lat="44.019963992759585" lon="7.838338008150458">
        <ele>720.64999999999998</ele>
        <time>2025-05-19T09:55:24Z</time>
      </trkpt>
      <trkpt lat="44.019963992759585" lon="7.838338008150458">
        <ele>721.61000000000001</ele>
        <time>2025-05-19T09:55:25Z</time>
      </trkpt>
      <trkpt lat="44.019905989989638" lon="7.838593991473317">
        <ele>722.09000000000003</ele>
        <time>2025-05-19T09:55:27Z</time>
      </trkpt>
      <trkpt lat="44.01986600831151" lon="7.838774034753442">
        <ele>722.09000000000003</ele>
        <time>2025-05-19T09:55:28Z</time>
      </trkpt>
      <trkpt lat="44.019443979486823" lon="7.839564029127359">
        <ele>719.67999999999995</ele>
        <time>2025-05-19T09:55:33Z</time>
      </trkpt>
      <trkpt lat="44.019317999482155" lon="7.839648015797138">
        <ele>718.24000000000001</ele>
        <time>2025-05-19T09:55:34Z</time>
      </trkpt>
      <trkpt lat="44.019058998674154" lon="7.839796040207148">
        <ele>715.36000000000001</ele>
        <time>2025-05-19T09:55:36Z</time>
      </trkpt>
      <trkpt lat="44.018926983699203" lon="7.839837027713656">
        <ele>713.91999999999996</ele>
        <time>2025-05-19T09:55:37Z</time>
      </trkpt>
      <trkpt lat="44.018783988431096" lon="7.839882038533688">
        <ele>712.95000000000005</ele>
        <time>2025-05-19T09:55:38Z</time>
      </trkpt>
      <trkpt lat="44.018668988719583" lon="7.83988899551332">
        <ele>711.99000000000001</ele>
        <time>2025-05-19T09:55:39Z</time>
      </trkpt>
      <trkpt lat="44.018566980957985" lon="7.839895030483604">
        <ele>711.02999999999997</ele>
        <time>2025-05-19T09:55:40Z</time>
      </trkpt>
      <trkpt lat="44.018419040367007" lon="7.839903999119997">
        <ele>710.54999999999995</ele>
        <time>2025-05-19T09:55:41Z</time>
      </trkpt>
      <trkpt lat="44.018272021785378" lon="7.840067027136684">
        <ele>710.54999999999995</ele>
        <time>2025-05-19T09:55:42Z</time>
      </trkpt>
      <trkpt lat="44.018280990421772" lon="7.840147996321321">
        <ele>710.07000000000005</ele>
        <time>2025-05-19T09:55:43Z</time>
      </trkpt>
      <trkpt lat="44.018316026777029" lon="7.840319992974401">
        <ele>710.07000000000005</ele>
        <time>2025-05-19T09:55:44Z</time>
      </trkpt>
      <trkpt lat="44.01836003176868" lon="7.840443961322308">
        <ele>709.59000000000003</ele>
        <time>2025-05-19T09:55:45Z</time>
      </trkpt>
      <trkpt lat="44.018501015380025" lon="7.840772029012442">
        <ele>709.59000000000003</ele>
        <time>2025-05-19T09:55:47Z</time>
      </trkpt>
      <trkpt lat="44.018587013706565" lon="7.840906977653503">
        <ele>709.59000000000003</ele>
        <time>2025-05-19T09:55:48Z</time>
      </trkpt>
      <trkpt lat="44.018977023661137" lon="7.841621031984687">
        <ele>709.59000000000003</ele>
        <time>2025-05-19T09:55:54Z</time>
      </trkpt>
      <trkpt lat="44.018991021439433" lon="7.841804008930922">
        <ele>709.11000000000001</ele>
        <time>2025-05-19T09:55:55Z</time>
      </trkpt>
      <trkpt lat="44.019000995904207" lon="7.841927977278829">
        <ele>709.11000000000001</ele>
        <time>2025-05-19T09:55:56Z</time>
      </trkpt>
      <trkpt lat="44.019010970368981" lon="7.842062003910542">
        <ele>708.63</ele>
        <time>2025-05-19T09:55:57Z</time>
      </trkpt>
      <trkpt lat="44.019020022824407" lon="7.842178009450436">
        <ele>708.14999999999998</ele>
        <time>2025-05-19T09:55:58Z</time>
      </trkpt>
      <trkpt lat="44.018988003954291" lon="7.842288985848427">
        <ele>707.66999999999996</ele>
        <time>2025-05-19T09:55:59Z</time>
      </trkpt>
      <trkpt lat="44.018943998962641" lon="7.842438016086817">
        <ele>707.19000000000005</ele>
        <time>2025-05-19T09:56:00Z</time>
      </trkpt>
      <trkpt lat="44.018708970397711" lon="7.843065988272429">
        <ele>705.25999999999999</ele>
        <time>2025-05-19T09:56:05Z</time>
      </trkpt>
      <trkpt lat="44.018643004819751" lon="7.843126002699137">
        <ele>705.25999999999999</ele>
        <time>2025-05-19T09:56:06Z</time>
      </trkpt>
      <trkpt lat="44.018567986786366" lon="7.843193979933858">
        <ele>705.25999999999999</ele>
        <time>2025-05-19T09:56:07Z</time>
      </trkpt>
      <trkpt lat="44.018494980409741" lon="7.843273021280766">
        <ele>704.77999999999997</ele>
        <time>2025-05-19T09:56:08Z</time>
      </trkpt>
      <trkpt lat="44.018441000953317" lon="7.84339296631515">
        <ele>704.77999999999997</ele>
        <time>2025-05-19T09:56:09Z</time>
      </trkpt>
      <trkpt lat="44.018378974869847" lon="7.843529004603624">
        <ele>704.29999999999995</ele>
        <time>2025-05-19T09:56:10Z</time>
      </trkpt>
      <trkpt lat="44.018310997635126" lon="7.843678034842014">
        <ele>704.29999999999995</ele>
        <time>2025-05-19T09:56:11Z</time>
      </trkpt>
      <trkpt lat="44.018230028450489" lon="7.843814995139837">
        <ele>704.29999999999995</ele>
        <time>2025-05-19T09:56:12Z</time>
      </trkpt>
      <trkpt lat="44.018152998760343" lon="7.84392898902297">
        <ele>704.29999999999995</ele>
        <time>2025-05-19T09:56:13Z</time>
      </trkpt>
      <trkpt lat="44.017955018207431" lon="7.844090005382896">
        <ele>704.29999999999995</ele>
        <time>2025-05-19T09:56:15Z</time>
      </trkpt>
      <trkpt lat="44.017860973253846" lon="7.844153037294745">
        <ele>704.77999999999997</ele>
        <time>2025-05-19T09:56:16Z</time>
      </trkpt>
      <trkpt lat="44.017740022391081" lon="7.844188995659351">
        <ele>704.77999999999997</ele>
        <time>2025-05-19T09:56:17Z</time>
      </trkpt>
      <trkpt lat="44.017527038231492" lon="7.844254039227963">
        <ele>704.29999999999995</ele>
        <time>2025-05-19T09:56:19Z</time>
      </trkpt>
      <trkpt lat="44.017431987449527" lon="7.844283040612936">
        <ele>703.82000000000005</ele>
        <time>2025-05-19T09:56:20Z</time>
      </trkpt>
      <trkpt lat="44.017280023545027" lon="7.844408014789224">
        <ele>704.29999999999995</ele>
        <time>2025-05-19T09:56:22Z</time>
      </trkpt>
      <trkpt lat="44.017260996624827" lon="7.844430981203914">
        <ele>703.82000000000005</ele>
        <time>2025-05-19T09:56:23Z</time>
      </trkpt>
      <trkpt lat="44.017280023545027" lon="7.844479009509087">
        <ele>703.82000000000005</ele>
        <time>2025-05-19T09:56:24Z</time>
      </trkpt>
      <trkpt lat="44.017303995788097" lon="7.844539023935795">
        <ele>703.82000000000005</ele>
        <time>2025-05-19T09:56:25Z</time>
      </trkpt>
      <trkpt lat="44.017343977466226" lon="7.844584034755826">
        <ele>703.34000000000003</ele>
        <time>2025-05-19T09:56:26Z</time>
      </trkpt>
      <trkpt lat="44.017421007156372" lon="7.844670033082366">
        <ele>702.38</ele>
        <time>2025-05-19T09:56:27Z</time>
      </trkpt>
      <trkpt lat="44.017860973253846" lon="7.845160961151123">
        <ele>700.46000000000004</ele>
        <time>2025-05-19T09:56:31Z</time>
      </trkpt>
      <trkpt lat="44.017905984073877" lon="7.845272021368146">
        <ele>699.98000000000002</ele>
        <time>2025-05-19T09:56:32Z</time>
      </trkpt>
      <trkpt lat="44.017970021814108" lon="7.845432031899691">
        <ele>699.98000000000002</ele>
        <time>2025-05-19T09:56:33Z</time>
      </trkpt>
      <trkpt lat="44.018030958250165" lon="7.845583995804191">
        <ele>699.5</ele>
        <time>2025-05-19T09:56:34Z</time>
      </trkpt>
      <trkpt lat="44.018084015697241" lon="7.845717016607523">
        <ele>699.01999999999998</ele>
        <time>2025-05-19T09:56:35Z</time>
      </trkpt>
      <trkpt lat="44.018129026517272" lon="7.845828998833895">
        <ele>699.01999999999998</ele>
        <time>2025-05-19T09:56:36Z</time>
      </trkpt>
      <trkpt lat="44.018171019852161" lon="7.845917008817196">
        <ele>699.01999999999998</ele>
        <time>2025-05-19T09:56:37Z</time>
      </trkpt>
      <trkpt lat="44.018265986815095" lon="7.845965959131718">
        <ele>698.52999999999997</ele>
        <time>2025-05-19T09:56:38Z</time>
      </trkpt>
      <trkpt lat="44.018372017890215" lon="7.846021028235555">
        <ele>698.04999999999995</ele>
        <time>2025-05-19T09:56:39Z</time>
      </trkpt>
      <trkpt lat="44.018586007878184" lon="7.846133010461927">
        <ele>697.57000000000005</ele>
        <time>2025-05-19T09:56:41Z</time>
      </trkpt>
      <trkpt lat="44.01866203173995" lon="7.846175003796816">
        <ele>697.09000000000003</ele>
        <time>2025-05-19T09:56:42Z</time>
      </trkpt>
      <trkpt lat="44.018721962347627" lon="7.846221020445228">
        <ele>697.09000000000003</ele>
        <time>2025-05-19T09:56:43Z</time>
      </trkpt>
      <trkpt lat="44.018767978996038" lon="7.846256978809834">
        <ele>696.61000000000001</ele>
        <time>2025-05-19T09:56:44Z</time>
      </trkpt>
      <trkpt lat="44.018848026171327" lon="7.846324034035206">
        <ele>696.61000000000001</ele>
        <time>2025-05-19T09:56:45Z</time>
      </trkpt>
      <trkpt lat="44.018841991201043" lon="7.846373990178108">
        <ele>696.13</ele>
        <time>2025-05-19T09:56:46Z</time>
      </trkpt>
      <trkpt lat="44.018741995096207" lon="7.846527965739369">
        <ele>695.64999999999998</ele>
        <time>2025-05-19T09:56:47Z</time>
      </trkpt>
      <trkpt lat="44.018669994547963" lon="7.846558978781104">
        <ele>695.16999999999996</ele>
        <time>2025-05-19T09:56:48Z</time>
      </trkpt>
      <trkpt lat="44.01857603341341" lon="7.846598960459232">
        <ele>694.21000000000004</ele>
        <time>2025-05-19T09:56:49Z</time>
      </trkpt>
      <trkpt lat="44.018467990681529" lon="7.846644977107644">
        <ele>693.73000000000002</ele>
        <time>2025-05-19T09:56:50Z</time>
      </trkpt>
      <trkpt lat="44.018117962405086" lon="7.846756037324667">
        <ele>691.80999999999995</ele>
        <time>2025-05-19T09:56:53Z</time>
      </trkpt>
      <trkpt lat="44.018010003492236" lon="7.846762994304299">
        <ele>690.84000000000003</ele>
        <time>2025-05-19T09:56:54Z</time>
      </trkpt>
      <trkpt lat="44.017904978245497" lon="7.846770035102963">
        <ele>690.36000000000001</ele>
        <time>2025-05-19T09:56:55Z</time>
      </trkpt>
      <trkpt lat="44.017801964655519" lon="7.846727035939694">
        <ele>689.88</ele>
        <time>2025-05-19T09:56:56Z</time>
      </trkpt>
      <trkpt lat="44.017700040712953" lon="7.846684036776424">
        <ele>688.91999999999996</ele>
        <time>2025-05-19T09:56:57Z</time>
      </trkpt>
      <trkpt lat="44.017595015466213" lon="7.846640031784773">
        <ele>688.44000000000005</ele>
        <time>2025-05-19T09:56:58Z</time>
      </trkpt>
      <trkpt lat="44.017498958855867" lon="7.846599966287613">
        <ele>687.96000000000004</ele>
        <time>2025-05-19T09:56:59Z</time>
      </trkpt>
      <trkpt lat="44.017420001327991" lon="7.846617987379432">
        <ele>687.48000000000002</ele>
        <time>2025-05-19T09:57:00Z</time>
      </trkpt>
      <trkpt lat="44.017397034913301" lon="7.846676995977759">
        <ele>686.51999999999998</ele>
        <time>2025-05-19T09:57:01Z</time>
      </trkpt>
      <trkpt lat="44.017345989122987" lon="7.846878999844194">
        <ele>685.55999999999995</ele>
        <time>2025-05-19T09:57:03Z</time>
      </trkpt>
      <trkpt lat="44.017110038548708" lon="7.847520969808102">
        <ele>683.63</ele>
        <time>2025-05-19T09:57:07Z</time>
      </trkpt>
      <trkpt lat="44.017011970281601" lon="7.847619038075209">
        <ele>683.14999999999998</ele>
        <time>2025-05-19T09:57:08Z</time>
      </trkpt>
      <trkpt lat="44.016920020803809" lon="7.847675029188395">
        <ele>682.66999999999996</ele>
        <time>2025-05-19T09:57:09Z</time>
      </trkpt>
      <trkpt lat="44.01683796197176" lon="7.847720040008426">
        <ele>682.19000000000005</ele>
        <time>2025-05-19T09:57:10Z</time>
      </trkpt>
      <trkpt lat="44.016809966415167" lon="7.847735965624452">
        <ele>681.71000000000004</ele>
        <time>2025-05-19T09:57:11Z</time>
      </trkpt>
      <trkpt lat="44.016761016100645" lon="7.847846020013094">
        <ele>681.71000000000004</ele>
        <time>2025-05-19T09:57:12Z</time>
      </trkpt>
      <trkpt lat="44.016723968088627" lon="7.847929000854492">
        <ele>681.23000000000002</ele>
        <time>2025-05-19T09:57:13Z</time>
      </trkpt>
      <trkpt lat="44.016727991402149" lon="7.848027991130948">
        <ele>681.23000000000002</ele>
        <time>2025-05-19T09:57:14Z</time>
      </trkpt>
      <trkpt lat="44.016733020544052" lon="7.848166963085532">
        <ele>681.23000000000002</ele>
        <time>2025-05-19T09:57:15Z</time>
      </trkpt>
      <trkpt lat="44.016739977523685" lon="7.848328985273838">
        <ele>680.75</ele>
        <time>2025-05-19T09:57:16Z</time>
      </trkpt>
      <trkpt lat="44.016766967251897" lon="7.849023006856442">
        <ele>679.78999999999996</ele>
        <time>2025-05-19T09:57:20Z</time>
      </trkpt>
      <trkpt lat="44.016812983900309" lon="7.849156027659774">
        <ele>679.78999999999996</ele>
        <time>2025-05-19T09:57:21Z</time>
      </trkpt>
      <trkpt lat="44.01685799472034" lon="7.849286030977964">
        <ele>679.30999999999995</ele>
        <time>2025-05-19T09:57:22Z</time>
      </trkpt>
      <trkpt lat="44.016947010532022" lon="7.849544025957584">
        <ele>679.30999999999995</ele>
        <time>2025-05-19T09:57:24Z</time>
      </trkpt>
      <trkpt lat="44.016974000260234" lon="7.849661037325859">
        <ele>678.83000000000004</ele>
        <time>2025-05-19T09:57:25Z</time>
      </trkpt>
      <trkpt lat="44.016962014138699" lon="7.849749969318509">
        <ele>677.87</ele>
        <time>2025-05-19T09:57:26Z</time>
      </trkpt>
      <trkpt lat="44.016925971955061" lon="7.849820964038372">
        <ele>677.38999999999999</ele>
        <time>2025-05-19T09:57:27Z</time>
      </trkpt>
      <trkpt lat="44.016890013590455" lon="7.849839990958571">
        <ele>676.90999999999997</ele>
        <time>2025-05-19T09:57:28Z</time>
      </trkpt>
      <trkpt lat="44.016821030527353" lon="7.849844014272094">
        <ele>676.90999999999997</ele>
        <time>2025-05-19T09:57:29Z</time>
      </trkpt>
      <trkpt lat="44.016736960038543" lon="7.849848037585616">
        <ele>675.94000000000005</ele>
        <time>2025-05-19T09:57:30Z</time>
      </trkpt>
      <trkpt lat="44.016645010560751" lon="7.849852982908487">
        <ele>675.46000000000004</ele>
        <time>2025-05-19T09:57:31Z</time>
      </trkpt>
      <trkpt lat="44.016552977263927" lon="7.84985801205039">
        <ele>674.98000000000002</ele>
        <time>2025-05-19T09:57:32Z</time>
      </trkpt>
      <trkpt lat="44.016459016129375" lon="7.849886007606983">
        <ele>674.5</ele>
        <time>2025-05-19T09:57:33Z</time>
      </trkpt>
      <trkpt lat="44.016371006146073" lon="7.849963959306479">
        <ele>674.01999999999998</ele>
        <time>2025-05-19T09:57:34Z</time>
      </trkpt>
      <trkpt lat="44.016349967569113" lon="7.850047023966909">
        <ele>673.53999999999996</ele>
        <time>2025-05-19T09:57:35Z</time>
      </trkpt>
      <trkpt lat="44.0163229778409" lon="7.850154982879758">
        <ele>673.05999999999995</ele>
        <time>2025-05-19T09:57:36Z</time>
      </trkpt>
      <trkpt lat="44.016288025304675" lon="7.850294960662723">
        <ele>672.10000000000002</ele>
        <time>2025-05-19T09:57:37Z</time>
      </trkpt>
      <trkpt lat="44.016251983121037" lon="7.85043996758759">
        <ele>671.62</ele>
        <time>2025-05-19T09:57:38Z</time>
      </trkpt>
      <trkpt lat="44.01617000810802" lon="7.850627973675728">
        <ele>671.13999999999999</ele>
        <time>2025-05-19T09:57:39Z</time>
      </trkpt>
      <trkpt lat="44.016097001731396" lon="7.850789995864034">
        <ele>670.17999999999995</ele>
        <time>2025-05-19T09:57:40Z</time>
      </trkpt>
      <trkpt lat="44.016008991748095" lon="7.850922010838985">
        <ele>669.70000000000005</ele>
        <time>2025-05-19T09:57:41Z</time>
      </trkpt>
      <trkpt lat="44.015859961509705" lon="7.851145975291729">
        <ele>669.22000000000003</ele>
        <time>2025-05-19T09:57:43Z</time>
      </trkpt>
      <trkpt lat="44.015815034508705" lon="7.851286958903074">
        <ele>668.73000000000002</ele>
        <time>2025-05-19T09:57:44Z</time>
      </trkpt>
      <trkpt lat="44.015742028132081" lon="7.851736983284354">
        <ele>667.28999999999996</ele>
        <time>2025-05-19T09:57:47Z</time>
      </trkpt>
      <trkpt lat="44.015744961798191" lon="7.851890958845615">
        <ele>666.80999999999995</ele>
        <time>2025-05-19T09:57:48Z</time>
      </trkpt>
      <trkpt lat="44.015755020081997" lon="7.852044012397528">
        <ele>666.33000000000004</ele>
        <time>2025-05-19T09:57:49Z</time>
      </trkpt>
      <trkpt lat="44.015774969011545" lon="7.852340983226895">
        <ele>665.37</ele>
        <time>2025-05-19T09:57:51Z</time>
      </trkpt>
      <trkpt lat="44.015755020081997" lon="7.852459000423551">
        <ele>664.88999999999999</ele>
        <time>2025-05-19T09:57:52Z</time>
      </trkpt>
      <trkpt lat="44.015710009261966" lon="7.852539969608188">
        <ele>664.40999999999997</ele>
        <time>2025-05-19T09:57:53Z</time>
      </trkpt>
      <trkpt lat="44.015672961249948" lon="7.85260702483356">
        <ele>663.92999999999995</ele>
        <time>2025-05-19T09:57:54Z</time>
      </trkpt>
      <trkpt lat="44.015574976801872" lon="7.852640971541405">
        <ele>663.45000000000005</ele>
        <time>2025-05-19T09:57:55Z</time>
      </trkpt>
      <trkpt lat="44.015485960990191" lon="7.852671984583139">
        <ele>662.49000000000001</ele>
        <time>2025-05-19T09:57:56Z</time>
      </trkpt>
      <trkpt lat="44.015399962663651" lon="7.852702997624874">
        <ele>661.51999999999998</ele>
        <time>2025-05-19T09:57:57Z</time>
      </trkpt>
      <trkpt lat="44.015288986265659" lon="7.852755971252918">
        <ele>661.03999999999996</ele>
        <time>2025-05-19T09:57:58Z</time>
      </trkpt>
      <trkpt lat="44.015050018206239" lon="7.853014972060919">
        <ele>656.72000000000003</ele>
        <time>2025-05-19T09:58:02Z</time>
      </trkpt>
      <trkpt lat="44.014932001009583" lon="7.852998040616512">
        <ele>655.75999999999999</ele>
        <time>2025-05-19T09:58:03Z</time>
      </trkpt>
      <trkpt lat="44.014835022389889" lon="7.852983959019184">
        <ele>654.79999999999995</ele>
        <time>2025-05-19T09:58:04Z</time>
      </trkpt>
      <trkpt lat="44.014591025188565" lon="7.853009020909667">
        <ele>653.83000000000004</ele>
        <time>2025-05-19T09:58:06Z</time>
      </trkpt>
      <trkpt lat="44.014481976628304" lon="7.853035004809499">
        <ele>653.35000000000002</ele>
        <time>2025-05-19T09:58:07Z</time>
      </trkpt>
      <trkpt lat="44.014388015493751" lon="7.853057971224189">
        <ele>652.38999999999999</ele>
        <time>2025-05-19T09:58:08Z</time>
      </trkpt>
      <trkpt lat="44.014317020773888" lon="7.853074986487627">
        <ele>651.42999999999995</ele>
        <time>2025-05-19T09:58:09Z</time>
      </trkpt>
      <trkpt lat="44.014272009953856" lon="7.853041961789131">
        <ele>650.47000000000003</ele>
        <time>2025-05-19T09:58:10Z</time>
      </trkpt>
      <trkpt lat="44.014234039932489" lon="7.852992005646229">
        <ele>649.50999999999999</ele>
        <time>2025-05-19T09:58:11Z</time>
      </trkpt>
      <trkpt lat="44.01419498026371" lon="7.852940037846565">
        <ele>648.07000000000005</ele>
        <time>2025-05-19T09:58:12Z</time>
      </trkpt>
      <trkpt lat="44.01415198110044" lon="7.852883040904999">
        <ele>647.10000000000002</ele>
        <time>2025-05-19T09:58:13Z</time>
      </trkpt>
      <trkpt lat="44.014088027179241" lon="7.852824032306671">
        <ele>645.65999999999997</ele>
        <time>2025-05-19T09:58:14Z</time>
      </trkpt>
      <trkpt lat="44.013977972790599" lon="7.852842975407839">
        <ele>644.70000000000005</ele>
        <time>2025-05-19T09:58:15Z</time>
      </trkpt>
      <trkpt lat="44.013922987505794" lon="7.852923022583127">
        <ele>644.22000000000003</ele>
        <time>2025-05-19T09:58:16Z</time>
      </trkpt>
      <trkpt lat="44.013846963644028" lon="7.853031987324357">
        <ele>643.25999999999999</ele>
        <time>2025-05-19T09:58:17Z</time>
      </trkpt>
      <trkpt lat="44.013780998066068" lon="7.853127960115671">
        <ele>642.77999999999997</ele>
        <time>2025-05-19T09:58:18Z</time>
      </trkpt>
      <trkpt lat="44.013740010559559" lon="7.853239020332694">
        <ele>641.82000000000005</ele>
        <time>2025-05-19T09:58:19Z</time>
      </trkpt>
      <trkpt lat="44.013735987246037" lon="7.85333801060915">
        <ele>640.86000000000001</ele>
        <time>2025-05-19T09:58:20Z</time>
      </trkpt>
      <trkpt lat="44.013727018609643" lon="7.853569015860558">
        <ele>638.45000000000005</ele>
        <time>2025-05-19T09:58:22Z</time>
      </trkpt>
      <trkpt lat="44.013719977810979" lon="7.853744029998779">
        <ele>637.49000000000001</ele>
        <time>2025-05-19T09:58:23Z</time>
      </trkpt>
      <trkpt lat="44.013675972819328" lon="7.85378803499043">
        <ele>636.52999999999997</ele>
        <time>2025-05-19T09:58:24Z</time>
      </trkpt>
      <trkpt lat="44.013526020571589" lon="7.853937987238169">
        <ele>634.61000000000001</ele>
        <time>2025-05-19T09:58:26Z</time>
      </trkpt>
      <trkpt lat="44.01344102807343" lon="7.854022979736328">
        <ele>634.13</ele>
        <time>2025-05-19T09:58:27Z</time>
      </trkpt>
      <trkpt lat="44.013402974233031" lon="7.854126999154687">
        <ele>633.16999999999996</ele>
        <time>2025-05-19T09:58:28Z</time>
      </trkpt>
      <trkpt lat="44.01335502974689" lon="7.854259014129639">
        <ele>632.67999999999995</ele>
        <time>2025-05-19T09:58:29Z</time>
      </trkpt>
      <trkpt lat="44.013360980898142" lon="7.854335037991405">
        <ele>632.67999999999995</ele>
        <time>2025-05-19T09:58:30Z</time>
      </trkpt>
      <trkpt lat="44.013373972848058" lon="7.854493958875537">
        <ele>632.20000000000005</ele>
        <time>2025-05-19T09:58:31Z</time>
      </trkpt>
      <trkpt lat="44.013433987274766" lon="7.855242965742946">
        <ele>630.75999999999999</ele>
        <time>2025-05-19T09:58:35Z</time>
      </trkpt>
      <trkpt lat="44.013428958132863" lon="7.855436000972986">
        <ele>629.79999999999995</ele>
        <time>2025-05-19T09:58:36Z</time>
      </trkpt>
      <trkpt lat="44.013409009203315" lon="7.855604980140925">
        <ele>628.84000000000003</ele>
        <time>2025-05-19T09:58:37Z</time>
      </trkpt>
      <trkpt lat="44.013385036960244" lon="7.855764990672469">
        <ele>628.36000000000001</ele>
        <time>2025-05-19T09:58:38Z</time>
      </trkpt>
      <trkpt lat="44.013357963413" lon="7.855900023132563">
        <ele>627.88</ele>
        <time>2025-05-19T09:58:39Z</time>
      </trkpt>
      <trkpt lat="44.013332985341549" lon="7.856021979823709">
        <ele>627.39999999999998</ele>
        <time>2025-05-19T09:58:40Z</time>
      </trkpt>
      <trkpt lat="44.01331496424973" lon="7.856147959828377">
        <ele>626.91999999999996</ele>
        <time>2025-05-19T09:58:41Z</time>
      </trkpt>
      <trkpt lat="44.013330973684788" lon="7.856287015601993">
        <ele>626.44000000000005</ele>
        <time>2025-05-19T09:58:42Z</time>
      </trkpt>
      <trkpt lat="44.013363998383284" lon="7.856579041108489">
        <ele>624.99000000000001</ele>
        <time>2025-05-19T09:58:44Z</time>
      </trkpt>
      <trkpt lat="44.013381013646722" lon="7.856722958385944">
        <ele>624.50999999999999</ele>
        <time>2025-05-19T09:58:45Z</time>
      </trkpt>
      <trkpt lat="44.013395011425018" lon="7.856892021372914">
        <ele>624.02999999999997</ele>
        <time>2025-05-19T09:58:46Z</time>
      </trkpt>
      <trkpt lat="44.013362992554903" lon="7.857041973620653">
        <ele>623.07000000000005</ele>
        <time>2025-05-19T09:58:47Z</time>
      </trkpt>
      <trkpt lat="44.013329967856407" lon="7.857196033000946">
        <ele>622.59000000000003</ele>
        <time>2025-05-19T09:58:48Z</time>
      </trkpt>
      <trkpt lat="44.013296021148562" lon="7.85735503770411">
        <ele>622.11000000000001</ele>
        <time>2025-05-19T09:58:49Z</time>
      </trkpt>
      <trkpt lat="44.013261990621686" lon="7.857512030750513">
        <ele>621.14999999999998</ele>
        <time>2025-05-19T09:58:50Z</time>
      </trkpt>
      <trkpt lat="44.013194013386965" lon="7.857809001579881">
        <ele>620.19000000000005</ele>
        <time>2025-05-19T09:58:52Z</time>
      </trkpt>
      <trkpt lat="44.013109020888805" lon="7.858048975467682">
        <ele>618.75</ele>
        <time>2025-05-19T09:58:54Z</time>
      </trkpt>
      <trkpt lat="44.013082031160593" lon="7.858163975179195">
        <ele>617.77999999999997</ele>
        <time>2025-05-19T09:58:55Z</time>
      </trkpt>
      <trkpt lat="44.013112038373947" lon="7.858281992375851">
        <ele>616.82000000000005</ele>
        <time>2025-05-19T09:58:56Z</time>
      </trkpt>
      <trkpt lat="44.013180015608668" lon="7.858541999012232">
        <ele>614.41999999999996</ele>
        <time>2025-05-19T09:58:58Z</time>
      </trkpt>
      <trkpt lat="44.013208011165261" lon="7.858650963753462">
        <ele>613.46000000000004</ele>
        <time>2025-05-19T09:58:59Z</time>
      </trkpt>
      <trkpt lat="44.013262996450067" lon="7.858771998435259">
        <ele>612.98000000000002</ele>
        <time>2025-05-19T09:59:00Z</time>
      </trkpt>
      <trkpt lat="44.013317981734872" lon="7.858847016468644">
        <ele>612.01999999999998</ele>
        <time>2025-05-19T09:59:01Z</time>
      </trkpt>
      <trkpt lat="44.013369027525187" lon="7.858917005360127">
        <ele>611.05999999999995</ele>
        <time>2025-05-19T09:59:02Z</time>
      </trkpt>
      <trkpt lat="44.013417977839708" lon="7.858983976766467">
        <ele>610.09000000000003</ele>
        <time>2025-05-19T09:59:03Z</time>
      </trkpt>
      <trkpt lat="44.013462988659739" lon="7.859043991193175">
        <ele>609.13</ele>
        <time>2025-05-19T09:59:04Z</time>
      </trkpt>
      <trkpt lat="44.013467011973262" lon="7.859178017824888">
        <ele>608.64999999999998</ele>
        <time>2025-05-19T09:59:05Z</time>
      </trkpt>
      <trkpt lat="44.013476986438036" lon="7.85948202945292">
        <ele>606.73000000000002</ele>
        <time>2025-05-19T09:59:07Z</time>
      </trkpt>
      <trkpt lat="44.0134840272367" lon="7.859687972813845">
        <ele>605.76999999999998</ele>
        <time>2025-05-19T09:59:08Z</time>
      </trkpt>
      <trkpt lat="44.013467011973262" lon="7.859767014160752">
        <ele>605.28999999999996</ele>
        <time>2025-05-19T09:59:09Z</time>
      </trkpt>
      <trkpt lat="44.013442033901811" lon="7.859877990558744">
        <ele>604.33000000000004</ele>
        <time>2025-05-19T09:59:10Z</time>
      </trkpt>
      <trkpt lat="44.013419989496469" lon="7.85997798666358">
        <ele>603.36000000000001</ele>
        <time>2025-05-19T09:59:11Z</time>
      </trkpt>
      <trkpt lat="44.013428036123514" lon="7.860119976103306">
        <ele>602.88</ele>
        <time>2025-05-19T09:59:12Z</time>
      </trkpt>
      <trkpt lat="44.013492995873094" lon="7.860222989693284">
        <ele>602.39999999999998</ele>
        <time>2025-05-19T09:59:13Z</time>
      </trkpt>
      <trkpt lat="44.013566002249718" lon="7.860337989404798">
        <ele>601.91999999999996</ele>
        <time>2025-05-19T09:59:14Z</time>
      </trkpt>
      <trkpt lat="44.01372198946774" lon="7.860582992434502">
        <ele>600.48000000000002</ele>
        <time>2025-05-19T09:59:16Z</time>
      </trkpt>
      <trkpt lat="44.013801030814648" lon="7.860707966610789">
        <ele>599.51999999999998</ele>
        <time>2025-05-19T09:59:17Z</time>
      </trkpt>
      <trkpt lat="44.013865990564227" lon="7.860839981585741">
        <ele>598.08000000000004</ele>
        <time>2025-05-19T09:59:18Z</time>
      </trkpt>
      <trkpt lat="44.013913013041019" lon="7.860996974632144">
        <ele>596.14999999999998</ele>
        <time>2025-05-19T09:59:19Z</time>
      </trkpt>
      <trkpt lat="44.013940002769232" lon="7.861172994598746">
        <ele>594.23000000000002</ele>
        <time>2025-05-19T09:59:20Z</time>
      </trkpt>
      <trkpt lat="44.013965986669064" lon="7.861349014565349">
        <ele>592.78999999999996</ele>
        <time>2025-05-19T09:59:21Z</time>
      </trkpt>
      <trkpt lat="44.013980990275741" lon="7.861516987904906">
        <ele>590.87</ele>
        <time>2025-05-19T09:59:22Z</time>
      </trkpt>
      <trkpt lat="44.013988031074405" lon="7.861680015921593">
        <ele>589.42999999999995</ele>
        <time>2025-05-19T09:59:23Z</time>
      </trkpt>
      <trkpt lat="44.013994988054037" lon="7.861842038109899">
        <ele>587.98000000000002</ele>
        <time>2025-05-19T09:59:24Z</time>
      </trkpt>
      <trkpt lat="44.013983001932502" lon="7.862017974257469">
        <ele>587.01999999999998</ele>
        <time>2025-05-19T09:59:25Z</time>
      </trkpt>
      <trkpt lat="44.013952994719148" lon="7.862160969525576">
        <ele>585.58000000000004</ele>
        <time>2025-05-19T09:59:26Z</time>
      </trkpt>
      <trkpt lat="44.013928016647696" lon="7.862284015864134">
        <ele>584.13999999999999</ele>
        <time>2025-05-19T09:59:27Z</time>
      </trkpt>
      <trkpt lat="44.013891974464059" lon="7.862456012517214">
        <ele>583.17999999999995</ele>
        <time>2025-05-19T09:59:28Z</time>
      </trkpt>
      <trkpt lat="44.013897003605962" lon="7.862508986145258">
        <ele>582.22000000000003</ele>
        <time>2025-05-19T09:59:29Z</time>
      </trkpt>
      <trkpt lat="44.013909995555878" lon="7.862624991685152">
        <ele>581.25</ele>
        <time>2025-05-19T09:59:30Z</time>
      </trkpt>
      <trkpt lat="44.013921981677413" lon="7.862739991396666">
        <ele>580.28999999999996</ele>
        <time>2025-05-19T09:59:31Z</time>
      </trkpt>
      <trkpt lat="44.013934973627329" lon="7.862863959744573">
        <ele>579.33000000000004</ele>
        <time>2025-05-19T09:59:32Z</time>
      </trkpt>
      <trkpt lat="44.013918964192271" lon="7.862983988597989">
        <ele>578.85000000000002</ele>
        <time>2025-05-19T09:59:33Z</time>
      </trkpt>
      <trkpt lat="44.013891974464059" lon="7.863184986636043">
        <ele>578.37</ele>
        <time>2025-05-19T09:59:34Z</time>
      </trkpt>
      <trkpt lat="44.013899015262723" lon="7.86324399523437">
        <ele>578.37</ele>
        <time>2025-05-19T09:59:35Z</time>
      </trkpt>
      <trkpt lat="44.013929022476077" lon="7.863378021866083">
        <ele>577.88999999999999</ele>
        <time>2025-05-19T09:59:36Z</time>
      </trkpt>
      <trkpt lat="44.013981996104121" lon="7.863449016585946">
        <ele>577.40999999999997</ele>
        <time>2025-05-19T09:59:37Z</time>
      </trkpt>
      <trkpt lat="44.014033041894436" lon="7.863516993820667">
        <ele>577.40999999999997</ele>
        <time>2025-05-19T09:59:38Z</time>
      </trkpt>
      <trkpt lat="44.014105964452028" lon="7.863614978268743">
        <ele>576.45000000000005</ele>
        <time>2025-05-19T09:59:39Z</time>
      </trkpt>
      <trkpt lat="44.014106970280409" lon="7.863619001582265">
        <ele>575.97000000000003</ele>
        <time>2025-05-19T09:59:40Z</time>
      </trkpt>
      <trkpt lat="44.014128008857369" lon="7.863742969930172">
        <ele>575.00999999999999</ele>
        <time>2025-05-19T09:59:41Z</time>
      </trkpt>
      <trkpt lat="44.014110993593931" lon="7.863830979913473">
        <ele>574.03999999999996</ele>
        <time>2025-05-19T09:59:42Z</time>
      </trkpt>
      <trkpt lat="44.014085009694099" lon="7.863969029858708">
        <ele>573.55999999999995</ele>
        <time>2025-05-19T09:59:43Z</time>
      </trkpt>
      <trkpt lat="44.014058019965887" lon="7.864105990156531">
        <ele>572.60000000000002</ele>
        <time>2025-05-19T09:59:44Z</time>
      </trkpt>
      <trkpt lat="44.014019966125488" lon="7.864301037043333">
        <ele>571.63999999999999</ele>
        <time>2025-05-19T09:59:45Z</time>
      </trkpt>
      <trkpt lat="44.013845035806298" lon="7.864605970680714">
        <ele>568.27999999999997</ele>
        <time>2025-05-19T09:59:48Z</time>
      </trkpt>
      <trkpt lat="44.013787033036351" lon="7.86470596678555">
        <ele>567.32000000000005</ele>
        <time>2025-05-19T09:59:49Z</time>
      </trkpt>
      <trkpt lat="44.013735987246037" lon="7.864793976768851">
        <ele>566.35000000000002</ele>
        <time>2025-05-19T09:59:50Z</time>
      </trkpt>
      <trkpt lat="44.013696005567908" lon="7.864881986752152">
        <ele>565.38999999999999</ele>
        <time>2025-05-19T09:59:51Z</time>
      </trkpt>
      <trkpt lat="44.013677984476089" lon="7.865032022818923">
        <ele>564.90999999999997</ele>
        <time>2025-05-19T09:59:52Z</time>
      </trkpt>
      <trkpt lat="44.013722995296121" lon="7.865134030580521">
        <ele>564.42999999999995</ele>
        <time>2025-05-19T09:59:53Z</time>
      </trkpt>
      <trkpt lat="44.013774963095784" lon="7.865250036120415">
        <ele>563.95000000000005</ele>
        <time>2025-05-19T09:59:54Z</time>
      </trkpt>
      <trkpt lat="44.013831038028002" lon="7.865377021953464">
        <ele>563.95000000000005</ele>
        <time>2025-05-19T09:59:55Z</time>
      </trkpt>
      <trkpt lat="44.013889040797949" lon="7.865507025271654">
        <ele>563.47000000000003</ele>
        <time>2025-05-19T09:59:56Z</time>
      </trkpt>
      <trkpt lat="44.013935979455709" lon="7.865630993619561">
        <ele>562.50999999999999</ele>
        <time>2025-05-19T09:59:57Z</time>
      </trkpt>
      <trkpt lat="44.013949977234006" lon="7.865782035514712">
        <ele>561.54999999999995</ele>
        <time>2025-05-19T09:59:58Z</time>
      </trkpt>
      <trkpt lat="44.013951988890767" lon="7.865931987762451">
        <ele>560.59000000000003</ele>
        <time>2025-05-19T09:59:59Z</time>
      </trkpt>
      <trkpt lat="44.013944026082754" lon="7.866084035485983">
        <ele>560.11000000000001</ele>
        <time>2025-05-19T10:00:00Z</time>
      </trkpt>
      <trkpt lat="44.013934973627329" lon="7.866274975240231">
        <ele>560.11000000000001</ele>
        <time>2025-05-19T10:00:01Z</time>
      </trkpt>
      <trkpt lat="44.013952994719148" lon="7.866369020193815">
        <ele>559.62</ele>
        <time>2025-05-19T10:00:02Z</time>
      </trkpt>
      <trkpt lat="44.013992976397276" lon="7.866528024896979">
        <ele>559.13999999999999</ele>
        <time>2025-05-19T10:00:03Z</time>
      </trkpt>
      <trkpt lat="44.014047961682081" lon="7.866659034043551">
        <ele>558.65999999999997</ele>
        <time>2025-05-19T10:00:04Z</time>
      </trkpt>
      <trkpt lat="44.014122979715466" lon="7.866798005998135">
        <ele>558.65999999999997</ele>
        <time>2025-05-19T10:00:05Z</time>
      </trkpt>
      <trkpt lat="44.014203026890755" lon="7.866904959082604">
        <ele>557.70000000000005</ele>
        <time>2025-05-19T10:00:06Z</time>
      </trkpt>
      <trkpt lat="44.014276033267379" lon="7.86700202152133">
        <ele>557.22000000000003</ele>
        <time>2025-05-19T10:00:07Z</time>
      </trkpt>
      <trkpt lat="44.014347027987242" lon="7.867111992090941">
        <ele>557.22000000000003</ele>
        <time>2025-05-19T10:00:08Z</time>
      </trkpt>
      <trkpt lat="44.014384998008609" lon="7.867270996794105">
        <ele>557.22000000000003</ele>
        <time>2025-05-19T10:00:09Z</time>
      </trkpt>
      <trkpt lat="44.014424979686737" lon="7.867438970133662">
        <ele>557.22000000000003</ele>
        <time>2025-05-19T10:00:10Z</time>
      </trkpt>
      <trkpt lat="44.014502009376884" lon="7.867762008681893">
        <ele>556.74000000000001</ele>
        <time>2025-05-19T10:00:12Z</time>
      </trkpt>
      <trkpt lat="44.014535034075379" lon="7.867900980636478">
        <ele>556.74000000000001</ele>
        <time>2025-05-19T10:00:13Z</time>
      </trkpt>
      <trkpt lat="44.014589013531804" lon="7.868036013096571">
        <ele>556.25999999999999</ele>
        <time>2025-05-19T10:00:14Z</time>
      </trkpt>
      <trkpt lat="44.014675011858344" lon="7.868155036121607">
        <ele>556.25999999999999</ele>
        <time>2025-05-19T10:00:15Z</time>
      </trkpt>
      <trkpt lat="44.014763021841645" lon="7.868276992812753">
        <ele>555.77999999999997</ele>
        <time>2025-05-19T10:00:16Z</time>
      </trkpt>
      <trkpt lat="44.015039959922433" lon="7.86865996196866">
        <ele>554.82000000000005</ele>
        <time>2025-05-19T10:00:19Z</time>
      </trkpt>
      <trkpt lat="44.015126964077353" lon="7.868801029399037">
        <ele>553.86000000000001</ele>
        <time>2025-05-19T10:00:20Z</time>
      </trkpt>
      <trkpt lat="44.01518396101892" lon="7.868967996910214">
        <ele>553.38</ele>
        <time>2025-05-19T10:00:21Z</time>
      </trkpt>
      <trkpt lat="44.015510017052293" lon="7.869877014309168">
        <ele>552.89999999999998</ele>
        <time>2025-05-19T10:00:27Z</time>
      </trkpt>
      <trkpt lat="44.015549998730421" lon="7.869978016242385">
        <ele>552.40999999999997</ele>
        <time>2025-05-19T10:00:28Z</time>
      </trkpt>
      <trkpt lat="44.015586962923408" lon="7.870072983205319">
        <ele>551.92999999999995</ele>
        <time>2025-05-19T10:00:29Z</time>
      </trkpt>
      <trkpt lat="44.015773041173816" lon="7.87018496543169">
        <ele>550.49000000000001</ele>
        <time>2025-05-19T10:00:31Z</time>
      </trkpt>
      <trkpt lat="44.015887035056949" lon="7.870253026485443">
        <ele>550.00999999999999</ele>
        <time>2025-05-19T10:00:32Z</time>
      </trkpt>
      <trkpt lat="44.015997005626559" lon="7.870350005105138">
        <ele>549.52999999999997</ele>
        <time>2025-05-19T10:00:33Z</time>
      </trkpt>
      <trkpt lat="44.016212001442909" lon="7.870552008971572">
        <ele>548.57000000000005</ele>
        <time>2025-05-19T10:00:35Z</time>
      </trkpt>
      <trkpt lat="44.01632197201252" lon="7.870635995641351">
        <ele>548.09000000000003</ele>
        <time>2025-05-19T10:00:36Z</time>
      </trkpt>
      <trkpt lat="44.016425991430879" lon="7.870692992582917">
        <ele>547.61000000000001</ele>
        <time>2025-05-19T10:00:37Z</time>
      </trkpt>
      <trkpt lat="44.016518024727702" lon="7.870752001181245">
        <ele>547.13</ele>
        <time>2025-05-19T10:00:38Z</time>
      </trkpt>
      <trkpt lat="44.016581978648901" lon="7.870850991457701">
        <ele>546.64999999999998</ele>
        <time>2025-05-19T10:00:39Z</time>
      </trkpt>
      <trkpt lat="44.016646016389132" lon="7.870949981734157">
        <ele>546.16999999999996</ele>
        <time>2025-05-19T10:00:40Z</time>
      </trkpt>
      <trkpt lat="44.016703013330698" lon="7.871038997545838">
        <ele>545.69000000000005</ele>
        <time>2025-05-19T10:00:41Z</time>
      </trkpt>
      <trkpt lat="44.016783982515335" lon="7.871079985052347">
        <ele>545.20000000000005</ele>
        <time>2025-05-19T10:00:42Z</time>
      </trkpt>
      <trkpt lat="44.016870986670256" lon="7.871122984215617">
        <ele>544.72000000000003</ele>
        <time>2025-05-19T10:00:43Z</time>
      </trkpt>
      <trkpt lat="44.016962014138699" lon="7.871167995035648">
        <ele>544.24000000000001</ele>
        <time>2025-05-19T10:00:44Z</time>
      </trkpt>
      <trkpt lat="44.017052035778761" lon="7.871216023340821">
        <ele>543.75999999999999</ele>
        <time>2025-05-19T10:00:45Z</time>
      </trkpt>
      <trkpt lat="44.017128981649876" lon="7.871282994747162">
        <ele>543.27999999999997</ele>
        <time>2025-05-19T10:00:46Z</time>
      </trkpt>
      <trkpt lat="44.017217997461557" lon="7.871361030265689">
        <ele>543.27999999999997</ele>
        <time>2025-05-19T10:00:47Z</time>
      </trkpt>
      <trkpt lat="44.017272982746363" lon="7.871368993073702">
        <ele>542.32000000000005</ele>
        <time>2025-05-19T10:00:48Z</time>
      </trkpt>
      <trkpt lat="44.017370967194438" lon="7.871380979195237">
        <ele>541.84000000000003</ele>
        <time>2025-05-19T10:00:49Z</time>
      </trkpt>
      <trkpt lat="44.017457971349359" lon="7.871347032487392">
        <ele>541.36000000000001</ele>
        <time>2025-05-19T10:00:50Z</time>
      </trkpt>
      <trkpt lat="44.017647989094257" lon="7.871273020282388">
        <ele>540.39999999999998</ele>
        <time>2025-05-19T10:00:52Z</time>
      </trkpt>
      <trkpt lat="44.017754020169377" lon="7.871232032775879">
        <ele>539.91999999999996</ele>
        <time>2025-05-19T10:00:53Z</time>
      </trkpt>
      <trkpt lat="44.017816968262196" lon="7.871243013069034">
        <ele>539.44000000000005</ele>
        <time>2025-05-19T10:00:54Z</time>
      </trkpt>
      <trkpt lat="44.017902966588736" lon="7.87125701084733">
        <ele>538.96000000000004</ele>
        <time>2025-05-19T10:00:55Z</time>
      </trkpt>
      <trkpt lat="44.018012015148997" lon="7.871275031939149">
        <ele>538.48000000000002</ele>
        <time>2025-05-19T10:00:56Z</time>
      </trkpt>
      <trkpt lat="44.018072029575706" lon="7.871239995583892">
        <ele>537.99000000000001</ele>
        <time>2025-05-19T10:00:57Z</time>
      </trkpt>
      <trkpt lat="44.018146963790059" lon="7.871196996420622">
        <ele>537.50999999999999</ele>
        <time>2025-05-19T10:00:58Z</time>
      </trkpt>
      <trkpt lat="44.018227010965347" lon="7.87117000669241">
        <ele>537.02999999999997</ele>
        <time>2025-05-19T10:00:59Z</time>
      </trkpt>
      <trkpt lat="44.018321977928281" lon="7.871141005307436">
        <ele>536.54999999999995</ele>
        <time>2025-05-19T10:01:00Z</time>
      </trkpt>
      <trkpt lat="44.018419962376356" lon="7.871112003922463">
        <ele>536.07000000000005</ele>
        <time>2025-05-19T10:01:01Z</time>
      </trkpt>
      <trkpt lat="44.018591037020087" lon="7.871060036122799">
        <ele>535.11000000000001</ele>
        <time>2025-05-19T10:01:03Z</time>
      </trkpt>
      <trkpt lat="44.018706036731601" lon="7.871086020022631">
        <ele>534.14999999999998</ele>
        <time>2025-05-19T10:01:05Z</time>
      </trkpt>
      <trkpt lat="44.01879396289587" lon="7.871132036671042">
        <ele>533.19000000000005</ele>
        <time>2025-05-19T10:01:06Z</time>
      </trkpt>
      <trkpt lat="44.018827993422747" lon="7.871247958391905">
        <ele>533.66999999999996</ele>
        <time>2025-05-19T10:01:07Z</time>
      </trkpt>
      <trkpt lat="44.018831010907888" lon="7.871348960325122">
        <ele>533.19000000000005</ele>
        <time>2025-05-19T10:01:08Z</time>
      </trkpt>
      <trkpt lat="44.018835034221411" lon="7.87145096808672">
        <ele>533.19000000000005</ele>
        <time>2025-05-19T10:01:09Z</time>
      </trkpt>
      <trkpt lat="44.018848026171327" lon="7.871810970827937">
        <ele>532.23000000000002</ele>
        <time>2025-05-19T10:01:13Z</time>
      </trkpt>
      <trkpt lat="44.01887996122241" lon="7.87185899913311">
        <ele>532.23000000000002</ele>
        <time>2025-05-19T10:01:14Z</time>
      </trkpt>
      <trkpt lat="44.018914997577667" lon="7.871910966932774">
        <ele>531.75</ele>
        <time>2025-05-19T10:01:15Z</time>
      </trkpt>
      <trkpt lat="44.018977023661137" lon="7.872005011886358">
        <ele>531.75</ele>
        <time>2025-05-19T10:01:16Z</time>
      </trkpt>
      <trkpt lat="44.019007030874491" lon="7.872011968865991">
        <ele>531.26999999999998</ele>
        <time>2025-05-19T10:01:17Z</time>
      </trkpt>
      <trkpt lat="44.019084982573986" lon="7.872032001614571">
        <ele>531.26999999999998</ele>
        <time>2025-05-19T10:01:18Z</time>
      </trkpt>
      <trkpt lat="44.019165029749274" lon="7.872054968029261">
        <ele>530.78999999999996</ele>
        <time>2025-05-19T10:01:19Z</time>
      </trkpt>
      <trkpt lat="44.019232001155615" lon="7.872109031304717">
        <ele>530.29999999999995</ele>
        <time>2025-05-19T10:01:20Z</time>
      </trkpt>
      <trkpt lat="44.019297966733575" lon="7.872174996882677">
        <ele>530.29999999999995</ele>
        <time>2025-05-19T10:01:21Z</time>
      </trkpt>
      <trkpt lat="44.019365021958947" lon="7.872241968289018">
        <ele>529.82000000000005</ele>
        <time>2025-05-19T10:01:22Z</time>
      </trkpt>
      <trkpt lat="44.019429981708527" lon="7.87228899076581">
        <ele>529.34000000000003</ele>
        <time>2025-05-19T10:01:23Z</time>
      </trkpt>
      <trkpt lat="44.01950198225677" lon="7.872307011857629">
        <ele>528.86000000000001</ele>
        <time>2025-05-19T10:01:24Z</time>
      </trkpt>
      <trkpt lat="44.019579011946917" lon="7.872326038777828">
        <ele>528.38</ele>
        <time>2025-05-19T10:01:25Z</time>
      </trkpt>
      <trkpt lat="44.019640032202005" lon="7.872280022129417">
        <ele>527.89999999999998</ele>
        <time>2025-05-19T10:01:26Z</time>
      </trkpt>
      <trkpt lat="44.019703986123204" lon="7.872231993824244">
        <ele>527.89999999999998</ele>
        <time>2025-05-19T10:01:27Z</time>
      </trkpt>
      <trkpt lat="44.020010009407997" lon="7.872018003836274">
        <ele>526.46000000000004</ele>
        <time>2025-05-19T10:01:32Z</time>
      </trkpt>
      <trkpt lat="44.020072035491467" lon="7.871982967481017">
        <ele>526.46000000000004</ele>
        <time>2025-05-19T10:01:33Z</time>
      </trkpt>
      <trkpt lat="44.020125009119511" lon="7.871982967481017">
        <ele>526.46000000000004</ele>
        <time>2025-05-19T10:01:34Z</time>
      </trkpt>
      <trkpt lat="44.020186029374599" lon="7.871982967481017">
        <ele>525.98000000000002</ele>
        <time>2025-05-19T10:01:35Z</time>
      </trkpt>
      <trkpt lat="44.020237997174263" lon="7.871982967481017">
        <ele>525.5</ele>
        <time>2025-05-19T10:01:36Z</time>
      </trkpt>
      <trkpt lat="44.020345034077764" lon="7.871982967481017">
        <ele>525.01999999999998</ele>
        <time>2025-05-19T10:01:38Z</time>
      </trkpt>
      <trkpt lat="44.020412005484104" lon="7.871982967481017">
        <ele>524.53999999999996</ele>
        <time>2025-05-19T10:01:39Z</time>
      </trkpt>
      <trkpt lat="44.020478976890445" lon="7.871982967481017">
        <ele>524.53999999999996</ele>
        <time>2025-05-19T10:01:40Z</time>
      </trkpt>
      <trkpt lat="44.020564975216985" lon="7.871982967481017">
        <ele>524.05999999999995</ele>
        <time>2025-05-19T10:01:41Z</time>
      </trkpt>
      <trkpt lat="44.020614009350538" lon="7.871956983581185">
        <ele>523.58000000000004</ele>
        <time>2025-05-19T10:01:42Z</time>
      </trkpt>
      <trkpt lat="44.020665977150202" lon="7.871929993852973">
        <ele>523.09000000000003</ele>
        <time>2025-05-19T10:01:43Z</time>
      </trkpt>
      <trkpt lat="44.020984992384911" lon="7.871776018291712">
        <ele>522.61000000000001</ele>
        <time>2025-05-19T10:01:49Z</time>
      </trkpt>
      <trkpt lat="44.021051963791251" lon="7.87175196222961">
        <ele>522.61000000000001</ele>
        <time>2025-05-19T10:01:50Z</time>
      </trkpt>
      <trkpt lat="44.021145002916455" lon="7.871748022735119">
        <ele>522.61000000000001</ele>
        <time>2025-05-19T10:01:51Z</time>
      </trkpt>
      <trkpt lat="44.021209962666035" lon="7.871811976656318">
        <ele>522.13</ele>
        <time>2025-05-19T10:01:52Z</time>
      </trkpt>
      <trkpt lat="44.021278023719788" lon="7.871894035488367">
        <ele>521.64999999999998</ele>
        <time>2025-05-19T10:01:53Z</time>
      </trkpt>
      <trkpt lat="44.021303001791239" lon="7.87198799662292">
        <ele>521.16999999999996</ele>
        <time>2025-05-19T10:01:54Z</time>
      </trkpt>
      <trkpt lat="44.02132797986269" lon="7.872084975242615">
        <ele>521.64999999999998</ele>
        <time>2025-05-19T10:01:55Z</time>
      </trkpt>
      <trkpt lat="44.021380031481385" lon="7.872282033786178">
        <ele>521.64999999999998</ele>
        <time>2025-05-19T10:01:57Z</time>
      </trkpt>
      <trkpt lat="44.021433005109429" lon="7.872345987707377">
        <ele>520.69000000000005</ele>
        <time>2025-05-19T10:01:58Z</time>
      </trkpt>
      <trkpt lat="44.021487990394235" lon="7.872412037104368">
        <ele>519.73000000000002</ele>
        <time>2025-05-19T10:01:59Z</time>
      </trkpt>
      <trkpt lat="44.021539036184549" lon="7.872470961883664">
        <ele>518.76999999999998</ele>
        <time>2025-05-19T10:02:00Z</time>
      </trkpt>
      <trkpt lat="44.021589998155832" lon="7.872528964653611">
        <ele>517.33000000000004</ele>
        <time>2025-05-19T10:02:01Z</time>
      </trkpt>
      <trkpt lat="44.021638026461005" lon="7.872584033757448">
        <ele>516.37</ele>
        <time>2025-05-19T10:02:02Z</time>
      </trkpt>
      <trkpt lat="44.021667027845979" lon="7.87265301682055">
        <ele>514.91999999999996</ele>
        <time>2025-05-19T10:02:03Z</time>
      </trkpt>
      <trkpt lat="44.021700974553823" lon="7.872733986005187">
        <ele>513.48000000000002</ele>
        <time>2025-05-19T10:02:04Z</time>
      </trkpt>
      <trkpt lat="44.021737016737461" lon="7.872817972674966">
        <ele>513</ele>
        <time>2025-05-19T10:02:05Z</time>
      </trkpt>
      <trkpt lat="44.021810023114085" lon="7.872991980984807">
        <ele>512.03999999999996</ele>
        <time>2025-05-19T10:02:07Z</time>
      </trkpt>
      <trkpt lat="44.021816980093718" lon="7.873089965432882">
        <ele>512.03999999999996</ele>
        <time>2025-05-19T10:02:08Z</time>
      </trkpt>
      <trkpt lat="44.021848998963833" lon="7.87362196482718">
        <ele>510.60000000000002</ele>
        <time>2025-05-19T10:02:13Z</time>
      </trkpt>
      <trkpt lat="44.02184103615582" lon="7.873737970367074">
        <ele>510.12</ele>
        <time>2025-05-19T10:02:14Z</time>
      </trkpt>
      <trkpt lat="44.021833995357156" lon="7.873854981735349">
        <ele>510.12</ele>
        <time>2025-05-19T10:02:15Z</time>
      </trkpt>
      <trkpt lat="44.021794013679028" lon="7.874452024698257">
        <ele>509.16000000000003</ele>
        <time>2025-05-19T10:02:20Z</time>
      </trkpt>
      <trkpt lat="44.021787978708744" lon="7.874537017196417">
        <ele>509.16000000000003</ele>
        <time>2025-05-19T10:02:21Z</time>
      </trkpt>
      <trkpt lat="44.021802982315421" lon="7.874672971665859">
        <ele>509.16000000000003</ele>
        <time>2025-05-19T10:02:22Z</time>
      </trkpt>
      <trkpt lat="44.021814968436956" lon="7.874779002740979">
        <ele>509.16000000000003</ele>
        <time>2025-05-19T10:02:23Z</time>
      </trkpt>
      <trkpt lat="44.021830977872014" lon="7.874923003837466">
        <ele>510.12</ele>
        <time>2025-05-19T10:02:24Z</time>
      </trkpt>
      <trkpt lat="44.021870959550142" lon="7.874991986900568">
        <ele>510.60000000000002</ele>
        <time>2025-05-19T10:02:25Z</time>
      </trkpt>
      <trkpt lat="44.021928962320089" lon="7.87508100271225">
        <ele>511.07999999999998</ele>
        <time>2025-05-19T10:02:26Z</time>
      </trkpt>
      <trkpt lat="44.022000040858984" lon="7.875128025189042">
        <ele>511.56</ele>
        <time>2025-05-19T10:02:27Z</time>
      </trkpt>
      <trkpt lat="44.022083021700382" lon="7.87514696829021">
        <ele>512.03999999999996</ele>
        <time>2025-05-19T10:02:28Z</time>
      </trkpt>
      <trkpt lat="44.022158039733768" lon="7.875120984390378">
        <ele>512.03999999999996</ele>
        <time>2025-05-19T10:02:29Z</time>
      </trkpt>
      <trkpt lat="44.022230040282011" lon="7.875057030469179">
        <ele>512.03999999999996</ele>
        <time>2025-05-19T10:02:30Z</time>
      </trkpt>
      <trkpt lat="44.022356020286679" lon="7.874923003837466">
        <ele>512.03999999999996</ele>
        <time>2025-05-19T10:02:32Z</time>
      </trkpt>
      <trkpt lat="44.0224239975214" lon="7.874852009117603">
        <ele>512.03999999999996</ele>
        <time>2025-05-19T10:02:33Z</time>
      </trkpt>
      <trkpt lat="44.022639999166131" lon="7.874657968059182">
        <ele>511.56</ele>
        <time>2025-05-19T10:02:36Z</time>
      </trkpt>
      <trkpt lat="44.022731026634574" lon="7.874612035229802">
        <ele>511.07999999999998</ele>
        <time>2025-05-19T10:02:37Z</time>
      </trkpt>
      <trkpt lat="44.022825993597507" lon="7.87456501275301">
        <ele>511.07999999999998</ele>
        <time>2025-05-19T10:02:38Z</time>
      </trkpt>
      <trkpt lat="44.022934958338737" lon="7.874510027468205">
        <ele>510.60000000000002</ele>
        <time>2025-05-19T10:02:39Z</time>
      </trkpt>
      <trkpt lat="44.023051969707012" lon="7.874452024698257">
        <ele>510.60000000000002</ele>
        <time>2025-05-19T10:02:40Z</time>
      </trkpt>
      <trkpt lat="44.023162024095654" lon="7.874397039413452">
        <ele>510.60000000000002</ele>
        <time>2025-05-19T10:02:41Z</time>
      </trkpt>
      <trkpt lat="44.023597966879606" lon="7.87424499168992">
        <ele>508.67000000000002</ele>
        <time>2025-05-19T10:02:45Z</time>
      </trkpt>
      <trkpt lat="44.023697962984443" lon="7.874236023053527">
        <ele>508.19</ele>
        <time>2025-05-19T10:02:46Z</time>
      </trkpt>
      <trkpt lat="44.024586025625467" lon="7.874578004702926">
        <ele>503.87</ele>
        <time>2025-05-19T10:02:54Z</time>
      </trkpt>
      <trkpt lat="44.024703959003091" lon="7.874593008309603">
        <ele>502.91000000000003</ele>
        <time>2025-05-19T10:02:55Z</time>
      </trkpt>
      <trkpt lat="44.024814013391733" lon="7.874596025794745">
        <ele>502.43000000000001</ele>
        <time>2025-05-19T10:02:56Z</time>
      </trkpt>
      <trkpt lat="44.024942005053163" lon="7.874580016359687">
        <ele>501.45999999999998</ele>
        <time>2025-05-19T10:02:57Z</time>
      </trkpt>
      <trkpt lat="44.025019034743309" lon="7.874541040509939">
        <ele>500.98000000000002</ele>
        <time>2025-05-19T10:02:58Z</time>
      </trkpt>
      <trkpt lat="44.025110984221101" lon="7.874464010819793">
        <ele>500.01999999999998</ele>
        <time>2025-05-19T10:02:59Z</time>
      </trkpt>
      <trkpt lat="44.025182984769344" lon="7.874371977522969">
        <ele>499.06</ele>
        <time>2025-05-19T10:03:00Z</time>
      </trkpt>
      <trkpt lat="44.025266971439123" lon="7.874247003346682">
        <ele>498.10000000000002</ele>
        <time>2025-05-19T10:03:01Z</time>
      </trkpt>
      <trkpt lat="44.025513986125588" lon="7.873847018927336">
        <ele>495.22000000000003</ele>
        <time>2025-05-19T10:03:04Z</time>
      </trkpt>
      <trkpt lat="44.025565031915903" lon="7.873764038085938">
        <ele>494.25999999999999</ele>
        <time>2025-05-19T10:03:05Z</time>
      </trkpt>
      <trkpt lat="44.025637032464147" lon="7.873774012550712">
        <ele>493.29000000000002</ele>
        <time>2025-05-19T10:03:06Z</time>
      </trkpt>
      <trkpt lat="44.025714984163642" lon="7.873785998672247">
        <ele>492.81</ele>
        <time>2025-05-19T10:03:07Z</time>
      </trkpt>
      <trkpt lat="44.025755971670151" lon="7.873867973685265">
        <ele>491.85000000000002</ele>
        <time>2025-05-19T10:03:08Z</time>
      </trkpt>
      <trkpt lat="44.025800982490182" lon="7.873956989496946">
        <ele>490.88999999999999</ele>
        <time>2025-05-19T10:03:09Z</time>
      </trkpt>
      <trkpt lat="44.025800982490182" lon="7.873956989496946">
        <ele>489.93000000000001</ele>
        <time>2025-05-19T10:03:10Z</time>
      </trkpt>
      <trkpt lat="44.025744991376996" lon="7.874213978648186">
        <ele>488.97000000000003</ele>
        <time>2025-05-19T10:03:11Z</time>
      </trkpt>
      <trkpt lat="44.0257119666785" lon="7.874360997229815">
        <ele>487.52999999999997</ele>
        <time>2025-05-19T10:03:12Z</time>
      </trkpt>
      <trkpt lat="44.025678019970655" lon="7.874517990276218">
        <ele>486.56</ele>
        <time>2025-05-19T10:03:13Z</time>
      </trkpt>
      <trkpt lat="44.025649018585682" lon="7.874646987766028">
        <ele>485.12</ele>
        <time>2025-05-19T10:03:14Z</time>
      </trkpt>
      <trkpt lat="44.025565031915903" lon="7.87482300773263">
        <ele>483.19999999999999</ele>
        <time>2025-05-19T10:03:15Z</time>
      </trkpt>
      <trkpt lat="44.025400998070836" lon="7.875163983553648">
        <ele>480.31999999999999</ele>
        <time>2025-05-19T10:03:17Z</time>
      </trkpt>
      <trkpt lat="44.025322962552309" lon="7.875344026833773">
        <ele>478.87</ele>
        <time>2025-05-19T10:03:18Z</time>
      </trkpt>
      <trkpt lat="44.025250039994717" lon="7.875513006001711">
        <ele>477.91000000000003</ele>
        <time>2025-05-19T10:03:19Z</time>
      </trkpt>
      <trkpt lat="44.025178039446473" lon="7.875656001269817">
        <ele>476.47000000000003</ele>
        <time>2025-05-19T10:03:20Z</time>
      </trkpt>
      <trkpt lat="44.025074020028114" lon="7.875773012638092">
        <ele>475.02999999999997</ele>
        <time>2025-05-19T10:03:21Z</time>
      </trkpt>
      <trkpt lat="44.02498098090291" lon="7.875878037884831">
        <ele>473.11000000000001</ele>
        <time>2025-05-19T10:03:22Z</time>
      </trkpt>
      <trkpt lat="44.024818036705256" lon="7.876063026487827">
        <ele>470.69999999999999</ele>
        <time>2025-05-19T10:03:24Z</time>
      </trkpt>
      <trkpt lat="44.024705970659852" lon="7.876189006492496">
        <ele>469.74000000000001</ele>
        <time>2025-05-19T10:03:25Z</time>
      </trkpt>
      <trkpt lat="44.024688033387065" lon="7.876312974840403">
        <ele>468.30000000000001</ele>
        <time>2025-05-19T10:03:26Z</time>
      </trkpt>
      <trkpt lat="44.024663977324963" lon="7.876470973715186">
        <ele>466.86000000000001</ele>
        <time>2025-05-19T10:03:27Z</time>
      </trkpt>
      <trkpt lat="44.024638999253511" lon="7.876640036702156">
        <ele>465.89999999999998</ele>
        <time>2025-05-19T10:03:28Z</time>
      </trkpt>
      <trkpt lat="44.024533974006772" lon="7.877196008339524">
        <ele>462.05000000000001</ele>
        <time>2025-05-19T10:03:31Z</time>
      </trkpt>
      <trkpt lat="44.024379998445511" lon="7.877718033269048">
        <ele>458.69</ele>
        <time>2025-05-19T10:03:34Z</time>
      </trkpt>
      <trkpt lat="44.024170031771064" lon="7.878249026834965">
        <ele>455.31999999999999</ele>
        <time>2025-05-19T10:03:37Z</time>
      </trkpt>
      <trkpt lat="44.024026030674577" lon="7.879088977351785">
        <ele>449.55000000000001</ele>
        <time>2025-05-19T10:03:42Z</time>
      </trkpt>
      <trkpt lat="44.024026030674577" lon="7.879256028681994">
        <ele>449.06999999999999</ele>
        <time>2025-05-19T10:03:43Z</time>
      </trkpt>
      <trkpt lat="44.024041034281254" lon="7.879535984247923">
        <ele>448.58999999999997</ele>
        <time>2025-05-19T10:03:44Z</time>
      </trkpt>
      <trkpt lat="44.024083027616143" lon="7.879626005887985">
        <ele>448.58999999999997</ele>
        <time>2025-05-19T10:03:45Z</time>
      </trkpt>
      <trkpt lat="44.024156033992767" lon="7.879781993106008">
        <ele>449.55000000000001</ele>
        <time>2025-05-19T10:03:46Z</time>
      </trkpt>
      <trkpt lat="44.024458033964038" lon="7.880429998040199">
        <ele>450.02999999999997</ele>
        <time>2025-05-19T10:03:50Z</time>
      </trkpt>
      <trkpt lat="44.024551995098591" lon="7.880534017458558">
        <ele>449.55000000000001</ele>
        <time>2025-05-19T10:03:51Z</time>
      </trkpt>
      <trkpt lat="44.024655008688569" lon="7.880590008571744">
        <ele>449.06999999999999</ele>
        <time>2025-05-19T10:03:52Z</time>
      </trkpt>
      <trkpt lat="44.024777971208096" lon="7.880653040483594">
        <ele>448.58999999999997</ele>
        <time>2025-05-19T10:03:53Z</time>
      </trkpt>
      <trkpt lat="44.024908980354667" lon="7.880677012726665">
        <ele>448.11000000000001</ele>
        <time>2025-05-19T10:03:54Z</time>
      </trkpt>
      <trkpt lat="44.025053987279534" lon="7.880701990798116">
        <ele>447.63</ele>
        <time>2025-05-19T10:03:55Z</time>
      </trkpt>
      <trkpt lat="44.025218021124601" lon="7.88073199801147">
        <ele>447.14999999999998</ele>
        <time>2025-05-19T10:03:56Z</time>
      </trkpt>
      <trkpt lat="44.025649018585682" lon="7.880808021873236">
        <ele>445.23000000000002</ele>
        <time>2025-05-19T10:03:59Z</time>
      </trkpt>
      <trkpt lat="44.025745997205377" lon="7.880834005773068">
        <ele>444.26999999999998</ele>
        <time>2025-05-19T10:04:00Z</time>
      </trkpt>
      <trkpt lat="44.025841969996691" lon="7.880940958857536">
        <ele>444.26999999999998</ele>
        <time>2025-05-19T10:04:01Z</time>
      </trkpt>
      <trkpt lat="44.025928974151611" lon="7.881038021296263">
        <ele>443.79000000000002</ele>
        <time>2025-05-19T10:04:02Z</time>
      </trkpt>
      <trkpt lat="44.025965016335249" lon="7.88118202239275">
        <ele>443.79000000000002</ele>
        <time>2025-05-19T10:04:03Z</time>
      </trkpt>
      <trkpt lat="44.025998041033745" lon="7.881345972418785">
        <ele>443.31</ele>
        <time>2025-05-19T10:04:04Z</time>
      </trkpt>
      <trkpt lat="44.02601296082139" lon="7.881536995992065">
        <ele>443.31</ele>
        <time>2025-05-19T10:04:05Z</time>
      </trkpt>
      <trkpt lat="44.026029976084828" lon="7.881740005686879">
        <ele>442.81999999999999</ele>
        <time>2025-05-19T10:04:06Z</time>
      </trkpt>
      <trkpt lat="44.026156961917877" lon="7.883538007736206">
        <ele>437.54000000000002</ele>
        <time>2025-05-19T10:04:14Z</time>
      </trkpt>
      <trkpt lat="44.026136007159948" lon="7.883944027125835">
        <ele>435.13</ele>
        <time>2025-05-19T10:04:16Z</time>
      </trkpt>
      <trkpt lat="44.02609602548182" lon="7.884133039042354">
        <ele>433.69</ele>
        <time>2025-05-19T10:04:17Z</time>
      </trkpt>
      <trkpt lat="44.026056965813041" lon="7.884312998503447">
        <ele>432.25</ele>
        <time>2025-05-19T10:04:18Z</time>
      </trkpt>
      <trkpt lat="44.0260090213269" lon="7.884483989328146">
        <ele>430.81</ele>
        <time>2025-05-19T10:04:19Z</time>
      </trkpt>
      <trkpt lat="44.025954036042094" lon="7.884635031223297">
        <ele>429.37</ele>
        <time>2025-05-19T10:04:20Z</time>
      </trkpt>
      <trkpt lat="44.025905001908541" lon="7.884768974035978">
        <ele>427.92000000000002</ele>
        <time>2025-05-19T10:04:21Z</time>
      </trkpt>
      <trkpt lat="44.025868959724903" lon="7.884895037859678">
        <ele>426.95999999999998</ele>
        <time>2025-05-19T10:04:22Z</time>
      </trkpt>
      <trkpt lat="44.025908019393682" lon="7.885051025077701">
        <ele>425.51999999999998</ele>
        <time>2025-05-19T10:04:23Z</time>
      </trkpt>
      <trkpt lat="44.025959987193346" lon="7.885123025625944">
        <ele>424.07999999999998</ele>
        <time>2025-05-19T10:04:24Z</time>
      </trkpt>
      <trkpt lat="44.02603198774159" lon="7.885221010074019">
        <ele>423.12</ele>
        <time>2025-05-19T10:04:25Z</time>
      </trkpt>
      <trkpt lat="44.026085967198014" lon="7.885324023663998">
        <ele>422.16000000000003</ele>
        <time>2025-05-19T10:04:26Z</time>
      </trkpt>
      <trkpt lat="44.026099964976311" lon="7.885423013940454">
        <ele>420.70999999999998</ele>
        <time>2025-05-19T10:04:27Z</time>
      </trkpt>
      <trkpt lat="44.026078004390001" lon="7.885568020865321">
        <ele>419.26999999999998</ele>
        <time>2025-05-19T10:04:28Z</time>
      </trkpt>
      <trkpt lat="44.026007009670138" lon="7.885653013363481">
        <ele>418.31</ele>
        <time>2025-05-19T10:04:29Z</time>
      </trkpt>
      <trkpt lat="44.025920005515218" lon="7.88575803861022">
        <ele>417.35000000000002</ele>
        <time>2025-05-19T10:04:30Z</time>
      </trkpt>
      <trkpt lat="44.025844987481833" lon="7.885872032493353">
        <ele>416.38999999999999</ele>
        <time>2025-05-19T10:04:31Z</time>
      </trkpt>
      <trkpt lat="44.025781033560634" lon="7.886028019711375">
        <ele>414.94999999999999</ele>
        <time>2025-05-19T10:04:32Z</time>
      </trkpt>
      <trkpt lat="44.025714984163642" lon="7.88618803024292">
        <ele>414.47000000000003</ele>
        <time>2025-05-19T10:04:33Z</time>
      </trkpt>
      <trkpt lat="44.025714984163642" lon="7.886334965005517">
        <ele>413.5</ele>
        <time>2025-05-19T10:04:34Z</time>
      </trkpt>
      <trkpt lat="44.025737028568983" lon="7.886522971093655">
        <ele>412.54000000000002</ele>
        <time>2025-05-19T10:04:35Z</time>
      </trkpt>
      <trkpt lat="44.025779021903872" lon="7.886717012152076">
        <ele>411.57999999999998</ele>
        <time>2025-05-19T10:04:36Z</time>
      </trkpt>
      <trkpt lat="44.02596702799201" lon="7.887858962640166">
        <ele>406.76999999999998</ele>
        <time>2025-05-19T10:04:42Z</time>
      </trkpt>
      <trkpt lat="44.025974990800023" lon="7.888045040890575">
        <ele>406.29000000000002</ele>
        <time>2025-05-19T10:04:43Z</time>
      </trkpt>
      <trkpt lat="44.025983037427068" lon="7.888238998129964">
        <ele>405.32999999999998</ele>
        <time>2025-05-19T10:04:44Z</time>
      </trkpt>
      <trkpt lat="44.026017989963293" lon="7.888579973950982">
        <ele>404.37</ele>
        <time>2025-05-19T10:04:46Z</time>
      </trkpt>
      <trkpt lat="44.02605595998466" lon="7.888733027502894">
        <ele>403.41000000000003</ele>
        <time>2025-05-19T10:04:47Z</time>
      </trkpt>
      <trkpt lat="44.026116980239749" lon="7.888893960043788">
        <ele>402.93000000000001</ele>
        <time>2025-05-19T10:04:48Z</time>
      </trkpt>
      <trkpt lat="44.026275984942913" lon="7.889182968065143">
        <ele>401.97000000000003</ele>
        <time>2025-05-19T10:04:50Z</time>
      </trkpt>
      <trkpt lat="44.026318984106183" lon="7.889356976374984">
        <ele>401.00999999999999</ele>
        <time>2025-05-19T10:04:51Z</time>
      </trkpt>
      <trkpt lat="44.026344968006015" lon="7.889545988291502">
        <ele>400.52999999999997</ele>
        <time>2025-05-19T10:04:52Z</time>
      </trkpt>
      <trkpt lat="44.026402970775962" lon="7.890355009585619">
        <ele>397.16000000000003</ele>
        <time>2025-05-19T10:04:56Z</time>
      </trkpt>
      <trkpt lat="44.026552001014352" lon="7.890983987599611">
        <ele>394.75999999999999</ele>
        <time>2025-05-19T10:04:59Z</time>
      </trkpt>
      <trkpt lat="44.026558035984635" lon="7.891200995072722">
        <ele>393.31999999999999</ele>
        <time>2025-05-19T10:05:00Z</time>
      </trkpt>
      <trkpt lat="44.026563987135887" lon="7.891402998939157">
        <ele>391.87</ele>
        <time>2025-05-19T10:05:01Z</time>
      </trkpt>
      <trkpt lat="44.026584019884467" lon="7.891739029437304">
        <ele>389.47000000000003</ele>
        <time>2025-05-19T10:05:03Z</time>
      </trkpt>
      <trkpt lat="44.026658032089472" lon="7.891841037198901">
        <ele>388.02999999999997</ele>
        <time>2025-05-19T10:05:04Z</time>
      </trkpt>
      <trkpt lat="44.026745036244392" lon="7.891959976404905">
        <ele>386.58999999999997</ele>
        <time>2025-05-19T10:05:05Z</time>
      </trkpt>
      <trkpt lat="44.027269994840026" lon="7.89246398024261">
        <ele>381.77999999999997</ele>
        <time>2025-05-19T10:05:10Z</time>
      </trkpt>
      <trkpt lat="44.027346018701792" lon="7.892604041844606">
        <ele>380.81999999999999</ele>
        <time>2025-05-19T10:05:11Z</time>
      </trkpt>
      <trkpt lat="44.027380971238017" lon="7.892731027677655">
        <ele>380.33999999999997</ele>
        <time>2025-05-19T10:05:12Z</time>
      </trkpt>
      <trkpt lat="44.027424976229668" lon="7.892888020724058">
        <ele>379.38</ele>
        <time>2025-05-19T10:05:13Z</time>
      </trkpt>
      <trkpt lat="44.027450960129499" lon="7.893024981021881">
        <ele>378.42000000000002</ele>
        <time>2025-05-19T10:05:14Z</time>
      </trkpt>
      <trkpt lat="44.027444003149867" lon="7.893187003210187">
        <ele>377.94</ele>
        <time>2025-05-19T10:05:15Z</time>
      </trkpt>
      <trkpt lat="44.027435034513474" lon="7.893376015126705">
        <ele>376.49000000000001</ele>
        <time>2025-05-19T10:05:16Z</time>
      </trkpt>
      <trkpt lat="44.027441991493106" lon="7.893597967922688">
        <ele>375.52999999999997</ele>
        <time>2025-05-19T10:05:17Z</time>
      </trkpt>
      <trkpt lat="44.027473004534841" lon="7.894047992303968">
        <ele>373.61000000000001</ele>
        <time>2025-05-19T10:05:19Z</time>
      </trkpt>
      <trkpt lat="44.027475016191602" lon="7.894474966451526">
        <ele>370.73000000000002</ele>
        <time>2025-05-19T10:05:21Z</time>
      </trkpt>
      <trkpt lat="44.027432017028332" lon="7.894662972539663">
        <ele>369.75999999999999</ele>
        <time>2025-05-19T10:05:22Z</time>
      </trkpt>
      <trkpt lat="44.027392035350204" lon="7.894837986677885">
        <ele>368.31999999999999</ele>
        <time>2025-05-19T10:05:23Z</time>
      </trkpt>
      <trkpt lat="44.027353981509805" lon="7.895005038008094">
        <ele>367.36000000000001</ele>
        <time>2025-05-19T10:05:24Z</time>
      </trkpt>
      <trkpt lat="44.02732003480196" lon="7.895174017176032">
        <ele>365.92000000000002</ele>
        <time>2025-05-19T10:05:25Z</time>
      </trkpt>
      <trkpt lat="44.02730000205338" lon="7.89536202326417">
        <ele>364.95999999999998</ele>
        <time>2025-05-19T10:05:26Z</time>
      </trkpt>
      <trkpt lat="44.0272799693048" lon="7.895553968846798">
        <ele>363.51999999999998</ele>
        <time>2025-05-19T10:05:27Z</time>
      </trkpt>
      <trkpt lat="44.027261026203632" lon="7.895741974934936">
        <ele>362.55000000000001</ele>
        <time>2025-05-19T10:05:28Z</time>
      </trkpt>
      <trkpt lat="44.027241999283433" lon="7.895914977416396">
        <ele>361.58999999999997</ele>
        <time>2025-05-19T10:05:29Z</time>
      </trkpt>
      <trkpt lat="44.027255997061729" lon="7.896083034574986">
        <ele>360.63</ele>
        <time>2025-05-19T10:05:30Z</time>
      </trkpt>
      <trkpt lat="44.027276029810309" lon="7.896231980994344">
        <ele>359.67000000000002</ele>
        <time>2025-05-19T10:05:31Z</time>
      </trkpt>
      <trkpt lat="44.027349036186934" lon="7.896355027332902">
        <ele>358.70999999999998</ele>
        <time>2025-05-19T10:05:32Z</time>
      </trkpt>
      <trkpt lat="44.027424976229668" lon="7.896415963768959">
        <ele>358.70999999999998</ele>
        <time>2025-05-19T10:05:33Z</time>
      </trkpt>
      <trkpt lat="44.027498988434672" lon="7.896445970982313">
        <ele>359.67000000000002</ele>
        <time>2025-05-19T10:05:34Z</time>
      </trkpt>
      <trkpt lat="44.02758096344769" lon="7.896478995680809">
        <ele>360.14999999999998</ele>
        <time>2025-05-19T10:05:35Z</time>
      </trkpt>
      <trkpt lat="44.027663022279739" lon="7.896511014550924">
        <ele>361.11000000000001</ele>
        <time>2025-05-19T10:05:36Z</time>
      </trkpt>
      <trkpt lat="44.0277099609375" lon="7.896530963480473">
        <ele>362.06999999999999</ele>
        <time>2025-05-19T10:05:37Z</time>
      </trkpt>
      <trkpt lat="44.027715995907784" lon="7.896643029525876">
        <ele>362.06999999999999</ele>
        <time>2025-05-19T10:05:38Z</time>
      </trkpt>
      <trkpt lat="44.027723036706448" lon="7.896787030622363">
        <ele>362.55000000000001</ele>
        <time>2025-05-19T10:05:39Z</time>
      </trkpt>
      <trkpt lat="44.027761006727815" lon="7.897052988409996">
        <ele>362.55000000000001</ele>
        <time>2025-05-19T10:05:41Z</time>
      </trkpt>
      <trkpt lat="44.027805011719465" lon="7.897159019485116">
        <ele>363.04000000000002</ele>
        <time>2025-05-19T10:05:42Z</time>
      </trkpt>
      <trkpt lat="44.027847005054355" lon="7.897261027246714">
        <ele>363.04000000000002</ele>
        <time>2025-05-19T10:05:43Z</time>
      </trkpt>
      <trkpt lat="44.027880029752851" lon="7.897370997816324">
        <ele>362.55000000000001</ele>
        <time>2025-05-19T10:05:44Z</time>
      </trkpt>
      <trkpt lat="44.027868965640664" lon="7.897501001134515">
        <ele>362.55000000000001</ele>
        <time>2025-05-19T10:05:45Z</time>
      </trkpt>
      <trkpt lat="44.027856979519129" lon="7.897651037201285">
        <ele>362.55000000000001</ele>
        <time>2025-05-19T10:05:46Z</time>
      </trkpt>
      <trkpt lat="44.027842981740832" lon="7.897818004712462">
        <ele>362.55000000000001</ele>
        <time>2025-05-19T10:05:47Z</time>
      </trkpt>
      <trkpt lat="44.027787996456027" lon="7.898204997181892">
        <ele>362.06999999999999</ele>
        <time>2025-05-19T10:05:49Z</time>
      </trkpt>
      <trkpt lat="44.027594039216638" lon="7.898853002116084">
        <ele>361.11000000000001</ele>
        <time>2025-05-19T10:05:53Z</time>
      </trkpt>
      <trkpt lat="44.027560008689761" lon="7.899041008204222">
        <ele>361.11000000000001</ele>
        <time>2025-05-19T10:05:54Z</time>
      </trkpt>
      <trkpt lat="44.027565959841013" lon="7.899204036220908">
        <ele>360.63</ele>
        <time>2025-05-19T10:05:55Z</time>
      </trkpt>
      <trkpt lat="44.027622034773231" lon="7.899727988988161">
        <ele>359.19</ele>
        <time>2025-05-19T10:05:58Z</time>
      </trkpt>
      <trkpt lat="44.027684982866049" lon="7.899828990921378">
        <ele>358.70999999999998</ele>
        <time>2025-05-19T10:05:59Z</time>
      </trkpt>
      <trkpt lat="44.027777016162872" lon="7.899915995076299">
        <ele>358.23000000000002</ele>
        <time>2025-05-19T10:06:00Z</time>
      </trkpt>
      <trkpt lat="44.028093013912439" lon="7.900250013917685">
        <ele>356.31</ele>
        <time>2025-05-19T10:06:03Z</time>
      </trkpt>
      <trkpt lat="44.028187980875373" lon="7.900398038327694">
        <ele>355.33999999999997</ele>
        <time>2025-05-19T10:06:04Z</time>
      </trkpt>
      <trkpt lat="44.028278002515435" lon="7.900561988353729">
        <ele>354.38</ele>
        <time>2025-05-19T10:06:05Z</time>
      </trkpt>
      <trkpt lat="44.028319995850325" lon="7.900743037462235">
        <ele>353.89999999999998</ele>
        <time>2025-05-19T10:06:06Z</time>
      </trkpt>
      <trkpt lat="44.028360983356833" lon="7.900920985266566">
        <ele>352.94</ele>
        <time>2025-05-19T10:06:07Z</time>
      </trkpt>
      <trkpt lat="44.028399959206581" lon="7.901090970262885">
        <ele>352.45999999999998</ele>
        <time>2025-05-19T10:06:08Z</time>
      </trkpt>
      <trkpt lat="44.02854697778821" lon="7.901722965762019">
        <ele>349.57999999999998</ele>
        <time>2025-05-19T10:06:12Z</time>
      </trkpt>
      <trkpt lat="44.028530968353152" lon="7.901927987113595">
        <ele>348.62</ele>
        <time>2025-05-19T10:06:13Z</time>
      </trkpt>
      <trkpt lat="44.028516970574856" lon="7.902096966281533">
        <ele>348.13</ele>
        <time>2025-05-19T10:06:14Z</time>
      </trkpt>
      <trkpt lat="44.02852401137352" lon="7.902427967637777">
        <ele>347.17000000000002</ele>
        <time>2025-05-19T10:06:16Z</time>
      </trkpt>
      <trkpt lat="44.028542032465339" lon="7.90258496068418">
        <ele>346.69</ele>
        <time>2025-05-19T10:06:17Z</time>
      </trkpt>
      <trkpt lat="44.028558963909745" lon="7.90273399092257">
        <ele>346.20999999999998</ele>
        <time>2025-05-19T10:06:18Z</time>
      </trkpt>
      <trkpt lat="44.028574973344803" lon="7.902873968705535">
        <ele>345.73000000000002</ele>
        <time>2025-05-19T10:06:19Z</time>
      </trkpt>
      <trkpt lat="44.028588971123099" lon="7.903003972023726">
        <ele>345.25</ele>
        <time>2025-05-19T10:06:20Z</time>
      </trkpt>
      <trkpt lat="44.028542032465339" lon="7.9031400103122">
        <ele>344.76999999999998</ele>
        <time>2025-05-19T10:06:21Z</time>
      </trkpt>
      <trkpt lat="44.028484029695392" lon="7.903237994760275">
        <ele>344.29000000000002</ele>
        <time>2025-05-19T10:06:22Z</time>
      </trkpt>
      <trkpt lat="44.028416974470019" lon="7.903328016400337">
        <ele>344.29000000000002</ele>
        <time>2025-05-19T10:06:23Z</time>
      </trkpt>
      <trkpt lat="44.028347991406918" lon="7.903418960049748">
        <ele>343.81</ele>
        <time>2025-05-19T10:06:24Z</time>
      </trkpt>
      <trkpt lat="44.028284037485719" lon="7.903504958376288">
        <ele>343.81</ele>
        <time>2025-05-19T10:06:25Z</time>
      </trkpt>
      <trkpt lat="44.028250006958842" lon="7.903605960309506">
        <ele>343.32999999999998</ele>
        <time>2025-05-19T10:06:26Z</time>
      </trkpt>
      <trkpt lat="44.028218993917108" lon="7.903735041618347">
        <ele>342.85000000000002</ele>
        <time>2025-05-19T10:06:27Z</time>
      </trkpt>
      <trkpt lat="44.028186975046992" lon="7.903869990259409">
        <ele>342.85000000000002</ele>
        <time>2025-05-19T10:06:28Z</time>
      </trkpt>
      <trkpt lat="44.028199966996908" lon="7.903982978314161">
        <ele>342.37</ele>
        <time>2025-05-19T10:06:29Z</time>
      </trkpt>
      <trkpt lat="44.028227962553501" lon="7.904123039916158">
        <ele>341.88999999999999</ele>
        <time>2025-05-19T10:06:30Z</time>
      </trkpt>
      <trkpt lat="44.028256963938475" lon="7.904273997992277">
        <ele>341.41000000000003</ele>
        <time>2025-05-19T10:06:31Z</time>
      </trkpt>
      <trkpt lat="44.028287976980209" lon="7.904435014352202">
        <ele>340.92000000000002</ele>
        <time>2025-05-19T10:06:32Z</time>
      </trkpt>
      <trkpt lat="44.028332987800241" lon="7.904779007658362">
        <ele>339.48000000000002</ele>
        <time>2025-05-19T10:06:34Z</time>
      </trkpt>
      <trkpt lat="44.028332987800241" lon="7.904943041503429">
        <ele>339.48000000000002</ele>
        <time>2025-05-19T10:06:35Z</time>
      </trkpt>
      <trkpt lat="44.028324019163847" lon="7.905105985701084">
        <ele>339.48000000000002</ele>
        <time>2025-05-19T10:06:36Z</time>
      </trkpt>
      <trkpt lat="44.028285965323448" lon="7.905249986797571">
        <ele>339</ele>
        <time>2025-05-19T10:06:37Z</time>
      </trkpt>
      <trkpt lat="44.028249001130462" lon="7.905388958752155">
        <ele>338.51999999999998</ele>
        <time>2025-05-19T10:06:38Z</time>
      </trkpt>
      <trkpt lat="44.02820298448205" lon="7.905694982036948">
        <ele>338.04000000000002</ele>
        <time>2025-05-19T10:06:40Z</time>
      </trkpt>
      <trkpt lat="44.027921017259359" lon="7.90720397606492">
        <ele>336.12</ele>
        <time>2025-05-19T10:06:49Z</time>
      </trkpt>
      <trkpt lat="44.027777016162872" lon="7.907519973814488">
        <ele>334.68000000000001</ele>
        <time>2025-05-19T10:06:51Z</time>
      </trkpt>
      <trkpt lat="44.027706021443009" lon="7.90767696686089">
        <ele>334.19999999999999</ele>
        <time>2025-05-19T10:06:52Z</time>
      </trkpt>
      <trkpt lat="44.027588004246354" lon="7.908003022894263">
        <ele>333.23000000000002</ele>
        <time>2025-05-19T10:06:54Z</time>
      </trkpt>
      <trkpt lat="44.027534024789929" lon="7.908172002062202">
        <ele>332.75</ele>
        <time>2025-05-19T10:06:55Z</time>
      </trkpt>
      <trkpt lat="44.027495970949531" lon="7.908364031463862">
        <ele>331.79000000000002</ele>
        <time>2025-05-19T10:06:56Z</time>
      </trkpt>
      <trkpt lat="44.027323974296451" lon="7.909593991935253">
        <ele>328.43000000000001</ele>
        <time>2025-05-19T10:07:02Z</time>
      </trkpt>
      <trkpt lat="44.027323974296451" lon="7.90978099219501">
        <ele>327.94999999999999</ele>
        <time>2025-05-19T10:07:03Z</time>
      </trkpt>
      <trkpt lat="44.027335038408637" lon="7.909948965534568">
        <ele>327.47000000000003</ele>
        <time>2025-05-19T10:07:04Z</time>
      </trkpt>
      <trkpt lat="44.027362028136849" lon="7.910125991329551">
        <ele>326.99000000000001</ele>
        <time>2025-05-19T10:07:05Z</time>
      </trkpt>
      <trkpt lat="44.027391029521823" lon="7.91031701490283">
        <ele>326.5</ele>
        <time>2025-05-19T10:07:06Z</time>
      </trkpt>
      <trkpt lat="44.027575012296438" lon="7.911529038101435">
        <ele>322.66000000000003</ele>
        <time>2025-05-19T10:07:12Z</time>
      </trkpt>
      <trkpt lat="44.027647012844682" lon="7.911675972864032">
        <ele>321.69999999999999</ele>
        <time>2025-05-19T10:07:13Z</time>
      </trkpt>
      <trkpt lat="44.027737034484744" lon="7.911820979788899">
        <ele>321.22000000000003</ele>
        <time>2025-05-19T10:07:14Z</time>
      </trkpt>
      <trkpt lat="44.027833007276058" lon="7.911974033340812">
        <ele>320.25999999999999</ele>
        <time>2025-05-19T10:07:15Z</time>
      </trkpt>
      <trkpt lat="44.027933003380895" lon="7.912133960053325">
        <ele>319.30000000000001</ele>
        <time>2025-05-19T10:07:16Z</time>
      </trkpt>
      <trkpt lat="44.028187980875373" lon="7.912613991647959">
        <ele>317.85000000000002</ele>
        <time>2025-05-19T10:07:19Z</time>
      </trkpt>
      <trkpt lat="44.028462991118431" lon="7.913385964930058">
        <ele>314.97000000000003</ele>
        <time>2025-05-19T10:07:23Z</time>
      </trkpt>
      <trkpt lat="44.028569022193551" lon="7.913749990984798">
        <ele>313.52999999999997</ele>
        <time>2025-05-19T10:07:25Z</time>
      </trkpt>
      <trkpt lat="44.028620989993215" lon="7.913928022608161">
        <ele>313.05000000000001</ele>
        <time>2025-05-19T10:07:26Z</time>
      </trkpt>
      <trkpt lat="44.02867304161191" lon="7.914106976240873">
        <ele>313.05000000000001</ele>
        <time>2025-05-19T10:07:27Z</time>
      </trkpt>
      <trkpt lat="44.028710005804896" lon="7.914297999814153">
        <ele>312.56999999999999</ele>
        <time>2025-05-19T10:07:28Z</time>
      </trkpt>
      <trkpt lat="44.028732972219586" lon="7.914494974538684">
        <ele>312.56999999999999</ele>
        <time>2025-05-19T10:07:29Z</time>
      </trkpt>
      <trkpt lat="44.028754010796547" lon="7.914681974798441">
        <ele>312.08999999999997</ele>
        <time>2025-05-19T10:07:30Z</time>
      </trkpt>
      <trkpt lat="44.028743030503392" lon="7.914860006421804">
        <ele>311.60000000000002</ele>
        <time>2025-05-19T10:07:31Z</time>
      </trkpt>
      <trkpt lat="44.028708999976516" lon="7.915037032216787">
        <ele>311.60000000000002</ele>
        <time>2025-05-19T10:07:32Z</time>
      </trkpt>
      <trkpt lat="44.028647979721427" lon="7.915220009163022">
        <ele>311.12</ele>
        <time>2025-05-19T10:07:33Z</time>
      </trkpt>
      <trkpt lat="44.028483023867011" lon="7.915714038535953">
        <ele>309.19999999999999</ele>
        <time>2025-05-19T10:07:36Z</time>
      </trkpt>
      <trkpt lat="44.028499033302069" lon="7.915896009653807">
        <ele>308.72000000000003</ele>
        <time>2025-05-19T10:07:37Z</time>
      </trkpt>
      <trkpt lat="44.028513031080365" lon="7.916056020185351">
        <ele>308.24000000000001</ele>
        <time>2025-05-19T10:07:38Z</time>
      </trkpt>
      <trkpt lat="44.028526023030281" lon="7.916206978261471">
        <ele>308.24000000000001</ele>
        <time>2025-05-19T10:07:39Z</time>
      </trkpt>
      <trkpt lat="44.028602968901396" lon="7.916295994073153">
        <ele>307.75999999999999</ele>
        <time>2025-05-19T10:07:40Z</time>
      </trkpt>
      <trkpt lat="44.02867304161191" lon="7.91637503542006">
        <ele>307.75999999999999</ele>
        <time>2025-05-19T10:07:41Z</time>
      </trkpt>
      <trkpt lat="44.028735989704728" lon="7.916378974914551">
        <ele>307.27999999999997</ele>
        <time>2025-05-19T10:07:42Z</time>
      </trkpt>
      <trkpt lat="44.02882601134479" lon="7.916378974914551">
        <ele>306.80000000000001</ele>
        <time>2025-05-19T10:07:43Z</time>
      </trkpt>
      <trkpt lat="44.028906980529428" lon="7.916329018771648">
        <ele>306.80000000000001</ele>
        <time>2025-05-19T10:07:44Z</time>
      </trkpt>
      <trkpt lat="44.029009994119406" lon="7.916260035708547">
        <ele>306.80000000000001</ele>
        <time>2025-05-19T10:07:45Z</time>
      </trkpt>
      <trkpt lat="44.029120970517397" lon="7.916154004633427">
        <ele>306.31999999999999</ele>
        <time>2025-05-19T10:07:46Z</time>
      </trkpt>
      <trkpt lat="44.029237981885672" lon="7.916040010750294">
        <ele>306.31999999999999</ele>
        <time>2025-05-19T10:07:47Z</time>
      </trkpt>
      <trkpt lat="44.029363039880991" lon="7.915919981896877">
        <ele>305.83999999999997</ele>
        <time>2025-05-19T10:07:48Z</time>
      </trkpt>
      <trkpt lat="44.029617011547089" lon="7.91568897664547">
        <ele>304.88</ele>
        <time>2025-05-19T10:07:50Z</time>
      </trkpt>
      <trkpt lat="44.029752966016531" lon="7.915661986917257">
        <ele>304.38999999999999</ele>
        <time>2025-05-19T10:07:51Z</time>
      </trkpt>
      <trkpt lat="44.029896967113018" lon="7.915632985532284">
        <ele>303.91000000000003</ele>
        <time>2025-05-19T10:07:52Z</time>
      </trkpt>
      <trkpt lat="44.03005002066493" lon="7.915612030774355">
        <ele>303.43000000000001</ele>
        <time>2025-05-19T10:07:53Z</time>
      </trkpt>
      <trkpt lat="44.030196033418179" lon="7.915648994967341">
        <ele>302.94999999999999</ele>
        <time>2025-05-19T10:07:54Z</time>
      </trkpt>
      <trkpt lat="44.030338022857904" lon="7.915684031322599">
        <ele>302.47000000000003</ele>
        <time>2025-05-19T10:07:55Z</time>
      </trkpt>
      <trkpt lat="44.030600963160396" lon="7.91583901271224">
        <ele>301.99000000000001</ele>
        <time>2025-05-19T10:07:57Z</time>
      </trkpt>
      <trkpt lat="44.030711017549038" lon="7.91596801020205">
        <ele>301.50999999999999</ele>
        <time>2025-05-19T10:07:58Z</time>
      </trkpt>
      <trkpt lat="44.031031960621476" lon="7.916345028206706">
        <ele>300.55000000000001</ele>
        <time>2025-05-19T10:08:01Z</time>
      </trkpt>
      <trkpt lat="44.031116031110287" lon="7.916501015424728">
        <ele>300.06999999999999</ele>
        <time>2025-05-19T10:08:02Z</time>
      </trkpt>
      <trkpt lat="44.031173028051853" lon="7.916659014299512">
        <ele>299.58999999999997</ele>
        <time>2025-05-19T10:08:03Z</time>
      </trkpt>
      <trkpt lat="44.031232036650181" lon="7.916820030659437">
        <ele>299.11000000000001</ele>
        <time>2025-05-19T10:08:04Z</time>
      </trkpt>
      <trkpt lat="44.031250979751348" lon="7.917022034525871">
        <ele>298.63</ele>
        <time>2025-05-19T10:08:05Z</time>
      </trkpt>
      <trkpt lat="44.031250979751348" lon="7.917222026735544">
        <ele>298.14999999999998</ele>
        <time>2025-05-19T10:08:06Z</time>
      </trkpt>
      <trkpt lat="44.031242011114955" lon="7.917413972318173">
        <ele>297.67000000000002</ele>
        <time>2025-05-19T10:08:07Z</time>
      </trkpt>
      <trkpt lat="44.031232036650181" lon="7.917602984234691">
        <ele>297.18000000000001</ele>
        <time>2025-05-19T10:08:08Z</time>
      </trkpt>
      <trkpt lat="44.031208986416459" lon="7.917795013636351">
        <ele>296.22000000000003</ele>
        <time>2025-05-19T10:08:09Z</time>
      </trkpt>
      <trkpt lat="44.031184008345008" lon="7.917986959218979">
        <ele>295.25999999999999</ele>
        <time>2025-05-19T10:08:10Z</time>
      </trkpt>
      <trkpt lat="44.031090969219804" lon="7.918806038796902">
        <ele>290.45999999999998</ele>
        <time>2025-05-19T10:08:15Z</time>
      </trkpt>
      <trkpt lat="44.031117958948016" lon="7.918916009366512">
        <ele>289.49000000000001</ele>
        <time>2025-05-19T10:08:16Z</time>
      </trkpt>
      <trkpt lat="44.031201023608446" lon="7.918984992429614">
        <ele>289.00999999999999</ele>
        <time>2025-05-19T10:08:17Z</time>
      </trkpt>
      <trkpt lat="44.031315017491579" lon="7.91906101629138">
        <ele>288.52999999999997</ele>
        <time>2025-05-19T10:08:18Z</time>
      </trkpt>
      <trkpt lat="44.03140596114099" lon="7.919113989919424">
        <ele>288.05000000000001</ele>
        <time>2025-05-19T10:08:19Z</time>
      </trkpt>
      <trkpt lat="44.031522972509265" lon="7.919181967154145">
        <ele>287.08999999999997</ele>
        <time>2025-05-19T10:08:20Z</time>
      </trkpt>
      <trkpt lat="44.031722964718938" lon="7.919296966865659">
        <ele>286.13</ele>
        <time>2025-05-19T10:08:22Z</time>
      </trkpt>
      <trkpt lat="44.031836036592722" lon="7.919249022379518">
        <ele>285.64999999999998</ele>
        <time>2025-05-19T10:08:23Z</time>
      </trkpt>
      <trkpt lat="44.03191801160574" lon="7.919213986024261">
        <ele>285.64999999999998</ele>
        <time>2025-05-19T10:08:24Z</time>
      </trkpt>
      <trkpt lat="44.031996969133615" lon="7.919180039316416">
        <ele>285.17000000000002</ele>
        <time>2025-05-19T10:08:25Z</time>
      </trkpt>
      <trkpt lat="44.032077016308904" lon="7.919207029044628">
        <ele>284.69</ele>
        <time>2025-05-19T10:08:26Z</time>
      </trkpt>
      <trkpt lat="44.032147005200386" lon="7.919256985187531">
        <ele>284.69</ele>
        <time>2025-05-19T10:08:27Z</time>
      </trkpt>
      <trkpt lat="44.032184975221753" lon="7.919354969635606">
        <ele>284.69</ele>
        <time>2025-05-19T10:08:28Z</time>
      </trkpt>
      <trkpt lat="44.032206013798714" lon="7.919505005702376">
        <ele>284.20999999999998</ele>
        <time>2025-05-19T10:08:29Z</time>
      </trkpt>
      <trkpt lat="44.032227974385023" lon="7.919666022062302">
        <ele>284.20999999999998</ele>
        <time>2025-05-19T10:08:30Z</time>
      </trkpt>
      <trkpt lat="44.032271979376674" lon="7.919985959306359">
        <ele>283.73000000000002</ele>
        <time>2025-05-19T10:08:32Z</time>
      </trkpt>
      <trkpt lat="44.032395025715232" lon="7.920177988708019">
        <ele>282.76999999999998</ele>
        <time>2025-05-19T10:08:34Z</time>
      </trkpt>
      <trkpt lat="44.032682022079825" lon="7.920534973964095">
        <ele>281.31999999999999</ele>
        <time>2025-05-19T10:08:37Z</time>
      </trkpt>
      <trkpt lat="44.032782018184662" lon="7.920677969232202">
        <ele>280.36000000000001</ele>
        <time>2025-05-19T10:08:38Z</time>
      </trkpt>
      <trkpt lat="44.032882014289498" lon="7.920820964500308">
        <ele>279.88</ele>
        <time>2025-05-19T10:08:39Z</time>
      </trkpt>
      <trkpt lat="44.032948985695839" lon="7.920992961153388">
        <ele>278.92000000000002</ele>
        <time>2025-05-19T10:08:40Z</time>
      </trkpt>
      <trkpt lat="44.033012017607689" lon="7.921153977513313">
        <ele>277.95999999999998</ele>
        <time>2025-05-19T10:08:41Z</time>
      </trkpt>
      <trkpt lat="44.033232964575291" lon="7.921900972723961">
        <ele>272.19</ele>
        <time>2025-05-19T10:08:46Z</time>
      </trkpt>
      <trkpt lat="44.033242017030716" lon="7.922056037932634">
        <ele>270.75</ele>
        <time>2025-05-19T10:08:47Z</time>
      </trkpt>
      <trkpt lat="44.03323195874691" lon="7.922208001837134">
        <ele>269.31</ele>
        <time>2025-05-19T10:08:48Z</time>
      </trkpt>
      <trkpt lat="44.032988967373967" lon="7.923481967300177">
        <ele>261.13999999999999</ele>
        <time>2025-05-19T10:08:55Z</time>
      </trkpt>
      <trkpt lat="44.032933982089162" lon="7.923620017245412">
        <ele>259.69</ele>
        <time>2025-05-19T10:08:56Z</time>
      </trkpt>
      <trkpt lat="44.032813031226397" lon="7.923922017216682">
        <ele>257.76999999999998</ele>
        <time>2025-05-19T10:08:58Z</time>
      </trkpt>
      <trkpt lat="44.032754022628069" lon="7.924070041626692">
        <ele>256.81</ele>
        <time>2025-05-19T10:08:59Z</time>
      </trkpt>
      <trkpt lat="44.032731978222728" lon="7.924240026623011">
        <ele>256.32999999999998</ele>
        <time>2025-05-19T10:09:00Z</time>
      </trkpt>
      <trkpt lat="44.032749999314547" lon="7.924391990527511">
        <ele>255.37</ele>
        <time>2025-05-19T10:09:01Z</time>
      </trkpt>
      <trkpt lat="44.032784029841423" lon="7.924528028815985">
        <ele>254.41</ele>
        <time>2025-05-19T10:09:02Z</time>
      </trkpt>
      <trkpt lat="44.03284203261137" lon="7.92464897967875">
        <ele>253.44</ele>
        <time>2025-05-19T10:09:03Z</time>
      </trkpt>
      <trkpt lat="44.032927025109529" lon="7.924766996875405">
        <ele>252.47999999999999</ele>
        <time>2025-05-19T10:09:04Z</time>
      </trkpt>
      <trkpt lat="44.033038001507521" lon="7.92486104182899">
        <ele>251.52000000000001</ele>
        <time>2025-05-19T10:09:05Z</time>
      </trkpt>
      <trkpt lat="44.033622974529862" lon="7.925297990441322">
        <ele>245.75</ele>
        <time>2025-05-19T10:09:10Z</time>
      </trkpt>
      <trkpt lat="44.033718025311828" lon="7.925318023189902">
        <ele>244.31</ele>
        <time>2025-05-19T10:09:11Z</time>
      </trkpt>
      <trkpt lat="44.033808968961239" lon="7.925278963521123">
        <ele>242.87</ele>
        <time>2025-05-19T10:09:12Z</time>
      </trkpt>
      <trkpt lat="44.033894967287779" lon="7.925192965194583">
        <ele>241.91</ele>
        <time>2025-05-19T10:09:13Z</time>
      </trkpt>
      <trkpt lat="44.033987000584602" lon="7.925074025988579">
        <ele>240.47</ele>
        <time>2025-05-19T10:09:14Z</time>
      </trkpt>
      <trkpt lat="44.034066963940859" lon="7.924926001578569">
        <ele>239.02000000000001</ele>
        <time>2025-05-19T10:09:15Z</time>
      </trkpt>
      <trkpt lat="44.03415497392416" lon="7.924763979390264">
        <ele>237.58000000000001</ele>
        <time>2025-05-19T10:09:16Z</time>
      </trkpt>
      <trkpt lat="44.034595023840666" lon="7.924021007493138">
        <ele>235.18000000000001</ele>
        <time>2025-05-19T10:09:21Z</time>
      </trkpt>
      <trkpt lat="44.03469099663198" lon="7.923925034701824">
        <ele>234.69999999999999</ele>
        <time>2025-05-19T10:09:22Z</time>
      </trkpt>
      <trkpt lat="44.034794010221958" lon="7.923843981698155">
        <ele>234.69999999999999</ele>
        <time>2025-05-19T10:09:23Z</time>
      </trkpt>
      <trkpt lat="44.03492602519691" lon="7.923772986978293">
        <ele>234.22</ele>
        <time>2025-05-19T10:09:24Z</time>
      </trkpt>
      <trkpt lat="44.035070026293397" lon="7.923696041107178">
        <ele>233.74000000000001</ele>
        <time>2025-05-19T10:09:25Z</time>
      </trkpt>
      <trkpt lat="44.035214027389884" lon="7.923675002530217">
        <ele>233.25999999999999</ele>
        <time>2025-05-19T10:09:26Z</time>
      </trkpt>
      <trkpt lat="44.03535702265799" lon="7.923653963953257">
        <ele>232.78</ele>
        <time>2025-05-19T10:09:27Z</time>
      </trkpt>
      <trkpt lat="44.036038974300027" lon="7.923590010032058">
        <ele>229.41</ele>
        <time>2025-05-19T10:09:32Z</time>
      </trkpt>
      <trkpt lat="44.036122038960457" lon="7.923609958961606">
        <ele>228.44999999999999</ele>
        <time>2025-05-19T10:09:33Z</time>
      </trkpt>
      <trkpt lat="44.036209965124726" lon="7.923729987815023">
        <ele>227.97</ele>
        <time>2025-05-19T10:09:34Z</time>
      </trkpt>
      <trkpt lat="44.036290012300014" lon="7.923839958384633">
        <ele>227.00999999999999</ele>
        <time>2025-05-19T10:09:35Z</time>
      </trkpt>
      <trkpt lat="44.036364024505019" lon="7.923954036086798">
        <ele>226.53</ele>
        <time>2025-05-19T10:09:36Z</time>
      </trkpt>
      <trkpt lat="44.036414986476302" lon="7.924122009426355">
        <ele>225.56999999999999</ele>
        <time>2025-05-19T10:09:37Z</time>
      </trkpt>
      <trkpt lat="44.036520011723042" lon="7.9246049746871">
        <ele>224.61000000000001</ele>
        <time>2025-05-19T10:09:40Z</time>
      </trkpt>
      <trkpt lat="44.036549013108015" lon="7.924771020188928">
        <ele>224.61000000000001</ele>
        <time>2025-05-19T10:09:41Z</time>
      </trkpt>
      <trkpt lat="44.03653702698648" lon="7.924945028498769">
        <ele>224.12</ele>
        <time>2025-05-19T10:09:42Z</time>
      </trkpt>
      <trkpt lat="44.036525962874293" lon="7.925111996009946">
        <ele>224.12</ele>
        <time>2025-05-19T10:09:43Z</time>
      </trkpt>
      <trkpt lat="44.036514982581139" lon="7.925277035683394">
        <ele>223.63999999999999</ele>
        <time>2025-05-19T10:09:44Z</time>
      </trkpt>
      <trkpt lat="44.036493021994829" lon="7.92559496127069">
        <ele>222.68000000000001</ele>
        <time>2025-05-19T10:09:46Z</time>
      </trkpt>
      <trkpt lat="44.036482041701674" lon="7.925744997337461">
        <ele>222.19999999999999</ele>
        <time>2025-05-19T10:09:47Z</time>
      </trkpt>
      <trkpt lat="44.036471983417869" lon="7.925886986777186">
        <ele>221.72</ele>
        <time>2025-05-19T10:09:48Z</time>
      </trkpt>
      <trkpt lat="44.036435019224882" lon="7.926215976476669">
        <ele>220.75999999999999</ele>
        <time>2025-05-19T10:09:51Z</time>
      </trkpt>
      <trkpt lat="44.036416998133063" lon="7.926346985623241">
        <ele>220.28</ele>
        <time>2025-05-19T10:09:54Z</time>
      </trkpt>
      <trkpt lat="44.03640802949667" lon="7.926481012254953">
        <ele>220.28</ele>
        <time>2025-05-19T10:09:56Z</time>
      </trkpt>
      <trkpt lat="44.036444993689656" lon="7.926564998924732">
        <ele>220.75999999999999</ele>
        <time>2025-05-19T10:09:57Z</time>
      </trkpt>
      <trkpt lat="44.036485981196165" lon="7.926660971716046">
        <ele>221.24000000000001</ele>
        <time>2025-05-19T10:09:58Z</time>
      </trkpt>
      <trkpt lat="44.036535015329719" lon="7.92677303776145">
        <ele>221.24000000000001</ele>
        <time>2025-05-19T10:09:59Z</time>
      </trkpt>
      <trkpt lat="44.036588994786143" lon="7.926899017766118">
        <ele>222.19999999999999</ele>
        <time>2025-05-19T10:10:00Z</time>
      </trkpt>
      <trkpt lat="44.036648003384471" lon="7.92703396640718">
        <ele>222.68000000000001</ele>
        <time>2025-05-19T10:10:01Z</time>
      </trkpt>
      <trkpt lat="44.036725033074617" lon="7.927159024402499">
        <ele>222.68000000000001</ele>
        <time>2025-05-19T10:10:02Z</time>
      </trkpt>
      <trkpt lat="44.036827040836215" lon="7.927275029942393">
        <ele>223.63999999999999</ele>
        <time>2025-05-19T10:10:03Z</time>
      </trkpt>
      <trkpt lat="44.036931982263923" lon="7.927393969148397">
        <ele>224.61000000000001</ele>
        <time>2025-05-19T10:10:04Z</time>
      </trkpt>
      <trkpt lat="44.0370540227741" lon="7.927518021315336">
        <ele>225.56999999999999</ele>
        <time>2025-05-19T10:10:05Z</time>
      </trkpt>
      <trkpt lat="44.037184026092291" lon="7.927628997713327">
        <ele>226.53</ele>
        <time>2025-05-19T10:10:06Z</time>
      </trkpt>
      <trkpt lat="44.037287961691618" lon="7.927718013525009">
        <ele>227.49000000000001</ele>
        <time>2025-05-19T10:10:07Z</time>
      </trkpt>
      <trkpt lat="44.037372032180429" lon="7.927694963291287">
        <ele>228.44999999999999</ele>
        <time>2025-05-19T10:10:08Z</time>
      </trkpt>
      <trkpt lat="44.037456018850207" lon="7.927652969956398">
        <ele>229.41</ele>
        <time>2025-05-19T10:10:09Z</time>
      </trkpt>
      <trkpt lat="44.037488959729671" lon="7.927597984671593">
        <ele>229.88999999999999</ele>
        <time>2025-05-19T10:10:10Z</time>
      </trkpt>
      <trkpt lat="44.037537993863225" lon="7.927450966089964">
        <ele>229.88999999999999</ele>
        <time>2025-05-19T10:10:11Z</time>
      </trkpt>
      <trkpt lat="44.03754897415638" lon="7.927330015227199">
        <ele>229.88999999999999</ele>
        <time>2025-05-19T10:10:12Z</time>
      </trkpt>
      <trkpt lat="44.037619968876243" lon="7.926505990326405">
        <ele>228.93000000000001</ele>
        <time>2025-05-19T10:10:16Z</time>
      </trkpt>
      <trkpt lat="44.037716025486588" lon="7.926097959280014">
        <ele>227.97</ele>
        <time>2025-05-19T10:10:18Z</time>
      </trkpt>
      <trkpt lat="44.03827702626586" lon="7.924904963001609">
        <ele>225.56999999999999</ele>
        <time>2025-05-19T10:10:26Z</time>
      </trkpt>
      <trkpt lat="44.038346009328961" lon="7.924779988825321">
        <ele>225.56999999999999</ele>
        <time>2025-05-19T10:10:27Z</time>
      </trkpt>
      <trkpt lat="44.038414992392063" lon="7.924665994942188">
        <ele>225.09</ele>
        <time>2025-05-19T10:10:28Z</time>
      </trkpt>
      <trkpt lat="44.038490010425448" lon="7.924554012715817">
        <ele>225.09</ele>
        <time>2025-05-19T10:10:29Z</time>
      </trkpt>
      <trkpt lat="44.038592018187046" lon="7.924483017995954">
        <ele>225.56999999999999</ele>
        <time>2025-05-19T10:10:30Z</time>
      </trkpt>
      <trkpt lat="44.038667036220431" lon="7.924380004405975">
        <ele>225.56999999999999</ele>
        <time>2025-05-19T10:10:31Z</time>
      </trkpt>
      <trkpt lat="44.038654966279864" lon="7.924257041886449">
        <ele>225.56999999999999</ele>
        <time>2025-05-19T10:10:32Z</time>
      </trkpt>
      <trkpt lat="44.038631999865174" lon="7.924168026074767">
        <ele>226.05000000000001</ele>
        <time>2025-05-19T10:10:33Z</time>
      </trkpt>
      <trkpt lat="44.038524962961674" lon="7.924092002213001">
        <ele>226.05000000000001</ele>
        <time>2025-05-19T10:10:34Z</time>
      </trkpt>
      <trkpt lat="44.038609033450484" lon="7.923839036375284">
        <ele>227.00999999999999</ele>
        <time>2025-05-19T10:10:40Z</time>
      </trkpt>
      <trkpt lat="44.038655972108245" lon="7.923768041655421">
        <ele>227.00999999999999</ele>
        <time>2025-05-19T10:10:41Z</time>
      </trkpt>
      <trkpt lat="44.038872979581356" lon="7.923420025035739">
        <ele>227.00999999999999</ele>
        <time>2025-05-19T10:10:44Z</time>
      </trkpt>
      <trkpt lat="44.038943974301219" lon="7.923253979533911">
        <ele>227.00999999999999</ele>
        <time>2025-05-19T10:10:45Z</time>
      </trkpt>
      <trkpt lat="44.039019998162985" lon="7.923077959567308">
        <ele>227.00999999999999</ele>
        <time>2025-05-19T10:10:46Z</time>
      </trkpt>
      <trkpt lat="44.039163999259472" lon="7.922501033172011">
        <ele>227.97</ele>
        <time>2025-05-19T10:10:49Z</time>
      </trkpt>
      <trkpt lat="44.039208004251122" lon="7.922295005992055">
        <ele>228.44999999999999</ele>
        <time>2025-05-19T10:10:50Z</time>
      </trkpt>
      <trkpt lat="44.040953032672405" lon="7.916059037670493">
        <ele>228.44999999999999</ele>
        <time>2025-05-19T10:11:21Z</time>
      </trkpt>
      <trkpt lat="44.046937962993979" lon="7.905906038358808">
        <ele>297.18000000000001</ele>
        <time>2025-05-19T10:12:20Z</time>
      </trkpt>
      <trkpt lat="44.049452031031251" lon="7.904458986595273">
        <ele>294.30000000000001</ele>
        <time>2025-05-19T10:12:22Z</time>
      </trkpt>
      <trkpt lat="44.050387032330036" lon="7.903824979439378">
        <ele>296.22000000000003</ele>
        <time>2025-05-19T10:12:30Z</time>
      </trkpt>
      <trkpt lat="44.050433970987797" lon="7.90376203134656">
        <ele>297.18000000000001</ele>
        <time>2025-05-19T10:12:31Z</time>
      </trkpt>
      <trkpt lat="44.050519969314337" lon="7.903525996953249">
        <ele>298.14999999999998</ele>
        <time>2025-05-19T10:12:32Z</time>
      </trkpt>
      <trkpt lat="44.050540002062917" lon="7.903418960049748">
        <ele>299.11000000000001</ele>
        <time>2025-05-19T10:12:33Z</time>
      </trkpt>
      <trkpt lat="44.050570009276271" lon="7.903257021680474">
        <ele>300.06999999999999</ele>
        <time>2025-05-19T10:12:34Z</time>
      </trkpt>
      <trkpt lat="44.050602028146386" lon="7.903087036684156">
        <ele>301.02999999999997</ele>
        <time>2025-05-19T10:12:35Z</time>
      </trkpt>
      <trkpt lat="44.05063396319747" lon="7.902913028374314">
        <ele>301.99000000000001</ele>
        <time>2025-05-19T10:12:36Z</time>
      </trkpt>
      <trkpt lat="44.050805037841201" lon="7.902352027595043">
        <ele>305.36000000000001</ele>
        <time>2025-05-19T10:12:39Z</time>
      </trkpt>
      <trkpt lat="44.051464023068547" lon="7.900930037721992">
        <ele>313.05000000000001</ele>
        <time>2025-05-19T10:12:47Z</time>
      </trkpt>
      <trkpt lat="44.051773985847831" lon="7.89927301928401">
        <ele>320.74000000000001</ele>
        <time>2025-05-19T10:12:55Z</time>
      </trkpt>
      <trkpt lat="44.051803993061185" lon="7.899066992104054">
        <ele>321.69999999999999</ele>
        <time>2025-05-19T10:12:56Z</time>
      </trkpt>
      <trkpt lat="44.051887979730964" lon="7.898874040693045">
        <ele>322.66000000000003</ele>
        <time>2025-05-19T10:12:57Z</time>
      </trkpt>
      <trkpt lat="44.052056036889553" lon="7.898524012416601">
        <ele>324.57999999999998</ele>
        <time>2025-05-19T10:12:59Z</time>
      </trkpt>
      <trkpt lat="44.052640004083514" lon="7.897165976464748">
        <ele>332.75</ele>
        <time>2025-05-19T10:13:06Z</time>
      </trkpt>
      <trkpt lat="44.052699012681842" lon="7.896946035325527">
        <ele>333.70999999999998</ele>
        <time>2025-05-19T10:13:07Z</time>
      </trkpt>
      <trkpt lat="44.052735976874828" lon="7.89671503007412">
        <ele>334.68000000000001</ele>
        <time>2025-05-19T10:13:08Z</time>
      </trkpt>
      <trkpt lat="44.052947033196688" lon="7.89553401991725">
        <ele>343.32999999999998</ele>
        <time>2025-05-19T10:13:14Z</time>
      </trkpt>
      <trkpt lat="44.053018027916551" lon="7.895433017984033">
        <ele>344.76999999999998</ele>
        <time>2025-05-19T10:13:15Z</time>
      </trkpt>
      <trkpt lat="44.053094973787665" lon="7.895400999113917">
        <ele>346.20999999999998</ele>
        <time>2025-05-19T10:13:16Z</time>
      </trkpt>
      <trkpt lat="44.053529994562268" lon="7.895307959988713">
        <ele>350.54000000000002</ele>
        <time>2025-05-19T10:13:20Z</time>
      </trkpt>
      <trkpt lat="44.053623033687472" lon="7.895288011059165">
        <ele>351.5</ele>
        <time>2025-05-19T10:13:21Z</time>
      </trkpt>
      <trkpt lat="44.053713977336884" lon="7.895259009674192">
        <ele>351.98000000000002</ele>
        <time>2025-05-19T10:13:22Z</time>
      </trkpt>
      <trkpt lat="44.053802993148565" lon="7.895149039104581">
        <ele>353.42000000000002</ele>
        <time>2025-05-19T10:13:23Z</time>
      </trkpt>
      <trkpt lat="44.053844986483455" lon="7.895057005807757">
        <ele>353.89999999999998</ele>
        <time>2025-05-19T10:13:24Z</time>
      </trkpt>
      <trkpt lat="44.053819002583623" lon="7.894875034689903">
        <ele>354.86000000000001</ele>
        <time>2025-05-19T10:13:25Z</time>
      </trkpt>
      <trkpt lat="44.053782960399985" lon="7.894775038585067">
        <ele>355.82999999999998</ele>
        <time>2025-05-19T10:13:26Z</time>
      </trkpt>
      <trkpt lat="44.053653040900826" lon="7.894749976694584">
        <ele>356.31</ele>
        <time>2025-05-19T10:13:27Z</time>
      </trkpt>
      <trkpt lat="44.053577017039061" lon="7.894661966711283">
        <ele>356.31</ele>
        <time>2025-05-19T10:13:28Z</time>
      </trkpt>
      <trkpt lat="44.053492024540901" lon="7.894563982263207">
        <ele>356.79000000000002</ele>
        <time>2025-05-19T10:13:29Z</time>
      </trkpt>
      <trkpt lat="44.053410971537232" lon="7.894471026957035">
        <ele>357.26999999999998</ele>
        <time>2025-05-19T10:13:30Z</time>
      </trkpt>
      <trkpt lat="44.053346011787653" lon="7.894324008375406">
        <ele>357.75</ele>
        <time>2025-05-19T10:13:31Z</time>
      </trkpt>
      <trkpt lat="44.053304018452764" lon="7.8941619861871">
        <ele>358.23000000000002</ele>
        <time>2025-05-19T10:13:32Z</time>
      </trkpt>
      <trkpt lat="44.053253978490829" lon="7.893984960392118">
        <ele>358.70999999999998</ele>
        <time>2025-05-19T10:13:33Z</time>
      </trkpt>
      <trkpt lat="44.053004030138254" lon="7.893271995708346">
        <ele>361.58999999999997</ele>
        <time>2025-05-19T10:13:37Z</time>
      </trkpt>
      <trkpt lat="44.053001012653112" lon="7.893118020147085">
        <ele>362.06999999999999</ele>
        <time>2025-05-19T10:13:38Z</time>
      </trkpt>
      <trkpt lat="44.053033031523228" lon="7.893027998507023">
        <ele>363.04000000000002</ele>
        <time>2025-05-19T10:13:39Z</time>
      </trkpt>
      <trkpt lat="44.053100002929568" lon="7.892954992130399">
        <ele>364.48000000000002</ele>
        <time>2025-05-19T10:13:40Z</time>
      </trkpt>
      <trkpt lat="44.053167980164289" lon="7.892879974097014">
        <ele>365.92000000000002</ele>
        <time>2025-05-19T10:13:41Z</time>
      </trkpt>
      <trkpt lat="44.053236041218042" lon="7.892781989648938">
        <ele>367.36000000000001</ele>
        <time>2025-05-19T10:13:42Z</time>
      </trkpt>
      <trkpt lat="44.053266970440745" lon="7.892690040171146">
        <ele>368.80000000000001</ele>
        <time>2025-05-19T10:13:43Z</time>
      </trkpt>
      <trkpt lat="44.053208967670798" lon="7.892521983012557">
        <ele>370.24000000000001</ele>
        <time>2025-05-19T10:13:44Z</time>
      </trkpt>
      <trkpt lat="44.053156999871135" lon="7.892373036593199">
        <ele>371.69</ele>
        <time>2025-05-19T10:13:45Z</time>
      </trkpt>
      <trkpt lat="44.053104026243091" lon="7.892218977212906">
        <ele>373.13</ele>
        <time>2025-05-19T10:13:46Z</time>
      </trkpt>
      <trkpt lat="44.053055997937918" lon="7.892077993601561">
        <ele>374.08999999999997</ele>
        <time>2025-05-19T10:13:47Z</time>
      </trkpt>
      <trkpt lat="44.053077036514878" lon="7.891932986676693">
        <ele>375.05000000000001</ele>
        <time>2025-05-19T10:13:48Z</time>
      </trkpt>
      <trkpt lat="44.053105032071471" lon="7.891783034428954">
        <ele>376.00999999999999</ele>
        <time>2025-05-19T10:13:49Z</time>
      </trkpt>
      <trkpt lat="44.053153982385993" lon="7.891639033332467">
        <ele>376.49000000000001</ele>
        <time>2025-05-19T10:13:50Z</time>
      </trkpt>
      <trkpt lat="44.053222965449095" lon="7.891499977558851">
        <ele>377.44999999999999</ele>
        <time>2025-05-19T10:13:51Z</time>
      </trkpt>
      <trkpt lat="44.053311981260777" lon="7.89136603474617">
        <ele>378.42000000000002</ele>
        <time>2025-05-19T10:13:52Z</time>
      </trkpt>
      <trkpt lat="44.053410971537232" lon="7.891234019771218">
        <ele>378.89999999999998</ele>
        <time>2025-05-19T10:13:53Z</time>
      </trkpt>
      <trkpt lat="44.053930984809995" lon="7.890557013452053">
        <ele>384.66000000000003</ele>
        <time>2025-05-19T10:14:00Z</time>
      </trkpt>
      <trkpt lat="44.054017988964915" lon="7.89039901457727">
        <ele>386.11000000000001</ele>
        <time>2025-05-19T10:14:02Z</time>
      </trkpt>
      <trkpt lat="44.054088983684778" lon="7.890231041237712">
        <ele>387.06999999999999</ele>
        <time>2025-05-19T10:14:04Z</time>
      </trkpt>
      <trkpt lat="44.054124020040035" lon="7.890146970748901">
        <ele>387.55000000000001</ele>
        <time>2025-05-19T10:14:05Z</time>
      </trkpt>
      <trkpt lat="44.054227033630013" lon="7.889902973547578">
        <ele>389.94999999999999</ele>
        <time>2025-05-19T10:14:08Z</time>
      </trkpt>
      <trkpt lat="44.054259974509478" lon="7.889823010191321">
        <ele>390.43000000000001</ele>
        <time>2025-05-19T10:14:09Z</time>
      </trkpt>
      <trkpt lat="44.054295010864735" lon="7.889739023521543">
        <ele>390.91000000000003</ele>
        <time>2025-05-19T10:14:10Z</time>
      </trkpt>
      <trkpt lat="44.05432996340096" lon="7.889653025195003">
        <ele>391.38999999999999</ele>
        <time>2025-05-19T10:14:11Z</time>
      </trkpt>
      <trkpt lat="44.054360976442695" lon="7.889578007161617">
        <ele>391.87</ele>
        <time>2025-05-19T10:14:12Z</time>
      </trkpt>
      <trkpt lat="44.054409004747868" lon="7.889507012441754">
        <ele>392.83999999999997</ele>
        <time>2025-05-19T10:14:13Z</time>
      </trkpt>
      <trkpt lat="44.054452003911138" lon="7.889441968873143">
        <ele>393.31999999999999</ele>
        <time>2025-05-19T10:14:14Z</time>
      </trkpt>
      <trkpt lat="44.054497014731169" lon="7.889373991638422">
        <ele>393.80000000000001</ele>
        <time>2025-05-19T10:14:15Z</time>
      </trkpt>
      <trkpt lat="44.054605979472399" lon="7.889259997755289">
        <ele>395.24000000000001</ele>
        <time>2025-05-19T10:14:17Z</time>
      </trkpt>
      <trkpt lat="44.054665993899107" lon="7.889210041612387">
        <ele>396.19999999999999</ele>
        <time>2025-05-19T10:14:18Z</time>
      </trkpt>
      <trkpt lat="44.054786022752523" lon="7.889109961688519">
        <ele>397.63999999999999</ele>
        <time>2025-05-19T10:14:20Z</time>
      </trkpt>
      <trkpt lat="44.054960031062365" lon="7.888936959207058">
        <ele>399.56999999999999</ele>
        <time>2025-05-19T10:14:23Z</time>
      </trkpt>
      <trkpt lat="44.055011998862028" lon="7.888881973922253">
        <ele>400.05000000000001</ele>
        <time>2025-05-19T10:14:24Z</time>
      </trkpt>
      <trkpt lat="44.0551239810884" lon="7.888760017231107">
        <ele>400.05000000000001</ele>
        <time>2025-05-19T10:14:26Z</time>
      </trkpt>
      <trkpt lat="44.055594960227609" lon="7.888247966766357">
        <ele>402.44999999999999</ele>
        <time>2025-05-19T10:14:33Z</time>
      </trkpt>
      <trkpt lat="44.056168030947447" lon="7.887624017894268">
        <ele>407.74000000000001</ele>
        <time>2025-05-19T10:14:41Z</time>
      </trkpt>
      <trkpt lat="44.056227961555123" lon="7.887532990425825">
        <ele>408.22000000000003</ele>
        <time>2025-05-19T10:14:42Z</time>
      </trkpt>
      <trkpt lat="44.056270960718393" lon="7.887432994320989">
        <ele>408.69999999999999</ele>
        <time>2025-05-19T10:14:43Z</time>
      </trkpt>
      <trkpt lat="44.056308008730412" lon="7.887334004044533">
        <ele>410.13999999999999</ele>
        <time>2025-05-19T10:14:44Z</time>
      </trkpt>
      <trkpt lat="44.056334998458624" lon="7.887225961312652">
        <ele>411.10000000000002</ele>
        <time>2025-05-19T10:14:45Z</time>
      </trkpt>
      <trkpt lat="44.056334998458624" lon="7.887122025713325">
        <ele>412.06</ele>
        <time>2025-05-19T10:14:46Z</time>
      </trkpt>
      <trkpt lat="44.056334998458624" lon="7.887017000466585">
        <ele>413.01999999999998</ele>
        <time>2025-05-19T10:14:47Z</time>
      </trkpt>
      <trkpt lat="44.056346984580159" lon="7.886915998533368">
        <ele>414.47000000000003</ele>
        <time>2025-05-19T10:14:48Z</time>
      </trkpt>
      <trkpt lat="44.056360982358456" lon="7.886822037398815">
        <ele>415.43000000000001</ele>
        <time>2025-05-19T10:14:49Z</time>
      </trkpt>
      <trkpt lat="44.056374980136752" lon="7.886721035465598">
        <ele>416.87</ele>
        <time>2025-05-19T10:14:50Z</time>
      </trkpt>
      <trkpt lat="44.056422002613544" lon="7.886622967198491">
        <ele>417.82999999999998</ele>
        <time>2025-05-19T10:14:51Z</time>
      </trkpt>
      <trkpt lat="44.05647698789835" lon="7.886523976922035">
        <ele>419.26999999999998</ele>
        <time>2025-05-19T10:14:52Z</time>
      </trkpt>
      <trkpt lat="44.056532979011536" lon="7.886422974988818">
        <ele>420.70999999999998</ele>
        <time>2025-05-19T10:14:53Z</time>
      </trkpt>
      <trkpt lat="44.056590981781483" lon="7.886319039389491">
        <ele>421.68000000000001</ele>
        <time>2025-05-19T10:14:54Z</time>
      </trkpt>
      <trkpt lat="44.056961964815855" lon="7.885821992531419">
        <ele>426</ele>
        <time>2025-05-19T10:14:59Z</time>
      </trkpt>
      <trkpt lat="44.057040000334382" lon="7.885796008631587">
        <ele>426.95999999999998</ele>
        <time>2025-05-19T10:15:00Z</time>
      </trkpt>
      <trkpt lat="44.057374019175768" lon="7.885730965062976">
        <ele>429.85000000000002</ele>
        <time>2025-05-19T10:15:04Z</time>
      </trkpt>
      <trkpt lat="44.057448031380773" lon="7.885707998648286">
        <ele>430.32999999999998</ele>
        <time>2025-05-19T10:15:05Z</time>
      </trkpt>
      <trkpt lat="44.057516008615494" lon="7.885686038061976">
        <ele>431.29000000000002</ele>
        <time>2025-05-19T10:15:06Z</time>
      </trkpt>
      <trkpt lat="44.057567976415157" lon="7.885664999485016">
        <ele>431.76999999999998</ele>
        <time>2025-05-19T10:15:07Z</time>
      </trkpt>
      <trkpt lat="44.05761499889195" lon="7.885629963129759">
        <ele>432.25</ele>
        <time>2025-05-19T10:15:08Z</time>
      </trkpt>
      <trkpt lat="44.057664033025503" lon="7.885594004765153">
        <ele>432.73000000000002</ele>
        <time>2025-05-19T10:15:09Z</time>
      </trkpt>
      <trkpt lat="44.057729998603463" lon="7.885543964803219">
        <ele>433.20999999999998</ele>
        <time>2025-05-19T10:15:10Z</time>
      </trkpt>
      <trkpt lat="44.057741984724998" lon="7.885499959811568">
        <ele>434.17000000000002</ele>
        <time>2025-05-19T10:15:11Z</time>
      </trkpt>
      <trkpt lat="44.057772997766733" lon="7.88539401255548">
        <ele>434.64999999999998</ele>
        <time>2025-05-19T10:15:12Z</time>
      </trkpt>
      <trkpt lat="44.057761011645198" lon="7.885290998965502">
        <ele>435.61000000000001</ele>
        <time>2025-05-19T10:15:13Z</time>
      </trkpt>
      <trkpt lat="44.057741984724998" lon="7.885180022567511">
        <ele>436.10000000000002</ele>
        <time>2025-05-19T10:15:14Z</time>
      </trkpt>
      <trkpt lat="44.057703008875251" lon="7.885088995099068">
        <ele>436.57999999999998</ele>
        <time>2025-05-19T10:15:15Z</time>
      </trkpt>
      <trkpt lat="44.057559007778764" lon="7.884707031771541">
        <ele>438.98000000000002</ele>
        <time>2025-05-19T10:15:19Z</time>
      </trkpt>
      <trkpt lat="44.057524977251887" lon="7.884614998474717">
        <ele>439.45999999999998</ele>
        <time>2025-05-19T10:15:20Z</time>
      </trkpt>
      <trkpt lat="44.057472003623843" lon="7.884358009323478">
        <ele>440.89999999999998</ele>
        <time>2025-05-19T10:15:23Z</time>
      </trkpt>
      <trkpt lat="44.057472003623843" lon="7.884289026260376">
        <ele>441.38</ele>
        <time>2025-05-19T10:15:24Z</time>
      </trkpt>
      <trkpt lat="44.057492958381772" lon="7.884244015440345">
        <ele>441.38</ele>
        <time>2025-05-19T10:15:25Z</time>
      </trkpt>
      <trkpt lat="44.057536963373423" lon="7.884171009063721">
        <ele>441.86000000000001</ele>
        <time>2025-05-19T10:15:26Z</time>
      </trkpt>
      <trkpt lat="44.05759597197175" lon="7.884121974930167">
        <ele>442.81999999999999</ele>
        <time>2025-05-19T10:15:27Z</time>
      </trkpt>
      <trkpt lat="44.057661015540361" lon="7.884067995473743">
        <ele>443.31</ele>
        <time>2025-05-19T10:15:28Z</time>
      </trkpt>
      <trkpt lat="44.057723041623831" lon="7.884016027674079">
        <ele>444.26999999999998</ele>
        <time>2025-05-19T10:15:29Z</time>
      </trkpt>
      <trkpt lat="44.057780960574746" lon="7.883966993540525">
        <ele>445.23000000000002</ele>
        <time>2025-05-19T10:15:30Z</time>
      </trkpt>
      <trkpt lat="44.057822031900287" lon="7.883864985778928">
        <ele>446.19</ele>
        <time>2025-05-19T10:15:31Z</time>
      </trkpt>
      <trkpt lat="44.057863019406796" lon="7.883733976632357">
        <ele>447.63</ele>
        <time>2025-05-19T10:15:32Z</time>
      </trkpt>
      <trkpt lat="44.057886991649866" lon="7.883538007736206">
        <ele>448.58999999999997</ele>
        <time>2025-05-19T10:15:33Z</time>
      </trkpt>
      <trkpt lat="44.057897971943021" lon="7.883339021354914">
        <ele>450.02999999999997</ele>
        <time>2025-05-19T10:15:34Z</time>
      </trkpt>
      <trkpt lat="44.057864025235176" lon="7.883184039965272">
        <ele>451</ele>
        <time>2025-05-19T10:15:35Z</time>
      </trkpt>
      <trkpt lat="44.057805016636848" lon="7.88305101916194">
        <ele>452.44</ele>
        <time>2025-05-19T10:15:36Z</time>
      </trkpt>
      <trkpt lat="44.057751037180424" lon="7.882926966995001">
        <ele>453.39999999999998</ele>
        <time>2025-05-19T10:15:37Z</time>
      </trkpt>
      <trkpt lat="44.057708038017154" lon="7.882752036675811">
        <ele>454.36000000000001</ele>
        <time>2025-05-19T10:15:38Z</time>
      </trkpt>
      <trkpt lat="44.057695968076587" lon="7.882590014487505">
        <ele>455.31999999999999</ele>
        <time>2025-05-19T10:15:39Z</time>
      </trkpt>
      <trkpt lat="44.057735027745366" lon="7.882427992299199">
        <ele>455.80000000000001</ele>
        <time>2025-05-19T10:15:40Z</time>
      </trkpt>
      <trkpt lat="44.057826977223158" lon="7.882263036444783">
        <ele>456.75999999999999</ele>
        <time>2025-05-19T10:15:41Z</time>
      </trkpt>
      <trkpt lat="44.057921022176743" lon="7.882092967629433">
        <ele>457.24000000000001</ele>
        <time>2025-05-19T10:15:42Z</time>
      </trkpt>
      <trkpt lat="44.058031998574734" lon="7.882005041465163">
        <ele>457.72000000000003</ele>
        <time>2025-05-19T10:15:43Z</time>
      </trkpt>
      <trkpt lat="44.058125959709287" lon="7.881941003724933">
        <ele>458.20999999999998</ele>
        <time>2025-05-19T10:15:44Z</time>
      </trkpt>
      <trkpt lat="44.058266021311283" lon="7.881961036473513">
        <ele>459.17000000000002</ele>
        <time>2025-05-19T10:15:45Z</time>
      </trkpt>
      <trkpt lat="44.058368029072881" lon="7.882047034800053">
        <ele>459.64999999999998</ele>
        <time>2025-05-19T10:15:46Z</time>
      </trkpt>
      <trkpt lat="44.058509012684226" lon="7.882164968177676">
        <ele>460.13</ele>
        <time>2025-05-19T10:15:47Z</time>
      </trkpt>
      <trkpt lat="44.058673968538642" lon="7.882304023951292">
        <ele>461.08999999999997</ele>
        <time>2025-05-19T10:15:48Z</time>
      </trkpt>
      <trkpt lat="44.058841019868851" lon="7.88236697204411">
        <ele>461.56999999999999</ele>
        <time>2025-05-19T10:15:49Z</time>
      </trkpt>
      <trkpt lat="44.059029025956988" lon="7.882402008399367">
        <ele>462.52999999999997</ele>
        <time>2025-05-19T10:15:50Z</time>
      </trkpt>
      <trkpt lat="44.059217032045126" lon="7.882382981479168">
        <ele>463.49000000000001</ele>
        <time>2025-05-19T10:15:51Z</time>
      </trkpt>
      <trkpt lat="44.059396991506219" lon="7.882345011457801">
        <ele>464.44999999999999</ele>
        <time>2025-05-19T10:15:52Z</time>
      </trkpt>
      <trkpt lat="44.059569993987679" lon="7.882306035608053">
        <ele>465.89999999999998</ele>
        <time>2025-05-19T10:15:53Z</time>
      </trkpt>
      <trkpt lat="44.059736039489508" lon="7.882263958454132">
        <ele>466.86000000000001</ele>
        <time>2025-05-19T10:15:54Z</time>
      </trkpt>
      <trkpt lat="44.059893032535911" lon="7.882294971495867">
        <ele>467.81999999999999</ele>
        <time>2025-05-19T10:15:55Z</time>
      </trkpt>
      <trkpt lat="44.060025969520211" lon="7.882325984537602">
        <ele>469.25999999999999</ele>
        <time>2025-05-19T10:15:56Z</time>
      </trkpt>
      <trkpt lat="44.060178017243743" lon="7.88243000395596">
        <ele>470.69999999999999</ele>
        <time>2025-05-19T10:15:57Z</time>
      </trkpt>
      <trkpt lat="44.060315983369946" lon="7.882523965090513">
        <ele>471.66000000000003</ele>
        <time>2025-05-19T10:15:58Z</time>
      </trkpt>
      <trkpt lat="44.060450010001659" lon="7.882615998387337">
        <ele>473.11000000000001</ele>
        <time>2025-05-19T10:15:59Z</time>
      </trkpt>
      <trkpt lat="44.060792997479439" lon="7.882851026952267">
        <ele>477.43000000000001</ele>
        <time>2025-05-19T10:16:02Z</time>
      </trkpt>
      <trkpt lat="44.06092400662601" lon="7.882883967831731">
        <ele>478.87</ele>
        <time>2025-05-19T10:16:03Z</time>
      </trkpt>
      <trkpt lat="44.061055015772581" lon="7.882840968668461">
        <ele>480.31999999999999</ele>
        <time>2025-05-19T10:16:04Z</time>
      </trkpt>
      <trkpt lat="44.061156017705798" lon="7.882735021412373">
        <ele>482.24000000000001</ele>
        <time>2025-05-19T10:16:05Z</time>
      </trkpt>
      <trkpt lat="44.061205973848701" lon="7.882648017257452">
        <ele>483.68000000000001</ele>
        <time>2025-05-19T10:16:06Z</time>
      </trkpt>
      <trkpt lat="44.061190970242023" lon="7.882459005340934">
        <ele>485.12</ele>
        <time>2025-05-19T10:16:07Z</time>
      </trkpt>
      <trkpt lat="44.061168003827333" lon="7.882307963445783">
        <ele>486.07999999999998</ele>
        <time>2025-05-19T10:16:08Z</time>
      </trkpt>
      <trkpt lat="44.06111704185605" lon="7.882120963186026">
        <ele>487.05000000000001</ele>
        <time>2025-05-19T10:16:09Z</time>
      </trkpt>
      <trkpt lat="44.060674980282784" lon="7.880079969763756">
        <ele>495.69999999999999</ele>
        <time>2025-05-19T10:16:18Z</time>
      </trkpt>
      <trkpt lat="44.060609014704823" lon="7.879849970340729">
        <ele>496.66000000000003</ele>
        <time>2025-05-19T10:16:19Z</time>
      </trkpt>
      <trkpt lat="44.060516981408" lon="7.879631035029888">
        <ele>498.10000000000002</ele>
        <time>2025-05-19T10:16:20Z</time>
      </trkpt>
      <trkpt lat="44.060255968943238" lon="7.878984035924077">
        <ele>501.45999999999998</ele>
        <time>2025-05-19T10:16:23Z</time>
      </trkpt>
      <trkpt lat="44.060247000306845" lon="7.878780020400882">
        <ele>502.91000000000003</ele>
        <time>2025-05-19T10:16:24Z</time>
      </trkpt>
      <trkpt lat="44.060259992256761" lon="7.878594025969505">
        <ele>504.35000000000002</ele>
        <time>2025-05-19T10:16:25Z</time>
      </trkpt>
      <trkpt lat="44.060330986976624" lon="7.878465028479695">
        <ele>505.79000000000002</ele>
        <time>2025-05-19T10:16:26Z</time>
      </trkpt>
      <trkpt lat="44.060426959767938" lon="7.878317004069686">
        <ele>507.23000000000002</ele>
        <time>2025-05-19T10:16:27Z</time>
      </trkpt>
      <trkpt lat="44.060528967529535" lon="7.878161016851664">
        <ele>508.67000000000002</ele>
        <time>2025-05-19T10:16:28Z</time>
      </trkpt>
      <trkpt lat="44.060631981119514" lon="7.878047022968531">
        <ele>510.12</ele>
        <time>2025-05-19T10:16:29Z</time>
      </trkpt>
      <trkpt lat="44.060749998316169" lon="7.877972004935145">
        <ele>511.07999999999998</ele>
        <time>2025-05-19T10:16:30Z</time>
      </trkpt>
      <trkpt lat="44.060819987207651" lon="7.877926994115114">
        <ele>512.51999999999998</ele>
        <time>2025-05-19T10:16:31Z</time>
      </trkpt>
      <trkpt lat="44.060995001345873" lon="7.877920037135482">
        <ele>513.48000000000002</ele>
        <time>2025-05-19T10:16:32Z</time>
      </trkpt>
      <trkpt lat="44.061151994392276" lon="7.877914002165198">
        <ele>514.91999999999996</ele>
        <time>2025-05-19T10:16:33Z</time>
      </trkpt>
      <trkpt lat="44.062408022582531" lon="7.877690959721804">
        <ele>524.53999999999996</ele>
        <time>2025-05-19T10:16:40Z</time>
      </trkpt>
      <trkpt lat="44.062703987583518" lon="7.877622982487083">
        <ele>527.41999999999996</ele>
        <time>2025-05-19T10:16:42Z</time>
      </trkpt>
      <trkpt lat="44.062838014215231" lon="7.877592975273728">
        <ele>528.86000000000001</ele>
        <time>2025-05-19T10:16:43Z</time>
      </trkpt>
      <trkpt lat="44.062971035018563" lon="7.877601021900773">
        <ele>530.29999999999995</ele>
        <time>2025-05-19T10:16:44Z</time>
      </trkpt>
      <trkpt lat="44.063124004751444" lon="7.877630023285747">
        <ele>531.75</ele>
        <time>2025-05-19T10:16:45Z</time>
      </trkpt>
      <trkpt lat="44.063280997797847" lon="7.877660030499101">
        <ele>533.66999999999996</ele>
        <time>2025-05-19T10:16:46Z</time>
      </trkpt>
      <trkpt lat="44.063465986400843" lon="7.877592975273728">
        <ele>535.11000000000001</ele>
        <time>2025-05-19T10:16:47Z</time>
      </trkpt>
      <trkpt lat="44.06360998749733" lon="7.877512006089091">
        <ele>537.02999999999997</ele>
        <time>2025-05-19T10:16:48Z</time>
      </trkpt>
      <trkpt lat="44.063761029392481" lon="7.877408992499113">
        <ele>538.48000000000002</ele>
        <time>2025-05-19T10:16:49Z</time>
      </trkpt>
      <trkpt lat="44.064765013754368" lon="7.876519002020359">
        <ele>550.00999999999999</ele>
        <time>2025-05-19T10:16:57Z</time>
      </trkpt>
      <trkpt lat="44.065384017303586" lon="7.875841995701194">
        <ele>555.77999999999997</ele>
        <time>2025-05-19T10:17:02Z</time>
      </trkpt>
      <trkpt lat="44.065463980659842" lon="7.875735964626074">
        <ele>556.74000000000001</ele>
        <time>2025-05-19T10:17:03Z</time>
      </trkpt>
      <trkpt lat="44.06552298925817" lon="7.875589029863477">
        <ele>558.17999999999995</ele>
        <time>2025-05-19T10:17:04Z</time>
      </trkpt>
      <trkpt lat="44.065540004521608" lon="7.875431030988693">
        <ele>559.13999999999999</ele>
        <time>2025-05-19T10:17:05Z</time>
      </trkpt>
      <trkpt lat="44.065520977601409" lon="7.875244030728936">
        <ele>560.11000000000001</ele>
        <time>2025-05-19T10:17:06Z</time>
      </trkpt>
      <trkpt lat="44.065461969003081" lon="7.875044038519263">
        <ele>561.54999999999995</ele>
        <time>2025-05-19T10:17:07Z</time>
      </trkpt>
      <trkpt lat="44.065357027575374" lon="7.874407013878226">
        <ele>565.38999999999999</ele>
        <time>2025-05-19T10:17:10Z</time>
      </trkpt>
      <trkpt lat="44.065378988161683" lon="7.874247003346682">
        <ele>566.83000000000004</ele>
        <time>2025-05-19T10:17:11Z</time>
      </trkpt>
      <trkpt lat="44.065440008416772" lon="7.874109959229827">
        <ele>568.27999999999997</ele>
        <time>2025-05-19T10:17:12Z</time>
      </trkpt>
      <trkpt lat="44.065561965107918" lon="7.873956989496946">
        <ele>569.72000000000003</ele>
        <time>2025-05-19T10:17:13Z</time>
      </trkpt>
      <trkpt lat="44.065678976476192" lon="7.873897980898619">
        <ele>570.67999999999995</ele>
        <time>2025-05-19T10:17:14Z</time>
      </trkpt>
      <trkpt lat="44.065837981179357" lon="7.873819023370743">
        <ele>572.12</ele>
        <time>2025-05-19T10:17:15Z</time>
      </trkpt>
      <trkpt lat="44.066195972263813" lon="7.873660018667579">
        <ele>575.00999999999999</ele>
        <time>2025-05-19T10:17:17Z</time>
      </trkpt>
      <trkpt lat="44.066547006368637" lon="7.873532027006149">
        <ele>578.37</ele>
        <time>2025-05-19T10:17:19Z</time>
      </trkpt>
      <trkpt lat="44.066678015515208" lon="7.873413003981113">
        <ele>579.80999999999995</ele>
        <time>2025-05-19T10:17:20Z</time>
      </trkpt>
      <trkpt lat="44.066801983863115" lon="7.873300015926361">
        <ele>580.76999999999998</ele>
        <time>2025-05-19T10:17:21Z</time>
      </trkpt>
      <trkpt lat="44.066910026594996" lon="7.873202031478286">
        <ele>582.22000000000003</ele>
        <time>2025-05-19T10:17:22Z</time>
      </trkpt>
      <trkpt lat="44.067015973851085" lon="7.873125001788139">
        <ele>583.65999999999997</ele>
        <time>2025-05-19T10:17:23Z</time>
      </trkpt>
      <trkpt lat="44.067116975784302" lon="7.873150985687971">
        <ele>585.10000000000002</ele>
        <time>2025-05-19T10:17:24Z</time>
      </trkpt>
      <trkpt lat="44.067237004637718" lon="7.873183004558086">
        <ele>586.53999999999996</ele>
        <time>2025-05-19T10:17:25Z</time>
      </trkpt>
      <trkpt lat="44.067506985738873" lon="7.873218962922692">
        <ele>589.42999999999995</ele>
        <time>2025-05-19T10:17:27Z</time>
      </trkpt>
      <trkpt lat="44.067642018198967" lon="7.873207982629538">
        <ele>590.38999999999999</ele>
        <time>2025-05-19T10:17:28Z</time>
      </trkpt>
      <trkpt lat="44.06775701791048" lon="7.873155009001494">
        <ele>591.83000000000004</ele>
        <time>2025-05-19T10:17:29Z</time>
      </trkpt>
      <trkpt lat="44.06788601540029" lon="7.873089965432882">
        <ele>592.30999999999995</ele>
        <time>2025-05-19T10:17:30Z</time>
      </trkpt>
      <trkpt lat="44.068016018718481" lon="7.873049983754754">
        <ele>593.75</ele>
        <time>2025-05-19T10:17:31Z</time>
      </trkpt>
      <trkpt lat="44.068157002329826" lon="7.873017964884639">
        <ele>595.66999999999996</ele>
        <time>2025-05-19T10:17:32Z</time>
      </trkpt>
      <trkpt lat="44.068291028961539" lon="7.873053001239896">
        <ele>597.60000000000002</ele>
        <time>2025-05-19T10:17:33Z</time>
      </trkpt>
      <trkpt lat="44.068561010062695" lon="7.873121984302998">
        <ele>600.96000000000004</ele>
        <time>2025-05-19T10:17:35Z</time>
      </trkpt>
      <trkpt lat="44.068792015314102" lon="7.873181998729706">
        <ele>603.85000000000002</ele>
        <time>2025-05-19T10:17:37Z</time>
      </trkpt>
      <trkpt lat="44.0688940230757" lon="7.873138999566436">
        <ele>605.28999999999996</ele>
        <time>2025-05-19T10:17:38Z</time>
      </trkpt>
      <trkpt lat="44.068986978381872" lon="7.873053001239896">
        <ele>606.73000000000002</ele>
        <time>2025-05-19T10:17:39Z</time>
      </trkpt>
      <trkpt lat="44.069144977256656" lon="7.872862983494997">
        <ele>608.64999999999998</ele>
        <time>2025-05-19T10:17:41Z</time>
      </trkpt>
      <trkpt lat="44.06928202137351" lon="7.872812021523714">
        <ele>609.61000000000001</ele>
        <time>2025-05-19T10:17:42Z</time>
      </trkpt>
      <trkpt lat="44.069400038570166" lon="7.872805986553431">
        <ele>610.57000000000005</ele>
        <time>2025-05-19T10:17:43Z</time>
      </trkpt>
      <trkpt lat="44.069553008303046" lon="7.872819984331727">
        <ele>611.53999999999996</ele>
        <time>2025-05-19T10:17:44Z</time>
      </trkpt>
      <trkpt lat="44.069693991914392" lon="7.872844040393829">
        <ele>612.5</ele>
        <time>2025-05-19T10:17:45Z</time>
      </trkpt>
      <trkpt lat="44.070068998262286" lon="7.872907994315028">
        <ele>615.38</ele>
        <time>2025-05-19T10:17:48Z</time>
      </trkpt>
      <trkpt lat="44.070225991308689" lon="7.872934984043241">
        <ele>616.82000000000005</ele>
        <time>2025-05-19T10:17:50Z</time>
      </trkpt>
      <trkpt lat="44.070304026827216" lon="7.872948981821537">
        <ele>617.29999999999995</ele>
        <time>2025-05-19T10:17:51Z</time>
      </trkpt>
      <trkpt lat="44.070327999070287" lon="7.872892990708351">
        <ele>617.77999999999997</ele>
        <time>2025-05-19T10:17:52Z</time>
      </trkpt>
      <trkpt lat="44.070363035425544" lon="7.872764999046922">
        <ele>618.25999999999999</ele>
        <time>2025-05-19T10:17:53Z</time>
      </trkpt>
      <trkpt lat="44.070338979363441" lon="7.872625021263957">
        <ele>619.23000000000002</ele>
        <time>2025-05-19T10:17:54Z</time>
      </trkpt>
      <trkpt lat="44.070308972150087" lon="7.872486971318722">
        <ele>619.71000000000004</ele>
        <time>2025-05-19T10:17:55Z</time>
      </trkpt>
      <trkpt lat="44.070275025442243" lon="7.872371971607208">
        <ele>620.19000000000005</ele>
        <time>2025-05-19T10:17:56Z</time>
      </trkpt>
      <trkpt lat="44.070224985480309" lon="7.872272981330752">
        <ele>620.66999999999996</ele>
        <time>2025-05-19T10:17:57Z</time>
      </trkpt>
      <trkpt lat="44.070186009630561" lon="7.872174996882677">
        <ele>621.14999999999998</ele>
        <time>2025-05-19T10:17:58Z</time>
      </trkpt>
      <trkpt lat="44.070135969668627" lon="7.871966036036611">
        <ele>622.11000000000001</ele>
        <time>2025-05-19T10:18:00Z</time>
      </trkpt>
      <trkpt lat="44.07011903822422" lon="7.871850030496717">
        <ele>622.59000000000003</ele>
        <time>2025-05-19T10:18:01Z</time>
      </trkpt>
      <trkpt lat="44.07007503323257" lon="7.87153696641326">
        <ele>624.99000000000001</ele>
        <time>2025-05-19T10:18:04Z</time>
      </trkpt>
      <trkpt lat="44.06999297440052" lon="7.87039702758193">
        <ele>630.75999999999999</ele>
        <time>2025-05-19T10:18:13Z</time>
      </trkpt>
      <trkpt lat="44.069978976622224" lon="7.870264006778598">
        <ele>631.24000000000001</ele>
        <time>2025-05-19T10:18:14Z</time>
      </trkpt>
      <trkpt lat="44.069875041022897" lon="7.86930100992322">
        <ele>635.57000000000005</ele>
        <time>2025-05-19T10:18:22Z</time>
      </trkpt>
      <trkpt lat="44.069768004119396" lon="7.869064975529909">
        <ele>636.52999999999997</ele>
        <time>2025-05-19T10:18:24Z</time>
      </trkpt>
      <trkpt lat="44.069736991077662" lon="7.869024993851781">
        <ele>637.00999999999999</ele>
        <time>2025-05-19T10:18:25Z</time>
      </trkpt>
      <trkpt lat="44.069550996646285" lon="7.868780996650457">
        <ele>636.52999999999997</ele>
        <time>2025-05-19T10:18:28Z</time>
      </trkpt>
      <trkpt lat="44.069488970562816" lon="7.86870002746582">
        <ele>636.52999999999997</ele>
        <time>2025-05-19T10:18:29Z</time>
      </trkpt>
      <trkpt lat="44.069480001926422" lon="7.868590978905559">
        <ele>637.49000000000001</ele>
        <time>2025-05-19T10:18:30Z</time>
      </trkpt>
      <trkpt lat="44.069470027461648" lon="7.868457958102226">
        <ele>637.97000000000003</ele>
        <time>2025-05-19T10:18:31Z</time>
      </trkpt>
      <trkpt lat="44.069486958906054" lon="7.868340024724603">
        <ele>638.92999999999995</ele>
        <time>2025-05-19T10:18:32Z</time>
      </trkpt>
      <trkpt lat="44.069524006918073" lon="7.868193006142974">
        <ele>639.40999999999997</ele>
        <time>2025-05-19T10:18:33Z</time>
      </trkpt>
      <trkpt lat="44.06958200968802" lon="7.868080018088222">
        <ele>639.88999999999999</ele>
        <time>2025-05-19T10:18:34Z</time>
      </trkpt>
      <trkpt lat="44.069651998579502" lon="7.867963006719947">
        <ele>639.88999999999999</ele>
        <time>2025-05-19T10:18:35Z</time>
      </trkpt>
      <trkpt lat="44.06973103992641" lon="7.867868039757013">
        <ele>640.38</ele>
        <time>2025-05-19T10:18:36Z</time>
      </trkpt>
      <trkpt lat="44.069814020767808" lon="7.867773994803429">
        <ele>640.86000000000001</ele>
        <time>2025-05-19T10:18:37Z</time>
      </trkpt>
      <trkpt lat="44.069898007437587" lon="7.867678022012115">
        <ele>641.34000000000003</ele>
        <time>2025-05-19T10:18:38Z</time>
      </trkpt>
      <trkpt lat="44.070498989894986" lon="7.86644303239882">
        <ele>648.54999999999995</ele>
        <time>2025-05-19T10:18:47Z</time>
      </trkpt>
      <trkpt lat="44.070569984614849" lon="7.866387041285634">
        <ele>649.02999999999997</ele>
        <time>2025-05-19T10:18:48Z</time>
      </trkpt>
      <trkpt lat="44.070647014304996" lon="7.866360973566771">
        <ele>649.99000000000001</ele>
        <time>2025-05-19T10:18:49Z</time>
      </trkpt>
      <trkpt lat="44.070754973217845" lon="7.866383017972112">
        <ele>650.95000000000005</ele>
        <time>2025-05-19T10:18:50Z</time>
      </trkpt>
      <trkpt lat="44.070804007351398" lon="7.866440014913678">
        <ele>651.90999999999997</ele>
        <time>2025-05-19T10:18:51Z</time>
      </trkpt>
      <trkpt lat="44.070895034819841" lon="7.866545040160418">
        <ele>652.87</ele>
        <time>2025-05-19T10:18:52Z</time>
      </trkpt>
      <trkpt lat="44.070988995954394" lon="7.866652999073267">
        <ele>653.83000000000004</ele>
        <time>2025-05-19T10:18:53Z</time>
      </trkpt>
      <trkpt lat="44.071117993444204" lon="7.86672399379313">
        <ele>654.79999999999995</ele>
        <time>2025-05-19T10:18:54Z</time>
      </trkpt>
      <trkpt lat="44.071240033954382" lon="7.866752995178103">
        <ele>655.75999999999999</ele>
        <time>2025-05-19T10:18:55Z</time>
      </trkpt>
      <trkpt lat="44.071356961503625" lon="7.866779984906316">
        <ele>656.72000000000003</ele>
        <time>2025-05-19T10:18:56Z</time>
      </trkpt>
      <trkpt lat="44.071461986750364" lon="7.866824995726347">
        <ele>657.67999999999995</ele>
        <time>2025-05-19T10:18:57Z</time>
      </trkpt>
      <trkpt lat="44.071590984240174" lon="7.866898002102971">
        <ele>658.15999999999997</ele>
        <time>2025-05-19T10:18:58Z</time>
      </trkpt>
      <trkpt lat="44.071700032800436" lon="7.866965979337692">
        <ele>659.12</ele>
        <time>2025-05-19T10:18:59Z</time>
      </trkpt>
      <trkpt lat="44.071830958127975" lon="7.867047032341361">
        <ele>660.08000000000004</ele>
        <time>2025-05-19T10:19:00Z</time>
      </trkpt>
      <trkpt lat="44.071989040821791" lon="7.867107968777418">
        <ele>661.03999999999996</ele>
        <time>2025-05-19T10:19:01Z</time>
      </trkpt>
      <trkpt lat="44.072134969756007" lon="7.867097994312644">
        <ele>662.00999999999999</ele>
        <time>2025-05-19T10:19:02Z</time>
      </trkpt>
      <trkpt lat="44.07226899638772" lon="7.867094976827502">
        <ele>663.45000000000005</ele>
        <time>2025-05-19T10:19:03Z</time>
      </trkpt>
      <trkpt lat="44.072398999705911" lon="7.86711098626256">
        <ele>664.88999999999999</ele>
        <time>2025-05-19T10:19:04Z</time>
      </trkpt>
      <trkpt lat="44.07250402495265" lon="7.867167983204126">
        <ele>666.33000000000004</ele>
        <time>2025-05-19T10:19:05Z</time>
      </trkpt>
      <trkpt lat="44.072808036580682" lon="7.867264039814472">
        <ele>669.22000000000003</ele>
        <time>2025-05-19T10:19:07Z</time>
      </trkpt>
      <trkpt lat="44.073236016556621" lon="7.867112997919321">
        <ele>673.05999999999995</ele>
        <time>2025-05-19T10:19:10Z</time>
      </trkpt>
      <trkpt lat="44.073369037359953" lon="7.867274014279246">
        <ele>674.98000000000002</ele>
        <time>2025-05-19T10:19:11Z</time>
      </trkpt>
      <trkpt lat="44.073540028184652" lon="7.867321958765388">
        <ele>676.41999999999996</ele>
        <time>2025-05-19T10:19:12Z</time>
      </trkpt>
      <trkpt lat="44.073726022616029" lon="7.867317013442516">
        <ele>678.35000000000002</ele>
        <time>2025-05-19T10:19:13Z</time>
      </trkpt>
      <trkpt lat="44.073898019269109" lon="7.867306033149362">
        <ele>679.78999999999996</ele>
        <time>2025-05-19T10:19:14Z</time>
      </trkpt>
      <trkpt lat="44.074071021750569" lon="7.867284994572401">
        <ele>681.23000000000002</ele>
        <time>2025-05-19T10:19:15Z</time>
      </trkpt>
      <trkpt lat="44.074238995090127" lon="7.867264039814472">
        <ele>682.66999999999996</ele>
        <time>2025-05-19T10:19:16Z</time>
      </trkpt>
      <trkpt lat="44.074514005333185" lon="7.867355989292264">
        <ele>686.03999999999996</ele>
        <time>2025-05-19T10:19:18Z</time>
      </trkpt>
      <trkpt lat="44.074643002822995" lon="7.867418015375733">
        <ele>687.96000000000004</ele>
        <time>2025-05-19T10:19:19Z</time>
      </trkpt>
      <trkpt lat="44.075153963640332" lon="7.867588000372052">
        <ele>692.28999999999996</ele>
        <time>2025-05-19T10:19:22Z</time>
      </trkpt>
      <trkpt lat="44.075837004929781" lon="7.867783969268203">
        <ele>698.04999999999995</ele>
        <time>2025-05-19T10:19:26Z</time>
      </trkpt>
      <trkpt lat="44.076201030984521" lon="7.867895029485226">
        <ele>701.89999999999998</ele>
        <time>2025-05-19T10:19:29Z</time>
      </trkpt>
      <trkpt lat="44.076318964362144" lon="7.867867033928633">
        <ele>702.86000000000001</ele>
        <time>2025-05-19T10:19:30Z</time>
      </trkpt>
      <trkpt lat="44.076364981010556" lon="7.867801990360022">
        <ele>703.82000000000005</ele>
        <time>2025-05-19T10:19:31Z</time>
      </trkpt>
      <trkpt lat="44.076383002102375" lon="7.867685984820128">
        <ele>705.25999999999999</ele>
        <time>2025-05-19T10:19:32Z</time>
      </trkpt>
      <trkpt lat="44.076361041516066" lon="7.867589006200433">
        <ele>706.23000000000002</ele>
        <time>2025-05-19T10:19:33Z</time>
      </trkpt>
      <trkpt lat="44.076311001554132" lon="7.867465037852526">
        <ele>707.66999999999996</ele>
        <time>2025-05-19T10:19:34Z</time>
      </trkpt>
      <trkpt lat="44.07624302431941" lon="7.867317013442516">
        <ele>708.63</ele>
        <time>2025-05-19T10:19:35Z</time>
      </trkpt>
      <trkpt lat="44.076172029599547" lon="7.867161026224494">
        <ele>709.59000000000003</ele>
        <time>2025-05-19T10:19:36Z</time>
      </trkpt>
      <trkpt lat="44.076116038486362" lon="7.866992969065905">
        <ele>710.54999999999995</ele>
        <time>2025-05-19T10:19:37Z</time>
      </trkpt>
      <trkpt lat="44.07607002183795" lon="7.866806974634528">
        <ele>711.99000000000001</ele>
        <time>2025-05-19T10:19:38Z</time>
      </trkpt>
      <trkpt lat="44.076032973825932" lon="7.866619974374771">
        <ele>713.44000000000005</ele>
        <time>2025-05-19T10:19:39Z</time>
      </trkpt>
      <trkpt lat="44.076012019068003" lon="7.866489971056581">
        <ele>714.88</ele>
        <time>2025-05-19T10:19:40Z</time>
      </trkpt>
      <trkpt lat="44.076009001582861" lon="7.866282016038895">
        <ele>716.32000000000005</ele>
        <time>2025-05-19T10:19:41Z</time>
      </trkpt>
      <trkpt lat="44.076001960784197" lon="7.866117982193828">
        <ele>717.27999999999997</ele>
        <time>2025-05-19T10:19:42Z</time>
      </trkpt>
      <trkpt lat="44.075996009632945" lon="7.865957971662283">
        <ele>718.24000000000001</ele>
        <time>2025-05-19T10:19:43Z</time>
      </trkpt>
      <trkpt lat="44.0759879630059" lon="7.865180969238281">
        <ele>722.09000000000003</ele>
        <time>2025-05-19T10:19:48Z</time>
      </trkpt>
      <trkpt lat="44.075969019904733" lon="7.865008972585201">
        <ele>723.04999999999995</ele>
        <time>2025-05-19T10:19:49Z</time>
      </trkpt>
      <trkpt lat="44.075914034619927" lon="7.864872012287378">
        <ele>724.00999999999999</ele>
        <time>2025-05-19T10:19:50Z</time>
      </trkpt>
      <trkpt lat="44.075860977172852" lon="7.86472599953413">
        <ele>724.49000000000001</ele>
        <time>2025-05-19T10:19:51Z</time>
      </trkpt>
      <trkpt lat="44.07581303268671" lon="7.864572023972869">
        <ele>725.45000000000005</ele>
        <time>2025-05-19T10:19:52Z</time>
      </trkpt>
      <trkpt lat="44.075754024088383" lon="7.864387035369873">
        <ele>726.40999999999997</ele>
        <time>2025-05-19T10:19:53Z</time>
      </trkpt>
      <trkpt lat="44.075767016038299" lon="7.864269018173218">
        <ele>726.88999999999999</ele>
        <time>2025-05-19T10:19:54Z</time>
      </trkpt>
      <trkpt lat="44.075784031301737" lon="7.86410003900528">
        <ele>727.37</ele>
        <time>2025-05-19T10:19:55Z</time>
      </trkpt>
      <trkpt lat="44.075806997716427" lon="7.863929970189929">
        <ele>727.86000000000001</ele>
        <time>2025-05-19T10:19:56Z</time>
      </trkpt>
      <trkpt lat="44.075866006314754" lon="7.863632999360561">
        <ele>729.29999999999995</ele>
        <time>2025-05-19T10:19:58Z</time>
      </trkpt>
      <trkpt lat="44.075926020741463" lon="7.86350199021399">
        <ele>730.25999999999999</ele>
        <time>2025-05-19T10:19:59Z</time>
      </trkpt>
      <trkpt lat="44.075996009632945" lon="7.863424960523844">
        <ele>730.74000000000001</ele>
        <time>2025-05-19T10:20:00Z</time>
      </trkpt>
      <trkpt lat="44.076068010181189" lon="7.863344997167587">
        <ele>731.22000000000003</ele>
        <time>2025-05-19T10:20:01Z</time>
      </trkpt>
      <trkpt lat="44.076151996850967" lon="7.863269979134202">
        <ele>731.22000000000003</ele>
        <time>2025-05-19T10:20:02Z</time>
      </trkpt>
      <trkpt lat="44.076231038197875" lon="7.86319999024272">
        <ele>731.22000000000003</ele>
        <time>2025-05-19T10:20:03Z</time>
      </trkpt>
      <trkpt lat="44.076298009604216" lon="7.863117009401321">
        <ele>730.74000000000001</ele>
        <time>2025-05-19T10:20:04Z</time>
      </trkpt>
      <trkpt lat="44.076363975182176" lon="7.863025981932879">
        <ele>730.74000000000001</ele>
        <time>2025-05-19T10:20:05Z</time>
      </trkpt>
      <trkpt lat="44.076419966295362" lon="7.862948030233383">
        <ele>731.22000000000003</ele>
        <time>2025-05-19T10:20:06Z</time>
      </trkpt>
      <trkpt lat="44.076453996822238" lon="7.862834958359599">
        <ele>731.70000000000005</ele>
        <time>2025-05-19T10:20:07Z</time>
      </trkpt>
      <trkpt lat="44.076486015692353" lon="7.862720964476466">
        <ele>732.17999999999995</ele>
        <time>2025-05-19T10:20:08Z</time>
      </trkpt>
      <trkpt lat="44.076504958793521" lon="7.862600013613701">
        <ele>732.65999999999997</ele>
        <time>2025-05-19T10:20:09Z</time>
      </trkpt>
      <trkpt lat="44.076538989320397" lon="7.862387029454112">
        <ele>733.13999999999999</ele>
        <time>2025-05-19T10:20:11Z</time>
      </trkpt>
      <trkpt lat="44.076579976826906" lon="7.86227798089385">
        <ele>732.65999999999997</ele>
        <time>2025-05-19T10:20:12Z</time>
      </trkpt>
      <trkpt lat="44.076643008738756" lon="7.862177984789014">
        <ele>732.65999999999997</ele>
        <time>2025-05-19T10:20:13Z</time>
      </trkpt>
      <trkpt lat="44.076705034822226" lon="7.86208301782608">
        <ele>732.65999999999997</ele>
        <time>2025-05-19T10:20:14Z</time>
      </trkpt>
      <trkpt lat="44.076763037592173" lon="7.861990984529257">
        <ele>732.65999999999997</ele>
        <time>2025-05-19T10:20:15Z</time>
      </trkpt>
      <trkpt lat="44.076822968199849" lon="7.861898029223084">
        <ele>732.65999999999997</ele>
        <time>2025-05-19T10:20:16Z</time>
      </trkpt>
      <trkpt lat="44.076883988454938" lon="7.861802978441119">
        <ele>733.62</ele>
        <time>2025-05-19T10:20:17Z</time>
      </trkpt>
      <trkpt lat="44.076968980953097" lon="7.861743969842792">
        <ele>734.58000000000004</ele>
        <time>2025-05-19T10:20:18Z</time>
      </trkpt>
      <trkpt lat="44.077063025906682" lon="7.861723015084863">
        <ele>735.07000000000005</ele>
        <time>2025-05-19T10:20:19Z</time>
      </trkpt>
      <trkpt lat="44.077150030061603" lon="7.86171798594296">
        <ele>736.02999999999997</ele>
        <time>2025-05-19T10:20:20Z</time>
      </trkpt>
      <trkpt lat="44.077229993417859" lon="7.861713962629437">
        <ele>736.50999999999999</ele>
        <time>2025-05-19T10:20:21Z</time>
      </trkpt>
      <trkpt lat="44.077304005622864" lon="7.861710023134947">
        <ele>737.47000000000003</ele>
        <time>2025-05-19T10:20:22Z</time>
      </trkpt>
      <trkpt lat="44.077384974807501" lon="7.861704993993044">
        <ele>738.42999999999995</ele>
        <time>2025-05-19T10:20:23Z</time>
      </trkpt>
      <trkpt lat="44.077459992840886" lon="7.861723015084863">
        <ele>739.38999999999999</ele>
        <time>2025-05-19T10:20:24Z</time>
      </trkpt>
      <trkpt lat="44.077538028359413" lon="7.861780012026429">
        <ele>740.35000000000002</ele>
        <time>2025-05-19T10:20:25Z</time>
      </trkpt>
      <trkpt lat="44.077602988108993" lon="7.861831979826093">
        <ele>741.30999999999995</ele>
        <time>2025-05-19T10:20:26Z</time>
      </trkpt>
      <trkpt lat="44.077659985050559" lon="7.861876990646124">
        <ele>742.27999999999997</ele>
        <time>2025-05-19T10:20:27Z</time>
      </trkpt>
      <trkpt lat="44.07768496312201" lon="7.861898029223084">
        <ele>743.24000000000001</ele>
        <time>2025-05-19T10:20:28Z</time>
      </trkpt>
      <trkpt lat="44.077752018347383" lon="7.861898029223084">
        <ele>743.72000000000003</ele>
        <time>2025-05-19T10:20:29Z</time>
      </trkpt>
      <trkpt lat="44.07781002111733" lon="7.861898029223084">
        <ele>744.67999999999995</ele>
        <time>2025-05-19T10:20:30Z</time>
      </trkpt>
      <trkpt lat="44.077879004180431" lon="7.861898029223084">
        <ele>744.67999999999995</ele>
        <time>2025-05-19T10:20:31Z</time>
      </trkpt>
      <trkpt lat="44.077914040535688" lon="7.861826028674841">
        <ele>745.15999999999997</ele>
        <time>2025-05-19T10:20:32Z</time>
      </trkpt>
      <trkpt lat="44.077958967536688" lon="7.861736007034779">
        <ele>745.63999999999999</ele>
        <time>2025-05-19T10:20:33Z</time>
      </trkpt>
      <trkpt lat="44.078006995841861" lon="7.861641040071845">
        <ele>746.12</ele>
        <time>2025-05-19T10:20:34Z</time>
      </trkpt>
      <trkpt lat="44.078243030235171" lon="7.861150028184056">
        <ele>748.03999999999996</ele>
        <time>2025-05-19T10:20:39Z</time>
      </trkpt>
      <trkpt lat="44.07830698415637" lon="7.861062018200755">
        <ele>749</ele>
        <time>2025-05-19T10:20:40Z</time>
      </trkpt>
      <trkpt lat="44.078379990532994" lon="7.860983982682228">
        <ele>749.49000000000001</ele>
        <time>2025-05-19T10:20:41Z</time>
      </trkpt>
      <trkpt lat="44.078548969700933" lon="7.860803017392755">
        <ele>750.92999999999995</ele>
        <time>2025-05-19T10:20:43Z</time>
      </trkpt>
      <trkpt lat="44.078719038516283" lon="7.860556002706289">
        <ele>752.85000000000002</ele>
        <time>2025-05-19T10:20:45Z</time>
      </trkpt>
      <trkpt lat="44.078995976597071" lon="7.860012017190456">
        <ele>756.69000000000005</ele>
        <time>2025-05-19T10:20:49Z</time>
      </trkpt>
      <trkpt lat="44.079038975760341" lon="7.859863992780447">
        <ele>757.65999999999997</ele>
        <time>2025-05-19T10:20:50Z</time>
      </trkpt>
      <trkpt lat="44.079044004902244" lon="7.859703982248902">
        <ele>758.62</ele>
        <time>2025-05-19T10:20:51Z</time>
      </trkpt>
      <trkpt lat="44.079160010442138" lon="7.858915999531746">
        <ele>762.94000000000005</ele>
        <time>2025-05-19T10:20:57Z</time>
      </trkpt>
      <trkpt lat="44.079219019040465" lon="7.858814997598529">
        <ele>763.89999999999998</ele>
        <time>2025-05-19T10:20:58Z</time>
      </trkpt>
      <trkpt lat="44.079288002103567" lon="7.85870997235179">
        <ele>764.38999999999999</ele>
        <time>2025-05-19T10:20:59Z</time>
      </trkpt>
      <trkpt lat="44.07946796156466" lon="7.858560020104051">
        <ele>765.83000000000004</ele>
        <time>2025-05-19T10:21:01Z</time>
      </trkpt>
      <trkpt lat="44.079545997083187" lon="7.858503023162484">
        <ele>766.30999999999995</ele>
        <time>2025-05-19T10:21:02Z</time>
      </trkpt>
      <trkpt lat="44.079619003459811" lon="7.858482990413904">
        <ele>767.75</ele>
        <time>2025-05-19T10:21:03Z</time>
      </trkpt>
      <trkpt lat="44.079695027321577" lon="7.858461029827595">
        <ele>769.19000000000005</ele>
        <time>2025-05-19T10:21:04Z</time>
      </trkpt>
      <trkpt lat="44.079774990677834" lon="7.858437979593873">
        <ele>770.14999999999998</ele>
        <time>2025-05-19T10:21:05Z</time>
      </trkpt>
      <trkpt lat="44.07985202036798" lon="7.858392968773842">
        <ele>771.11000000000001</ele>
        <time>2025-05-19T10:21:06Z</time>
      </trkpt>
      <trkpt lat="44.079913040623069" lon="7.858309987932444">
        <ele>772.55999999999995</ele>
        <time>2025-05-19T10:21:07Z</time>
      </trkpt>
      <trkpt lat="44.080002978444099" lon="7.858186019584537">
        <ele>773.51999999999998</ele>
        <time>2025-05-19T10:21:08Z</time>
      </trkpt>
      <trkpt lat="44.08002401702106" lon="7.858077976852655">
        <ele>774.96000000000004</ele>
        <time>2025-05-19T10:21:09Z</time>
      </trkpt>
      <trkpt lat="44.080051006749272" lon="7.857945039868355">
        <ele>776.39999999999998</ele>
        <time>2025-05-19T10:21:10Z</time>
      </trkpt>
      <trkpt lat="44.080076990649104" lon="7.857815958559513">
        <ele>777.36000000000001</ele>
        <time>2025-05-19T10:21:11Z</time>
      </trkpt>
      <trkpt lat="44.080080008134246" lon="7.857673969119787">
        <ele>778.80999999999995</ele>
        <time>2025-05-19T10:21:12Z</time>
      </trkpt>
      <trkpt lat="44.080068022012711" lon="7.857553018257022">
        <ele>780.25</ele>
        <time>2025-05-19T10:21:13Z</time>
      </trkpt>
      <trkpt lat="44.079999960958958" lon="7.857447993010283">
        <ele>781.21000000000004</ele>
        <time>2025-05-19T10:21:14Z</time>
      </trkpt>
      <trkpt lat="44.07993801869452" lon="7.857363000512123">
        <ele>782.16999999999996</ele>
        <time>2025-05-19T10:21:15Z</time>
      </trkpt>
      <trkpt lat="44.079872975125909" lon="7.857272978872061">
        <ele>783.13</ele>
        <time>2025-05-19T10:21:16Z</time>
      </trkpt>
      <trkpt lat="44.079806003719568" lon="7.857179017737508">
        <ele>784.09000000000003</ele>
        <time>2025-05-19T10:21:17Z</time>
      </trkpt>
      <trkpt lat="44.079740038141608" lon="7.857086984440684">
        <ele>785.04999999999995</ele>
        <time>2025-05-19T10:21:18Z</time>
      </trkpt>
      <trkpt lat="44.079681029543281" lon="7.857006015256047">
        <ele>786.01999999999998</ele>
        <time>2025-05-19T10:21:19Z</time>
      </trkpt>
      <trkpt lat="44.079644987359643" lon="7.85688397474587">
        <ele>786.5</ele>
        <time>2025-05-19T10:21:20Z</time>
      </trkpt>
      <trkpt lat="44.07961699180305" lon="7.856774004176259">
        <ele>786.5</ele>
        <time>2025-05-19T10:21:21Z</time>
      </trkpt>
      <trkpt lat="44.07961699180305" lon="7.85664601251483">
        <ele>787.46000000000004</ele>
        <time>2025-05-19T10:21:22Z</time>
      </trkpt>
      <trkpt lat="44.07961699180305" lon="7.856511985883117">
        <ele>787.94000000000005</ele>
        <time>2025-05-19T10:21:23Z</time>
      </trkpt>
      <trkpt lat="44.079644987359643" lon="7.856441996991634">
        <ele>788.89999999999998</ele>
        <time>2025-05-19T10:21:24Z</time>
      </trkpt>
      <trkpt lat="44.079683963209391" lon="7.856344012543559">
        <ele>788.89999999999998</ele>
        <time>2025-05-19T10:21:25Z</time>
      </trkpt>
      <trkpt lat="44.079742971807718" lon="7.856270000338554">
        <ele>788.89999999999998</ele>
        <time>2025-05-19T10:21:26Z</time>
      </trkpt>
      <trkpt lat="44.079817989841104" lon="7.856220966205001">
        <ele>789.38</ele>
        <time>2025-05-19T10:21:27Z</time>
      </trkpt>
      <trkpt lat="44.079896025359631" lon="7.856168998405337">
        <ele>789.38</ele>
        <time>2025-05-19T10:21:28Z</time>
      </trkpt>
      <trkpt lat="44.079974982887506" lon="7.856116024777293">
        <ele>789.38</ele>
        <time>2025-05-19T10:21:29Z</time>
      </trkpt>
      <trkpt lat="44.080055030062795" lon="7.856062967330217">
        <ele>789.38</ele>
        <time>2025-05-19T10:21:30Z</time>
      </trkpt>
      <trkpt lat="44.08013298176229" lon="7.856010999530554">
        <ele>789.86000000000001</ele>
        <time>2025-05-19T10:21:31Z</time>
      </trkpt>
      <trkpt lat="44.080201964825392" lon="7.855942016467452">
        <ele>789.86000000000001</ele>
        <time>2025-05-19T10:21:32Z</time>
      </trkpt>
      <trkpt lat="44.080345965921879" lon="7.855783011764288">
        <ele>791.29999999999995</ele>
        <time>2025-05-19T10:21:34Z</time>
      </trkpt>
      <trkpt lat="44.080378990620375" lon="7.855685027316213">
        <ele>791.77999999999997</ele>
        <time>2025-05-19T10:21:35Z</time>
      </trkpt>
      <trkpt lat="44.080444034188986" lon="7.85548897460103">
        <ele>792.74000000000001</ele>
        <time>2025-05-19T10:21:37Z</time>
      </trkpt>
      <trkpt lat="44.080465994775295" lon="7.855396019294858">
        <ele>793.22000000000003</ele>
        <time>2025-05-19T10:21:38Z</time>
      </trkpt>
      <trkpt lat="44.080485021695495" lon="7.855302980169654">
        <ele>793.71000000000004</ele>
        <time>2025-05-19T10:21:39Z</time>
      </trkpt>
      <trkpt lat="44.080502958968282" lon="7.855213964357972">
        <ele>793.71000000000004</ele>
        <time>2025-05-19T10:21:40Z</time>
      </trkpt>
      <trkpt lat="44.080522991716862" lon="7.855130983516574">
        <ele>794.19000000000005</ele>
        <time>2025-05-19T10:21:41Z</time>
      </trkpt>
      <trkpt lat="44.080563979223371" lon="7.855072980746627">
        <ele>794.19000000000005</ele>
        <time>2025-05-19T10:21:42Z</time>
      </trkpt>
      <trkpt lat="44.08060303889215" lon="7.855053031817079">
        <ele>794.66999999999996</ele>
        <time>2025-05-19T10:21:43Z</time>
      </trkpt>
      <trkpt lat="44.080666992813349" lon="7.855056971311569">
        <ele>794.66999999999996</ele>
        <time>2025-05-19T10:21:44Z</time>
      </trkpt>
      <trkpt lat="44.080702029168606" lon="7.85510097630322">
        <ele>795.14999999999998</ele>
        <time>2025-05-19T10:21:45Z</time>
      </trkpt>
      <trkpt lat="44.080720972269773" lon="7.855185968801379">
        <ele>795.63</ele>
        <time>2025-05-19T10:21:46Z</time>
      </trkpt>
      <trkpt lat="44.080702029168606" lon="7.855265010148287">
        <ele>796.11000000000001</ele>
        <time>2025-05-19T10:21:47Z</time>
      </trkpt>
      <trkpt lat="44.080677973106503" lon="7.855366012081504">
        <ele>796.59000000000003</ele>
        <time>2025-05-19T10:21:48Z</time>
      </trkpt>
      <trkpt lat="44.080652995035052" lon="7.855473970994353">
        <ele>796.59000000000003</ele>
        <time>2025-05-19T10:21:49Z</time>
      </trkpt>
      <trkpt lat="44.080586023628712" lon="7.855705982074142">
        <ele>797.07000000000005</ele>
        <time>2025-05-19T10:21:51Z</time>
      </trkpt>
      <trkpt lat="44.080546963959932" lon="7.855823999270797">
        <ele>797.07000000000005</ele>
        <time>2025-05-19T10:21:52Z</time>
      </trkpt>
      <trkpt lat="44.080473035573959" lon="7.855923995375633">
        <ele>797.54999999999995</ele>
        <time>2025-05-19T10:21:53Z</time>
      </trkpt>
      <trkpt lat="44.080397011712193" lon="7.856013011187315">
        <ele>797.54999999999995</ele>
        <time>2025-05-19T10:21:54Z</time>
      </trkpt>
      <trkpt lat="44.080329034477472" lon="7.856091968715191">
        <ele>797.54999999999995</ele>
        <time>2025-05-19T10:21:55Z</time>
      </trkpt>
      <trkpt lat="44.080272037535906" lon="7.856158018112183">
        <ele>798.02999999999997</ele>
        <time>2025-05-19T10:21:56Z</time>
      </trkpt>
      <trkpt lat="44.080217974260449" lon="7.856220966205001">
        <ele>798.02999999999997</ele>
        <time>2025-05-19T10:21:57Z</time>
      </trkpt>
      <trkpt lat="44.080152008682489" lon="7.856307970359922">
        <ele>798.02999999999997</ele>
        <time>2025-05-19T10:21:58Z</time>
      </trkpt>
      <trkpt lat="44.080144967883825" lon="7.856425987556577">
        <ele>798.02999999999997</ele>
        <time>2025-05-19T10:21:59Z</time>
      </trkpt>
      <trkpt lat="44.080137005075812" lon="7.856549033895135">
        <ele>798.02999999999997</ele>
        <time>2025-05-19T10:22:00Z</time>
      </trkpt>
      <trkpt lat="44.080142034217715" lon="7.856680965051055">
        <ele>798.02999999999997</ele>
        <time>2025-05-19T10:22:01Z</time>
      </trkpt>
      <trkpt lat="44.080169023945928" lon="7.856790013611317">
        <ele>798.99000000000001</ele>
        <time>2025-05-19T10:22:02Z</time>
      </trkpt>
      <trkpt lat="44.080216968432069" lon="7.856919011101127">
        <ele>799.47000000000003</ele>
        <time>2025-05-19T10:22:03Z</time>
      </trkpt>
      <trkpt lat="44.080286035314202" lon="7.856987994164228">
        <ele>799.95000000000005</ele>
        <time>2025-05-19T10:22:04Z</time>
      </trkpt>
      <trkpt lat="44.080353006720543" lon="7.857054965570569">
        <ele>800.44000000000005</ele>
        <time>2025-05-19T10:22:05Z</time>
      </trkpt>
      <trkpt lat="44.080414026975632" lon="7.857116991654038">
        <ele>800.44000000000005</ele>
        <time>2025-05-19T10:22:06Z</time>
      </trkpt>
      <trkpt lat="44.080459037795663" lon="7.85716200247407">
        <ele>801.39999999999998</ele>
        <time>2025-05-19T10:22:10Z</time>
      </trkpt>
      <trkpt lat="44.080501031130552" lon="7.857203995808959">
        <ele>801.88</ele>
        <time>2025-05-19T10:22:12Z</time>
      </trkpt>
      <trkpt lat="44.080546963959932" lon="7.85724900662899">
        <ele>802.36000000000001</ele>
        <time>2025-05-19T10:22:13Z</time>
      </trkpt>
      <trkpt lat="44.080597003921866" lon="7.857298962771893">
        <ele>802.84000000000003</ele>
        <time>2025-05-19T10:22:14Z</time>
      </trkpt>
      <trkpt lat="44.080607984215021" lon="7.857353026047349">
        <ele>803.32000000000005</ele>
        <time>2025-05-19T10:22:15Z</time>
      </trkpt>
      <trkpt lat="44.080616030842066" lon="7.857432989403606">
        <ele>803.79999999999995</ele>
        <time>2025-05-19T10:22:16Z</time>
      </trkpt>
      <trkpt lat="44.080623993650079" lon="7.85752703435719">
        <ele>804.27999999999997</ele>
        <time>2025-05-19T10:22:17Z</time>
      </trkpt>
      <trkpt lat="44.080601027235389" lon="7.85763499327004">
        <ele>804.75999999999999</ele>
        <time>2025-05-19T10:22:18Z</time>
      </trkpt>
      <trkpt lat="44.080576971173286" lon="7.857743036001921">
        <ele>804.75999999999999</ele>
        <time>2025-05-19T10:22:19Z</time>
      </trkpt>
      <trkpt lat="44.080569008365273" lon="7.857876978814602">
        <ele>805.24000000000001</ele>
        <time>2025-05-19T10:22:20Z</time>
      </trkpt>
      <trkpt lat="44.080586023628712" lon="7.857997007668018">
        <ele>806.20000000000005</ele>
        <time>2025-05-19T10:22:21Z</time>
      </trkpt>
      <trkpt lat="44.080613013356924" lon="7.858141008764505">
        <ele>807.15999999999997</ele>
        <time>2025-05-19T10:22:22Z</time>
      </trkpt>
      <trkpt lat="44.08066900447011" lon="7.858251985162497">
        <ele>807.63999999999999</ele>
        <time>2025-05-19T10:22:23Z</time>
      </trkpt>
      <trkpt lat="44.080758020281792" lon="7.858382994309068">
        <ele>808.13</ele>
        <time>2025-05-19T10:22:24Z</time>
      </trkpt>
      <trkpt lat="44.080871008336544" lon="7.858482990413904">
        <ele>809.09000000000003</ele>
        <time>2025-05-19T10:22:25Z</time>
      </trkpt>
      <trkpt lat="44.080964969471097" lon="7.858553985133767">
        <ele>809.57000000000005</ele>
        <time>2025-05-19T10:22:26Z</time>
      </trkpt>
      <trkpt lat="44.08099003136158" lon="7.858572006225586">
        <ele>810.52999999999997</ele>
        <time>2025-05-19T10:22:27Z</time>
      </trkpt>
      <trkpt lat="44.081004029139876" lon="7.858640989288688">
        <ele>811.49000000000001</ele>
        <time>2025-05-19T10:22:28Z</time>
      </trkpt>
      <trkpt lat="44.081010986119509" lon="7.858678959310055">
        <ele>811.97000000000003</ele>
        <time>2025-05-19T10:22:29Z</time>
      </trkpt>
      <trkpt lat="44.080989025533199" lon="7.858758000656962">
        <ele>811.97000000000003</ele>
        <time>2025-05-19T10:22:30Z</time>
      </trkpt>
      <trkpt lat="44.08092699944973" lon="7.858864031732082">
        <ele>812.92999999999995</ele>
        <time>2025-05-19T10:22:31Z</time>
      </trkpt>
      <trkpt lat="44.080802025273442" lon="7.858963022008538">
        <ele>813.40999999999997</ele>
        <time>2025-05-19T10:22:32Z</time>
      </trkpt>
      <trkpt lat="44.080666992813349" lon="7.859056983143091">
        <ele>813.88999999999999</ele>
        <time>2025-05-19T10:22:33Z</time>
      </trkpt>
      <trkpt lat="44.080527015030384" lon="7.859153961762786">
        <ele>814.85000000000002</ele>
        <time>2025-05-19T10:22:34Z</time>
      </trkpt>
      <trkpt lat="44.080391982570291" lon="7.859248006716371">
        <ele>815.82000000000005</ele>
        <time>2025-05-19T10:22:35Z</time>
      </trkpt>
      <trkpt lat="44.080295003950596" lon="7.859399970620871">
        <ele>816.77999999999997</ele>
        <time>2025-05-19T10:22:36Z</time>
      </trkpt>
      <trkpt lat="44.080216968432069" lon="7.859583031386137">
        <ele>816.77999999999997</ele>
        <time>2025-05-19T10:22:37Z</time>
      </trkpt>
      <trkpt lat="44.080203976482153" lon="7.859791992232204">
        <ele>817.25999999999999</ele>
        <time>2025-05-19T10:22:38Z</time>
      </trkpt>
      <trkpt lat="44.080209005624056" lon="7.860007993876934">
        <ele>818.22000000000003</ele>
        <time>2025-05-19T10:22:39Z</time>
      </trkpt>
      <trkpt lat="44.080242030322552" lon="7.860229024663568">
        <ele>819.17999999999995</ele>
        <time>2025-05-19T10:22:40Z</time>
      </trkpt>
      <trkpt lat="44.080641008913517" lon="7.862124005332589">
        <ele>829.75999999999999</ele>
        <time>2025-05-19T10:22:48Z</time>
      </trkpt>
      <trkpt lat="44.080743016675115" lon="7.862607976421714">
        <ele>832.63999999999999</ele>
        <time>2025-05-19T10:22:50Z</time>
      </trkpt>
      <trkpt lat="44.080782998353243" lon="7.862830013036728">
        <ele>834.08000000000004</ele>
        <time>2025-05-19T10:22:51Z</time>
      </trkpt>
      <trkpt lat="44.080756008625031" lon="7.863039979711175">
        <ele>835.51999999999998</ele>
        <time>2025-05-19T10:22:52Z</time>
      </trkpt>
      <trkpt lat="44.080692976713181" lon="7.863215999677777">
        <ele>836.96000000000004</ele>
        <time>2025-05-19T10:22:53Z</time>
      </trkpt>
      <trkpt lat="44.080601027235389" lon="7.863377016037703">
        <ele>837.92999999999995</ele>
        <time>2025-05-19T10:22:54Z</time>
      </trkpt>
      <trkpt lat="44.080502958968282" lon="7.863549012690783">
        <ele>839.37</ele>
        <time>2025-05-19T10:22:55Z</time>
      </trkpt>
      <trkpt lat="44.080339008942246" lon="7.863922007381916">
        <ele>841.76999999999998</ele>
        <time>2025-05-19T10:22:57Z</time>
      </trkpt>
      <trkpt lat="44.080273965373635" lon="7.864111019298434">
        <ele>843.21000000000004</ele>
        <time>2025-05-19T10:22:58Z</time>
      </trkpt>
      <trkpt lat="44.08019601367414" lon="7.864559032022953">
        <ele>846.58000000000004</ele>
        <time>2025-05-19T10:23:01Z</time>
      </trkpt>
      <trkpt lat="44.080232977867126" lon="7.864694986492395">
        <ele>848.01999999999998</ele>
        <time>2025-05-19T10:23:02Z</time>
      </trkpt>
      <trkpt lat="44.080259967595339" lon="7.864794982597232">
        <ele>848.98000000000002</ele>
        <time>2025-05-19T10:23:03Z</time>
      </trkpt>
      <trkpt lat="44.080367004498839" lon="7.864839993417263">
        <ele>849.46000000000004</ele>
        <time>2025-05-19T10:23:04Z</time>
      </trkpt>
      <trkpt lat="44.080492984503508" lon="7.864893972873688">
        <ele>850.41999999999996</ele>
        <time>2025-05-19T10:23:05Z</time>
      </trkpt>
      <trkpt lat="44.080611001700163" lon="7.864959016442299">
        <ele>850.89999999999998</ele>
        <time>2025-05-19T10:23:06Z</time>
      </trkpt>
      <trkpt lat="44.080707980319858" lon="7.86502699367702">
        <ele>851.38</ele>
        <time>2025-05-19T10:23:07Z</time>
      </trkpt>
      <trkpt lat="44.080786015838385" lon="7.865105029195547">
        <ele>852.35000000000002</ele>
        <time>2025-05-19T10:23:08Z</time>
      </trkpt>
      <trkpt lat="44.080839995294809" lon="7.865266967564821">
        <ele>852.83000000000004</ele>
        <time>2025-05-19T10:23:09Z</time>
      </trkpt>
      <trkpt lat="44.080854998901486" lon="7.865405017510057">
        <ele>853.78999999999996</ele>
        <time>2025-05-19T10:23:10Z</time>
      </trkpt>
      <trkpt lat="44.080839995294809" lon="7.865610038861632">
        <ele>855.23000000000002</ele>
        <time>2025-05-19T10:23:11Z</time>
      </trkpt>
      <trkpt lat="44.080816023051739" lon="7.865817993879318">
        <ele>856.66999999999996</ele>
        <time>2025-05-19T10:23:12Z</time>
      </trkpt>
      <trkpt lat="44.080785010010004" lon="7.866622991859913">
        <ele>862.44000000000005</ele>
        <time>2025-05-19T10:23:16Z</time>
      </trkpt>
      <trkpt lat="44.080776963382959" lon="7.866823989897966">
        <ele>863.88</ele>
        <time>2025-05-19T10:23:17Z</time>
      </trkpt>
      <trkpt lat="44.080714015290141" lon="7.867019036784768">
        <ele>864.84000000000003</ele>
        <time>2025-05-19T10:23:18Z</time>
      </trkpt>
      <trkpt lat="44.080634973943233" lon="7.867200002074242">
        <ele>866.28999999999996</ele>
        <time>2025-05-19T10:23:19Z</time>
      </trkpt>
      <trkpt lat="44.080558028072119" lon="7.867379039525986">
        <ele>867.73000000000002</ele>
        <time>2025-05-19T10:23:20Z</time>
      </trkpt>
      <trkpt lat="44.080355018377304" lon="7.867911960929632">
        <ele>872.52999999999997</ele>
        <time>2025-05-19T10:23:23Z</time>
      </trkpt>
      <trkpt lat="44.080329034477472" lon="7.868107007816434">
        <ele>873.98000000000002</ele>
        <time>2025-05-19T10:23:24Z</time>
      </trkpt>
      <trkpt lat="44.0802619792521" lon="7.868515038862824">
        <ele>875.89999999999998</ele>
        <time>2025-05-19T10:23:26Z</time>
      </trkpt>
      <trkpt lat="44.080197019502521" lon="7.868684018030763">
        <ele>877.34000000000003</ele>
        <time>2025-05-19T10:23:27Z</time>
      </trkpt>
      <trkpt lat="44.0801100153476" lon="7.868820978328586">
        <ele>878.77999999999997</ele>
        <time>2025-05-19T10:23:28Z</time>
      </trkpt>
      <trkpt lat="44.079706007614732" lon="7.869337974116206">
        <ele>884.07000000000005</ele>
        <time>2025-05-19T10:23:32Z</time>
      </trkpt>
      <trkpt lat="44.079636018723249" lon="7.869470994919539">
        <ele>885.02999999999997</ele>
        <time>2025-05-19T10:23:33Z</time>
      </trkpt>
      <trkpt lat="44.079621015116572" lon="7.86962203681469">
        <ele>885.99000000000001</ele>
        <time>2025-05-19T10:23:34Z</time>
      </trkpt>
      <trkpt lat="44.079651022329926" lon="7.86975396797061">
        <ele>886.95000000000005</ele>
        <time>2025-05-19T10:23:35Z</time>
      </trkpt>
      <trkpt lat="44.07970299012959" lon="7.869891012087464">
        <ele>887.42999999999995</ele>
        <time>2025-05-19T10:23:36Z</time>
      </trkpt>
      <trkpt lat="44.079768033698201" lon="7.87003300152719">
        <ele>888.39999999999998</ele>
        <time>2025-05-19T10:23:37Z</time>
      </trkpt>
      <trkpt lat="44.079899964854121" lon="7.870342964306474">
        <ele>889.84000000000003</ele>
        <time>2025-05-19T10:23:39Z</time>
      </trkpt>
      <trkpt lat="44.079959979280829" lon="7.870567012578249">
        <ele>890.79999999999995</ele>
        <time>2025-05-19T10:23:40Z</time>
      </trkpt>
      <trkpt lat="44.079959979280829" lon="7.870743032544851">
        <ele>891.75999999999999</ele>
        <time>2025-05-19T10:23:41Z</time>
      </trkpt>
      <trkpt lat="44.080004990100861" lon="7.871132958680391">
        <ele>893.67999999999995</ele>
        <time>2025-05-19T10:23:43Z</time>
      </trkpt>
      <trkpt lat="44.080051006749272" lon="7.8713190369308">
        <ele>894.63999999999999</ele>
        <time>2025-05-19T10:23:44Z</time>
      </trkpt>
      <trkpt lat="44.080097023397684" lon="7.871501008048654">
        <ele>895.61000000000001</ele>
        <time>2025-05-19T10:23:45Z</time>
      </trkpt>
      <trkpt lat="44.080176986753941" lon="7.871646014973521">
        <ele>896.57000000000005</ele>
        <time>2025-05-19T10:23:46Z</time>
      </trkpt>
      <trkpt lat="44.08028201200068" lon="7.871790016070008">
        <ele>897.52999999999997</ele>
        <time>2025-05-19T10:23:47Z</time>
      </trkpt>
      <trkpt lat="44.08041100949049" lon="7.871853969991207">
        <ele>898.97000000000003</ele>
        <time>2025-05-19T10:23:48Z</time>
      </trkpt>
      <trkpt lat="44.080539001151919" lon="7.871912978589535">
        <ele>899.92999999999995</ele>
        <time>2025-05-19T10:23:49Z</time>
      </trkpt>
      <trkpt lat="44.081935007125139" lon="7.872568024322391">
        <ele>910.02999999999997</ele>
        <time>2025-05-19T10:23:57Z</time>
      </trkpt>
      <trkpt lat="44.082722989842296" lon="7.872889973223209">
        <ele>917.24000000000001</ele>
        <time>2025-05-19T10:24:02Z</time>
      </trkpt>
      <trkpt lat="44.082849975675344" lon="7.872902965173125">
        <ele>918.67999999999995</ele>
        <time>2025-05-19T10:24:03Z</time>
      </trkpt>
      <trkpt lat="44.082980984821916" lon="7.872891984879971">
        <ele>920.12</ele>
        <time>2025-05-19T10:24:04Z</time>
      </trkpt>
      <trkpt lat="44.083524970337749" lon="7.872755024582148">
        <ele>923.96000000000004</ele>
        <time>2025-05-19T10:24:08Z</time>
      </trkpt>
      <trkpt lat="44.083665031939745" lon="7.872714959084988">
        <ele>924.92999999999995</ele>
        <time>2025-05-19T10:24:09Z</time>
      </trkpt>
      <trkpt lat="44.083808027207851" lon="7.872700961306691">
        <ele>925.40999999999997</ele>
        <time>2025-05-19T10:24:10Z</time>
      </trkpt>
      <trkpt lat="44.083954961970448" lon="7.87269601598382">
        <ele>925.88999999999999</ele>
        <time>2025-05-19T10:24:11Z</time>
      </trkpt>
      <trkpt lat="44.084094017744064" lon="7.872725017368794">
        <ele>926.37</ele>
        <time>2025-05-19T10:24:12Z</time>
      </trkpt>
      <trkpt lat="44.084233995527029" lon="7.872754018753767">
        <ele>926.85000000000002</ele>
        <time>2025-05-19T10:24:13Z</time>
      </trkpt>
      <trkpt lat="44.084374979138374" lon="7.872783020138741">
        <ele>927.33000000000004</ele>
        <time>2025-05-19T10:24:14Z</time>
      </trkpt>
      <trkpt lat="44.085224987939" lon="7.872875975444913">
        <ele>930.21000000000004</ele>
        <time>2025-05-19T10:24:20Z</time>
      </trkpt>
      <trkpt lat="44.085360020399094" lon="7.872873041778803">
        <ele>930.21000000000004</ele>
        <time>2025-05-19T10:24:21Z</time>
      </trkpt>
      <trkpt lat="44.086375990882516" lon="7.872819984331727">
        <ele>932.13999999999999</ele>
        <time>2025-05-19T10:24:28Z</time>
      </trkpt>
      <trkpt lat="44.086517980322242" lon="7.872820990160108">
        <ele>932.62</ele>
        <time>2025-05-19T10:24:29Z</time>
      </trkpt>
      <trkpt lat="44.086664998903871" lon="7.872831970453262">
        <ele>932.13999999999999</ele>
        <time>2025-05-19T10:24:30Z</time>
      </trkpt>
      <trkpt lat="44.08681302331388" lon="7.872848985716701">
        <ele>931.64999999999998</ele>
        <time>2025-05-19T10:24:31Z</time>
      </trkpt>
      <trkpt lat="44.086959036067128" lon="7.872888967394829">
        <ele>931.16999999999996</ele>
        <time>2025-05-19T10:24:32Z</time>
      </trkpt>
      <trkpt lat="44.087105970829725" lon="7.872929032891989">
        <ele>930.69000000000005</ele>
        <time>2025-05-19T10:24:33Z</time>
      </trkpt>
      <trkpt lat="44.087247960269451" lon="7.872968008741736">
        <ele>930.21000000000004</ele>
        <time>2025-05-19T10:24:34Z</time>
      </trkpt>
      <trkpt lat="44.087387016043067" lon="7.873005978763104">
        <ele>929.25</ele>
        <time>2025-05-19T10:24:35Z</time>
      </trkpt>
      <trkpt lat="44.087527999654412" lon="7.873044032603502">
        <ele>928.28999999999996</ele>
        <time>2025-05-19T10:24:36Z</time>
      </trkpt>
      <trkpt lat="44.087665965780616" lon="7.873077979311347">
        <ele>927.33000000000004</ele>
        <time>2025-05-19T10:24:37Z</time>
      </trkpt>
      <trkpt lat="44.08808397129178" lon="7.873128019273281">
        <ele>924.45000000000005</ele>
        <time>2025-05-19T10:24:40Z</time>
      </trkpt>
      <trkpt lat="44.08823199570179" lon="7.873158026486635">
        <ele>923.48000000000002</ele>
        <time>2025-05-19T10:24:41Z</time>
      </trkpt>
      <trkpt lat="44.088371973484755" lon="7.873228015378118">
        <ele>923</ele>
        <time>2025-05-19T10:24:42Z</time>
      </trkpt>
      <trkpt lat="44.088509017601609" lon="7.873295992612839">
        <ele>922.51999999999998</ele>
        <time>2025-05-19T10:24:43Z</time>
      </trkpt>
      <trkpt lat="44.088650001212955" lon="7.873399006202817">
        <ele>921.55999999999995</ele>
        <time>2025-05-19T10:24:44Z</time>
      </trkpt>
      <trkpt lat="44.089106982573867" lon="7.873667981475592">
        <ele>920.12</ele>
        <time>2025-05-19T10:24:48Z</time>
      </trkpt>
      <trkpt lat="44.089231034740806" lon="7.873682985082269">
        <ele>919.63999999999999</ele>
        <time>2025-05-19T10:24:49Z</time>
      </trkpt>
      <trkpt lat="44.089361960068345" lon="7.873688014224172">
        <ele>919.15999999999997</ele>
        <time>2025-05-19T10:24:50Z</time>
      </trkpt>
      <trkpt lat="44.089495986700058" lon="7.873692959547043">
        <ele>918.20000000000005</ele>
        <time>2025-05-19T10:24:51Z</time>
      </trkpt>
      <trkpt lat="44.089659014716744" lon="7.873700000345707">
        <ele>917.72000000000003</ele>
        <time>2025-05-19T10:24:52Z</time>
      </trkpt>
      <trkpt lat="44.090769030153751" lon="7.873551975935698">
        <ele>910.50999999999999</ele>
        <time>2025-05-19T10:25:01Z</time>
      </trkpt>
      <trkpt lat="44.091525999829173" lon="7.873418033123016">
        <ele>904.25999999999999</ele>
        <time>2025-05-19T10:25:07Z</time>
      </trkpt>
      <trkpt lat="44.09164602868259" lon="7.873349972069264">
        <ele>903.29999999999995</ele>
        <time>2025-05-19T10:25:08Z</time>
      </trkpt>
      <trkpt lat="44.092093035578728" lon="7.873118966817856">
        <ele>901.37</ele>
        <time>2025-05-19T10:25:12Z</time>
      </trkpt>
      <trkpt lat="44.092212980613112" lon="7.87310597486794">
        <ele>900.88999999999999</ele>
        <time>2025-05-19T10:25:13Z</time>
      </trkpt>
      <trkpt lat="44.092330997809768" lon="7.873107986524701">
        <ele>900.40999999999997</ele>
        <time>2025-05-19T10:25:14Z</time>
      </trkpt>
      <trkpt lat="44.092886969447136" lon="7.873141011223197">
        <ele>898.00999999999999</ele>
        <time>2025-05-19T10:25:19Z</time>
      </trkpt>
      <trkpt lat="44.092997023835778" lon="7.873127013444901">
        <ele>897.52999999999997</ele>
        <time>2025-05-19T10:25:20Z</time>
      </trkpt>
      <trkpt lat="44.093106994405389" lon="7.873087031766772">
        <ele>897.04999999999995</ele>
        <time>2025-05-19T10:25:21Z</time>
      </trkpt>
      <trkpt lat="44.093214031308889" lon="7.873026011511684">
        <ele>897.04999999999995</ele>
        <time>2025-05-19T10:25:22Z</time>
      </trkpt>
      <trkpt lat="44.0933240018785" lon="7.872961973771453">
        <ele>896.57000000000005</ele>
        <time>2025-05-19T10:25:23Z</time>
      </trkpt>
      <trkpt lat="44.094039984047413" lon="7.872605994343758">
        <ele>894.63999999999999</ele>
        <time>2025-05-19T10:25:29Z</time>
      </trkpt>
      <trkpt lat="44.094409961253405" lon="7.872486971318722">
        <ele>893.20000000000005</ele>
        <time>2025-05-19T10:25:32Z</time>
      </trkpt>
      <trkpt lat="44.094538036733866" lon="7.872446989640594">
        <ele>892.72000000000003</ele>
        <time>2025-05-19T10:25:33Z</time>
      </trkpt>
      <trkpt lat="44.096363028511405" lon="7.871907027438283">
        <ele>886.47000000000003</ele>
        <time>2025-05-19T10:25:48Z</time>
      </trkpt>
      <trkpt lat="44.096983037889004" lon="7.871722960844636">
        <ele>887.42999999999995</ele>
        <time>2025-05-19T10:25:53Z</time>
      </trkpt>
      <trkpt lat="44.09710499458015" lon="7.871682979166508">
        <ele>887.90999999999997</ele>
        <time>2025-05-19T10:25:54Z</time>
      </trkpt>
      <trkpt lat="44.098209980875254" lon="7.871325993910432">
        <ele>890.32000000000005</ele>
        <time>2025-05-19T10:26:03Z</time>
      </trkpt>
      <trkpt lat="44.098826972767711" lon="7.871116027235985">
        <ele>889.84000000000003</ele>
        <time>2025-05-19T10:26:08Z</time>
      </trkpt>
      <trkpt lat="44.09910399466753" lon="7.871065987274051">
        <ele>889.36000000000001</ele>
        <time>2025-05-19T10:26:10Z</time>
      </trkpt>
      <trkpt lat="44.099251013249159" lon="7.87108501419425">
        <ele>889.36000000000001</ele>
        <time>2025-05-19T10:26:11Z</time>
      </trkpt>
      <trkpt lat="44.099715035408735" lon="7.871207976713777">
        <ele>887.90999999999997</ele>
        <time>2025-05-19T10:26:14Z</time>
      </trkpt>
      <trkpt lat="44.099878985434771" lon="7.871178975328803">
        <ele>887.42999999999995</ele>
        <time>2025-05-19T10:26:15Z</time>
      </trkpt>
      <trkpt lat="44.100044025108218" lon="7.871148968115449">
        <ele>887.42999999999995</ele>
        <time>2025-05-19T10:26:16Z</time>
      </trkpt>
      <trkpt lat="44.101396026089787" lon="7.870851997286081">
        <ele>885.02999999999997</ele>
        <time>2025-05-19T10:26:24Z</time>
      </trkpt>
      <trkpt lat="44.101542038843036" lon="7.870816960930824">
        <ele>884.07000000000005</ele>
        <time>2025-05-19T10:26:25Z</time>
      </trkpt>
      <trkpt lat="44.102703016251326" lon="7.870494006201625">
        <ele>880.22000000000003</ele>
        <time>2025-05-19T10:26:33Z</time>
      </trkpt>
      <trkpt lat="44.102840982377529" lon="7.870481014251709">
        <ele>879.74000000000001</ele>
        <time>2025-05-19T10:26:34Z</time>
      </trkpt>
      <trkpt lat="44.102980038151145" lon="7.870481014251709">
        <ele>879.74000000000001</ele>
        <time>2025-05-19T10:26:35Z</time>
      </trkpt>
      <trkpt lat="44.103123033419251" lon="7.870502974838018">
        <ele>879.25999999999999</ele>
        <time>2025-05-19T10:26:36Z</time>
      </trkpt>
      <trkpt lat="44.103268962353468" lon="7.870544968172908">
        <ele>879.25999999999999</ele>
        <time>2025-05-19T10:26:37Z</time>
      </trkpt>
      <trkpt lat="44.10443396307528" lon="7.870875969529152">
        <ele>877.34000000000003</ele>
        <time>2025-05-19T10:26:45Z</time>
      </trkpt>
      <trkpt lat="44.10556904040277" lon="7.870971020311117">
        <ele>873.98000000000002</ele>
        <time>2025-05-19T10:26:51Z</time>
      </trkpt>
      <trkpt lat="44.105766015127301" lon="7.870988035574555">
        <ele>873.00999999999999</ele>
        <time>2025-05-19T10:26:52Z</time>
      </trkpt>
      <trkpt lat="44.105957960709929" lon="7.871028017252684">
        <ele>872.04999999999995</ele>
        <time>2025-05-19T10:26:53Z</time>
      </trkpt>
      <trkpt lat="44.106148984283209" lon="7.871089959517121">
        <ele>871.09000000000003</ele>
        <time>2025-05-19T10:26:54Z</time>
      </trkpt>
      <trkpt lat="44.106865972280502" lon="7.871292969211936">
        <ele>867.25</ele>
        <time>2025-05-19T10:26:58Z</time>
      </trkpt>
      <trkpt lat="44.107022965326905" lon="7.871258016675711">
        <ele>866.76999999999998</ele>
        <time>2025-05-19T10:26:59Z</time>
      </trkpt>
      <trkpt lat="44.107190016657114" lon="7.871210994198918">
        <ele>865.79999999999995</ele>
        <time>2025-05-19T10:27:00Z</time>
      </trkpt>
      <trkpt lat="44.107339968904853" lon="7.871146034449339">
        <ele>864.84000000000003</ele>
        <time>2025-05-19T10:27:01Z</time>
      </trkpt>
      <trkpt lat="44.107479024678469" lon="7.871075039729476">
        <ele>863.88</ele>
        <time>2025-05-19T10:27:02Z</time>
      </trkpt>
      <trkpt lat="44.107646998018026" lon="7.871037991717458">
        <ele>863.39999999999998</ele>
        <time>2025-05-19T10:27:03Z</time>
      </trkpt>
      <trkpt lat="44.107821006327868" lon="7.87099901586771">
        <ele>862.44000000000005</ele>
        <time>2025-05-19T10:27:04Z</time>
      </trkpt>
      <trkpt lat="44.107994008809328" lon="7.870960040017963">
        <ele>861.48000000000002</ele>
        <time>2025-05-19T10:27:05Z</time>
      </trkpt>
      <trkpt lat="44.108157958835363" lon="7.870906982570887">
        <ele>861</ele>
        <time>2025-05-19T10:27:06Z</time>
      </trkpt>
      <trkpt lat="44.108317969366908" lon="7.870829030871391">
        <ele>860.51999999999998</ele>
        <time>2025-05-19T10:27:07Z</time>
      </trkpt>
      <trkpt lat="44.108474962413311" lon="7.870717970654368">
        <ele>860.03999999999996</ele>
        <time>2025-05-19T10:27:08Z</time>
      </trkpt>
      <trkpt lat="44.108606977388263" lon="7.870558965951204">
        <ele>860.03999999999996</ele>
        <time>2025-05-19T10:27:09Z</time>
      </trkpt>
      <trkpt lat="44.108743015676737" lon="7.870391998440027">
        <ele>859.55999999999995</ele>
        <time>2025-05-19T10:27:10Z</time>
      </trkpt>
      <trkpt lat="44.108877964317799" lon="7.870221007615328">
        <ele>859.08000000000004</ele>
        <time>2025-05-19T10:27:11Z</time>
      </trkpt>
      <trkpt lat="44.108997993171215" lon="7.870029984042049">
        <ele>858.59000000000003</ele>
        <time>2025-05-19T10:27:12Z</time>
      </trkpt>
      <trkpt lat="44.10935296677053" lon="7.869532015174627">
        <ele>857.14999999999998</ele>
        <time>2025-05-19T10:27:15Z</time>
      </trkpt>
      <trkpt lat="44.109480958431959" lon="7.869426989927888">
        <ele>856.19000000000005</ele>
        <time>2025-05-19T10:27:16Z</time>
      </trkpt>
      <trkpt lat="44.109636023640633" lon="7.869364963844419">
        <ele>855.71000000000004</ele>
        <time>2025-05-19T10:27:17Z</time>
      </trkpt>
      <trkpt lat="44.109765021130443" lon="7.869370998814702">
        <ele>855.23000000000002</ele>
        <time>2025-05-19T10:27:18Z</time>
      </trkpt>
      <trkpt lat="44.109923020005226" lon="7.869378961622715">
        <ele>854.75</ele>
        <time>2025-05-19T10:27:19Z</time>
      </trkpt>
      <trkpt lat="44.110085964202881" lon="7.86938700824976">
        <ele>854.26999999999998</ele>
        <time>2025-05-19T10:27:20Z</time>
      </trkpt>
      <trkpt lat="44.11025402136147" lon="7.869326993823052">
        <ele>853.30999999999995</ele>
        <time>2025-05-19T10:27:21Z</time>
      </trkpt>
      <trkpt lat="44.110430041328073" lon="7.869264967739582">
        <ele>852.35000000000002</ele>
        <time>2025-05-19T10:27:22Z</time>
      </trkpt>
      <trkpt lat="44.111137976869941" lon="7.869064975529909">
        <ele>848.5</ele>
        <time>2025-05-19T10:27:26Z</time>
      </trkpt>
      <trkpt lat="44.111317014321685" lon="7.869096994400024">
        <ele>847.53999999999996</ele>
        <time>2025-05-19T10:27:27Z</time>
      </trkpt>
      <trkpt lat="44.111502002924681" lon="7.86913001909852">
        <ele>846.58000000000004</ele>
        <time>2025-05-19T10:27:28Z</time>
      </trkpt>
      <trkpt lat="44.112002989277244" lon="7.869208976626396">
        <ele>843.21000000000004</ele>
        <time>2025-05-19T10:27:31Z</time>
      </trkpt>
      <trkpt lat="44.11216601729393" lon="7.869176035746932">
        <ele>842.25</ele>
        <time>2025-05-19T10:27:32Z</time>
      </trkpt>
      <trkpt lat="44.112679995596409" lon="7.869052989408374">
        <ele>839.37</ele>
        <time>2025-05-19T10:27:35Z</time>
      </trkpt>
      <trkpt lat="44.112855009734631" lon="7.868967996910214">
        <ele>838.40999999999997</ele>
        <time>2025-05-19T10:27:36Z</time>
      </trkpt>
      <trkpt lat="44.113017031922936" lon="7.868846040219069">
        <ele>837.45000000000005</ele>
        <time>2025-05-19T10:27:37Z</time>
      </trkpt>
      <trkpt lat="44.113513994961977" lon="7.868512021377683">
        <ele>834.55999999999995</ele>
        <time>2025-05-19T10:27:40Z</time>
      </trkpt>
      <trkpt lat="44.113693032413721" lon="7.86844496615231">
        <ele>833.60000000000002</ele>
        <time>2025-05-19T10:27:41Z</time>
      </trkpt>
      <trkpt lat="44.113873997703195" lon="7.868414958938956">
        <ele>832.15999999999997</ele>
        <time>2025-05-19T10:27:42Z</time>
      </trkpt>
      <trkpt lat="44.114360986277461" lon="7.868345975875855">
        <ele>828.30999999999995</ele>
        <time>2025-05-19T10:27:45Z</time>
      </trkpt>
      <trkpt lat="44.114504987373948" lon="7.868252014741302">
        <ele>826.38999999999999</ele>
        <time>2025-05-19T10:27:46Z</time>
      </trkpt>
      <trkpt lat="44.114806987345219" lon="7.868012962862849">
        <ele>823.50999999999999</ele>
        <time>2025-05-19T10:27:48Z</time>
      </trkpt>
      <trkpt lat="44.114985018968582" lon="7.867917995899916">
        <ele>822.54999999999995</ele>
        <time>2025-05-19T10:27:49Z</time>
      </trkpt>
      <trkpt lat="44.115165984258056" lon="7.867822023108602">
        <ele>821.10000000000002</ele>
        <time>2025-05-19T10:27:50Z</time>
      </trkpt>
      <trkpt lat="44.115339992567897" lon="7.867727978155017">
        <ele>819.65999999999997</ele>
        <time>2025-05-19T10:27:51Z</time>
      </trkpt>
      <trkpt lat="44.115520035848022" lon="7.867671987041831">
        <ele>818.70000000000005</ele>
        <time>2025-05-19T10:27:52Z</time>
      </trkpt>
      <trkpt lat="44.11620601080358" lon="7.867551958188415">
        <ele>814.85000000000002</ele>
        <time>2025-05-19T10:27:56Z</time>
      </trkpt>
      <trkpt lat="44.116374989971519" lon="7.86754097789526">
        <ele>813.88999999999999</ele>
        <time>2025-05-19T10:27:57Z</time>
      </trkpt>
      <trkpt lat="44.117356007918715" lon="7.867511976510286">
        <ele>808.13</ele>
        <time>2025-05-19T10:28:04Z</time>
      </trkpt>
      <trkpt lat="44.117457009851933" lon="7.867494039237499">
        <ele>807.63999999999999</ele>
        <time>2025-05-19T10:28:05Z</time>
      </trkpt>
      <trkpt lat="44.117543008178473" lon="7.867479035630822">
        <ele>807.15999999999997</ele>
        <time>2025-05-19T10:28:06Z</time>
      </trkpt>
      <trkpt lat="44.117614002898335" lon="7.867512982338667">
        <ele>807.15999999999997</ele>
        <time>2025-05-19T10:28:07Z</time>
      </trkpt>
      <trkpt lat="44.117676028981805" lon="7.867553969845176">
        <ele>807.15999999999997</ele>
        <time>2025-05-19T10:28:08Z</time>
      </trkpt>
      <trkpt lat="44.117737971246243" lon="7.867603003978729">
        <ele>807.15999999999997</ele>
        <time>2025-05-19T10:28:09Z</time>
      </trkpt>
      <trkpt lat="44.117804020643234" lon="7.867654971778393">
        <ele>807.63999999999999</ele>
        <time>2025-05-19T10:28:10Z</time>
      </trkpt>
      <trkpt lat="44.118196964263916" lon="7.868098961189389">
        <ele>808.13</ele>
        <time>2025-05-19T10:28:17Z</time>
      </trkpt>
      <trkpt lat="44.11818296648562" lon="7.8681830316782">
        <ele>808.13</ele>
        <time>2025-05-19T10:28:18Z</time>
      </trkpt>
      <trkpt lat="44.11816100589931" lon="7.86831202916801">
        <ele>807.63999999999999</ele>
        <time>2025-05-19T10:28:19Z</time>
      </trkpt>
      <trkpt lat="44.118135021999478" lon="7.86846399307251">
        <ele>807.63999999999999</ele>
        <time>2025-05-19T10:28:20Z</time>
      </trkpt>
      <trkpt lat="44.118107026442885" lon="7.868621991947293">
        <ele>807.63999999999999</ele>
        <time>2025-05-19T10:28:21Z</time>
      </trkpt>
      <trkpt lat="44.118079030886292" lon="7.868780996650457">
        <ele>807.63999999999999</ele>
        <time>2025-05-19T10:28:22Z</time>
      </trkpt>
      <trkpt lat="44.118047012016177" lon="7.868944024667144">
        <ele>807.15999999999997</ele>
        <time>2025-05-19T10:28:23Z</time>
      </trkpt>
      <trkpt lat="44.118015998974442" lon="7.869102023541927">
        <ele>806.67999999999995</ele>
        <time>2025-05-19T10:28:24Z</time>
      </trkpt>
      <trkpt lat="44.117908040061593" lon="7.869884977117181">
        <ele>804.75999999999999</ele>
        <time>2025-05-19T10:28:29Z</time>
      </trkpt>
      <trkpt lat="44.117919020354748" lon="7.87005202844739">
        <ele>804.75999999999999</ele>
        <time>2025-05-19T10:28:30Z</time>
      </trkpt>
      <trkpt lat="44.117965959012508" lon="7.870206004008651">
        <ele>804.75999999999999</ele>
        <time>2025-05-19T10:28:31Z</time>
      </trkpt>
      <trkpt lat="44.11811700090766" lon="7.870703972876072">
        <ele>803.79999999999995</ele>
        <time>2025-05-19T10:28:34Z</time>
      </trkpt>
      <trkpt lat="44.118325039744377" lon="7.871670993044972">
        <ele>801.39999999999998</ele>
        <time>2025-05-19T10:28:40Z</time>
      </trkpt>
      <trkpt lat="44.118309030309319" lon="7.87183896638453">
        <ele>800.91999999999996</ele>
        <time>2025-05-19T10:28:41Z</time>
      </trkpt>
      <trkpt lat="44.118241975083947" lon="7.872665002942085">
        <ele>798.99000000000001</ele>
        <time>2025-05-19T10:28:46Z</time>
      </trkpt>
      <trkpt lat="44.118291009217501" lon="7.873673010617495">
        <ele>797.07000000000005</ele>
        <time>2025-05-19T10:28:51Z</time>
      </trkpt>
      <trkpt lat="44.118334008380771" lon="7.87389999255538">
        <ele>796.59000000000003</ele>
        <time>2025-05-19T10:28:52Z</time>
      </trkpt>
      <trkpt lat="44.11848396062851" lon="7.874382035806775">
        <ele>794.66999999999996</ele>
        <time>2025-05-19T10:28:54Z</time>
      </trkpt>
      <trkpt lat="44.118567025288939" lon="7.874655034393072">
        <ele>794.19000000000005</ele>
        <time>2025-05-19T10:28:55Z</time>
      </trkpt>
      <trkpt lat="44.118901966139674" lon="7.875765971839428">
        <ele>793.22000000000003</ele>
        <time>2025-05-19T10:28:59Z</time>
      </trkpt>
      <trkpt lat="44.118958963081241" lon="7.875995971262455">
        <ele>792.74000000000001</ele>
        <time>2025-05-19T10:29:00Z</time>
      </trkpt>
      <trkpt lat="44.118958041071892" lon="7.876235023140907">
        <ele>792.25999999999999</ele>
        <time>2025-05-19T10:29:01Z</time>
      </trkpt>
      <trkpt lat="44.118925016373396" lon="7.87645697593689">
        <ele>791.77999999999997</ele>
        <time>2025-05-19T10:29:02Z</time>
      </trkpt>
      <trkpt lat="44.118858966976404" lon="7.876665014773607">
        <ele>791.29999999999995</ele>
        <time>2025-05-19T10:29:03Z</time>
      </trkpt>
      <trkpt lat="44.118793001398444" lon="7.876876993104816">
        <ele>790.82000000000005</ele>
        <time>2025-05-19T10:29:04Z</time>
      </trkpt>
      <trkpt lat="44.118728963658214" lon="7.877082014456391">
        <ele>790.82000000000005</ele>
        <time>2025-05-19T10:29:05Z</time>
      </trkpt>
      <trkpt lat="44.11869996227324" lon="7.877292986959219">
        <ele>790.82000000000005</ele>
        <time>2025-05-19T10:29:06Z</time>
      </trkpt>
      <trkpt lat="44.118712032213807" lon="7.87750999443233">
        <ele>790.82000000000005</ele>
        <time>2025-05-19T10:29:07Z</time>
      </trkpt>
      <trkpt lat="44.11876299418509" lon="7.877746028825641">
        <ele>790.82000000000005</ele>
        <time>2025-05-19T10:29:08Z</time>
      </trkpt>
      <trkpt lat="44.118816973641515" lon="7.877993965521455">
        <ele>790.34000000000003</ele>
        <time>2025-05-19T10:29:09Z</time>
      </trkpt>
      <trkpt lat="44.119060970842838" lon="7.879029968753457">
        <ele>788.41999999999996</ele>
        <time>2025-05-19T10:29:13Z</time>
      </trkpt>
      <trkpt lat="44.119356013834476" lon="7.880229000002146">
        <ele>785.52999999999997</ele>
        <time>2025-05-19T10:29:19Z</time>
      </trkpt>
      <trkpt lat="44.119786005467176" lon="7.881618971005082">
        <ele>781.69000000000005</ele>
        <time>2025-05-19T10:29:28Z</time>
      </trkpt>
      <trkpt lat="44.119997983798385" lon="7.882044017314911">
        <ele>780.25</ele>
        <time>2025-05-19T10:29:31Z</time>
      </trkpt>
      <trkpt lat="44.120082976296544" lon="7.882177960127592">
        <ele>780.25</ele>
        <time>2025-05-19T10:29:32Z</time>
      </trkpt>
      <trkpt lat="44.120177021250129" lon="7.882315004244447">
        <ele>779.76999999999998</ele>
        <time>2025-05-19T10:29:33Z</time>
      </trkpt>
      <trkpt lat="44.120276011526585" lon="7.88245196454227">
        <ele>779.76999999999998</ele>
        <time>2025-05-19T10:29:34Z</time>
      </trkpt>
      <trkpt lat="44.120372990146279" lon="7.882584985345602">
        <ele>779.28999999999996</ele>
        <time>2025-05-19T10:29:35Z</time>
      </trkpt>
      <trkpt lat="44.120473992079496" lon="7.882723035290837">
        <ele>779.28999999999996</ele>
        <time>2025-05-19T10:29:36Z</time>
      </trkpt>
      <trkpt lat="44.120574994012713" lon="7.88285999558866">
        <ele>779.76999999999998</ele>
        <time>2025-05-19T10:29:37Z</time>
      </trkpt>
      <trkpt lat="44.120671972632408" lon="7.882992010563612">
        <ele>779.76999999999998</ele>
        <time>2025-05-19T10:29:38Z</time>
      </trkpt>
      <trkpt lat="44.120723018422723" lon="7.883146991953254">
        <ele>779.76999999999998</ele>
        <time>2025-05-19T10:29:39Z</time>
      </trkpt>
      <trkpt lat="44.120768029242754" lon="7.883307002484798">
        <ele>780.25</ele>
        <time>2025-05-19T10:29:40Z</time>
      </trkpt>
      <trkpt lat="44.120805999264121" lon="7.883447986096144">
        <ele>780.73000000000002</ele>
        <time>2025-05-19T10:29:41Z</time>
      </trkpt>
      <trkpt lat="44.120909012854099" lon="7.883820980787277">
        <ele>782.64999999999998</ele>
        <time>2025-05-19T10:29:46Z</time>
      </trkpt>
      <trkpt lat="44.120919993147254" lon="7.883859034627676">
        <ele>783.13</ele>
        <time>2025-05-19T10:29:47Z</time>
      </trkpt>
      <trkpt lat="44.120926028117537" lon="7.88388904184103">
        <ele>783.13</ele>
        <time>2025-05-19T10:29:48Z</time>
      </trkpt>
      <trkpt lat="44.120928961783648" lon="7.88391100242734">
        <ele>783.61000000000001</ele>
        <time>2025-05-19T10:29:49Z</time>
      </trkpt>
      <trkpt lat="44.120928961783648" lon="7.88391100242734">
        <ele>784.09000000000003</ele>
        <time>2025-05-19T10:30:01Z</time>
      </trkpt>
      <trkpt lat="44.120928961783648" lon="7.88391100242734">
        <ele>785.04999999999995</ele>
        <time>2025-05-19T10:30:49Z</time>
      </trkpt>
      <trkpt lat="44.120946982875466" lon="7.884023990482092">
        <ele>787.46000000000004</ele>
        <time>2025-05-19T10:30:53Z</time>
      </trkpt>
      <trkpt lat="44.120963998138905" lon="7.88412700407207">
        <ele>789.38</ele>
        <time>2025-05-19T10:30:54Z</time>
      </trkpt>
      <trkpt lat="44.120982019230723" lon="7.884238986298442">
        <ele>790.34000000000003</ele>
        <time>2025-05-19T10:30:55Z</time>
      </trkpt>
      <trkpt lat="44.120999034494162" lon="7.884347029030323">
        <ele>790.82000000000005</ele>
        <time>2025-05-19T10:30:56Z</time>
      </trkpt>
      <trkpt lat="44.121017977595329" lon="7.884464040398598">
        <ele>791.29999999999995</ele>
        <time>2025-05-19T10:30:57Z</time>
      </trkpt>
      <trkpt lat="44.121138006448746" lon="7.885011965408921">
        <ele>792.74000000000001</ele>
        <time>2025-05-19T10:31:01Z</time>
      </trkpt>
      <trkpt lat="44.121359959244728" lon="7.885988960042596">
        <ele>794.66999999999996</ele>
        <time>2025-05-19T10:31:08Z</time>
      </trkpt>
      <trkpt lat="44.121459033340216" lon="7.886435966938734">
        <ele>796.11000000000001</ele>
        <time>2025-05-19T10:31:11Z</time>
      </trkpt>
      <trkpt lat="44.121463978663087" lon="7.886593965813518">
        <ele>796.59000000000003</ele>
        <time>2025-05-19T10:31:12Z</time>
      </trkpt>
      <trkpt lat="44.121468001976609" lon="7.886750958859921">
        <ele>797.07000000000005</ele>
        <time>2025-05-19T10:31:13Z</time>
      </trkpt>
      <trkpt lat="44.121473031118512" lon="7.886918010190129">
        <ele>797.07000000000005</ele>
        <time>2025-05-19T10:31:14Z</time>
      </trkpt>
      <trkpt lat="44.121477976441383" lon="7.887085983529687">
        <ele>797.07000000000005</ele>
        <time>2025-05-19T10:31:15Z</time>
      </trkpt>
      <trkpt lat="44.121473031118512" lon="7.887260997667909">
        <ele>797.07000000000005</ele>
        <time>2025-05-19T10:31:16Z</time>
      </trkpt>
      <trkpt lat="44.121458027511835" lon="7.887432994320989">
        <ele>797.07000000000005</ele>
        <time>2025-05-19T10:31:17Z</time>
      </trkpt>
      <trkpt lat="44.121443023905158" lon="7.887605996802449">
        <ele>796.59000000000003</ele>
        <time>2025-05-19T10:31:18Z</time>
      </trkpt>
      <trkpt lat="44.121316038072109" lon="7.889267960563302">
        <ele>793.71000000000004</ele>
        <time>2025-05-19T10:31:27Z</time>
      </trkpt>
      <trkpt lat="44.121349984779954" lon="7.88973500020802">
        <ele>792.74000000000001</ele>
        <time>2025-05-19T10:31:30Z</time>
      </trkpt>
      <trkpt lat="44.121367000043392" lon="7.89018401876092">
        <ele>791.77999999999997</ele>
        <time>2025-05-19T10:31:33Z</time>
      </trkpt>
      <trkpt lat="44.121359037235379" lon="7.890356015414">
        <ele>791.29999999999995</ele>
        <time>2025-05-19T10:31:34Z</time>
      </trkpt>
      <trkpt lat="44.121350990608335" lon="7.890533041208983">
        <ele>790.82000000000005</ele>
        <time>2025-05-19T10:31:35Z</time>
      </trkpt>
      <trkpt lat="44.121330035850406" lon="7.890994967892766">
        <ele>789.86000000000001</ele>
        <time>2025-05-19T10:31:38Z</time>
      </trkpt>
      <trkpt lat="44.121358031406999" lon="7.891120025888085">
        <ele>789.38</ele>
        <time>2025-05-19T10:31:39Z</time>
      </trkpt>
      <trkpt lat="44.121388038620353" lon="7.891231002286077">
        <ele>788.89999999999998</ele>
        <time>2025-05-19T10:31:40Z</time>
      </trkpt>
      <trkpt lat="44.1214270144701" lon="7.891337033361197">
        <ele>788.41999999999996</ele>
        <time>2025-05-19T10:31:41Z</time>
      </trkpt>
      <trkpt lat="44.121485017240047" lon="7.891437029466033">
        <ele>787.94000000000005</ele>
        <time>2025-05-19T10:31:42Z</time>
      </trkpt>
      <trkpt lat="44.121546037495136" lon="7.89153803139925">
        <ele>787.46000000000004</ele>
        <time>2025-05-19T10:31:43Z</time>
      </trkpt>
      <trkpt lat="44.121802020817995" lon="7.891959976404905">
        <ele>785.52999999999997</ele>
        <time>2025-05-19T10:31:47Z</time>
      </trkpt>
      <trkpt lat="44.121880978345871" lon="7.892186036333442">
        <ele>785.04999999999995</ele>
        <time>2025-05-19T10:31:49Z</time>
      </trkpt>
      <trkpt lat="44.121905034407973" lon="7.892256025224924">
        <ele>784.57000000000005</ele>
        <time>2025-05-19T10:31:50Z</time>
      </trkpt>
      <trkpt lat="44.121931018307805" lon="7.892329031601548">
        <ele>782.64999999999998</ele>
        <time>2025-05-19T10:31:58Z</time>
      </trkpt>
      <trkpt lat="44.121931018307805" lon="7.892329031601548">
        <ele>783.13</ele>
        <time>2025-05-19T10:32:35Z</time>
      </trkpt>
      <trkpt lat="44.121931018307805" lon="7.892329031601548">
        <ele>783.13</ele>
        <time>2025-05-19T10:33:26Z</time>
      </trkpt>
      <trkpt lat="44.121931018307805" lon="7.892329031601548">
        <ele>783.61000000000001</ele>
        <time>2025-05-19T10:34:21Z</time>
      </trkpt>
      <trkpt lat="44.121931018307805" lon="7.892329031601548">
        <ele>784.09000000000003</ele>
        <time>2025-05-19T10:35:04Z</time>
      </trkpt>
      <trkpt lat="44.121931018307805" lon="7.892329031601548">
        <ele>784.09000000000003</ele>
        <time>2025-05-19T10:35:55Z</time>
      </trkpt>
      <trkpt lat="44.121931018307805" lon="7.892329031601548">
        <ele>784.09000000000003</ele>
        <time>2025-05-19T10:36:51Z</time>
      </trkpt>
      <trkpt lat="44.121931018307805" lon="7.892329031601548">
        <ele>784.09000000000003</ele>
        <time>2025-05-19T10:37:41Z</time>
      </trkpt>
      <trkpt lat="44.121979968622327" lon="7.892473032698035">
        <ele>785.04999999999995</ele>
        <time>2025-05-19T10:37:50Z</time>
      </trkpt>
      <trkpt lat="44.122003018856049" lon="7.892546039074659">
        <ele>785.52999999999997</ele>
        <time>2025-05-19T10:37:51Z</time>
      </trkpt>
      <trkpt lat="44.122052974998951" lon="7.892703032121062">
        <ele>785.52999999999997</ele>
        <time>2025-05-19T10:37:53Z</time>
      </trkpt>
      <trkpt lat="44.122184989973903" lon="7.893121037632227">
        <ele>785.04999999999995</ele>
        <time>2025-05-19T10:37:57Z</time>
      </trkpt>
      <trkpt lat="44.12222002632916" lon="7.893233019858599">
        <ele>784.57000000000005</ele>
        <time>2025-05-19T10:37:58Z</time>
      </trkpt>
      <trkpt lat="44.122284986078739" lon="7.893318012356758">
        <ele>784.09000000000003</ele>
        <time>2025-05-19T10:37:59Z</time>
      </trkpt>
      <trkpt lat="44.122365033254027" lon="7.893393030390143">
        <ele>784.57000000000005</ele>
        <time>2025-05-19T10:38:00Z</time>
      </trkpt>
      <trkpt lat="44.122446002438664" lon="7.893468970432878">
        <ele>785.04999999999995</ele>
        <time>2025-05-19T10:38:01Z</time>
      </trkpt>
      <trkpt lat="44.122771974653006" lon="7.893655970692635">
        <ele>784.57000000000005</ele>
        <time>2025-05-19T10:38:04Z</time>
      </trkpt>
      <trkpt lat="44.123894982039928" lon="7.894222000613809">
        <ele>785.04999999999995</ele>
        <time>2025-05-19T10:38:12Z</time>
      </trkpt>
      <trkpt lat="44.124036971479654" lon="7.894298024475575">
        <ele>784.09000000000003</ele>
        <time>2025-05-19T10:38:13Z</time>
      </trkpt>
      <trkpt lat="44.124159011989832" lon="7.894362984225154">
        <ele>783.13</ele>
        <time>2025-05-19T10:38:14Z</time>
      </trkpt>
      <trkpt lat="44.124288009479642" lon="7.894431967288256">
        <ele>782.16999999999996</ele>
        <time>2025-05-19T10:38:15Z</time>
      </trkpt>
      <trkpt lat="44.124446008354425" lon="7.894516037777066">
        <ele>781.69000000000005</ele>
        <time>2025-05-19T10:38:16Z</time>
      </trkpt>
      <trkpt lat="44.124607024714351" lon="7.894602036103606">
        <ele>780.73000000000002</ele>
        <time>2025-05-19T10:38:17Z</time>
      </trkpt>
      <trkpt lat="44.125698013231158" lon="7.895472999662161">
        <ele>775.44000000000005</ele>
        <time>2025-05-19T10:38:25Z</time>
      </trkpt>
      <trkpt lat="44.126409972086549" lon="7.896097032353282">
        <ele>773.51999999999998</ele>
        <time>2025-05-19T10:38:31Z</time>
      </trkpt>
      <trkpt lat="44.126643994823098" lon="7.896285960450769">
        <ele>773.51999999999998</ele>
        <time>2025-05-19T10:38:33Z</time>
      </trkpt>
      <trkpt lat="44.12765602581203" lon="7.896773032844067">
        <ele>769.19000000000005</ele>
        <time>2025-05-19T10:38:41Z</time>
      </trkpt>
      <trkpt lat="44.127932041883469" lon="7.896816032007337">
        <ele>768.23000000000002</ele>
        <time>2025-05-19T10:38:43Z</time>
      </trkpt>
      <trkpt lat="44.129067035391927" lon="7.896831035614014">
        <ele>763.41999999999996</ele>
        <time>2025-05-19T10:38:51Z</time>
      </trkpt>
      <trkpt lat="44.129517981782556" lon="7.896877974271774">
        <ele>760.53999999999996</ele>
        <time>2025-05-19T10:38:54Z</time>
      </trkpt>
      <trkpt lat="44.129672963172197" lon="7.896923990920186">
        <ele>759.58000000000004</ele>
        <time>2025-05-19T10:38:55Z</time>
      </trkpt>
      <trkpt lat="44.129832973703742" lon="7.896970007568598">
        <ele>758.62</ele>
        <time>2025-05-19T10:38:56Z</time>
      </trkpt>
      <trkpt lat="44.129991978406906" lon="7.897089030593634">
        <ele>758.13999999999999</ele>
        <time>2025-05-19T10:38:57Z</time>
      </trkpt>
      <trkpt lat="44.130124999210238" lon="7.897252980619669">
        <ele>757.65999999999997</ele>
        <time>2025-05-19T10:38:58Z</time>
      </trkpt>
      <trkpt lat="44.130243016406894" lon="7.897448027506471">
        <ele>757.65999999999997</ele>
        <time>2025-05-19T10:38:59Z</time>
      </trkpt>
      <trkpt lat="44.130361033603549" lon="7.897642990574241">
        <ele>757.17999999999995</ele>
        <time>2025-05-19T10:39:00Z</time>
      </trkpt>
      <trkpt lat="44.130618022754788" lon="7.898003999143839">
        <ele>757.17999999999995</ele>
        <time>2025-05-19T10:39:02Z</time>
      </trkpt>
      <trkpt lat="44.130740985274315" lon="7.898166021332145">
        <ele>757.17999999999995</ele>
        <time>2025-05-19T10:39:03Z</time>
      </trkpt>
      <trkpt lat="44.130869982764125" lon="7.898310022428632">
        <ele>756.69000000000005</ele>
        <time>2025-05-19T10:39:04Z</time>
      </trkpt>
      <trkpt lat="44.131011972203851" lon="7.898394009098411">
        <ele>756.69000000000005</ele>
        <time>2025-05-19T10:39:05Z</time>
      </trkpt>
      <trkpt lat="44.131153961643577" lon="7.898477995768189">
        <ele>757.17999999999995</ele>
        <time>2025-05-19T10:39:06Z</time>
      </trkpt>
      <trkpt lat="44.131297040730715" lon="7.898562988266349">
        <ele>756.69000000000005</ele>
        <time>2025-05-19T10:39:07Z</time>
      </trkpt>
      <trkpt lat="44.132060967385769" lon="7.899014018476009">
        <ele>754.76999999999998</ele>
        <time>2025-05-19T10:39:12Z</time>
      </trkpt>
      <trkpt lat="44.1329659614712" lon="7.899440992623568">
        <ele>753.33000000000004</ele>
        <time>2025-05-19T10:39:18Z</time>
      </trkpt>
      <trkpt lat="44.134063990786672" lon="7.89989504031837">
        <ele>750.92999999999995</ele>
        <time>2025-05-19T10:39:25Z</time>
      </trkpt>
      <trkpt lat="44.134763041511178" lon="7.900237021967769">
        <ele>749.49000000000001</ele>
        <time>2025-05-19T10:39:30Z</time>
      </trkpt>
      <trkpt lat="44.134896984323859" lon="7.900256970897317">
        <ele>749.49000000000001</ele>
        <time>2025-05-19T10:39:31Z</time>
      </trkpt>
      <trkpt lat="44.1355009842664" lon="7.900393009185791">
        <ele>750.45000000000005</ele>
        <time>2025-05-19T10:39:36Z</time>
      </trkpt>
      <trkpt lat="44.136173967272043" lon="7.900767009705305">
        <ele>752.85000000000002</ele>
        <time>2025-05-19T10:39:42Z</time>
      </trkpt>
      <trkpt lat="44.136500023305416" lon="7.900956021621823">
        <ele>754.28999999999996</ele>
        <time>2025-05-19T10:39:45Z</time>
      </trkpt>
      <trkpt lat="44.136603958904743" lon="7.901003966107965">
        <ele>754.28999999999996</ele>
        <time>2025-05-19T10:39:46Z</time>
      </trkpt>
      <trkpt lat="44.136736979708076" lon="7.90103699080646">
        <ele>754.76999999999998</ele>
        <time>2025-05-19T10:39:47Z</time>
      </trkpt>
      <trkpt lat="44.136848039925098" lon="7.901023998856545">
        <ele>754.76999999999998</ele>
        <time>2025-05-19T10:39:48Z</time>
      </trkpt>
      <trkpt lat="44.136978965252638" lon="7.901007989421487">
        <ele>754.76999999999998</ele>
        <time>2025-05-19T10:39:49Z</time>
      </trkpt>
      <trkpt lat="44.137501996010542" lon="7.901060041040182">
        <ele>754.28999999999996</ele>
        <time>2025-05-19T10:39:53Z</time>
      </trkpt>
      <trkpt lat="44.137766025960445" lon="7.901060963049531">
        <ele>753.33000000000004</ele>
        <time>2025-05-19T10:39:55Z</time>
      </trkpt>
      <trkpt lat="44.137886976823211" lon="7.901045959442854">
        <ele>752.85000000000002</ele>
        <time>2025-05-19T10:39:56Z</time>
      </trkpt>
      <trkpt lat="44.138002982363105" lon="7.901031961664558">
        <ele>752.37</ele>
        <time>2025-05-19T10:39:57Z</time>
      </trkpt>
      <trkpt lat="44.138548979535699" lon="7.900969013571739">
        <ele>750.45000000000005</ele>
        <time>2025-05-19T10:40:02Z</time>
      </trkpt>
      <trkpt lat="44.138660039752722" lon="7.900916961953044">
        <ele>750.45000000000005</ele>
        <time>2025-05-19T10:40:03Z</time>
      </trkpt>
      <trkpt lat="44.138861037790775" lon="7.90082199499011">
        <ele>749.97000000000003</ele>
        <time>2025-05-19T10:40:05Z</time>
      </trkpt>
      <trkpt lat="44.139002021402121" lon="7.90082199499011">
        <ele>749.49000000000001</ele>
        <time>2025-05-19T10:40:06Z</time>
      </trkpt>
      <trkpt lat="44.139117021113634" lon="7.90082199499011">
        <ele>749.49000000000001</ele>
        <time>2025-05-19T10:40:07Z</time>
      </trkpt>
      <trkpt lat="44.139234032481909" lon="7.90086499415338">
        <ele>749.49000000000001</ele>
        <time>2025-05-19T10:40:08Z</time>
      </trkpt>
      <trkpt lat="44.1393450088799" lon="7.900930037721992">
        <ele>749.49000000000001</ele>
        <time>2025-05-19T10:40:09Z</time>
      </trkpt>
      <trkpt lat="44.139566039666533" lon="7.901046965271235">
        <ele>749</ele>
        <time>2025-05-19T10:40:11Z</time>
      </trkpt>
      <trkpt lat="44.139798972755671" lon="7.901106979697943">
        <ele>749</ele>
        <time>2025-05-19T10:40:13Z</time>
      </trkpt>
      <trkpt lat="44.139916989952326" lon="7.901136986911297">
        <ele>749.49000000000001</ele>
        <time>2025-05-19T10:40:14Z</time>
      </trkpt>
      <trkpt lat="44.140152018517256" lon="7.901198007166386">
        <ele>749.49000000000001</ele>
        <time>2025-05-19T10:40:16Z</time>
      </trkpt>
      <trkpt lat="44.140468016266823" lon="7.901374027132988">
        <ele>749.49000000000001</ele>
        <time>2025-05-19T10:40:19Z</time>
      </trkpt>
      <trkpt lat="44.14056901820004" lon="7.901459019631147">
        <ele>749.49000000000001</ele>
        <time>2025-05-19T10:40:20Z</time>
      </trkpt>
      <trkpt lat="44.141346020624042" lon="7.902262005954981">
        <ele>748.51999999999998</ele>
        <time>2025-05-19T10:40:28Z</time>
      </trkpt>
      <trkpt lat="44.142527030780911" lon="7.903607971966267">
        <ele>743.72000000000003</ele>
        <time>2025-05-19T10:40:41Z</time>
      </trkpt>
      <trkpt lat="44.142615040764213" lon="7.903702016919851">
        <ele>743.24000000000001</ele>
        <time>2025-05-19T10:40:42Z</time>
      </trkpt>
      <trkpt lat="44.143609972670674" lon="7.904779007658362">
        <ele>738.90999999999997</ele>
        <time>2025-05-19T10:40:53Z</time>
      </trkpt>
      <trkpt lat="44.143693037331104" lon="7.904880009591579">
        <ele>738.42999999999995</ele>
        <time>2025-05-19T10:40:54Z</time>
      </trkpt>
      <trkpt lat="44.14377199485898" lon="7.904976988211274">
        <ele>737.95000000000005</ele>
        <time>2025-05-19T10:40:55Z</time>
      </trkpt>
      <trkpt lat="44.143861010670662" lon="7.905078995972872">
        <ele>737.47000000000003</ele>
        <time>2025-05-19T10:40:56Z</time>
      </trkpt>
      <trkpt lat="44.144699033349752" lon="7.906081974506378">
        <ele>737.95000000000005</ele>
        <time>2025-05-19T10:41:06Z</time>
      </trkpt>
      <trkpt lat="44.145460026338696" lon="7.907702028751373">
        <ele>736.99000000000001</ele>
        <time>2025-05-19T10:41:17Z</time>
      </trkpt>
      <trkpt lat="44.146011974662542" lon="7.90885797701776">
        <ele>736.50999999999999</ele>
        <time>2025-05-19T10:41:24Z</time>
      </trkpt>
      <trkpt lat="44.146085986867547" lon="7.908997032791376">
        <ele>736.02999999999997</ele>
        <time>2025-05-19T10:41:25Z</time>
      </trkpt>
      <trkpt lat="44.146166034042835" lon="7.909108009189367">
        <ele>736.02999999999997</ele>
        <time>2025-05-19T10:41:26Z</time>
      </trkpt>
      <trkpt lat="44.146245997399092" lon="7.909219991415739">
        <ele>736.02999999999997</ele>
        <time>2025-05-19T10:41:27Z</time>
      </trkpt>
      <trkpt lat="44.146329984068871" lon="7.909335996955633">
        <ele>736.02999999999997</ele>
        <time>2025-05-19T10:41:28Z</time>
      </trkpt>
      <trkpt lat="44.146412964910269" lon="7.909450996667147">
        <ele>736.02999999999997</ele>
        <time>2025-05-19T10:41:29Z</time>
      </trkpt>
      <trkpt lat="44.146514972671866" lon="7.90954596363008">
        <ele>736.02999999999997</ele>
        <time>2025-05-19T10:41:30Z</time>
      </trkpt>
      <trkpt lat="44.146621003746986" lon="7.909605978056788">
        <ele>736.99000000000001</ele>
        <time>2025-05-19T10:41:31Z</time>
      </trkpt>
      <trkpt lat="44.146731980144978" lon="7.909669009968638">
        <ele>737.47000000000003</ele>
        <time>2025-05-19T10:41:32Z</time>
      </trkpt>
      <trkpt lat="44.14684496819973" lon="7.909703040495515">
        <ele>737.95000000000005</ele>
        <time>2025-05-19T10:41:33Z</time>
      </trkpt>
      <trkpt lat="44.146963991224766" lon="7.909730030223727">
        <ele>738.90999999999997</ele>
        <time>2025-05-19T10:41:34Z</time>
      </trkpt>
      <trkpt lat="44.147082008421421" lon="7.909756014123559">
        <ele>739.38999999999999</ele>
        <time>2025-05-19T10:41:35Z</time>
      </trkpt>
      <trkpt lat="44.147197008132935" lon="7.909774035215378">
        <ele>739.38999999999999</ele>
        <time>2025-05-19T10:41:36Z</time>
      </trkpt>
      <trkpt lat="44.147300021722913" lon="7.909781998023391">
        <ele>739.38999999999999</ele>
        <time>2025-05-19T10:41:37Z</time>
      </trkpt>
      <trkpt lat="44.147386020049453" lon="7.909789038822055">
        <ele>739.38999999999999</ele>
        <time>2025-05-19T10:41:38Z</time>
      </trkpt>
      <trkpt lat="44.147463971748948" lon="7.909794989973307">
        <ele>739.38999999999999</ele>
        <time>2025-05-19T10:41:39Z</time>
      </trkpt>
      <trkpt lat="44.147544018924236" lon="7.90980102494359">
        <ele>739.38999999999999</ele>
        <time>2025-05-19T10:41:40Z</time>
      </trkpt>
      <trkpt lat="44.14770201779902" lon="7.909813011065126">
        <ele>739.38999999999999</ele>
        <time>2025-05-19T10:41:42Z</time>
      </trkpt>
      <trkpt lat="44.147791033610702" lon="7.90986699052155">
        <ele>739.38999999999999</ele>
        <time>2025-05-19T10:41:43Z</time>
      </trkpt>
      <trkpt lat="44.147859010845423" lon="7.909936979413033">
        <ele>739.38999999999999</ele>
        <time>2025-05-19T10:41:44Z</time>
      </trkpt>
      <trkpt lat="44.147927993908525" lon="7.910019960254431">
        <ele>739.38999999999999</ele>
        <time>2025-05-19T10:41:45Z</time>
      </trkpt>
      <trkpt lat="44.148001000285149" lon="7.910106964409351">
        <ele>738.90999999999997</ele>
        <time>2025-05-19T10:41:46Z</time>
      </trkpt>
      <trkpt lat="44.148074006661773" lon="7.910195980221033">
        <ele>738.90999999999997</ele>
        <time>2025-05-19T10:41:47Z</time>
      </trkpt>
      <trkpt lat="44.148180959746242" lon="7.910384992137551">
        <ele>739.38999999999999</ele>
        <time>2025-05-19T10:41:49Z</time>
      </trkpt>
      <trkpt lat="44.148223958909512" lon="7.910486999899149">
        <ele>739.38999999999999</ele>
        <time>2025-05-19T10:41:50Z</time>
      </trkpt>
      <trkpt lat="44.148257989436388" lon="7.910581966862083">
        <ele>739.38999999999999</ele>
        <time>2025-05-19T10:41:51Z</time>
      </trkpt>
      <trkpt lat="44.148250026628375" lon="7.910681962966919">
        <ele>739.38999999999999</ele>
        <time>2025-05-19T10:41:52Z</time>
      </trkpt>
      <trkpt lat="44.14823804050684" lon="7.910799980163574">
        <ele>739.38999999999999</ele>
        <time>2025-05-19T10:41:53Z</time>
      </trkpt>
      <trkpt lat="44.148208033293486" lon="7.910921014845371">
        <ele>739.38999999999999</ele>
        <time>2025-05-19T10:41:54Z</time>
      </trkpt>
      <trkpt lat="44.14817500859499" lon="7.911054035648704">
        <ele>739.38999999999999</ele>
        <time>2025-05-19T10:41:55Z</time>
      </trkpt>
      <trkpt lat="44.148067971691489" lon="7.911566002294421">
        <ele>739.38999999999999</ele>
        <time>2025-05-19T10:41:59Z</time>
      </trkpt>
      <trkpt lat="44.148053973913193" lon="7.911689970642328">
        <ele>739.38999999999999</ele>
        <time>2025-05-19T10:42:00Z</time>
      </trkpt>
      <trkpt lat="44.148008041083813" lon="7.912075035274029">
        <ele>738.90999999999997</ele>
        <time>2025-05-19T10:42:03Z</time>
      </trkpt>
      <trkpt lat="44.147892035543919" lon="7.912928983569145">
        <ele>739.38999999999999</ele>
        <time>2025-05-19T10:42:09Z</time>
      </trkpt>
      <trkpt lat="44.147852975875139" lon="7.913074996322393">
        <ele>740.35000000000002</ele>
        <time>2025-05-19T10:42:10Z</time>
      </trkpt>
      <trkpt lat="44.147760020568967" lon="7.913355035707355">
        <ele>740.83000000000004</ele>
        <time>2025-05-19T10:42:12Z</time>
      </trkpt>
      <trkpt lat="44.147720038890839" lon="7.913490990176797">
        <ele>740.83000000000004</ele>
        <time>2025-05-19T10:42:13Z</time>
      </trkpt>
      <trkpt lat="44.147679973393679" lon="7.91362602263689">
        <ele>740.35000000000002</ele>
        <time>2025-05-19T10:42:14Z</time>
      </trkpt>
      <trkpt lat="44.14763898588717" lon="7.913768012076616">
        <ele>740.83000000000004</ele>
        <time>2025-05-19T10:42:15Z</time>
      </trkpt>
      <trkpt lat="44.147620964795351" lon="7.913916958495975">
        <ele>740.35000000000002</ele>
        <time>2025-05-19T10:42:16Z</time>
      </trkpt>
      <trkpt lat="44.147634962573647" lon="7.914097001776099">
        <ele>739.38999999999999</ele>
        <time>2025-05-19T10:42:17Z</time>
      </trkpt>
      <trkpt lat="44.147693971171975" lon="7.914237985387445">
        <ele>738.42999999999995</ele>
        <time>2025-05-19T10:42:18Z</time>
      </trkpt>
      <trkpt lat="44.147763038054109" lon="7.914351979270577">
        <ele>737.47000000000003</ele>
        <time>2025-05-19T10:42:19Z</time>
      </trkpt>
      <trkpt lat="44.147851970046759" lon="7.914393972605467">
        <ele>736.50999999999999</ele>
        <time>2025-05-19T10:42:20Z</time>
      </trkpt>
      <trkpt lat="44.147946015000343" lon="7.914418028667569">
        <ele>735.54999999999995</ele>
        <time>2025-05-19T10:42:21Z</time>
      </trkpt>
      <trkpt lat="44.148040981963277" lon="7.914440995082259">
        <ele>734.58000000000004</ele>
        <time>2025-05-19T10:42:22Z</time>
      </trkpt>
      <trkpt lat="44.148143995553255" lon="7.914466978982091">
        <ele>734.10000000000002</ele>
        <time>2025-05-19T10:42:23Z</time>
      </trkpt>
      <trkpt lat="44.14847700856626" lon="7.914431020617485">
        <ele>732.65999999999997</ele>
        <time>2025-05-19T10:42:26Z</time>
      </trkpt>
      <trkpt lat="44.149512005969882" lon="7.914179982617497">
        <ele>731.22000000000003</ele>
        <time>2025-05-19T10:42:35Z</time>
      </trkpt>
      <trkpt lat="44.149962030351162" lon="7.913989964872599">
        <ele>731.22000000000003</ele>
        <time>2025-05-19T10:42:39Z</time>
      </trkpt>
      <trkpt lat="44.150208961218596" lon="7.913743034005165">
        <ele>730.25999999999999</ele>
        <time>2025-05-19T10:42:42Z</time>
      </trkpt>
      <trkpt lat="44.150274004787207" lon="7.913655024021864">
        <ele>729.77999999999997</ele>
        <time>2025-05-19T10:42:43Z</time>
      </trkpt>
      <trkpt lat="44.150380035862327" lon="7.913416977971792">
        <ele>729.77999999999997</ele>
        <time>2025-05-19T10:42:45Z</time>
      </trkpt>
      <trkpt lat="44.150567036122084" lon="7.913065021857619">
        <ele>730.25999999999999</ele>
        <time>2025-05-19T10:42:48Z</time>
      </trkpt>
      <trkpt lat="44.150634007528424" lon="7.912962008267641">
        <ele>730.74000000000001</ele>
        <time>2025-05-19T10:42:49Z</time>
      </trkpt>
      <trkpt lat="44.151237001642585" lon="7.912292964756489">
        <ele>733.13999999999999</ele>
        <time>2025-05-19T10:42:56Z</time>
      </trkpt>
      <trkpt lat="44.151339009404182" lon="7.912235967814922">
        <ele>733.62</ele>
        <time>2025-05-19T10:42:57Z</time>
      </trkpt>
      <trkpt lat="44.15146297775209" lon="7.912228005006909">
        <ele>733.13999999999999</ele>
        <time>2025-05-19T10:42:58Z</time>
      </trkpt>
      <trkpt lat="44.152706013992429" lon="7.912141000851989">
        <ele>730.74000000000001</ele>
        <time>2025-05-19T10:43:07Z</time>
      </trkpt>
      <trkpt lat="44.153126031160355" lon="7.912173019722104">
        <ele>730.74000000000001</ele>
        <time>2025-05-19T10:43:10Z</time>
      </trkpt>
      <trkpt lat="44.153258968144655" lon="7.912189029157162">
        <ele>730.25999999999999</ele>
        <time>2025-05-19T10:43:11Z</time>
      </trkpt>
      <trkpt lat="44.153407998383045" lon="7.912258012220264">
        <ele>730.25999999999999</ele>
        <time>2025-05-19T10:43:12Z</time>
      </trkpt>
      <trkpt lat="44.153516963124275" lon="7.912323977798224">
        <ele>730.25999999999999</ele>
        <time>2025-05-19T10:43:13Z</time>
      </trkpt>
      <trkpt lat="44.153651995584369" lon="7.912483988329768">
        <ele>729.77999999999997</ele>
        <time>2025-05-19T10:43:14Z</time>
      </trkpt>
      <trkpt lat="44.15376003831625" lon="7.912612985819578">
        <ele>728.82000000000005</ele>
        <time>2025-05-19T10:43:15Z</time>
      </trkpt>
      <trkpt lat="44.15386900305748" lon="7.912742989137769">
        <ele>728.34000000000003</ele>
        <time>2025-05-19T10:43:16Z</time>
      </trkpt>
      <trkpt lat="44.153976961970329" lon="7.912879027426243">
        <ele>727.37</ele>
        <time>2025-05-19T10:43:17Z</time>
      </trkpt>
      <trkpt lat="44.154062960296869" lon="7.913040965795517">
        <ele>726.40999999999997</ele>
        <time>2025-05-19T10:43:18Z</time>
      </trkpt>
      <trkpt lat="44.154146024957299" lon="7.91319795884192">
        <ele>725.45000000000005</ele>
        <time>2025-05-19T10:43:19Z</time>
      </trkpt>
      <trkpt lat="44.154220037162304" lon="7.91336702182889">
        <ele>724.49000000000001</ele>
        <time>2025-05-19T10:43:20Z</time>
      </trkpt>
      <trkpt lat="44.154730997979641" lon="7.914968971163034">
        <ele>717.75999999999999</ele>
        <time>2025-05-19T10:43:29Z</time>
      </trkpt>
      <trkpt lat="44.155074991285801" lon="7.916405964642763">
        <ele>715.84000000000003</ele>
        <time>2025-05-19T10:43:37Z</time>
      </trkpt>
      <trkpt lat="44.155098963528872" lon="7.916577961295843">
        <ele>715.36000000000001</ele>
        <time>2025-05-19T10:43:38Z</time>
      </trkpt>
      <trkpt lat="44.155080020427704" lon="7.91674098931253">
        <ele>714.88</ele>
        <time>2025-05-19T10:43:39Z</time>
      </trkpt>
      <trkpt lat="44.15505001321435" lon="7.916896976530552">
        <ele>714.88</ele>
        <time>2025-05-19T10:43:40Z</time>
      </trkpt>
      <trkpt lat="44.155022017657757" lon="7.91706302203238">
        <ele>714.39999999999998</ele>
        <time>2025-05-19T10:43:41Z</time>
      </trkpt>
      <trkpt lat="44.154991004616022" lon="7.917240969836712">
        <ele>713.91999999999996</ele>
        <time>2025-05-19T10:43:42Z</time>
      </trkpt>
      <trkpt lat="44.154959991574287" lon="7.917425958439708">
        <ele>713.91999999999996</ele>
        <time>2025-05-19T10:43:43Z</time>
      </trkpt>
      <trkpt lat="44.154655979946256" lon="7.919704997912049">
        <ele>709.59000000000003</ele>
        <time>2025-05-19T10:43:55Z</time>
      </trkpt>
      <trkpt lat="44.154711971059442" lon="7.92176803573966">
        <ele>708.14999999999998</ele>
        <time>2025-05-19T10:44:05Z</time>
      </trkpt>
      <trkpt lat="44.155091000720859" lon="7.92426198720932">
        <ele>705.75</ele>
        <time>2025-05-19T10:44:16Z</time>
      </trkpt>
      <trkpt lat="44.155542030930519" lon="7.927018962800503">
        <ele>701.89999999999998</ele>
        <time>2025-05-19T10:44:28Z</time>
      </trkpt>
      <trkpt lat="44.155946960672736" lon="7.929486008360982">
        <ele>698.52999999999997</ele>
        <time>2025-05-19T10:44:38Z</time>
      </trkpt>
      <trkpt lat="44.156375024467707" lon="7.932092025876045">
        <ele>696.13</ele>
        <time>2025-05-19T10:44:49Z</time>
      </trkpt>
      <trkpt lat="44.156901994720101" lon="7.935244962573052">
        <ele>693.73000000000002</ele>
        <time>2025-05-19T10:45:02Z</time>
      </trkpt>
      <trkpt lat="44.157103998586535" lon="7.937500029802322">
        <ele>692.76999999999998</ele>
        <time>2025-05-19T10:45:09Z</time>
      </trkpt>
      <trkpt lat="44.157366016879678" lon="7.939819972962141">
        <ele>691.33000000000004</ele>
        <time>2025-05-19T10:45:17Z</time>
      </trkpt>
      <trkpt lat="44.157720990478992" lon="7.942400006577373">
        <ele>687</ele>
        <time>2025-05-19T10:45:27Z</time>
      </trkpt>
      <trkpt lat="44.157954007387161" lon="7.944317031651735">
        <ele>683.14999999999998</ele>
        <time>2025-05-19T10:45:36Z</time>
      </trkpt>
      <trkpt lat="44.157987032085657" lon="7.944502020254731">
        <ele>682.66999999999996</ele>
        <time>2025-05-19T10:45:37Z</time>
      </trkpt>
      <trkpt lat="44.158018967136741" lon="7.944678962230682">
        <ele>682.19000000000005</ele>
        <time>2025-05-19T10:45:38Z</time>
      </trkpt>
      <trkpt lat="44.158084010705352" lon="7.944808965548873">
        <ele>681.71000000000004</ele>
        <time>2025-05-19T10:45:39Z</time>
      </trkpt>
      <trkpt lat="44.158271010965109" lon="7.945227976888418">
        <ele>679.78999999999996</ele>
        <time>2025-05-19T10:45:42Z</time>
      </trkpt>
      <trkpt lat="44.158287020400167" lon="7.945382036268711">
        <ele>679.78999999999996</ele>
        <time>2025-05-19T10:45:43Z</time>
      </trkpt>
      <trkpt lat="44.158388022333384" lon="7.947147013619542">
        <ele>682.19000000000005</ele>
        <time>2025-05-19T10:45:52Z</time>
      </trkpt>
      <trkpt lat="44.158306969329715" lon="7.949813967570663">
        <ele>682.66999999999996</ele>
        <time>2025-05-19T10:46:03Z</time>
      </trkpt>
      <trkpt lat="44.158232035115361" lon="7.952361982315779">
        <ele>681.71000000000004</ele>
        <time>2025-05-19T10:46:13Z</time>
      </trkpt>
      <trkpt lat="44.158263970166445" lon="7.954217987135053">
        <ele>679.30999999999995</ele>
        <time>2025-05-19T10:46:21Z</time>
      </trkpt>
      <trkpt lat="44.15829598903656" lon="7.955314004793763">
        <ele>675.94000000000005</ele>
        <time>2025-05-19T10:46:26Z</time>
      </trkpt>
      <trkpt lat="44.158324990421534" lon="7.955530006438494">
        <ele>675.46000000000004</ele>
        <time>2025-05-19T10:46:27Z</time>
      </trkpt>
      <trkpt lat="44.158376958221197" lon="7.955743996426463">
        <ele>674.98000000000002</ele>
        <time>2025-05-19T10:46:28Z</time>
      </trkpt>
      <trkpt lat="44.158428004011512" lon="7.955955974757671">
        <ele>674.5</ele>
        <time>2025-05-19T10:46:29Z</time>
      </trkpt>
      <trkpt lat="44.158506039530039" lon="7.956146998330951">
        <ele>674.01999999999998</ele>
        <time>2025-05-19T10:46:30Z</time>
      </trkpt>
      <trkpt lat="44.158583991229534" lon="7.956331986933947">
        <ele>673.53999999999996</ele>
        <time>2025-05-19T10:46:31Z</time>
      </trkpt>
      <trkpt lat="44.158679964020848" lon="7.956493003293872">
        <ele>673.53999999999996</ele>
        <time>2025-05-19T10:46:32Z</time>
      </trkpt>
      <trkpt lat="44.158785995095968" lon="7.956645973026753">
        <ele>673.05999999999995</ele>
        <time>2025-05-19T10:46:33Z</time>
      </trkpt>
      <trkpt lat="44.15973499417305" lon="7.957972995936871">
        <ele>670.65999999999997</ele>
        <time>2025-05-19T10:46:42Z</time>
      </trkpt>
      <trkpt lat="44.16009902022779" lon="7.958704987540841">
        <ele>669.22000000000003</ele>
        <time>2025-05-19T10:46:46Z</time>
      </trkpt>
      <trkpt lat="44.160429015755653" lon="7.959850961342454">
        <ele>667.28999999999996</ele>
        <time>2025-05-19T10:46:51Z</time>
      </trkpt>
      <trkpt lat="44.160447958856821" lon="7.960104010999203">
        <ele>666.80999999999995</ele>
        <time>2025-05-19T10:46:52Z</time>
      </trkpt>
      <trkpt lat="44.160447958856821" lon="7.960370974615216">
        <ele>666.33000000000004</ele>
        <time>2025-05-19T10:46:53Z</time>
      </trkpt>
      <trkpt lat="44.160330025479198" lon="7.962669963017106">
        <ele>664.88999999999999</ele>
        <time>2025-05-19T10:47:01Z</time>
      </trkpt>
      <trkpt lat="44.160361038520932" lon="7.962980009615421">
        <ele>664.88999999999999</ele>
        <time>2025-05-19T10:47:02Z</time>
      </trkpt>
      <trkpt lat="44.160406971350312" lon="7.963292989879847">
        <ele>664.40999999999997</ele>
        <time>2025-05-19T10:47:03Z</time>
      </trkpt>
      <trkpt lat="44.160484001040459" lon="7.963589960709214">
        <ele>663.45000000000005</ele>
        <time>2025-05-19T10:47:04Z</time>
      </trkpt>
      <trkpt lat="44.160560024902225" lon="7.963887015357614">
        <ele>662.97000000000003</ele>
        <time>2025-05-19T10:47:05Z</time>
      </trkpt>
      <trkpt lat="44.160649040713906" lon="7.964173005893827">
        <ele>662.49000000000001</ele>
        <time>2025-05-19T10:47:06Z</time>
      </trkpt>
      <trkpt lat="44.160737972706556" lon="7.964449021965265">
        <ele>662.00999999999999</ele>
        <time>2025-05-19T10:47:07Z</time>
      </trkpt>
      <trkpt lat="44.161124965175986" lon="7.965636989101768">
        <ele>660.55999999999995</ele>
        <time>2025-05-19T10:47:12Z</time>
      </trkpt>
      <trkpt lat="44.161222027614713" lon="7.965836981311441">
        <ele>660.55999999999995</ele>
        <time>2025-05-19T10:47:13Z</time>
      </trkpt>
      <trkpt lat="44.161341972649097" lon="7.96602800488472">
        <ele>660.08000000000004</ele>
        <time>2025-05-19T10:47:14Z</time>
      </trkpt>
      <trkpt lat="44.161462001502514" lon="7.966219028457999">
        <ele>660.08000000000004</ele>
        <time>2025-05-19T10:47:15Z</time>
      </trkpt>
      <trkpt lat="44.16158395819366" lon="7.966411979869008">
        <ele>659.60000000000002</ele>
        <time>2025-05-19T10:47:16Z</time>
      </trkpt>
      <trkpt lat="44.161658976227045" lon="7.96665002591908">
        <ele>659.60000000000002</ele>
        <time>2025-05-19T10:47:17Z</time>
      </trkpt>
      <trkpt lat="44.161708010360599" lon="7.96691196039319">
        <ele>659.60000000000002</ele>
        <time>2025-05-19T10:47:18Z</time>
      </trkpt>
      <trkpt lat="44.161757966503501" lon="7.967179007828236">
        <ele>659.12</ele>
        <time>2025-05-19T10:47:19Z</time>
      </trkpt>
      <trkpt lat="44.161791997030377" lon="7.967453012242913">
        <ele>658.63999999999999</ele>
        <time>2025-05-19T10:47:20Z</time>
      </trkpt>
      <trkpt lat="44.161935998126864" lon="7.968528997153044">
        <ele>657.20000000000005</ele>
        <time>2025-05-19T10:47:24Z</time>
      </trkpt>
      <trkpt lat="44.162001041695476" lon="7.968781040981412">
        <ele>656.72000000000003</ele>
        <time>2025-05-19T10:47:25Z</time>
      </trkpt>
      <trkpt lat="44.16250797919929" lon="7.97025902196765">
        <ele>656.24000000000001</ele>
        <time>2025-05-19T10:47:31Z</time>
      </trkpt>
      <trkpt lat="44.16263597086072" lon="7.970447028055787">
        <ele>656.72000000000003</ele>
        <time>2025-05-19T10:47:32Z</time>
      </trkpt>
      <trkpt lat="44.162766980007291" lon="7.970639979466796">
        <ele>656.72000000000003</ele>
        <time>2025-05-19T10:47:33Z</time>
      </trkpt>
      <trkpt lat="44.162921039387584" lon="7.970809964463115">
        <ele>656.24000000000001</ele>
        <time>2025-05-19T10:47:34Z</time>
      </trkpt>
      <trkpt lat="44.163097981363535" lon="7.970964023843408">
        <ele>656.24000000000001</ele>
        <time>2025-05-19T10:47:35Z</time>
      </trkpt>
      <trkpt lat="44.163270983844995" lon="7.971129985526204">
        <ele>655.75999999999999</ele>
        <time>2025-05-19T10:47:36Z</time>
      </trkpt>
      <trkpt lat="44.163439963012934" lon="7.971295025199652">
        <ele>655.27999999999997</ele>
        <time>2025-05-19T10:47:37Z</time>
      </trkpt>
      <trkpt lat="44.164073970168829" lon="7.971846973523498">
        <ele>654.30999999999995</ele>
        <time>2025-05-19T10:47:41Z</time>
      </trkpt>
      <trkpt lat="44.164350992068648" lon="7.971977982670069">
        <ele>653.83000000000004</ele>
        <time>2025-05-19T10:47:43Z</time>
      </trkpt>
      <trkpt lat="44.164482001215219" lon="7.972040008753538">
        <ele>653.35000000000002</ele>
        <time>2025-05-19T10:47:44Z</time>
      </trkpt>
      <trkpt lat="44.165703998878598" lon="7.972376039251685">
        <ele>651.90999999999997</ele>
        <time>2025-05-19T10:47:54Z</time>
      </trkpt>
      <trkpt lat="44.166851984336972" lon="7.972782980650663">
        <ele>653.35000000000002</ele>
        <time>2025-05-19T10:48:02Z</time>
      </trkpt>
      <trkpt lat="44.166995985433459" lon="7.972885994240642">
        <ele>653.83000000000004</ele>
        <time>2025-05-19T10:48:03Z</time>
      </trkpt>
      <trkpt lat="44.167132023721933" lon="7.973017003387213">
        <ele>654.30999999999995</ele>
        <time>2025-05-19T10:48:04Z</time>
      </trkpt>
      <trkpt lat="44.167258003726602" lon="7.973166033625603">
        <ele>654.79999999999995</ele>
        <time>2025-05-19T10:48:05Z</time>
      </trkpt>
      <trkpt lat="44.167368980124593" lon="7.973326966166496">
        <ele>655.27999999999997</ele>
        <time>2025-05-19T10:48:06Z</time>
      </trkpt>
      <trkpt lat="44.167478028684855" lon="7.973491000011563">
        <ele>655.75999999999999</ele>
        <time>2025-05-19T10:48:07Z</time>
      </trkpt>
      <trkpt lat="44.16783400811255" lon="7.973982011899352">
        <ele>655.75999999999999</ele>
        <time>2025-05-19T10:48:10Z</time>
      </trkpt>
      <trkpt lat="44.16798303835094" lon="7.974134981632233">
        <ele>655.75999999999999</ele>
        <time>2025-05-19T10:48:11Z</time>
      </trkpt>
      <trkpt lat="44.169125994667411" lon="7.975145000964403">
        <ele>651.42999999999995</ele>
        <time>2025-05-19T10:48:17Z</time>
      </trkpt>
      <trkpt lat="44.170341035351157" lon="7.976138005033135">
        <ele>643.74000000000001</ele>
        <time>2025-05-19T10:48:24Z</time>
      </trkpt>
      <trkpt lat="44.171264972537756" lon="7.976583000272512">
        <ele>637.97000000000003</ele>
        <time>2025-05-19T10:48:31Z</time>
      </trkpt>
      <trkpt lat="44.172312961891294" lon="7.976918024942279">
        <ele>633.64999999999998</ele>
        <time>2025-05-19T10:48:39Z</time>
      </trkpt>
      <trkpt lat="44.173355000093579" lon="7.977511966601014">
        <ele>633.16999999999996</ele>
        <time>2025-05-19T10:48:44Z</time>
      </trkpt>
      <trkpt lat="44.174458980560303" lon="7.978413021191955">
        <ele>634.13</ele>
        <time>2025-05-19T10:48:50Z</time>
      </trkpt>
      <trkpt lat="44.175367997959256" lon="7.979610040783882">
        <ele>636.04999999999995</ele>
        <time>2025-05-19T10:48:57Z</time>
      </trkpt>
      <trkpt lat="44.175822967663407" lon="7.980386037379503">
        <ele>638.45000000000005</ele>
        <time>2025-05-19T10:49:03Z</time>
      </trkpt>
      <trkpt lat="44.175942996516824" lon="7.980590974912047">
        <ele>638.92999999999995</ele>
        <time>2025-05-19T10:49:05Z</time>
      </trkpt>
      <trkpt lat="44.176030000671744" lon="7.980672027915716">
        <ele>639.40999999999997</ele>
        <time>2025-05-19T10:49:06Z</time>
      </trkpt>
      <trkpt lat="44.176124967634678" lon="7.980740005150437">
        <ele>639.88999999999999</ele>
        <time>2025-05-19T10:49:07Z</time>
      </trkpt>
      <trkpt lat="44.176224041730165" lon="7.9808109998703">
        <ele>639.88999999999999</ele>
        <time>2025-05-19T10:49:08Z</time>
      </trkpt>
      <trkpt lat="44.176338035613298" lon="7.980845030397177">
        <ele>639.88999999999999</ele>
        <time>2025-05-19T10:49:09Z</time>
      </trkpt>
      <trkpt lat="44.176454963162541" lon="7.980855004861951">
        <ele>639.88999999999999</ele>
        <time>2025-05-19T10:49:10Z</time>
      </trkpt>
      <trkpt lat="44.176571974530816" lon="7.980865985155106">
        <ele>639.88999999999999</ele>
        <time>2025-05-19T10:49:11Z</time>
      </trkpt>
      <trkpt lat="44.176689991727471" lon="7.98087696544826">
        <ele>639.40999999999997</ele>
        <time>2025-05-19T10:49:12Z</time>
      </trkpt>
      <trkpt lat="44.177776034921408" lon="7.981030019000173">
        <ele>637.00999999999999</ele>
        <time>2025-05-19T10:49:21Z</time>
      </trkpt>
      <trkpt lat="44.179432969540358" lon="7.981658997014165">
        <ele>633.16999999999996</ele>
        <time>2025-05-19T10:49:33Z</time>
      </trkpt>
      <trkpt lat="44.180772984400392" lon="7.982513029128313">
        <ele>630.27999999999997</ele>
        <time>2025-05-19T10:49:43Z</time>
      </trkpt>
      <trkpt lat="44.181694993749261" lon="7.983779031783342">
        <ele>626.91999999999996</ele>
        <time>2025-05-19T10:49:50Z</time>
      </trkpt>
      <trkpt lat="44.182797968387604" lon="7.985577033832669">
        <ele>622.59000000000003</ele>
        <time>2025-05-19T10:49:58Z</time>
      </trkpt>
      <trkpt lat="44.183444967493415" lon="7.987356008961797">
        <ele>619.71000000000004</ele>
        <time>2025-05-19T10:50:05Z</time>
      </trkpt>
      <trkpt lat="44.183631967753172" lon="7.989012021571398">
        <ele>618.75</ele>
        <time>2025-05-19T10:50:12Z</time>
      </trkpt>
      <trkpt lat="44.183699022978544" lon="7.98987502232194">
        <ele>617.77999999999997</ele>
        <time>2025-05-19T10:50:16Z</time>
      </trkpt>
      <trkpt lat="44.183742022141814" lon="7.990082977339625">
        <ele>617.29999999999995</ele>
        <time>2025-05-19T10:50:17Z</time>
      </trkpt>
      <trkpt lat="44.183791978284717" lon="7.990296967327595">
        <ele>616.82000000000005</ele>
        <time>2025-05-19T10:50:18Z</time>
      </trkpt>
      <trkpt lat="44.18384101241827" lon="7.990509029477835">
        <ele>616.82000000000005</ele>
        <time>2025-05-19T10:50:19Z</time>
      </trkpt>
      <trkpt lat="44.183904966339469" lon="7.990712961181998">
        <ele>616.34000000000003</ele>
        <time>2025-05-19T10:50:20Z</time>
      </trkpt>
      <trkpt lat="44.184325989335775" lon="7.991895982995629">
        <ele>614.41999999999996</ele>
        <time>2025-05-19T10:50:26Z</time>
      </trkpt>
      <trkpt lat="44.184464961290359" lon="7.992263026535511">
        <ele>613.94000000000005</ele>
        <time>2025-05-19T10:50:28Z</time>
      </trkpt>
      <trkpt lat="44.184801997616887" lon="7.992918994277716">
        <ele>613.46000000000004</ele>
        <time>2025-05-19T10:50:32Z</time>
      </trkpt>
      <trkpt lat="44.184923032298684" lon="7.993043968454003">
        <ele>612.98000000000002</ele>
        <time>2025-05-19T10:50:33Z</time>
      </trkpt>
      <trkpt lat="44.185052029788494" lon="7.993177995085716">
        <ele>612.98000000000002</ele>
        <time>2025-05-19T10:50:34Z</time>
      </trkpt>
      <trkpt lat="44.185970015823841" lon="7.994144009426236">
        <ele>612.98000000000002</ele>
        <time>2025-05-19T10:50:42Z</time>
      </trkpt>
      <trkpt lat="44.186925971880555" lon="7.995450999587774">
        <ele>610.09000000000003</ele>
        <time>2025-05-19T10:50:53Z</time>
      </trkpt>
      <trkpt lat="44.186981962993741" lon="7.995616039261222">
        <ele>609.61000000000001</ele>
        <time>2025-05-19T10:50:54Z</time>
      </trkpt>
      <trkpt lat="44.187038959935308" lon="7.995789963752031">
        <ele>609.61000000000001</ele>
        <time>2025-05-19T10:50:55Z</time>
      </trkpt>
      <trkpt lat="44.187604989856482" lon="7.997831963002682">
        <ele>604.33000000000004</ele>
        <time>2025-05-19T10:51:06Z</time>
      </trkpt>
      <trkpt lat="44.187882011756301" lon="7.998714996501803">
        <ele>602.39999999999998</ele>
        <time>2025-05-19T10:51:11Z</time>
      </trkpt>
      <trkpt lat="44.187961975112557" lon="7.998874001204968">
        <ele>601.91999999999996</ele>
        <time>2025-05-19T10:51:12Z</time>
      </trkpt>
      <trkpt lat="44.188811983913183" lon="8.000491037964821">
        <ele>600</ele>
        <time>2025-05-19T10:51:22Z</time>
      </trkpt>
      <trkpt lat="44.189138961955905" lon="8.00231502391398">
        <ele>599.51999999999998</ele>
        <time>2025-05-19T10:51:30Z</time>
      </trkpt>
      <trkpt lat="44.189569037407637" lon="8.004457019269466">
        <ele>599.51999999999998</ele>
        <time>2025-05-19T10:51:39Z</time>
      </trkpt>
      <trkpt lat="44.190197009593248" lon="8.006953988224268">
        <ele>597.12</ele>
        <time>2025-05-19T10:51:48Z</time>
      </trkpt>
      <trkpt lat="44.190461039543152" lon="8.008028967306018">
        <ele>595.66999999999996</ele>
        <time>2025-05-19T10:51:52Z</time>
      </trkpt>
      <trkpt lat="44.190570004284382" lon="8.008272964507341">
        <ele>595.19000000000005</ele>
        <time>2025-05-19T10:51:53Z</time>
      </trkpt>
      <trkpt lat="44.190701013430953" lon="8.008510004729033">
        <ele>594.71000000000004</ele>
        <time>2025-05-19T10:51:54Z</time>
      </trkpt>
      <trkpt lat="44.190861023962498" lon="8.008728018030524">
        <ele>594.71000000000004</ele>
        <time>2025-05-19T10:51:55Z</time>
      </trkpt>
      <trkpt lat="44.191045006737113" lon="8.008923986926675">
        <ele>594.23000000000002</ele>
        <time>2025-05-19T10:51:56Z</time>
      </trkpt>
      <trkpt lat="44.191236030310392" lon="8.009116016328335">
        <ele>594.23000000000002</ele>
        <time>2025-05-19T10:51:57Z</time>
      </trkpt>
      <trkpt lat="44.191444991156459" lon="8.009281978011131">
        <ele>594.23000000000002</ele>
        <time>2025-05-19T10:51:58Z</time>
      </trkpt>
      <trkpt lat="44.191665016114712" lon="8.009416004642844">
        <ele>594.23000000000002</ele>
        <time>2025-05-19T10:51:59Z</time>
      </trkpt>
      <trkpt lat="44.191887974739075" lon="8.009518012404442">
        <ele>594.23000000000002</ele>
        <time>2025-05-19T10:52:00Z</time>
      </trkpt>
      <trkpt lat="44.192105988040566" lon="8.009619014337659">
        <ele>594.23000000000002</ele>
        <time>2025-05-19T10:52:01Z</time>
      </trkpt>
      <trkpt lat="44.194399025291204" lon="8.010638002306223">
        <ele>593.26999999999998</ele>
        <time>2025-05-19T10:52:12Z</time>
      </trkpt>
      <trkpt lat="44.196497015655041" lon="8.011393966153264">
        <ele>591.83000000000004</ele>
        <time>2025-05-19T10:52:22Z</time>
      </trkpt>
      <trkpt lat="44.198008021339774" lon="8.011796968057752">
        <ele>589.90999999999997</ele>
        <time>2025-05-19T10:52:30Z</time>
      </trkpt>
      <trkpt lat="44.198941010981798" lon="8.012183038517833">
        <ele>589.42999999999995</ele>
        <time>2025-05-19T10:52:38Z</time>
      </trkpt>
      <trkpt lat="44.199970979243517" lon="8.012599032372236">
        <ele>588.95000000000005</ele>
        <time>2025-05-19T10:52:48Z</time>
      </trkpt>
      <trkpt lat="44.20137302018702" lon="8.013160033151507">
        <ele>589.42999999999995</ele>
        <time>2025-05-19T10:53:00Z</time>
      </trkpt>
      <trkpt lat="44.202761985361576" lon="8.013732014223933">
        <ele>589.90999999999997</ele>
        <time>2025-05-19T10:53:12Z</time>
      </trkpt>
      <trkpt lat="44.203812992200255" lon="8.014172986149788">
        <ele>588.46000000000004</ele>
        <time>2025-05-19T10:53:21Z</time>
      </trkpt>
      <trkpt lat="44.204037040472031" lon="8.014254039153457">
        <ele>588.46000000000004</ele>
        <time>2025-05-19T10:53:23Z</time>
      </trkpt>
      <trkpt lat="44.204135024920106" lon="8.014289997518063">
        <ele>587.98000000000002</ele>
        <time>2025-05-19T10:53:24Z</time>
      </trkpt>
      <trkpt lat="44.204225968569517" lon="8.014324028044939">
        <ele>587.98000000000002</ele>
        <time>2025-05-19T10:53:25Z</time>
      </trkpt>
      <trkpt lat="44.204471977427602" lon="8.014416983351111">
        <ele>587.98000000000002</ele>
        <time>2025-05-19T10:53:28Z</time>
      </trkpt>
      <trkpt lat="44.204553030431271" lon="8.014447996392846">
        <ele>587.98000000000002</ele>
        <time>2025-05-19T10:53:29Z</time>
      </trkpt>
      <trkpt lat="44.204626036807895" lon="8.014475991949439">
        <ele>588.46000000000004</ele>
        <time>2025-05-19T10:53:30Z</time>
      </trkpt>
      <trkpt lat="44.204926025122404" lon="8.014588980004191">
        <ele>588.95000000000005</ele>
        <time>2025-05-19T10:53:34Z</time>
      </trkpt>
      <trkpt lat="44.205093998461962" lon="8.014611024409533">
        <ele>589.90999999999997</ele>
        <time>2025-05-19T10:53:36Z</time>
      </trkpt>
      <trkpt lat="44.205181002616882" lon="8.014622004702687">
        <ele>590.38999999999999</ele>
        <time>2025-05-19T10:53:37Z</time>
      </trkpt>
      <trkpt lat="44.205539999529719" lon="8.014660980552435">
        <ele>591.35000000000002</ele>
        <time>2025-05-19T10:53:41Z</time>
      </trkpt>
      <trkpt lat="44.205625997856259" lon="8.014666009694338">
        <ele>591.83000000000004</ele>
        <time>2025-05-19T10:53:42Z</time>
      </trkpt>
      <trkpt lat="44.20571300201118" lon="8.01467196084559">
        <ele>591.83000000000004</ele>
        <time>2025-05-19T10:53:43Z</time>
      </trkpt>
      <trkpt lat="44.205797994509339" lon="8.014676989987493">
        <ele>591.83000000000004</ele>
        <time>2025-05-19T10:53:44Z</time>
      </trkpt>
      <trkpt lat="44.20588600449264" lon="8.014683024957776">
        <ele>592.30999999999995</ele>
        <time>2025-05-19T10:53:45Z</time>
      </trkpt>
      <trkpt lat="44.206913961097598" lon="8.014749996364117">
        <ele>590.87</ele>
        <time>2025-05-19T10:53:55Z</time>
      </trkpt>
      <trkpt lat="44.208266967907548" lon="8.014852004125714">
        <ele>587.01999999999998</ele>
        <time>2025-05-19T10:54:06Z</time>
      </trkpt>
      <trkpt lat="44.209608994424343" lon="8.014893997460604">
        <ele>583.65999999999997</ele>
        <time>2025-05-19T10:54:17Z</time>
      </trkpt>
      <trkpt lat="44.209736986085773" lon="8.014882011339068">
        <ele>583.17999999999995</ele>
        <time>2025-05-19T10:54:18Z</time>
      </trkpt>
      <trkpt lat="44.21134103089571" lon="8.01437197253108">
        <ele>579.80999999999995</ele>
        <time>2025-05-19T10:54:29Z</time>
      </trkpt>
      <trkpt lat="44.212838038802147" lon="8.01437197253108">
        <ele>576.92999999999995</ele>
        <time>2025-05-19T10:54:38Z</time>
      </trkpt>
      <trkpt lat="44.215268036350608" lon="8.01456400193274">
        <ele>573.55999999999995</ele>
        <time>2025-05-19T10:54:53Z</time>
      </trkpt>
      <trkpt lat="44.217265024781227" lon="8.014698028564453">
        <ele>570.67999999999995</ele>
        <time>2025-05-19T10:55:03Z</time>
      </trkpt>
      <trkpt lat="44.220305979251862" lon="8.014910006895661">
        <ele>568.75999999999999</ele>
        <time>2025-05-19T10:55:16Z</time>
      </trkpt>
      <trkpt lat="44.223448019474745" lon="8.015133971348405">
        <ele>567.32000000000005</ele>
        <time>2025-05-19T10:55:29Z</time>
      </trkpt>
      <trkpt lat="44.225913975387812" lon="8.015536973252893">
        <ele>563.47000000000003</ele>
        <time>2025-05-19T10:55:40Z</time>
      </trkpt>
      <trkpt lat="44.227560013532639" lon="8.016335014253855">
        <ele>563.95000000000005</ele>
        <time>2025-05-19T10:55:48Z</time>
      </trkpt>
      <trkpt lat="44.229621039703488" lon="8.017394989728928">
        <ele>563.47000000000003</ele>
        <time>2025-05-19T10:55:58Z</time>
      </trkpt>
      <trkpt lat="44.229851039126515" lon="8.017417034134269">
        <ele>563.47000000000003</ele>
        <time>2025-05-19T10:55:59Z</time>
      </trkpt>
      <trkpt lat="44.230084978044033" lon="8.017398007214069">
        <ele>562.99000000000001</ele>
        <time>2025-05-19T10:56:00Z</time>
      </trkpt>
      <trkpt lat="44.230322018265724" lon="8.01737898029387">
        <ele>562.99000000000001</ele>
        <time>2025-05-19T10:56:01Z</time>
      </trkpt>
      <trkpt lat="44.230570960789919" lon="8.017359031364322">
        <ele>562.99000000000001</ele>
        <time>2025-05-19T10:56:02Z</time>
      </trkpt>
      <trkpt lat="44.230788974091411" lon="8.01724998280406">
        <ele>562.50999999999999</ele>
        <time>2025-05-19T10:56:03Z</time>
      </trkpt>
      <trkpt lat="44.231012016534805" lon="8.017139006406069">
        <ele>562.50999999999999</ele>
        <time>2025-05-19T10:56:04Z</time>
      </trkpt>
      <trkpt lat="44.231232963502407" lon="8.017028030008078">
        <ele>561.54999999999995</ele>
        <time>2025-05-19T10:56:05Z</time>
      </trkpt>
      <trkpt lat="44.233274962753057" lon="8.015625989064574">
        <ele>554.82000000000005</ele>
        <time>2025-05-19T10:56:15Z</time>
      </trkpt>
      <trkpt lat="44.233886003494263" lon="8.015313008800149">
        <ele>552.89999999999998</ele>
        <time>2025-05-19T10:56:18Z</time>
      </trkpt>
      <trkpt lat="44.234091024845839" lon="8.015221981331706">
        <ele>551.92999999999995</ele>
        <time>2025-05-19T10:56:19Z</time>
      </trkpt>
      <trkpt lat="44.234306020662189" lon="8.015195997431874">
        <ele>551.45000000000005</ele>
        <time>2025-05-19T10:56:20Z</time>
      </trkpt>
      <trkpt lat="44.23452596180141" lon="8.015176970511675">
        <ele>550.49000000000001</ele>
        <time>2025-05-19T10:56:21Z</time>
      </trkpt>
      <trkpt lat="44.234747998416424" lon="8.015157021582127">
        <ele>549.52999999999997</ele>
        <time>2025-05-19T10:56:22Z</time>
      </trkpt>
      <trkpt lat="44.234970035031438" lon="8.015151992440224">
        <ele>549.04999999999995</ele>
        <time>2025-05-19T10:56:23Z</time>
      </trkpt>
      <trkpt lat="44.237150000408292" lon="8.015258023515344">
        <ele>548.57000000000005</ele>
        <time>2025-05-19T10:56:33Z</time>
      </trkpt>
      <trkpt lat="44.237575968727469" lon="8.015394983813167">
        <ele>549.04999999999995</ele>
        <time>2025-05-19T10:56:35Z</time>
      </trkpt>
      <trkpt lat="44.237776966765523" lon="8.015504032373428">
        <ele>549.52999999999997</ele>
        <time>2025-05-19T10:56:36Z</time>
      </trkpt>
      <trkpt lat="44.237976958975196" lon="8.015620037913322">
        <ele>549.52999999999997</ele>
        <time>2025-05-19T10:56:37Z</time>
      </trkpt>
      <trkpt lat="44.238161025568843" lon="8.015782982110977">
        <ele>549.52999999999997</ele>
        <time>2025-05-19T10:56:38Z</time>
      </trkpt>
      <trkpt lat="44.238344002515078" lon="8.015945004299283">
        <ele>550.00999999999999</ele>
        <time>2025-05-19T10:56:39Z</time>
      </trkpt>
      <trkpt lat="44.238524967804551" lon="8.016112977638841">
        <ele>550.00999999999999</ele>
        <time>2025-05-19T10:56:40Z</time>
      </trkpt>
      <trkpt lat="44.238673998042941" lon="8.016331996768713">
        <ele>549.52999999999997</ele>
        <time>2025-05-19T10:56:41Z</time>
      </trkpt>
      <trkpt lat="44.238819004967809" lon="8.016545986756682">
        <ele>550.00999999999999</ele>
        <time>2025-05-19T10:56:42Z</time>
      </trkpt>
      <trkpt lat="44.238928975537419" lon="8.01677699200809">
        <ele>550.00999999999999</ele>
        <time>2025-05-19T10:56:43Z</time>
      </trkpt>
      <trkpt lat="44.239035006612539" lon="8.017011014744639">
        <ele>550.00999999999999</ele>
        <time>2025-05-19T10:56:44Z</time>
      </trkpt>
      <trkpt lat="44.239138020202518" lon="8.017236990854144">
        <ele>550.00999999999999</ele>
        <time>2025-05-19T10:56:45Z</time>
      </trkpt>
      <trkpt lat="44.239626014605165" lon="8.018862996250391">
        <ele>550.97000000000003</ele>
        <time>2025-05-19T10:56:52Z</time>
      </trkpt>
      <trkpt lat="44.240469988435507" lon="8.02070701494813">
        <ele>552.40999999999997</ele>
        <time>2025-05-19T10:57:00Z</time>
      </trkpt>
      <trkpt lat="44.240608960390091" lon="8.020887980237603">
        <ele>552.40999999999997</ele>
        <time>2025-05-19T10:57:01Z</time>
      </trkpt>
      <trkpt lat="44.240750027820468" lon="8.021041033789516">
        <ele>552.40999999999997</ele>
        <time>2025-05-19T10:57:02Z</time>
      </trkpt>
      <trkpt lat="44.240912972018123" lon="8.021153016015887">
        <ele>552.89999999999998</ele>
        <time>2025-05-19T10:57:03Z</time>
      </trkpt>
      <trkpt lat="44.241080023348331" lon="8.021259969100356">
        <ele>552.89999999999998</ele>
        <time>2025-05-19T10:57:04Z</time>
      </trkpt>
      <trkpt lat="44.241258976981044" lon="8.021343033760786">
        <ele>553.38</ele>
        <time>2025-05-19T10:57:05Z</time>
      </trkpt>
      <trkpt lat="44.242110997438431" lon="8.02167596295476">
        <ele>553.86000000000001</ele>
        <time>2025-05-19T10:57:11Z</time>
      </trkpt>
      <trkpt lat="44.243166027590632" lon="8.021701024845243">
        <ele>552.40999999999997</ele>
        <time>2025-05-19T10:57:21Z</time>
      </trkpt>
      <trkpt lat="44.244213011115789" lon="8.02167403511703">
        <ele>550.97000000000003</ele>
        <time>2025-05-19T10:57:30Z</time>
      </trkpt>
      <trkpt lat="44.244327004998922" lon="8.021671017631888">
        <ele>550.97000000000003</ele>
        <time>2025-05-19T10:57:31Z</time>
      </trkpt>
      <trkpt lat="44.245511032640934" lon="8.021649979054928">
        <ele>550.49000000000001</ele>
        <time>2025-05-19T10:57:41Z</time>
      </trkpt>
      <trkpt lat="44.246864961460233" lon="8.021606979891658">
        <ele>545.20000000000005</ele>
        <time>2025-05-19T10:57:51Z</time>
      </trkpt>
      <trkpt lat="44.249022966250777" lon="8.021531961858273">
        <ele>538.48000000000002</ele>
        <time>2025-05-19T10:58:04Z</time>
      </trkpt>
      <trkpt lat="44.250709991902113" lon="8.021471025422216">
        <ele>538.48000000000002</ele>
        <time>2025-05-19T10:58:14Z</time>
      </trkpt>
      <trkpt lat="44.251032024621964" lon="8.0214390065521">
        <ele>538.48000000000002</ele>
        <time>2025-05-19T10:58:16Z</time>
      </trkpt>
      <trkpt lat="44.251191029325128" lon="8.021386032924056">
        <ele>538.48000000000002</ele>
        <time>2025-05-19T10:58:17Z</time>
      </trkpt>
      <trkpt lat="44.251364031806588" lon="8.02132903598249">
        <ele>538.96000000000004</ele>
        <time>2025-05-19T10:58:18Z</time>
      </trkpt>
      <trkpt lat="44.251495962962508" lon="8.021242031827569">
        <ele>538.96000000000004</ele>
        <time>2025-05-19T10:58:19Z</time>
      </trkpt>
      <trkpt lat="44.251640969887376" lon="8.021147986873984">
        <ele>539.44000000000005</ele>
        <time>2025-05-19T10:58:20Z</time>
      </trkpt>
      <trkpt lat="44.252914013341069" lon="8.020442984998226">
        <ele>539.91999999999996</ele>
        <time>2025-05-19T10:58:28Z</time>
      </trkpt>
      <trkpt lat="44.25431203097105" lon="8.020138973370194">
        <ele>541.36000000000001</ele>
        <time>2025-05-19T10:58:36Z</time>
      </trkpt>
      <trkpt lat="44.255517013370991" lon="8.020137967541814">
        <ele>540.88</ele>
        <time>2025-05-19T10:58:43Z</time>
      </trkpt>
      <trkpt lat="44.255660008639097" lon="8.020185995846987">
        <ele>540.39999999999998</ele>
        <time>2025-05-19T10:58:44Z</time>
      </trkpt>
      <trkpt lat="44.255806021392345" lon="8.02023402415216">
        <ele>539.91999999999996</ele>
        <time>2025-05-19T10:58:45Z</time>
      </trkpt>
      <trkpt lat="44.2573850043118" lon="8.021272039040923">
        <ele>537.50999999999999</ele>
        <time>2025-05-19T10:58:57Z</time>
      </trkpt>
      <trkpt lat="44.257972994819283" lon="8.021715022623539">
        <ele>537.50999999999999</ele>
        <time>2025-05-19T10:59:03Z</time>
      </trkpt>
      <trkpt lat="44.258866002783179" lon="8.022869965061545">
        <ele>534.63</ele>
        <time>2025-05-19T10:59:15Z</time>
      </trkpt>
      <trkpt lat="44.259236985817552" lon="8.02328696474433">
        <ele>532.71000000000004</ele>
        <time>2025-05-19T10:59:22Z</time>
      </trkpt>
      <trkpt lat="44.259294988587499" lon="8.023339016363025">
        <ele>532.23000000000002</ele>
        <time>2025-05-19T10:59:23Z</time>
      </trkpt>
      <trkpt lat="44.25934100523591" lon="8.023381009697914">
        <ele>532.23000000000002</ele>
        <time>2025-05-19T10:59:24Z</time>
      </trkpt>
      <trkpt lat="44.259389033541083" lon="8.023424008861184">
        <ele>531.26999999999998</ele>
        <time>2025-05-19T10:59:30Z</time>
      </trkpt>
      <trkpt lat="44.25944996997714" lon="8.02347999997437">
        <ele>529.34000000000003</ele>
        <time>2025-05-19T10:59:46Z</time>
      </trkpt>
      <trkpt lat="44.259500009939075" lon="8.023524004966021">
        <ele>528.86000000000001</ele>
        <time>2025-05-19T10:59:47Z</time>
      </trkpt>
      <trkpt lat="44.259538985788822" lon="8.023559963330627">
        <ele>528.86000000000001</ele>
        <time>2025-05-19T10:59:48Z</time>
      </trkpt>
      <trkpt lat="44.259585002437234" lon="8.02358603104949">
        <ele>528.38</ele>
        <time>2025-05-19T10:59:49Z</time>
      </trkpt>
      <trkpt lat="44.259585002437234" lon="8.02358603104949">
        <ele>528.38</ele>
        <time>2025-05-19T10:59:57Z</time>
      </trkpt>
      <trkpt lat="44.259585002437234" lon="8.02358603104949">
        <ele>527.89999999999998</ele>
        <time>2025-05-19T11:00:46Z</time>
      </trkpt>
      <trkpt lat="44.259764961898327" lon="8.023688960820437">
        <ele>526.94000000000005</ele>
        <time>2025-05-19T11:01:13Z</time>
      </trkpt>
      <trkpt lat="44.260681020095944" lon="8.024282986298204">
        <ele>526.46000000000004</ele>
        <time>2025-05-19T11:01:22Z</time>
      </trkpt>
      <trkpt lat="44.261841997504234" lon="8.025013972073793">
        <ele>526.94000000000005</ele>
        <time>2025-05-19T11:01:32Z</time>
      </trkpt>
      <trkpt lat="44.262708015739918" lon="8.025558041408658">
        <ele>527.41999999999996</ele>
        <time>2025-05-19T11:01:43Z</time>
      </trkpt>
      <trkpt lat="44.263576967641711" lon="8.026103032752872">
        <ele>527.41999999999996</ele>
        <time>2025-05-19T11:01:52Z</time>
      </trkpt>
      <trkpt lat="44.264681031927466" lon="8.026801999658346">
        <ele>526.46000000000004</ele>
        <time>2025-05-19T11:01:59Z</time>
      </trkpt>
      <trkpt lat="44.266677014529705" lon="8.028046041727066">
        <ele>522.61000000000001</ele>
        <time>2025-05-19T11:02:09Z</time>
      </trkpt>
      <trkpt lat="44.269316978752613" lon="8.029668023809791">
        <ele>518.28999999999996</ele>
        <time>2025-05-19T11:02:21Z</time>
      </trkpt>
      <trkpt lat="44.270921023562551" lon="8.030192982405424">
        <ele>517.80999999999995</ele>
        <time>2025-05-19T11:02:28Z</time>
      </trkpt>
      <trkpt lat="44.272693963721395" lon="8.030682988464832">
        <ele>517.33000000000004</ele>
        <time>2025-05-19T11:02:36Z</time>
      </trkpt>
      <trkpt lat="44.27358697168529" lon="8.0309799592942">
        <ele>517.80999999999995</ele>
        <time>2025-05-19T11:02:41Z</time>
      </trkpt>
      <trkpt lat="44.273732984438539" lon="8.031080961227417">
        <ele>517.80999999999995</ele>
        <time>2025-05-19T11:02:42Z</time>
      </trkpt>
      <trkpt lat="44.273872962221503" lon="8.031220017001033">
        <ele>517.80999999999995</ele>
        <time>2025-05-19T11:02:43Z</time>
      </trkpt>
      <trkpt lat="44.273975975811481" lon="8.031409028917551">
        <ele>517.80999999999995</ele>
        <time>2025-05-19T11:02:44Z</time>
      </trkpt>
      <trkpt lat="44.274081001058221" lon="8.031624024733901">
        <ele>517.80999999999995</ele>
        <time>2025-05-19T11:02:45Z</time>
      </trkpt>
      <trkpt lat="44.274190971627831" lon="8.031848995015025">
        <ele>517.80999999999995</ele>
        <time>2025-05-19T11:02:46Z</time>
      </trkpt>
      <trkpt lat="44.274304965510964" lon="8.032083017751575">
        <ele>517.33000000000004</ele>
        <time>2025-05-19T11:02:47Z</time>
      </trkpt>
      <trkpt lat="44.274851968511939" lon="8.033171994611621">
        <ele>515.88</ele>
        <time>2025-05-19T11:02:52Z</time>
      </trkpt>
      <trkpt lat="44.274980966001749" lon="8.033323958516121">
        <ele>515.39999999999998</ele>
        <time>2025-05-19T11:02:53Z</time>
      </trkpt>
      <trkpt lat="44.275911021977663" lon="8.034169021993876">
        <ele>514.44000000000005</ele>
        <time>2025-05-19T11:02:59Z</time>
      </trkpt>
      <trkpt lat="44.276066003367305" lon="8.034252002835274">
        <ele>514.44000000000005</ele>
        <time>2025-05-19T11:03:00Z</time>
      </trkpt>
      <trkpt lat="44.276255015283823" lon="8.034310005605221">
        <ele>513.96000000000004</ele>
        <time>2025-05-19T11:03:01Z</time>
      </trkpt>
      <trkpt lat="44.276426006108522" lon="8.034321991726756">
        <ele>513.96000000000004</ele>
        <time>2025-05-19T11:03:02Z</time>
      </trkpt>
      <trkpt lat="44.276623986661434" lon="8.034334983676672">
        <ele>513.48000000000002</ele>
        <time>2025-05-19T11:03:03Z</time>
      </trkpt>
      <trkpt lat="44.278490971773863" lon="8.03445702418685">
        <ele>510.60000000000002</ele>
        <time>2025-05-19T11:03:12Z</time>
      </trkpt>
      <trkpt lat="44.278652993962169" lon="8.034488037228584">
        <ele>511.07999999999998</ele>
        <time>2025-05-19T11:03:13Z</time>
      </trkpt>
      <trkpt lat="44.278792971745133" lon="8.034514021128416">
        <ele>511.07999999999998</ele>
        <time>2025-05-19T11:03:14Z</time>
      </trkpt>
      <trkpt lat="44.278905037790537" lon="8.034572023898363">
        <ele>511.56</ele>
        <time>2025-05-19T11:03:15Z</time>
      </trkpt>
      <trkpt lat="44.279009979218245" lon="8.034661961719394">
        <ele>511.56</ele>
        <time>2025-05-19T11:03:16Z</time>
      </trkpt>
      <trkpt lat="44.279120033606887" lon="8.034756006672978">
        <ele>512.03999999999996</ele>
        <time>2025-05-19T11:03:17Z</time>
      </trkpt>
      <trkpt lat="44.279233021661639" lon="8.034863965585828">
        <ele>512.03999999999996</ele>
        <time>2025-05-19T11:03:18Z</time>
      </trkpt>
      <trkpt lat="44.279348021373153" lon="8.034978965297341">
        <ele>512.51999999999998</ele>
        <time>2025-05-19T11:03:19Z</time>
      </trkpt>
      <trkpt lat="44.279466038569808" lon="8.035088013857603">
        <ele>512.51999999999998</ele>
        <time>2025-05-19T11:03:20Z</time>
      </trkpt>
      <trkpt lat="44.279610039666295" lon="8.035144004970789">
        <ele>512.03999999999996</ele>
        <time>2025-05-19T11:03:21Z</time>
      </trkpt>
      <trkpt lat="44.279757980257273" lon="8.035190021619201">
        <ele>511.56</ele>
        <time>2025-05-19T11:03:22Z</time>
      </trkpt>
      <trkpt lat="44.279917990788817" lon="8.035190021619201">
        <ele>511.07999999999998</ele>
        <time>2025-05-19T11:03:23Z</time>
      </trkpt>
      <trkpt lat="44.280072972178459" lon="8.035151967778802">
        <ele>511.07999999999998</ele>
        <time>2025-05-19T11:03:24Z</time>
      </trkpt>
      <trkpt lat="44.280237006023526" lon="8.035053983330727">
        <ele>510.60000000000002</ele>
        <time>2025-05-19T11:03:25Z</time>
      </trkpt>
      <trkpt lat="44.280404979363084" lon="8.034937977790833">
        <ele>509.63999999999999</ele>
        <time>2025-05-19T11:03:26Z</time>
      </trkpt>
      <trkpt lat="44.280573958531022" lon="8.03480101749301">
        <ele>509.16000000000003</ele>
        <time>2025-05-19T11:03:27Z</time>
      </trkpt>
      <trkpt lat="44.281692020595074" lon="8.033859981223941">
        <ele>503.87</ele>
        <time>2025-05-19T11:03:33Z</time>
      </trkpt>
      <trkpt lat="44.282907983288169" lon="8.03291299380362">
        <ele>498.57999999999998</ele>
        <time>2025-05-19T11:03:40Z</time>
      </trkpt>
      <trkpt lat="44.283099006861448" lon="8.032835964113474">
        <ele>497.62</ele>
        <time>2025-05-19T11:03:41Z</time>
      </trkpt>
      <trkpt lat="44.28329698741436" lon="8.032779973000288">
        <ele>496.66000000000003</ele>
        <time>2025-05-19T11:03:42Z</time>
      </trkpt>
      <trkpt lat="44.283496979624033" lon="8.032721970230341">
        <ele>496.18000000000001</ele>
        <time>2025-05-19T11:03:43Z</time>
      </trkpt>
      <trkpt lat="44.283695966005325" lon="8.032701015472412">
        <ele>495.69999999999999</ele>
        <time>2025-05-19T11:03:44Z</time>
      </trkpt>
      <trkpt lat="44.283897969871759" lon="8.032710989937186">
        <ele>495.69999999999999</ele>
        <time>2025-05-19T11:03:45Z</time>
      </trkpt>
      <trkpt lat="44.284098967909813" lon="8.03274099715054">
        <ele>495.69999999999999</ele>
        <time>2025-05-19T11:03:46Z</time>
      </trkpt>
      <trkpt lat="44.284494007006288" lon="8.032777039334178">
        <ele>495.22000000000003</ele>
        <time>2025-05-19T11:03:48Z</time>
      </trkpt>
      <trkpt lat="44.284685030579567" lon="8.032754994928837">
        <ele>495.22000000000003</ele>
        <time>2025-05-19T11:03:49Z</time>
      </trkpt>
      <trkpt lat="44.285261034965515" lon="8.03274099715054">
        <ele>494.74000000000001</ele>
        <time>2025-05-19T11:03:52Z</time>
      </trkpt>
      <trkpt lat="44.285454992204905" lon="8.032787013798952">
        <ele>494.25999999999999</ele>
        <time>2025-05-19T11:03:53Z</time>
      </trkpt>
      <trkpt lat="44.287417028099298" lon="8.033357989042997">
        <ele>492.32999999999998</ele>
        <time>2025-05-19T11:04:02Z</time>
      </trkpt>
      <trkpt lat="44.288935996592045" lon="8.03403097204864">
        <ele>491.37</ele>
        <time>2025-05-19T11:04:09Z</time>
      </trkpt>
      <trkpt lat="44.290855033323169" lon="8.034825995564461">
        <ele>493.76999999999998</ele>
        <time>2025-05-19T11:04:18Z</time>
      </trkpt>
      <trkpt lat="44.292841041460633" lon="8.035631999373436">
        <ele>496.18000000000001</ele>
        <time>2025-05-19T11:04:27Z</time>
      </trkpt>
      <trkpt lat="44.293572027236223" lon="8.035994013771415">
        <ele>496.18000000000001</ele>
        <time>2025-05-19T11:04:31Z</time>
      </trkpt>
      <trkpt lat="44.293728014454246" lon="8.036130974069238">
        <ele>496.18000000000001</ele>
        <time>2025-05-19T11:04:32Z</time>
      </trkpt>
      <trkpt lat="44.293877966701984" lon="8.036302970722318">
        <ele>496.18000000000001</ele>
        <time>2025-05-19T11:04:33Z</time>
      </trkpt>
      <trkpt lat="44.294015010818839" lon="8.036515032872558">
        <ele>495.69999999999999</ele>
        <time>2025-05-19T11:04:34Z</time>
      </trkpt>
      <trkpt lat="44.294141996651888" lon="8.036746960133314">
        <ele>495.69999999999999</ele>
        <time>2025-05-19T11:04:35Z</time>
      </trkpt>
      <trkpt lat="44.295616038143635" lon="8.039434030652046">
        <ele>492.81</ele>
        <time>2025-05-19T11:04:46Z</time>
      </trkpt>
      <trkpt lat="44.296220960095525" lon="8.040758036077023">
        <ele>491.37</ele>
        <time>2025-05-19T11:04:53Z</time>
      </trkpt>
      <trkpt lat="44.29668297059834" lon="8.041853969916701">
        <ele>490.41000000000003</ele>
        <time>2025-05-19T11:05:00Z</time>
      </trkpt>
      <trkpt lat="44.296786990016699" lon="8.041971987113357">
        <ele>490.41000000000003</ele>
        <time>2025-05-19T11:05:01Z</time>
      </trkpt>
      <trkpt lat="44.297506995499134" lon="8.042577998712659">
        <ele>491.85000000000002</ele>
        <time>2025-05-19T11:05:08Z</time>
      </trkpt>
      <trkpt lat="44.297602968290448" lon="8.042640024796128">
        <ele>492.81</ele>
        <time>2025-05-19T11:05:09Z</time>
      </trkpt>
      <trkpt lat="44.297701036557555" lon="8.042702972888947">
        <ele>493.29000000000002</ele>
        <time>2025-05-19T11:05:10Z</time>
      </trkpt>
      <trkpt lat="44.297804972156882" lon="8.042771033942699">
        <ele>493.76999999999998</ele>
        <time>2025-05-19T11:05:11Z</time>
      </trkpt>
      <trkpt lat="44.297908991575241" lon="8.04283800534904">
        <ele>494.25999999999999</ele>
        <time>2025-05-19T11:05:12Z</time>
      </trkpt>
      <trkpt lat="44.298012005165219" lon="8.042914029210806">
        <ele>494.25999999999999</ele>
        <time>2025-05-19T11:05:13Z</time>
      </trkpt>
      <trkpt lat="44.298106972128153" lon="8.043008996173739">
        <ele>494.25999999999999</ele>
        <time>2025-05-19T11:05:14Z</time>
      </trkpt>
      <trkpt lat="44.298555990681052" lon="8.043528003618121">
        <ele>493.76999999999998</ele>
        <time>2025-05-19T11:05:19Z</time>
      </trkpt>
      <trkpt lat="44.298642994835973" lon="8.043647026643157">
        <ele>493.76999999999998</ele>
        <time>2025-05-19T11:05:20Z</time>
      </trkpt>
      <trkpt lat="44.299273984506726" lon="8.044841028749943">
        <ele>489.93000000000001</ele>
        <time>2025-05-19T11:05:29Z</time>
      </trkpt>
      <trkpt lat="44.299378003925085" lon="8.04494496434927">
        <ele>489.93000000000001</ele>
        <time>2025-05-19T11:05:30Z</time>
      </trkpt>
      <trkpt lat="44.29949602112174" lon="8.045002967119217">
        <ele>489.93000000000001</ele>
        <time>2025-05-19T11:05:31Z</time>
      </trkpt>
      <trkpt lat="44.299622001126409" lon="8.045060969889164">
        <ele>489.93000000000001</ele>
        <time>2025-05-19T11:05:32Z</time>
      </trkpt>
      <trkpt lat="44.299756027758121" lon="8.045060969889164">
        <ele>489.93000000000001</ele>
        <time>2025-05-19T11:05:33Z</time>
      </trkpt>
      <trkpt lat="44.299887958914042" lon="8.045060969889164">
        <ele>490.41000000000003</ele>
        <time>2025-05-19T11:05:34Z</time>
      </trkpt>
      <trkpt lat="44.300007987767458" lon="8.045060969889164">
        <ele>490.41000000000003</ele>
        <time>2025-05-19T11:05:35Z</time>
      </trkpt>
      <trkpt lat="44.300114018842578" lon="8.045004978775978">
        <ele>490.41000000000003</ele>
        <time>2025-05-19T11:05:36Z</time>
      </trkpt>
      <trkpt lat="44.300224995240569" lon="8.044946976006031">
        <ele>490.88999999999999</ele>
        <time>2025-05-19T11:05:37Z</time>
      </trkpt>
      <trkpt lat="44.30033597163856" lon="8.044887967407703">
        <ele>490.88999999999999</ele>
        <time>2025-05-19T11:05:38Z</time>
      </trkpt>
      <trkpt lat="44.301188997924328" lon="8.044438026845455">
        <ele>493.76999999999998</ele>
        <time>2025-05-19T11:05:46Z</time>
      </trkpt>
      <trkpt lat="44.301658971235156" lon="8.044281033799052">
        <ele>493.29000000000002</ele>
        <time>2025-05-19T11:05:50Z</time>
      </trkpt>
      <trkpt lat="44.301786040887237" lon="8.044273993000388">
        <ele>492.81</ele>
        <time>2025-05-19T11:05:51Z</time>
      </trkpt>
      <trkpt lat="44.301917972043157" lon="8.044267036020756">
        <ele>492.32999999999998</ele>
        <time>2025-05-19T11:05:52Z</time>
      </trkpt>
      <trkpt lat="44.302030960097909" lon="8.044311963021755">
        <ele>491.85000000000002</ele>
        <time>2025-05-19T11:05:53Z</time>
      </trkpt>
      <trkpt lat="44.302153000608087" lon="8.044360997155309">
        <ele>491.37</ele>
        <time>2025-05-19T11:05:54Z</time>
      </trkpt>
      <trkpt lat="44.302939977496862" lon="8.044670037925243">
        <ele>488.97000000000003</ele>
        <time>2025-05-19T11:06:01Z</time>
      </trkpt>
      <trkpt lat="44.303045002743602" lon="8.044708007946611">
        <ele>488.49000000000001</ele>
        <time>2025-05-19T11:06:02Z</time>
      </trkpt>
      <trkpt lat="44.303693007677794" lon="8.044943958520889">
        <ele>488.00999999999999</ele>
        <time>2025-05-19T11:06:08Z</time>
      </trkpt>
      <trkpt lat="44.304800005629659" lon="8.045367999002338">
        <ele>482.72000000000003</ele>
        <time>2025-05-19T11:06:18Z</time>
      </trkpt>
      <trkpt lat="44.305351031944156" lon="8.04556698538363">
        <ele>479.83999999999997</ele>
        <time>2025-05-19T11:06:23Z</time>
      </trkpt>
      <trkpt lat="44.305461002513766" lon="8.0456099845469">
        <ele>479.35000000000002</ele>
        <time>2025-05-19T11:06:24Z</time>
      </trkpt>
      <trkpt lat="44.305568039417267" lon="8.045651977881789">
        <ele>478.87</ele>
        <time>2025-05-19T11:06:25Z</time>
      </trkpt>
      <trkpt lat="44.305681027472019" lon="8.04569598287344">
        <ele>478.38999999999999</ele>
        <time>2025-05-19T11:06:26Z</time>
      </trkpt>
      <trkpt lat="44.305797033011913" lon="8.045741999521852">
        <ele>478.38999999999999</ele>
        <time>2025-05-19T11:06:27Z</time>
      </trkpt>
      <trkpt lat="44.306305982172489" lon="8.045944003388286">
        <ele>479.35000000000002</ele>
        <time>2025-05-19T11:06:31Z</time>
      </trkpt>
      <trkpt lat="44.306446965783834" lon="8.045994965359569">
        <ele>479.83999999999997</ele>
        <time>2025-05-19T11:06:32Z</time>
      </trkpt>
      <trkpt lat="44.307141993194818" lon="8.046263018622994">
        <ele>480.31999999999999</ele>
        <time>2025-05-19T11:06:38Z</time>
      </trkpt>
      <trkpt lat="44.308066014200449" lon="8.046605000272393">
        <ele>481.27999999999997</ele>
        <time>2025-05-19T11:06:46Z</time>
      </trkpt>
      <trkpt lat="44.309374010190368" lon="8.047106992453337">
        <ele>481.27999999999997</ele>
        <time>2025-05-19T11:06:57Z</time>
      </trkpt>
      <trkpt lat="44.310592990368605" lon="8.047576965764165">
        <ele>481.27999999999997</ele>
        <time>2025-05-19T11:07:06Z</time>
      </trkpt>
      <trkpt lat="44.312549997121096" lon="8.048327984288335">
        <ele>479.83999999999997</ele>
        <time>2025-05-19T11:07:17Z</time>
      </trkpt>
      <trkpt lat="44.31408598087728" lon="8.048899965360761">
        <ele>478.38999999999999</ele>
        <time>2025-05-19T11:07:27Z</time>
      </trkpt>
      <trkpt lat="44.315510988235474" lon="8.049443028867245">
        <ele>479.83999999999997</ele>
        <time>2025-05-19T11:07:35Z</time>
      </trkpt>
      <trkpt lat="44.317983984947205" lon="8.050386998802424">
        <ele>479.35000000000002</ele>
        <time>2025-05-19T11:07:48Z</time>
      </trkpt>
      <trkpt lat="44.320193035528064" lon="8.051008014008403">
        <ele>476.47000000000003</ele>
        <time>2025-05-19T11:07:59Z</time>
      </trkpt>
      <trkpt lat="44.323493996635079" lon="8.051760038360953">
        <ele>470.69999999999999</ele>
        <time>2025-05-19T11:08:15Z</time>
      </trkpt>
      <trkpt lat="44.327077008783817" lon="8.052567970007658">
        <ele>465.42000000000002</ele>
        <time>2025-05-19T11:08:31Z</time>
      </trkpt>
      <trkpt lat="44.330242015421391" lon="8.0532790068537">
        <ele>463.49000000000001</ele>
        <time>2025-05-19T11:08:45Z</time>
      </trkpt>
      <trkpt lat="44.333153972402215" lon="8.053922988474369">
        <ele>463.49000000000001</ele>
        <time>2025-05-19T11:08:59Z</time>
      </trkpt>
      <trkpt lat="44.333952013403177" lon="8.054200010374188">
        <ele>465.89999999999998</ele>
        <time>2025-05-19T11:09:03Z</time>
      </trkpt>
      <trkpt lat="44.334149993956089" lon="8.054306041449308">
        <ele>466.38</ele>
        <time>2025-05-19T11:09:04Z</time>
      </trkpt>
      <trkpt lat="44.334332970902324" lon="8.054465968161821">
        <ele>466.86000000000001</ele>
        <time>2025-05-19T11:09:05Z</time>
      </trkpt>
      <trkpt lat="44.335923017933965" lon="8.055915031582117">
        <ele>465.89999999999998</ele>
        <time>2025-05-19T11:09:14Z</time>
      </trkpt>
      <trkpt lat="44.337794026359916" lon="8.057652013376355">
        <ele>463.97000000000003</ele>
        <time>2025-05-19T11:09:26Z</time>
      </trkpt>
      <trkpt lat="44.338521994650364" lon="8.058342011645436">
        <ele>463.00999999999999</ele>
        <time>2025-05-19T11:09:33Z</time>
      </trkpt>
      <trkpt lat="44.338611010462046" lon="8.058425998315215">
        <ele>462.52999999999997</ele>
        <time>2025-05-19T11:09:34Z</time>
      </trkpt>
      <trkpt lat="44.338702037930489" lon="8.058513002470136">
        <ele>462.05000000000001</ele>
        <time>2025-05-19T11:09:35Z</time>
      </trkpt>
      <trkpt lat="44.339763019233942" lon="8.059429982677102">
        <ele>459.64999999999998</ele>
        <time>2025-05-19T11:09:46Z</time>
      </trkpt>
      <trkpt lat="44.339862009510398" lon="8.059498965740204">
        <ele>459.64999999999998</ele>
        <time>2025-05-19T11:09:47Z</time>
      </trkpt>
      <trkpt lat="44.339958988130093" lon="8.059567026793957">
        <ele>459.17000000000002</ele>
        <time>2025-05-19T11:09:48Z</time>
      </trkpt>
      <trkpt lat="44.340156968683004" lon="8.05970499292016">
        <ele>459.17000000000002</ele>
        <time>2025-05-19T11:09:50Z</time>
      </trkpt>
      <trkpt lat="44.341147039085627" lon="8.06037001311779">
        <ele>458.20999999999998</ele>
        <time>2025-05-19T11:10:00Z</time>
      </trkpt>
      <trkpt lat="44.341450966894627" lon="8.060576040297747">
        <ele>458.20999999999998</ele>
        <time>2025-05-19T11:10:03Z</time>
      </trkpt>
      <trkpt lat="44.341554986312985" lon="8.060646029189229">
        <ele>457.72000000000003</ele>
        <time>2025-05-19T11:10:04Z</time>
      </trkpt>
      <trkpt lat="44.342745970934629" lon="8.06159402243793">
        <ele>456.75999999999999</ele>
        <time>2025-05-19T11:10:16Z</time>
      </trkpt>
      <trkpt lat="44.343436975032091" lon="8.062161980196834">
        <ele>455.80000000000001</ele>
        <time>2025-05-19T11:10:23Z</time>
      </trkpt>
      <trkpt lat="44.34354099445045" lon="8.062244039028883">
        <ele>455.31999999999999</ele>
        <time>2025-05-19T11:10:24Z</time>
      </trkpt>
      <trkpt lat="44.343664962798357" lon="8.062264993786812">
        <ele>455.31999999999999</ele>
        <time>2025-05-19T11:10:25Z</time>
      </trkpt>
      <trkpt lat="44.343782979995012" lon="8.06228200905025">
        <ele>455.31999999999999</ele>
        <time>2025-05-19T11:10:26Z</time>
      </trkpt>
      <trkpt lat="44.343902003020048" lon="8.062273040413857">
        <ele>455.31999999999999</ele>
        <time>2025-05-19T11:10:27Z</time>
      </trkpt>
      <trkpt lat="44.344017002731562" lon="8.062214031815529">
        <ele>455.31999999999999</ele>
        <time>2025-05-19T11:10:28Z</time>
      </trkpt>
      <trkpt lat="44.34412102214992" lon="8.06212903931737">
        <ele>455.31999999999999</ele>
        <time>2025-05-19T11:10:29Z</time>
      </trkpt>
      <trkpt lat="44.344224035739899" lon="8.062028959393501">
        <ele>455.31999999999999</ele>
        <time>2025-05-19T11:10:30Z</time>
      </trkpt>
      <trkpt lat="44.344305004924536" lon="8.061867021024227">
        <ele>455.31999999999999</ele>
        <time>2025-05-19T11:10:31Z</time>
      </trkpt>
      <trkpt lat="44.344395026564598" lon="8.061687983572483">
        <ele>455.31999999999999</ele>
        <time>2025-05-19T11:10:32Z</time>
      </trkpt>
      <trkpt lat="44.344488987699151" lon="8.061498971655965">
        <ele>455.31999999999999</ele>
        <time>2025-05-19T11:10:33Z</time>
      </trkpt>
      <trkpt lat="44.345222990959883" lon="8.060067007318139">
        <ele>454.36000000000001</ele>
        <time>2025-05-19T11:10:40Z</time>
      </trkpt>
      <trkpt lat="44.345357017591596" lon="8.05996298789978">
        <ele>453.88</ele>
        <time>2025-05-19T11:10:41Z</time>
      </trkpt>
      <trkpt lat="44.345504958182573" lon="8.059867015108466">
        <ele>453.88</ele>
        <time>2025-05-19T11:10:42Z</time>
      </trkpt>
      <trkpt lat="44.346190011128783" lon="8.059472981840372">
        <ele>453.88</ele>
        <time>2025-05-19T11:10:46Z</time>
      </trkpt>
      <trkpt lat="44.346364019438624" lon="8.059347001835704">
        <ele>453.88</ele>
        <time>2025-05-19T11:10:47Z</time>
      </trkpt>
      <trkpt lat="44.347814004868269" lon="8.057884024456143">
        <ele>451.95999999999998</ele>
        <time>2025-05-19T11:10:56Z</time>
      </trkpt>
      <trkpt lat="44.348269980400801" lon="8.057357976213098">
        <ele>452.44</ele>
        <time>2025-05-19T11:10:59Z</time>
      </trkpt>
      <trkpt lat="44.348395960405469" lon="8.057148009538651">
        <ele>452.92000000000002</ele>
        <time>2025-05-19T11:11:00Z</time>
      </trkpt>
      <trkpt lat="44.348630988970399" lon="8.056754982098937">
        <ele>454.36000000000001</ele>
        <time>2025-05-19T11:11:02Z</time>
      </trkpt>
      <trkpt lat="44.34873903170228" lon="8.056625984609127">
        <ele>454.83999999999997</ele>
        <time>2025-05-19T11:11:03Z</time>
      </trkpt>
      <trkpt lat="44.348900970071554" lon="8.056518025696278">
        <ele>455.31999999999999</ele>
        <time>2025-05-19T11:11:04Z</time>
      </trkpt>
      <trkpt lat="44.349056035280228" lon="8.056451976299286">
        <ele>455.80000000000001</ele>
        <time>2025-05-19T11:11:05Z</time>
      </trkpt>
      <trkpt lat="44.349237000569701" lon="8.056444013491273">
        <ele>456.27999999999997</ele>
        <time>2025-05-19T11:11:06Z</time>
      </trkpt>
      <trkpt lat="44.349432969465852" lon="8.056434961035848">
        <ele>456.75999999999999</ele>
        <time>2025-05-19T11:11:07Z</time>
      </trkpt>
      <trkpt lat="44.349644025787711" lon="8.056424986571074">
        <ele>457.24000000000001</ele>
        <time>2025-05-19T11:11:08Z</time>
      </trkpt>
      <trkpt lat="44.349874025210738" lon="8.056415012106299">
        <ele>458.20999999999998</ele>
        <time>2025-05-19T11:11:09Z</time>
      </trkpt>
      <trkpt lat="44.351722989231348" lon="8.055999018251896">
        <ele>462.05000000000001</ele>
        <time>2025-05-19T11:11:16Z</time>
      </trkpt>
      <trkpt lat="44.353405991569161" lon="8.055539019405842">
        <ele>466.38</ele>
        <time>2025-05-19T11:11:23Z</time>
      </trkpt>
      <trkpt lat="44.353577988222241" lon="8.055473975837231">
        <ele>467.33999999999997</ele>
        <time>2025-05-19T11:11:24Z</time>
      </trkpt>
      <trkpt lat="44.353713020682335" lon="8.055370040237904">
        <ele>467.81999999999999</ele>
        <time>2025-05-19T11:11:25Z</time>
      </trkpt>
      <trkpt lat="44.353828020393848" lon="8.055225033313036">
        <ele>468.30000000000001</ele>
        <time>2025-05-19T11:11:26Z</time>
      </trkpt>
      <trkpt lat="44.353944025933743" lon="8.055080026388168">
        <ele>469.25999999999999</ele>
        <time>2025-05-19T11:11:27Z</time>
      </trkpt>
      <trkpt lat="44.354055002331734" lon="8.054938958957791">
        <ele>469.74000000000001</ele>
        <time>2025-05-19T11:11:28Z</time>
      </trkpt>
      <trkpt lat="44.354162961244583" lon="8.054803004488349">
        <ele>470.69999999999999</ele>
        <time>2025-05-19T11:11:29Z</time>
      </trkpt>
      <trkpt lat="44.354290030896664" lon="8.054688004776835">
        <ele>471.18000000000001</ele>
        <time>2025-05-19T11:11:30Z</time>
      </trkpt>
      <trkpt lat="44.354585995897651" lon="8.054542997851968">
        <ele>473.58999999999997</ele>
        <time>2025-05-19T11:11:33Z</time>
      </trkpt>
      <trkpt lat="44.354789005592465" lon="8.054443001747131">
        <ele>476.47000000000003</ele>
        <time>2025-05-19T11:11:38Z</time>
      </trkpt>
      <trkpt lat="44.35479898005724" lon="8.054437972605228">
        <ele>476.47000000000003</ele>
        <time>2025-05-19T11:11:39Z</time>
      </trkpt>
      <trkpt lat="44.35479898005724" lon="8.054437972605228">
        <ele>476.47000000000003</ele>
        <time>2025-05-19T11:11:53Z</time>
      </trkpt>
      <trkpt lat="44.354801997542381" lon="8.054436966776848">
        <ele>476.47000000000003</ele>
        <time>2025-05-19T11:12:01Z</time>
      </trkpt>
      <trkpt lat="44.354834016412497" lon="8.054421041160822">
        <ele>476.47000000000003</ele>
        <time>2025-05-19T11:12:02Z</time>
      </trkpt>
      <trkpt lat="44.355413038283587" lon="8.054136978462338">
        <ele>476.94999999999999</ele>
        <time>2025-05-19T11:12:08Z</time>
      </trkpt>
      <trkpt lat="44.356100019067526" lon="8.053673040121794">
        <ele>475.99000000000001</ele>
        <time>2025-05-19T11:12:13Z</time>
      </trkpt>
      <trkpt lat="44.356330018490553" lon="8.053456032648683">
        <ele>475.50999999999999</ele>
        <time>2025-05-19T11:12:15Z</time>
      </trkpt>
      <trkpt lat="44.356449041515589" lon="8.053330974653363">
        <ele>475.02999999999997</ele>
        <time>2025-05-19T11:12:16Z</time>
      </trkpt>
      <trkpt lat="44.356564963236451" lon="8.053198959678412">
        <ele>475.02999999999997</ele>
        <time>2025-05-19T11:12:17Z</time>
      </trkpt>
      <trkpt lat="44.356678035110235" lon="8.053071973845363">
        <ele>475.02999999999997</ele>
        <time>2025-05-19T11:12:18Z</time>
      </trkpt>
      <trkpt lat="44.356793034821749" lon="8.052977006882429">
        <ele>475.02999999999997</ele>
        <time>2025-05-19T11:12:19Z</time>
      </trkpt>
      <trkpt lat="44.356938041746616" lon="8.052910035476089">
        <ele>475.02999999999997</ele>
        <time>2025-05-19T11:12:20Z</time>
      </trkpt>
      <trkpt lat="44.3570770137012" lon="8.052870975807309">
        <ele>475.02999999999997</ele>
        <time>2025-05-19T11:12:21Z</time>
      </trkpt>
      <trkpt lat="44.357220008969307" lon="8.052895031869412">
        <ele>474.55000000000001</ele>
        <time>2025-05-19T11:12:22Z</time>
      </trkpt>
      <trkpt lat="44.357383036985993" lon="8.052977006882429">
        <ele>473.58999999999997</ele>
        <time>2025-05-19T11:12:23Z</time>
      </trkpt>
      <trkpt lat="44.357523014768958" lon="8.053114973008633">
        <ele>472.63</ele>
        <time>2025-05-19T11:12:24Z</time>
      </trkpt>
      <trkpt lat="44.357672967016697" lon="8.053297027945519">
        <ele>471.66000000000003</ele>
        <time>2025-05-19T11:12:25Z</time>
      </trkpt>
      <trkpt lat="44.35911700129509" lon="8.05491297505796">
        <ele>457.24000000000001</ele>
        <time>2025-05-19T11:12:33Z</time>
      </trkpt>
      <trkpt lat="44.360337993130088" lon="8.055990971624851">
        <ele>449.55000000000001</ele>
        <time>2025-05-19T11:12:39Z</time>
      </trkpt>
      <trkpt lat="44.360997984185815" lon="8.056536968797445">
        <ele>447.14999999999998</ele>
        <time>2025-05-19T11:12:43Z</time>
      </trkpt>
      <trkpt lat="44.361142991110682" lon="8.056660015136004">
        <ele>447.14999999999998</ele>
        <time>2025-05-19T11:12:44Z</time>
      </trkpt>
      <trkpt lat="44.361554961651564" lon="8.057009959593415">
        <ele>445.70999999999998</ele>
        <time>2025-05-19T11:12:47Z</time>
      </trkpt>
      <trkpt lat="44.36169502325356" lon="8.057127976790071">
        <ele>446.19</ele>
        <time>2025-05-19T11:12:48Z</time>
      </trkpt>
      <trkpt lat="44.361825026571751" lon="8.057238031178713">
        <ele>446.19</ele>
        <time>2025-05-19T11:12:49Z</time>
      </trkpt>
      <trkpt lat="44.362063994631171" lon="8.057441040873528">
        <ele>446.19</ele>
        <time>2025-05-19T11:12:51Z</time>
      </trkpt>
      <trkpt lat="44.362180000171065" lon="8.057539025321603">
        <ele>446.19</ele>
        <time>2025-05-19T11:12:52Z</time>
      </trkpt>
      <trkpt lat="44.362764973193407" lon="8.058033976703882">
        <ele>445.23000000000002</ele>
        <time>2025-05-19T11:12:59Z</time>
      </trkpt>
      <trkpt lat="44.362819036468863" lon="8.058079993352294">
        <ele>445.23000000000002</ele>
        <time>2025-05-19T11:13:00Z</time>
      </trkpt>
      <trkpt lat="44.362901011481881" lon="8.058149982243776">
        <ele>445.23000000000002</ele>
        <time>2025-05-19T11:13:01Z</time>
      </trkpt>
      <trkpt lat="44.362901011481881" lon="8.058149982243776">
        <ele>445.23000000000002</ele>
        <time>2025-05-19T11:13:02Z</time>
      </trkpt>
      <trkpt lat="44.362937975674868" lon="8.058165991678834">
        <ele>445.23000000000002</ele>
        <time>2025-05-19T11:13:03Z</time>
      </trkpt>
      <trkpt lat="44.362937975674868" lon="8.058165991678834">
        <ele>445.23000000000002</ele>
        <time>2025-05-19T11:13:11Z</time>
      </trkpt>
      <trkpt lat="44.362937975674868" lon="8.058165991678834">
        <ele>445.70999999999998</ele>
        <time>2025-05-19T11:13:58Z</time>
      </trkpt>
      <trkpt lat="44.362937975674868" lon="8.058165991678834">
        <ele>445.70999999999998</ele>
        <time>2025-05-19T11:14:37Z</time>
      </trkpt>
      <trkpt lat="44.363243998959661" lon="8.058300018310547">
        <ele>445.23000000000002</ele>
        <time>2025-05-19T11:14:49Z</time>
      </trkpt>
      <trkpt lat="44.363245004788041" lon="8.058300018310547">
        <ele>444.75</ele>
        <time>2025-05-19T11:14:51Z</time>
      </trkpt>
      <trkpt lat="44.363335026428103" lon="8.058289038017392">
        <ele>444.75</ele>
        <time>2025-05-19T11:14:52Z</time>
      </trkpt>
      <trkpt lat="44.36358698643744" lon="8.058257019147277">
        <ele>443.79000000000002</ele>
        <time>2025-05-19T11:14:54Z</time>
      </trkpt>
      <trkpt lat="44.364148993045092" lon="8.05805099196732">
        <ele>443.31</ele>
        <time>2025-05-19T11:14:58Z</time>
      </trkpt>
      <trkpt lat="44.364484017714858" lon="8.057889975607395">
        <ele>443.79000000000002</ele>
        <time>2025-05-19T11:15:00Z</time>
      </trkpt>
      <trkpt lat="44.365120036527514" lon="8.057463001459837">
        <ele>443.79000000000002</ele>
        <time>2025-05-19T11:15:04Z</time>
      </trkpt>
      <trkpt lat="44.365236964076757" lon="8.057295028120279">
        <ele>444.26999999999998</ele>
        <time>2025-05-19T11:15:05Z</time>
      </trkpt>
      <trkpt lat="44.365353975445032" lon="8.057127976790071">
        <ele>444.75</ele>
        <time>2025-05-19T11:15:06Z</time>
      </trkpt>
      <trkpt lat="44.365437962114811" lon="8.056926978752017">
        <ele>445.70999999999998</ele>
        <time>2025-05-19T11:15:07Z</time>
      </trkpt>
      <trkpt lat="44.365508034825325" lon="8.056706031784415">
        <ele>446.19</ele>
        <time>2025-05-19T11:15:08Z</time>
      </trkpt>
      <trkpt lat="44.366117985919118" lon="8.054689010605216">
        <ele>449.06999999999999</ele>
        <time>2025-05-19T11:15:16Z</time>
      </trkpt>
      <trkpt lat="44.366503972560167" lon="8.052896959707141">
        <ele>449.55000000000001</ele>
        <time>2025-05-19T11:15:22Z</time>
      </trkpt>
      <trkpt lat="44.366656020283699" lon="8.051380002871156">
        <ele>450.02999999999997</ele>
        <time>2025-05-19T11:15:27Z</time>
      </trkpt>
      <trkpt lat="44.366656020283699" lon="8.051069034263492">
        <ele>450.02999999999997</ele>
        <time>2025-05-19T11:15:28Z</time>
      </trkpt>
      <trkpt lat="44.366600029170513" lon="8.049504971131682">
        <ele>449.55000000000001</ele>
        <time>2025-05-19T11:15:33Z</time>
      </trkpt>
      <trkpt lat="44.366697007790208" lon="8.047549976035953">
        <ele>449.55000000000001</ele>
        <time>2025-05-19T11:15:39Z</time>
      </trkpt>
      <trkpt lat="44.366692984476686" lon="8.047218974679709">
        <ele>449.55000000000001</ele>
        <time>2025-05-19T11:15:40Z</time>
      </trkpt>
      <trkpt lat="44.366533979773521" lon="8.044800963252783">
        <ele>452.92000000000002</ele>
        <time>2025-05-19T11:15:48Z</time>
      </trkpt>
      <trkpt lat="44.366556024178863" lon="8.044582027941942">
        <ele>452.92000000000002</ele>
        <time>2025-05-19T11:15:49Z</time>
      </trkpt>
      <trkpt lat="44.366596005856991" lon="8.044360997155309">
        <ele>453.39999999999998</ele>
        <time>2025-05-19T11:15:50Z</time>
      </trkpt>
      <trkpt lat="44.366675969213247" lon="8.04417097941041">
        <ele>453.39999999999998</ele>
        <time>2025-05-19T11:15:51Z</time>
      </trkpt>
      <trkpt lat="44.366801027208567" lon="8.043984984979034">
        <ele>452.92000000000002</ele>
        <time>2025-05-19T11:15:52Z</time>
      </trkpt>
      <trkpt lat="44.366929018869996" lon="8.043807959184051">
        <ele>452.92000000000002</ele>
        <time>2025-05-19T11:15:53Z</time>
      </trkpt>
      <trkpt lat="44.367113001644611" lon="8.043705029413104">
        <ele>452.92000000000002</ele>
        <time>2025-05-19T11:15:54Z</time>
      </trkpt>
      <trkpt lat="44.367310982197523" lon="8.043594975024462">
        <ele>453.39999999999998</ele>
        <time>2025-05-19T11:15:55Z</time>
      </trkpt>
      <trkpt lat="44.367522960528731" lon="8.043477963656187">
        <ele>453.88</ele>
        <time>2025-05-19T11:15:56Z</time>
      </trkpt>
      <trkpt lat="44.367734016850591" lon="8.043343015015125">
        <ele>454.36000000000001</ele>
        <time>2025-05-19T11:15:57Z</time>
      </trkpt>
      <trkpt lat="44.367922022938728" lon="8.043172024190426">
        <ele>454.83999999999997</ele>
        <time>2025-05-19T11:15:58Z</time>
      </trkpt>
      <trkpt lat="44.368112040683627" lon="8.042969014495611">
        <ele>455.31999999999999</ele>
        <time>2025-05-19T11:15:59Z</time>
      </trkpt>
      <trkpt lat="44.368481012061238" lon="8.042572969570756">
        <ele>455.80000000000001</ele>
        <time>2025-05-19T11:16:01Z</time>
      </trkpt>
      <trkpt lat="44.368641022592783" lon="8.042336013168097">
        <ele>456.27999999999997</ele>
        <time>2025-05-19T11:16:02Z</time>
      </trkpt>
      <trkpt lat="44.369674008339643" lon="8.040684023872018">
        <ele>456.75999999999999</ele>
        <time>2025-05-19T11:16:09Z</time>
      </trkpt>
      <trkpt lat="44.369815997779369" lon="8.040479002520442">
        <ele>457.24000000000001</ele>
        <time>2025-05-19T11:16:10Z</time>
      </trkpt>
      <trkpt lat="44.369963016360998" lon="8.040267024189234">
        <ele>457.72000000000003</ele>
        <time>2025-05-19T11:16:11Z</time>
      </trkpt>
      <trkpt lat="44.370408011600375" lon="8.03972102701664">
        <ele>457.72000000000003</ele>
        <time>2025-05-19T11:16:14Z</time>
      </trkpt>
      <trkpt lat="44.370558969676495" lon="8.039621030911803">
        <ele>457.24000000000001</ele>
        <time>2025-05-19T11:16:15Z</time>
      </trkpt>
      <trkpt lat="44.370730966329575" lon="8.039554981514812">
        <ele>457.24000000000001</ele>
        <time>2025-05-19T11:16:16Z</time>
      </trkpt>
      <trkpt lat="44.37091201543808" lon="8.039562022313476">
        <ele>456.75999999999999</ele>
        <time>2025-05-19T11:16:17Z</time>
      </trkpt>
      <trkpt lat="44.37112701125443" lon="8.039582977071405">
        <ele>456.27999999999997</ele>
        <time>2025-05-19T11:16:18Z</time>
      </trkpt>
      <trkpt lat="44.371345024555922" lon="8.039624970406294">
        <ele>454.83999999999997</ele>
        <time>2025-05-19T11:16:19Z</time>
      </trkpt>
      <trkpt lat="44.373401021584868" lon="8.040136015042663">
        <ele>448.11000000000001</ele>
        <time>2025-05-19T11:16:29Z</time>
      </trkpt>
      <trkpt lat="44.374569961801171" lon="8.040428962558508">
        <ele>443.31</ele>
        <time>2025-05-19T11:16:37Z</time>
      </trkpt>
      <trkpt lat="44.37478001229465" lon="8.040471039712429">
        <ele>442.81999999999999</ele>
        <time>2025-05-19T11:16:42Z</time>
      </trkpt>
      <trkpt lat="44.374813036993146" lon="8.040477996692061">
        <ele>442.81999999999999</ele>
        <time>2025-05-19T11:16:43Z</time>
      </trkpt>
      <trkpt lat="44.374873973429203" lon="8.040489982813597">
        <ele>442.81999999999999</ele>
        <time>2025-05-19T11:16:44Z</time>
      </trkpt>
      <trkpt lat="44.374903980642557" lon="8.040429968386889">
        <ele>442.81999999999999</ele>
        <time>2025-05-19T11:16:45Z</time>
      </trkpt>
      <trkpt lat="44.374951003119349" lon="8.040336007252336">
        <ele>442.33999999999997</ele>
        <time>2025-05-19T11:16:46Z</time>
      </trkpt>
      <trkpt lat="44.374968018382788" lon="8.040224025025964">
        <ele>441.86000000000001</ele>
        <time>2025-05-19T11:16:47Z</time>
      </trkpt>
      <trkpt lat="44.374978998675942" lon="8.040091004222632">
        <ele>441.38</ele>
        <time>2025-05-19T11:16:48Z</time>
      </trkpt>
      <trkpt lat="44.374928958714008" lon="8.039977010339499">
        <ele>440.89999999999998</ele>
        <time>2025-05-19T11:16:49Z</time>
      </trkpt>
      <trkpt lat="44.374861987307668" lon="8.039867961779237">
        <ele>440.42000000000002</ele>
        <time>2025-05-19T11:16:50Z</time>
      </trkpt>
      <trkpt lat="44.374795015901327" lon="8.039758997038007">
        <ele>439.45999999999998</ele>
        <time>2025-05-19T11:16:51Z</time>
      </trkpt>
      <trkpt lat="44.374730978161097" lon="8.039656989276409">
        <ele>439.45999999999998</ele>
        <time>2025-05-19T11:16:52Z</time>
      </trkpt>
      <trkpt lat="44.374682027846575" lon="8.03959303535521">
        <ele>438.98000000000002</ele>
        <time>2025-05-19T11:16:53Z</time>
      </trkpt>
      <trkpt lat="44.374613966792822" lon="8.039533020928502">
        <ele>438.98000000000002</ele>
        <time>2025-05-19T11:16:54Z</time>
      </trkpt>
      <trkpt lat="44.374553030356765" lon="8.039479963481426">
        <ele>438.98000000000002</ele>
        <time>2025-05-19T11:16:55Z</time>
      </trkpt>
      <trkpt lat="44.374502990394831" lon="8.03944299928844">
        <ele>438.5</ele>
        <time>2025-05-19T11:16:56Z</time>
      </trkpt>
      <trkpt lat="44.374123960733414" lon="8.039206964895129">
        <ele>436.10000000000002</ele>
        <time>2025-05-19T11:17:04Z</time>
      </trkpt>
      <trkpt lat="44.37409101985395" lon="8.039188021793962">
        <ele>436.10000000000002</ele>
        <time>2025-05-19T11:17:05Z</time>
      </trkpt>
      <trkpt lat="44.374064030125737" lon="8.039172012358904">
        <ele>436.10000000000002</ele>
        <time>2025-05-19T11:17:06Z</time>
      </trkpt>
      <trkpt lat="44.374034022912383" lon="8.039154997095466">
        <ele>436.10000000000002</ele>
        <time>2025-05-19T11:17:07Z</time>
      </trkpt>
      <trkpt lat="44.374008039012551" lon="8.039139993488789">
        <ele>435.61000000000001</ele>
        <time>2025-05-19T11:17:08Z</time>
      </trkpt>
      <trkpt lat="44.373990017920732" lon="8.039130019024015">
        <ele>435.61000000000001</ele>
        <time>2025-05-19T11:17:09Z</time>
      </trkpt>
      <trkpt lat="44.373990017920732" lon="8.039130019024015">
        <ele>435.13</ele>
        <time>2025-05-19T11:17:23Z</time>
      </trkpt>
      <trkpt lat="44.37394198961556" lon="8.039102023467422">
        <ele>434.64999999999998</ele>
        <time>2025-05-19T11:17:38Z</time>
      </trkpt>
      <trkpt lat="44.373879041522741" lon="8.039063969627023">
        <ele>433.69</ele>
        <time>2025-05-19T11:17:39Z</time>
      </trkpt>
      <trkpt lat="44.37340303324163" lon="8.038579998537898">
        <ele>430.32999999999998</ele>
        <time>2025-05-19T11:17:45Z</time>
      </trkpt>
      <trkpt lat="44.373220978304744" lon="8.038366008549929">
        <ele>429.85000000000002</ele>
        <time>2025-05-19T11:17:47Z</time>
      </trkpt>
      <trkpt lat="44.373110001906753" lon="8.038295013830066">
        <ele>430.32999999999998</ele>
        <time>2025-05-19T11:17:48Z</time>
      </trkpt>
      <trkpt lat="44.372970024123788" lon="8.038214966654778">
        <ele>430.32999999999998</ele>
        <time>2025-05-19T11:17:49Z</time>
      </trkpt>
      <trkpt lat="44.372842032462358" lon="8.038207003846765">
        <ele>430.32999999999998</ele>
        <time>2025-05-19T11:17:50Z</time>
      </trkpt>
      <trkpt lat="44.37271798029542" lon="8.038199041038752">
        <ele>430.81</ele>
        <time>2025-05-19T11:17:51Z</time>
      </trkpt>
      <trkpt lat="44.372582025825977" lon="8.038212032988668">
        <ele>431.29000000000002</ele>
        <time>2025-05-19T11:17:52Z</time>
      </trkpt>
      <trkpt lat="44.3724599853158" lon="8.038246985524893">
        <ele>431.76999999999998</ele>
        <time>2025-05-19T11:17:53Z</time>
      </trkpt>
      <trkpt lat="44.372339034453034" lon="8.03828302770853">
        <ele>431.76999999999998</ele>
        <time>2025-05-19T11:17:54Z</time>
      </trkpt>
      <trkpt lat="44.372221017256379" lon="8.038316974416375">
        <ele>431.76999999999998</ele>
        <time>2025-05-19T11:17:55Z</time>
      </trkpt>
      <trkpt lat="44.372118003666401" lon="8.038339018821716">
        <ele>431.76999999999998</ele>
        <time>2025-05-19T11:17:56Z</time>
      </trkpt>
      <trkpt lat="44.37200803309679" lon="8.038277998566628">
        <ele>431.29000000000002</ele>
        <time>2025-05-19T11:17:57Z</time>
      </trkpt>
      <trkpt lat="44.371905019506812" lon="8.038204992190003">
        <ele>430.81</ele>
        <time>2025-05-19T11:17:58Z</time>
      </trkpt>
      <trkpt lat="44.371803011745214" lon="8.038094015792012">
        <ele>430.81</ele>
        <time>2025-05-19T11:17:59Z</time>
      </trkpt>
      <trkpt lat="44.371693041175604" lon="8.037972981110215">
        <ele>430.81</ele>
        <time>2025-05-19T11:18:00Z</time>
      </trkpt>
      <trkpt lat="44.370782012119889" lon="8.036547973752022">
        <ele>431.76999999999998</ele>
        <time>2025-05-19T11:18:08Z</time>
      </trkpt>
      <trkpt lat="44.370035016909242" lon="8.034815015271306">
        <ele>432.73000000000002</ele>
        <time>2025-05-19T11:18:15Z</time>
      </trkpt>
      <trkpt lat="44.36973100528121" lon="8.032620968297124">
        <ele>432.73000000000002</ele>
        <time>2025-05-19T11:18:22Z</time>
      </trkpt>
      <trkpt lat="44.369990006089211" lon="8.030620040372014">
        <ele>432.73000000000002</ele>
        <time>2025-05-19T11:18:28Z</time>
      </trkpt>
      <trkpt lat="44.370745969936252" lon="8.028718018904328">
        <ele>431.76999999999998</ele>
        <time>2025-05-19T11:18:34Z</time>
      </trkpt>
      <trkpt lat="44.37284798361361" lon="8.025163002312183">
        <ele>426</ele>
        <time>2025-05-19T11:18:46Z</time>
      </trkpt>
      <trkpt lat="44.374696025624871" lon="8.022036971524358">
        <ele>425.04000000000002</ele>
        <time>2025-05-19T11:18:57Z</time>
      </trkpt>
      <trkpt lat="44.375386023893952" lon="8.020941959694028">
        <ele>423.60000000000002</ele>
        <time>2025-05-19T11:19:01Z</time>
      </trkpt>
      <trkpt lat="44.377305982634425" lon="8.018693011254072">
        <ele>419.26999999999998</ele>
        <time>2025-05-19T11:19:10Z</time>
      </trkpt>
      <trkpt lat="44.380304021760821" lon="8.015628000721335">
        <ele>418.31</ele>
        <time>2025-05-19T11:19:23Z</time>
      </trkpt>
      <trkpt lat="44.382949015125632" lon="8.012862978503108">
        <ele>421.68000000000001</ele>
        <time>2025-05-19T11:19:35Z</time>
      </trkpt>
      <trkpt lat="44.385125041007996" lon="8.010588968172669">
        <ele>429.37</ele>
        <time>2025-05-19T11:19:45Z</time>
      </trkpt>
      <trkpt lat="44.387171985581517" lon="8.008385030552745">
        <ele>437.06</ele>
        <time>2025-05-19T11:19:55Z</time>
      </trkpt>
      <trkpt lat="44.388113021850586" lon="8.006637990474701">
        <ele>438.98000000000002</ele>
        <time>2025-05-19T11:20:01Z</time>
      </trkpt>
      <trkpt lat="44.389294032007456" lon="8.003124967217445">
        <ele>435.13</ele>
        <time>2025-05-19T11:20:11Z</time>
      </trkpt>
      <trkpt lat="44.390598004683852" lon="7.999231992289424">
        <ele>428.88999999999999</ele>
        <time>2025-05-19T11:20:22Z</time>
      </trkpt>
      <trkpt lat="44.39179502427578" lon="7.995603969320655">
        <ele>426</ele>
        <time>2025-05-19T11:20:33Z</time>
      </trkpt>
      <trkpt lat="44.393144007772207" lon="7.991478983312845">
        <ele>423.12</ele>
        <time>2025-05-19T11:20:45Z</time>
      </trkpt>
      <trkpt lat="44.394419984892011" lon="7.987646022811532">
        <ele>424.07999999999998</ele>
        <time>2025-05-19T11:20:56Z</time>
      </trkpt>
      <trkpt lat="44.395777015015483" lon="7.983524976298213">
        <ele>427.44</ele>
        <time>2025-05-19T11:21:08Z</time>
      </trkpt>
      <trkpt lat="44.397446019575" lon="7.978460965678096">
        <ele>432.25</ele>
        <time>2025-05-19T11:21:23Z</time>
      </trkpt>
      <trkpt lat="44.398244982585311" lon="7.976999999955297">
        <ele>433.69</ele>
        <time>2025-05-19T11:21:28Z</time>
      </trkpt>
      <trkpt lat="44.39886499196291" lon="7.976301033049822">
        <ele>433.69</ele>
        <time>2025-05-19T11:21:31Z</time>
      </trkpt>
      <trkpt lat="44.400950996205211" lon="7.974562039598823">
        <ele>430.81</ele>
        <time>2025-05-19T11:21:40Z</time>
      </trkpt>
      <trkpt lat="44.403207991272211" lon="7.972741993144155">
        <ele>422.16000000000003</ele>
        <time>2025-05-19T11:21:50Z</time>
      </trkpt>
      <trkpt lat="44.40679301507771" lon="7.969870017841458">
        <ele>408.69999999999999</ele>
        <time>2025-05-19T11:22:05Z</time>
      </trkpt>
      <trkpt lat="44.409330971539021" lon="7.967546973377466">
        <ele>401.49000000000001</ele>
        <time>2025-05-19T11:22:16Z</time>
      </trkpt>
      <trkpt lat="44.410589011386037" lon="7.965459963306785">
        <ele>397.16000000000003</ele>
        <time>2025-05-19T11:22:23Z</time>
      </trkpt>
      <trkpt lat="44.411418987438083" lon="7.962981015443802">
        <ele>391.38999999999999</ele>
        <time>2025-05-19T11:22:30Z</time>
      </trkpt>
      <trkpt lat="44.411738002672791" lon="7.960381032899022">
        <ele>386.58999999999997</ele>
        <time>2025-05-19T11:22:37Z</time>
      </trkpt>
      <trkpt lat="44.41154102794826" lon="7.957797981798649">
        <ele>385.14999999999998</ele>
        <time>2025-05-19T11:22:44Z</time>
      </trkpt>
      <trkpt lat="44.41085496917367" lon="7.95509397983551">
        <ele>387.06999999999999</ele>
        <time>2025-05-19T11:22:52Z</time>
      </trkpt>
      <trkpt lat="44.409733973443508" lon="7.951429998502135">
        <ele>389.94999999999999</ele>
        <time>2025-05-19T11:23:03Z</time>
      </trkpt>
      <trkpt lat="44.408580958843231" lon="7.947666021063924">
        <ele>399.56999999999999</ele>
        <time>2025-05-19T11:23:16Z</time>
      </trkpt>
      <trkpt lat="44.407543027773499" lon="7.944235978648067">
        <ele>409.66000000000003</ele>
        <time>2025-05-19T11:23:28Z</time>
      </trkpt>
      <trkpt lat="44.406714979559183" lon="7.941552009433508">
        <ele>416.87</ele>
        <time>2025-05-19T11:23:38Z</time>
      </trkpt>
      <trkpt lat="44.405802022665739" lon="7.938564028590918">
        <ele>424.07999999999998</ele>
        <time>2025-05-19T11:23:48Z</time>
      </trkpt>
      <trkpt lat="44.40458295866847" lon="7.934559993445873">
        <ele>430.81</ele>
        <time>2025-05-19T11:24:02Z</time>
      </trkpt>
      <trkpt lat="44.403662038967013" lon="7.930973963811994">
        <ele>431.76999999999998</ele>
        <time>2025-05-19T11:24:14Z</time>
      </trkpt>
      <trkpt lat="44.403518037870526" lon="7.928155967965722">
        <ele>430.32999999999998</ele>
        <time>2025-05-19T11:24:22Z</time>
      </trkpt>
      <trkpt lat="44.403887009248137" lon="7.925364961847663">
        <ele>426.48000000000002</ele>
        <time>2025-05-19T11:24:30Z</time>
      </trkpt>
      <trkpt lat="44.404632998630404" lon="7.92303797788918">
        <ele>425.04000000000002</ele>
        <time>2025-05-19T11:24:37Z</time>
      </trkpt>
      <trkpt lat="44.406014000996947" lon="7.920356020331383">
        <ele>423.12</ele>
        <time>2025-05-19T11:24:46Z</time>
      </trkpt>
      <trkpt lat="44.408288011327386" lon="7.916300017386675">
        <ele>420.70999999999998</ele>
        <time>2025-05-19T11:25:00Z</time>
      </trkpt>
      <trkpt lat="44.410762013867497" lon="7.912005968391895">
        <ele>421.19</ele>
        <time>2025-05-19T11:25:15Z</time>
      </trkpt>
      <trkpt lat="44.411658961325884" lon="7.910484988242388">
        <ele>420.70999999999998</ele>
        <time>2025-05-19T11:25:22Z</time>
      </trkpt>
      <trkpt lat="44.412411991506815" lon="7.909193001687527">
        <ele>421.19</ele>
        <time>2025-05-19T11:25:30Z</time>
      </trkpt>
      <trkpt lat="44.413351016119123" lon="7.907321993261576">
        <ele>421.68000000000001</ele>
        <time>2025-05-19T11:25:40Z</time>
      </trkpt>
      <trkpt lat="44.413782013580203" lon="7.905303966253996">
        <ele>421.68000000000001</ele>
        <time>2025-05-19T11:25:48Z</time>
      </trkpt>
      <trkpt lat="44.414046965539455" lon="7.902222024276853">
        <ele>421.68000000000001</ele>
        <time>2025-05-19T11:26:00Z</time>
      </trkpt>
      <trkpt lat="44.414583994075656" lon="7.900595013052225">
        <ele>420.70999999999998</ele>
        <time>2025-05-19T11:26:07Z</time>
      </trkpt>
      <trkpt lat="44.415603987872601" lon="7.898175995796919">
        <ele>418.79000000000002</ele>
        <time>2025-05-19T11:26:18Z</time>
      </trkpt>
      <trkpt lat="44.416578970849514" lon="7.89587801322341">
        <ele>419.26999999999998</ele>
        <time>2025-05-19T11:26:29Z</time>
      </trkpt>
      <trkpt lat="44.417456975206733" lon="7.893970962613821">
        <ele>419.26999999999998</ele>
        <time>2025-05-19T11:26:39Z</time>
      </trkpt>
      <trkpt lat="44.418851975351572" lon="7.891856040805578">
        <ele>419.26999999999998</ele>
        <time>2025-05-19T11:26:51Z</time>
      </trkpt>
      <trkpt lat="44.420243036001921" lon="7.890301030129194">
        <ele>420.23000000000002</ele>
        <time>2025-05-19T11:27:02Z</time>
      </trkpt>
      <trkpt lat="44.421824030578136" lon="7.8884909581393">
        <ele>421.68000000000001</ele>
        <time>2025-05-19T11:27:14Z</time>
      </trkpt>
      <trkpt lat="44.422880988568068" lon="7.887003002688289">
        <ele>421.68000000000001</ele>
        <time>2025-05-19T11:27:22Z</time>
      </trkpt>
      <trkpt lat="44.423640975728631" lon="7.885018000379205">
        <ele>420.70999999999998</ele>
        <time>2025-05-19T11:27:29Z</time>
      </trkpt>
      <trkpt lat="44.423784976825118" lon="7.883237013593316">
        <ele>419.75</ele>
        <time>2025-05-19T11:27:34Z</time>
      </trkpt>
      <trkpt lat="44.42342396825552" lon="7.88103399798274">
        <ele>420.70999999999998</ele>
        <time>2025-05-19T11:27:40Z</time>
      </trkpt>
      <trkpt lat="44.422616036608815" lon="7.879063999280334">
        <ele>418.79000000000002</ele>
        <time>2025-05-19T11:27:46Z</time>
      </trkpt>
      <trkpt lat="44.42234898917377" lon="7.878512972965837">
        <ele>417.82999999999998</ele>
        <time>2025-05-19T11:27:48Z</time>
      </trkpt>
      <trkpt lat="44.422212028875947" lon="7.878229999914765">
        <ele>417.35000000000002</ele>
        <time>2025-05-19T11:27:49Z</time>
      </trkpt>
      <trkpt lat="44.418894974514842" lon="7.871332028880715">
        <ele>410.62</ele>
        <time>2025-05-19T11:28:11Z</time>
      </trkpt>
      <trkpt lat="44.417871041223407" lon="7.868642024695873">
        <ele>403.88999999999999</ele>
        <time>2025-05-19T11:28:19Z</time>
      </trkpt>
      <trkpt lat="44.417264023795724" lon="7.864171033725143">
        <ele>391.38999999999999</ele>
        <time>2025-05-19T11:28:31Z</time>
      </trkpt>
      <trkpt lat="44.417617991566658" lon="7.861955026164651">
        <ele>389.47000000000003</ele>
        <time>2025-05-19T11:28:37Z</time>
      </trkpt>
      <trkpt lat="44.418516028672457" lon="7.860045963898301">
        <ele>388.02999999999997</ele>
        <time>2025-05-19T11:28:43Z</time>
      </trkpt>
      <trkpt lat="44.41983399912715" lon="7.858718018978834">
        <ele>385.14999999999998</ele>
        <time>2025-05-19T11:28:49Z</time>
      </trkpt>
      <trkpt lat="44.423017026856542" lon="7.856535958126187">
        <ele>386.58999999999997</ele>
        <time>2025-05-19T11:29:02Z</time>
      </trkpt>
      <trkpt lat="44.426034009084105" lon="7.854740973562002">
        <ele>389.47000000000003</ele>
        <time>2025-05-19T11:29:14Z</time>
      </trkpt>
      <trkpt lat="44.429224999621511" lon="7.852771980687976">
        <ele>390.43000000000001</ele>
        <time>2025-05-19T11:29:27Z</time>
      </trkpt>
      <trkpt lat="44.432905996218324" lon="7.850572988390923">
        <ele>392.83999999999997</ele>
        <time>2025-05-19T11:29:42Z</time>
      </trkpt>
      <trkpt lat="44.433845020830631" lon="7.85017803311348">
        <ele>394.27999999999997</ele>
        <time>2025-05-19T11:29:47Z</time>
      </trkpt>
      <trkpt lat="44.433921966701746" lon="7.850156994536519">
        <ele>394.27999999999997</ele>
        <time>2025-05-19T11:29:48Z</time>
      </trkpt>
      <trkpt lat="44.434419013559818" lon="7.849946022033691">
        <ele>395.72000000000003</ele>
        <time>2025-05-19T11:29:57Z</time>
      </trkpt>
      <trkpt lat="44.434440974146128" lon="7.850023973733187">
        <ele>395.72000000000003</ele>
        <time>2025-05-19T11:29:58Z</time>
      </trkpt>
      <trkpt lat="44.434451032429934" lon="7.850059010088444">
        <ele>395.72000000000003</ele>
        <time>2025-05-19T11:29:59Z</time>
      </trkpt>
      <trkpt lat="44.434461006894708" lon="7.850093962624669">
        <ele>395.24000000000001</ele>
        <time>2025-05-19T11:30:00Z</time>
      </trkpt>
      <trkpt lat="44.434462012723088" lon="7.85009597428143">
        <ele>395.24000000000001</ele>
        <time>2025-05-19T11:30:01Z</time>
      </trkpt>
      <trkpt lat="44.434462012723088" lon="7.85009597428143">
        <ele>395.72000000000003</ele>
        <time>2025-05-19T11:30:02Z</time>
      </trkpt>
      <trkpt lat="44.434462012723088" lon="7.85009597428143">
        <ele>395.24000000000001</ele>
        <time>2025-05-19T11:30:03Z</time>
      </trkpt>
      <trkpt lat="44.434462012723088" lon="7.85009597428143">
        <ele>395.72000000000003</ele>
        <time>2025-05-19T11:30:04Z</time>
      </trkpt>
      <trkpt lat="44.434462012723088" lon="7.85009597428143">
        <ele>395.72000000000003</ele>
        <time>2025-05-19T11:30:05Z</time>
      </trkpt>
      <trkpt lat="44.434462012723088" lon="7.85009597428143">
        <ele>395.72000000000003</ele>
        <time>2025-05-19T11:30:06Z</time>
      </trkpt>
      <trkpt lat="44.434462012723088" lon="7.85009597428143">
        <ele>395.24000000000001</ele>
        <time>2025-05-19T11:30:07Z</time>
      </trkpt>
      <trkpt lat="44.434462012723088" lon="7.85009597428143">
        <ele>395.24000000000001</ele>
        <time>2025-05-19T11:30:08Z</time>
      </trkpt>
      <trkpt lat="44.434462012723088" lon="7.85009597428143">
        <ele>395.24000000000001</ele>
        <time>2025-05-19T11:30:24Z</time>
      </trkpt>
      <trkpt lat="44.434470981359482" lon="7.850429993122816">
        <ele>384.66000000000003</ele>
        <time>2025-05-19T12:04:44Z</time>
      </trkpt>
      <trkpt lat="44.434490008279681" lon="7.850412977859378">
        <ele>395.24000000000001</ele>
        <time>2025-05-19T12:05:28Z</time>
      </trkpt>
      <trkpt lat="44.434507023543119" lon="7.850407026708126">
        <ele>396.19999999999999</ele>
        <time>2025-05-19T12:06:17Z</time>
      </trkpt>
      <trkpt lat="44.434504006057978" lon="7.850420018658042">
        <ele>396.19999999999999</ele>
        <time>2025-05-19T12:07:05Z</time>
      </trkpt>
      <trkpt lat="44.434500988572836" lon="7.850420018658042">
        <ele>396.19999999999999</ele>
        <time>2025-05-19T12:07:47Z</time>
      </trkpt>
      <trkpt lat="44.434494031593204" lon="7.8504170011729">
        <ele>396.19999999999999</ele>
        <time>2025-05-19T12:08:13Z</time>
      </trkpt>
      <trkpt lat="44.434494031593204" lon="7.850409038364887">
        <ele>396.68000000000001</ele>
        <time>2025-05-19T12:09:07Z</time>
      </trkpt>
      <trkpt lat="44.434493025764823" lon="7.85039596259594">
        <ele>397.63999999999999</ele>
        <time>2025-05-19T12:09:53Z</time>
      </trkpt>
      <trkpt lat="44.434494031593204" lon="7.850390011444688">
        <ele>397.63999999999999</ele>
        <time>2025-05-19T12:10:37Z</time>
      </trkpt>
      <trkpt lat="44.434495037421584" lon="7.850387999787927">
        <ele>397.16000000000003</ele>
        <time>2025-05-19T12:11:21Z</time>
      </trkpt>
      <trkpt lat="44.434495037421584" lon="7.850387999787927">
        <ele>397.16000000000003</ele>
        <time>2025-05-19T12:11:31Z</time>
      </trkpt>
      <trkpt lat="44.434482967481017" lon="7.850084993988276">
        <ele>397.63999999999999</ele>
        <time>2025-05-19T12:11:34Z</time>
      </trkpt>
      <trkpt lat="44.434654964134097" lon="7.849989021196961">
        <ele>396.68000000000001</ele>
        <time>2025-05-19T12:11:36Z</time>
      </trkpt>
      <trkpt lat="44.434654964134097" lon="7.849989021196961">
        <ele>396.68000000000001</ele>
        <time>2025-05-19T12:11:37Z</time>
      </trkpt>
      <trkpt lat="44.434654964134097" lon="7.849989021196961">
        <ele>396.19999999999999</ele>
        <time>2025-05-19T12:11:38Z</time>
      </trkpt>
      <trkpt lat="44.434654964134097" lon="7.849989021196961">
        <ele>396.19999999999999</ele>
        <time>2025-05-19T12:11:39Z</time>
      </trkpt>
      <trkpt lat="44.434602996334434" lon="7.849826999008656">
        <ele>396.19999999999999</ele>
        <time>2025-05-19T12:11:40Z</time>
      </trkpt>
      <trkpt lat="44.434644989669323" lon="7.849799003452063">
        <ele>396.19999999999999</ele>
        <time>2025-05-19T12:11:41Z</time>
      </trkpt>
      <trkpt lat="44.434698969125748" lon="7.849763967096806">
        <ele>395.72000000000003</ele>
        <time>2025-05-19T12:11:42Z</time>
      </trkpt>
      <trkpt lat="44.434912037104368" lon="7.849603034555912">
        <ele>395.72000000000003</ele>
        <time>2025-05-19T12:11:45Z</time>
      </trkpt>
      <trkpt lat="44.435722986236215" lon="7.848860984668136">
        <ele>397.16000000000003</ele>
        <time>2025-05-19T12:11:52Z</time>
      </trkpt>
      <trkpt lat="44.436440980061889" lon="7.848452031612396">
        <ele>398.12</ele>
        <time>2025-05-19T12:11:56Z</time>
      </trkpt>
      <trkpt lat="44.438575012609363" lon="7.847174964845181">
        <ele>398.60000000000002</ele>
        <time>2025-05-19T12:12:06Z</time>
      </trkpt>
      <trkpt lat="44.440636038780212" lon="7.845933018252254">
        <ele>396.68000000000001</ele>
        <time>2025-05-19T12:12:14Z</time>
      </trkpt>
      <trkpt lat="44.444228019565344" lon="7.843768978491426">
        <ele>396.19999999999999</ele>
        <time>2025-05-19T12:12:27Z</time>
      </trkpt>
      <trkpt lat="44.447498973459005" lon="7.84180199727416">
        <ele>393.31999999999999</ele>
        <time>2025-05-19T12:12:40Z</time>
      </trkpt>
      <trkpt lat="44.449813971295953" lon="7.840416971594095">
        <ele>387.06999999999999</ele>
        <time>2025-05-19T12:12:49Z</time>
      </trkpt>
      <trkpt lat="44.452372966334224" lon="7.839044015854597">
        <ele>376.97000000000003</ele>
        <time>2025-05-19T12:12:59Z</time>
      </trkpt>
      <trkpt lat="44.454547986388206" lon="7.837937017902732">
        <ele>368.31999999999999</ele>
        <time>2025-05-19T12:13:08Z</time>
      </trkpt>
      <trkpt lat="44.45715500973165" lon="7.836603038012981">
        <ele>361.58999999999997</ele>
        <time>2025-05-19T12:13:19Z</time>
      </trkpt>
      <trkpt lat="44.459268003702164" lon="7.835516994819045">
        <ele>364.48000000000002</ele>
        <time>2025-05-19T12:13:28Z</time>
      </trkpt>
      <trkpt lat="44.462049035355449" lon="7.834115959703922">
        <ele>372.64999999999998</ele>
        <time>2025-05-19T12:13:40Z</time>
      </trkpt>
      <trkpt lat="44.464836018159986" lon="7.832666980102658">
        <ele>383.22000000000003</ele>
        <time>2025-05-19T12:13:52Z</time>
      </trkpt>
      <trkpt lat="44.468085011467338" lon="7.831023037433624">
        <ele>394.75999999999999</ele>
        <time>2025-05-19T12:14:06Z</time>
      </trkpt>
      <trkpt lat="44.471867009997368" lon="7.829095032066107">
        <ele>409.66000000000003</ele>
        <time>2025-05-19T12:14:22Z</time>
      </trkpt>
      <trkpt lat="44.474919028580189" lon="7.827465003356338">
        <ele>417.35000000000002</ele>
        <time>2025-05-19T12:14:35Z</time>
      </trkpt>
      <trkpt lat="44.477911032736301" lon="7.825416969135404">
        <ele>418.31</ele>
        <time>2025-05-19T12:14:48Z</time>
      </trkpt>
      <trkpt lat="44.480811003595591" lon="7.823361977934837">
        <ele>417.35000000000002</ele>
        <time>2025-05-19T12:15:00Z</time>
      </trkpt>
      <trkpt lat="44.484168039634824" lon="7.82100398093462">
        <ele>418.31</ele>
        <time>2025-05-19T12:15:14Z</time>
      </trkpt>
      <trkpt lat="44.487309996038675" lon="7.818797025829554">
        <ele>418.31</ele>
        <time>2025-05-19T12:15:27Z</time>
      </trkpt>
      <trkpt lat="44.489987008273602" lon="7.816900033503771">
        <ele>418.79000000000002</ele>
        <time>2025-05-19T12:15:38Z</time>
      </trkpt>
      <trkpt lat="44.491632962599397" lon="7.81574098393321">
        <ele>418.79000000000002</ele>
        <time>2025-05-19T12:15:45Z</time>
      </trkpt>
      <trkpt lat="44.49533499777317" lon="7.813159022480249">
        <ele>418.79000000000002</ele>
        <time>2025-05-19T12:16:00Z</time>
      </trkpt>
      <trkpt lat="44.498483994975686" lon="7.811100007966161">
        <ele>417.82999999999998</ele>
        <time>2025-05-19T12:16:13Z</time>
      </trkpt>
      <trkpt lat="44.50147801078856" lon="7.809352967888117">
        <ele>416.38999999999999</ele>
        <time>2025-05-19T12:16:25Z</time>
      </trkpt>
      <trkpt lat="44.504527011886239" lon="7.807607017457485">
        <ele>410.62</ele>
        <time>2025-05-19T12:16:37Z</time>
      </trkpt>
      <trkpt lat="44.507561009377241" lon="7.805864000692964">
        <ele>401.00999999999999</ele>
        <time>2025-05-19T12:16:49Z</time>
      </trkpt>
      <trkpt lat="44.510089997202158" lon="7.804417032748461">
        <ele>392.83999999999997</ele>
        <time>2025-05-19T12:16:59Z</time>
      </trkpt>
      <trkpt lat="44.512824006378651" lon="7.802853975445032">
        <ele>382.25999999999999</ele>
        <time>2025-05-19T12:17:10Z</time>
      </trkpt>
      <trkpt lat="44.516565017402172" lon="7.800700999796391">
        <ele>374.08999999999997</ele>
        <time>2025-05-19T12:17:25Z</time>
      </trkpt>
      <trkpt lat="44.519027033820748" lon="7.799282027408481">
        <ele>374.08999999999997</ele>
        <time>2025-05-19T12:17:35Z</time>
      </trkpt>
      <trkpt lat="44.522754969075322" lon="7.79713299125433">
        <ele>376.00999999999999</ele>
        <time>2025-05-19T12:17:50Z</time>
      </trkpt>
      <trkpt lat="44.526458010077477" lon="7.794997030869126">
        <ele>389.94999999999999</ele>
        <time>2025-05-19T12:18:05Z</time>
      </trkpt>
      <trkpt lat="44.530432038009167" lon="7.79270701110363">
        <ele>403.88999999999999</ele>
        <time>2025-05-19T12:18:21Z</time>
      </trkpt>
      <trkpt lat="44.534074980765581" lon="7.790573984384537">
        <ele>413.01999999999998</ele>
        <time>2025-05-19T12:18:36Z</time>
      </trkpt>
      <trkpt lat="44.537334032356739" lon="7.788766007870436">
        <ele>413.5</ele>
        <time>2025-05-19T12:18:50Z</time>
      </trkpt>
      <trkpt lat="44.540500966832042" lon="7.787352986633778">
        <ele>411.57999999999998</ele>
        <time>2025-05-19T12:19:01Z</time>
      </trkpt>
      <trkpt lat="44.543162975460291" lon="7.786502977833152">
        <ele>409.18000000000001</ele>
        <time>2025-05-19T12:19:11Z</time>
      </trkpt>
      <trkpt lat="44.546918990090489" lon="7.785721030086279">
        <ele>407.25999999999999</ele>
        <time>2025-05-19T12:19:25Z</time>
      </trkpt>
      <trkpt lat="44.550723033025861" lon="7.784962970763445">
        <ele>406.29000000000002</ele>
        <time>2025-05-19T12:19:39Z</time>
      </trkpt>
      <trkpt lat="44.553925003856421" lon="7.784362994134426">
        <ele>405.81</ele>
        <time>2025-05-19T12:19:51Z</time>
      </trkpt>
      <trkpt lat="44.557938007637858" lon="7.783571993932128">
        <ele>404.85000000000002</ele>
        <time>2025-05-19T12:20:06Z</time>
      </trkpt>
      <trkpt lat="44.561356985941529" lon="7.782571027055383">
        <ele>398.12</ele>
        <time>2025-05-19T12:20:19Z</time>
      </trkpt>
      <trkpt lat="44.564156960695982" lon="7.781160017475486">
        <ele>391.87</ele>
        <time>2025-05-19T12:20:30Z</time>
      </trkpt>
      <trkpt lat="44.567053997889161" lon="7.779211979359388">
        <ele>382.25999999999999</ele>
        <time>2025-05-19T12:20:42Z</time>
      </trkpt>
      <trkpt lat="44.570253035053611" lon="7.776994965970516">
        <ele>370.73000000000002</ele>
        <time>2025-05-19T12:20:55Z</time>
      </trkpt>
      <trkpt lat="44.573449976742268" lon="7.774756997823715">
        <ele>359.19</ele>
        <time>2025-05-19T12:21:08Z</time>
      </trkpt>
      <trkpt lat="44.576844982802868" lon="7.772377040237188">
        <ele>346.20999999999998</ele>
        <time>2025-05-19T12:21:22Z</time>
      </trkpt>
      <trkpt lat="44.58071700297296" lon="7.769743027165532">
        <ele>330.82999999999998</ele>
        <time>2025-05-19T12:21:38Z</time>
      </trkpt>
      <trkpt lat="44.584334967657924" lon="7.767253015190363">
        <ele>321.69999999999999</ele>
        <time>2025-05-19T12:21:53Z</time>
      </trkpt>
      <trkpt lat="44.586417032405734" lon="7.765813004225493">
        <ele>326.01999999999998</ele>
        <time>2025-05-19T12:22:01Z</time>
      </trkpt>
      <trkpt lat="44.587660990655422" lon="7.764953020960093">
        <ele>329.38999999999999</ele>
        <time>2025-05-19T12:22:07Z</time>
      </trkpt>
      <trkpt lat="44.588049994781613" lon="7.764698965474963">
        <ele>329.87</ele>
        <time>2025-05-19T12:22:11Z</time>
      </trkpt>
      <trkpt lat="44.58808503113687" lon="7.764675999060273">
        <ele>330.35000000000002</ele>
        <time>2025-05-19T12:22:17Z</time>
      </trkpt>
      <trkpt lat="44.58808503113687" lon="7.764675999060273">
        <ele>330.82999999999998</ele>
        <time>2025-05-19T12:22:55Z</time>
      </trkpt>
      <trkpt lat="44.58808503113687" lon="7.764675999060273">
        <ele>331.31</ele>
        <time>2025-05-19T12:23:43Z</time>
      </trkpt>
      <trkpt lat="44.588285023346543" lon="7.764542978256941">
        <ele>332.26999999999998</ele>
        <time>2025-05-19T12:23:58Z</time>
      </trkpt>
      <trkpt lat="44.588939985260367" lon="7.764106029644609">
        <ele>333.23000000000002</ele>
        <time>2025-05-19T12:24:03Z</time>
      </trkpt>
      <trkpt lat="44.590378990396857" lon="7.763288039714098">
        <ele>336.12</ele>
        <time>2025-05-19T12:24:10Z</time>
      </trkpt>
      <trkpt lat="44.592466000467539" lon="7.762324959039688">
        <ele>338.04000000000002</ele>
        <time>2025-05-19T12:24:18Z</time>
      </trkpt>
      <trkpt lat="44.595041004940867" lon="7.761513004079461">
        <ele>338.04000000000002</ele>
        <time>2025-05-19T12:24:27Z</time>
      </trkpt>
      <trkpt lat="44.598157983273268" lon="7.760997014120221">
        <ele>335.16000000000003</ele>
        <time>2025-05-19T12:24:37Z</time>
      </trkpt>
      <trkpt lat="44.600690994411707" lon="7.760918978601694">
        <ele>334.19999999999999</ele>
        <time>2025-05-19T12:24:45Z</time>
      </trkpt>
      <trkpt lat="44.603518964722753" lon="7.761276969686151">
        <ele>332.75</ele>
        <time>2025-05-19T12:24:54Z</time>
      </trkpt>
      <trkpt lat="44.606628986075521" lon="7.762127984315157">
        <ele>331.79000000000002</ele>
        <time>2025-05-19T12:25:04Z</time>
      </trkpt>
      <trkpt lat="44.609322007745504" lon="7.763330033048987">
        <ele>327.94999999999999</ele>
        <time>2025-05-19T12:25:13Z</time>
      </trkpt>
      <trkpt lat="44.612176967784762" lon="7.765046982094646">
        <ele>319.77999999999997</ele>
        <time>2025-05-19T12:25:23Z</time>
      </trkpt>
      <trkpt lat="44.614823972806334" lon="7.766742976382375">
        <ele>321.22000000000003</ele>
        <time>2025-05-19T12:25:32Z</time>
      </trkpt>
      <trkpt lat="44.618040025234222" lon="7.768830992281437">
        <ele>329.38999999999999</ele>
        <time>2025-05-19T12:25:43Z</time>
      </trkpt>
      <trkpt lat="44.621759997680783" lon="7.771241962909699">
        <ele>328.43000000000001</ele>
        <time>2025-05-19T12:25:56Z</time>
      </trkpt>
      <trkpt lat="44.625494973734021" lon="7.773640025407076">
        <ele>325.06</ele>
        <time>2025-05-19T12:26:09Z</time>
      </trkpt>
      <trkpt lat="44.628995005041361" lon="7.77560499496758">
        <ele>321.22000000000003</ele>
        <time>2025-05-19T12:26:21Z</time>
      </trkpt>
      <trkpt lat="44.632609030231833" lon="7.777182972058654">
        <ele>318.81</ele>
        <time>2025-05-19T12:26:33Z</time>
      </trkpt>
      <trkpt lat="44.636320034042001" lon="7.778294999152422">
        <ele>316.41000000000003</ele>
        <time>2025-05-19T12:26:45Z</time>
      </trkpt>
      <trkpt lat="44.640075964853168" lon="7.779007963836193">
        <ele>312.56999999999999</ele>
        <time>2025-05-19T12:26:57Z</time>
      </trkpt>
      <trkpt lat="44.644203968346119" lon="7.779219020158052">
        <ele>312.56999999999999</ele>
        <time>2025-05-19T12:27:10Z</time>
      </trkpt>
      <trkpt lat="44.648012034595013" lon="7.778978040441871">
        <ele>316.88999999999999</ele>
        <time>2025-05-19T12:27:22Z</time>
      </trkpt>
      <trkpt lat="44.652087986469269" lon="7.778195003047586">
        <ele>315.44999999999999</ele>
        <time>2025-05-19T12:27:35Z</time>
      </trkpt>
      <trkpt lat="44.657361963763833" lon="7.776715010404587">
        <ele>311.60000000000002</ele>
        <time>2025-05-19T12:27:52Z</time>
      </trkpt>
      <trkpt lat="44.662308963015676" lon="7.775284973904491">
        <ele>305.83999999999997</ele>
        <time>2025-05-19T12:28:08Z</time>
      </trkpt>
      <trkpt lat="44.665100974962115" lon="7.77448701672256">
        <ele>301.99000000000001</ele>
        <time>2025-05-19T12:28:17Z</time>
      </trkpt>
      <trkpt lat="44.671326968818903" lon="7.772701000794768">
        <ele>301.50999999999999</ele>
        <time>2025-05-19T12:28:37Z</time>
      </trkpt>
      <trkpt lat="44.676623996347189" lon="7.771184965968132">
        <ele>301.50999999999999</ele>
        <time>2025-05-19T12:28:54Z</time>
      </trkpt>
      <trkpt lat="44.681648025289178" lon="7.769728023558855">
        <ele>296.69999999999999</ele>
        <time>2025-05-19T12:29:10Z</time>
      </trkpt>
      <trkpt lat="44.687607977539301" lon="7.768009984865785">
        <ele>294.77999999999997</ele>
        <time>2025-05-19T12:29:29Z</time>
      </trkpt>
      <trkpt lat="44.693253021687269" lon="7.766380961984396">
        <ele>291.89999999999998</ele>
        <time>2025-05-19T12:29:47Z</time>
      </trkpt>
      <trkpt lat="44.697655029594898" lon="7.765116970986128">
        <ele>294.30000000000001</ele>
        <time>2025-05-19T12:30:01Z</time>
      </trkpt>
      <trkpt lat="44.702688027173281" lon="7.763687018305063">
        <ele>287.56999999999999</ele>
        <time>2025-05-19T12:30:17Z</time>
      </trkpt>
      <trkpt lat="44.706759033724666" lon="7.762515982612968">
        <ele>286.13</ele>
        <time>2025-05-19T12:30:30Z</time>
      </trkpt>
      <trkpt lat="44.712402988225222" lon="7.760874973610044">
        <ele>284.20999999999998</ele>
        <time>2025-05-19T12:30:48Z</time>
      </trkpt>
      <trkpt lat="44.716798039153218" lon="7.759592961519957">
        <ele>281.80000000000001</ele>
        <time>2025-05-19T12:31:02Z</time>
      </trkpt>
      <trkpt lat="44.721499029546976" lon="7.75822201743722">
        <ele>280.36000000000001</ele>
        <time>2025-05-19T12:31:17Z</time>
      </trkpt>
      <trkpt lat="44.724955977872014" lon="7.757230019196868">
        <ele>279.39999999999998</ele>
        <time>2025-05-19T12:31:28Z</time>
      </trkpt>
      <trkpt lat="44.728407980874181" lon="7.756272973492742">
        <ele>277.48000000000002</ele>
        <time>2025-05-19T12:31:39Z</time>
      </trkpt>
      <trkpt lat="44.73405403085053" lon="7.754680998623371">
        <ele>277</ele>
        <time>2025-05-19T12:31:57Z</time>
      </trkpt>
      <trkpt lat="44.737510979175568" lon="7.753682965412736">
        <ele>276.51999999999998</ele>
        <time>2025-05-19T12:32:08Z</time>
      </trkpt>
      <trkpt lat="44.742846982553601" lon="7.752156034111977">
        <ele>273.63</ele>
        <time>2025-05-19T12:32:25Z</time>
      </trkpt>
      <trkpt lat="44.743159040808678" lon="7.752070035785437">
        <ele>273.63</ele>
        <time>2025-05-19T12:32:26Z</time>
      </trkpt>
      <trkpt lat="44.74630300886929" lon="7.751212986186147">
        <ele>273.63</ele>
        <time>2025-05-19T12:32:36Z</time>
      </trkpt>
      <trkpt lat="44.750425983220339" lon="7.750442018732429">
        <ele>271.70999999999998</ele>
        <time>2025-05-19T12:32:49Z</time>
      </trkpt>
      <trkpt lat="44.753631977364421" lon="7.750227022916079">
        <ele>272.19</ele>
        <time>2025-05-19T12:32:59Z</time>
      </trkpt>
      <trkpt lat="44.757147012278438" lon="7.75035903789103">
        <ele>269.79000000000002</ele>
        <time>2025-05-19T12:33:10Z</time>
      </trkpt>
      <trkpt lat="44.761932995170355" lon="7.750819036737084">
        <ele>267.86000000000001</ele>
        <time>2025-05-19T12:33:25Z</time>
      </trkpt>
      <trkpt lat="44.767048973590136" lon="7.751339972019196">
        <ele>265.45999999999998</ele>
        <time>2025-05-19T12:33:41Z</time>
      </trkpt>
      <trkpt lat="44.770560991019011" lon="7.751687988638878">
        <ele>264.01999999999998</ele>
        <time>2025-05-19T12:33:52Z</time>
      </trkpt>
      <trkpt lat="44.77345802821219" lon="7.75197297334671">
        <ele>265.45999999999998</ele>
        <time>2025-05-19T12:34:01Z</time>
      </trkpt>
      <trkpt lat="44.776958981528878" lon="7.752332976087928">
        <ele>264.98000000000002</ele>
        <time>2025-05-19T12:34:12Z</time>
      </trkpt>
      <trkpt lat="44.780459012836218" lon="7.752692978829145">
        <ele>267.38</ele>
        <time>2025-05-19T12:34:23Z</time>
      </trkpt>
      <trkpt lat="44.784950036555529" lon="7.753135040402412">
        <ele>268.35000000000002</ele>
        <time>2025-05-19T12:34:37Z</time>
      </trkpt>
      <trkpt lat="44.78768102824688" lon="7.753275018185377">
        <ele>264.98000000000002</ele>
        <time>2025-05-19T12:34:46Z</time>
      </trkpt>
      <trkpt lat="44.789742976427078" lon="7.753245010972023">
        <ele>264.5</ele>
        <time>2025-05-19T12:34:54Z</time>
      </trkpt>
      <trkpt lat="44.792745038866997" lon="7.753055999055505">
        <ele>264.5</ele>
        <time>2025-05-19T12:35:04Z</time>
      </trkpt>
      <trkpt lat="44.796898020431399" lon="7.752769002690911">
        <ele>264.98000000000002</ele>
        <time>2025-05-19T12:35:17Z</time>
      </trkpt>
      <trkpt lat="44.802657980471849" lon="7.752372035756707">
        <ele>264.01999999999998</ele>
        <time>2025-05-19T12:35:35Z</time>
      </trkpt>
      <trkpt lat="44.805845031514764" lon="7.752152010798454">
        <ele>265.45999999999998</ele>
        <time>2025-05-19T12:35:45Z</time>
      </trkpt>
      <trkpt lat="44.810327002778649" lon="7.751826960593462">
        <ele>268.82999999999998</ele>
        <time>2025-05-19T12:35:59Z</time>
      </trkpt>
      <trkpt lat="44.812424993142486" lon="7.751674996688962">
        <ele>265.45999999999998</ele>
        <time>2025-05-19T12:36:06Z</time>
      </trkpt>
      <trkpt lat="44.813927030190825" lon="7.751573994755745">
        <ele>263.54000000000002</ele>
        <time>2025-05-19T12:36:13Z</time>
      </trkpt>
      <trkpt lat="44.815134024247527" lon="7.751492019742727">
        <ele>264.5</ele>
        <time>2025-05-19T12:36:21Z</time>
      </trkpt>
      <trkpt lat="44.815333010628819" lon="7.751479027792811">
        <ele>264.01999999999998</ele>
        <time>2025-05-19T12:36:26Z</time>
      </trkpt>
      <trkpt lat="44.815333010628819" lon="7.751479027792811">
        <ele>264.01999999999998</ele>
        <time>2025-05-19T12:36:43Z</time>
      </trkpt>
      <trkpt lat="44.815346002578735" lon="7.751478021964431">
        <ele>264.01999999999998</ele>
        <time>2025-05-19T12:37:25Z</time>
      </trkpt>
      <trkpt lat="44.815380033105612" lon="7.751432005316019">
        <ele>286.13</ele>
        <time>2025-05-19T12:46:14Z</time>
      </trkpt>
      <trkpt lat="44.815320018678904" lon="7.751508029177785">
        <ele>258.25</ele>
        <time>2025-05-19T12:46:36Z</time>
      </trkpt>
      <trkpt lat="44.815342985093594" lon="7.751548010855913">
        <ele>259.20999999999998</ele>
        <time>2025-05-19T12:47:18Z</time>
      </trkpt>
      <trkpt lat="44.815437030047178" lon="7.751472992822528">
        <ele>260.64999999999998</ele>
        <time>2025-05-19T12:47:24Z</time>
      </trkpt>
      <trkpt lat="44.816334983333945" lon="7.751414990052581">
        <ele>261.13999999999999</ele>
        <time>2025-05-19T12:47:30Z</time>
      </trkpt>
      <trkpt lat="44.817793015390635" lon="7.75130501948297">
        <ele>262.10000000000002</ele>
        <time>2025-05-19T12:47:37Z</time>
      </trkpt>
      <trkpt lat="44.819994019344449" lon="7.751150038093329">
        <ele>260.17000000000002</ele>
        <time>2025-05-19T12:47:45Z</time>
      </trkpt>
      <trkpt lat="44.823732012882829" lon="7.750889025628567">
        <ele>256.81</ele>
        <time>2025-05-19T12:47:57Z</time>
      </trkpt>
      <trkpt lat="44.828543979674578" lon="7.750555006787181">
        <ele>254.41</ele>
        <time>2025-05-19T12:48:12Z</time>
      </trkpt>
      <trkpt lat="44.8326510284096" lon="7.750255018472672">
        <ele>254.41</ele>
        <time>2025-05-19T12:48:25Z</time>
      </trkpt>
      <trkpt lat="44.836127003654838" lon="7.750009009614587">
        <ele>255.37</ele>
        <time>2025-05-19T12:48:36Z</time>
      </trkpt>
      <trkpt lat="44.840556001290679" lon="7.749698963016272">
        <ele>255.37</ele>
        <time>2025-05-19T12:48:50Z</time>
      </trkpt>
      <trkpt lat="44.843392018228769" lon="7.749525038525462">
        <ele>255.37</ele>
        <time>2025-05-19T12:48:59Z</time>
      </trkpt>
      <trkpt lat="44.846244966611266" lon="7.749319011345506">
        <ele>254.88999999999999</ele>
        <time>2025-05-19T12:49:08Z</time>
      </trkpt>
      <trkpt lat="44.849250968545675" lon="7.749108038842678">
        <ele>255.37</ele>
        <time>2025-05-19T12:49:18Z</time>
      </trkpt>
      <trkpt lat="44.850944029167295" lon="7.748993039131165">
        <ele>255.37</ele>
        <time>2025-05-19T12:49:26Z</time>
      </trkpt>
      <trkpt lat="44.85230902209878" lon="7.74885599501431">
        <ele>255.84999999999999</ele>
        <time>2025-05-19T12:49:33Z</time>
      </trkpt>
      <trkpt lat="44.8532750364393" lon="7.748777037486434">
        <ele>256.32999999999998</ele>
        <time>2025-05-19T12:49:39Z</time>
      </trkpt>
      <trkpt lat="44.853790020570159" lon="7.748738983646035">
        <ele>255.84999999999999</ele>
        <time>2025-05-19T12:49:46Z</time>
      </trkpt>
      <trkpt lat="44.853888005018234" lon="7.748730015009642">
        <ele>255.84999999999999</ele>
        <time>2025-05-19T12:49:48Z</time>
      </trkpt>
      <trkpt lat="44.853933015838265" lon="7.748730015009642">
        <ele>255.84999999999999</ele>
        <time>2025-05-19T12:49:49Z</time>
      </trkpt>
      <trkpt lat="44.853974003344774" lon="7.748730015009642">
        <ele>255.84999999999999</ele>
        <time>2025-05-19T12:49:50Z</time>
      </trkpt>
      <trkpt lat="44.854141976684332" lon="7.748729009181261">
        <ele>255.37</ele>
        <time>2025-05-19T12:49:58Z</time>
      </trkpt>
      <trkpt lat="44.854141976684332" lon="7.748729009181261">
        <ele>255.37</ele>
        <time>2025-05-19T12:50:53Z</time>
      </trkpt>
      <trkpt lat="44.854141976684332" lon="7.748729009181261">
        <ele>255.37</ele>
        <time>2025-05-19T12:51:29Z</time>
      </trkpt>
      <trkpt lat="44.854141976684332" lon="7.748729009181261">
        <ele>254.88999999999999</ele>
        <time>2025-05-19T12:52:26Z</time>
      </trkpt>
      <trkpt lat="44.854195034131408" lon="7.748722974210978">
        <ele>254.88999999999999</ele>
        <time>2025-05-19T12:53:03Z</time>
      </trkpt>
      <trkpt lat="44.854253036901355" lon="7.748717023059726">
        <ele>254.88999999999999</ele>
        <time>2025-05-19T12:53:04Z</time>
      </trkpt>
      <trkpt lat="44.854958960786462" lon="7.748685004189611">
        <ele>254.41</ele>
        <time>2025-05-19T12:53:11Z</time>
      </trkpt>
      <trkpt lat="44.856309033930302" lon="7.748581990599632">
        <ele>253.93000000000001</ele>
        <time>2025-05-19T12:53:19Z</time>
      </trkpt>
      <trkpt lat="44.858430996537209" lon="7.748424997553229">
        <ele>252</ele>
        <time>2025-05-19T12:53:29Z</time>
      </trkpt>
      <trkpt lat="44.861113037914038" lon="7.748235985636711">
        <ele>251.03999999999999</ele>
        <time>2025-05-19T12:53:40Z</time>
      </trkpt>
      <trkpt lat="44.86348302103579" lon="7.748050997033715">
        <ele>251.03999999999999</ele>
        <time>2025-05-19T12:53:48Z</time>
      </trkpt>
      <trkpt lat="44.867597026750445" lon="7.747777998447418">
        <ele>251.52000000000001</ele>
        <time>2025-05-19T12:54:01Z</time>
      </trkpt>
      <trkpt lat="44.871693011373281" lon="7.747466024011374">
        <ele>250.56</ele>
        <time>2025-05-19T12:54:14Z</time>
      </trkpt>
      <trkpt lat="44.875802993774414" lon="7.747180033475161">
        <ele>250.56</ele>
        <time>2025-05-19T12:54:27Z</time>
      </trkpt>
      <trkpt lat="44.880539020523429" lon="7.74679203517735">
        <ele>246.72</ele>
        <time>2025-05-19T12:54:42Z</time>
      </trkpt>
      <trkpt lat="44.884966006502509" lon="7.746425997465849">
        <ele>245.27000000000001</ele>
        <time>2025-05-19T12:54:56Z</time>
      </trkpt>
      <trkpt lat="44.890008978545666" lon="7.74601997807622">
        <ele>246.22999999999999</ele>
        <time>2025-05-19T12:55:12Z</time>
      </trkpt>
      <trkpt lat="44.894750034436584" lon="7.745647989213467">
        <ele>247.19999999999999</ele>
        <time>2025-05-19T12:55:27Z</time>
      </trkpt>
      <trkpt lat="44.900088971480727" lon="7.745082965120673">
        <ele>250.56</ele>
        <time>2025-05-19T12:55:44Z</time>
      </trkpt>
      <trkpt lat="44.903816990554333" lon="7.743975967168808">
        <ele>252</ele>
        <time>2025-05-19T12:55:56Z</time>
      </trkpt>
      <trkpt lat="44.907100014388561" lon="7.742306040599942">
        <ele>250.56</ele>
        <time>2025-05-19T12:56:07Z</time>
      </trkpt>
      <trkpt lat="44.911376964300871" lon="7.739404980093241">
        <ele>244.31</ele>
        <time>2025-05-19T12:56:22Z</time>
      </trkpt>
      <trkpt lat="44.916491014882922" lon="7.73587997071445">
        <ele>238.53999999999999</ele>
        <time>2025-05-19T12:56:40Z</time>
      </trkpt>
      <trkpt lat="44.921629959717393" lon="7.732351021841168">
        <ele>237.58000000000001</ele>
        <time>2025-05-19T12:56:58Z</time>
      </trkpt>
      <trkpt lat="44.926230031996965" lon="7.729192972183228">
        <ele>235.66</ele>
        <time>2025-05-19T12:57:14Z</time>
      </trkpt>
      <trkpt lat="44.930287040770054" lon="7.726415963843465">
        <ele>235.66</ele>
        <time>2025-05-19T12:57:28Z</time>
      </trkpt>
      <trkpt lat="44.935217024758458" lon="7.723021963611245">
        <ele>234.69999999999999</ele>
        <time>2025-05-19T12:57:45Z</time>
      </trkpt>
      <trkpt lat="44.940732987597585" lon="7.719224961474538">
        <ele>235.66</ele>
        <time>2025-05-19T12:58:04Z</time>
      </trkpt>
      <trkpt lat="44.943918026983738" lon="7.717043990269303">
        <ele>235.66</ele>
        <time>2025-05-19T12:58:15Z</time>
      </trkpt>
      <trkpt lat="44.94742501527071" lon="7.714755982160568">
        <ele>234.69999999999999</ele>
        <time>2025-05-19T12:58:27Z</time>
      </trkpt>
      <trkpt lat="44.949909998103976" lon="7.713757026940584">
        <ele>237.58000000000001</ele>
        <time>2025-05-19T12:58:35Z</time>
      </trkpt>
      <trkpt lat="44.954280992969871" lon="7.712155999615789">
        <ele>237.09999999999999</ele>
        <time>2025-05-19T12:58:49Z</time>
      </trkpt>
      <trkpt lat="44.956588027998805" lon="7.710539968684316">
        <ele>235.66</ele>
        <time>2025-05-19T12:58:57Z</time>
      </trkpt>
      <trkpt lat="44.958646036684513" lon="7.708346005529165">
        <ele>234.69999999999999</ele>
        <time>2025-05-19T12:59:05Z</time>
      </trkpt>
      <trkpt lat="44.961256999522448" lon="7.705703023821116">
        <ele>234.69999999999999</ele>
        <time>2025-05-19T12:59:15Z</time>
      </trkpt>
      <trkpt lat="44.963357001543045" lon="7.704587979242206">
        <ele>235.18000000000001</ele>
        <time>2025-05-19T12:59:22Z</time>
      </trkpt>
      <trkpt lat="44.965102029964328" lon="7.704100990667939">
        <ele>234.22</ele>
        <time>2025-05-19T12:59:28Z</time>
      </trkpt>
      <trkpt lat="44.967208988964558" lon="7.703551976010203">
        <ele>233.74000000000001</ele>
        <time>2025-05-19T12:59:37Z</time>
      </trkpt>
      <trkpt lat="44.969804026186466" lon="7.702857032418251">
        <ele>238.53999999999999</ele>
        <time>2025-05-19T12:59:48Z</time>
      </trkpt>
      <trkpt lat="44.972019027918577" lon="7.702262001112104">
        <ele>239.99000000000001</ele>
        <time>2025-05-19T12:59:59Z</time>
      </trkpt>
      <trkpt lat="44.972355980426073" lon="7.702332995831966">
        <ele>239.99000000000001</ele>
        <time>2025-05-19T13:00:01Z</time>
      </trkpt>
      <trkpt lat="44.972502999007702" lon="7.702369038015604">
        <ele>239.50999999999999</ele>
        <time>2025-05-19T13:00:03Z</time>
      </trkpt>
      <trkpt lat="44.972731992602348" lon="7.702548997476697">
        <ele>239.02000000000001</ele>
        <time>2025-05-19T13:00:04Z</time>
      </trkpt>
      <trkpt lat="44.972828971222043" lon="7.70268302410841">
        <ele>239.02000000000001</ele>
        <time>2025-05-19T13:00:05Z</time>
      </trkpt>
      <trkpt lat="44.972921004518867" lon="7.702811015769839">
        <ele>238.53999999999999</ele>
        <time>2025-05-19T13:00:06Z</time>
      </trkpt>
      <trkpt lat="44.972956962883472" lon="7.702969014644623">
        <ele>238.06</ele>
        <time>2025-05-19T13:00:07Z</time>
      </trkpt>
      <trkpt lat="44.972987975925207" lon="7.703134976327419">
        <ele>237.09999999999999</ele>
        <time>2025-05-19T13:00:08Z</time>
      </trkpt>
      <trkpt lat="44.972999040037394" lon="7.703306972980499">
        <ele>236.62</ele>
        <time>2025-05-19T13:00:09Z</time>
      </trkpt>
      <trkpt lat="44.972995016723871" lon="7.703493973240256">
        <ele>236.13999999999999</ele>
        <time>2025-05-19T13:00:10Z</time>
      </trkpt>
      <trkpt lat="44.972961992025375" lon="7.703675022348762">
        <ele>235.66</ele>
        <time>2025-05-19T13:00:11Z</time>
      </trkpt>
      <trkpt lat="44.972913963720202" lon="7.703862022608519">
        <ele>234.69999999999999</ele>
        <time>2025-05-19T13:00:12Z</time>
      </trkpt>
      <trkpt lat="44.972850009799004" lon="7.704054974019527">
        <ele>234.22</ele>
        <time>2025-05-19T13:00:13Z</time>
      </trkpt>
      <trkpt lat="44.972770968452096" lon="7.704291008412838">
        <ele>233.25999999999999</ele>
        <time>2025-05-19T13:00:14Z</time>
      </trkpt>
      <trkpt lat="44.972674995660782" lon="7.70444699563086">
        <ele>233.25999999999999</ele>
        <time>2025-05-19T13:00:15Z</time>
      </trkpt>
      <trkpt lat="44.972549015656114" lon="7.704615974798799">
        <ele>232.78</ele>
        <time>2025-05-19T13:00:16Z</time>
      </trkpt>
      <trkpt lat="44.972407026216388" lon="7.704742960631847">
        <ele>232.30000000000001</ele>
        <time>2025-05-19T13:00:17Z</time>
      </trkpt>
      <trkpt lat="44.97224198654294" lon="7.704830970615149">
        <ele>231.81</ele>
        <time>2025-05-19T13:00:18Z</time>
      </trkpt>
      <trkpt lat="44.972077030688524" lon="7.704908000305295">
        <ele>231.81</ele>
        <time>2025-05-19T13:00:19Z</time>
      </trkpt>
      <trkpt lat="44.971902016550303" lon="7.704934990033507">
        <ele>231.33000000000001</ele>
        <time>2025-05-19T13:00:20Z</time>
      </trkpt>
      <trkpt lat="44.971729014068842" lon="7.704934990033507">
        <ele>231.33000000000001</ele>
        <time>2025-05-19T13:00:21Z</time>
      </trkpt>
      <trkpt lat="44.971555005759001" lon="7.704900959506631">
        <ele>230.84999999999999</ele>
        <time>2025-05-19T13:00:22Z</time>
      </trkpt>
      <trkpt lat="44.971415027976036" lon="7.704816972836852">
        <ele>230.84999999999999</ele>
        <time>2025-05-19T13:00:23Z</time>
      </trkpt>
      <trkpt lat="44.971303967759013" lon="7.704658973962069">
        <ele>230.84999999999999</ele>
        <time>2025-05-19T13:00:24Z</time>
      </trkpt>
      <trkpt lat="44.971226016059518" lon="7.704495023936033">
        <ele>230.84999999999999</ele>
        <time>2025-05-19T13:00:25Z</time>
      </trkpt>
      <trkpt lat="44.971177987754345" lon="7.704328978434205">
        <ele>230.84999999999999</ele>
        <time>2025-05-19T13:00:26Z</time>
      </trkpt>
      <trkpt lat="44.971160972490907" lon="7.704138960689306">
        <ele>230.84999999999999</ele>
        <time>2025-05-19T13:00:27Z</time>
      </trkpt>
      <trkpt lat="44.971160972490907" lon="7.70395003259182">
        <ele>230.84999999999999</ele>
        <time>2025-05-19T13:00:28Z</time>
      </trkpt>
      <trkpt lat="44.971160972490907" lon="7.703750962391496">
        <ele>231.33000000000001</ele>
        <time>2025-05-19T13:00:29Z</time>
      </trkpt>
      <trkpt lat="44.971160972490907" lon="7.703542001545429">
        <ele>231.33000000000001</ele>
        <time>2025-05-19T13:00:30Z</time>
      </trkpt>
      <trkpt lat="44.971219981089234" lon="7.701710974797607">
        <ele>233.74000000000001</ele>
        <time>2025-05-19T13:00:37Z</time>
      </trkpt>
      <trkpt lat="44.971269015222788" lon="7.69845200702548">
        <ele>235.18000000000001</ele>
        <time>2025-05-19T13:00:47Z</time>
      </trkpt>
      <trkpt lat="44.971010014414787" lon="7.694333977997303">
        <ele>237.09999999999999</ele>
        <time>2025-05-19T13:00:58Z</time>
      </trkpt>
      <trkpt lat="44.970542974770069" lon="7.689012978225946">
        <ele>235.18000000000001</ele>
        <time>2025-05-19T13:01:11Z</time>
      </trkpt>
      <trkpt lat="44.970143996179104" lon="7.684608036652207">
        <ele>232.30000000000001</ele>
        <time>2025-05-19T13:01:22Z</time>
      </trkpt>
      <trkpt lat="44.96996596455574" lon="7.681559035554528">
        <ele>233.25999999999999</ele>
        <time>2025-05-19T13:01:30Z</time>
      </trkpt>
      <trkpt lat="44.970193030312657" lon="7.678166963160038">
        <ele>232.30000000000001</ele>
        <time>2025-05-19T13:01:39Z</time>
      </trkpt>
      <trkpt lat="44.970949999988079" lon="7.674505999311805">
        <ele>232.78</ele>
        <time>2025-05-19T13:01:49Z</time>
      </trkpt>
      <trkpt lat="44.972009975463152" lon="7.66996200196445">
        <ele>235.18000000000001</ele>
        <time>2025-05-19T13:02:02Z</time>
      </trkpt>
      <trkpt lat="44.972697962075472" lon="7.667033029720187">
        <ele>231.81</ele>
        <time>2025-05-19T13:02:10Z</time>
      </trkpt>
      <trkpt lat="44.973773024976254" lon="7.662642002105713">
        <ele>231.81</ele>
        <time>2025-05-19T13:02:22Z</time>
      </trkpt>
      <trkpt lat="44.975055959075689" lon="7.658555991947651">
        <ele>232.30000000000001</ele>
        <time>2025-05-19T13:02:34Z</time>
      </trkpt>
      <trkpt lat="44.976590014994144" lon="7.654736023396254">
        <ele>234.22</ele>
        <time>2025-05-19T13:02:46Z</time>
      </trkpt>
      <trkpt lat="44.978065984323621" lon="7.65174301341176">
        <ele>230.37</ele>
        <time>2025-05-19T13:02:56Z</time>
      </trkpt>
      <trkpt lat="44.98032096773386" lon="7.647898988798261">
        <ele>225.09</ele>
        <time>2025-05-19T13:03:09Z</time>
      </trkpt>
      <trkpt lat="44.982353998348117" lon="7.644551005214453">
        <ele>224.12</ele>
        <time>2025-05-19T13:03:20Z</time>
      </trkpt>
      <trkpt lat="44.984735967591405" lon="7.640757020562887">
        <ele>229.88999999999999</ele>
        <time>2025-05-19T13:03:33Z</time>
      </trkpt>
      <trkpt lat="44.987314995378256" lon="7.636859016492963">
        <ele>238.06</ele>
        <time>2025-05-19T13:03:47Z</time>
      </trkpt>
      <trkpt lat="44.990069959312677" lon="7.632723972201347">
        <ele>235.66</ele>
        <time>2025-05-19T13:04:02Z</time>
      </trkpt>
      <trkpt lat="44.992037024348974" lon="7.629878986626864">
        <ele>235.18000000000001</ele>
        <time>2025-05-19T13:04:13Z</time>
      </trkpt>
      <trkpt lat="44.99404801055789" lon="7.627654010429978">
        <ele>236.13999999999999</ele>
        <time>2025-05-19T13:04:23Z</time>
      </trkpt>
      <trkpt lat="44.996407013386488" lon="7.625742014497519">
        <ele>238.53999999999999</ele>
        <time>2025-05-19T13:04:33Z</time>
      </trkpt>
      <trkpt lat="44.999059969559312" lon="7.624289011582732">
        <ele>239.99000000000001</ele>
        <time>2025-05-19T13:04:43Z</time>
      </trkpt>
      <trkpt lat="45.002337964251637" lon="7.62275998480618">
        <ele>241.43000000000001</ele>
        <time>2025-05-19T13:04:55Z</time>
      </trkpt>
      <trkpt lat="45.00485697761178" lon="7.621576962992549">
        <ele>239.50999999999999</ele>
        <time>2025-05-19T13:05:05Z</time>
      </trkpt>
      <trkpt lat="45.007209023460746" lon="7.620166037231684">
        <ele>240.47</ele>
        <time>2025-05-19T13:05:15Z</time>
      </trkpt>
      <trkpt lat="45.008370000869036" lon="7.618733989074826">
        <ele>238.06</ele>
        <time>2025-05-19T13:05:21Z</time>
      </trkpt>
      <trkpt lat="45.009322017431259" lon="7.616461990401149">
        <ele>239.50999999999999</ele>
        <time>2025-05-19T13:05:28Z</time>
      </trkpt>
      <trkpt lat="45.009675985202193" lon="7.614302979782224">
        <ele>243.83000000000001</ele>
        <time>2025-05-19T13:05:34Z</time>
      </trkpt>
      <trkpt lat="45.01016004011035" lon="7.610002979636192">
        <ele>246.72</ele>
        <time>2025-05-19T13:05:45Z</time>
      </trkpt>
      <trkpt lat="45.010853977873921" lon="7.607472985982895">
        <ele>248.16</ele>
        <time>2025-05-19T13:05:52Z</time>
      </trkpt>
      <trkpt lat="45.012000035494566" lon="7.605252033099532">
        <ele>250.08000000000001</ele>
        <time>2025-05-19T13:05:59Z</time>
      </trkpt>
      <trkpt lat="45.013513974845409" lon="7.603503987193108">
        <ele>251.52000000000001</ele>
        <time>2025-05-19T13:06:06Z</time>
      </trkpt>
      <trkpt lat="45.015308959409595" lon="7.602361030876637">
        <ele>254.41</ele>
        <time>2025-05-19T13:06:13Z</time>
      </trkpt>
      <trkpt lat="45.018603969365358" lon="7.600748017430306">
        <ele>257.29000000000002</ele>
        <time>2025-05-19T13:06:25Z</time>
      </trkpt>
      <trkpt lat="45.018846038728952" lon="7.600590018555522">
        <ele>256.32999999999998</ele>
        <time>2025-05-19T13:06:26Z</time>
      </trkpt>
      <trkpt lat="45.020964983850718" lon="7.599117988720536">
        <ele>256.81</ele>
        <time>2025-05-19T13:06:35Z</time>
      </trkpt>
      <trkpt lat="45.023672003298998" lon="7.596811959519982">
        <ele>265.45999999999998</ele>
        <time>2025-05-19T13:06:47Z</time>
      </trkpt>
      <trkpt lat="45.026930971071124" lon="7.594005027785897">
        <ele>277</ele>
        <time>2025-05-19T13:07:01Z</time>
      </trkpt>
      <trkpt lat="45.029997993260622" lon="7.591318041086197">
        <ele>274.58999999999997</ele>
        <time>2025-05-19T13:07:14Z</time>
      </trkpt>
      <trkpt lat="45.031425012275577" lon="7.589567983523011">
        <ele>275.06999999999999</ele>
        <time>2025-05-19T13:07:21Z</time>
      </trkpt>
      <trkpt lat="45.032685985788703" lon="7.587106972932816">
        <ele>276.04000000000002</ele>
        <time>2025-05-19T13:07:29Z</time>
      </trkpt>
      <trkpt lat="45.033654011785984" lon="7.583955964073539">
        <ele>276.51999999999998</ele>
        <time>2025-05-19T13:07:38Z</time>
      </trkpt>
      <trkpt lat="45.035097962245345" lon="7.57865197956562">
        <ele>277</ele>
        <time>2025-05-19T13:07:53Z</time>
      </trkpt>
      <trkpt lat="45.035597020760179" lon="7.576871998608112">
        <ele>275.56</ele>
        <time>2025-05-19T13:07:58Z</time>
      </trkpt>
      <trkpt lat="45.035692993551493" lon="7.576515013352037">
        <ele>275.06999999999999</ele>
        <time>2025-05-19T13:07:59Z</time>
      </trkpt>
      <trkpt lat="45.036579966545105" lon="7.573271971195936">
        <ele>277.48000000000002</ele>
        <time>2025-05-19T13:08:08Z</time>
      </trkpt>
      <trkpt lat="45.037644971162081" lon="7.569421995431185">
        <ele>283.73000000000002</ele>
        <time>2025-05-19T13:08:19Z</time>
      </trkpt>
      <trkpt lat="45.039194030687213" lon="7.563751973211765">
        <ele>292.86000000000001</ele>
        <time>2025-05-19T13:08:35Z</time>
      </trkpt>
      <trkpt lat="45.040285019204021" lon="7.559776017442346">
        <ele>296.22000000000003</ele>
        <time>2025-05-19T13:08:47Z</time>
      </trkpt>
      <trkpt lat="45.041012987494469" lon="7.557039996609092">
        <ele>295.74000000000001</ele>
        <time>2025-05-19T13:08:55Z</time>
      </trkpt>
      <trkpt lat="45.042278990149498" lon="7.553281970322132">
        <ele>298.63</ele>
        <time>2025-05-19T13:09:06Z</time>
      </trkpt>
      <trkpt lat="45.043695028871298" lon="7.550918022170663">
        <ele>301.99000000000001</ele>
        <time>2025-05-19T13:09:14Z</time>
      </trkpt>
      <trkpt lat="45.045404015108943" lon="7.549173999577761">
        <ele>304.88</ele>
        <time>2025-05-19T13:09:22Z</time>
      </trkpt>
      <trkpt lat="45.047381976619363" lon="7.547987038269639">
        <ele>307.27999999999997</ele>
        <time>2025-05-19T13:09:30Z</time>
      </trkpt>
      <trkpt lat="45.050602974370122" lon="7.546856990084052">
        <ele>309.68000000000001</ele>
        <time>2025-05-19T13:09:42Z</time>
      </trkpt>
      <trkpt lat="45.053192982450128" lon="7.545984014868736">
        <ele>314.00999999999999</ele>
        <time>2025-05-19T13:09:52Z</time>
      </trkpt>
      <trkpt lat="45.053420970216393" lon="7.545903967693448">
        <ele>314.49000000000001</ele>
        <time>2025-05-19T13:09:53Z</time>
      </trkpt>
      <trkpt lat="45.056386990472674" lon="7.544872993603349">
        <ele>317.37</ele>
        <time>2025-05-19T13:10:05Z</time>
      </trkpt>
      <trkpt lat="45.060224980115891" lon="7.543586036190391">
        <ele>321.22000000000003</ele>
        <time>2025-05-19T13:10:19Z</time>
      </trkpt>
      <trkpt lat="45.06228600628674" lon="7.54349903203547">
        <ele>322.66000000000003</ele>
        <time>2025-05-19T13:10:26Z</time>
      </trkpt>
      <trkpt lat="45.064523974433541" lon="7.54410102032125">
        <ele>326.5</ele>
        <time>2025-05-19T13:10:34Z</time>
      </trkpt>
      <trkpt lat="45.067584039643407" lon="7.545034009963274">
        <ele>335.16000000000003</ele>
        <time>2025-05-19T13:10:46Z</time>
      </trkpt>
      <trkpt lat="45.070946021005511" lon="7.546109994873405">
        <ele>339</ele>
        <time>2025-05-19T13:10:59Z</time>
      </trkpt>
      <trkpt lat="45.073186000809073" lon="7.54676403477788">
        <ele>338.04000000000002</ele>
        <time>2025-05-19T13:11:08Z</time>
      </trkpt>
      <trkpt lat="45.076260985806584" lon="7.547725019976497">
        <ele>338.04000000000002</ele>
        <time>2025-05-19T13:11:22Z</time>
      </trkpt>
      <trkpt lat="45.078725013881922" lon="7.54850696772337">
        <ele>335.16000000000003</ele>
        <time>2025-05-19T13:11:32Z</time>
      </trkpt>
      <trkpt lat="45.079604024067521" lon="7.548865964636207">
        <ele>333.70999999999998</ele>
        <time>2025-05-19T13:11:36Z</time>
      </trkpt>
      <trkpt lat="45.079808039590716" lon="7.5490009970963">
        <ele>333.23000000000002</ele>
        <time>2025-05-19T13:11:37Z</time>
      </trkpt>
      <trkpt lat="45.080003002658486" lon="7.549166958779097">
        <ele>333.23000000000002</ele>
        <time>2025-05-19T13:11:38Z</time>
      </trkpt>
      <trkpt lat="45.080193020403385" lon="7.549329986795783">
        <ele>332.75</ele>
        <time>2025-05-19T13:11:39Z</time>
      </trkpt>
      <trkpt lat="45.080367028713226" lon="7.549535008147359">
        <ele>332.26999999999998</ele>
        <time>2025-05-19T13:11:40Z</time>
      </trkpt>
      <trkpt lat="45.080539025366306" lon="7.549737012013793">
        <ele>331.79000000000002</ele>
        <time>2025-05-19T13:11:41Z</time>
      </trkpt>
      <trkpt lat="45.080704987049103" lon="7.549942033365369">
        <ele>331.31</ele>
        <time>2025-05-19T13:11:42Z</time>
      </trkpt>
      <trkpt lat="45.0808260217309" lon="7.550205979496241">
        <ele>331.31</ele>
        <time>2025-05-19T13:11:44Z</time>
      </trkpt>
      <trkpt lat="45.081506967544556" lon="7.552518965676427">
        <ele>330.82999999999998</ele>
        <time>2025-05-19T13:11:51Z</time>
      </trkpt>
      <trkpt lat="45.082439035177231" lon="7.555001014843583">
        <ele>330.82999999999998</ele>
        <time>2025-05-19T13:12:00Z</time>
      </trkpt>
      <trkpt lat="45.08370696566999" lon="7.557104034349322">
        <ele>326.99000000000001</ele>
        <time>2025-05-19T13:12:08Z</time>
      </trkpt>
      <trkpt lat="45.085418969392776" lon="7.559283999726176">
        <ele>319.30000000000001</ele>
        <time>2025-05-19T13:12:17Z</time>
      </trkpt>
      <trkpt lat="45.087286038324237" lon="7.561662029474974">
        <ele>312.08999999999997</ele>
        <time>2025-05-19T13:12:27Z</time>
      </trkpt>
      <trkpt lat="45.08952802978456" lon="7.564485976472497">
        <ele>302.94999999999999</ele>
        <time>2025-05-19T13:12:39Z</time>
      </trkpt>
      <trkpt lat="45.091377999633551" lon="7.566815977916122">
        <ele>300.06999999999999</ele>
        <time>2025-05-19T13:12:49Z</time>
      </trkpt>
      <trkpt lat="45.093751000240445" lon="7.569792978465557">
        <ele>301.02999999999997</ele>
        <time>2025-05-19T13:13:02Z</time>
      </trkpt>
      <trkpt lat="45.096114026382565" lon="7.57280602119863">
        <ele>298.63</ele>
        <time>2025-05-19T13:13:15Z</time>
      </trkpt>
      <trkpt lat="45.097421016544104" lon="7.574951034039259">
        <ele>301.99000000000001</ele>
        <time>2025-05-19T13:13:23Z</time>
      </trkpt>
      <trkpt lat="45.098481997847557" lon="7.577616982161999">
        <ele>307.27999999999997</ele>
        <time>2025-05-19T13:13:32Z</time>
      </trkpt>
      <trkpt lat="45.099465027451515" lon="7.5810999982059">
        <ele>302.47000000000003</ele>
        <time>2025-05-19T13:13:43Z</time>
      </trkpt>
      <trkpt lat="45.10009903460741" lon="7.583466963842511">
        <ele>299.58999999999997</ele>
        <time>2025-05-19T13:13:52Z</time>
      </trkpt>
      <trkpt lat="45.100761959329247" lon="7.585799982771277">
        <ele>297.18000000000001</ele>
        <time>2025-05-19T13:13:59Z</time>
      </trkpt>
      <trkpt lat="45.101734008640051" lon="7.589314011856914">
        <ele>295.74000000000001</ele>
        <time>2025-05-19T13:14:09Z</time>
      </trkpt>
      <trkpt lat="45.102628022432327" lon="7.592565016821027">
        <ele>295.25999999999999</ele>
        <time>2025-05-19T13:14:18Z</time>
      </trkpt>
      <trkpt lat="45.103315003216267" lon="7.595111019909382">
        <ele>292.86000000000001</ele>
        <time>2025-05-19T13:14:25Z</time>
      </trkpt>
      <trkpt lat="45.104777980595827" lon="7.600335963070393">
        <ele>289.00999999999999</ele>
        <time>2025-05-19T13:14:40Z</time>
      </trkpt>
      <trkpt lat="45.105837034061551" lon="7.603883016854525">
        <ele>287.56999999999999</ele>
        <time>2025-05-19T13:14:50Z</time>
      </trkpt>
      <trkpt lat="45.107265980914235" lon="7.607577005401254">
        <ele>285.64999999999998</ele>
        <time>2025-05-19T13:15:01Z</time>
      </trkpt>
      <trkpt lat="45.108769023790956" lon="7.610848965123296">
        <ele>283.73000000000002</ele>
        <time>2025-05-19T13:15:11Z</time>
      </trkpt>
      <trkpt lat="45.110997017472982" lon="7.615536041557789">
        <ele>284.69</ele>
        <time>2025-05-19T13:15:26Z</time>
      </trkpt>
      <trkpt lat="45.112682031467557" lon="7.619108995422721">
        <ele>281.80000000000001</ele>
        <time>2025-05-19T13:15:37Z</time>
      </trkpt>
      <trkpt lat="45.113861029967666" lon="7.621605964377523">
        <ele>280.83999999999997</ele>
        <time>2025-05-19T13:15:45Z</time>
      </trkpt>
      <trkpt lat="45.11400100775063" lon="7.62192003428936">
        <ele>280.83999999999997</ele>
        <time>2025-05-19T13:15:46Z</time>
      </trkpt>
      <trkpt lat="45.115831028670073" lon="7.626277031376958">
        <ele>278.44</ele>
        <time>2025-05-19T13:15:59Z</time>
      </trkpt>
      <trkpt lat="45.11713600717485" lon="7.630309984087944">
        <ele>273.63</ele>
        <time>2025-05-19T13:16:11Z</time>
      </trkpt>
      <trkpt lat="45.118493959307671" lon="7.634546030312777">
        <ele>269.31</ele>
        <time>2025-05-19T13:16:23Z</time>
      </trkpt>
      <trkpt lat="45.120175033807755" lon="7.639823025092483">
        <ele>262.10000000000002</ele>
        <time>2025-05-19T13:16:38Z</time>
      </trkpt>
      <trkpt lat="45.121398037299514" lon="7.643668977543712">
        <ele>260.64999999999998</ele>
        <time>2025-05-19T13:16:49Z</time>
      </trkpt>
      <trkpt lat="45.122543005272746" lon="7.647174960002303">
        <ele>257.76999999999998</ele>
        <time>2025-05-19T13:16:59Z</time>
      </trkpt>
      <trkpt lat="45.123674981296062" lon="7.650736011564732">
        <ele>255.84999999999999</ele>
        <time>2025-05-19T13:17:09Z</time>
      </trkpt>
      <trkpt lat="45.124703021720052" lon="7.653961032629013">
        <ele>254.88999999999999</ele>
        <time>2025-05-19T13:17:18Z</time>
      </trkpt>
      <trkpt lat="45.126176979392767" lon="7.658866960555315">
        <ele>249.59999999999999</ele>
        <time>2025-05-19T13:17:32Z</time>
      </trkpt>
      <trkpt lat="45.126621974632144" lon="7.66145302914083">
        <ele>242.87</ele>
        <time>2025-05-19T13:17:39Z</time>
      </trkpt>
      <trkpt lat="45.12697895988822" lon="7.665349021553993">
        <ele>240.47</ele>
        <time>2025-05-19T13:17:49Z</time>
      </trkpt>
      <trkpt lat="45.127290012314916" lon="7.669118028134108">
        <ele>239.02000000000001</ele>
        <time>2025-05-19T13:17:59Z</time>
      </trkpt>
      <trkpt lat="45.127723021432757" lon="7.67434598878026">
        <ele>238.53999999999999</ele>
        <time>2025-05-19T13:18:13Z</time>
      </trkpt>
      <trkpt lat="45.128196012228727" lon="7.680040989071131">
        <ele>237.09999999999999</ele>
        <time>2025-05-19T13:18:28Z</time>
      </trkpt>
      <trkpt lat="45.128694986924529" lon="7.686132034286857">
        <ele>235.18000000000001</ele>
        <time>2025-05-19T13:18:44Z</time>
      </trkpt>
      <trkpt lat="45.128928003832698" lon="7.688961010426283">
        <ele>235.66</ele>
        <time>2025-05-19T13:18:52Z</time>
      </trkpt>
      <trkpt lat="45.129316002130508" lon="7.69318800419569">
        <ele>234.69999999999999</ele>
        <time>2025-05-19T13:19:05Z</time>
      </trkpt>
      <trkpt lat="45.129866022616625" lon="7.696943012997508">
        <ele>233.74000000000001</ele>
        <time>2025-05-19T13:19:15Z</time>
      </trkpt>
      <trkpt lat="45.130646964535117" lon="7.70025696605444">
        <ele>231.81</ele>
        <time>2025-05-19T13:19:26Z</time>
      </trkpt>
      <trkpt lat="45.131457997485995" lon="7.702970020473003">
        <ele>226.53</ele>
        <time>2025-05-19T13:19:36Z</time>
      </trkpt>
      <trkpt lat="45.131978010758758" lon="7.704523019492626">
        <ele>227.00999999999999</ele>
        <time>2025-05-19T13:19:43Z</time>
      </trkpt>
      <trkpt lat="45.132823996245861" lon="7.707081008702517">
        <ele>229.88999999999999</ele>
        <time>2025-05-19T13:19:53Z</time>
      </trkpt>
      <trkpt lat="45.133551964536309" lon="7.709230966866016">
        <ele>229.88999999999999</ele>
        <time>2025-05-19T13:20:03Z</time>
      </trkpt>
      <trkpt lat="45.133561016991735" lon="7.70964402705431">
        <ele>229.88999999999999</ele>
        <time>2025-05-19T13:20:05Z</time>
      </trkpt>
      <trkpt lat="45.133598987013102" lon="7.709827004000545">
        <ele>228.93000000000001</ele>
        <time>2025-05-19T13:20:07Z</time>
      </trkpt>
      <trkpt lat="45.133598987013102" lon="7.710201004520059">
        <ele>228.44999999999999</ele>
        <time>2025-05-19T13:20:08Z</time>
      </trkpt>
      <trkpt lat="45.133585995063186" lon="7.71039898507297">
        <ele>227.49000000000001</ele>
        <time>2025-05-19T13:20:09Z</time>
      </trkpt>
      <trkpt lat="45.133569985628128" lon="7.710607023909688">
        <ele>227.49000000000001</ele>
        <time>2025-05-19T13:20:10Z</time>
      </trkpt>
      <trkpt lat="45.133276032283902" lon="7.71247903816402">
        <ele>227.49000000000001</ele>
        <time>2025-05-19T13:20:19Z</time>
      </trkpt>
      <trkpt lat="45.13329598121345" lon="7.712916992604733">
        <ele>227.97</ele>
        <time>2025-05-19T13:20:21Z</time>
      </trkpt>
      <trkpt lat="45.133347027003765" lon="7.713138023391366">
        <ele>227.97</ele>
        <time>2025-05-19T13:20:22Z</time>
      </trkpt>
      <trkpt lat="45.133397988975048" lon="7.713355030864477">
        <ele>227.97</ele>
        <time>2025-05-19T13:20:23Z</time>
      </trkpt>
      <trkpt lat="45.133446017280221" lon="7.713560974225402">
        <ele>227.97</ele>
        <time>2025-05-19T13:20:24Z</time>
      </trkpt>
      <trkpt lat="45.133515000343323" lon="7.713759960606694">
        <ele>227.97</ele>
        <time>2025-05-19T13:20:25Z</time>
      </trkpt>
      <trkpt lat="45.134085975587368" lon="7.714976007118821">
        <ele>227.00999999999999</ele>
        <time>2025-05-19T13:20:33Z</time>
      </trkpt>
      <trkpt lat="45.134373977780342" lon="7.715718979015946">
        <ele>227.49000000000001</ele>
        <time>2025-05-19T13:20:39Z</time>
      </trkpt>
      <trkpt lat="45.134413037449121" lon="7.71581101231277">
        <ele>227.49000000000001</ele>
        <time>2025-05-19T13:20:40Z</time>
      </trkpt>
      <trkpt lat="45.134600037708879" lon="7.716223988682032">
        <ele>227.97</ele>
        <time>2025-05-19T13:20:48Z</time>
      </trkpt>
      <trkpt lat="45.134600037708879" lon="7.716223988682032">
        <ele>227.49000000000001</ele>
        <time>2025-05-19T13:21:04Z</time>
      </trkpt>
      <trkpt lat="45.134609006345272" lon="7.716246033087373">
        <ele>227.00999999999999</ele>
        <time>2025-05-19T13:21:19Z</time>
      </trkpt>
      <trkpt lat="45.134609006345272" lon="7.716246033087373">
        <ele>227.00999999999999</ele>
        <time>2025-05-19T13:21:47Z</time>
      </trkpt>
      <trkpt lat="45.134609006345272" lon="7.716246033087373">
        <ele>226.53</ele>
        <time>2025-05-19T13:22:15Z</time>
      </trkpt>
      <trkpt lat="45.134609006345272" lon="7.716246033087373">
        <ele>226.05000000000001</ele>
        <time>2025-05-19T13:23:06Z</time>
      </trkpt>
      <trkpt lat="45.134661979973316" lon="7.716358015313745">
        <ele>225.56999999999999</ele>
        <time>2025-05-19T13:23:30Z</time>
      </trkpt>
      <trkpt lat="45.134739009663463" lon="7.716510985046625">
        <ele>226.53</ele>
        <time>2025-05-19T13:23:35Z</time>
      </trkpt>
      <trkpt lat="45.134779997169971" lon="7.716593965888023">
        <ele>226.53</ele>
        <time>2025-05-19T13:23:36Z</time>
      </trkpt>
      <trkpt lat="45.135144023224711" lon="7.717061005532742">
        <ele>224.61000000000001</ele>
        <time>2025-05-19T13:23:41Z</time>
      </trkpt>
      <trkpt lat="45.135663030669093" lon="7.717689983546734">
        <ele>223.63999999999999</ele>
        <time>2025-05-19T13:23:46Z</time>
      </trkpt>
      <trkpt lat="45.13576696626842" lon="7.717857034876943">
        <ele>223.63999999999999</ele>
        <time>2025-05-19T13:23:47Z</time>
      </trkpt>
      <trkpt lat="45.135870985686779" lon="7.71802400238812">
        <ele>224.12</ele>
        <time>2025-05-19T13:23:48Z</time>
      </trkpt>
      <trkpt lat="45.135960001498461" lon="7.718235980719328">
        <ele>224.12</ele>
        <time>2025-05-19T13:23:49Z</time>
      </trkpt>
      <trkpt lat="45.136053040623665" lon="7.718456005677581">
        <ele>224.12</ele>
        <time>2025-05-19T13:23:50Z</time>
      </trkpt>
      <trkpt lat="45.13666701503098" lon="7.720071030780673">
        <ele>224.61000000000001</ele>
        <time>2025-05-19T13:23:58Z</time>
      </trkpt>
      <trkpt lat="45.137141011655331" lon="7.721596034243703">
        <ele>225.56999999999999</ele>
        <time>2025-05-19T13:24:06Z</time>
      </trkpt>
      <trkpt lat="45.137284006923437" lon="7.723327986896038">
        <ele>226.53</ele>
        <time>2025-05-19T13:24:13Z</time>
      </trkpt>
      <trkpt lat="45.137258023023605" lon="7.723593022674322">
        <ele>226.53</ele>
        <time>2025-05-19T13:24:14Z</time>
      </trkpt>
      <trkpt lat="45.137214018031955" lon="7.723860992118716">
        <ele>226.53</ele>
        <time>2025-05-19T13:24:15Z</time>
      </trkpt>
      <trkpt lat="45.137155009433627" lon="7.724119992926717">
        <ele>226.05000000000001</ele>
        <time>2025-05-19T13:24:16Z</time>
      </trkpt>
      <trkpt lat="45.136921992525458" lon="7.724858019500971">
        <ele>225.09</ele>
        <time>2025-05-19T13:24:19Z</time>
      </trkpt>
      <trkpt lat="45.136806992813945" lon="7.725069997832179">
        <ele>225.09</ele>
        <time>2025-05-19T13:24:20Z</time>
      </trkpt>
      <trkpt lat="45.13668998144567" lon="7.72526596672833">
        <ele>224.61000000000001</ele>
        <time>2025-05-19T13:24:21Z</time>
      </trkpt>
      <trkpt lat="45.136353028938174" lon="7.725533014163375">
        <ele>224.12</ele>
        <time>2025-05-19T13:24:24Z</time>
      </trkpt>
      <trkpt lat="45.134952999651432" lon="7.726449994370341">
        <ele>223.63999999999999</ele>
        <time>2025-05-19T13:24:31Z</time>
      </trkpt>
      <trkpt lat="45.133625976741314" lon="7.726394003257155">
        <ele>224.12</ele>
        <time>2025-05-19T13:24:37Z</time>
      </trkpt>
      <trkpt lat="45.131901986896992" lon="7.725724959746003">
        <ele>227.97</ele>
        <time>2025-05-19T13:24:45Z</time>
      </trkpt>
      <trkpt lat="45.131699983030558" lon="7.725724959746003">
        <ele>228.44999999999999</ele>
        <time>2025-05-19T13:24:46Z</time>
      </trkpt>
      <trkpt lat="45.131503008306026" lon="7.725755972787738">
        <ele>228.93000000000001</ele>
        <time>2025-05-19T13:24:47Z</time>
      </trkpt>
      <trkpt lat="45.131278960034251" lon="7.725792014971376">
        <ele>229.41</ele>
        <time>2025-05-19T13:24:48Z</time>
      </trkpt>
      <trkpt lat="45.131120961159468" lon="7.725878013297916">
        <ele>229.88999999999999</ele>
        <time>2025-05-19T13:24:49Z</time>
      </trkpt>
      <trkpt lat="45.130948964506388" lon="7.726035006344318">
        <ele>230.37</ele>
        <time>2025-05-19T13:24:50Z</time>
      </trkpt>
      <trkpt lat="45.130806975066662" lon="7.726221000775695">
        <ele>230.84999999999999</ele>
        <time>2025-05-19T13:24:51Z</time>
      </trkpt>
      <trkpt lat="45.13067496009171" lon="7.726417975500226">
        <ele>231.33000000000001</ele>
        <time>2025-05-19T13:24:52Z</time>
      </trkpt>
      <trkpt lat="45.130554009228945" lon="7.726649986580014">
        <ele>231.81</ele>
        <time>2025-05-19T13:24:53Z</time>
      </trkpt>
      <trkpt lat="45.130473962053657" lon="7.726915022358298">
        <ele>231.81</ele>
        <time>2025-05-19T13:24:54Z</time>
      </trkpt>
      <trkpt lat="45.130434986203909" lon="7.727185003459454">
        <ele>231.33000000000001</ele>
        <time>2025-05-19T13:24:55Z</time>
      </trkpt>
      <trkpt lat="45.130395004525781" lon="7.727453978732228">
        <ele>231.33000000000001</ele>
        <time>2025-05-19T13:24:56Z</time>
      </trkpt>
      <trkpt lat="45.130397016182542" lon="7.727756984531879">
        <ele>230.37</ele>
        <time>2025-05-19T13:24:57Z</time>
      </trkpt>
      <trkpt lat="45.13043599203229" lon="7.728046998381615">
        <ele>229.88999999999999</ele>
        <time>2025-05-19T13:24:58Z</time>
      </trkpt>
      <trkpt lat="45.130501035600901" lon="7.728317985311151">
        <ele>229.41</ele>
        <time>2025-05-19T13:24:59Z</time>
      </trkpt>
      <trkpt lat="45.130600025877357" lon="7.728576986119151">
        <ele>228.93000000000001</ele>
        <time>2025-05-19T13:25:00Z</time>
      </trkpt>
      <trkpt lat="45.130717037245631" lon="7.728811008855701">
        <ele>228.44999999999999</ele>
        <time>2025-05-19T13:25:01Z</time>
      </trkpt>
      <trkpt lat="45.130873024463654" lon="7.729013012722135">
        <ele>227.97</ele>
        <time>2025-05-19T13:25:02Z</time>
      </trkpt>
      <trkpt lat="45.13103898614645" lon="7.729191966354847">
        <ele>227.00999999999999</ele>
        <time>2025-05-19T13:25:03Z</time>
      </trkpt>
      <trkpt lat="45.131220035254955" lon="7.729334961622953">
        <ele>226.53</ele>
        <time>2025-05-19T13:25:04Z</time>
      </trkpt>
      <trkpt lat="45.131413992494345" lon="7.729487009346485">
        <ele>225.56999999999999</ele>
        <time>2025-05-19T13:25:05Z</time>
      </trkpt>
      <trkpt lat="45.131633011624217" lon="7.729617012664676">
        <ele>225.09</ele>
        <time>2025-05-19T13:25:06Z</time>
      </trkpt>
      <trkpt lat="45.13260698877275" lon="7.73031497374177">
        <ele>223.16</ele>
        <time>2025-05-19T13:25:11Z</time>
      </trkpt>
      <trkpt lat="45.132741015404463" lon="7.730515971779823">
        <ele>222.68000000000001</ele>
        <time>2025-05-19T13:25:12Z</time>
      </trkpt>
      <trkpt lat="45.132876969873905" lon="7.730730967596173">
        <ele>222.19999999999999</ele>
        <time>2025-05-19T13:25:13Z</time>
      </trkpt>
      <trkpt lat="45.133151980116963" lon="7.731168000027537">
        <ele>221.24000000000001</ele>
        <time>2025-05-19T13:25:15Z</time>
      </trkpt>
      <trkpt lat="45.133285000920296" lon="7.731400011107326">
        <ele>219.80000000000001</ele>
        <time>2025-05-19T13:25:17Z</time>
      </trkpt>
      <trkpt lat="45.134600037708879" lon="7.734034024178982">
        <ele>217.88</ele>
        <time>2025-05-19T13:25:25Z</time>
      </trkpt>
      <trkpt lat="45.135621037334204" lon="7.736085997894406">
        <ele>216.91</ele>
        <time>2025-05-19T13:25:32Z</time>
      </trkpt>
      <trkpt lat="45.136404996737838" lon="7.737658023834229">
        <ele>214.99000000000001</ele>
        <time>2025-05-19T13:25:38Z</time>
      </trkpt>
      <trkpt lat="45.136535000056028" lon="7.737925993278623">
        <ele>214.50999999999999</ele>
        <time>2025-05-19T13:25:39Z</time>
      </trkpt>
      <trkpt lat="45.137443011626601" lon="7.739816028624773">
        <ele>213.55000000000001</ele>
        <time>2025-05-19T13:25:47Z</time>
      </trkpt>
      <trkpt lat="45.137611990794539" lon="7.740155998617411">
        <ele>214.03</ele>
        <time>2025-05-19T13:25:49Z</time>
      </trkpt>
      <trkpt lat="45.137682985514402" lon="7.740299999713898">
        <ele>213.55000000000001</ele>
        <time>2025-05-19T13:25:50Z</time>
      </trkpt>
      <trkpt lat="45.137742999941111" lon="7.740423968061805">
        <ele>213.55000000000001</ele>
        <time>2025-05-19T13:25:51Z</time>
      </trkpt>
      <trkpt lat="45.137686002999544" lon="7.740773996338248">
        <ele>213.06999999999999</ele>
        <time>2025-05-19T13:25:53Z</time>
      </trkpt>
      <trkpt lat="45.137748029083014" lon="7.740919003263116">
        <ele>213.55000000000001</ele>
        <time>2025-05-19T13:25:54Z</time>
      </trkpt>
      <trkpt lat="45.137808965519071" lon="7.741040959954262">
        <ele>214.03</ele>
        <time>2025-05-19T13:25:55Z</time>
      </trkpt>
      <trkpt lat="45.138019016012549" lon="7.741460977122188">
        <ele>215.47</ele>
        <time>2025-05-19T13:25:59Z</time>
      </trkpt>
      <trkpt lat="45.138049023225904" lon="7.741521997377276">
        <ele>215.47</ele>
        <time>2025-05-19T13:26:00Z</time>
      </trkpt>
      <trkpt lat="45.138047011569142" lon="7.741595003753901">
        <ele>215.94999999999999</ele>
        <time>2025-05-19T13:26:01Z</time>
      </trkpt>
      <trkpt lat="45.138034019619226" lon="7.741649989038706">
        <ele>216.43000000000001</ele>
        <time>2025-05-19T13:26:02Z</time>
      </trkpt>
      <trkpt lat="45.138023961335421" lon="7.741696005687118">
        <ele>216.91</ele>
        <time>2025-05-19T13:26:03Z</time>
      </trkpt>
      <trkpt lat="45.138013986870646" lon="7.741737999022007">
        <ele>216.91</ele>
        <time>2025-05-19T13:26:04Z</time>
      </trkpt>
      <trkpt lat="45.138006024062634" lon="7.741774041205645">
        <ele>217.40000000000001</ele>
        <time>2025-05-19T13:26:05Z</time>
      </trkpt>
      <trkpt lat="45.138014992699027" lon="7.741860039532185">
        <ele>218.84</ele>
        <time>2025-05-19T13:26:08Z</time>
      </trkpt>
      <trkpt lat="45.138023961335421" lon="7.741879988461733">
        <ele>219.31999999999999</ele>
        <time>2025-05-19T13:26:09Z</time>
      </trkpt>
      <trkpt lat="45.138038964942098" lon="7.741909995675087">
        <ele>219.80000000000001</ele>
        <time>2025-05-19T13:26:10Z</time>
      </trkpt>
      <trkpt lat="45.138057991862297" lon="7.741947965696454">
        <ele>219.80000000000001</ele>
        <time>2025-05-19T13:26:11Z</time>
      </trkpt>
      <trkpt lat="45.138071989640594" lon="7.741975961253047">
        <ele>220.28</ele>
        <time>2025-05-19T13:26:12Z</time>
      </trkpt>
      <trkpt lat="45.138082969933748" lon="7.741998005658388">
        <ele>220.28</ele>
        <time>2025-05-19T13:26:13Z</time>
      </trkpt>
      <trkpt lat="45.138082969933748" lon="7.741998005658388">
        <ele>220.28</ele>
        <time>2025-05-19T13:26:28Z</time>
      </trkpt>
      <trkpt lat="45.138082969933748" lon="7.741998005658388">
        <ele>220.28</ele>
        <time>2025-05-19T13:26:49Z</time>
      </trkpt>
      <trkpt lat="45.138082969933748" lon="7.741998005658388">
        <ele>220.28</ele>
        <time>2025-05-19T13:27:11Z</time>
      </trkpt>
      <trkpt lat="45.138124041259289" lon="7.742077969014645">
        <ele>220.75999999999999</ele>
        <time>2025-05-19T13:27:38Z</time>
      </trkpt>
      <trkpt lat="45.138290002942085" lon="7.742234962061048">
        <ele>221.72</ele>
        <time>2025-05-19T13:40:39Z</time>
      </trkpt>
      <trkpt lat="45.138280028477311" lon="7.742267986759543">
        <ele>222.68000000000001</ele>
        <time>2025-05-19T13:41:10Z</time>
      </trkpt>
      <trkpt lat="45.138327972963452" lon="7.74215298704803">
        <ele>223.16</ele>
        <time>2025-05-19T13:41:12Z</time>
      </trkpt>
      <trkpt lat="45.138359991833568" lon="7.742163967341185">
        <ele>223.16</ele>
        <time>2025-05-19T13:41:13Z</time>
      </trkpt>
      <trkpt lat="45.138398967683315" lon="7.742250971496105">
        <ele>222.68000000000001</ele>
        <time>2025-05-19T13:41:14Z</time>
      </trkpt>
      <trkpt lat="45.138435009866953" lon="7.742329007014632">
        <ele>222.68000000000001</ele>
        <time>2025-05-19T13:41:15Z</time>
      </trkpt>
      <trkpt lat="45.138467028737068" lon="7.742400001734495">
        <ele>222.19999999999999</ele>
        <time>2025-05-19T13:41:16Z</time>
      </trkpt>
      <trkpt lat="45.138613963499665" lon="7.742547020316124">
        <ele>221.72</ele>
        <time>2025-05-19T13:41:18Z</time>
      </trkpt>
      <trkpt lat="45.138788977637887" lon="7.742722034454346">
        <ele>220.28</ele>
        <time>2025-05-19T13:41:20Z</time>
      </trkpt>
      <trkpt lat="45.138872964307666" lon="7.742853965610266">
        <ele>220.28</ele>
        <time>2025-05-19T13:41:21Z</time>
      </trkpt>
      <trkpt lat="45.139480987563729" lon="7.743945959955454">
        <ele>219.80000000000001</ele>
        <time>2025-05-19T13:41:27Z</time>
      </trkpt>
      <trkpt lat="45.14042504131794" lon="7.745834989473224">
        <ele>219.80000000000001</ele>
        <time>2025-05-19T13:41:34Z</time>
      </trkpt>
      <trkpt lat="45.141764972358942" lon="7.748539997264743">
        <ele>218.84</ele>
        <time>2025-05-19T13:41:42Z</time>
      </trkpt>
      <trkpt lat="45.143676968291402" lon="7.752403970807791">
        <ele>219.80000000000001</ele>
        <time>2025-05-19T13:41:53Z</time>
      </trkpt>
      <trkpt lat="45.145552000030875" lon="7.75618202984333">
        <ele>219.80000000000001</ele>
        <time>2025-05-19T13:42:04Z</time>
      </trkpt>
      <trkpt lat="45.147451004013419" lon="7.760043991729617">
        <ele>219.80000000000001</ele>
        <time>2025-05-19T13:42:15Z</time>
      </trkpt>
      <trkpt lat="45.149971023201942" lon="7.765125017613173">
        <ele>219.31999999999999</ele>
        <time>2025-05-19T13:42:29Z</time>
      </trkpt>
      <trkpt lat="45.153077021241188" lon="7.771382024511695">
        <ele>223.16</ele>
        <time>2025-05-19T13:42:46Z</time>
      </trkpt>
      <trkpt lat="45.156019991263747" lon="7.777291014790535">
        <ele>218.36000000000001</ele>
        <time>2025-05-19T13:43:02Z</time>
      </trkpt>
      <trkpt lat="45.158816026523709" lon="7.782771019265056">
        <ele>211.63</ele>
        <time>2025-05-19T13:43:17Z</time>
      </trkpt>
      <trkpt lat="45.16159001737833" lon="7.788284970447421">
        <ele>210.66999999999999</ele>
        <time>2025-05-19T13:43:32Z</time>
      </trkpt>
      <trkpt lat="45.163774006068707" lon="7.792746992781758">
        <ele>211.15000000000001</ele>
        <time>2025-05-19T13:43:44Z</time>
      </trkpt>
      <trkpt lat="45.166494017466903" lon="7.798323975875974">
        <ele>210.66999999999999</ele>
        <time>2025-05-19T13:43:59Z</time>
      </trkpt>
      <trkpt lat="45.169425001367927" lon="7.804230032488704">
        <ele>213.06999999999999</ele>
        <time>2025-05-19T13:44:15Z</time>
      </trkpt>
      <trkpt lat="45.172365959733725" lon="7.810146985575557">
        <ele>214.50999999999999</ele>
        <time>2025-05-19T13:44:31Z</time>
      </trkpt>
      <trkpt lat="45.17529996111989" lon="7.816044995561242">
        <ele>205.86000000000001</ele>
        <time>2025-05-19T13:44:47Z</time>
      </trkpt>
      <trkpt lat="45.17660703510046" lon="7.818674985319376">
        <ele>204.90000000000001</ele>
        <time>2025-05-19T13:44:54Z</time>
      </trkpt>
      <trkpt lat="45.178136983886361" lon="7.821731027215719">
        <ele>205.38</ele>
        <time>2025-05-19T13:45:02Z</time>
      </trkpt>
      <trkpt lat="45.180546026676893" lon="7.826580964028835">
        <ele>203.94</ele>
        <time>2025-05-19T13:45:15Z</time>
      </trkpt>
      <trkpt lat="45.182803021743894" lon="7.831118004396558">
        <ele>201.05000000000001</ele>
        <time>2025-05-19T13:45:27Z</time>
      </trkpt>
      <trkpt lat="45.184649974107742" lon="7.83482096157968">
        <ele>198.16999999999999</ele>
        <time>2025-05-19T13:45:37Z</time>
      </trkpt>
      <trkpt lat="45.18578102812171" lon="7.837075022980571">
        <ele>200.09</ele>
        <time>2025-05-19T13:45:45Z</time>
      </trkpt>
      <trkpt lat="45.186989028006792" lon="7.839401001110673">
        <ele>199.13</ele>
        <time>2025-05-19T13:45:53Z</time>
      </trkpt>
      <trkpt lat="45.188756017014384" lon="7.842862978577614">
        <ele>198.16999999999999</ele>
        <time>2025-05-19T13:46:05Z</time>
      </trkpt>
      <trkpt lat="45.190352015197277" lon="7.846113983541727">
        <ele>199.61000000000001</ele>
        <time>2025-05-19T13:46:16Z</time>
      </trkpt>
      <trkpt lat="45.191375026479363" lon="7.848295038565993">
        <ele>198.16999999999999</ele>
        <time>2025-05-19T13:46:23Z</time>
      </trkpt>
      <trkpt lat="45.193148972466588" lon="7.852188013494015">
        <ele>198.16999999999999</ele>
        <time>2025-05-19T13:46:34Z</time>
      </trkpt>
      <trkpt lat="45.195496995002031" lon="7.857360988855362">
        <ele>200.09</ele>
        <time>2025-05-19T13:46:48Z</time>
      </trkpt>
      <trkpt lat="45.197956999763846" lon="7.863173000514507">
        <ele>197.21000000000001</ele>
        <time>2025-05-19T13:47:03Z</time>
      </trkpt>
      <trkpt lat="45.200772983953357" lon="7.869738964363933">
        <ele>195.28</ele>
        <time>2025-05-19T13:47:20Z</time>
      </trkpt>
      <trkpt lat="45.20350799895823" lon="7.875844007357955">
        <ele>205.38</ele>
        <time>2025-05-19T13:47:36Z</time>
      </trkpt>
      <trkpt lat="45.205848980695009" lon="7.881242036819458">
        <ele>204.90000000000001</ele>
        <time>2025-05-19T13:47:50Z</time>
      </trkpt>
      <trkpt lat="45.208682985976338" lon="7.887770030647516">
        <ele>204.41999999999999</ele>
        <time>2025-05-19T13:48:07Z</time>
      </trkpt>
      <trkpt lat="45.211021034047008" lon="7.893154984340072">
        <ele>203.94</ele>
        <time>2025-05-19T13:48:21Z</time>
      </trkpt>
      <trkpt lat="45.213334020227194" lon="7.898576986044645">
        <ele>204.41999999999999</ele>
        <time>2025-05-19T13:48:35Z</time>
      </trkpt>
      <trkpt lat="45.215419018641114" lon="7.903645019978285">
        <ele>203.94</ele>
        <time>2025-05-19T13:48:48Z</time>
      </trkpt>
      <trkpt lat="45.21734400652349" lon="7.908337963744998">
        <ele>205.86000000000001</ele>
        <time>2025-05-19T13:49:00Z</time>
      </trkpt>
      <trkpt lat="45.220061000436544" lon="7.914991015568376">
        <ele>204.90000000000001</ele>
        <time>2025-05-19T13:49:17Z</time>
      </trkpt>
      <trkpt lat="45.222317995503545" lon="7.920489041134715">
        <ele>209.22</ele>
        <time>2025-05-19T13:49:31Z</time>
      </trkpt>
      <trkpt lat="45.224081967025995" lon="7.924795998260379">
        <ele>210.66999999999999</ele>
        <time>2025-05-19T13:49:42Z</time>
      </trkpt>
      <trkpt lat="45.226318007335067" lon="7.930260999128223">
        <ele>210.66999999999999</ele>
        <time>2025-05-19T13:49:56Z</time>
      </trkpt>
      <trkpt lat="45.228240983560681" lon="7.934951009228826">
        <ele>209.22</ele>
        <time>2025-05-19T13:50:08Z</time>
      </trkpt>
      <trkpt lat="45.230327993631363" lon="7.940016025677323">
        <ele>208.74000000000001</ele>
        <time>2025-05-19T13:50:21Z</time>
      </trkpt>
      <trkpt lat="45.232723038643599" lon="7.945889979600906">
        <ele>208.25999999999999</ele>
        <time>2025-05-19T13:50:36Z</time>
      </trkpt>
      <trkpt lat="45.234863022342324" lon="7.951313992962241">
        <ele>208.74000000000001</ele>
        <time>2025-05-19T13:50:50Z</time>
      </trkpt>
      <trkpt lat="45.235879998654127" lon="7.95404196716845">
        <ele>208.25999999999999</ele>
        <time>2025-05-19T13:50:59Z</time>
      </trkpt>
      <trkpt lat="45.237069977447391" lon="7.957528000697494">
        <ele>207.30000000000001</ele>
        <time>2025-05-19T13:51:11Z</time>
      </trkpt>
      <trkpt lat="45.238033980131149" lon="7.960653025656939">
        <ele>209.22</ele>
        <time>2025-05-19T13:51:22Z</time>
      </trkpt>
      <trkpt lat="45.238738982006907" lon="7.962884036824107">
        <ele>210.19</ele>
        <time>2025-05-19T13:51:31Z</time>
      </trkpt>
      <trkpt lat="45.239018015563488" lon="7.963788025081158">
        <ele>210.19</ele>
        <time>2025-05-19T13:51:37Z</time>
      </trkpt>
      <trkpt lat="45.239095967262983" lon="7.964054988697171">
        <ele>210.19</ele>
        <time>2025-05-19T13:51:42Z</time>
      </trkpt>
      <trkpt lat="45.239095967262983" lon="7.964054988697171">
        <ele>210.19</ele>
        <time>2025-05-19T13:51:57Z</time>
      </trkpt>
      <trkpt lat="45.239095967262983" lon="7.964054988697171">
        <ele>210.19</ele>
        <time>2025-05-19T13:52:09Z</time>
      </trkpt>
      <trkpt lat="45.239123040810227" lon="7.964142998680472">
        <ele>210.19</ele>
        <time>2025-05-19T13:52:10Z</time>
      </trkpt>
      <trkpt lat="45.239147013053298" lon="7.964219022542238">
        <ele>210.19</ele>
        <time>2025-05-19T13:52:11Z</time>
      </trkpt>
      <trkpt lat="45.239180959761143" lon="7.964325975626707">
        <ele>210.66999999999999</ele>
        <time>2025-05-19T13:52:12Z</time>
      </trkpt>
      <trkpt lat="45.239219013601542" lon="7.964446004480124">
        <ele>210.66999999999999</ele>
        <time>2025-05-19T13:52:13Z</time>
      </trkpt>
      <trkpt lat="45.239262012764812" lon="7.964580031111836">
        <ele>210.66999999999999</ele>
        <time>2025-05-19T13:52:14Z</time>
      </trkpt>
      <trkpt lat="45.239599971100688" lon="7.96559801325202">
        <ele>210.66999999999999</ele>
        <time>2025-05-19T13:52:19Z</time>
      </trkpt>
      <trkpt lat="45.240346966311336" lon="7.967660967260599">
        <ele>207.78</ele>
        <time>2025-05-19T13:52:27Z</time>
      </trkpt>
      <trkpt lat="45.241190018132329" lon="7.970041008666158">
        <ele>204.41999999999999</ele>
        <time>2025-05-19T13:52:34Z</time>
      </trkpt>
      <trkpt lat="45.242506982758641" lon="7.974016964435577">
        <ele>198.16999999999999</ele>
        <time>2025-05-19T13:52:44Z</time>
      </trkpt>
      <trkpt lat="45.244764983654022" lon="7.980517968535423">
        <ele>194.80000000000001</ele>
        <time>2025-05-19T13:53:00Z</time>
      </trkpt>
      <trkpt lat="45.247220965102315" lon="7.986363004893065">
        <ele>194.31999999999999</ele>
        <time>2025-05-19T13:53:15Z</time>
      </trkpt>
      <trkpt lat="45.250017000362277" lon="7.991864969953895">
        <ele>192.40000000000001</ele>
        <time>2025-05-19T13:53:30Z</time>
      </trkpt>
      <trkpt lat="45.252661993727088" lon="7.996370997279882">
        <ele>203.46000000000001</ele>
        <time>2025-05-19T13:53:43Z</time>
      </trkpt>
      <trkpt lat="45.255042035132647" lon="8.000022992491722">
        <ele>211.15000000000001</ele>
        <time>2025-05-19T13:53:54Z</time>
      </trkpt>
      <trkpt lat="45.258090030401945" lon="8.004024010151625">
        <ele>211.63</ele>
        <time>2025-05-19T13:54:07Z</time>
      </trkpt>
      <trkpt lat="45.260820016264915" lon="8.007155992090702">
        <ele>212.11000000000001</ele>
        <time>2025-05-19T13:54:18Z</time>
      </trkpt>
      <trkpt lat="45.264114020392299" lon="8.010747972875834">
        <ele>213.55000000000001</ele>
        <time>2025-05-19T13:54:31Z</time>
      </trkpt>
      <trkpt lat="45.265876986086369" lon="8.012666003778577">
        <ele>213.06999999999999</ele>
        <time>2025-05-19T13:54:38Z</time>
      </trkpt>
      <trkpt lat="45.269683040678501" lon="8.01679702475667">
        <ele>214.50999999999999</ele>
        <time>2025-05-19T13:54:53Z</time>
      </trkpt>
      <trkpt lat="45.273989997804165" lon="8.021474964916706">
        <ele>214.99000000000001</ele>
        <time>2025-05-19T13:55:10Z</time>
      </trkpt>
      <trkpt lat="45.27677396312356" lon="8.024497982114554">
        <ele>215.47</ele>
        <time>2025-05-19T13:55:21Z</time>
      </trkpt>
      <trkpt lat="45.279046967625618" lon="8.026967039331794">
        <ele>215.94999999999999</ele>
        <time>2025-05-19T13:55:30Z</time>
      </trkpt>
      <trkpt lat="45.281581990420818" lon="8.029719991609454">
        <ele>215.94999999999999</ele>
        <time>2025-05-19T13:55:40Z</time>
      </trkpt>
      <trkpt lat="45.28538997285068" lon="8.033841960132122">
        <ele>214.99000000000001</ele>
        <time>2025-05-19T13:55:55Z</time>
      </trkpt>
      <trkpt lat="45.289195021614432" lon="8.037978010252118">
        <ele>214.50999999999999</ele>
        <time>2025-05-19T13:56:10Z</time>
      </trkpt>
      <trkpt lat="45.29273796826601" lon="8.041841983795166">
        <ele>212.11000000000001</ele>
        <time>2025-05-19T13:56:24Z</time>
      </trkpt>
      <trkpt lat="45.296288961544633" lon="8.04569598287344">
        <ele>212.11000000000001</ele>
        <time>2025-05-19T13:56:38Z</time>
      </trkpt>
      <trkpt lat="45.30059801414609" lon="8.05037803016603">
        <ele>212.11000000000001</ele>
        <time>2025-05-19T13:56:55Z</time>
      </trkpt>
      <trkpt lat="45.303896963596344" lon="8.053951989859343">
        <ele>213.06999999999999</ele>
        <time>2025-05-19T13:57:08Z</time>
      </trkpt>
      <trkpt lat="45.306676989421248" lon="8.056963020935655">
        <ele>213.06999999999999</ele>
        <time>2025-05-19T13:57:19Z</time>
      </trkpt>
      <trkpt lat="45.309162978082895" lon="8.059656964614987">
        <ele>211.15000000000001</ele>
        <time>2025-05-19T13:57:29Z</time>
      </trkpt>
      <trkpt lat="45.314131015911698" lon="8.065048959106207">
        <ele>209.22</ele>
        <time>2025-05-19T13:57:49Z</time>
      </trkpt>
      <trkpt lat="45.318361027166247" lon="8.069622041657567">
        <ele>207.78</ele>
        <time>2025-05-19T13:58:06Z</time>
      </trkpt>
      <trkpt lat="45.322080999612808" lon="8.073658011853695">
        <ele>206.81999999999999</ele>
        <time>2025-05-19T13:58:21Z</time>
      </trkpt>
      <trkpt lat="45.324820037931204" lon="8.076646998524666">
        <ele>208.25999999999999</ele>
        <time>2025-05-19T13:58:32Z</time>
      </trkpt>
      <trkpt lat="45.328301964327693" lon="8.08039203286171">
        <ele>209.69999999999999</ele>
        <time>2025-05-19T13:58:46Z</time>
      </trkpt>
      <trkpt lat="45.332285966724157" lon="8.084722962230444">
        <ele>210.66999999999999</ele>
        <time>2025-05-19T13:59:02Z</time>
      </trkpt>
      <trkpt lat="45.335819022729993" lon="8.088542008772492">
        <ele>209.69999999999999</ele>
        <time>2025-05-19T13:59:16Z</time>
      </trkpt>
      <trkpt lat="45.339350989088416" lon="8.092376980930567">
        <ele>210.19</ele>
        <time>2025-05-19T13:59:30Z</time>
      </trkpt>
      <trkpt lat="45.341396005824208" lon="8.0945960059762">
        <ele>209.22</ele>
        <time>2025-05-19T13:59:39Z</time>
      </trkpt>
      <trkpt lat="45.343844024464488" lon="8.097253991290927">
        <ele>209.69999999999999</ele>
        <time>2025-05-19T13:59:51Z</time>
      </trkpt>
      <trkpt lat="45.346328001469374" lon="8.099940977990627">
        <ele>208.25999999999999</ele>
        <time>2025-05-19T14:00:03Z</time>
      </trkpt>
      <trkpt lat="45.34883301705122" lon="8.102644979953766">
        <ele>209.22</ele>
        <time>2025-05-19T14:00:15Z</time>
      </trkpt>
      <trkpt lat="45.351726030930877" lon="8.105786014348269">
        <ele>210.66999999999999</ele>
        <time>2025-05-19T14:00:29Z</time>
      </trkpt>
      <trkpt lat="45.355449020862579" lon="8.109843023121357">
        <ele>207.30000000000001</ele>
        <time>2025-05-19T14:00:45Z</time>
      </trkpt>
      <trkpt lat="45.358744030818343" lon="8.113418994471431">
        <ele>202.97999999999999</ele>
        <time>2025-05-19T14:00:59Z</time>
      </trkpt>
      <trkpt lat="45.361093981191516" lon="8.115955023095012">
        <ele>201.05000000000001</ele>
        <time>2025-05-19T14:01:10Z</time>
      </trkpt>
      <trkpt lat="45.362086985260248" lon="8.117018016055226">
        <ele>201.53</ele>
        <time>2025-05-19T14:01:16Z</time>
      </trkpt>
      <trkpt lat="45.362559976056218" lon="8.117536017671228">
        <ele>202.97999999999999</ele>
        <time>2025-05-19T14:01:21Z</time>
      </trkpt>
      <trkpt lat="45.362988039851189" lon="8.118002973496914">
        <ele>204.90000000000001</ele>
        <time>2025-05-19T14:01:32Z</time>
      </trkpt>
      <trkpt lat="45.363068003207445" lon="8.118089977651835">
        <ele>204.90000000000001</ele>
        <time>2025-05-19T14:01:37Z</time>
      </trkpt>
      <trkpt lat="45.363364974036813" lon="8.118414022028446">
        <ele>206.81999999999999</ele>
        <time>2025-05-19T14:01:47Z</time>
      </trkpt>
      <trkpt lat="45.364296035841107" lon="8.119429992511869">
        <ele>207.78</ele>
        <time>2025-05-19T14:01:57Z</time>
      </trkpt>
      <trkpt lat="45.365188959985971" lon="8.120401035994291">
        <ele>206.81999999999999</ele>
        <time>2025-05-19T14:02:05Z</time>
      </trkpt>
      <trkpt lat="45.365275964140892" lon="8.120496002957225">
        <ele>206.81999999999999</ele>
        <time>2025-05-19T14:02:06Z</time>
      </trkpt>
      <trkpt lat="45.365680977702141" lon="8.120938986539841">
        <ele>206.81999999999999</ele>
        <time>2025-05-19T14:02:14Z</time>
      </trkpt>
      <trkpt lat="45.366210965439677" lon="8.121518008410931">
        <ele>206.81999999999999</ele>
        <time>2025-05-19T14:02:24Z</time>
      </trkpt>
      <trkpt lat="45.366986040025949" lon="8.122366005554795">
        <ele>206.81999999999999</ele>
        <time>2025-05-19T14:02:30Z</time>
      </trkpt>
      <trkpt lat="45.368462009355426" lon="8.123940965160728">
        <ele>206.34</ele>
        <time>2025-05-19T14:02:38Z</time>
      </trkpt>
      <trkpt lat="45.370281971991062" lon="8.125914987176657">
        <ele>206.81999999999999</ele>
        <time>2025-05-19T14:02:46Z</time>
      </trkpt>
      <trkpt lat="45.373081024736166" lon="8.12895099632442">
        <ele>208.25999999999999</ele>
        <time>2025-05-19T14:02:57Z</time>
      </trkpt>
      <trkpt lat="45.376372011378407" lon="8.132531996816397">
        <ele>213.06999999999999</ele>
        <time>2025-05-19T14:03:10Z</time>
      </trkpt>
      <trkpt lat="45.380662959069014" lon="8.137190993875265">
        <ele>214.99000000000001</ele>
        <time>2025-05-19T14:03:27Z</time>
      </trkpt>
      <trkpt lat="45.383935002610087" lon="8.140735030174255">
        <ele>207.78</ele>
        <time>2025-05-19T14:03:40Z</time>
      </trkpt>
      <trkpt lat="45.387462023645639" lon="8.144576037302613">
        <ele>205.86000000000001</ele>
        <time>2025-05-19T14:03:54Z</time>
      </trkpt>
      <trkpt lat="45.39049400947988" lon="8.147874986752868">
        <ele>203.94</ele>
        <time>2025-05-19T14:04:06Z</time>
      </trkpt>
      <trkpt lat="45.395034989342093" lon="8.152814023196697">
        <ele>199.13</ele>
        <time>2025-05-19T14:04:24Z</time>
      </trkpt>
      <trkpt lat="45.398564022034407" lon="8.156632985919714">
        <ele>206.81999999999999</ele>
        <time>2025-05-19T14:04:38Z</time>
      </trkpt>
      <trkpt lat="45.402363035827875" lon="8.160758977755904">
        <ele>210.19</ele>
        <time>2025-05-19T14:04:53Z</time>
      </trkpt>
      <trkpt lat="45.40564295835793" lon="8.164322040975094">
        <ele>207.30000000000001</ele>
        <time>2025-05-19T14:05:06Z</time>
      </trkpt>
      <trkpt lat="45.408661030232906" lon="8.167626019567251">
        <ele>206.81999999999999</ele>
        <time>2025-05-19T14:05:18Z</time>
      </trkpt>
      <trkpt lat="45.410663969814777" lon="8.16986097022891">
        <ele>203.94</ele>
        <time>2025-05-19T14:05:26Z</time>
      </trkpt>
      <trkpt lat="45.412820968776941" lon="8.172471011057496">
        <ele>203.94</ele>
        <time>2025-05-19T14:05:35Z</time>
      </trkpt>
      <trkpt lat="45.415422040969133" lon="8.175918990746141">
        <ele>205.86000000000001</ele>
        <time>2025-05-19T14:05:46Z</time>
      </trkpt>
      <trkpt lat="45.417898977175355" lon="8.179442994296551">
        <ele>200.56999999999999</ele>
        <time>2025-05-19T14:05:57Z</time>
      </trkpt>
      <trkpt lat="45.420751003548503" lon="8.18367401137948">
        <ele>190.47999999999999</ele>
        <time>2025-05-19T14:06:10Z</time>
      </trkpt>
      <trkpt lat="45.423642005771399" lon="8.188478015363216">
        <ele>192.40000000000001</ele>
        <time>2025-05-19T14:06:24Z</time>
      </trkpt>
      <trkpt lat="45.425907969474792" lon="8.192840041592717">
        <ele>193.36000000000001</ele>
        <time>2025-05-19T14:06:36Z</time>
      </trkpt>
      <trkpt lat="45.427459962666035" lon="8.196248039603233">
        <ele>194.31999999999999</ele>
        <time>2025-05-19T14:06:45Z</time>
      </trkpt>
      <trkpt lat="45.428906008601189" lon="8.199762990698218">
        <ele>194.80000000000001</ele>
        <time>2025-05-19T14:06:54Z</time>
      </trkpt>
      <trkpt lat="45.429646968841553" lon="8.20172100327909">
        <ele>195.77000000000001</ele>
        <time>2025-05-19T14:07:00Z</time>
      </trkpt>
      <trkpt lat="45.431394008919597" lon="8.206601031124592">
        <ele>194.31999999999999</ele>
        <time>2025-05-19T14:07:15Z</time>
      </trkpt>
      <trkpt lat="45.432584993541241" lon="8.21007901802659">
        <ele>193.84</ele>
        <time>2025-05-19T14:07:26Z</time>
      </trkpt>
      <trkpt lat="45.433867005631328" lon="8.214205009862781">
        <ele>192.40000000000001</ele>
        <time>2025-05-19T14:07:40Z</time>
      </trkpt>
      <trkpt lat="45.434790020808578" lon="8.217506976798177">
        <ele>191.44</ele>
        <time>2025-05-19T14:07:50Z</time>
      </trkpt>
      <trkpt lat="45.436025010421872" lon="8.222363032400608">
        <ele>187.59</ele>
        <time>2025-05-19T14:08:03Z</time>
      </trkpt>
      <trkpt lat="45.437148017808795" lon="8.227525027468801">
        <ele>186.15000000000001</ele>
        <time>2025-05-19T14:08:15Z</time>
      </trkpt>
      <trkpt lat="45.438378984108567" lon="8.234556019306183">
        <ele>185.19</ele>
        <time>2025-05-19T14:08:31Z</time>
      </trkpt>
      <trkpt lat="45.43932898901403" lon="8.240251019597054">
        <ele>188.08000000000001</ele>
        <time>2025-05-19T14:08:44Z</time>
      </trkpt>
      <trkpt lat="45.440344037488103" lon="8.246441977098584">
        <ele>188.56</ele>
        <time>2025-05-19T14:08:58Z</time>
      </trkpt>
      <trkpt lat="45.44106999412179" lon="8.250825963914394">
        <ele>178.94</ele>
        <time>2025-05-19T14:09:08Z</time>
      </trkpt>
      <trkpt lat="45.442314958199859" lon="8.258346039801836">
        <ele>177.5</ele>
        <time>2025-05-19T14:09:25Z</time>
      </trkpt>
      <trkpt lat="45.443280972540379" lon="8.263638960197568">
        <ele>174.62</ele>
        <time>2025-05-19T14:09:37Z</time>
      </trkpt>
      <trkpt lat="45.444759959354997" lon="8.272025976330042">
        <ele>169.33000000000001</ele>
        <time>2025-05-19T14:09:56Z</time>
      </trkpt>
      <trkpt lat="45.445933006703854" lon="8.280048966407776">
        <ele>162.59999999999999</ele>
        <time>2025-05-19T14:10:14Z</time>
      </trkpt>
      <trkpt lat="45.446951994672418" lon="8.286240007728338">
        <ele>162.12</ele>
        <time>2025-05-19T14:10:28Z</time>
      </trkpt>
      <trkpt lat="45.447871992364526" lon="8.292014971375465">
        <ele>162.12</ele>
        <time>2025-05-19T14:10:41Z</time>
      </trkpt>
      <trkpt lat="45.448994999751449" lon="8.29868596047163">
        <ele>162.59999999999999</ele>
        <time>2025-05-19T14:10:56Z</time>
      </trkpt>
      <trkpt lat="45.449520964175463" lon="8.301791958510876">
        <ele>159.24000000000001</ele>
        <time>2025-05-19T14:11:03Z</time>
      </trkpt>
      <trkpt lat="45.450241975486279" lon="8.306190026924014">
        <ele>161.63999999999999</ele>
        <time>2025-05-19T14:11:13Z</time>
      </trkpt>
      <trkpt lat="45.451269010081887" lon="8.312388025224209">
        <ele>168.37</ele>
        <time>2025-05-19T14:11:27Z</time>
      </trkpt>
      <trkpt lat="45.452368967235088" lon="8.319057002663612">
        <ele>172.21000000000001</ele>
        <time>2025-05-19T14:11:42Z</time>
      </trkpt>
      <trkpt lat="45.453465990722179" lon="8.325706031173468">
        <ele>174.62</ele>
        <time>2025-05-19T14:11:57Z</time>
      </trkpt>
      <trkpt lat="45.454720007255673" lon="8.333244966343045">
        <ele>168.37</ele>
        <time>2025-05-19T14:12:14Z</time>
      </trkpt>
      <trkpt lat="45.455891964957118" lon="8.340333960950375">
        <ele>167.41</ele>
        <time>2025-05-19T14:12:30Z</time>
      </trkpt>
      <trkpt lat="45.457125026732683" lon="8.347889995202422">
        <ele>174.62</ele>
        <time>2025-05-19T14:12:47Z</time>
      </trkpt>
      <trkpt lat="45.458216015249491" lon="8.354525025933981">
        <ele>172.21000000000001</ele>
        <time>2025-05-19T14:13:02Z</time>
      </trkpt>
      <trkpt lat="45.459034005180001" lon="8.359404969960451">
        <ele>170.77000000000001</ele>
        <time>2025-05-19T14:13:13Z</time>
      </trkpt>
      <trkpt lat="45.460065985098481" lon="8.366080988198519">
        <ele>167.88999999999999</ele>
        <time>2025-05-19T14:13:28Z</time>
      </trkpt>
      <trkpt lat="45.460784984752536" lon="8.372379988431931">
        <ele>169.33000000000001</ele>
        <time>2025-05-19T14:13:42Z</time>
      </trkpt>
      <trkpt lat="45.461257975548506" lon="8.3782650064677">
        <ele>169.33000000000001</ele>
        <time>2025-05-19T14:13:55Z</time>
      </trkpt>
      <trkpt lat="45.461584031581879" lon="8.384185982868075">
        <ele>168.37</ele>
        <time>2025-05-19T14:14:08Z</time>
      </trkpt>
      <trkpt lat="45.462031960487366" lon="8.391896998509765">
        <ele>166.93000000000001</ele>
        <time>2025-05-19T14:14:25Z</time>
      </trkpt>
      <trkpt lat="45.462476033717394" lon="8.397771958261728">
        <ele>170.28999999999999</ele>
        <time>2025-05-19T14:14:38Z</time>
      </trkpt>
      <trkpt lat="45.462814997881651" lon="8.404590971767902">
        <ele>170.28999999999999</ele>
        <time>2025-05-19T14:14:53Z</time>
      </trkpt>
      <trkpt lat="45.463040973991156" lon="8.410959960892797">
        <ele>168.84999999999999</ele>
        <time>2025-05-19T14:15:07Z</time>
      </trkpt>
      <trkpt lat="45.463397037237883" lon="8.417789032682777">
        <ele>167.88999999999999</ele>
        <time>2025-05-19T14:15:22Z</time>
      </trkpt>
      <trkpt lat="45.463638016954064" lon="8.422335041686893">
        <ele>167.88999999999999</ele>
        <time>2025-05-19T14:15:32Z</time>
      </trkpt>
      <trkpt lat="45.463830968365073" lon="8.425955018028617">
        <ele>165</ele>
        <time>2025-05-19T14:15:40Z</time>
      </trkpt>
      <trkpt lat="45.46414696611464" lon="8.431853028014302">
        <ele>164.52000000000001</ele>
        <time>2025-05-19T14:15:53Z</time>
      </trkpt>
      <trkpt lat="45.464308988302946" lon="8.435178967192769">
        <ele>165</ele>
        <time>2025-05-19T14:16:01Z</time>
      </trkpt>
      <trkpt lat="45.464362967759371" lon="8.438868010416627">
        <ele>164.52000000000001</ele>
        <time>2025-05-19T14:16:11Z</time>
      </trkpt>
      <trkpt lat="45.464511997997761" lon="8.442066041752696">
        <ele>168.37</ele>
        <time>2025-05-19T14:16:21Z</time>
      </trkpt>
      <trkpt lat="45.464367996901274" lon="8.444022964686155">
        <ele>172.21000000000001</ele>
        <time>2025-05-19T14:16:28Z</time>
      </trkpt>
      <trkpt lat="45.464161969721317" lon="8.445334983989596">
        <ele>172.21000000000001</ele>
        <time>2025-05-19T14:16:33Z</time>
      </trkpt>
      <trkpt lat="45.464160963892937" lon="8.445593984797597">
        <ele>171.72999999999999</ele>
        <time>2025-05-19T14:16:34Z</time>
      </trkpt>
      <trkpt lat="45.464183008298278" lon="8.445843011140823">
        <ele>171.25</ele>
        <time>2025-05-19T14:16:35Z</time>
      </trkpt>
      <trkpt lat="45.46423296444118" lon="8.446075022220612">
        <ele>170.77000000000001</ele>
        <time>2025-05-19T14:16:36Z</time>
      </trkpt>
      <trkpt lat="45.46431502327323" lon="8.446284988895059">
        <ele>170.28999999999999</ele>
        <time>2025-05-19T14:16:37Z</time>
      </trkpt>
      <trkpt lat="45.464387023821473" lon="8.446468971669674">
        <ele>169.81</ele>
        <time>2025-05-19T14:16:38Z</time>
      </trkpt>
      <trkpt lat="45.464537981897593" lon="8.446637028828263">
        <ele>169.33000000000001</ele>
        <time>2025-05-19T14:16:39Z</time>
      </trkpt>
      <trkpt lat="45.464675026014447" lon="8.446788992732763">
        <ele>169.81</ele>
        <time>2025-05-19T14:16:40Z</time>
      </trkpt>
      <trkpt lat="45.464817015454173" lon="8.446946991607547">
        <ele>169.81</ele>
        <time>2025-05-19T14:16:41Z</time>
      </trkpt>
      <trkpt lat="45.466339001432061" lon="8.448507031425834">
        <ele>168.84999999999999</ele>
        <time>2025-05-19T14:16:50Z</time>
      </trkpt>
      <trkpt lat="45.468002976849675" lon="8.450042009353638">
        <ele>163.56</ele>
        <time>2025-05-19T14:16:59Z</time>
      </trkpt>
      <trkpt lat="45.468180002644658" lon="8.450148040428758">
        <ele>163.08000000000001</ele>
        <time>2025-05-19T14:17:00Z</time>
      </trkpt>
      <trkpt lat="45.46837898902595" lon="8.450266979634762">
        <ele>163.08000000000001</ele>
        <time>2025-05-19T14:17:01Z</time>
      </trkpt>
      <trkpt lat="45.468552997335792" lon="8.450266979634762">
        <ele>163.08000000000001</ele>
        <time>2025-05-19T14:17:02Z</time>
      </trkpt>
      <trkpt lat="45.468747960403562" lon="8.450266979634762">
        <ele>163.08000000000001</ele>
        <time>2025-05-19T14:17:03Z</time>
      </trkpt>
      <trkpt lat="45.468948958441615" lon="8.450243007391691">
        <ele>163.56</ele>
        <time>2025-05-19T14:17:04Z</time>
      </trkpt>
      <trkpt lat="45.469144005328417" lon="8.450157009065151">
        <ele>164.03999999999999</ele>
        <time>2025-05-19T14:17:05Z</time>
      </trkpt>
      <trkpt lat="45.469339974224567" lon="8.450071010738611">
        <ele>164.52000000000001</ele>
        <time>2025-05-19T14:17:06Z</time>
      </trkpt>
      <trkpt lat="45.46953602693975" lon="8.449958022683859">
        <ele>165.47999999999999</ele>
        <time>2025-05-19T14:17:07Z</time>
      </trkpt>
      <trkpt lat="45.469725960865617" lon="8.449826007708907">
        <ele>165.47999999999999</ele>
        <time>2025-05-19T14:17:08Z</time>
      </trkpt>
      <trkpt lat="45.471816994249821" lon="8.448450034484267">
        <ele>169.81</ele>
        <time>2025-05-19T14:17:18Z</time>
      </trkpt>
      <trkpt lat="45.474086981266737" lon="8.447455018758774">
        <ele>171.72999999999999</ele>
        <time>2025-05-19T14:17:27Z</time>
      </trkpt>
      <trkpt lat="45.476869018748403" lon="8.44648296944797">
        <ele>172.69</ele>
        <time>2025-05-19T14:17:36Z</time>
      </trkpt>
      <trkpt lat="45.483056958764791" lon="8.444264028221369">
        <ele>171.72999999999999</ele>
        <time>2025-05-19T14:17:56Z</time>
      </trkpt>
      <trkpt lat="45.488336971029639" lon="8.442390002310276">
        <ele>175.58000000000001</ele>
        <time>2025-05-19T14:18:13Z</time>
      </trkpt>
      <trkpt lat="45.492329020053148" lon="8.440970024093986">
        <ele>177.5</ele>
        <time>2025-05-19T14:18:26Z</time>
      </trkpt>
      <trkpt lat="45.496595995500684" lon="8.43937000259757">
        <ele>180.38</ele>
        <time>2025-05-19T14:18:40Z</time>
      </trkpt>
      <trkpt lat="45.501094982028008" lon="8.437311993911862">
        <ele>183.75</ele>
        <time>2025-05-19T14:18:55Z</time>
      </trkpt>
      <trkpt lat="45.506159998476505" lon="8.434823993593454">
        <ele>187.11000000000001</ele>
        <time>2025-05-19T14:19:12Z</time>
      </trkpt>
      <trkpt lat="45.508862994611263" lon="8.433640971779823">
        <ele>189.52000000000001</ele>
        <time>2025-05-19T14:19:21Z</time>
      </trkpt>
      <trkpt lat="45.512578021734953" lon="8.432649979367852">
        <ele>191.44</ele>
        <time>2025-05-19T14:19:33Z</time>
      </trkpt>
      <trkpt lat="45.516333030536771" lon="8.43236499466002">
        <ele>192.40000000000001</ele>
        <time>2025-05-19T14:19:45Z</time>
      </trkpt>
      <trkpt lat="45.519788973033428" lon="8.432206995785236">
        <ele>195.77000000000001</ele>
        <time>2025-05-19T14:19:56Z</time>
      </trkpt>
      <trkpt lat="45.524514019489288" lon="8.43202100135386">
        <ele>198.65000000000001</ele>
        <time>2025-05-19T14:20:11Z</time>
      </trkpt>
      <trkpt lat="45.52892298437655" lon="8.431838024407625">
        <ele>205.38</ele>
        <time>2025-05-19T14:20:25Z</time>
      </trkpt>
      <trkpt lat="45.53300597704947" lon="8.431351035833359">
        <ele>202.49000000000001</ele>
        <time>2025-05-19T14:20:38Z</time>
      </trkpt>
      <trkpt lat="45.536104012280703" lon="8.430416034534574">
        <ele>207.78</ele>
        <time>2025-05-19T14:20:48Z</time>
      </trkpt>
      <trkpt lat="45.539694987237453" lon="8.428679974749684">
        <ele>213.55000000000001</ele>
        <time>2025-05-19T14:21:00Z</time>
      </trkpt>
      <trkpt lat="45.545319998636842" lon="8.425612030550838">
        <ele>214.03</ele>
        <time>2025-05-19T14:21:19Z</time>
      </trkpt>
      <trkpt lat="45.548573015257716" lon="8.423833977431059">
        <ele>213.55000000000001</ele>
        <time>2025-05-19T14:21:30Z</time>
      </trkpt>
      <trkpt lat="45.551815973594785" lon="8.422045027837157">
        <ele>214.50999999999999</ele>
        <time>2025-05-19T14:21:41Z</time>
      </trkpt>
      <trkpt lat="45.555676007643342" lon="8.41994502581656">
        <ele>216.43000000000001</ele>
        <time>2025-05-19T14:21:54Z</time>
      </trkpt>
      <trkpt lat="45.559235969558358" lon="8.418007967993617">
        <ele>220.28</ele>
        <time>2025-05-19T14:22:06Z</time>
      </trkpt>
      <trkpt lat="45.564876990392804" lon="8.414930971339345">
        <ele>223.63999999999999</ele>
        <time>2025-05-19T14:22:25Z</time>
      </trkpt>
      <trkpt lat="45.569026032462716" lon="8.412669030949473">
        <ele>227.49000000000001</ele>
        <time>2025-05-19T14:22:39Z</time>
      </trkpt>
      <trkpt lat="45.570638962090015" lon="8.411788009107113">
        <ele>227.49000000000001</ele>
        <time>2025-05-19T14:22:45Z</time>
      </trkpt>
      <trkpt lat="45.573484031483531" lon="8.410220006480813">
        <ele>228.44999999999999</ele>
        <time>2025-05-19T14:22:57Z</time>
      </trkpt>
      <trkpt lat="45.576731013134122" lon="8.408442037180066">
        <ele>229.41</ele>
        <time>2025-05-19T14:23:12Z</time>
      </trkpt>
      <trkpt lat="45.579497963190079" lon="8.407047037035227">
        <ele>230.84999999999999</ele>
        <time>2025-05-19T14:23:25Z</time>
      </trkpt>
      <trkpt lat="45.582670010626316" lon="8.405761001631618">
        <ele>233.25999999999999</ele>
        <time>2025-05-19T14:23:39Z</time>
      </trkpt>
      <trkpt lat="45.585280973464251" lon="8.404980981722474">
        <ele>236.13999999999999</ele>
        <time>2025-05-19T14:23:50Z</time>
      </trkpt>
      <trkpt lat="45.58753302320838" lon="8.404324008151889">
        <ele>237.09999999999999</ele>
        <time>2025-05-19T14:24:01Z</time>
      </trkpt>
      <trkpt lat="45.590000990778208" lon="8.40361699461937">
        <ele>238.06</ele>
        <time>2025-05-19T14:24:14Z</time>
      </trkpt>
      <trkpt lat="45.592293022200465" lon="8.402990028262138">
        <ele>239.99000000000001</ele>
        <time>2025-05-19T14:24:26Z</time>
      </trkpt>
      <trkpt lat="45.594950001686811" lon="8.40230799280107">
        <ele>241.43000000000001</ele>
        <time>2025-05-19T14:24:39Z</time>
      </trkpt>
      <trkpt lat="45.597535986453295" lon="8.402095008641481">
        <ele>241.91</ele>
        <time>2025-05-19T14:24:50Z</time>
      </trkpt>
      <trkpt lat="45.599806979298592" lon="8.402359960600734">
        <ele>244.78999999999999</ele>
        <time>2025-05-19T14:24:58Z</time>
      </trkpt>
      <trkpt lat="45.602899985387921" lon="8.40342303737998">
        <ele>252.47999999999999</ele>
        <time>2025-05-19T14:25:08Z</time>
      </trkpt>
      <trkpt lat="45.605555959045887" lon="8.404986010864377">
        <ele>256.81</ele>
        <time>2025-05-19T14:25:17Z</time>
      </trkpt>
      <trkpt lat="45.608230037614703" lon="8.407454984262586">
        <ele>258.25</ele>
        <time>2025-05-19T14:25:27Z</time>
      </trkpt>
      <trkpt lat="45.610343031585217" lon="8.410183964297175">
        <ele>257.76999999999998</ele>
        <time>2025-05-19T14:25:36Z</time>
      </trkpt>
      <trkpt lat="45.612130975350738" lon="8.413395993411541">
        <ele>260.17000000000002</ele>
        <time>2025-05-19T14:25:45Z</time>
      </trkpt>
      <trkpt lat="45.613162033259869" lon="8.415904026478529">
        <ele>261.62</ele>
        <time>2025-05-19T14:25:52Z</time>
      </trkpt>
      <trkpt lat="45.616721995174885" lon="8.426921032369137">
        <ele>277.48000000000002</ele>
        <time>2025-05-19T14:26:25Z</time>
      </trkpt>
      <trkpt lat="45.618191007524729" lon="8.431568965315819">
        <ele>291.89999999999998</ele>
        <time>2025-05-19T14:26:38Z</time>
      </trkpt>
      <trkpt lat="45.619775019586086" lon="8.43620901927352">
        <ele>299.11000000000001</ele>
        <time>2025-05-19T14:26:50Z</time>
      </trkpt>
      <trkpt lat="45.621365988627076" lon="8.439609976485372">
        <ele>301.99000000000001</ele>
        <time>2025-05-19T14:26:59Z</time>
      </trkpt>
      <trkpt lat="45.62313599511981" lon="8.442361000925303">
        <ele>303.91000000000003</ele>
        <time>2025-05-19T14:27:07Z</time>
      </trkpt>
      <trkpt lat="45.625210013240576" lon="8.444740958511829">
        <ele>305.36000000000001</ele>
        <time>2025-05-19T14:27:16Z</time>
      </trkpt>
      <trkpt lat="45.627426020801067" lon="8.446789998561144">
        <ele>308.24000000000001</ele>
        <time>2025-05-19T14:27:26Z</time>
      </trkpt>
      <trkpt lat="45.629502972587943" lon="8.448677016422153">
        <ele>311.12</ele>
        <time>2025-05-19T14:27:34Z</time>
      </trkpt>
      <trkpt lat="45.632716007530689" lon="8.451598025858402">
        <ele>313.52999999999997</ele>
        <time>2025-05-19T14:27:46Z</time>
      </trkpt>
      <trkpt lat="45.636195000261068" lon="8.454759009182453">
        <ele>315.93000000000001</ele>
        <time>2025-05-19T14:27:59Z</time>
      </trkpt>
      <trkpt lat="45.639674998819828" lon="8.457911023870111">
        <ele>316.88999999999999</ele>
        <time>2025-05-19T14:28:12Z</time>
      </trkpt>
      <trkpt lat="45.643438976258039" lon="8.461325978860259">
        <ele>318.32999999999998</ele>
        <time>2025-05-19T14:28:26Z</time>
      </trkpt>
      <trkpt lat="45.645572002977133" lon="8.463301006704569">
        <ele>314.49000000000001</ele>
        <time>2025-05-19T14:28:34Z</time>
      </trkpt>
      <trkpt lat="45.646322015672922" lon="8.463985975831747">
        <ele>310.63999999999999</ele>
        <time>2025-05-19T14:28:37Z</time>
      </trkpt>
      <trkpt lat="45.649945009499788" lon="8.46770603209734">
        <ele>299.11000000000001</ele>
        <time>2025-05-19T14:28:51Z</time>
      </trkpt>
      <trkpt lat="45.651656007394195" lon="8.470454961061478">
        <ele>291.89999999999998</ele>
        <time>2025-05-19T14:28:59Z</time>
      </trkpt>
      <trkpt lat="45.652917986735702" lon="8.473621979355812">
        <ele>284.69</ele>
        <time>2025-05-19T14:29:07Z</time>
      </trkpt>
      <trkpt lat="45.654838029295206" lon="8.479867000132799">
        <ele>273.63</ele>
        <time>2025-05-19T14:29:22Z</time>
      </trkpt>
      <trkpt lat="45.656219031661749" lon="8.484403034672141">
        <ele>269.79000000000002</ele>
        <time>2025-05-19T14:29:33Z</time>
      </trkpt>
      <trkpt lat="45.657227961346507" lon="8.487744983285666">
        <ele>272.67000000000002</ele>
        <time>2025-05-19T14:29:41Z</time>
      </trkpt>
      <trkpt lat="45.659512029960752" lon="8.495265981182456">
        <ele>283.73000000000002</ele>
        <time>2025-05-19T14:29:59Z</time>
      </trkpt>
      <trkpt lat="45.660828994587064" lon="8.500394029542804">
        <ele>279.88</ele>
        <time>2025-05-19T14:30:11Z</time>
      </trkpt>
      <trkpt lat="45.661328975111246" lon="8.502820003777742">
        <ele>279.88</ele>
        <time>2025-05-19T14:30:17Z</time>
      </trkpt>
      <trkpt lat="45.661965999752283" lon="8.505832962691784">
        <ele>283.25</ele>
        <time>2025-05-19T14:30:27Z</time>
      </trkpt>
      <trkpt lat="45.662810979411006" lon="8.509266022592783">
        <ele>289.49000000000001</ele>
        <time>2025-05-19T14:30:39Z</time>
      </trkpt>
      <trkpt lat="45.663844970986247" lon="8.512452989816666">
        <ele>298.63</ele>
        <time>2025-05-19T14:30:50Z</time>
      </trkpt>
      <trkpt lat="45.665033021941781" lon="8.515395959839225">
        <ele>306.80000000000001</ele>
        <time>2025-05-19T14:31:00Z</time>
      </trkpt>
      <trkpt lat="45.666489964351058" lon="8.518354017287493">
        <ele>315.44999999999999</ele>
        <time>2025-05-19T14:31:11Z</time>
      </trkpt>
      <trkpt lat="45.667788991704583" lon="8.520534988492727">
        <ele>322.66000000000003</ele>
        <time>2025-05-19T14:31:18Z</time>
      </trkpt>
      <trkpt lat="45.669560004025698" lon="8.523121979087591">
        <ele>334.19999999999999</ele>
        <time>2025-05-19T14:31:26Z</time>
      </trkpt>
      <trkpt lat="45.671228002756834" lon="8.525286018848419">
        <ele>336.12</ele>
        <time>2025-05-19T14:31:33Z</time>
      </trkpt>
      <trkpt lat="45.673992019146681" lon="8.528975984081626">
        <ele>332.75</ele>
        <time>2025-05-19T14:31:45Z</time>
      </trkpt>
      <trkpt lat="45.674364008009434" lon="8.529604962095618">
        <ele>332.75</ele>
        <time>2025-05-19T14:31:47Z</time>
      </trkpt>
      <trkpt lat="45.675056017935276" lon="8.530933996662498">
        <ele>334.19999999999999</ele>
        <time>2025-05-19T14:31:51Z</time>
      </trkpt>
      <trkpt lat="45.676707001402974" lon="8.535179011523724">
        <ele>328.91000000000003</ele>
        <time>2025-05-19T14:32:01Z</time>
      </trkpt>
      <trkpt lat="45.678162015974522" lon="8.538123993203044">
        <ele>321.22000000000003</ele>
        <time>2025-05-19T14:32:09Z</time>
      </trkpt>
      <trkpt lat="45.679791960865259" lon="8.540227012708783">
        <ele>318.32999999999998</ele>
        <time>2025-05-19T14:32:16Z</time>
      </trkpt>
      <trkpt lat="45.681718038395047" lon="8.541762996464968">
        <ele>318.81</ele>
        <time>2025-05-19T14:32:23Z</time>
      </trkpt>
      <trkpt lat="45.683826003223658" lon="8.542709983885288">
        <ele>322.66000000000003</ele>
        <time>2025-05-19T14:32:30Z</time>
      </trkpt>
      <trkpt lat="45.686038993299007" lon="8.543018018826842">
        <ele>327.94999999999999</ele>
        <time>2025-05-19T14:32:37Z</time>
      </trkpt>
      <trkpt lat="45.688244020566344" lon="8.542666984722018">
        <ele>329.38999999999999</ele>
        <time>2025-05-19T14:32:44Z</time>
      </trkpt>
      <trkpt lat="45.691362004727125" lon="8.541610026732087">
        <ele>329.38999999999999</ele>
        <time>2025-05-19T14:32:54Z</time>
      </trkpt>
      <trkpt lat="45.694432966411114" lon="8.540665972977877">
        <ele>326.01999999999998</ele>
        <time>2025-05-19T14:33:04Z</time>
      </trkpt>
      <trkpt lat="45.696229040622711" lon="8.540868982672691">
        <ele>322.18000000000001</ele>
        <time>2025-05-19T14:33:11Z</time>
      </trkpt>
      <trkpt lat="45.698573961853981" lon="8.541696025058627">
        <ele>316.41000000000003</ele>
        <time>2025-05-19T14:33:20Z</time>
      </trkpt>
      <trkpt lat="45.700962971895933" lon="8.542646029964089">
        <ele>312.56999999999999</ele>
        <time>2025-05-19T14:33:29Z</time>
      </trkpt>
      <trkpt lat="45.702011967077851" lon="8.542890027165413">
        <ele>310.63999999999999</ele>
        <time>2025-05-19T14:33:33Z</time>
      </trkpt>
      <trkpt lat="45.70417701266706" lon="8.542964039370418">
        <ele>308.72000000000003</ele>
        <time>2025-05-19T14:33:42Z</time>
      </trkpt>
      <trkpt lat="45.706695020198822" lon="8.542828001081944">
        <ele>307.75999999999999</ele>
        <time>2025-05-19T14:33:52Z</time>
      </trkpt>
      <trkpt lat="45.711901020258665" lon="8.541299980133772">
        <ele>307.75999999999999</ele>
        <time>2025-05-19T14:34:11Z</time>
      </trkpt>
      <trkpt lat="45.711771016940475" lon="8.541390001773834">
        <ele>303.91000000000003</ele>
        <time>2025-05-19T14:34:13Z</time>
      </trkpt>
      <trkpt lat="45.711852991953492" lon="8.541335016489029">
        <ele>302.47000000000003</ele>
        <time>2025-05-19T14:34:14Z</time>
      </trkpt>
      <trkpt lat="45.713525013998151" lon="8.539728038012981">
        <ele>297.18000000000001</ele>
        <time>2025-05-19T14:34:22Z</time>
      </trkpt>
      <trkpt lat="45.714990003034472" lon="8.537520999088883">
        <ele>295.74000000000001</ele>
        <time>2025-05-19T14:34:30Z</time>
      </trkpt>
      <trkpt lat="45.716020977124572" lon="8.534974996000528">
        <ele>294.30000000000001</ele>
        <time>2025-05-19T14:34:38Z</time>
      </trkpt>
      <trkpt lat="45.717363003641367" lon="8.530792007222772">
        <ele>297.67000000000002</ele>
        <time>2025-05-19T14:34:51Z</time>
      </trkpt>
      <trkpt lat="45.718033974990249" lon="8.529264992102981">
        <ele>301.50999999999999</ele>
        <time>2025-05-19T14:34:56Z</time>
      </trkpt>
      <trkpt lat="45.720617026090622" lon="8.525279983878136">
        <ele>302.94999999999999</ele>
        <time>2025-05-19T14:35:13Z</time>
      </trkpt>
      <trkpt lat="45.722137000411749" lon="8.523480976000428">
        <ele>313.52999999999997</ele>
        <time>2025-05-19T14:35:21Z</time>
      </trkpt>
      <trkpt lat="45.723825031891465" lon="8.521609967574477">
        <ele>328.91000000000003</ele>
        <time>2025-05-19T14:35:30Z</time>
      </trkpt>
      <trkpt lat="45.725429998710752" lon="8.519696965813637">
        <ele>340.44</ele>
        <time>2025-05-19T14:35:38Z</time>
      </trkpt>
      <trkpt lat="45.727108977735043" lon="8.517318014055491">
        <ele>350.06</ele>
        <time>2025-05-19T14:35:48Z</time>
      </trkpt>
      <trkpt lat="45.728494003415108" lon="8.515112986788154">
        <ele>355.82999999999998</ele>
        <time>2025-05-19T14:35:57Z</time>
      </trkpt>
      <trkpt lat="45.729081993922591" lon="8.514427011832595">
        <ele>357.75</ele>
        <time>2025-05-19T14:36:01Z</time>
      </trkpt>
      <trkpt lat="45.729227000847459" lon="8.514269012957811">
        <ele>358.23000000000002</ele>
        <time>2025-05-19T14:36:02Z</time>
      </trkpt>
      <trkpt lat="45.729832006618381" lon="8.513735001906753">
        <ele>359.67000000000002</ele>
        <time>2025-05-19T14:36:06Z</time>
      </trkpt>
      <trkpt lat="45.729996962472796" lon="8.513639029115439">
        <ele>359.67000000000002</ele>
        <time>2025-05-19T14:36:07Z</time>
      </trkpt>
      <trkpt lat="45.730162002146244" lon="8.513588989153504">
        <ele>359.67000000000002</ele>
        <time>2025-05-19T14:36:08Z</time>
      </trkpt>
      <trkpt lat="45.730356965214014" lon="8.513570968061686">
        <ele>359.67000000000002</ele>
        <time>2025-05-19T14:36:09Z</time>
      </trkpt>
      <trkpt lat="45.730543965473771" lon="8.513554036617279">
        <ele>359.19</ele>
        <time>2025-05-19T14:36:10Z</time>
      </trkpt>
      <trkpt lat="45.731451977044344" lon="8.513426966965199">
        <ele>357.75</ele>
        <time>2025-05-19T14:36:15Z</time>
      </trkpt>
      <trkpt lat="45.731606036424637" lon="8.51332001388073">
        <ele>357.75</ele>
        <time>2025-05-19T14:36:16Z</time>
      </trkpt>
      <trkpt lat="45.731738973408937" lon="8.513172995299101">
        <ele>357.75</ele>
        <time>2025-05-19T14:36:17Z</time>
      </trkpt>
      <trkpt lat="45.731847016140819" lon="8.512991024181247">
        <ele>357.75</ele>
        <time>2025-05-19T14:36:18Z</time>
      </trkpt>
      <trkpt lat="45.731941983103752" lon="8.512803018093109">
        <ele>357.75</ele>
        <time>2025-05-19T14:36:19Z</time>
      </trkpt>
      <trkpt lat="45.732009960338473" lon="8.512591039761901">
        <ele>357.75</ele>
        <time>2025-05-19T14:36:20Z</time>
      </trkpt>
      <trkpt lat="45.732027981430292" lon="8.512357017025352">
        <ele>357.75</ele>
        <time>2025-05-19T14:36:21Z</time>
      </trkpt>
      <trkpt lat="45.731995962560177" lon="8.512125005945563">
        <ele>357.75</ele>
        <time>2025-05-19T14:36:22Z</time>
      </trkpt>
      <trkpt lat="45.731954975053668" lon="8.511884026229382">
        <ele>357.75</ele>
        <time>2025-05-19T14:36:23Z</time>
      </trkpt>
      <trkpt lat="45.731884986162186" lon="8.511642040684819">
        <ele>357.75</ele>
        <time>2025-05-19T14:36:24Z</time>
      </trkpt>
      <trkpt lat="45.731489025056362" lon="8.510308982804418">
        <ele>359.19</ele>
        <time>2025-05-19T14:36:29Z</time>
      </trkpt>
      <trkpt lat="45.731401015073061" lon="8.510016035288572">
        <ele>359.67000000000002</ele>
        <time>2025-05-19T14:36:30Z</time>
      </trkpt>
      <trkpt lat="45.731325997039676" lon="8.509760973975062">
        <ele>360.14999999999998</ele>
        <time>2025-05-19T14:36:31Z</time>
      </trkpt>
      <trkpt lat="45.731020979583263" lon="8.508653976023197">
        <ele>360.63</ele>
        <time>2025-05-19T14:36:37Z</time>
      </trkpt>
      <trkpt lat="45.730997007340193" lon="8.50846303626895">
        <ele>360.63</ele>
        <time>2025-05-19T14:36:38Z</time>
      </trkpt>
      <trkpt lat="45.730977980419993" lon="8.508309982717037">
        <ele>360.63</ele>
        <time>2025-05-19T14:36:39Z</time>
      </trkpt>
      <trkpt lat="45.730990972369909" lon="8.508117031306028">
        <ele>360.63</ele>
        <time>2025-05-19T14:36:40Z</time>
      </trkpt>
      <trkpt lat="45.731020979583263" lon="8.507956014946103">
        <ele>360.63</ele>
        <time>2025-05-19T14:36:41Z</time>
      </trkpt>
      <trkpt lat="45.731086023151875" lon="8.507800027728081">
        <ele>360.63</ele>
        <time>2025-05-19T14:36:42Z</time>
      </trkpt>
      <trkpt lat="45.731148971244693" lon="8.507644962519407">
        <ele>360.63</ele>
        <time>2025-05-19T14:36:43Z</time>
      </trkpt>
      <trkpt lat="45.731245027855039" lon="8.507538009434938">
        <ele>360.63</ele>
        <time>2025-05-19T14:36:44Z</time>
      </trkpt>
      <trkpt lat="45.731346029788256" lon="8.507430972531438">
        <ele>361.11000000000001</ele>
        <time>2025-05-19T14:36:45Z</time>
      </trkpt>
      <trkpt lat="45.731452982872725" lon="8.507341034710407">
        <ele>361.11000000000001</ele>
        <time>2025-05-19T14:36:46Z</time>
      </trkpt>
      <trkpt lat="45.731557002291083" lon="8.507254030555487">
        <ele>361.58999999999997</ele>
        <time>2025-05-19T14:36:47Z</time>
      </trkpt>
      <trkpt lat="45.731655992567539" lon="8.507169960066676">
        <ele>361.58999999999997</ele>
        <time>2025-05-19T14:36:48Z</time>
      </trkpt>
      <trkpt lat="45.731756994500756" lon="8.507086979225278">
        <ele>361.58999999999997</ele>
        <time>2025-05-19T14:36:49Z</time>
      </trkpt>
      <trkpt lat="45.732316989451647" lon="8.506651958450675">
        <ele>360.63</ele>
        <time>2025-05-19T14:36:57Z</time>
      </trkpt>
      <trkpt lat="45.732354959473014" lon="8.506626980379224">
        <ele>360.63</ele>
        <time>2025-05-19T14:36:58Z</time>
      </trkpt>
      <trkpt lat="45.732384966686368" lon="8.506607031449676">
        <ele>360.63</ele>
        <time>2025-05-19T14:36:59Z</time>
      </trkpt>
      <trkpt lat="45.732410028576851" lon="8.506590016186237">
        <ele>360.14999999999998</ele>
        <time>2025-05-19T14:37:00Z</time>
      </trkpt>
      <trkpt lat="45.732427965849638" lon="8.506578030064702">
        <ele>360.14999999999998</ele>
        <time>2025-05-19T14:37:01Z</time>
      </trkpt>
      <trkpt lat="45.732443975284696" lon="8.506568977609277">
        <ele>360.14999999999998</ele>
        <time>2025-05-19T14:37:02Z</time>
      </trkpt>
      <trkpt lat="45.732443975284696" lon="8.506568977609277">
        <ele>359.67000000000002</ele>
        <time>2025-05-19T14:37:03Z</time>
      </trkpt>
      <trkpt lat="45.732443975284696" lon="8.506568977609277">
        <ele>359.67000000000002</ele>
        <time>2025-05-19T14:37:21Z</time>
      </trkpt>
      <trkpt lat="45.732443975284696" lon="8.506568977609277">
        <ele>359.67000000000002</ele>
        <time>2025-05-19T14:37:53Z</time>
      </trkpt>
      <trkpt lat="45.732443975284696" lon="8.506568977609277">
        <ele>359.67000000000002</ele>
        <time>2025-05-19T14:38:34Z</time>
      </trkpt>
      <trkpt lat="45.732502983883023" lon="8.506538970395923">
        <ele>358.70999999999998</ele>
        <time>2025-05-19T14:38:46Z</time>
      </trkpt>
      <trkpt lat="45.732562998309731" lon="8.506508963182569">
        <ele>357.75</ele>
        <time>2025-05-19T14:38:47Z</time>
      </trkpt>
      <trkpt lat="45.732651008293033" lon="8.506464958190918">
        <ele>357.26999999999998</ele>
        <time>2025-05-19T14:38:48Z</time>
      </trkpt>
      <trkpt lat="45.732737006619573" lon="8.506421959027648">
        <ele>357.26999999999998</ele>
        <time>2025-05-19T14:38:49Z</time>
      </trkpt>
      <trkpt lat="45.732847983017564" lon="8.506348030641675">
        <ele>356.79000000000002</ele>
        <time>2025-05-19T14:38:50Z</time>
      </trkpt>
      <trkpt lat="45.732935993000865" lon="8.506289022043347">
        <ele>355.82999999999998</ele>
        <time>2025-05-19T14:38:51Z</time>
      </trkpt>
      <trkpt lat="45.733000030741096" lon="8.506247028708458">
        <ele>355.33999999999997</ele>
        <time>2025-05-19T14:38:52Z</time>
      </trkpt>
      <trkpt lat="45.733041018247604" lon="8.506220038980246">
        <ele>354.86000000000001</ele>
        <time>2025-05-19T14:38:53Z</time>
      </trkpt>
      <trkpt lat="45.733065996319056" lon="8.506203023716807">
        <ele>354.38</ele>
        <time>2025-05-19T14:38:54Z</time>
      </trkpt>
      <trkpt lat="45.733065996319056" lon="8.506203023716807">
        <ele>354.38</ele>
        <time>2025-05-19T14:39:05Z</time>
      </trkpt>
      <trkpt lat="45.733065996319056" lon="8.506203023716807">
        <ele>352.94</ele>
        <time>2025-05-19T14:39:53Z</time>
      </trkpt>
      <trkpt lat="45.733065996319056" lon="8.506203023716807">
        <ele>353.42000000000002</ele>
        <time>2025-05-19T14:40:39Z</time>
      </trkpt>
      <trkpt lat="45.733065996319056" lon="8.506203023716807">
        <ele>353.89999999999998</ele>
        <time>2025-05-19T14:41:33Z</time>
      </trkpt>
      <trkpt lat="45.733065996319056" lon="8.506203023716807">
        <ele>354.38</ele>
        <time>2025-05-19T14:42:21Z</time>
      </trkpt>
      <trkpt lat="45.733065996319056" lon="8.506203023716807">
        <ele>354.38</ele>
        <time>2025-05-19T14:43:15Z</time>
      </trkpt>
      <trkpt lat="45.733065996319056" lon="8.506203023716807">
        <ele>355.33999999999997</ele>
        <time>2025-05-19T14:43:40Z</time>
      </trkpt>
      <trkpt lat="45.733065996319056" lon="8.506203023716807">
        <ele>355.82999999999998</ele>
        <time>2025-05-19T14:44:34Z</time>
      </trkpt>
      <trkpt lat="45.733065996319056" lon="8.506203023716807">
        <ele>355.82999999999998</ele>
        <time>2025-05-19T14:45:21Z</time>
      </trkpt>
      <trkpt lat="45.733218966051936" lon="8.50610101595521">
        <ele>357.75</ele>
        <time>2025-05-19T14:45:54Z</time>
      </trkpt>
      <trkpt lat="45.733272023499012" lon="8.506064973771572">
        <ele>358.23000000000002</ele>
        <time>2025-05-19T14:45:55Z</time>
      </trkpt>
      <trkpt lat="45.733885997906327" lon="8.505469020456076">
        <ele>358.23000000000002</ele>
        <time>2025-05-19T14:46:04Z</time>
      </trkpt>
      <trkpt lat="45.73395699262619" lon="8.505357960239053">
        <ele>358.23000000000002</ele>
        <time>2025-05-19T14:46:05Z</time>
      </trkpt>
      <trkpt lat="45.734253963455558" lon="8.504927968606353">
        <ele>357.75</ele>
        <time>2025-05-19T14:46:09Z</time>
      </trkpt>
      <trkpt lat="45.734326969832182" lon="8.504839958623052">
        <ele>357.75</ele>
        <time>2025-05-19T14:46:10Z</time>
      </trkpt>
      <trkpt lat="45.734379021450877" lon="8.50479100830853">
        <ele>357.75</ele>
        <time>2025-05-19T14:46:11Z</time>
      </trkpt>
      <trkpt lat="45.73447197675705" lon="8.504782961681485">
        <ele>357.75</ele>
        <time>2025-05-19T14:46:12Z</time>
      </trkpt>
      <trkpt lat="45.734569961205125" lon="8.504774998873472">
        <ele>357.75</ele>
        <time>2025-05-19T14:46:13Z</time>
      </trkpt>
      <trkpt lat="45.734650008380413" lon="8.504783967509866">
        <ele>357.75</ele>
        <time>2025-05-19T14:46:14Z</time>
      </trkpt>
      <trkpt lat="45.734752016142011" lon="8.504839958623052">
        <ele>357.75</ele>
        <time>2025-05-19T14:46:15Z</time>
      </trkpt>
      <trkpt lat="45.73485896922648" lon="8.50489997304976">
        <ele>357.75</ele>
        <time>2025-05-19T14:46:16Z</time>
      </trkpt>
      <trkpt lat="45.735012022778392" lon="8.504983959719539">
        <ele>357.75</ele>
        <time>2025-05-19T14:46:17Z</time>
      </trkpt>
      <trkpt lat="45.735088968649507" lon="8.505108011886478">
        <ele>357.75</ele>
        <time>2025-05-19T14:46:18Z</time>
      </trkpt>
      <trkpt lat="45.735184019431472" lon="8.505259975790978">
        <ele>357.26999999999998</ele>
        <time>2025-05-19T14:46:19Z</time>
      </trkpt>
      <trkpt lat="45.735646029934287" lon="8.505959026515484">
        <ele>356.79000000000002</ele>
        <time>2025-05-19T14:46:23Z</time>
      </trkpt>
      <trkpt lat="45.735763041302562" lon="8.506121970713139">
        <ele>356.79000000000002</ele>
        <time>2025-05-19T14:46:24Z</time>
      </trkpt>
      <trkpt lat="45.737097021192312" lon="8.508176039904356">
        <ele>354.86000000000001</ele>
        <time>2025-05-19T14:46:33Z</time>
      </trkpt>
      <trkpt lat="45.738255986943841" lon="8.509861975908279">
        <ele>344.29000000000002</ele>
        <time>2025-05-19T14:46:43Z</time>
      </trkpt>
      <trkpt lat="45.738999964669347" lon="8.51091499440372">
        <ele>338.04000000000002</ele>
        <time>2025-05-19T14:46:52Z</time>
      </trkpt>
      <trkpt lat="45.739809991791844" lon="8.511782018467784">
        <ele>333.70999999999998</ele>
        <time>2025-05-19T14:46:59Z</time>
      </trkpt>
      <trkpt lat="45.741098960861564" lon="8.512644013389945">
        <ele>325.06</ele>
        <time>2025-05-19T14:47:08Z</time>
      </trkpt>
      <trkpt lat="45.741486959159374" lon="8.513092026114464">
        <ele>321.69999999999999</ele>
        <time>2025-05-19T14:47:11Z</time>
      </trkpt>
      <trkpt lat="45.742177963256836" lon="8.514507981017232">
        <ele>314.00999999999999</ele>
        <time>2025-05-19T14:47:19Z</time>
      </trkpt>
      <trkpt lat="45.742956977337599" lon="8.516674032434821">
        <ele>301.02999999999997</ele>
        <time>2025-05-19T14:47:31Z</time>
      </trkpt>
      <trkpt lat="45.743660973384976" lon="8.518314035609365">
        <ele>295.25999999999999</ele>
        <time>2025-05-19T14:47:42Z</time>
      </trkpt>
      <trkpt lat="45.744085013866425" lon="8.519182987511158">
        <ele>294.77999999999997</ele>
        <time>2025-05-19T14:47:49Z</time>
      </trkpt>
      <trkpt lat="45.744147961959243" lon="8.519305028021336">
        <ele>295.25999999999999</ele>
        <time>2025-05-19T14:47:50Z</time>
      </trkpt>
      <trkpt lat="45.744211999699473" lon="8.519425978884101">
        <ele>296.22000000000003</ele>
        <time>2025-05-19T14:47:51Z</time>
      </trkpt>
      <trkpt lat="45.744761014357209" lon="8.520485032349825">
        <ele>303.43000000000001</ele>
        <time>2025-05-19T14:48:01Z</time>
      </trkpt>
      <trkpt lat="45.745454030111432" lon="8.521843990311027">
        <ele>302.47000000000003</ele>
        <time>2025-05-19T14:48:12Z</time>
      </trkpt>
      <trkpt lat="45.746100023388863" lon="8.523143017664552">
        <ele>301.99000000000001</ele>
        <time>2025-05-19T14:48:22Z</time>
      </trkpt>
      <trkpt lat="45.746801001951098" lon="8.524507004767656">
        <ele>301.02999999999997</ele>
        <time>2025-05-19T14:48:34Z</time>
      </trkpt>
      <trkpt lat="45.746837966144085" lon="8.524574982002378">
        <ele>301.02999999999997</ele>
        <time>2025-05-19T14:48:35Z</time>
      </trkpt>
      <trkpt lat="45.746895968914032" lon="8.524675983935595">
        <ele>300.55000000000001</ele>
        <time>2025-05-19T14:48:38Z</time>
      </trkpt>
      <trkpt lat="45.746898986399174" lon="8.524683024734259">
        <ele>300.55000000000001</ele>
        <time>2025-05-19T14:48:39Z</time>
      </trkpt>
      <trkpt lat="45.74691298417747" lon="8.524727029725909">
        <ele>300.55000000000001</ele>
        <time>2025-05-19T14:48:40Z</time>
      </trkpt>
      <trkpt lat="45.746923964470625" lon="8.524763993918896">
        <ele>300.55000000000001</ele>
        <time>2025-05-19T14:48:41Z</time>
      </trkpt>
      <trkpt lat="45.746936034411192" lon="8.524805987253785">
        <ele>300.55000000000001</ele>
        <time>2025-05-19T14:48:42Z</time>
      </trkpt>
      <trkpt lat="45.746964029967785" lon="8.524897014722228">
        <ele>299.58999999999997</ele>
        <time>2025-05-19T14:48:47Z</time>
      </trkpt>
      <trkpt lat="45.746964029967785" lon="8.524897014722228">
        <ele>299.11000000000001</ele>
        <time>2025-05-19T14:48:48Z</time>
      </trkpt>
      <trkpt lat="45.746957994997501" lon="8.525079991668463">
        <ele>299.11000000000001</ele>
        <time>2025-05-19T14:48:49Z</time>
      </trkpt>
      <trkpt lat="45.747049022465944" lon="8.525089966133237">
        <ele>298.63</ele>
        <time>2025-05-19T14:48:50Z</time>
      </trkpt>
      <trkpt lat="45.747100990265608" lon="8.52515903301537">
        <ele>298.63</ele>
        <time>2025-05-19T14:48:51Z</time>
      </trkpt>
      <trkpt lat="45.747159998863935" lon="8.525236984714866">
        <ele>298.14999999999998</ele>
        <time>2025-05-19T14:48:52Z</time>
      </trkpt>
      <trkpt lat="45.747242979705334" lon="8.525347961112857">
        <ele>297.67000000000002</ele>
        <time>2025-05-19T14:48:53Z</time>
      </trkpt>
      <trkpt lat="45.747279021888971" lon="8.52541702799499">
        <ele>297.18000000000001</ele>
        <time>2025-05-19T14:48:54Z</time>
      </trkpt>
      <trkpt lat="45.74732000939548" lon="8.525496991351247">
        <ele>296.69999999999999</ele>
        <time>2025-05-19T14:48:55Z</time>
      </trkpt>
      <trkpt lat="45.747352028265595" lon="8.525558011606336">
        <ele>296.69999999999999</ele>
        <time>2025-05-19T14:48:56Z</time>
      </trkpt>
      <trkpt lat="45.747373988851905" lon="8.525598999112845">
        <ele>295.74000000000001</ele>
        <time>2025-05-19T14:49:02Z</time>
      </trkpt>
      <trkpt lat="45.747530981898308" lon="8.525903010740876">
        <ele>295.25999999999999</ele>
        <time>2025-05-19T14:49:07Z</time>
      </trkpt>
      <trkpt lat="45.748052000999451" lon="8.526935996487737">
        <ele>292.86000000000001</ele>
        <time>2025-05-19T14:49:19Z</time>
      </trkpt>
      <trkpt lat="45.748301027342677" lon="8.527403958141804">
        <ele>292.38</ele>
        <time>2025-05-19T14:49:31Z</time>
      </trkpt>
      <trkpt lat="45.748349977657199" lon="8.527498003095388">
        <ele>292.38</ele>
        <time>2025-05-19T14:49:33Z</time>
      </trkpt>
      <trkpt lat="45.748552987352014" lon="8.527905028313398">
        <ele>291.89999999999998</ele>
        <time>2025-05-19T14:49:44Z</time>
      </trkpt>
      <trkpt lat="45.748578971251845" lon="8.527956996113062">
        <ele>291.89999999999998</ele>
        <time>2025-05-19T14:49:45Z</time>
      </trkpt>
      <trkpt lat="45.748608978465199" lon="8.528014998883009">
        <ele>291.89999999999998</ele>
        <time>2025-05-19T14:49:46Z</time>
      </trkpt>
      <trkpt lat="45.748749040067196" lon="8.528282968327403">
        <ele>291.89999999999998</ele>
        <time>2025-05-19T14:49:51Z</time>
      </trkpt>
      <trkpt lat="45.748772006481886" lon="8.528326973319054">
        <ele>291.42000000000002</ele>
        <time>2025-05-19T14:49:52Z</time>
      </trkpt>
      <trkpt lat="45.748791033402085" lon="8.528364021331072">
        <ele>291.42000000000002</ele>
        <time>2025-05-19T14:49:53Z</time>
      </trkpt>
      <trkpt lat="45.748809976503253" lon="8.528400985524058">
        <ele>290.45999999999998</ele>
        <time>2025-05-19T14:50:02Z</time>
      </trkpt>
      <trkpt lat="45.748859010636806" lon="8.528493018820882">
        <ele>290.94</ele>
        <time>2025-05-19T14:50:13Z</time>
      </trkpt>
      <trkpt lat="45.748960012570024" lon="8.528709020465612">
        <ele>289.97000000000003</ele>
        <time>2025-05-19T14:50:24Z</time>
      </trkpt>
      <trkpt lat="45.748987002298236" lon="8.528776997700334">
        <ele>289.97000000000003</ele>
        <time>2025-05-19T14:50:33Z</time>
      </trkpt>
      <trkpt lat="45.749008962884545" lon="8.528761994093657">
        <ele>289.97000000000003</ele>
        <time>2025-05-19T14:50:34Z</time>
      </trkpt>
      <trkpt lat="45.749051962047815" lon="8.528732992708683">
        <ele>289.49000000000001</ele>
        <time>2025-05-19T14:50:35Z</time>
      </trkpt>
      <trkpt lat="45.749112982302904" lon="8.528692005202174">
        <ele>289.00999999999999</ele>
        <time>2025-05-19T14:50:36Z</time>
      </trkpt>
      <trkpt lat="45.749178025871515" lon="8.52863802574575">
        <ele>289.00999999999999</ele>
        <time>2025-05-19T14:50:37Z</time>
      </trkpt>
      <trkpt lat="45.749885961413383" lon="8.528048023581505">
        <ele>286.61000000000001</ele>
        <time>2025-05-19T14:50:45Z</time>
      </trkpt>
      <trkpt lat="45.750157032161951" lon="8.527830010280013">
        <ele>286.61000000000001</ele>
        <time>2025-05-19T14:50:48Z</time>
      </trkpt>
      <trkpt lat="45.750230960547924" lon="8.527765972539783">
        <ele>286.61000000000001</ele>
        <time>2025-05-19T14:50:49Z</time>
      </trkpt>
      <trkpt lat="45.750298015773296" lon="8.527700006961823">
        <ele>286.61000000000001</ele>
        <time>2025-05-19T14:50:50Z</time>
      </trkpt>
      <trkpt lat="45.750373033806682" lon="8.527640998363495">
        <ele>287.08999999999997</ele>
        <time>2025-05-19T14:50:51Z</time>
      </trkpt>
      <trkpt lat="45.75045702047646" lon="8.52758701890707">
        <ele>287.08999999999997</ele>
        <time>2025-05-19T14:50:52Z</time>
      </trkpt>
      <trkpt lat="45.751276016235352" lon="8.526931973174214">
        <ele>289.00999999999999</ele>
        <time>2025-05-19T14:51:02Z</time>
      </trkpt>
      <trkpt lat="45.752440011128783" lon="8.526163017377257">
        <ele>293.81999999999999</ele>
        <time>2025-05-19T14:51:16Z</time>
      </trkpt>
      <trkpt lat="45.753172002732754" lon="8.525635041296482">
        <ele>296.69999999999999</ele>
        <time>2025-05-19T14:51:24Z</time>
      </trkpt>
      <trkpt lat="45.753404013812542" lon="8.525366988033056">
        <ele>298.14999999999998</ele>
        <time>2025-05-19T14:51:27Z</time>
      </trkpt>
      <trkpt lat="45.753482971340418" lon="8.525273026898503">
        <ele>298.63</ele>
        <time>2025-05-19T14:51:28Z</time>
      </trkpt>
      <trkpt lat="45.753806009888649" lon="8.524872958660126">
        <ele>301.02999999999997</ele>
        <time>2025-05-19T14:51:32Z</time>
      </trkpt>
      <trkpt lat="45.753886979073286" lon="8.524769023060799">
        <ele>301.99000000000001</ele>
        <time>2025-05-19T14:51:33Z</time>
      </trkpt>
      <trkpt lat="45.754415960982442" lon="8.524039965122938">
        <ele>304.38999999999999</ele>
        <time>2025-05-19T14:51:40Z</time>
      </trkpt>
      <trkpt lat="45.754460971802473" lon="8.523915996775031">
        <ele>304.88</ele>
        <time>2025-05-19T14:51:41Z</time>
      </trkpt>
      <trkpt lat="45.754501037299633" lon="8.52378498762846">
        <ele>305.36000000000001</ele>
        <time>2025-05-19T14:51:42Z</time>
      </trkpt>
      <trkpt lat="45.754878977313638" lon="8.522309018298984">
        <ele>306.80000000000001</ele>
        <time>2025-05-19T14:51:51Z</time>
      </trkpt>
      <trkpt lat="45.755095984786749" lon="8.521429002285004">
        <ele>308.72000000000003</ele>
        <time>2025-05-19T14:51:55Z</time>
      </trkpt>
      <trkpt lat="45.755178965628147" lon="8.521277960389853">
        <ele>308.72000000000003</ele>
        <time>2025-05-19T14:51:56Z</time>
      </trkpt>
      <trkpt lat="45.755293965339661" lon="8.521172013133764">
        <ele>309.19999999999999</ele>
        <time>2025-05-19T14:51:57Z</time>
      </trkpt>
      <trkpt lat="45.755406031385064" lon="8.521092971786857">
        <ele>309.19999999999999</ele>
        <time>2025-05-19T14:51:58Z</time>
      </trkpt>
      <trkpt lat="45.755545003339648" lon="8.521064976230264">
        <ele>309.68000000000001</ele>
        <time>2025-05-19T14:51:59Z</time>
      </trkpt>
      <trkpt lat="45.75569998472929" lon="8.521033963188529">
        <ele>309.68000000000001</ele>
        <time>2025-05-19T14:52:00Z</time>
      </trkpt>
      <trkpt lat="45.755868041887879" lon="8.521001022309065">
        <ele>310.16000000000003</ele>
        <time>2025-05-19T14:52:01Z</time>
      </trkpt>
      <trkpt lat="45.756952995434403" lon="8.520682007074356">
        <ele>311.12</ele>
        <time>2025-05-19T14:52:07Z</time>
      </trkpt>
      <trkpt lat="45.757100014016032" lon="8.520552003756166">
        <ele>311.12</ele>
        <time>2025-05-19T14:52:08Z</time>
      </trkpt>
      <trkpt lat="45.757238985970616" lon="8.520429041236639">
        <ele>311.60000000000002</ele>
        <time>2025-05-19T14:52:09Z</time>
      </trkpt>
      <trkpt lat="45.757360020652413" lon="8.520284034311771">
        <ele>311.12</ele>
        <time>2025-05-19T14:52:10Z</time>
      </trkpt>
      <trkpt lat="45.75746001675725" lon="8.520124023780227">
        <ele>311.60000000000002</ele>
        <time>2025-05-19T14:52:11Z</time>
      </trkpt>
      <trkpt lat="45.757559007033706" lon="8.519972981885076">
        <ele>311.60000000000002</ele>
        <time>2025-05-19T14:52:12Z</time>
      </trkpt>
      <trkpt lat="45.757656991481781" lon="8.519839039072394">
        <ele>311.60000000000002</ele>
        <time>2025-05-19T14:52:13Z</time>
      </trkpt>
      <trkpt lat="45.757763022556901" lon="8.519736025482416">
        <ele>311.60000000000002</ele>
        <time>2025-05-19T14:52:14Z</time>
      </trkpt>
      <trkpt lat="45.757881961762905" lon="8.519643992185593">
        <ele>311.60000000000002</ele>
        <time>2025-05-19T14:52:15Z</time>
      </trkpt>
      <trkpt lat="45.758002996444702" lon="8.519549025222659">
        <ele>311.60000000000002</ele>
        <time>2025-05-19T14:52:16Z</time>
      </trkpt>
      <trkpt lat="45.758099975064397" lon="8.51946797221899">
        <ele>312.08999999999997</ele>
        <time>2025-05-19T14:52:17Z</time>
      </trkpt>
      <trkpt lat="45.758239030838013" lon="8.519387003034353">
        <ele>312.56999999999999</ele>
        <time>2025-05-19T14:52:18Z</time>
      </trkpt>
      <trkpt lat="45.758488979190588" lon="8.519284995272756">
        <ele>313.52999999999997</ele>
        <time>2025-05-19T14:52:20Z</time>
      </trkpt>
      <trkpt lat="45.75860096141696" lon="8.519256999716163">
        <ele>314.00999999999999</ele>
        <time>2025-05-19T14:52:21Z</time>
      </trkpt>
      <trkpt lat="45.758705986663699" lon="8.519297987222672">
        <ele>314.49000000000001</ele>
        <time>2025-05-19T14:52:22Z</time>
      </trkpt>
      <trkpt lat="45.758802965283394" lon="8.519345009699464">
        <ele>314.97000000000003</ele>
        <time>2025-05-19T14:52:23Z</time>
      </trkpt>
      <trkpt lat="45.75890296138823" lon="8.519393960013986">
        <ele>315.44999999999999</ele>
        <time>2025-05-19T14:52:24Z</time>
      </trkpt>
      <trkpt lat="45.759325996041298" lon="8.519598981365562">
        <ele>317.85000000000002</ele>
        <time>2025-05-19T14:52:28Z</time>
      </trkpt>
      <trkpt lat="45.759563036262989" lon="8.519644998013973">
        <ele>318.32999999999998</ele>
        <time>2025-05-19T14:52:30Z</time>
      </trkpt>
      <trkpt lat="45.759675018489361" lon="8.51965899579227">
        <ele>318.81</ele>
        <time>2025-05-19T14:52:31Z</time>
      </trkpt>
      <trkpt lat="45.760278012603521" lon="8.519711969420314">
        <ele>320.74000000000001</ele>
        <time>2025-05-19T14:52:36Z</time>
      </trkpt>
      <trkpt lat="45.760785033926368" lon="8.519626976922154">
        <ele>321.69999999999999</ele>
        <time>2025-05-19T14:52:40Z</time>
      </trkpt>
      <trkpt lat="45.760906990617514" lon="8.519561011344194">
        <ele>322.18000000000001</ele>
        <time>2025-05-19T14:52:41Z</time>
      </trkpt>
      <trkpt lat="45.761853978037834" lon="8.518850980326533">
        <ele>325.54000000000002</ele>
        <time>2025-05-19T14:52:50Z</time>
      </trkpt>
      <trkpt lat="45.761959003284574" lon="8.518808986991644">
        <ele>326.5</ele>
        <time>2025-05-19T14:52:51Z</time>
      </trkpt>
      <trkpt lat="45.762064028531313" lon="8.518777973949909">
        <ele>326.99000000000001</ele>
        <time>2025-05-19T14:52:52Z</time>
      </trkpt>
      <trkpt lat="45.763087039813399" lon="8.518661968410015">
        <ele>331.79000000000002</ele>
        <time>2025-05-19T14:53:00Z</time>
      </trkpt>
      <trkpt lat="45.76332600787282" lon="8.518715025857091">
        <ele>332.75</ele>
        <time>2025-05-19T14:53:02Z</time>
      </trkpt>
      <trkpt lat="45.764177022501826" lon="8.518963968381286">
        <ele>335.16000000000003</ele>
        <time>2025-05-19T14:53:09Z</time>
      </trkpt>
      <trkpt lat="45.764282969757915" lon="8.518917029723525">
        <ele>335.63999999999999</ele>
        <time>2025-05-19T14:53:10Z</time>
      </trkpt>
      <trkpt lat="45.764396041631699" lon="8.518866989761591">
        <ele>335.63999999999999</ele>
        <time>2025-05-19T14:53:11Z</time>
      </trkpt>
      <trkpt lat="45.765028037130833" lon="8.518631039187312">
        <ele>336.60000000000002</ele>
        <time>2025-05-19T14:53:16Z</time>
      </trkpt>
      <trkpt lat="45.765143958851695" lon="8.518630033358932">
        <ele>336.60000000000002</ele>
        <time>2025-05-19T14:53:17Z</time>
      </trkpt>
      <trkpt lat="45.76526197604835" lon="8.518678983673453">
        <ele>336.60000000000002</ele>
        <time>2025-05-19T14:53:18Z</time>
      </trkpt>
      <trkpt lat="45.765353003516793" lon="8.518717037513852">
        <ele>336.12</ele>
        <time>2025-05-19T14:53:19Z</time>
      </trkpt>
      <trkpt lat="45.765461968258023" lon="8.518818961456418">
        <ele>336.12</ele>
        <time>2025-05-19T14:53:20Z</time>
      </trkpt>
      <trkpt lat="45.765564981848001" lon="8.518916023895145">
        <ele>336.12</ele>
        <time>2025-05-19T14:53:21Z</time>
      </trkpt>
      <trkpt lat="45.766798965632915" lon="8.520171968266368">
        <ele>340.92000000000002</ele>
        <time>2025-05-19T14:53:33Z</time>
      </trkpt>
      <trkpt lat="45.767211019992828" lon="8.52056197822094">
        <ele>344.29000000000002</ele>
        <time>2025-05-19T14:53:37Z</time>
      </trkpt>
      <trkpt lat="45.767301041632891" lon="8.520661974325776">
        <ele>345.25</ele>
        <time>2025-05-19T14:53:38Z</time>
      </trkpt>
      <trkpt lat="45.767370024695992" lon="8.520799018442631">
        <ele>346.20999999999998</ele>
        <time>2025-05-19T14:53:39Z</time>
      </trkpt>
      <trkpt lat="45.767430039122701" lon="8.520919969305396">
        <ele>347.64999999999998</ele>
        <time>2025-05-19T14:53:40Z</time>
      </trkpt>
      <trkpt lat="45.767488963901997" lon="8.521036980673671">
        <ele>349.10000000000002</ele>
        <time>2025-05-19T14:53:41Z</time>
      </trkpt>
      <trkpt lat="45.767545960843563" lon="8.521151980385184">
        <ele>350.54000000000002</ele>
        <time>2025-05-19T14:53:42Z</time>
      </trkpt>
      <trkpt lat="45.767620978876948" lon="8.521258011460304">
        <ele>351.5</ele>
        <time>2025-05-19T14:53:43Z</time>
      </trkpt>
      <trkpt lat="45.767712006345391" lon="8.521331017836928">
        <ele>352.45999999999998</ele>
        <time>2025-05-19T14:53:44Z</time>
      </trkpt>
      <trkpt lat="45.767803033813834" lon="8.521405030041933">
        <ele>353.89999999999998</ele>
        <time>2025-05-19T14:53:45Z</time>
      </trkpt>
      <trkpt lat="45.767892971634865" lon="8.521478958427906">
        <ele>354.86000000000001</ele>
        <time>2025-05-19T14:53:46Z</time>
      </trkpt>
      <trkpt lat="45.768500994890928" lon="8.521900987252593">
        <ele>364</ele>
        <time>2025-05-19T14:53:52Z</time>
      </trkpt>
      <trkpt lat="45.768613982945681" lon="8.521956978365779">
        <ele>365.44</ele>
        <time>2025-05-19T14:53:53Z</time>
      </trkpt>
      <trkpt lat="45.768666034564376" lon="8.521963013336062">
        <ele>367.36000000000001</ele>
        <time>2025-05-19T14:53:54Z</time>
      </trkpt>
      <trkpt lat="45.768869966268539" lon="8.521985979750752">
        <ele>375.52999999999997</ele>
        <time>2025-05-19T14:53:59Z</time>
      </trkpt>
      <trkpt lat="45.768898967653513" lon="8.521988997235894">
        <ele>376.49000000000001</ele>
        <time>2025-05-19T14:54:00Z</time>
      </trkpt>
      <trkpt lat="45.769000975415111" lon="8.52182898670435">
        <ele>378.42000000000002</ele>
        <time>2025-05-19T14:54:01Z</time>
      </trkpt>
      <trkpt lat="45.769000975415111" lon="8.52182898670435">
        <ele>379.86000000000001</ele>
        <time>2025-05-19T14:54:02Z</time>
      </trkpt>
      <trkpt lat="45.769014973193407" lon="8.521755980327725">
        <ele>381.77999999999997</ele>
        <time>2025-05-19T14:54:03Z</time>
      </trkpt>
      <trkpt lat="45.769032994285226" lon="8.521665958687663">
        <ele>382.74000000000001</ele>
        <time>2025-05-19T14:54:04Z</time>
      </trkpt>
      <trkpt lat="45.76925796456635" lon="8.52073397487402">
        <ele>390.91000000000003</ele>
        <time>2025-05-19T14:54:11Z</time>
      </trkpt>
      <trkpt lat="45.7693209964782" lon="8.520579999312758">
        <ele>391.38999999999999</ele>
        <time>2025-05-19T14:54:12Z</time>
      </trkpt>
      <trkpt lat="45.769385034218431" lon="8.520426023751497">
        <ele>392.36000000000001</ele>
        <time>2025-05-19T14:54:13Z</time>
      </trkpt>
      <trkpt lat="45.769447982311249" lon="8.520270958542824">
        <ele>392.83999999999997</ele>
        <time>2025-05-19T14:54:14Z</time>
      </trkpt>
      <trkpt lat="45.769512020051479" lon="8.520116982981563">
        <ele>393.80000000000001</ele>
        <time>2025-05-19T14:54:15Z</time>
      </trkpt>
      <trkpt lat="45.769639005884528" lon="8.519806014373899">
        <ele>395.72000000000003</ele>
        <time>2025-05-19T14:54:17Z</time>
      </trkpt>
      <trkpt lat="45.769703965634108" lon="8.519648015499115">
        <ele>396.68000000000001</ele>
        <time>2025-05-19T14:54:18Z</time>
      </trkpt>
      <trkpt lat="45.769762974232435" lon="8.519484987482429">
        <ele>398.12</ele>
        <time>2025-05-19T14:54:19Z</time>
      </trkpt>
      <trkpt lat="45.770128006115556" lon="8.517999965697527">
        <ele>406.29000000000002</ele>
        <time>2025-05-19T14:54:28Z</time>
      </trkpt>
      <trkpt lat="45.77056503854692" lon="8.516525002196431">
        <ele>412.06</ele>
        <time>2025-05-19T14:54:37Z</time>
      </trkpt>
      <trkpt lat="45.770781962200999" lon="8.515669964253902">
        <ele>415.91000000000003</ele>
        <time>2025-05-19T14:54:42Z</time>
      </trkpt>
      <trkpt lat="45.770947001874447" lon="8.515182975679636">
        <ele>417.35000000000002</ele>
        <time>2025-05-19T14:54:45Z</time>
      </trkpt>
      <trkpt lat="45.770994024351239" lon="8.515019025653601">
        <ele>417.35000000000002</ele>
        <time>2025-05-19T14:54:46Z</time>
      </trkpt>
      <trkpt lat="45.77103903517127" lon="8.514854991808534">
        <ele>417.82999999999998</ele>
        <time>2025-05-19T14:54:47Z</time>
      </trkpt>
      <trkpt lat="45.77112503349781" lon="8.514474034309387">
        <ele>418.31</ele>
        <time>2025-05-19T14:54:50Z</time>
      </trkpt>
      <trkpt lat="45.771183958277106" lon="8.51424696855247">
        <ele>419.75</ele>
        <time>2025-05-19T14:54:52Z</time>
      </trkpt>
      <trkpt lat="45.771215977147222" lon="8.51413699798286">
        <ele>420.23000000000002</ele>
        <time>2025-05-19T14:54:53Z</time>
      </trkpt>
      <trkpt lat="45.771370958536863" lon="8.513813959434629">
        <ele>421.19</ele>
        <time>2025-05-19T14:54:57Z</time>
      </trkpt>
      <trkpt lat="45.77140599489212" lon="8.513718992471695">
        <ele>421.68000000000001</ele>
        <time>2025-05-19T14:54:58Z</time>
      </trkpt>
      <trkpt lat="45.77146902680397" lon="8.513511037454009">
        <ele>422.63999999999999</ele>
        <time>2025-05-19T14:55:00Z</time>
      </trkpt>
      <trkpt lat="45.77151495963335" lon="8.51330098696053">
        <ele>423.60000000000002</ele>
        <time>2025-05-19T14:55:02Z</time>
      </trkpt>
      <trkpt lat="45.771541027352214" lon="8.513208031654358">
        <ele>424.07999999999998</ele>
        <time>2025-05-19T14:55:03Z</time>
      </trkpt>
      <trkpt lat="45.771574974060059" lon="8.513138964772224">
        <ele>424.56</ele>
        <time>2025-05-19T14:55:04Z</time>
      </trkpt>
      <trkpt lat="45.771617973223329" lon="8.513052966445684">
        <ele>425.04000000000002</ele>
        <time>2025-05-19T14:55:05Z</time>
      </trkpt>
      <trkpt lat="45.771713024005294" lon="8.513035029172897">
        <ele>425.51999999999998</ele>
        <time>2025-05-19T14:55:06Z</time>
      </trkpt>
      <trkpt lat="45.77177002094686" lon="8.513082973659039">
        <ele>426</ele>
        <time>2025-05-19T14:55:07Z</time>
      </trkpt>
      <trkpt lat="45.77183498069644" lon="8.513137958943844">
        <ele>426</ele>
        <time>2025-05-19T14:55:08Z</time>
      </trkpt>
      <trkpt lat="45.771905975416303" lon="8.513198979198933">
        <ele>426.48000000000002</ele>
        <time>2025-05-19T14:55:09Z</time>
      </trkpt>
      <trkpt lat="45.77196498401463" lon="8.513247007504106">
        <ele>426.48000000000002</ele>
        <time>2025-05-19T14:55:10Z</time>
      </trkpt>
      <trkpt lat="45.772048970684409" lon="8.513268968090415">
        <ele>427.44</ele>
        <time>2025-05-19T14:55:11Z</time>
      </trkpt>
      <trkpt lat="45.772133963182569" lon="8.513293024152517">
        <ele>427.92000000000002</ele>
        <time>2025-05-19T14:55:12Z</time>
      </trkpt>
      <trkpt lat="45.772218033671379" lon="8.513307021930814">
        <ele>428.39999999999998</ele>
        <time>2025-05-19T14:55:13Z</time>
      </trkpt>
      <trkpt lat="45.772325992584229" lon="8.513291012495756">
        <ele>428.88999999999999</ele>
        <time>2025-05-19T14:55:14Z</time>
      </trkpt>
      <trkpt lat="45.772546017542481" lon="8.51325798779726">
        <ele>428.88999999999999</ele>
        <time>2025-05-19T14:55:16Z</time>
      </trkpt>
      <trkpt lat="45.772665962576866" lon="8.513263016939163">
        <ele>428.88999999999999</ele>
        <time>2025-05-19T14:55:17Z</time>
      </trkpt>
      <trkpt lat="45.772766964510083" lon="8.513310039415956">
        <ele>429.37</ele>
        <time>2025-05-19T14:55:18Z</time>
      </trkpt>
      <trkpt lat="45.773315979167819" lon="8.513559987768531">
        <ele>429.37</ele>
        <time>2025-05-19T14:55:23Z</time>
      </trkpt>
      <trkpt lat="45.773409018293023" lon="8.513585971668363">
        <ele>429.37</ele>
        <time>2025-05-19T14:55:24Z</time>
      </trkpt>
      <trkpt lat="45.773524018004537" lon="8.513572979718447">
        <ele>429.37</ele>
        <time>2025-05-19T14:55:25Z</time>
      </trkpt>
      <trkpt lat="45.773625019937754" lon="8.513513971120119">
        <ele>429.37</ele>
        <time>2025-05-19T14:55:26Z</time>
      </trkpt>
      <trkpt lat="45.773728033527732" lon="8.513410035520792">
        <ele>429.37</ele>
        <time>2025-05-19T14:55:27Z</time>
      </trkpt>
      <trkpt lat="45.773831969127059" lon="8.513306016102433">
        <ele>429.85000000000002</ele>
        <time>2025-05-19T14:55:28Z</time>
      </trkpt>
      <trkpt lat="45.773930959403515" lon="8.513208031654358">
        <ele>430.32999999999998</ele>
        <time>2025-05-19T14:55:29Z</time>
      </trkpt>
      <trkpt lat="45.774117959663272" lon="8.513045003637672">
        <ele>430.81</ele>
        <time>2025-05-19T14:55:31Z</time>
      </trkpt>
      <trkpt lat="45.774217033758759" lon="8.512993035838008">
        <ele>430.81</ele>
        <time>2025-05-19T14:55:32Z</time>
      </trkpt>
      <trkpt lat="45.774317029863596" lon="8.512939978390932">
        <ele>431.29000000000002</ele>
        <time>2025-05-19T14:55:33Z</time>
      </trkpt>
      <trkpt lat="45.77441199682653" lon="8.512893039733172">
        <ele>431.76999999999998</ele>
        <time>2025-05-19T14:55:34Z</time>
      </trkpt>
      <trkpt lat="45.774502018466592" lon="8.512858003377914">
        <ele>432.25</ele>
        <time>2025-05-19T14:55:35Z</time>
      </trkpt>
      <trkpt lat="45.774664962664247" lon="8.512794971466065">
        <ele>432.73000000000002</ele>
        <time>2025-05-19T14:55:37Z</time>
      </trkpt>
      <trkpt lat="45.775364013388753" lon="8.512305971235037">
        <ele>435.61000000000001</ele>
        <time>2025-05-19T14:55:44Z</time>
      </trkpt>
      <trkpt lat="45.775466021150351" lon="8.512227013707161">
        <ele>436.10000000000002</ele>
        <time>2025-05-19T14:55:45Z</time>
      </trkpt>
      <trkpt lat="45.775618990883231" lon="8.511958960443735">
        <ele>436.57999999999998</ele>
        <time>2025-05-19T14:55:47Z</time>
      </trkpt>
      <trkpt lat="45.775679005309939" lon="8.511814959347248">
        <ele>436.57999999999998</ele>
        <time>2025-05-19T14:55:48Z</time>
      </trkpt>
      <trkpt lat="45.775737008079886" lon="8.51166601292789">
        <ele>437.06</ele>
        <time>2025-05-19T14:55:49Z</time>
      </trkpt>
      <trkpt lat="45.775947980582714" lon="8.511243984103203">
        <ele>437.54000000000002</ele>
        <time>2025-05-19T14:55:52Z</time>
      </trkpt>
      <trkpt lat="45.776040013879538" lon="8.511138958856463">
        <ele>438.01999999999998</ele>
        <time>2025-05-19T14:55:53Z</time>
      </trkpt>
      <trkpt lat="45.77613296918571" lon="8.511032005771995">
        <ele>438.01999999999998</ele>
        <time>2025-05-19T14:55:54Z</time>
      </trkpt>
      <trkpt lat="45.776222990825772" lon="8.510962016880512">
        <ele>438.5</ele>
        <time>2025-05-19T14:55:55Z</time>
      </trkpt>
      <trkpt lat="45.776340002194047" lon="8.51089496165514">
        <ele>438.5</ele>
        <time>2025-05-19T14:55:56Z</time>
      </trkpt>
      <trkpt lat="45.776461036875844" lon="8.510826984420419">
        <ele>438.5</ele>
        <time>2025-05-19T14:55:57Z</time>
      </trkpt>
      <trkpt lat="45.776587016880512" lon="8.510756995528936">
        <ele>438.01999999999998</ele>
        <time>2025-05-19T14:55:58Z</time>
      </trkpt>
      <trkpt lat="45.776853980496526" lon="8.510606037452817">
        <ele>437.54000000000002</ele>
        <time>2025-05-19T14:56:00Z</time>
      </trkpt>
      <trkpt lat="45.777774984017015" lon="8.509645974263549">
        <ele>434.17000000000002</ele>
        <time>2025-05-19T14:56:09Z</time>
      </trkpt>
      <trkpt lat="45.777779007330537" lon="8.509536003693938">
        <ele>433.20999999999998</ele>
        <time>2025-05-19T14:56:10Z</time>
      </trkpt>
      <trkpt lat="45.777783030644059" lon="8.509393008425832">
        <ele>432.73000000000002</ele>
        <time>2025-05-19T14:56:11Z</time>
      </trkpt>
      <trkpt lat="45.77778697013855" lon="8.509235009551048">
        <ele>432.25</ele>
        <time>2025-05-19T14:56:12Z</time>
      </trkpt>
      <trkpt lat="45.777790993452072" lon="8.509070975705981">
        <ele>431.76999999999998</ele>
        <time>2025-05-19T14:56:13Z</time>
      </trkpt>
      <trkpt lat="45.777798034250736" lon="8.508761012926698">
        <ele>430.81</ele>
        <time>2025-05-19T14:56:15Z</time>
      </trkpt>
      <trkpt lat="45.777778001502156" lon="8.508578035980463">
        <ele>430.32999999999998</ele>
        <time>2025-05-19T14:56:16Z</time>
      </trkpt>
      <trkpt lat="45.777755035087466" lon="8.508375026285648">
        <ele>429.37</ele>
        <time>2025-05-19T14:56:17Z</time>
      </trkpt>
      <trkpt lat="45.777710024267435" lon="8.508258014917374">
        <ele>428.88999999999999</ele>
        <time>2025-05-19T14:56:18Z</time>
      </trkpt>
      <trkpt lat="45.777646992355585" lon="8.508095992729068">
        <ele>428.39999999999998</ele>
        <time>2025-05-19T14:56:19Z</time>
      </trkpt>
      <trkpt lat="45.777579015120864" lon="8.507938999682665">
        <ele>427.44</ele>
        <time>2025-05-19T14:56:20Z</time>
      </trkpt>
      <trkpt lat="45.777238039299846" lon="8.507271967828274">
        <ele>421.19</ele>
        <time>2025-05-19T14:56:25Z</time>
      </trkpt>
      <trkpt lat="45.777174001559615" lon="8.50713400170207">
        <ele>420.70999999999998</ele>
        <time>2025-05-19T14:56:26Z</time>
      </trkpt>
      <trkpt lat="45.77716302126646" lon="8.506998969241977">
        <ele>419.75</ele>
        <time>2025-05-19T14:56:27Z</time>
      </trkpt>
      <trkpt lat="45.777133014053106" lon="8.506657993420959">
        <ele>417.35000000000002</ele>
        <time>2025-05-19T14:56:30Z</time>
      </trkpt>
      <trkpt lat="45.777112981304526" lon="8.506550034508109">
        <ele>416.38999999999999</ele>
        <time>2025-05-19T14:56:31Z</time>
      </trkpt>
      <trkpt lat="45.776736969128251" lon="8.505717040970922">
        <ele>410.62</ele>
        <time>2025-05-19T14:56:37Z</time>
      </trkpt>
      <trkpt lat="45.776654994115233" lon="8.50558603182435">
        <ele>409.66000000000003</ele>
        <time>2025-05-19T14:56:38Z</time>
      </trkpt>
      <trkpt lat="45.776577964425087" lon="8.505471032112837">
        <ele>408.69999999999999</ele>
        <time>2025-05-19T14:56:39Z</time>
      </trkpt>
      <trkpt lat="45.776461958885193" lon="8.505297023802996">
        <ele>407.74000000000001</ele>
        <time>2025-05-19T14:56:41Z</time>
      </trkpt>
      <trkpt lat="45.776419965550303" lon="8.505234997719526">
        <ele>407.74000000000001</ele>
        <time>2025-05-19T14:56:42Z</time>
      </trkpt>
      <trkpt lat="45.776398004963994" lon="8.505165008828044">
        <ele>407.25999999999999</ele>
        <time>2025-05-19T14:56:43Z</time>
      </trkpt>
      <trkpt lat="45.776443015784025" lon="8.505128966644406">
        <ele>406.76999999999998</ele>
        <time>2025-05-19T14:56:44Z</time>
      </trkpt>
      <trkpt lat="45.776485009118915" lon="8.505095019936562">
        <ele>406.29000000000002</ele>
        <time>2025-05-19T14:56:45Z</time>
      </trkpt>
      <trkpt lat="45.776563966646791" lon="8.505166014656425">
        <ele>405.81</ele>
        <time>2025-05-19T14:56:46Z</time>
      </trkpt>
      <trkpt lat="45.77662699855864" lon="8.505240026861429">
        <ele>405.32999999999998</ele>
        <time>2025-05-19T14:56:47Z</time>
      </trkpt>
      <trkpt lat="45.776864038780332" lon="8.505520988255739">
        <ele>402.93000000000001</ele>
        <time>2025-05-19T14:56:50Z</time>
      </trkpt>
      <trkpt lat="45.776957999914885" lon="8.50563196465373">
        <ele>402.44999999999999</ele>
        <time>2025-05-19T14:56:51Z</time>
      </trkpt>
      <trkpt lat="45.777152040973306" lon="8.505862969905138">
        <ele>401.00999999999999</ele>
        <time>2025-05-19T14:56:53Z</time>
      </trkpt>
      <trkpt lat="45.777246002107859" lon="8.505974030122161">
        <ele>400.05000000000001</ele>
        <time>2025-05-19T14:56:54Z</time>
      </trkpt>
      <trkpt lat="45.777408024296165" lon="8.506233030930162">
        <ele>399.07999999999998</ele>
        <time>2025-05-19T14:56:56Z</time>
      </trkpt>
      <trkpt lat="45.777488993480802" lon="8.506364040076733">
        <ele>398.12</ele>
        <time>2025-05-19T14:56:57Z</time>
      </trkpt>
      <trkpt lat="45.778105985373259" lon="8.50749702192843">
        <ele>391.38999999999999</ele>
        <time>2025-05-19T14:57:06Z</time>
      </trkpt>
      <trkpt lat="45.778168011456728" lon="8.50760699249804">
        <ele>390.43000000000001</ele>
        <time>2025-05-19T14:57:07Z</time>
      </trkpt>
      <trkpt lat="45.778311006724834" lon="8.507749987766147">
        <ele>389.94999999999999</ele>
        <time>2025-05-19T14:57:09Z</time>
      </trkpt>
      <trkpt lat="45.778377978131175" lon="8.507816959172487">
        <ele>389.47000000000003</ele>
        <time>2025-05-19T14:57:10Z</time>
      </trkpt>
      <trkpt lat="45.778444027528167" lon="8.507800027728081">
        <ele>389.47000000000003</ele>
        <time>2025-05-19T14:57:11Z</time>
      </trkpt>
      <trkpt lat="45.778500018641353" lon="8.507759040221572">
        <ele>389.47000000000003</ele>
        <time>2025-05-19T14:57:12Z</time>
      </trkpt>
      <trkpt lat="45.778549974784255" lon="8.507707994431257">
        <ele>388.99000000000001</ele>
        <time>2025-05-19T14:57:13Z</time>
      </trkpt>
      <trkpt lat="45.778653994202614" lon="8.507528034970164">
        <ele>387.55000000000001</ele>
        <time>2025-05-19T14:57:20Z</time>
      </trkpt>
      <trkpt lat="45.778978038579226" lon="8.506937026977539">
        <ele>384.18000000000001</ele>
        <time>2025-05-19T14:57:31Z</time>
      </trkpt>
      <trkpt lat="45.779507020488381" lon="8.505878979340196">
        <ele>379.38</ele>
        <time>2025-05-19T14:57:43Z</time>
      </trkpt>
      <trkpt lat="45.779538033530116" lon="8.505812007933855">
        <ele>378.42000000000002</ele>
        <time>2025-05-19T14:57:44Z</time>
      </trkpt>
      <trkpt lat="45.779563011601567" lon="8.505760040134192">
        <ele>377.94</ele>
        <time>2025-05-19T14:57:45Z</time>
      </trkpt>
      <trkpt lat="45.779579021036625" lon="8.505726009607315">
        <ele>377.94</ele>
        <time>2025-05-19T14:57:46Z</time>
      </trkpt>
      <trkpt lat="45.779579021036625" lon="8.505726009607315">
        <ele>376.97000000000003</ele>
        <time>2025-05-19T14:57:55Z</time>
      </trkpt>
      <trkpt lat="45.779579021036625" lon="8.505726009607315">
        <ele>376.49000000000001</ele>
        <time>2025-05-19T14:58:39Z</time>
      </trkpt>
      <trkpt lat="45.779579021036625" lon="8.505726009607315">
        <ele>376.49000000000001</ele>
        <time>2025-05-19T14:59:37Z</time>
      </trkpt>
      <trkpt lat="45.779596036300063" lon="8.505688039585948">
        <ele>376.49000000000001</ele>
        <time>2025-05-19T15:00:12Z</time>
      </trkpt>
      <trkpt lat="45.779603999108076" lon="8.50567203015089">
        <ele>376.97000000000003</ele>
        <time>2025-05-19T15:00:13Z</time>
      </trkpt>
      <trkpt lat="45.77965303324163" lon="8.505568010732532">
        <ele>377.94</ele>
        <time>2025-05-19T15:00:17Z</time>
      </trkpt>
      <trkpt lat="45.779683040454984" lon="8.505512019619346">
        <ele>377.44999999999999</ele>
        <time>2025-05-19T15:00:18Z</time>
      </trkpt>
      <trkpt lat="45.779896024614573" lon="8.505152016878128">
        <ele>377.94</ele>
        <time>2025-05-19T15:00:22Z</time>
      </trkpt>
      <trkpt lat="45.780264995992184" lon="8.504621023312211">
        <ele>378.42000000000002</ele>
        <time>2025-05-19T15:00:27Z</time>
      </trkpt>
      <trkpt lat="45.780332973226905" lon="8.504532007500529">
        <ele>378.89999999999998</ele>
        <time>2025-05-19T15:00:28Z</time>
      </trkpt>
      <trkpt lat="45.780388964340091" lon="8.504459001123905">
        <ele>379.38</ele>
        <time>2025-05-19T15:00:29Z</time>
      </trkpt>
      <trkpt lat="45.780437998473644" lon="8.504395969212055">
        <ele>379.86000000000001</ele>
        <time>2025-05-19T15:00:30Z</time>
      </trkpt>
      <trkpt lat="45.780588034540415" lon="8.504448020830751">
        <ele>379.86000000000001</ele>
        <time>2025-05-19T15:00:31Z</time>
      </trkpt>
      <trkpt lat="45.780739998444915" lon="8.504354981705546">
        <ele>380.33999999999997</ele>
        <time>2025-05-19T15:00:33Z</time>
      </trkpt>
      <trkpt lat="45.780856003984809" lon="8.504392029717565">
        <ele>380.33999999999997</ele>
        <time>2025-05-19T15:00:34Z</time>
      </trkpt>
      <trkpt lat="45.781112993136048" lon="8.504474004730582">
        <ele>380.81999999999999</ele>
        <time>2025-05-19T15:00:36Z</time>
      </trkpt>
      <trkpt lat="45.781379034742713" lon="8.504472998902202">
        <ele>380.33999999999997</ele>
        <time>2025-05-19T15:00:38Z</time>
      </trkpt>
      <trkpt lat="45.781518006697297" lon="8.504436034709215">
        <ele>379.86000000000001</ele>
        <time>2025-05-19T15:00:39Z</time>
      </trkpt>
      <trkpt lat="45.782027039676905" lon="8.504178961738944">
        <ele>378.42000000000002</ele>
        <time>2025-05-19T15:00:43Z</time>
      </trkpt>
      <trkpt lat="45.782132986932993" lon="8.504148032516241">
        <ele>377.94</ele>
        <time>2025-05-19T15:00:44Z</time>
      </trkpt>
      <trkpt lat="45.782255027443171" lon="8.504157001152635">
        <ele>377.94</ele>
        <time>2025-05-19T15:00:45Z</time>
      </trkpt>
      <trkpt lat="45.782376984134316" lon="8.504165969789028">
        <ele>377.94</ele>
        <time>2025-05-19T15:00:46Z</time>
      </trkpt>
      <trkpt lat="45.782501036301255" lon="8.504176028072834">
        <ele>377.94</ele>
        <time>2025-05-19T15:00:47Z</time>
      </trkpt>
      <trkpt lat="45.783538967370987" lon="8.504307037219405">
        <ele>378.89999999999998</ele>
        <time>2025-05-19T15:00:55Z</time>
      </trkpt>
      <trkpt lat="45.783666959032416" lon="8.504322962835431">
        <ele>378.89999999999998</ele>
        <time>2025-05-19T15:00:56Z</time>
      </trkpt>
      <trkpt lat="45.784267019480467" lon="8.504393035545945">
        <ele>382.25999999999999</ele>
        <time>2025-05-19T15:01:01Z</time>
      </trkpt>
      <trkpt lat="45.785614997148514" lon="8.504587998613715">
        <ele>387.55000000000001</ele>
        <time>2025-05-19T15:01:12Z</time>
      </trkpt>
      <trkpt lat="45.786482021212578" lon="8.504698975011706">
        <ele>389.47000000000003</ele>
        <time>2025-05-19T15:01:19Z</time>
      </trkpt>
      <trkpt lat="45.787536967545748" lon="8.505396014079452">
        <ele>388.50999999999999</ele>
        <time>2025-05-19T15:01:29Z</time>
      </trkpt>
      <trkpt lat="45.788254039362073" lon="8.505899012088776">
        <ele>388.50999999999999</ele>
        <time>2025-05-19T15:01:39Z</time>
      </trkpt>
      <trkpt lat="45.789262969046831" lon="8.506404021754861">
        <ele>388.99000000000001</ele>
        <time>2025-05-19T15:01:49Z</time>
      </trkpt>
      <trkpt lat="45.790437022224069" lon="8.506813980638981">
        <ele>394.27999999999997</ele>
        <time>2025-05-19T15:01:58Z</time>
      </trkpt>
      <trkpt lat="45.791476964950562" lon="8.50719996728003">
        <ele>402.93000000000001</ele>
        <time>2025-05-19T15:02:06Z</time>
      </trkpt>
      <trkpt lat="45.792568037286401" lon="8.508233958855271">
        <ele>408.69999999999999</ele>
        <time>2025-05-19T15:02:15Z</time>
      </trkpt>
      <trkpt lat="45.793880978599191" lon="8.509997008368373">
        <ele>414.94999999999999</ele>
        <time>2025-05-19T15:02:28Z</time>
      </trkpt>
      <trkpt lat="45.795083027333021" lon="8.511549001559615">
        <ele>423.12</ele>
        <time>2025-05-19T15:02:39Z</time>
      </trkpt>
      <trkpt lat="45.796728981658816" lon="8.513109963387251">
        <ele>432.25</ele>
        <time>2025-05-19T15:02:52Z</time>
      </trkpt>
      <trkpt lat="45.798137979581952" lon="8.514043036848307">
        <ele>439.94</ele>
        <time>2025-05-19T15:03:03Z</time>
      </trkpt>
      <trkpt lat="45.799297029152513" lon="8.514866977930069">
        <ele>447.14999999999998</ele>
        <time>2025-05-19T15:03:12Z</time>
      </trkpt>
      <trkpt lat="45.799814024940133" lon="8.515349021181464">
        <ele>451</ele>
        <time>2025-05-19T15:03:16Z</time>
      </trkpt>
      <trkpt lat="45.800725976005197" lon="8.516506981104612">
        <ele>456.27999999999997</ele>
        <time>2025-05-19T15:03:25Z</time>
      </trkpt>
      <trkpt lat="45.800831001251936" lon="8.516643019393086">
        <ele>455.80000000000001</ele>
        <time>2025-05-19T15:03:26Z</time>
      </trkpt>
      <trkpt lat="45.801443969830871" lon="8.517494034022093">
        <ele>451.95999999999998</ele>
        <time>2025-05-19T15:03:32Z</time>
      </trkpt>
      <trkpt lat="45.801832973957062" lon="8.518185038119555">
        <ele>447.63</ele>
        <time>2025-05-19T15:03:37Z</time>
      </trkpt>
      <trkpt lat="45.801930958405137" lon="8.518295008689165">
        <ele>446.67000000000002</ele>
        <time>2025-05-19T15:03:38Z</time>
      </trkpt>
      <trkpt lat="45.802031960338354" lon="8.518402967602015">
        <ele>445.70999999999998</ele>
        <time>2025-05-19T15:03:39Z</time>
      </trkpt>
      <trkpt lat="45.802136985585093" lon="8.518508998677135">
        <ele>444.75</ele>
        <time>2025-05-19T15:03:40Z</time>
      </trkpt>
      <trkpt lat="45.802262965589762" lon="8.518568007275462">
        <ele>443.79000000000002</ele>
        <time>2025-05-19T15:03:41Z</time>
      </trkpt>
      <trkpt lat="45.802396992221475" lon="8.518621986731887">
        <ele>443.31</ele>
        <time>2025-05-19T15:03:42Z</time>
      </trkpt>
      <trkpt lat="45.802534958347678" lon="8.51867001503706">
        <ele>442.33999999999997</ele>
        <time>2025-05-19T15:03:43Z</time>
      </trkpt>
      <trkpt lat="45.802675019949675" lon="8.518708990886807">
        <ele>441.38</ele>
        <time>2025-05-19T15:03:44Z</time>
      </trkpt>
      <trkpt lat="45.803067963570356" lon="8.518923986703157">
        <ele>438.98000000000002</ele>
        <time>2025-05-19T15:03:47Z</time>
      </trkpt>
      <trkpt lat="45.803191009908915" lon="8.519020965322852">
        <ele>438.01999999999998</ele>
        <time>2025-05-19T15:03:48Z</time>
      </trkpt>
      <trkpt lat="45.803295029327273" lon="8.519129008054733">
        <ele>437.06</ele>
        <time>2025-05-19T15:03:49Z</time>
      </trkpt>
      <trkpt lat="45.803383961319923" lon="8.519281977787614">
        <ele>435.61000000000001</ele>
        <time>2025-05-19T15:03:50Z</time>
      </trkpt>
      <trkpt lat="45.803473982959986" lon="8.519437965005636">
        <ele>434.64999999999998</ele>
        <time>2025-05-19T15:03:51Z</time>
      </trkpt>
      <trkpt lat="45.803562998771667" lon="8.519592024385929">
        <ele>433.20999999999998</ele>
        <time>2025-05-19T15:03:52Z</time>
      </trkpt>
      <trkpt lat="45.804375037550926" lon="8.520996998995543">
        <ele>431.76999999999998</ele>
        <time>2025-05-19T15:04:02Z</time>
      </trkpt>
      <trkpt lat="45.805368963629007" lon="8.52255997247994">
        <ele>436.57999999999998</ele>
        <time>2025-05-19T15:04:14Z</time>
      </trkpt>
      <trkpt lat="45.806112019345164" lon="8.523451974615455">
        <ele>438.01999999999998</ele>
        <time>2025-05-19T15:04:22Z</time>
      </trkpt>
      <trkpt lat="45.806218972429633" lon="8.523530010133982">
        <ele>438.5</ele>
        <time>2025-05-19T15:04:23Z</time>
      </trkpt>
      <trkpt lat="45.806322991847992" lon="8.523605028167367">
        <ele>439.45999999999998</ele>
        <time>2025-05-19T15:04:24Z</time>
      </trkpt>
      <trkpt lat="45.806782990694046" lon="8.523732014000416">
        <ele>442.33999999999997</ele>
        <time>2025-05-19T15:04:28Z</time>
      </trkpt>
      <trkpt lat="45.806886004284024" lon="8.523777024820447">
        <ele>443.31</ele>
        <time>2025-05-19T15:04:29Z</time>
      </trkpt>
      <trkpt lat="45.807256987318397" lon="8.523992020636797">
        <ele>445.70999999999998</ele>
        <time>2025-05-19T15:04:33Z</time>
      </trkpt>
      <trkpt lat="45.807343991473317" lon="8.524071983993053">
        <ele>446.19</ele>
        <time>2025-05-19T15:04:34Z</time>
      </trkpt>
      <trkpt lat="45.807428983971477" lon="8.524151025339961">
        <ele>446.67000000000002</ele>
        <time>2025-05-19T15:04:35Z</time>
      </trkpt>
      <trkpt lat="45.8075210172683" lon="8.524241968989372">
        <ele>446.67000000000002</ele>
        <time>2025-05-19T15:04:36Z</time>
      </trkpt>
      <trkpt lat="45.807563010603189" lon="8.524354035034776">
        <ele>447.14999999999998</ele>
        <time>2025-05-19T15:04:37Z</time>
      </trkpt>
      <trkpt lat="45.807645991444588" lon="8.524574982002378">
        <ele>447.14999999999998</ele>
        <time>2025-05-19T15:04:39Z</time>
      </trkpt>
      <trkpt lat="45.807675998657942" lon="8.524699034169316">
        <ele>447.14999999999998</ele>
        <time>2025-05-19T15:04:40Z</time>
      </trkpt>
      <trkpt lat="45.807773983106017" lon="8.525107987225056">
        <ele>445.23000000000002</ele>
        <time>2025-05-19T15:04:43Z</time>
      </trkpt>
      <trkpt lat="45.807806001976132" lon="8.525222986936569">
        <ele>444.26999999999998</ele>
        <time>2025-05-19T15:04:44Z</time>
      </trkpt>
      <trkpt lat="45.807851012796164" lon="8.525334969162941">
        <ele>443.79000000000002</ele>
        <time>2025-05-19T15:04:45Z</time>
      </trkpt>
      <trkpt lat="45.808045975863934" lon="8.525722967460752">
        <ele>439.94</ele>
        <time>2025-05-19T15:04:50Z</time>
      </trkpt>
      <trkpt lat="45.8081029728055" lon="8.52578298188746">
        <ele>438.98000000000002</ele>
        <time>2025-05-19T15:04:52Z</time>
      </trkpt>
      <trkpt lat="45.808126023039222" lon="8.525807037949562">
        <ele>438.5</ele>
        <time>2025-05-19T15:04:53Z</time>
      </trkpt>
      <trkpt lat="45.808142032474279" lon="8.525822041556239">
        <ele>438.01999999999998</ele>
        <time>2025-05-19T15:04:54Z</time>
      </trkpt>
      <trkpt lat="45.808142032474279" lon="8.525822041556239">
        <ele>436.57999999999998</ele>
        <time>2025-05-19T15:05:08Z</time>
      </trkpt>
      <trkpt lat="45.808356022462249" lon="8.525994038209319">
        <ele>434.64999999999998</ele>
        <time>2025-05-19T15:05:22Z</time>
      </trkpt>
      <trkpt lat="45.808613011613488" lon="8.526089005172253">
        <ele>435.13</ele>
        <time>2025-05-19T15:05:25Z</time>
      </trkpt>
      <trkpt lat="45.80926202237606" lon="8.52621397934854">
        <ele>437.06</ele>
        <time>2025-05-19T15:05:31Z</time>
      </trkpt>
      <trkpt lat="45.809354977682233" lon="8.526239041239023">
        <ele>437.54000000000002</ele>
        <time>2025-05-19T15:05:32Z</time>
      </trkpt>
      <trkpt lat="45.809442987665534" lon="8.526314981281757">
        <ele>437.54000000000002</ele>
        <time>2025-05-19T15:05:33Z</time>
      </trkpt>
      <trkpt lat="45.809522029012442" lon="8.526408020406961">
        <ele>437.54000000000002</ele>
        <time>2025-05-19T15:05:34Z</time>
      </trkpt>
      <trkpt lat="45.809586988762021" lon="8.526528971269727">
        <ele>437.54000000000002</ele>
        <time>2025-05-19T15:05:35Z</time>
      </trkpt>
      <trkpt lat="45.809647003188729" lon="8.526653023436666">
        <ele>437.54000000000002</ele>
        <time>2025-05-19T15:05:36Z</time>
      </trkpt>
      <trkpt lat="45.809709029272199" lon="8.526779003441334">
        <ele>437.54000000000002</ele>
        <time>2025-05-19T15:05:37Z</time>
      </trkpt>
      <trkpt lat="45.810339013114572" lon="8.528248015791178">
        <ele>441.86000000000001</ele>
        <time>2025-05-19T15:05:48Z</time>
      </trkpt>
      <trkpt lat="45.810939995571971" lon="8.529762960970402">
        <ele>439.94</ele>
        <time>2025-05-19T15:05:57Z</time>
      </trkpt>
      <trkpt lat="45.811278037726879" lon="8.530449019744992">
        <ele>439.45999999999998</ele>
        <time>2025-05-19T15:06:01Z</time>
      </trkpt>
      <trkpt lat="45.811383984982967" lon="8.530604001134634">
        <ele>439.94</ele>
        <time>2025-05-19T15:06:02Z</time>
      </trkpt>
      <trkpt lat="45.812690975144506" lon="8.532107966020703">
        <ele>446.19</ele>
        <time>2025-05-19T15:06:13Z</time>
      </trkpt>
      <trkpt lat="45.813075033947825" lon="8.53267902508378">
        <ele>448.11000000000001</ele>
        <time>2025-05-19T15:06:17Z</time>
      </trkpt>
      <trkpt lat="45.813167989253998" lon="8.532815985381603">
        <ele>448.11000000000001</ele>
        <time>2025-05-19T15:06:18Z</time>
      </trkpt>
      <trkpt lat="45.814580004662275" lon="8.535026041790843">
        <ele>450.02999999999997</ele>
        <time>2025-05-19T15:06:33Z</time>
      </trkpt>
      <trkpt lat="45.814698021858931" lon="8.535163002088666">
        <ele>449.55000000000001</ele>
        <time>2025-05-19T15:06:34Z</time>
      </trkpt>
      <trkpt lat="45.814825007691979" lon="8.53527800180018">
        <ele>449.55000000000001</ele>
        <time>2025-05-19T15:06:35Z</time>
      </trkpt>
      <trkpt lat="45.814961967989802" lon="8.535358970984817">
        <ele>449.06999999999999</ele>
        <time>2025-05-19T15:06:36Z</time>
      </trkpt>
      <trkpt lat="45.815101023763418" lon="8.535414040088654">
        <ele>449.06999999999999</ele>
        <time>2025-05-19T15:06:37Z</time>
      </trkpt>
      <trkpt lat="45.815241001546383" lon="8.535470031201839">
        <ele>448.58999999999997</ele>
        <time>2025-05-19T15:06:38Z</time>
      </trkpt>
      <trkpt lat="45.816902965307236" lon="8.536058021709323">
        <ele>452.92000000000002</ele>
        <time>2025-05-19T15:06:50Z</time>
      </trkpt>
      <trkpt lat="45.817306973040104" lon="8.536192970350385">
        <ele>454.36000000000001</ele>
        <time>2025-05-19T15:06:53Z</time>
      </trkpt>
      <trkpt lat="45.818728040903807" lon="8.536650035530329">
        <ele>463.00999999999999</ele>
        <time>2025-05-19T15:07:04Z</time>
      </trkpt>
      <trkpt lat="45.81931795924902" lon="8.536838041618466">
        <ele>470.69999999999999</ele>
        <time>2025-05-19T15:07:11Z</time>
      </trkpt>
      <trkpt lat="45.819395994767547" lon="8.53686997666955">
        <ele>471.66000000000003</ele>
        <time>2025-05-19T15:07:12Z</time>
      </trkpt>
      <trkpt lat="45.820129998028278" lon="8.537081032991409">
        <ele>476.94999999999999</ele>
        <time>2025-05-19T15:07:20Z</time>
      </trkpt>
      <trkpt lat="45.820222031325102" lon="8.537119003012776">
        <ele>477.43000000000001</ele>
        <time>2025-05-19T15:07:21Z</time>
      </trkpt>
      <trkpt lat="45.8206279668957" lon="8.537364006042481">
        <ele>476.47000000000003</ele>
        <time>2025-05-19T15:07:25Z</time>
      </trkpt>
      <trkpt lat="45.820642970502377" lon="8.53738403879106">
        <ele>475.50999999999999</ele>
        <time>2025-05-19T15:07:26Z</time>
      </trkpt>
      <trkpt lat="45.820742966607213" lon="8.537602974101901">
        <ele>474.55000000000001</ele>
        <time>2025-05-19T15:07:28Z</time>
      </trkpt>
      <trkpt lat="45.820746989920735" lon="8.537732977420092">
        <ele>474.06999999999999</ele>
        <time>2025-05-19T15:07:29Z</time>
      </trkpt>
      <trkpt lat="45.820732992142439" lon="8.537826016545296">
        <ele>474.06999999999999</ele>
        <time>2025-05-19T15:07:30Z</time>
      </trkpt>
      <trkpt lat="45.820720000192523" lon="8.537919977679849">
        <ele>474.06999999999999</ele>
        <time>2025-05-19T15:07:31Z</time>
      </trkpt>
      <trkpt lat="45.820707008242607" lon="8.538014022633433">
        <ele>474.06999999999999</ele>
        <time>2025-05-19T15:07:32Z</time>
      </trkpt>
      <trkpt lat="45.820693010464311" lon="8.538105972111225">
        <ele>473.58999999999997</ele>
        <time>2025-05-19T15:07:33Z</time>
      </trkpt>
      <trkpt lat="45.820680018514395" lon="8.538199011236429">
        <ele>473.58999999999997</ele>
        <time>2025-05-19T15:07:34Z</time>
      </trkpt>
      <trkpt lat="45.820670966058969" lon="8.538264976814389">
        <ele>473.58999999999997</ele>
        <time>2025-05-19T15:07:35Z</time>
      </trkpt>
      <trkpt lat="45.820694016292691" lon="8.538300013169646">
        <ele>473.11000000000001</ele>
        <time>2025-05-19T15:07:36Z</time>
      </trkpt>
      <trkpt lat="45.820742966607213" lon="8.538374025374651">
        <ele>473.11000000000001</ele>
        <time>2025-05-19T15:07:37Z</time>
      </trkpt>
      <trkpt lat="45.821276977658272" lon="8.538933014497161">
        <ele>468.77999999999997</ele>
        <time>2025-05-19T15:07:46Z</time>
      </trkpt>
      <trkpt lat="45.821559028699994" lon="8.539073998108506">
        <ele>463.97000000000003</ele>
        <time>2025-05-19T15:07:50Z</time>
      </trkpt>
      <trkpt lat="45.821628011763096" lon="8.539066035300493">
        <ele>462.05000000000001</ele>
        <time>2025-05-19T15:07:51Z</time>
      </trkpt>
      <trkpt lat="45.821823980659246" lon="8.539012977853417">
        <ele>457.24000000000001</ele>
        <time>2025-05-19T15:07:54Z</time>
      </trkpt>
      <trkpt lat="45.821867985650897" lon="8.539003003388643">
        <ele>455.80000000000001</ele>
        <time>2025-05-19T15:07:55Z</time>
      </trkpt>
      <trkpt lat="45.821906039491296" lon="8.53899403475225">
        <ele>454.83999999999997</ele>
        <time>2025-05-19T15:07:56Z</time>
      </trkpt>
      <trkpt lat="45.821939986199141" lon="8.538985988125205">
        <ele>453.39999999999998</ele>
        <time>2025-05-19T15:07:57Z</time>
      </trkpt>
      <trkpt lat="45.821964964270592" lon="8.538980036973953">
        <ele>451.95999999999998</ele>
        <time>2025-05-19T15:07:58Z</time>
      </trkpt>
      <trkpt lat="45.822087004780769" lon="8.53895204141736">
        <ele>451</ele>
        <time>2025-05-19T15:07:59Z</time>
      </trkpt>
      <trkpt lat="45.822093039751053" lon="8.538980958983302">
        <ele>449.55000000000001</ele>
        <time>2025-05-19T15:08:00Z</time>
      </trkpt>
      <trkpt lat="45.822104020044208" lon="8.539030998945236">
        <ele>448.11000000000001</ele>
        <time>2025-05-19T15:08:01Z</time>
      </trkpt>
      <trkpt lat="45.822115000337362" lon="8.539084978401661">
        <ele>447.14999999999998</ele>
        <time>2025-05-19T15:08:02Z</time>
      </trkpt>
      <trkpt lat="45.822135033085942" lon="8.539178017526865">
        <ele>445.23000000000002</ele>
        <time>2025-05-19T15:08:04Z</time>
      </trkpt>
      <trkpt lat="45.822148025035858" lon="8.539237026125193">
        <ele>444.26999999999998</ele>
        <time>2025-05-19T15:08:05Z</time>
      </trkpt>
      <trkpt lat="45.822161016985774" lon="8.539301985874772">
        <ele>443.31</ele>
        <time>2025-05-19T15:08:06Z</time>
      </trkpt>
      <trkpt lat="45.822173003107309" lon="8.539359988644719">
        <ele>441.86000000000001</ele>
        <time>2025-05-19T15:08:07Z</time>
      </trkpt>
      <trkpt lat="45.82219404168427" lon="8.53942402638495">
        <ele>441.38</ele>
        <time>2025-05-19T15:08:08Z</time>
      </trkpt>
      <trkpt lat="45.822230000048876" lon="8.539502983912826">
        <ele>440.89999999999998</ele>
        <time>2025-05-19T15:08:09Z</time>
      </trkpt>
      <trkpt lat="45.822265036404133" lon="8.539579007774591">
        <ele>440.42000000000002</ele>
        <time>2025-05-19T15:08:10Z</time>
      </trkpt>
      <trkpt lat="45.822304012253881" lon="8.53966198861599">
        <ele>439.94</ele>
        <time>2025-05-19T15:08:11Z</time>
      </trkpt>
      <trkpt lat="45.822438038885593" lon="8.539757039397955">
        <ele>438.5</ele>
        <time>2025-05-19T15:08:13Z</time>
      </trkpt>
      <trkpt lat="45.822553960606456" lon="8.539829039946199">
        <ele>438.01999999999998</ele>
        <time>2025-05-19T15:08:15Z</time>
      </trkpt>
      <trkpt lat="45.82262403331697" lon="8.539844965562224">
        <ele>437.06</ele>
        <time>2025-05-19T15:08:16Z</time>
      </trkpt>
      <trkpt lat="45.822676001116633" lon="8.539853012189269">
        <ele>436.57999999999998</ele>
        <time>2025-05-19T15:08:17Z</time>
      </trkpt>
      <trkpt lat="45.822737021371722" lon="8.539853012189269">
        <ele>436.10000000000002</ele>
        <time>2025-05-19T15:08:18Z</time>
      </trkpt>
      <trkpt lat="45.82279703579843" lon="8.539853012189269">
        <ele>435.13</ele>
        <time>2025-05-19T15:08:19Z</time>
      </trkpt>
      <trkpt lat="45.822854032739997" lon="8.539853012189269">
        <ele>434.64999999999998</ele>
        <time>2025-05-19T15:08:20Z</time>
      </trkpt>
      <trkpt lat="45.822913963347673" lon="8.539853012189269">
        <ele>433.69</ele>
        <time>2025-05-19T15:08:21Z</time>
      </trkpt>
      <trkpt lat="45.823116973042488" lon="8.539767013862729">
        <ele>431.76999999999998</ele>
        <time>2025-05-19T15:08:23Z</time>
      </trkpt>
      <trkpt lat="45.823224009945989" lon="8.539785034954548">
        <ele>432.25</ele>
        <time>2025-05-19T15:08:25Z</time>
      </trkpt>
      <trkpt lat="45.82331302575767" lon="8.539800038561225">
        <ele>432.25</ele>
        <time>2025-05-19T15:08:26Z</time>
      </trkpt>
      <trkpt lat="45.823393994942307" lon="8.539819987490773">
        <ele>432.25</ele>
        <time>2025-05-19T15:08:27Z</time>
      </trkpt>
      <trkpt lat="45.823542019352317" lon="8.539878996089101">
        <ele>432.73000000000002</ele>
        <time>2025-05-19T15:08:29Z</time>
      </trkpt>
      <trkpt lat="45.823621982708573" lon="8.539887964725494">
        <ele>433.20999999999998</ele>
        <time>2025-05-19T15:08:30Z</time>
      </trkpt>
      <trkpt lat="45.82372197881341" lon="8.539887964725494">
        <ele>433.20999999999998</ele>
        <time>2025-05-19T15:08:31Z</time>
      </trkpt>
      <trkpt lat="45.823800014331937" lon="8.539864998310804">
        <ele>433.69</ele>
        <time>2025-05-19T15:08:32Z</time>
      </trkpt>
      <trkpt lat="45.823910990729928" lon="8.539831973612309">
        <ele>434.17000000000002</ele>
        <time>2025-05-19T15:08:33Z</time>
      </trkpt>
      <trkpt lat="45.823919037356973" lon="8.53983398526907">
        <ele>435.13</ele>
        <time>2025-05-19T15:08:34Z</time>
      </trkpt>
      <trkpt lat="45.823991037905216" lon="8.53985401801765">
        <ele>435.61000000000001</ele>
        <time>2025-05-19T15:08:35Z</time>
      </trkpt>
      <trkpt lat="45.824075024574995" lon="8.539875978603959">
        <ele>436.10000000000002</ele>
        <time>2025-05-19T15:08:36Z</time>
      </trkpt>
      <trkpt lat="45.824614986777306" lon="8.540030037984252">
        <ele>442.81999999999999</ele>
        <time>2025-05-19T15:08:42Z</time>
      </trkpt>
      <trkpt lat="45.824698973447084" lon="8.540038000792265">
        <ele>442.81999999999999</ele>
        <time>2025-05-19T15:08:43Z</time>
      </trkpt>
      <trkpt lat="45.824964009225368" lon="8.540061973035336">
        <ele>443.79000000000002</ele>
        <time>2025-05-19T15:08:46Z</time>
      </trkpt>
      <trkpt lat="45.82505595870316" lon="8.540068008005619">
        <ele>444.26999999999998</ele>
        <time>2025-05-19T15:08:47Z</time>
      </trkpt>
      <trkpt lat="45.825371034443378" lon="8.540068008005619">
        <ele>445.70999999999998</ele>
        <time>2025-05-19T15:08:52Z</time>
      </trkpt>
      <trkpt lat="45.825431970879436" lon="8.540068008005619">
        <ele>446.19</ele>
        <time>2025-05-19T15:08:53Z</time>
      </trkpt>
      <trkpt lat="45.825746040791273" lon="8.540068008005619">
        <ele>446.67000000000002</ele>
        <time>2025-05-19T15:08:59Z</time>
      </trkpt>
      <trkpt lat="45.82582700997591" lon="8.540053004398942">
        <ele>447.14999999999998</ele>
        <time>2025-05-19T15:09:00Z</time>
      </trkpt>
      <trkpt lat="45.825901022180915" lon="8.540030037984252">
        <ele>448.58999999999997</ele>
        <time>2025-05-19T15:09:01Z</time>
      </trkpt>
      <trkpt lat="45.826115012168884" lon="8.539943033829331">
        <ele>451</ele>
        <time>2025-05-19T15:09:04Z</time>
      </trkpt>
      <trkpt lat="45.826290026307106" lon="8.539827028289437">
        <ele>452.44</ele>
        <time>2025-05-19T15:09:08Z</time>
      </trkpt>
      <trkpt lat="45.826323973014951" lon="8.53981101885438">
        <ele>452.92000000000002</ele>
        <time>2025-05-19T15:09:09Z</time>
      </trkpt>
      <trkpt lat="45.826390022411942" lon="8.539818981662393">
        <ele>453.39999999999998</ele>
        <time>2025-05-19T15:09:10Z</time>
      </trkpt>
      <trkpt lat="45.826467974111438" lon="8.539829039946199">
        <ele>454.36000000000001</ele>
        <time>2025-05-19T15:09:11Z</time>
      </trkpt>
      <trkpt lat="45.826551960781217" lon="8.539839014410973">
        <ele>454.83999999999997</ele>
        <time>2025-05-19T15:09:12Z</time>
      </trkpt>
      <trkpt lat="45.827279007062316" lon="8.539859969168901">
        <ele>457.72000000000003</ele>
        <time>2025-05-19T15:09:20Z</time>
      </trkpt>
      <trkpt lat="45.828477032482624" lon="8.539744969457388">
        <ele>459.17000000000002</ele>
        <time>2025-05-19T15:09:30Z</time>
      </trkpt>
      <trkpt lat="45.82975803874433" lon="8.539611026644707">
        <ele>462.52999999999997</ele>
        <time>2025-05-19T15:09:41Z</time>
      </trkpt>
      <trkpt lat="45.830633025616407" lon="8.539502983912826">
        <ele>468.77999999999997</ele>
        <time>2025-05-19T15:09:48Z</time>
      </trkpt>
      <trkpt lat="45.831517986953259" lon="8.539359988644719">
        <ele>473.58999999999997</ele>
        <time>2025-05-19T15:09:55Z</time>
      </trkpt>
      <trkpt lat="45.832748031243682" lon="8.538848021999002">
        <ele>475.02999999999997</ele>
        <time>2025-05-19T15:10:05Z</time>
      </trkpt>
      <trkpt lat="45.833438029512763" lon="8.538479972630739">
        <ele>472.13999999999999</ele>
        <time>2025-05-19T15:10:10Z</time>
      </trkpt>
      <trkpt lat="45.833558980375528" lon="8.53837201371789">
        <ele>472.13999999999999</ele>
        <time>2025-05-19T15:10:11Z</time>
      </trkpt>
      <trkpt lat="45.833813035860658" lon="8.538144025951624">
        <ele>470.69999999999999</ele>
        <time>2025-05-19T15:10:13Z</time>
      </trkpt>
      <trkpt lat="45.833968017250299" lon="8.538054004311562">
        <ele>470.22000000000003</ele>
        <time>2025-05-19T15:10:14Z</time>
      </trkpt>
      <trkpt lat="45.834672013297677" lon="8.537675980478525">
        <ele>467.81999999999999</ele>
        <time>2025-05-19T15:10:18Z</time>
      </trkpt>
      <trkpt lat="45.836343029513955" lon="8.536491030827165">
        <ele>460.13</ele>
        <time>2025-05-19T15:10:27Z</time>
      </trkpt>
      <trkpt lat="45.8384820073843" lon="8.534724041819572">
        <ele>444.75</ele>
        <time>2025-05-19T15:10:39Z</time>
      </trkpt>
      <trkpt lat="45.838647969067097" lon="8.534602001309395">
        <ele>442.81999999999999</ele>
        <time>2025-05-19T15:10:40Z</time>
      </trkpt>
      <trkpt lat="45.838818037882447" lon="8.534533018246293">
        <ele>441.38</ele>
        <time>2025-05-19T15:10:41Z</time>
      </trkpt>
      <trkpt lat="45.839249035343528" lon="8.534321039915085">
        <ele>437.06</ele>
        <time>2025-05-19T15:10:44Z</time>
      </trkpt>
      <trkpt lat="45.839365962892771" lon="8.534205034375191">
        <ele>436.10000000000002</ele>
        <time>2025-05-19T15:10:45Z</time>
      </trkpt>
      <trkpt lat="45.839742980897427" lon="8.53385902941227">
        <ele>432.73000000000002</ele>
        <time>2025-05-19T15:10:48Z</time>
      </trkpt>
      <trkpt lat="45.839872984215617" lon="8.533769007772207">
        <ele>431.29000000000002</ele>
        <time>2025-05-19T15:10:49Z</time>
      </trkpt>
      <trkpt lat="45.839987983927131" lon="8.533714022487402">
        <ele>430.32999999999998</ele>
        <time>2025-05-19T15:10:50Z</time>
      </trkpt>
      <trkpt lat="45.840111030265689" lon="8.533673034980893">
        <ele>429.37</ele>
        <time>2025-05-19T15:10:51Z</time>
      </trkpt>
      <trkpt lat="45.840250002220273" lon="8.533648978918791">
        <ele>428.39999999999998</ele>
        <time>2025-05-19T15:10:52Z</time>
      </trkpt>
      <trkpt lat="45.840934971347451" lon="8.533486034721136">
        <ele>426.95999999999998</ele>
        <time>2025-05-19T15:10:57Z</time>
      </trkpt>
      <trkpt lat="45.84131701849401" lon="8.533285036683083">
        <ele>426.95999999999998</ele>
        <time>2025-05-19T15:11:00Z</time>
      </trkpt>
      <trkpt lat="45.841450039297342" lon="8.533218987286091">
        <ele>427.44</ele>
        <time>2025-05-19T15:11:01Z</time>
      </trkpt>
      <trkpt lat="45.84245796315372" lon="8.533051013946533">
        <ele>430.81</ele>
        <time>2025-05-19T15:11:09Z</time>
      </trkpt>
      <trkpt lat="45.843449039384723" lon="8.532972978428006">
        <ele>428.39999999999998</ele>
        <time>2025-05-19T15:11:17Z</time>
      </trkpt>
      <trkpt lat="45.844671037048101" lon="8.532776003703475">
        <ele>424.56</ele>
        <time>2025-05-19T15:11:27Z</time>
      </trkpt>
      <trkpt lat="45.846135020256042" lon="8.532428992912173">
        <ele>424.07999999999998</ele>
        <time>2025-05-19T15:11:39Z</time>
      </trkpt>
      <trkpt lat="45.847942996770144" lon="8.531828010454774">
        <ele>425.04000000000002</ele>
        <time>2025-05-19T15:11:54Z</time>
      </trkpt>
      <trkpt lat="45.848057996481657" lon="8.531828010454774">
        <ele>425.04000000000002</ele>
        <time>2025-05-19T15:11:55Z</time>
      </trkpt>
      <trkpt lat="45.849141022190452" lon="8.532140990719199">
        <ele>424.56</ele>
        <time>2025-05-19T15:12:03Z</time>
      </trkpt>
      <trkpt lat="45.850841961801052" lon="8.532819002866745">
        <ele>424.56</ele>
        <time>2025-05-19T15:12:15Z</time>
      </trkpt>
      <trkpt lat="45.85216797888279" lon="8.533340021967888">
        <ele>426.95999999999998</ele>
        <time>2025-05-19T15:12:24Z</time>
      </trkpt>
      <trkpt lat="45.853439010679722" lon="8.533837990835309">
        <ele>431.29000000000002</ele>
        <time>2025-05-19T15:12:32Z</time>
      </trkpt>
      <trkpt lat="45.854064971208572" lon="8.534049969166517">
        <ele>434.17000000000002</ele>
        <time>2025-05-19T15:12:36Z</time>
      </trkpt>
      <trkpt lat="45.854235962033272" lon="8.534043012186885">
        <ele>435.13</ele>
        <time>2025-05-19T15:12:37Z</time>
      </trkpt>
      <trkpt lat="45.854408964514732" lon="8.534020967781544">
        <ele>436.10000000000002</ele>
        <time>2025-05-19T15:12:38Z</time>
      </trkpt>
      <trkpt lat="45.854584984481335" lon="8.533949973061681">
        <ele>437.06</ele>
        <time>2025-05-19T15:12:39Z</time>
      </trkpt>
      <trkpt lat="45.854763016104698" lon="8.533864980563521">
        <ele>438.01999999999998</ele>
        <time>2025-05-19T15:12:40Z</time>
      </trkpt>
      <trkpt lat="45.854944987222552" lon="8.53377403691411">
        <ele>438.98000000000002</ele>
        <time>2025-05-19T15:12:41Z</time>
      </trkpt>
      <trkpt lat="45.855100974440575" lon="8.533617965877056">
        <ele>439.94</ele>
        <time>2025-05-19T15:12:42Z</time>
      </trkpt>
      <trkpt lat="45.855255033820868" lon="8.533446975052357">
        <ele>441.38</ele>
        <time>2025-05-19T15:12:43Z</time>
      </trkpt>
      <trkpt lat="45.855399034917355" lon="8.533261986449361">
        <ele>442.33999999999997</ele>
        <time>2025-05-19T15:12:44Z</time>
      </trkpt>
      <trkpt lat="45.855796001851559" lon="8.532752031460404">
        <ele>444.26999999999998</ele>
        <time>2025-05-19T15:12:47Z</time>
      </trkpt>
      <trkpt lat="45.855931034311652" lon="8.532690005376935">
        <ele>444.26999999999998</ele>
        <time>2025-05-19T15:12:48Z</time>
      </trkpt>
      <trkpt lat="45.856032958254218" lon="8.532642982900143">
        <ele>444.75</ele>
        <time>2025-05-19T15:12:49Z</time>
      </trkpt>
      <trkpt lat="45.856195986270905" lon="8.532673995941877">
        <ele>445.23000000000002</ele>
        <time>2025-05-19T15:12:50Z</time>
      </trkpt>
      <trkpt lat="45.856349961832166" lon="8.532702997326851">
        <ele>445.70999999999998</ele>
        <time>2025-05-19T15:12:51Z</time>
      </trkpt>
      <trkpt lat="45.857571959495544" lon="8.533230973407626">
        <ele>449.06999999999999</ele>
        <time>2025-05-19T15:13:00Z</time>
      </trkpt>
      <trkpt lat="45.858776019886136" lon="8.53403496555984">
        <ele>455.80000000000001</ele>
        <time>2025-05-19T15:13:11Z</time>
      </trkpt>
      <trkpt lat="45.858872998505831" lon="8.534109983593226">
        <ele>456.27999999999997</ele>
        <time>2025-05-19T15:13:12Z</time>
      </trkpt>
      <trkpt lat="45.859164018183947" lon="8.534433022141457">
        <ele>457.72000000000003</ele>
        <time>2025-05-19T15:13:16Z</time>
      </trkpt>
      <trkpt lat="45.859283041208982" lon="8.534647012129426">
        <ele>458.69</ele>
        <time>2025-05-19T15:13:18Z</time>
      </trkpt>
      <trkpt lat="45.859548998996615" lon="8.535182029008865">
        <ele>462.05000000000001</ele>
        <time>2025-05-19T15:13:25Z</time>
      </trkpt>
      <trkpt lat="45.859654024243355" lon="8.535380009561777">
        <ele>463.00999999999999</ele>
        <time>2025-05-19T15:13:27Z</time>
      </trkpt>
      <trkpt lat="45.859703980386257" lon="8.535478999838233">
        <ele>462.52999999999997</ele>
        <time>2025-05-19T15:13:28Z</time>
      </trkpt>
      <trkpt lat="45.859749997034669" lon="8.535572038963437">
        <ele>462.05000000000001</ele>
        <time>2025-05-19T15:13:29Z</time>
      </trkpt>
      <trkpt lat="45.859801964834332" lon="8.535674968734384">
        <ele>461.56999999999999</ele>
        <time>2025-05-19T15:13:30Z</time>
      </trkpt>
      <trkpt lat="45.859855022281408" lon="8.535782005637884">
        <ele>461.08999999999997</ele>
        <time>2025-05-19T15:13:31Z</time>
      </trkpt>
      <trkpt lat="45.860005980357528" lon="8.53609599173069">
        <ele>459.17000000000002</ele>
        <time>2025-05-19T15:13:34Z</time>
      </trkpt>
      <trkpt lat="45.86005300283432" lon="8.536187019199133">
        <ele>459.17000000000002</ele>
        <time>2025-05-19T15:13:35Z</time>
      </trkpt>
      <trkpt lat="45.860105976462364" lon="8.536272011697292">
        <ele>459.17000000000002</ele>
        <time>2025-05-19T15:13:36Z</time>
      </trkpt>
      <trkpt lat="45.860205972567201" lon="8.536432022228837">
        <ele>459.17000000000002</ele>
        <time>2025-05-19T15:13:38Z</time>
      </trkpt>
      <trkpt lat="45.860300017520785" lon="8.536581974476576">
        <ele>459.64999999999998</ele>
        <time>2025-05-19T15:13:40Z</time>
      </trkpt>
      <trkpt lat="45.860361037775874" lon="8.536662021651864">
        <ele>459.64999999999998</ele>
        <time>2025-05-19T15:13:41Z</time>
      </trkpt>
      <trkpt lat="45.860529011115432" lon="8.536732010543346">
        <ele>459.17000000000002</ele>
        <time>2025-05-19T15:13:43Z</time>
      </trkpt>
      <trkpt lat="45.860630013048649" lon="8.536774003878236">
        <ele>458.69</ele>
        <time>2025-05-19T15:13:44Z</time>
      </trkpt>
      <trkpt lat="45.860737971961498" lon="8.536819014698267">
        <ele>458.69</ele>
        <time>2025-05-19T15:13:45Z</time>
      </trkpt>
      <trkpt lat="45.861886041238904" lon="8.536990005522966">
        <ele>455.31999999999999</ele>
        <time>2025-05-19T15:13:54Z</time>
      </trkpt>
      <trkpt lat="45.863327980041504" lon="8.537327963858843">
        <ele>456.75999999999999</ele>
        <time>2025-05-19T15:14:05Z</time>
      </trkpt>
      <trkpt lat="45.863424958661199" lon="8.537392001599073">
        <ele>456.75999999999999</ele>
        <time>2025-05-19T15:14:06Z</time>
      </trkpt>
      <trkpt lat="45.863542975857854" lon="8.537470959126949">
        <ele>457.24000000000001</ele>
        <time>2025-05-19T15:14:07Z</time>
      </trkpt>
      <trkpt lat="45.863571977242827" lon="8.537550000473857">
        <ele>457.72000000000003</ele>
        <time>2025-05-19T15:14:08Z</time>
      </trkpt>
      <trkpt lat="45.863617993891239" lon="8.537674974650145">
        <ele>458.20999999999998</ele>
        <time>2025-05-19T15:14:09Z</time>
      </trkpt>
      <trkpt lat="45.863664010539651" lon="8.537798020988703">
        <ele>458.69</ele>
        <time>2025-05-19T15:14:10Z</time>
      </trkpt>
      <trkpt lat="45.863713966682553" lon="8.537932969629765">
        <ele>459.17000000000002</ele>
        <time>2025-05-19T15:14:11Z</time>
      </trkpt>
      <trkpt lat="45.863765012472868" lon="8.53807202540338">
        <ele>459.64999999999998</ele>
        <time>2025-05-19T15:14:12Z</time>
      </trkpt>
      <trkpt lat="45.863822009414434" lon="8.538221977651119">
        <ele>459.64999999999998</ele>
        <time>2025-05-19T15:14:13Z</time>
      </trkpt>
      <trkpt lat="45.863888980820775" lon="8.53826698847115">
        <ele>460.13</ele>
        <time>2025-05-19T15:14:14Z</time>
      </trkpt>
      <trkpt lat="45.863971961662173" lon="8.538304958492518">
        <ele>460.61000000000001</ele>
        <time>2025-05-19T15:14:15Z</time>
      </trkpt>
      <trkpt lat="45.864063994958997" lon="8.538290960714221">
        <ele>461.08999999999997</ele>
        <time>2025-05-19T15:14:16Z</time>
      </trkpt>
      <trkpt lat="45.864157034084201" lon="8.538276040926576">
        <ele>461.56999999999999</ele>
        <time>2025-05-19T15:14:17Z</time>
      </trkpt>
      <trkpt lat="45.864248983561993" lon="8.538247039541602">
        <ele>461.56999999999999</ele>
        <time>2025-05-19T15:14:18Z</time>
      </trkpt>
      <trkpt lat="45.864326013252139" lon="8.538176966831088">
        <ele>462.05000000000001</ele>
        <time>2025-05-19T15:14:19Z</time>
      </trkpt>
      <trkpt lat="45.864403964951634" lon="8.538104966282845">
        <ele>462.52999999999997</ele>
        <time>2025-05-19T15:14:20Z</time>
      </trkpt>
      <trkpt lat="45.864614015445113" lon="8.537859041243792">
        <ele>463.97000000000003</ele>
        <time>2025-05-19T15:14:23Z</time>
      </trkpt>
      <trkpt lat="45.864691967144608" lon="8.537776982411742">
        <ele>464.44999999999999</ele>
        <time>2025-05-19T15:14:24Z</time>
      </trkpt>
      <trkpt lat="45.865107038989663" lon="8.537321006879211">
        <ele>467.33999999999997</ele>
        <time>2025-05-19T15:14:29Z</time>
      </trkpt>
      <trkpt lat="45.865217009559274" lon="8.537235008552671">
        <ele>467.81999999999999</ele>
        <time>2025-05-19T15:14:30Z</time>
      </trkpt>
      <trkpt lat="45.865350030362606" lon="8.537174994125962">
        <ele>468.30000000000001</ele>
        <time>2025-05-19T15:14:31Z</time>
      </trkpt>
      <trkpt lat="45.865486990660429" lon="8.537116991356015">
        <ele>468.77999999999997</ele>
        <time>2025-05-19T15:14:32Z</time>
      </trkpt>
      <trkpt lat="45.865635015070438" lon="8.537067035213113">
        <ele>469.74000000000001</ele>
        <time>2025-05-19T15:14:33Z</time>
      </trkpt>
      <trkpt lat="45.866718962788582" lon="8.536851033568382">
        <ele>474.06999999999999</ele>
        <time>2025-05-19T15:14:39Z</time>
      </trkpt>
      <trkpt lat="45.868078004568815" lon="8.536678031086922">
        <ele>477.91000000000003</ele>
        <time>2025-05-19T15:14:46Z</time>
      </trkpt>
      <trkpt lat="45.86823801510036" lon="8.536580968648195">
        <ele>478.38999999999999</ele>
        <time>2025-05-19T15:14:47Z</time>
      </trkpt>
      <trkpt lat="45.868395008146763" lon="8.536487007513642">
        <ele>479.35000000000002</ele>
        <time>2025-05-19T15:14:48Z</time>
      </trkpt>
      <trkpt lat="45.868530962616205" lon="8.536366978660226">
        <ele>480.31999999999999</ele>
        <time>2025-05-19T15:14:49Z</time>
      </trkpt>
      <trkpt lat="45.868667000904679" lon="8.536232030019164">
        <ele>480.80000000000001</ele>
        <time>2025-05-19T15:14:50Z</time>
      </trkpt>
      <trkpt lat="45.868801027536392" lon="8.536098003387451">
        <ele>481.75999999999999</ele>
        <time>2025-05-19T15:14:51Z</time>
      </trkpt>
      <trkpt lat="45.868934970349073" lon="8.535962970927358">
        <ele>482.24000000000001</ele>
        <time>2025-05-19T15:14:52Z</time>
      </trkpt>
      <trkpt lat="45.869522960856557" lon="8.535447986796498">
        <ele>482.72000000000003</ele>
        <time>2025-05-19T15:14:57Z</time>
      </trkpt>
      <trkpt lat="45.869607031345367" lon="8.53542803786695">
        <ele>482.72000000000003</ele>
        <time>2025-05-19T15:14:58Z</time>
      </trkpt>
      <trkpt lat="45.86967702023685" lon="8.535412028431892">
        <ele>483.19999999999999</ele>
        <time>2025-05-19T15:14:59Z</time>
      </trkpt>
      <trkpt lat="45.869680037721992" lon="8.535411022603512">
        <ele>483.68000000000001</ele>
        <time>2025-05-19T15:15:00Z</time>
      </trkpt>
      <trkpt lat="45.869749020785093" lon="8.535333992913365">
        <ele>483.68000000000001</ele>
        <time>2025-05-19T15:15:01Z</time>
      </trkpt>
      <trkpt lat="45.869791014119983" lon="8.535287976264954">
        <ele>483.68000000000001</ele>
        <time>2025-05-19T15:15:02Z</time>
      </trkpt>
      <trkpt lat="45.86982898414135" lon="8.535244977101684">
        <ele>483.68000000000001</ele>
        <time>2025-05-19T15:15:03Z</time>
      </trkpt>
      <trkpt lat="45.869866032153368" lon="8.535203989595175">
        <ele>484.16000000000003</ele>
        <time>2025-05-19T15:15:04Z</time>
      </trkpt>
      <trkpt lat="45.869971979409456" lon="8.53521597571671">
        <ele>484.16000000000003</ele>
        <time>2025-05-19T15:15:06Z</time>
      </trkpt>
      <trkpt lat="45.870030988007784" lon="8.535227961838245">
        <ele>484.16000000000003</ele>
        <time>2025-05-19T15:15:07Z</time>
      </trkpt>
      <trkpt lat="45.870099971070886" lon="8.535241037607193">
        <ele>484.16000000000003</ele>
        <time>2025-05-19T15:15:08Z</time>
      </trkpt>
      <trkpt lat="45.870174989104271" lon="8.535252017900348">
        <ele>484.16000000000003</ele>
        <time>2025-05-19T15:15:09Z</time>
      </trkpt>
      <trkpt lat="45.870268028229475" lon="8.535265009850264">
        <ele>483.68000000000001</ele>
        <time>2025-05-19T15:15:10Z</time>
      </trkpt>
      <trkpt lat="45.871371002867818" lon="8.535431977361441">
        <ele>477.43000000000001</ele>
        <time>2025-05-19T15:15:18Z</time>
      </trkpt>
      <trkpt lat="45.872653014957905" lon="8.535833973437548">
        <ele>469.25999999999999</ele>
        <time>2025-05-19T15:15:26Z</time>
      </trkpt>
      <trkpt lat="45.873292973265052" lon="8.536491030827165">
        <ele>462.05000000000001</ele>
        <time>2025-05-19T15:15:31Z</time>
      </trkpt>
      <trkpt lat="45.874175000935793" lon="8.53802802041173">
        <ele>451</ele>
        <time>2025-05-19T15:15:39Z</time>
      </trkpt>
      <trkpt lat="45.874449005350471" lon="8.538531018421054">
        <ele>447.14999999999998</ele>
        <time>2025-05-19T15:15:42Z</time>
      </trkpt>
      <trkpt lat="45.874528968706727" lon="8.53871600702405">
        <ele>446.19</ele>
        <time>2025-05-19T15:15:43Z</time>
      </trkpt>
      <trkpt lat="45.874566016718745" lon="8.538894038647413">
        <ele>444.75</ele>
        <time>2025-05-19T15:15:44Z</time>
      </trkpt>
      <trkpt lat="45.874787969514728" lon="8.540019979700446">
        <ele>438.01999999999998</ele>
        <time>2025-05-19T15:15:50Z</time>
      </trkpt>
      <trkpt lat="45.874789981171489" lon="8.5402209777385">
        <ele>437.06</ele>
        <time>2025-05-19T15:15:51Z</time>
      </trkpt>
      <trkpt lat="45.874818982556462" lon="8.541885036975145">
        <ele>425.51999999999998</ele>
        <time>2025-05-19T15:15:59Z</time>
      </trkpt>
      <trkpt lat="45.874843038618565" lon="8.542633960023522">
        <ele>420.70999999999998</ele>
        <time>2025-05-19T15:16:03Z</time>
      </trkpt>
      <trkpt lat="45.874835997819901" lon="8.542817020788789">
        <ele>419.26999999999998</ele>
        <time>2025-05-19T15:16:04Z</time>
      </trkpt>
      <trkpt lat="45.874816970899701" lon="8.543020030483604">
        <ele>417.82999999999998</ele>
        <time>2025-05-19T15:16:05Z</time>
      </trkpt>
      <trkpt lat="45.874772965908051" lon="8.54320602491498">
        <ele>416.87</ele>
        <time>2025-05-19T15:16:06Z</time>
      </trkpt>
      <trkpt lat="45.874727033078671" lon="8.543395958840847">
        <ele>415.43000000000001</ele>
        <time>2025-05-19T15:16:07Z</time>
      </trkpt>
      <trkpt lat="45.874282037839293" lon="8.545263027772307">
        <ele>403.88999999999999</ele>
        <time>2025-05-19T15:16:16Z</time>
      </trkpt>
      <trkpt lat="45.874093025922775" lon="8.545888988301158">
        <ele>399.56999999999999</ele>
        <time>2025-05-19T15:16:20Z</time>
      </trkpt>
      <trkpt lat="45.87404097430408" lon="8.546005999669433">
        <ele>398.60000000000002</ele>
        <time>2025-05-19T15:16:21Z</time>
      </trkpt>
      <trkpt lat="45.873992023989558" lon="8.546112030744553">
        <ele>397.63999999999999</ele>
        <time>2025-05-19T15:16:22Z</time>
      </trkpt>
      <trkpt lat="45.873950030654669" lon="8.546204986050725">
        <ele>396.68000000000001</ele>
        <time>2025-05-19T15:16:23Z</time>
      </trkpt>
      <trkpt lat="45.873950030654669" lon="8.54628000408411">
        <ele>396.19999999999999</ele>
        <time>2025-05-19T15:16:24Z</time>
      </trkpt>
      <trkpt lat="45.873950030654669" lon="8.546332977712154">
        <ele>395.24000000000001</ele>
        <time>2025-05-19T15:16:25Z</time>
      </trkpt>
      <trkpt lat="45.873972997069359" lon="8.546353010460734">
        <ele>394.75999999999999</ele>
        <time>2025-05-19T15:16:26Z</time>
      </trkpt>
      <trkpt lat="45.87401800788939" lon="8.546389974653721">
        <ele>393.80000000000001</ele>
        <time>2025-05-19T15:16:27Z</time>
      </trkpt>
      <trkpt lat="45.874079028144479" lon="8.546441020444036">
        <ele>392.83999999999997</ele>
        <time>2025-05-19T15:16:28Z</time>
      </trkpt>
      <trkpt lat="45.87410400621593" lon="8.546415958553553">
        <ele>392.36000000000001</ele>
        <time>2025-05-19T15:16:29Z</time>
      </trkpt>
      <trkpt lat="45.874151028692722" lon="8.546369019895792">
        <ele>391.87</ele>
        <time>2025-05-19T15:16:30Z</time>
      </trkpt>
      <trkpt lat="45.874228980392218" lon="8.546289978548884">
        <ele>391.38999999999999</ele>
        <time>2025-05-19T15:16:31Z</time>
      </trkpt>
      <trkpt lat="45.874258987605572" lon="8.546240022405982">
        <ele>390.91000000000003</ele>
        <time>2025-05-19T15:16:32Z</time>
      </trkpt>
      <trkpt lat="45.874805990606546" lon="8.545303009450436">
        <ele>384.66000000000003</ele>
        <time>2025-05-19T15:16:41Z</time>
      </trkpt>
      <trkpt lat="45.875165993347764" lon="8.54466900229454">
        <ele>380.33999999999997</ele>
        <time>2025-05-19T15:16:47Z</time>
      </trkpt>
      <trkpt lat="45.875369003042579" lon="8.544135997071862">
        <ele>376.97000000000003</ele>
        <time>2025-05-19T15:16:52Z</time>
      </trkpt>
      <trkpt lat="45.875423988327384" lon="8.544067014008761">
        <ele>376.00999999999999</ele>
        <time>2025-05-19T15:16:53Z</time>
      </trkpt>
      <trkpt lat="45.875482996925712" lon="8.54406600818038">
        <ele>375.05000000000001</ele>
        <time>2025-05-19T15:16:54Z</time>
      </trkpt>
      <trkpt lat="45.875549968332052" lon="8.544075982645154">
        <ele>374.08999999999997</ele>
        <time>2025-05-19T15:16:55Z</time>
      </trkpt>
      <trkpt lat="45.875596990808845" lon="8.544145971536636">
        <ele>373.13</ele>
        <time>2025-05-19T15:16:56Z</time>
      </trkpt>
      <trkpt lat="45.875621968880296" lon="8.544244039803743">
        <ele>372.64999999999998</ele>
        <time>2025-05-19T15:16:57Z</time>
      </trkpt>
      <trkpt lat="45.875636972486973" lon="8.544369013980031">
        <ele>372.17000000000002</ele>
        <time>2025-05-19T15:16:58Z</time>
      </trkpt>
      <trkpt lat="45.87560897693038" lon="8.5444759670645">
        <ele>371.69</ele>
        <time>2025-05-19T15:16:59Z</time>
      </trkpt>
      <trkpt lat="45.875290967524052" lon="8.545773988589644">
        <ele>369.27999999999997</ele>
        <time>2025-05-19T15:17:10Z</time>
      </trkpt>
      <trkpt lat="45.875219972804189" lon="8.546074982732534">
        <ele>370.24000000000001</ele>
        <time>2025-05-19T15:17:13Z</time>
      </trkpt>
      <trkpt lat="45.875205975025892" lon="8.546132985502482">
        <ele>370.24000000000001</ele>
        <time>2025-05-19T15:17:14Z</time>
      </trkpt>
      <trkpt lat="45.875194994732738" lon="8.546183025464416">
        <ele>370.73000000000002</ele>
        <time>2025-05-19T15:17:15Z</time>
      </trkpt>
      <trkpt lat="45.875196000561118" lon="8.546196017414331">
        <ele>370.73000000000002</ele>
        <time>2025-05-19T15:17:16Z</time>
      </trkpt>
      <trkpt lat="45.87520002387464" lon="8.546243961900473">
        <ele>371.20999999999998</ele>
        <time>2025-05-19T15:17:17Z</time>
      </trkpt>
      <trkpt lat="45.875204969197512" lon="8.546298025175929">
        <ele>371.20999999999998</ele>
        <time>2025-05-19T15:17:18Z</time>
      </trkpt>
      <trkpt lat="45.875208992511034" lon="8.54634203016758">
        <ele>371.20999999999998</ele>
        <time>2025-05-19T15:17:19Z</time>
      </trkpt>
      <trkpt lat="45.875273030251265" lon="8.546442026272416">
        <ele>371.20999999999998</ele>
        <time>2025-05-19T15:17:23Z</time>
      </trkpt>
      <trkpt lat="45.875322986394167" lon="8.546461975201964">
        <ele>371.20999999999998</ele>
        <time>2025-05-19T15:17:24Z</time>
      </trkpt>
      <trkpt lat="45.875362968072295" lon="8.54645099490881">
        <ele>370.73000000000002</ele>
        <time>2025-05-19T15:17:25Z</time>
      </trkpt>
      <trkpt lat="45.875433040782809" lon="8.546430040150881">
        <ele>370.24000000000001</ele>
        <time>2025-05-19T15:17:26Z</time>
      </trkpt>
      <trkpt lat="45.875506969168782" lon="8.54640799574554">
        <ele>369.75999999999999</ele>
        <time>2025-05-19T15:17:27Z</time>
      </trkpt>
      <trkpt lat="45.87558701634407" lon="8.54638502933085">
        <ele>369.27999999999997</ele>
        <time>2025-05-19T15:17:28Z</time>
      </trkpt>
      <trkpt lat="45.875763036310673" lon="8.546316968277097">
        <ele>367.83999999999997</ele>
        <time>2025-05-19T15:17:30Z</time>
      </trkpt>
      <trkpt lat="45.875847022980452" lon="8.546275980770588">
        <ele>366.88</ele>
        <time>2025-05-19T15:17:31Z</time>
      </trkpt>
      <trkpt lat="45.876094037666917" lon="8.546140026301146">
        <ele>363.51999999999998</ele>
        <time>2025-05-19T15:17:34Z</time>
      </trkpt>
      <trkpt lat="45.876169977709651" lon="8.546057967469096">
        <ele>362.55000000000001</ele>
        <time>2025-05-19T15:17:35Z</time>
      </trkpt>
      <trkpt lat="45.876401988789439" lon="8.54574297554791">
        <ele>358.70999999999998</ele>
        <time>2025-05-19T15:17:38Z</time>
      </trkpt>
      <trkpt lat="45.876468038186431" lon="8.545610960572958">
        <ele>357.26999999999998</ele>
        <time>2025-05-19T15:17:39Z</time>
      </trkpt>
      <trkpt lat="45.876526040956378" lon="8.545465031638742">
        <ele>356.31</ele>
        <time>2025-05-19T15:17:40Z</time>
      </trkpt>
      <trkpt lat="45.87661799043417" lon="8.545153979212046">
        <ele>354.38</ele>
        <time>2025-05-19T15:17:42Z</time>
      </trkpt>
      <trkpt lat="45.876771965995431" lon="8.544573029503226">
        <ele>351.5</ele>
        <time>2025-05-19T15:17:46Z</time>
      </trkpt>
      <trkpt lat="45.876778000965714" lon="8.544462975114584">
        <ele>351.01999999999998</ele>
        <time>2025-05-19T15:17:47Z</time>
      </trkpt>
      <trkpt lat="45.87677096016705" lon="8.544345963746309">
        <ele>350.54000000000002</ele>
        <time>2025-05-19T15:17:48Z</time>
      </trkpt>
      <trkpt lat="45.876762997359037" lon="8.544216966256499">
        <ele>349.57999999999998</ele>
        <time>2025-05-19T15:17:49Z</time>
      </trkpt>
      <trkpt lat="45.876739025115967" lon="8.544098027050495">
        <ele>348.62</ele>
        <time>2025-05-19T15:17:50Z</time>
      </trkpt>
      <trkpt lat="45.876709017902613" lon="8.543971963226795">
        <ele>347.64999999999998</ele>
        <time>2025-05-19T15:17:51Z</time>
      </trkpt>
      <trkpt lat="45.876676999032497" lon="8.543839026242495">
        <ele>346.69</ele>
        <time>2025-05-19T15:17:52Z</time>
      </trkpt>
      <trkpt lat="45.876645985990763" lon="8.543710028752685">
        <ele>345.73000000000002</ele>
        <time>2025-05-19T15:17:53Z</time>
      </trkpt>
      <trkpt lat="45.876616984605789" lon="8.543591005727649">
        <ele>345.25</ele>
        <time>2025-05-19T15:17:54Z</time>
      </trkpt>
      <trkpt lat="45.876643974334002" lon="8.543510958552361">
        <ele>344.29000000000002</ele>
        <time>2025-05-19T15:17:55Z</time>
      </trkpt>
      <trkpt lat="45.876674987375736" lon="8.543457984924316">
        <ele>342.85000000000002</ele>
        <time>2025-05-19T15:17:56Z</time>
      </trkpt>
      <trkpt lat="45.876692002639174" lon="8.543454967439175">
        <ele>341.88999999999999</ele>
        <time>2025-05-19T15:17:57Z</time>
      </trkpt>
      <trkpt lat="45.876752017065883" lon="8.543442981317639">
        <ele>340.44</ele>
        <time>2025-05-19T15:17:58Z</time>
      </trkpt>
      <trkpt lat="45.876797027885914" lon="8.543463014066219">
        <ele>339</ele>
        <time>2025-05-19T15:17:59Z</time>
      </trkpt>
      <trkpt lat="45.876841032877564" lon="8.543539959937334">
        <ele>338.04000000000002</ele>
        <time>2025-05-19T15:18:00Z</time>
      </trkpt>
      <trkpt lat="45.876899035647511" lon="8.543640961870551">
        <ele>337.07999999999998</ele>
        <time>2025-05-19T15:18:01Z</time>
      </trkpt>
      <trkpt lat="45.876959972083569" lon="8.543754033744335">
        <ele>336.60000000000002</ele>
        <time>2025-05-19T15:18:02Z</time>
      </trkpt>
      <trkpt lat="45.877085030078888" lon="8.544158963486552">
        <ele>334.19999999999999</ele>
        <time>2025-05-19T15:18:05Z</time>
      </trkpt>
      <trkpt lat="45.877125011757016" lon="8.544287960976362">
        <ele>333.23000000000002</ele>
        <time>2025-05-19T15:18:06Z</time>
      </trkpt>
      <trkpt lat="45.877144960686564" lon="8.544445959851146">
        <ele>332.75</ele>
        <time>2025-05-19T15:18:07Z</time>
      </trkpt>
      <trkpt lat="45.877141021192074" lon="8.544594990089536">
        <ele>331.79000000000002</ele>
        <time>2025-05-19T15:18:08Z</time>
      </trkpt>
      <trkpt lat="45.877136997878551" lon="8.5447539947927">
        <ele>330.82999999999998</ele>
        <time>2025-05-19T15:18:09Z</time>
      </trkpt>
      <trkpt lat="45.877132974565029" lon="8.54492599144578">
        <ele>329.87</ele>
        <time>2025-05-19T15:18:10Z</time>
      </trkpt>
      <trkpt lat="45.877032978460193" lon="8.5464290343225">
        <ele>319.30000000000001</ele>
        <time>2025-05-19T15:18:20Z</time>
      </trkpt>
      <trkpt lat="45.877013029530644" lon="8.546735979616642">
        <ele>317.85000000000002</ele>
        <time>2025-05-19T15:18:22Z</time>
      </trkpt>
      <trkpt lat="45.876997020095587" lon="8.546976959332824">
        <ele>316.41000000000003</ele>
        <time>2025-05-19T15:18:24Z</time>
      </trkpt>
      <trkpt lat="45.87702602148056" lon="8.547091959044337">
        <ele>315.44999999999999</ele>
        <time>2025-05-19T15:18:25Z</time>
      </trkpt>
      <trkpt lat="45.87704898789525" lon="8.547151973471046">
        <ele>314.49000000000001</ele>
        <time>2025-05-19T15:18:26Z</time>
      </trkpt>
      <trkpt lat="45.8771120198071" lon="8.547173012048006">
        <ele>314.00999999999999</ele>
        <time>2025-05-19T15:18:27Z</time>
      </trkpt>
      <trkpt lat="45.877168010920286" lon="8.547191033139825">
        <ele>313.52999999999997</ele>
        <time>2025-05-19T15:18:28Z</time>
      </trkpt>
      <trkpt lat="45.877185026183724" lon="8.547169994562864">
        <ele>313.52999999999997</ele>
        <time>2025-05-19T15:18:29Z</time>
      </trkpt>
      <trkpt lat="45.877232970669866" lon="8.547106040641666">
        <ele>313.05000000000001</ele>
        <time>2025-05-19T15:18:30Z</time>
      </trkpt>
      <trkpt lat="45.877259038388729" lon="8.547042002901435">
        <ele>312.56999999999999</ele>
        <time>2025-05-19T15:18:31Z</time>
      </trkpt>
      <trkpt lat="45.877296002581716" lon="8.546948041766882">
        <ele>312.08999999999997</ele>
        <time>2025-05-19T15:18:32Z</time>
      </trkpt>
      <trkpt lat="45.877335984259844" lon="8.546848967671394">
        <ele>311.60000000000002</ele>
        <time>2025-05-19T15:18:33Z</time>
      </trkpt>
      <trkpt lat="45.877375965937972" lon="8.546744026243687">
        <ele>311.12</ele>
        <time>2025-05-19T15:18:34Z</time>
      </trkpt>
      <trkpt lat="45.877415025606751" lon="8.546633971855044">
        <ele>310.63999999999999</ele>
        <time>2025-05-19T15:18:35Z</time>
      </trkpt>
      <trkpt lat="45.877661034464836" lon="8.54580701328814">
        <ele>306.31999999999999</ele>
        <time>2025-05-19T15:18:42Z</time>
      </trkpt>
      <trkpt lat="45.877866977825761" lon="8.545117015019059">
        <ele>302.47000000000003</ele>
        <time>2025-05-19T15:18:47Z</time>
      </trkpt>
      <trkpt lat="45.877910982817411" lon="8.54496899060905">
        <ele>301.50999999999999</ele>
        <time>2025-05-19T15:18:48Z</time>
      </trkpt>
      <trkpt lat="45.877967979758978" lon="8.544829012826085">
        <ele>301.02999999999997</ele>
        <time>2025-05-19T15:18:49Z</time>
      </trkpt>
      <trkpt lat="45.878155985847116" lon="8.544402038678527">
        <ele>299.11000000000001</ele>
        <time>2025-05-19T15:18:52Z</time>
      </trkpt>
      <trkpt lat="45.878784041851759" lon="8.543361006304622">
        <ele>293.33999999999997</ele>
        <time>2025-05-19T15:19:01Z</time>
      </trkpt>
      <trkpt lat="45.878892000764608" lon="8.543118014931679">
        <ele>292.38</ele>
        <time>2025-05-19T15:19:03Z</time>
      </trkpt>
      <trkpt lat="45.878914967179298" lon="8.542978959158063">
        <ele>291.89999999999998</ele>
        <time>2025-05-19T15:19:04Z</time>
      </trkpt>
      <trkpt lat="45.87893801741302" lon="8.542835963889957">
        <ele>291.89999999999998</ele>
        <time>2025-05-19T15:19:05Z</time>
      </trkpt>
      <trkpt lat="45.879071038216352" lon="8.542029038071632">
        <ele>289.00999999999999</ele>
        <time>2025-05-19T15:19:13Z</time>
      </trkpt>
      <trkpt lat="45.879081012681127" lon="8.541967011988163">
        <ele>288.52999999999997</ele>
        <time>2025-05-19T15:19:14Z</time>
      </trkpt>
      <trkpt lat="45.87908998131752" lon="8.541913032531738">
        <ele>288.05000000000001</ele>
        <time>2025-05-19T15:19:15Z</time>
      </trkpt>
      <trkpt lat="45.879097022116184" lon="8.541871039196849">
        <ele>287.56999999999999</ele>
        <time>2025-05-19T15:19:16Z</time>
      </trkpt>
      <trkpt lat="45.879101967439055" lon="8.541839020326734">
        <ele>287.08999999999997</ele>
        <time>2025-05-19T15:19:17Z</time>
      </trkpt>
      <trkpt lat="45.879105990752578" lon="8.541812030598521">
        <ele>285.17000000000002</ele>
        <time>2025-05-19T15:19:27Z</time>
      </trkpt>
      <trkpt lat="45.879105990752578" lon="8.541812030598521">
        <ele>285.17000000000002</ele>
        <time>2025-05-19T15:20:03Z</time>
      </trkpt>
      <trkpt lat="45.879105990752578" lon="8.541812030598521">
        <ele>285.64999999999998</ele>
        <time>2025-05-19T15:20:50Z</time>
      </trkpt>
      <trkpt lat="45.879105990752578" lon="8.541812030598521">
        <ele>285.17000000000002</ele>
        <time>2025-05-19T15:21:35Z</time>
      </trkpt>
      <trkpt lat="45.879105990752578" lon="8.541812030598521">
        <ele>285.17000000000002</ele>
        <time>2025-05-19T15:22:18Z</time>
      </trkpt>
      <trkpt lat="45.879105990752578" lon="8.541812030598521">
        <ele>286.13</ele>
        <time>2025-05-19T15:22:49Z</time>
      </trkpt>
      <trkpt lat="45.879105990752578" lon="8.541812030598521">
        <ele>286.61000000000001</ele>
        <time>2025-05-19T15:22:50Z</time>
      </trkpt>
      <trkpt lat="45.879126023501158" lon="8.541693007573485">
        <ele>288.05000000000001</ele>
        <time>2025-05-19T15:22:53Z</time>
      </trkpt>
      <trkpt lat="45.87921897880733" lon="8.541440041735768">
        <ele>285.64999999999998</ele>
        <time>2025-05-19T15:22:59Z</time>
      </trkpt>
      <trkpt lat="45.879229037091136" lon="8.541420008987188">
        <ele>284.69</ele>
        <time>2025-05-19T15:23:00Z</time>
      </trkpt>
      <trkpt lat="45.879259966313839" lon="8.541429983451963">
        <ele>283.73000000000002</ele>
        <time>2025-05-19T15:23:01Z</time>
      </trkpt>
      <trkpt lat="45.879292991012335" lon="8.541543977335095">
        <ele>283.25</ele>
        <time>2025-05-19T15:23:02Z</time>
      </trkpt>
      <trkpt lat="45.879286034032702" lon="8.541646990925074">
        <ele>282.27999999999997</ele>
        <time>2025-05-19T15:23:03Z</time>
      </trkpt>
      <trkpt lat="45.879272036254406" lon="8.541752016171813">
        <ele>281.31999999999999</ele>
        <time>2025-05-19T15:23:04Z</time>
      </trkpt>
      <trkpt lat="45.879186037927866" lon="8.542406978085637">
        <ele>276.51999999999998</ele>
        <time>2025-05-19T15:23:10Z</time>
      </trkpt>
      <trkpt lat="45.879199029877782" lon="8.542503034695983">
        <ele>276.04000000000002</ele>
        <time>2025-05-19T15:23:11Z</time>
      </trkpt>
      <trkpt lat="45.879213027656078" lon="8.542559025809169">
        <ele>275.06999999999999</ele>
        <time>2025-05-19T15:23:12Z</time>
      </trkpt>
      <trkpt lat="45.879268012940884" lon="8.542576963081956">
        <ele>274.58999999999997</ele>
        <time>2025-05-19T15:23:13Z</time>
      </trkpt>
      <trkpt lat="45.879305982962251" lon="8.542533041909337">
        <ele>274.11000000000001</ele>
        <time>2025-05-19T15:23:14Z</time>
      </trkpt>
      <trkpt lat="45.879339007660747" lon="8.542472021654248">
        <ele>273.63</ele>
        <time>2025-05-19T15:23:15Z</time>
      </trkpt>
      <trkpt lat="45.879353005439043" lon="8.542387029156089">
        <ele>273.14999999999998</ele>
        <time>2025-05-19T15:23:16Z</time>
      </trkpt>
      <trkpt lat="45.879370020702481" lon="8.542287033051252">
        <ele>272.67000000000002</ele>
        <time>2025-05-19T15:23:17Z</time>
      </trkpt>
      <trkpt lat="45.879388963803649" lon="8.542172033339739">
        <ele>272.19</ele>
        <time>2025-05-19T15:23:18Z</time>
      </trkpt>
      <trkpt lat="45.879435986280441" lon="8.541922001168132">
        <ele>271.23000000000002</ele>
        <time>2025-05-19T15:23:20Z</time>
      </trkpt>
      <trkpt lat="45.879469010978937" lon="8.5417889803648">
        <ele>270.75</ele>
        <time>2025-05-19T15:23:21Z</time>
      </trkpt>
      <trkpt lat="45.879503041505814" lon="8.541653025895357">
        <ele>270.26999999999998</ele>
        <time>2025-05-19T15:23:22Z</time>
      </trkpt>
      <trkpt lat="45.879573030397296" lon="8.541370974853635">
        <ele>269.31</ele>
        <time>2025-05-19T15:23:24Z</time>
      </trkpt>
      <trkpt lat="45.879615023732185" lon="8.541205013170838">
        <ele>268.82999999999998</ele>
        <time>2025-05-19T15:23:25Z</time>
      </trkpt>
      <trkpt lat="45.879680989310145" lon="8.540578968822956">
        <ele>266.42000000000002</ele>
        <time>2025-05-19T15:23:29Z</time>
      </trkpt>
      <trkpt lat="45.879730023443699" lon="8.540432034060359">
        <ele>265.45999999999998</ele>
        <time>2025-05-19T15:23:30Z</time>
      </trkpt>
      <trkpt lat="45.879787020385265" lon="8.540137996897101">
        <ele>263.54000000000002</ele>
        <time>2025-05-19T15:23:32Z</time>
      </trkpt>
      <trkpt lat="45.879804035648704" lon="8.539986032992601">
        <ele>262.57999999999998</ele>
        <time>2025-05-19T15:23:33Z</time>
      </trkpt>
      <trkpt lat="45.879819961264729" lon="8.539842031896114">
        <ele>261.62</ele>
        <time>2025-05-19T15:23:34Z</time>
      </trkpt>
      <trkpt lat="45.879836976528168" lon="8.539699958637357">
        <ele>260.64999999999998</ele>
        <time>2025-05-19T15:23:35Z</time>
      </trkpt>
      <trkpt lat="45.879850974306464" lon="8.539573978632689">
        <ele>259.69</ele>
        <time>2025-05-19T15:23:36Z</time>
      </trkpt>
      <trkpt lat="45.879905959591269" lon="8.539444981142879">
        <ele>258.73000000000002</ele>
        <time>2025-05-19T15:23:37Z</time>
      </trkpt>
      <trkpt lat="45.879959017038345" lon="8.539322018623352">
        <ele>257.76999999999998</ele>
        <time>2025-05-19T15:23:38Z</time>
      </trkpt>
      <trkpt lat="45.88001299649477" lon="8.539194026961923">
        <ele>256.81</ele>
        <time>2025-05-19T15:23:39Z</time>
      </trkpt>
      <trkpt lat="45.880068987607956" lon="8.53906100615859">
        <ele>255.84999999999999</ele>
        <time>2025-05-19T15:23:40Z</time>
      </trkpt>
      <trkpt lat="45.880087008699775" lon="8.538918010890484">
        <ele>254.88999999999999</ele>
        <time>2025-05-19T15:23:41Z</time>
      </trkpt>
      <trkpt lat="45.880087008699775" lon="8.538788007572293">
        <ele>253.93000000000001</ele>
        <time>2025-05-19T15:23:42Z</time>
      </trkpt>
      <trkpt lat="45.880087008699775" lon="8.538685999810696">
        <ele>252.96000000000001</ele>
        <time>2025-05-19T15:23:43Z</time>
      </trkpt>
      <trkpt lat="45.88005599565804" lon="8.538625985383987">
        <ele>252</ele>
        <time>2025-05-19T15:23:44Z</time>
      </trkpt>
      <trkpt lat="45.880003022029996" lon="8.538547027856112">
        <ele>251.03999999999999</ele>
        <time>2025-05-19T15:23:45Z</time>
      </trkpt>
      <trkpt lat="45.879938984289765" lon="8.538449965417385">
        <ele>250.08000000000001</ele>
        <time>2025-05-19T15:23:46Z</time>
      </trkpt>
      <trkpt lat="45.879793977364898" lon="8.538233041763306">
        <ele>248.63999999999999</ele>
        <time>2025-05-19T15:23:48Z</time>
      </trkpt>
      <trkpt lat="45.879744021221995" lon="8.538098009303212">
        <ele>247.68000000000001</ele>
        <time>2025-05-19T15:23:49Z</time>
      </trkpt>
      <trkpt lat="45.879768999293447" lon="8.537990972399712">
        <ele>246.72</ele>
        <time>2025-05-19T15:23:50Z</time>
      </trkpt>
      <trkpt lat="45.879817027598619" lon="8.537918971851468">
        <ele>245.75</ele>
        <time>2025-05-19T15:23:51Z</time>
      </trkpt>
      <trkpt lat="45.879875030368567" lon="8.537901034578681">
        <ele>244.78999999999999</ele>
        <time>2025-05-19T15:23:52Z</time>
      </trkpt>
      <trkpt lat="45.879959017038345" lon="8.537901034578681">
        <ele>243.83000000000001</ele>
        <time>2025-05-19T15:23:53Z</time>
      </trkpt>
      <trkpt lat="45.880039986222982" lon="8.537931963801384">
        <ele>242.87</ele>
        <time>2025-05-19T15:23:54Z</time>
      </trkpt>
      <trkpt lat="45.880130007863045" lon="8.538016034290195">
        <ele>241.91</ele>
        <time>2025-05-19T15:23:55Z</time>
      </trkpt>
      <trkpt lat="45.880216006189585" lon="8.538132961839438">
        <ele>240.94999999999999</ele>
        <time>2025-05-19T15:23:56Z</time>
      </trkpt>
      <trkpt lat="45.880298987030983" lon="8.538246033713222">
        <ele>239.99000000000001</ele>
        <time>2025-05-19T15:23:57Z</time>
      </trkpt>
      <trkpt lat="45.880369981750846" lon="8.53837201371789">
        <ele>239.50999999999999</ele>
        <time>2025-05-19T15:23:58Z</time>
      </trkpt>
      <trkpt lat="45.880427984520793" lon="8.538518026471138">
        <ele>239.02000000000001</ele>
        <time>2025-05-19T15:23:59Z</time>
      </trkpt>
      <trkpt lat="45.880484981462359" lon="8.538689017295837">
        <ele>238.53999999999999</ele>
        <time>2025-05-19T15:24:00Z</time>
      </trkpt>
      <trkpt lat="45.880513982847333" lon="8.538892026990652">
        <ele>238.53999999999999</ele>
        <time>2025-05-19T15:24:01Z</time>
      </trkpt>
      <trkpt lat="45.88050602003932" lon="8.539086990058422">
        <ele>238.06</ele>
        <time>2025-05-19T15:24:02Z</time>
      </trkpt>
      <trkpt lat="45.880498979240656" lon="8.539272984489799">
        <ele>237.58000000000001</ele>
        <time>2025-05-19T15:24:03Z</time>
      </trkpt>
      <trkpt lat="45.880498979240656" lon="8.539441963657737">
        <ele>236.62</ele>
        <time>2025-05-19T15:24:04Z</time>
      </trkpt>
      <trkpt lat="45.880509959533811" lon="8.539608009159565">
        <ele>235.66</ele>
        <time>2025-05-19T15:24:05Z</time>
      </trkpt>
      <trkpt lat="45.880522029474378" lon="8.5397719591856">
        <ele>235.18000000000001</ele>
        <time>2025-05-19T15:24:06Z</time>
      </trkpt>
      <trkpt lat="45.880533009767532" lon="8.539930963888764">
        <ele>234.22</ele>
        <time>2025-05-19T15:24:07Z</time>
      </trkpt>
      <trkpt lat="45.880546001717448" lon="8.540088040754199">
        <ele>233.25999999999999</ele>
        <time>2025-05-19T15:24:08Z</time>
      </trkpt>
      <trkpt lat="45.880564022809267" lon="8.540255008265376">
        <ele>232.30000000000001</ele>
        <time>2025-05-19T15:24:09Z</time>
      </trkpt>
      <trkpt lat="45.880654966458678" lon="8.540960010141134">
        <ele>227.97</ele>
        <time>2025-05-19T15:24:13Z</time>
      </trkpt>
      <trkpt lat="45.880688996985555" lon="8.541109040379524">
        <ele>227.00999999999999</ele>
        <time>2025-05-19T15:24:14Z</time>
      </trkpt>
      <trkpt lat="45.88074398227036" lon="8.541339039802551">
        <ele>225.09</ele>
        <time>2025-05-19T15:24:16Z</time>
      </trkpt>
      <trkpt lat="45.880776001140475" lon="8.54146501980722">
        <ele>224.12</ele>
        <time>2025-05-19T15:24:17Z</time>
      </trkpt>
      <trkpt lat="45.880834003910422" lon="8.541535008698702">
        <ele>223.63999999999999</ele>
        <time>2025-05-19T15:24:18Z</time>
      </trkpt>
      <trkpt lat="45.880926959216595" lon="8.541599968448281">
        <ele>222.68000000000001</ele>
        <time>2025-05-19T15:24:19Z</time>
      </trkpt>
      <trkpt lat="45.880987979471684" lon="8.541612960398197">
        <ele>222.19999999999999</ele>
        <time>2025-05-19T15:24:20Z</time>
      </trkpt>
      <trkpt lat="45.881089987233281" lon="8.541523022577167">
        <ele>221.72</ele>
        <time>2025-05-19T15:24:21Z</time>
      </trkpt>
      <trkpt lat="45.881150001659989" lon="8.54146895930171">
        <ele>221.24000000000001</ele>
        <time>2025-05-19T15:24:22Z</time>
      </trkpt>
      <trkpt lat="45.881197024136782" lon="8.54140299372375">
        <ele>220.75999999999999</ele>
        <time>2025-05-19T15:24:23Z</time>
      </trkpt>
      <trkpt lat="45.881240023300052" lon="8.541305009275675">
        <ele>219.80000000000001</ele>
        <time>2025-05-19T15:24:24Z</time>
      </trkpt>
      <trkpt lat="45.881284028291702" lon="8.541200989857316">
        <ele>218.84</ele>
        <time>2025-05-19T15:24:25Z</time>
      </trkpt>
      <trkpt lat="45.881324009969831" lon="8.54107903316617">
        <ele>218.36000000000001</ele>
        <time>2025-05-19T15:24:26Z</time>
      </trkpt>
      <trkpt lat="45.881354017183185" lon="8.540938971564174">
        <ele>217.88</ele>
        <time>2025-05-19T15:24:27Z</time>
      </trkpt>
      <trkpt lat="45.88140900246799" lon="8.540643006563187">
        <ele>216.43000000000001</ele>
        <time>2025-05-19T15:24:29Z</time>
      </trkpt>
      <trkpt lat="45.881435992196202" lon="8.54050001129508">
        <ele>216.43000000000001</ele>
        <time>2025-05-19T15:24:30Z</time>
      </trkpt>
      <trkpt lat="45.881461976096034" lon="8.540346035733819">
        <ele>215.94999999999999</ele>
        <time>2025-05-19T15:24:31Z</time>
      </trkpt>
      <trkpt lat="45.881475973874331" lon="8.540174039080739">
        <ele>215.47</ele>
        <time>2025-05-19T15:24:32Z</time>
      </trkpt>
      <trkpt lat="45.881488965824246" lon="8.540001958608627">
        <ele>215.47</ele>
        <time>2025-05-19T15:24:33Z</time>
      </trkpt>
      <trkpt lat="45.881502963602543" lon="8.539830967783928">
        <ele>214.99000000000001</ele>
        <time>2025-05-19T15:24:34Z</time>
      </trkpt>
      <trkpt lat="45.88151603937149" lon="8.539666011929512">
        <ele>214.50999999999999</ele>
        <time>2025-05-19T15:24:35Z</time>
      </trkpt>
      <trkpt lat="45.881540011614561" lon="8.53936200030148">
        <ele>214.03</ele>
        <time>2025-05-19T15:24:37Z</time>
      </trkpt>
      <trkpt lat="45.881562978029251" lon="8.539068968966603">
        <ele>214.03</ele>
        <time>2025-05-19T15:24:39Z</time>
      </trkpt>
      <trkpt lat="45.881568007171154" lon="8.539015995338559">
        <ele>213.55000000000001</ele>
        <time>2025-05-19T15:24:40Z</time>
      </trkpt>
      <trkpt lat="45.881640007719398" lon="8.538820026442409">
        <ele>213.06999999999999</ele>
        <time>2025-05-19T15:24:41Z</time>
      </trkpt>
      <trkpt lat="45.881682001054287" lon="8.538704020902515">
        <ele>212.59</ele>
        <time>2025-05-19T15:24:42Z</time>
      </trkpt>
      <trkpt lat="45.881722988560796" lon="8.538591032847762">
        <ele>212.11000000000001</ele>
        <time>2025-05-19T15:24:43Z</time>
      </trkpt>
      <trkpt lat="45.881758024916053" lon="8.538479972630739">
        <ele>211.63</ele>
        <time>2025-05-19T15:24:44Z</time>
      </trkpt>
      <trkpt lat="45.881789037957788" lon="8.538379976525903">
        <ele>211.15000000000001</ele>
        <time>2025-05-19T15:24:45Z</time>
      </trkpt>
      <trkpt lat="45.881824996322393" lon="8.538264976814389">
        <ele>211.15000000000001</ele>
        <time>2025-05-19T15:24:46Z</time>
      </trkpt>
      <trkpt lat="45.881842011585832" lon="8.538175961002708">
        <ele>211.15000000000001</ele>
        <time>2025-05-19T15:24:47Z</time>
      </trkpt>
      <trkpt lat="45.88186196051538" lon="8.538069007918239">
        <ele>210.66999999999999</ele>
        <time>2025-05-19T15:24:48Z</time>
      </trkpt>
      <trkpt lat="45.881884004920721" lon="8.537953002378345">
        <ele>210.66999999999999</ele>
        <time>2025-05-19T15:24:49Z</time>
      </trkpt>
      <trkpt lat="45.88190596550703" lon="8.537840014323592">
        <ele>210.19</ele>
        <time>2025-05-19T15:24:50Z</time>
      </trkpt>
      <trkpt lat="45.881910994648933" lon="8.537611020728946">
        <ele>208.25999999999999</ele>
        <time>2025-05-19T15:24:52Z</time>
      </trkpt>
      <trkpt lat="45.881910994648933" lon="8.537450004369021">
        <ele>208.25999999999999</ele>
        <time>2025-05-19T15:24:53Z</time>
      </trkpt>
      <trkpt lat="45.881895991042256" lon="8.537270966917276">
        <ele>207.78</ele>
        <time>2025-05-19T15:24:55Z</time>
      </trkpt>
      <trkpt lat="45.881896996870637" lon="8.537173988297582">
        <ele>207.30000000000001</ele>
        <time>2025-05-19T15:24:56Z</time>
      </trkpt>
      <trkpt lat="45.881987018510699" lon="8.536951029673219">
        <ele>206.34</ele>
        <time>2025-05-19T15:24:58Z</time>
      </trkpt>
      <trkpt lat="45.882035968825221" lon="8.536832006648183">
        <ele>205.86000000000001</ele>
        <time>2025-05-19T15:24:59Z</time>
      </trkpt>
      <trkpt lat="45.882085002958775" lon="8.536709966138005">
        <ele>205.38</ele>
        <time>2025-05-19T15:25:00Z</time>
      </trkpt>
      <trkpt lat="45.882339980453253" lon="8.536098003387451">
        <ele>204.90000000000001</ele>
        <time>2025-05-19T15:25:05Z</time>
      </trkpt>
      <trkpt lat="45.882455985993147" lon="8.535807989537716">
        <ele>205.38</ele>
        <time>2025-05-19T15:25:08Z</time>
      </trkpt>
      <trkpt lat="45.882489010691643" lon="8.535725008696318">
        <ele>205.38</ele>
        <time>2025-05-19T15:25:09Z</time>
      </trkpt>
      <trkpt lat="45.882517006248236" lon="8.535655019804835">
        <ele>205.38</ele>
        <time>2025-05-19T15:25:10Z</time>
      </trkpt>
      <trkpt lat="45.882539972662926" lon="8.535599028691649">
        <ele>205.86000000000001</ele>
        <time>2025-05-19T15:25:11Z</time>
      </trkpt>
      <trkpt lat="45.882554976269603" lon="8.535561980679631">
        <ele>205.86000000000001</ele>
        <time>2025-05-19T15:25:12Z</time>
      </trkpt>
      <trkpt lat="45.882619014009833" lon="8.535411022603512">
        <ele>205.86000000000001</ele>
        <time>2025-05-19T15:25:13Z</time>
      </trkpt>
      <trkpt lat="45.882631000131369" lon="8.535358970984817">
        <ele>205.86000000000001</ele>
        <time>2025-05-19T15:25:14Z</time>
      </trkpt>
      <trkpt lat="45.882662013173103" lon="8.535217987373471">
        <ele>206.34</ele>
        <time>2025-05-19T15:25:15Z</time>
      </trkpt>
      <trkpt lat="45.883133998140693" lon="8.534103026613593">
        <ele>207.30000000000001</ele>
        <time>2025-05-19T15:25:24Z</time>
      </trkpt>
      <trkpt lat="45.88357899338007" lon="8.533348990604281">
        <ele>208.25999999999999</ele>
        <time>2025-05-19T15:25:31Z</time>
      </trkpt>
      <trkpt lat="45.883669015020132" lon="8.533197026699781">
        <ele>208.74000000000001</ele>
        <time>2025-05-19T15:25:33Z</time>
      </trkpt>
      <trkpt lat="45.88392298668623" lon="8.53287398815155">
        <ele>209.69999999999999</ele>
        <time>2025-05-19T15:25:37Z</time>
      </trkpt>
      <trkpt lat="45.884315008297563" lon="8.532393034547567">
        <ele>214.50999999999999</ele>
        <time>2025-05-19T15:25:42Z</time>
      </trkpt>
      <trkpt lat="45.884392037987709" lon="8.532298989593983">
        <ele>215.47</ele>
        <time>2025-05-19T15:25:43Z</time>
      </trkpt>
      <trkpt lat="45.884464960545301" lon="8.532203016802669">
        <ele>215.94999999999999</ele>
        <time>2025-05-19T15:25:44Z</time>
      </trkpt>
      <trkpt lat="45.884527992457151" lon="8.532109977677465">
        <ele>216.43000000000001</ele>
        <time>2025-05-19T15:25:45Z</time>
      </trkpt>
      <trkpt lat="45.88458800688386" lon="8.532020961865783">
        <ele>217.40000000000001</ele>
        <time>2025-05-19T15:25:46Z</time>
      </trkpt>
      <trkpt lat="45.884648021310568" lon="8.531933035701513">
        <ele>217.88</ele>
        <time>2025-05-19T15:25:47Z</time>
      </trkpt>
      <trkpt lat="45.884944992139935" lon="8.531492985785008">
        <ele>219.31999999999999</ele>
        <time>2025-05-19T15:25:52Z</time>
      </trkpt>
      <trkpt lat="45.885007018223405" lon="8.531401036307216">
        <ele>219.31999999999999</ele>
        <time>2025-05-19T15:25:53Z</time>
      </trkpt>
      <trkpt lat="45.885072983801365" lon="8.531301962211728">
        <ele>219.31999999999999</ele>
        <time>2025-05-19T15:25:54Z</time>
      </trkpt>
      <trkpt lat="45.885437009856105" lon="8.530596038326621">
        <ele>220.75999999999999</ele>
        <time>2025-05-19T15:26:00Z</time>
      </trkpt>
      <trkpt lat="45.885483026504517" lon="8.530452959239483">
        <ele>220.28</ele>
        <time>2025-05-19T15:26:01Z</time>
      </trkpt>
      <trkpt lat="45.885580005124211" lon="8.530183983966708">
        <ele>219.80000000000001</ele>
        <time>2025-05-19T15:26:03Z</time>
      </trkpt>
      <trkpt lat="45.886224992573261" lon="8.528979001566768">
        <ele>219.80000000000001</ele>
        <time>2025-05-19T15:26:13Z</time>
      </trkpt>
      <trkpt lat="45.886289030313492" lon="8.5288530215621">
        <ele>219.80000000000001</ele>
        <time>2025-05-19T15:26:14Z</time>
      </trkpt>
      <trkpt lat="45.886589018628001" lon="8.528266036882997">
        <ele>219.80000000000001</ele>
        <time>2025-05-19T15:26:19Z</time>
      </trkpt>
      <trkpt lat="45.886619025841355" lon="8.528147013857961">
        <ele>219.31999999999999</ele>
        <time>2025-05-19T15:26:20Z</time>
      </trkpt>
      <trkpt lat="45.88665003888309" lon="8.528026985004544">
        <ele>219.31999999999999</ele>
        <time>2025-05-19T15:26:21Z</time>
      </trkpt>
      <trkpt lat="45.886741988360882" lon="8.52767201140523">
        <ele>218.36000000000001</ele>
        <time>2025-05-19T15:26:24Z</time>
      </trkpt>
      <trkpt lat="45.8867790363729" lon="8.527558017522097">
        <ele>218.36000000000001</ele>
        <time>2025-05-19T15:26:25Z</time>
      </trkpt>
      <trkpt lat="45.886827986687422" lon="8.527447041124106">
        <ele>218.36000000000001</ele>
        <time>2025-05-19T15:26:26Z</time>
      </trkpt>
      <trkpt lat="45.887283040210605" lon="8.526153964921832">
        <ele>218.36000000000001</ele>
        <time>2025-05-19T15:26:37Z</time>
      </trkpt>
      <trkpt lat="45.887310029938817" lon="8.526076013222337">
        <ele>217.88</ele>
        <time>2025-05-19T15:26:38Z</time>
      </trkpt>
      <trkpt lat="45.887330984696746" lon="8.526017004624009">
        <ele>217.88</ele>
        <time>2025-05-19T15:26:39Z</time>
      </trkpt>
      <trkpt lat="45.887340037152171" lon="8.525992026552558">
        <ele>217.88</ele>
        <time>2025-05-19T15:26:40Z</time>
      </trkpt>
      <trkpt lat="45.887386975809932" lon="8.5259760171175">
        <ele>217.40000000000001</ele>
        <time>2025-05-19T15:26:41Z</time>
      </trkpt>
      <trkpt lat="45.887440033257008" lon="8.525957996025682">
        <ele>216.91</ele>
        <time>2025-05-19T15:26:42Z</time>
      </trkpt>
      <trkpt lat="45.887490995228291" lon="8.525940980762243">
        <ele>216.91</ele>
        <time>2025-05-19T15:26:43Z</time>
      </trkpt>
      <trkpt lat="45.887540029361844" lon="8.525924971327186">
        <ele>216.43000000000001</ele>
        <time>2025-05-19T15:26:44Z</time>
      </trkpt>
      <trkpt lat="45.887735998257995" lon="8.525865962728858">
        <ele>215.47</ele>
        <time>2025-05-19T15:26:50Z</time>
      </trkpt>
      <trkpt lat="45.887735998257995" lon="8.525865962728858">
        <ele>214.50999999999999</ele>
        <time>2025-05-19T15:27:00Z</time>
      </trkpt>
      <trkpt lat="45.887735998257995" lon="8.525865962728858">
        <ele>214.03</ele>
        <time>2025-05-19T15:27:40Z</time>
      </trkpt>
      <trkpt lat="45.887877987697721" lon="8.525834027677774">
        <ele>213.06999999999999</ele>
        <time>2025-05-19T15:27:46Z</time>
      </trkpt>
      <trkpt lat="45.887930961325765" lon="8.525824975222349">
        <ele>212.59</ele>
        <time>2025-05-19T15:27:47Z</time>
      </trkpt>
      <trkpt lat="45.88798301294446" lon="8.525816006585956">
        <ele>212.11000000000001</ele>
        <time>2025-05-19T15:27:48Z</time>
      </trkpt>
      <trkpt lat="45.888163978233933" lon="8.525785999372602">
        <ele>209.69999999999999</ele>
        <time>2025-05-19T15:27:52Z</time>
      </trkpt>
      <trkpt lat="45.88821804150939" lon="8.525751968845725">
        <ele>210.19</ele>
        <time>2025-05-19T15:27:53Z</time>
      </trkpt>
      <trkpt lat="45.888214018195868" lon="8.525684997439385">
        <ele>210.66999999999999</ele>
        <time>2025-05-19T15:27:54Z</time>
      </trkpt>
      <trkpt lat="45.888209994882345" lon="8.525601010769606">
        <ele>210.66999999999999</ele>
        <time>2025-05-19T15:27:55Z</time>
      </trkpt>
      <trkpt lat="45.888204965740442" lon="8.525509983301163">
        <ele>210.66999999999999</ele>
        <time>2025-05-19T15:27:56Z</time>
      </trkpt>
      <trkpt lat="45.888215024024248" lon="8.525271015241742">
        <ele>210.19</ele>
        <time>2025-05-19T15:27:58Z</time>
      </trkpt>
      <trkpt lat="45.888252994045615" lon="8.525002961978316">
        <ele>209.69999999999999</ele>
        <time>2025-05-19T15:28:00Z</time>
      </trkpt>
      <trkpt lat="45.888303034007549" lon="8.524845968931913">
        <ele>209.22</ele>
        <time>2025-05-19T15:28:01Z</time>
      </trkpt>
      <trkpt lat="45.888840984553099" lon="8.523631012067199">
        <ele>206.81999999999999</ele>
        <time>2025-05-19T15:28:10Z</time>
      </trkpt>
      <trkpt lat="45.888876020908356" lon="8.523540990427136">
        <ele>206.81999999999999</ele>
        <time>2025-05-19T15:28:11Z</time>
      </trkpt>
      <trkpt lat="45.8889099676162" lon="8.523451974615455">
        <ele>206.81999999999999</ele>
        <time>2025-05-19T15:28:12Z</time>
      </trkpt>
      <trkpt lat="45.889325961470604" lon="8.522532982751727">
        <ele>206.81999999999999</ele>
        <time>2025-05-19T15:28:21Z</time>
      </trkpt>
      <trkpt lat="45.889440039172769" lon="8.522284962236881">
        <ele>207.30000000000001</ele>
        <time>2025-05-19T15:28:23Z</time>
      </trkpt>
      <trkpt lat="45.889497958123684" lon="8.522157976403832">
        <ele>207.30000000000001</ele>
        <time>2025-05-19T15:28:24Z</time>
      </trkpt>
      <trkpt lat="45.889557972550392" lon="8.522023027762771">
        <ele>206.81999999999999</ele>
        <time>2025-05-19T15:28:25Z</time>
      </trkpt>
      <trkpt lat="45.889618992805481" lon="8.521876009181142">
        <ele>206.81999999999999</ele>
        <time>2025-05-19T15:28:26Z</time>
      </trkpt>
      <trkpt lat="45.88968101888895" lon="8.52172396145761">
        <ele>206.81999999999999</ele>
        <time>2025-05-19T15:28:27Z</time>
      </trkpt>
      <trkpt lat="45.889820996671915" lon="8.521416010335088">
        <ele>206.81999999999999</ele>
        <time>2025-05-19T15:28:29Z</time>
      </trkpt>
      <trkpt lat="45.889892997220159" lon="8.521260023117065">
        <ele>206.81999999999999</ele>
        <time>2025-05-19T15:28:30Z</time>
      </trkpt>
      <trkpt lat="45.889966003596783" lon="8.521102024242282">
        <ele>206.81999999999999</ele>
        <time>2025-05-19T15:28:31Z</time>
      </trkpt>
      <trkpt lat="45.890635969117284" lon="8.519641980528832">
        <ele>204.90000000000001</ele>
        <time>2025-05-19T15:28:40Z</time>
      </trkpt>
      <trkpt lat="45.89073303155601" lon="8.519525974988937">
        <ele>204.41999999999999</ele>
        <time>2025-05-19T15:28:41Z</time>
      </trkpt>
      <trkpt lat="45.890831016004086" lon="8.519409969449043">
        <ele>204.41999999999999</ele>
        <time>2025-05-19T15:28:42Z</time>
      </trkpt>
      <trkpt lat="45.890924977138638" lon="8.519297987222672">
        <ele>203.94</ele>
        <time>2025-05-19T15:28:43Z</time>
      </trkpt>
      <trkpt lat="45.891032014042139" lon="8.519215006381273">
        <ele>203.46000000000001</ele>
        <time>2025-05-19T15:28:44Z</time>
      </trkpt>
      <trkpt lat="45.89114299044013" lon="8.519136970862746">
        <ele>203.46000000000001</ele>
        <time>2025-05-19T15:28:45Z</time>
      </trkpt>
      <trkpt lat="45.892289970070124" lon="8.51837002672255">
        <ele>201.53</ele>
        <time>2025-05-19T15:28:55Z</time>
      </trkpt>
      <trkpt lat="45.892821969464421" lon="8.517950009554625">
        <ele>201.53</ele>
        <time>2025-05-19T15:29:00Z</time>
      </trkpt>
      <trkpt lat="45.892897993326187" lon="8.517845990136266">
        <ele>201.53</ele>
        <time>2025-05-19T15:29:01Z</time>
      </trkpt>
      <trkpt lat="45.892973011359572" lon="8.517742976546288">
        <ele>201.05000000000001</ele>
        <time>2025-05-19T15:29:02Z</time>
      </trkpt>
      <trkpt lat="45.893017016351223" lon="8.517615990713239">
        <ele>200.56999999999999</ele>
        <time>2025-05-19T15:29:03Z</time>
      </trkpt>
      <trkpt lat="45.893059009686112" lon="8.517475007101893">
        <ele>200.56999999999999</ele>
        <time>2025-05-19T15:29:04Z</time>
      </trkpt>
      <trkpt lat="45.893592014908791" lon="8.51622199639678">
        <ele>199.61000000000001</ele>
        <time>2025-05-19T15:29:13Z</time>
      </trkpt>
      <trkpt lat="45.893676001578569" lon="8.51611596532166">
        <ele>199.13</ele>
        <time>2025-05-19T15:29:14Z</time>
      </trkpt>
      <trkpt lat="45.895028002560139" lon="8.51516897790134">
        <ele>197.21000000000001</ele>
        <time>2025-05-19T15:29:26Z</time>
      </trkpt>
      <trkpt lat="45.896094013005495" lon="8.514555003494024">
        <ele>197.21000000000001</ele>
        <time>2025-05-19T15:29:35Z</time>
      </trkpt>
      <trkpt lat="45.897275023162365" lon="8.513440964743495">
        <ele>198.65000000000001</ele>
        <time>2025-05-19T15:29:47Z</time>
      </trkpt>
      <trkpt lat="45.898398030549288" lon="8.512344025075436">
        <ele>199.61000000000001</ele>
        <time>2025-05-19T15:29:58Z</time>
      </trkpt>
      <trkpt lat="45.899174027144909" lon="8.511481024324894">
        <ele>201.05000000000001</ele>
        <time>2025-05-19T15:30:06Z</time>
      </trkpt>
      <trkpt lat="45.900014983490109" lon="8.510193983092904">
        <ele>202.97999999999999</ele>
        <time>2025-05-19T15:30:16Z</time>
      </trkpt>
      <trkpt lat="45.900113973766565" lon="8.510087030008435">
        <ele>202.97999999999999</ele>
        <time>2025-05-19T15:30:17Z</time>
      </trkpt>
      <trkpt lat="45.900211958214641" lon="8.509979993104935">
        <ele>203.46000000000001</ele>
        <time>2025-05-19T15:30:18Z</time>
      </trkpt>
      <trkpt lat="45.900310026481748" lon="8.509873962029815">
        <ele>203.46000000000001</ele>
        <time>2025-05-19T15:30:19Z</time>
      </trkpt>
      <trkpt lat="45.900408010929823" lon="8.509772960096598">
        <ele>203.46000000000001</ele>
        <time>2025-05-19T15:30:20Z</time>
      </trkpt>
      <trkpt lat="45.900514964014292" lon="8.509684028103948">
        <ele>203.94</ele>
        <time>2025-05-19T15:30:21Z</time>
      </trkpt>
      <trkpt lat="45.900731971487403" lon="8.509504990652204">
        <ele>204.41999999999999</ele>
        <time>2025-05-19T15:30:23Z</time>
      </trkpt>
      <trkpt lat="45.900841020047665" lon="8.509414969012141">
        <ele>204.41999999999999</ele>
        <time>2025-05-19T15:30:24Z</time>
      </trkpt>
      <trkpt lat="45.902073998004198" lon="8.508605025708675">
        <ele>206.81999999999999</ele>
        <time>2025-05-19T15:30:35Z</time>
      </trkpt>
      <trkpt lat="45.9032619651407" lon="8.508093981072307">
        <ele>205.86000000000001</ele>
        <time>2025-05-19T15:30:45Z</time>
      </trkpt>
      <trkpt lat="45.903616016730666" lon="8.507929025217891">
        <ele>204.90000000000001</ele>
        <time>2025-05-19T15:30:48Z</time>
      </trkpt>
      <trkpt lat="45.903838975355029" lon="8.50779801607132">
        <ele>204.90000000000001</ele>
        <time>2025-05-19T15:30:50Z</time>
      </trkpt>
      <trkpt lat="45.903939977288246" lon="8.507739007472992">
        <ele>204.90000000000001</ele>
        <time>2025-05-19T15:30:51Z</time>
      </trkpt>
      <trkpt lat="45.904022958129644" lon="8.507655020803213">
        <ele>205.38</ele>
        <time>2025-05-19T15:30:52Z</time>
      </trkpt>
      <trkpt lat="45.904089007526636" lon="8.507546978071332">
        <ele>204.90000000000001</ele>
        <time>2025-05-19T15:30:53Z</time>
      </trkpt>
      <trkpt lat="45.904154973104596" lon="8.50743499584496">
        <ele>205.38</ele>
        <time>2025-05-19T15:30:54Z</time>
      </trkpt>
      <trkpt lat="45.9042480122298" lon="8.507280014455319">
        <ele>205.38</ele>
        <time>2025-05-19T15:30:55Z</time>
      </trkpt>
      <trkpt lat="45.904754027724266" lon="8.506041001528502">
        <ele>207.78</ele>
        <time>2025-05-19T15:31:04Z</time>
      </trkpt>
      <trkpt lat="45.904830973595381" lon="8.505899012088776">
        <ele>208.25999999999999</ele>
        <time>2025-05-19T15:31:05Z</time>
      </trkpt>
      <trkpt lat="45.904929041862488" lon="8.50578099489212">
        <ele>208.74000000000001</ele>
        <time>2025-05-19T15:31:06Z</time>
      </trkpt>
      <trkpt lat="45.905037000775337" lon="8.505664989352226">
        <ele>208.74000000000001</ele>
        <time>2025-05-19T15:31:07Z</time>
      </trkpt>
      <trkpt lat="45.905158035457134" lon="8.505616039037705">
        <ele>208.74000000000001</ele>
        <time>2025-05-19T15:31:08Z</time>
      </trkpt>
      <trkpt lat="45.905277980491519" lon="8.505568010732532">
        <ele>208.74000000000001</ele>
        <time>2025-05-19T15:31:09Z</time>
      </trkpt>
      <trkpt lat="45.905401026830077" lon="8.5055420268327">
        <ele>208.74000000000001</ele>
        <time>2025-05-19T15:31:10Z</time>
      </trkpt>
      <trkpt lat="45.905997985973954" lon="8.505529034882784">
        <ele>208.74000000000001</ele>
        <time>2025-05-19T15:31:15Z</time>
      </trkpt>
      <trkpt lat="45.906993001699448" lon="8.505460973829031">
        <ele>207.78</ele>
        <time>2025-05-19T15:31:24Z</time>
      </trkpt>
      <trkpt lat="45.907516032457352" lon="8.505447981879115">
        <ele>205.86000000000001</ele>
        <time>2025-05-19T15:31:29Z</time>
      </trkpt>
      <trkpt lat="45.907617034390569" lon="8.505454016849399">
        <ele>205.86000000000001</ele>
        <time>2025-05-19T15:31:30Z</time>
      </trkpt>
      <trkpt lat="45.907718036323786" lon="8.50545996800065">
        <ele>205.38</ele>
        <time>2025-05-19T15:31:31Z</time>
      </trkpt>
      <trkpt lat="45.90867499820888" lon="8.505538003519177">
        <ele>203.46000000000001</ele>
        <time>2025-05-19T15:31:41Z</time>
      </trkpt>
      <trkpt lat="45.908976998180151" lon="8.505602041259408">
        <ele>202.49000000000001</ele>
        <time>2025-05-19T15:31:45Z</time>
      </trkpt>
      <trkpt lat="45.909513020887971" lon="8.505633976310492">
        <ele>201.53</ele>
        <time>2025-05-19T15:31:51Z</time>
      </trkpt>
      <trkpt lat="45.909689040854573" lon="8.505597012117505">
        <ele>201.53</ele>
        <time>2025-05-19T15:31:53Z</time>
      </trkpt>
      <trkpt lat="45.909789958968759" lon="8.505528029054403">
        <ele>201.05000000000001</ele>
        <time>2025-05-19T15:31:54Z</time>
      </trkpt>
      <trkpt lat="45.909861037507653" lon="8.505445970222354">
        <ele>200.56999999999999</ele>
        <time>2025-05-19T15:31:55Z</time>
      </trkpt>
      <trkpt lat="45.909933960065246" lon="8.505360977724195">
        <ele>200.56999999999999</ele>
        <time>2025-05-19T15:31:56Z</time>
      </trkpt>
      <trkpt lat="45.91000403277576" lon="8.505277996882796">
        <ele>200.56999999999999</ele>
        <time>2025-05-19T15:31:57Z</time>
      </trkpt>
      <trkpt lat="45.910100005567074" lon="8.50515503436327">
        <ele>201.05000000000001</ele>
        <time>2025-05-19T15:31:59Z</time>
      </trkpt>
      <trkpt lat="45.910205030813813" lon="8.505022013559938">
        <ele>201.53</ele>
        <time>2025-05-19T15:32:03Z</time>
      </trkpt>
      <trkpt lat="45.9102419950068" lon="8.504975996911526">
        <ele>202.00999999999999</ele>
        <time>2025-05-19T15:32:04Z</time>
      </trkpt>
      <trkpt lat="45.910281976684928" lon="8.50492000579834">
        <ele>202.00999999999999</ele>
        <time>2025-05-19T15:32:05Z</time>
      </trkpt>
      <trkpt lat="45.910332016646862" lon="8.504850016906858">
        <ele>202.49000000000001</ele>
        <time>2025-05-19T15:32:06Z</time>
      </trkpt>
      <trkpt lat="45.910388007760048" lon="8.504772987216711">
        <ele>202.49000000000001</ele>
        <time>2025-05-19T15:32:07Z</time>
      </trkpt>
      <trkpt lat="45.910449028015137" lon="8.504689000546932">
        <ele>202.97999999999999</ele>
        <time>2025-05-19T15:32:08Z</time>
      </trkpt>
      <trkpt lat="45.910512981936336" lon="8.504600990563631">
        <ele>203.46000000000001</ele>
        <time>2025-05-19T15:32:09Z</time>
      </trkpt>
      <trkpt lat="45.910578025504947" lon="8.504509963095188">
        <ele>204.41999999999999</ele>
        <time>2025-05-19T15:32:10Z</time>
      </trkpt>
      <trkpt lat="45.910790003836155" lon="8.504234030842781">
        <ele>206.81999999999999</ele>
        <time>2025-05-19T15:32:13Z</time>
      </trkpt>
      <trkpt lat="45.911236004903913" lon="8.503670012578368">
        <ele>211.63</ele>
        <time>2025-05-19T15:32:19Z</time>
      </trkpt>
      <trkpt lat="45.91187696903944" lon="8.502909019589424">
        <ele>214.03</ele>
        <time>2025-05-19T15:32:28Z</time>
      </trkpt>
      <trkpt lat="45.911943018436432" lon="8.502830984070897">
        <ele>214.03</ele>
        <time>2025-05-19T15:32:29Z</time>
      </trkpt>
      <trkpt lat="45.912178969010711" lon="8.502607019618154">
        <ele>214.50999999999999</ele>
        <time>2025-05-19T15:32:33Z</time>
      </trkpt>
      <trkpt lat="45.912359012290835" lon="8.502452038228512">
        <ele>214.03</ele>
        <time>2025-05-19T15:32:37Z</time>
      </trkpt>
      <trkpt lat="45.913103995844722" lon="8.501857006922364">
        <ele>214.99000000000001</ele>
        <time>2025-05-19T15:32:48Z</time>
      </trkpt>
      <trkpt lat="45.913187982514501" lon="8.501818031072617">
        <ele>214.99000000000001</ele>
        <time>2025-05-19T15:32:49Z</time>
      </trkpt>
      <trkpt lat="45.913270963355899" lon="8.501780983060598">
        <ele>214.99000000000001</ele>
        <time>2025-05-19T15:32:50Z</time>
      </trkpt>
      <trkpt lat="45.913356961682439" lon="8.501744018867612">
        <ele>214.50999999999999</ele>
        <time>2025-05-19T15:32:51Z</time>
      </trkpt>
      <trkpt lat="45.913454024121165" lon="8.501701019704342">
        <ele>214.50999999999999</ele>
        <time>2025-05-19T15:32:52Z</time>
      </trkpt>
      <trkpt lat="45.913544967770576" lon="8.501701019704342">
        <ele>214.50999999999999</ele>
        <time>2025-05-19T15:32:53Z</time>
      </trkpt>
      <trkpt lat="45.913920979946852" lon="8.501727003604174">
        <ele>213.55000000000001</ele>
        <time>2025-05-19T15:32:57Z</time>
      </trkpt>
      <trkpt lat="45.914009995758533" lon="8.501733038574457">
        <ele>213.55000000000001</ele>
        <time>2025-05-19T15:32:58Z</time>
      </trkpt>
      <trkpt lat="45.914107980206609" lon="8.50173999555409">
        <ele>213.06999999999999</ele>
        <time>2025-05-19T15:32:59Z</time>
      </trkpt>
      <trkpt lat="45.914206970483065" lon="8.501746030524373">
        <ele>213.06999999999999</ele>
        <time>2025-05-19T15:33:00Z</time>
      </trkpt>
      <trkpt lat="45.914292968809605" lon="8.501748964190483">
        <ele>212.59</ele>
        <time>2025-05-19T15:33:01Z</time>
      </trkpt>
      <trkpt lat="45.914382990449667" lon="8.501751981675625">
        <ele>212.11000000000001</ele>
        <time>2025-05-19T15:33:02Z</time>
      </trkpt>
      <trkpt lat="45.914923958480358" lon="8.501772014424205">
        <ele>210.19</ele>
        <time>2025-05-19T15:33:07Z</time>
      </trkpt>
      <trkpt lat="45.915370965376496" lon="8.501781988888979">
        <ele>208.25999999999999</ele>
        <time>2025-05-19T15:33:11Z</time>
      </trkpt>
      <trkpt lat="45.91572099365294" lon="8.5016980022192">
        <ele>207.78</ele>
        <time>2025-05-19T15:33:14Z</time>
      </trkpt>
      <trkpt lat="45.915829036384821" lon="8.501619966700673">
        <ele>207.30000000000001</ele>
        <time>2025-05-19T15:33:15Z</time>
      </trkpt>
      <trkpt lat="45.915938001126051" lon="8.501542015001178">
        <ele>207.30000000000001</ele>
        <time>2025-05-19T15:33:16Z</time>
      </trkpt>
      <trkpt lat="45.916035985574126" lon="8.501430032774806">
        <ele>206.81999999999999</ele>
        <time>2025-05-19T15:33:17Z</time>
      </trkpt>
      <trkpt lat="45.916117960587144" lon="8.501302041113377">
        <ele>206.81999999999999</ele>
        <time>2025-05-19T15:33:18Z</time>
      </trkpt>
      <trkpt lat="45.916439993306994" lon="8.500771969556809">
        <ele>205.86000000000001</ele>
        <time>2025-05-19T15:33:22Z</time>
      </trkpt>
      <trkpt lat="45.916510988026857" lon="8.500628974288702">
        <ele>205.86000000000001</ele>
        <time>2025-05-19T15:33:23Z</time>
      </trkpt>
      <trkpt lat="45.916577959433198" lon="8.500481033697724">
        <ele>206.34</ele>
        <time>2025-05-19T15:33:24Z</time>
      </trkpt>
      <trkpt lat="45.917200986295938" lon="8.498569959774613">
        <ele>205.86000000000001</ele>
        <time>2025-05-19T15:33:36Z</time>
      </trkpt>
      <trkpt lat="45.917897019535303" lon="8.497467990964651">
        <ele>205.38</ele>
        <time>2025-05-19T15:33:44Z</time>
      </trkpt>
      <trkpt lat="45.918639991432428" lon="8.496298966929317">
        <ele>204.90000000000001</ele>
        <time>2025-05-19T15:33:54Z</time>
      </trkpt>
      <trkpt lat="45.918861022219062" lon="8.495951034128666">
        <ele>204.90000000000001</ele>
        <time>2025-05-19T15:33:58Z</time>
      </trkpt>
      <trkpt lat="45.918967975303531" lon="8.495779037475586">
        <ele>204.90000000000001</ele>
        <time>2025-05-19T15:33:59Z</time>
      </trkpt>
      <trkpt lat="45.918993959203362" lon="8.495749030262232">
        <ele>204.90000000000001</ele>
        <time>2025-05-19T15:34:00Z</time>
      </trkpt>
      <trkpt lat="45.919141983613372" lon="8.495568986982107">
        <ele>204.41999999999999</ele>
        <time>2025-05-19T15:34:02Z</time>
      </trkpt>
      <trkpt lat="45.919219013303518" lon="8.495464967563748">
        <ele>204.41999999999999</ele>
        <time>2025-05-19T15:34:03Z</time>
      </trkpt>
      <trkpt lat="45.920157032087445" lon="8.494241964071989">
        <ele>203.46000000000001</ele>
        <time>2025-05-19T15:34:14Z</time>
      </trkpt>
      <trkpt lat="45.920423995703459" lon="8.493880033493042">
        <ele>203.46000000000001</ele>
        <time>2025-05-19T15:34:17Z</time>
      </trkpt>
      <trkpt lat="45.920517034828663" lon="8.493766039609909">
        <ele>203.46000000000001</ele>
        <time>2025-05-19T15:34:18Z</time>
      </trkpt>
      <trkpt lat="45.920608984306455" lon="8.493651039898396">
        <ele>203.46000000000001</ele>
        <time>2025-05-19T15:34:19Z</time>
      </trkpt>
      <trkpt lat="45.920702023431659" lon="8.493536040186882">
        <ele>203.46000000000001</ele>
        <time>2025-05-19T15:34:20Z</time>
      </trkpt>
      <trkpt lat="45.920797996222973" lon="8.493416011333466">
        <ele>203.46000000000001</ele>
        <time>2025-05-19T15:34:21Z</time>
      </trkpt>
      <trkpt lat="45.921404007822275" lon="8.492649989202619">
        <ele>204.90000000000001</ele>
        <time>2025-05-19T15:34:27Z</time>
      </trkpt>
      <trkpt lat="45.921514984220266" lon="8.492513028904796">
        <ele>204.41999999999999</ele>
        <time>2025-05-19T15:34:28Z</time>
      </trkpt>
      <trkpt lat="45.9224440343678" lon="8.491336964070797">
        <ele>204.41999999999999</ele>
        <time>2025-05-19T15:34:37Z</time>
      </trkpt>
      <trkpt lat="45.923638036474586" lon="8.489728979766369">
        <ele>202.49000000000001</ele>
        <time>2025-05-19T15:34:49Z</time>
      </trkpt>
      <trkpt lat="45.924502965062857" lon="8.488270025700331">
        <ele>200.56999999999999</ele>
        <time>2025-05-19T15:34:59Z</time>
      </trkpt>
      <trkpt lat="45.925115011632442" lon="8.487161016091704">
        <ele>202.00999999999999</ele>
        <time>2025-05-19T15:35:07Z</time>
      </trkpt>
      <trkpt lat="45.925187012180686" lon="8.487022966146469">
        <ele>202.00999999999999</ele>
        <time>2025-05-19T15:35:08Z</time>
      </trkpt>
      <trkpt lat="45.925806015729904" lon="8.485521012917161">
        <ele>202.49000000000001</ele>
        <time>2025-05-19T15:35:18Z</time>
      </trkpt>
      <trkpt lat="45.926224021241069" lon="8.484439998865128">
        <ele>203.46000000000001</ele>
        <time>2025-05-19T15:35:25Z</time>
      </trkpt>
      <trkpt lat="45.926289986819029" lon="8.484292980283499">
        <ele>203.46000000000001</ele>
        <time>2025-05-19T15:35:26Z</time>
      </trkpt>
      <trkpt lat="45.926372967660427" lon="8.484167000278831">
        <ele>203.46000000000001</ele>
        <time>2025-05-19T15:35:27Z</time>
      </trkpt>
      <trkpt lat="45.927292965352535" lon="8.482528002932668">
        <ele>202.00999999999999</ele>
        <time>2025-05-19T15:35:39Z</time>
      </trkpt>
      <trkpt lat="45.928103998303413" lon="8.480545012280345">
        <ele>204.90000000000001</ele>
        <time>2025-05-19T15:35:52Z</time>
      </trkpt>
      <trkpt lat="45.928187984973192" lon="8.480416014790535">
        <ele>204.90000000000001</ele>
        <time>2025-05-19T15:35:53Z</time>
      </trkpt>
      <trkpt lat="45.928284041583538" lon="8.480310989543796">
        <ele>204.90000000000001</ele>
        <time>2025-05-19T15:35:54Z</time>
      </trkpt>
      <trkpt lat="45.928381020203233" lon="8.480203030630946">
        <ele>205.38</ele>
        <time>2025-05-19T15:35:55Z</time>
      </trkpt>
      <trkpt lat="45.928481016308069" lon="8.480092976242304">
        <ele>205.38</ele>
        <time>2025-05-19T15:35:56Z</time>
      </trkpt>
      <trkpt lat="45.928732976317406" lon="8.479815032333136">
        <ele>205.86000000000001</ele>
        <time>2025-05-19T15:35:59Z</time>
      </trkpt>
      <trkpt lat="45.928807994350791" lon="8.479753006249666">
        <ele>206.34</ele>
        <time>2025-05-19T15:36:00Z</time>
      </trkpt>
      <trkpt lat="45.928940009325743" lon="8.479657033458352">
        <ele>207.30000000000001</ele>
        <time>2025-05-19T15:36:02Z</time>
      </trkpt>
      <trkpt lat="45.929157016798854" lon="8.479446982964873">
        <ele>209.69999999999999</ele>
        <time>2025-05-19T15:36:08Z</time>
      </trkpt>
      <trkpt lat="45.929270004853606" lon="8.479356039315462">
        <ele>210.66999999999999</ele>
        <time>2025-05-19T15:36:11Z</time>
      </trkpt>
      <trkpt lat="45.929327001795173" lon="8.479330977424979">
        <ele>211.15000000000001</ele>
        <time>2025-05-19T15:36:12Z</time>
      </trkpt>
      <trkpt lat="45.929389027878642" lon="8.479302981868386">
        <ele>211.63</ele>
        <time>2025-05-19T15:36:13Z</time>
      </trkpt>
      <trkpt lat="45.929458010941744" lon="8.4792660176754">
        <ele>212.11000000000001</ele>
        <time>2025-05-19T15:36:14Z</time>
      </trkpt>
      <trkpt lat="45.929529005661607" lon="8.479226035997272">
        <ele>212.59</ele>
        <time>2025-05-19T15:36:15Z</time>
      </trkpt>
      <trkpt lat="45.929681975394487" lon="8.479183036834002">
        <ele>214.03</ele>
        <time>2025-05-19T15:36:17Z</time>
      </trkpt>
      <trkpt lat="45.92977199703455" lon="8.479172978550196">
        <ele>214.99000000000001</ele>
        <time>2025-05-19T15:36:18Z</time>
      </trkpt>
      <trkpt lat="45.929863024502993" lon="8.479164009913802">
        <ele>215.47</ele>
        <time>2025-05-19T15:36:19Z</time>
      </trkpt>
      <trkpt lat="45.929956985637546" lon="8.479154035449028">
        <ele>215.47</ele>
        <time>2025-05-19T15:36:20Z</time>
      </trkpt>
      <trkpt lat="45.930055975914001" lon="8.479169961065054">
        <ele>215.47</ele>
        <time>2025-05-19T15:36:21Z</time>
      </trkpt>
      <trkpt lat="45.930488985031843" lon="8.479324020445347">
        <ele>215.94999999999999</ele>
        <time>2025-05-19T15:36:25Z</time>
      </trkpt>
      <trkpt lat="45.930919982492924" lon="8.479492999613285">
        <ele>216.43000000000001</ele>
        <time>2025-05-19T15:36:29Z</time>
      </trkpt>
      <trkpt lat="45.93103900551796" lon="8.479562988504767">
        <ele>216.91</ele>
        <time>2025-05-19T15:36:30Z</time>
      </trkpt>
      <trkpt lat="45.931378975510597" lon="8.479764992371202">
        <ele>215.47</ele>
        <time>2025-05-19T15:36:33Z</time>
      </trkpt>
      <trkpt lat="45.931809972971678" lon="8.480015024542809">
        <ele>214.03</ele>
        <time>2025-05-19T15:36:37Z</time>
      </trkpt>
      <trkpt lat="45.931921033188701" lon="8.48008300177753">
        <ele>213.06999999999999</ele>
        <time>2025-05-19T15:36:38Z</time>
      </trkpt>
      <trkpt lat="45.933191981166601" lon="8.480866039171815">
        <ele>207.78</ele>
        <time>2025-05-19T15:36:49Z</time>
      </trkpt>
      <trkpt lat="45.934661999344826" lon="8.48175703547895">
        <ele>206.81999999999999</ele>
        <time>2025-05-19T15:37:02Z</time>
      </trkpt>
      <trkpt lat="45.936021041125059" lon="8.482592962682247">
        <ele>206.34</ele>
        <time>2025-05-19T15:37:14Z</time>
      </trkpt>
      <trkpt lat="45.937845027074218" lon="8.483694009482861">
        <ele>206.34</ele>
        <time>2025-05-19T15:37:30Z</time>
      </trkpt>
      <trkpt lat="45.939072975888848" lon="8.484412003308535">
        <ele>207.78</ele>
        <time>2025-05-19T15:37:41Z</time>
      </trkpt>
      <trkpt lat="45.939293000847101" lon="8.484537983313203">
        <ele>208.74000000000001</ele>
        <time>2025-05-19T15:37:43Z</time>
      </trkpt>
      <trkpt lat="45.939401965588331" lon="8.484600009396672">
        <ele>209.22</ele>
        <time>2025-05-19T15:37:44Z</time>
      </trkpt>
      <trkpt lat="45.940555986016989" lon="8.485309034585953">
        <ele>211.15000000000001</ele>
        <time>2025-05-19T15:37:54Z</time>
      </trkpt>
      <trkpt lat="45.94214603304863" lon="8.486332967877388">
        <ele>209.22</ele>
        <time>2025-05-19T15:38:08Z</time>
      </trkpt>
      <trkpt lat="45.943595012649894" lon="8.487342987209559">
        <ele>205.86000000000001</ele>
        <time>2025-05-19T15:38:21Z</time>
      </trkpt>
      <trkpt lat="45.944478968158364" lon="8.488027034327388">
        <ele>204.90000000000001</ele>
        <time>2025-05-19T15:38:30Z</time>
      </trkpt>
      <trkpt lat="45.944951036944985" lon="8.488444034010172">
        <ele>205.86000000000001</ele>
        <time>2025-05-19T15:38:39Z</time>
      </trkpt>
      <trkpt lat="45.945337023586035" lon="8.488747961819172">
        <ele>206.34</ele>
        <time>2025-05-19T15:38:49Z</time>
      </trkpt>
      <trkpt lat="45.945360995829105" lon="8.488761959597468">
        <ele>206.34</ele>
        <time>2025-05-19T15:38:52Z</time>
      </trkpt>
      <trkpt lat="45.945582026615739" lon="8.489003023132682">
        <ele>206.34</ele>
        <time>2025-05-19T15:38:56Z</time>
      </trkpt>
      <trkpt lat="45.945575991645455" lon="8.48899899981916">
        <ele>206.34</ele>
        <time>2025-05-19T15:38:57Z</time>
      </trkpt>
      <trkpt lat="45.945782018825412" lon="8.489400995895267">
        <ele>205.86000000000001</ele>
        <time>2025-05-19T15:39:00Z</time>
      </trkpt>
      <trkpt lat="45.945795010775328" lon="8.489507026970387">
        <ele>205.86000000000001</ele>
        <time>2025-05-19T15:39:01Z</time>
      </trkpt>
      <trkpt lat="45.94582200050354" lon="8.489745995029807">
        <ele>206.34</ele>
        <time>2025-05-19T15:39:03Z</time>
      </trkpt>
      <trkpt lat="45.945832980796695" lon="8.489986974745989">
        <ele>206.81999999999999</ele>
        <time>2025-05-19T15:39:05Z</time>
      </trkpt>
      <trkpt lat="45.945832980796695" lon="8.490087976679206">
        <ele>206.81999999999999</ele>
        <time>2025-05-19T15:39:06Z</time>
      </trkpt>
      <trkpt lat="45.945830969139934" lon="8.490195013582707">
        <ele>206.34</ele>
        <time>2025-05-19T15:39:07Z</time>
      </trkpt>
      <trkpt lat="45.945823006331921" lon="8.490313030779362">
        <ele>206.34</ele>
        <time>2025-05-19T15:39:08Z</time>
      </trkpt>
      <trkpt lat="45.945814037695527" lon="8.490440016612411">
        <ele>205.86000000000001</ele>
        <time>2025-05-19T15:39:09Z</time>
      </trkpt>
      <trkpt lat="45.945769026875496" lon="8.491666959598661">
        <ele>202.49000000000001</ele>
        <time>2025-05-19T15:39:18Z</time>
      </trkpt>
      <trkpt lat="45.945792999118567" lon="8.493015021085739">
        <ele>202.00999999999999</ele>
        <time>2025-05-19T15:39:27Z</time>
      </trkpt>
      <trkpt lat="45.945746982470155" lon="8.494513034820557">
        <ele>199.61000000000001</ele>
        <time>2025-05-19T15:39:37Z</time>
      </trkpt>
      <trkpt lat="45.945648998022079" lon="8.49538098089397">
        <ele>200.09</ele>
        <time>2025-05-19T15:39:43Z</time>
      </trkpt>
      <trkpt lat="45.945600969716907" lon="8.495521964505315">
        <ele>200.09</ele>
        <time>2025-05-19T15:39:44Z</time>
      </trkpt>
      <trkpt lat="45.945552019402385" lon="8.495656996965408">
        <ele>200.09</ele>
        <time>2025-05-19T15:39:45Z</time>
      </trkpt>
      <trkpt lat="45.945503991097212" lon="8.495792029425502">
        <ele>200.56999999999999</ele>
        <time>2025-05-19T15:39:46Z</time>
      </trkpt>
      <trkpt lat="45.9454579744488" lon="8.495919015258551">
        <ele>201.05000000000001</ele>
        <time>2025-05-19T15:39:47Z</time>
      </trkpt>
      <trkpt lat="45.945412963628769" lon="8.496029991656542">
        <ele>201.53</ele>
        <time>2025-05-19T15:39:48Z</time>
      </trkpt>
      <trkpt lat="45.945282038301229" lon="8.496335009112954">
        <ele>202.49000000000001</ele>
        <time>2025-05-19T15:39:51Z</time>
      </trkpt>
      <trkpt lat="45.94524297863245" lon="8.496435005217791">
        <ele>202.97999999999999</ele>
        <time>2025-05-19T15:39:52Z</time>
      </trkpt>
      <trkpt lat="45.944923963397741" lon="8.497251989319921">
        <ele>206.34</ele>
        <time>2025-05-19T15:39:59Z</time>
      </trkpt>
      <trkpt lat="45.944877024739981" lon="8.497382998466492">
        <ele>206.34</ele>
        <time>2025-05-19T15:40:00Z</time>
      </trkpt>
      <trkpt lat="45.944179985672235" lon="8.498871959745884">
        <ele>208.74000000000001</ele>
        <time>2025-05-19T15:40:11Z</time>
      </trkpt>
      <trkpt lat="45.944095999002457" lon="8.498986959457398">
        <ele>208.74000000000001</ele>
        <time>2025-05-19T15:40:12Z</time>
      </trkpt>
      <trkpt lat="45.944008994847536" lon="8.499105982482433">
        <ele>208.74000000000001</ele>
        <time>2025-05-19T15:40:13Z</time>
      </trkpt>
      <trkpt lat="45.943814031779766" lon="8.499282002449036">
        <ele>208.74000000000001</ele>
        <time>2025-05-19T15:40:15Z</time>
      </trkpt>
      <trkpt lat="45.94371403567493" lon="8.499369006603956">
        <ele>208.74000000000001</ele>
        <time>2025-05-19T15:40:16Z</time>
      </trkpt>
      <trkpt lat="45.943337017670274" lon="8.499729009345174">
        <ele>208.25999999999999</ele>
        <time>2025-05-19T15:40:20Z</time>
      </trkpt>
      <trkpt lat="45.943258982151747" lon="8.499854989349842">
        <ele>208.74000000000001</ele>
        <time>2025-05-19T15:40:21Z</time>
      </trkpt>
      <trkpt lat="45.943180024623871" lon="8.49998096935451">
        <ele>208.74000000000001</ele>
        <time>2025-05-19T15:40:22Z</time>
      </trkpt>
      <trkpt lat="45.942746009677649" lon="8.501114035025239">
        <ele>210.19</ele>
        <time>2025-05-19T15:40:31Z</time>
      </trkpt>
      <trkpt lat="45.942550040781498" lon="8.501636981964111">
        <ele>210.66999999999999</ele>
        <time>2025-05-19T15:40:34Z</time>
      </trkpt>
      <trkpt lat="45.942550040781498" lon="8.501636981964111">
        <ele>210.66999999999999</ele>
        <time>2025-05-19T15:40:35Z</time>
      </trkpt>
      <trkpt lat="45.942463958635926" lon="8.501830017194152">
        <ele>210.66999999999999</ele>
        <time>2025-05-19T15:40:36Z</time>
      </trkpt>
      <trkpt lat="45.942400004714727" lon="8.502002013847232">
        <ele>210.66999999999999</ele>
        <time>2025-05-19T15:40:37Z</time>
      </trkpt>
      <trkpt lat="45.942386006936431" lon="8.502025986090303">
        <ele>211.15000000000001</ele>
        <time>2025-05-19T15:40:38Z</time>
      </trkpt>
      <trkpt lat="45.942314006388187" lon="8.502149032428861">
        <ele>210.66999999999999</ele>
        <time>2025-05-19T15:40:39Z</time>
      </trkpt>
      <trkpt lat="45.942233959212899" lon="8.502283981069922">
        <ele>210.66999999999999</ele>
        <time>2025-05-19T15:40:40Z</time>
      </trkpt>
      <trkpt lat="45.942138992249966" lon="8.502413984388113">
        <ele>210.66999999999999</ele>
        <time>2025-05-19T15:40:41Z</time>
      </trkpt>
      <trkpt lat="45.941571034491062" lon="8.503176989033818">
        <ele>210.66999999999999</ele>
        <time>2025-05-19T15:40:47Z</time>
      </trkpt>
      <trkpt lat="45.941511020064354" lon="8.503344040364027">
        <ele>210.66999999999999</ele>
        <time>2025-05-19T15:40:48Z</time>
      </trkpt>
      <trkpt lat="45.941447988152504" lon="8.503517964854837">
        <ele>210.66999999999999</ele>
        <time>2025-05-19T15:40:49Z</time>
      </trkpt>
      <trkpt lat="45.941389985382557" lon="8.503684010356665">
        <ele>210.19</ele>
        <time>2025-05-19T15:40:50Z</time>
      </trkpt>
      <trkpt lat="45.941354027017951" lon="8.503871010616422">
        <ele>210.19</ele>
        <time>2025-05-19T15:40:51Z</time>
      </trkpt>
      <trkpt lat="45.941318990662694" lon="8.504059016704559">
        <ele>209.22</ele>
        <time>2025-05-19T15:40:52Z</time>
      </trkpt>
      <trkpt lat="45.941295018419623" lon="8.504248028621078">
        <ele>209.22</ele>
        <time>2025-05-19T15:40:53Z</time>
      </trkpt>
      <trkpt lat="45.941278003156185" lon="8.504431005567312">
        <ele>208.74000000000001</ele>
        <time>2025-05-19T15:40:54Z</time>
      </trkpt>
      <trkpt lat="45.941260987892747" lon="8.504609037190676">
        <ele>208.25999999999999</ele>
        <time>2025-05-19T15:40:55Z</time>
      </trkpt>
      <trkpt lat="45.940905008465052" lon="8.506799982860684">
        <ele>206.34</ele>
        <time>2025-05-19T15:41:07Z</time>
      </trkpt>
      <trkpt lat="45.940589010715485" lon="8.508991012349725">
        <ele>203.46000000000001</ele>
        <time>2025-05-19T15:41:18Z</time>
      </trkpt>
      <trkpt lat="45.940444003790617" lon="8.510180991142988">
        <ele>202.49000000000001</ele>
        <time>2025-05-19T15:41:24Z</time>
      </trkpt>
      <trkpt lat="45.940433023497462" lon="8.51035600528121">
        <ele>202.00999999999999</ele>
        <time>2025-05-19T15:41:25Z</time>
      </trkpt>
      <trkpt lat="45.940148960798979" lon="8.511915961280465">
        <ele>201.05000000000001</ele>
        <time>2025-05-19T15:41:34Z</time>
      </trkpt>
      <trkpt lat="45.939597012475133" lon="8.513982016593218">
        <ele>202.49000000000001</ele>
        <time>2025-05-19T15:41:45Z</time>
      </trkpt>
      <trkpt lat="45.939345974475145" lon="8.514697998762131">
        <ele>202.97999999999999</ele>
        <time>2025-05-19T15:41:49Z</time>
      </trkpt>
      <trkpt lat="45.939266011118889" lon="8.514857003465295">
        <ele>202.97999999999999</ele>
        <time>2025-05-19T15:41:50Z</time>
      </trkpt>
      <trkpt lat="45.939079010859132" lon="8.515145005658269">
        <ele>202.97999999999999</ele>
        <time>2025-05-19T15:41:52Z</time>
      </trkpt>
      <trkpt lat="45.938975997269154" lon="8.515270985662937">
        <ele>203.46000000000001</ele>
        <time>2025-05-19T15:41:53Z</time>
      </trkpt>
      <trkpt lat="45.938858985900879" lon="8.515377016738057">
        <ele>203.46000000000001</ele>
        <time>2025-05-19T15:41:54Z</time>
      </trkpt>
      <trkpt lat="45.938396975398064" lon="8.515768032521009">
        <ele>204.41999999999999</ele>
        <time>2025-05-19T15:41:58Z</time>
      </trkpt>
      <trkpt lat="45.938294967636466" lon="8.515887977555394">
        <ele>204.41999999999999</ele>
        <time>2025-05-19T15:41:59Z</time>
      </trkpt>
      <trkpt lat="45.938209975138307" lon="8.51602703332901">
        <ele>204.41999999999999</ele>
        <time>2025-05-19T15:42:00Z</time>
      </trkpt>
      <trkpt lat="45.937935970723629" lon="8.516630027443171">
        <ele>204.90000000000001</ele>
        <time>2025-05-19T15:42:04Z</time>
      </trkpt>
      <trkpt lat="45.937890037894249" lon="8.516788026317954">
        <ele>205.38</ele>
        <time>2025-05-19T15:42:05Z</time>
      </trkpt>
      <trkpt lat="45.937846032902598" lon="8.516942001879215">
        <ele>205.86000000000001</ele>
        <time>2025-05-19T15:42:06Z</time>
      </trkpt>
      <trkpt lat="45.937816025689244" lon="8.517093965783715">
        <ele>205.38</ele>
        <time>2025-05-19T15:42:07Z</time>
      </trkpt>
      <trkpt lat="45.937793981283903" lon="8.517242996022105">
        <ele>204.90000000000001</ele>
        <time>2025-05-19T15:42:08Z</time>
      </trkpt>
      <trkpt lat="45.937655009329319" lon="8.518128041177988">
        <ele>203.94</ele>
        <time>2025-05-19T15:42:14Z</time>
      </trkpt>
      <trkpt lat="45.937611004337668" lon="8.51828302256763">
        <ele>203.94</ele>
        <time>2025-05-19T15:42:15Z</time>
      </trkpt>
      <trkpt lat="45.93757001683116" lon="8.518447978422046">
        <ele>204.41999999999999</ele>
        <time>2025-05-19T15:42:16Z</time>
      </trkpt>
      <trkpt lat="45.936794020235538" lon="8.520296020433307">
        <ele>206.81999999999999</ele>
        <time>2025-05-19T15:42:27Z</time>
      </trkpt>
      <trkpt lat="45.936415996402502" lon="8.521366976201534">
        <ele>207.78</ele>
        <time>2025-05-19T15:42:33Z</time>
      </trkpt>
      <trkpt lat="45.936401998624206" lon="8.521573003381491">
        <ele>208.25999999999999</ele>
        <time>2025-05-19T15:42:34Z</time>
      </trkpt>
      <trkpt lat="45.93639001250267" lon="8.52176696062088">
        <ele>208.25999999999999</ele>
        <time>2025-05-19T15:42:35Z</time>
      </trkpt>
      <trkpt lat="45.936284987255931" lon="8.522618981078267">
        <ele>207.30000000000001</ele>
        <time>2025-05-19T15:42:40Z</time>
      </trkpt>
      <trkpt lat="45.936254980042577" lon="8.522782009094954">
        <ele>207.30000000000001</ele>
        <time>2025-05-19T15:42:41Z</time>
      </trkpt>
      <trkpt lat="45.936209969222546" lon="8.52294503711164">
        <ele>206.81999999999999</ele>
        <time>2025-05-19T15:42:42Z</time>
      </trkpt>
      <trkpt lat="45.935836974531412" lon="8.524111965671182">
        <ele>207.30000000000001</ele>
        <time>2025-05-19T15:42:49Z</time>
      </trkpt>
      <trkpt lat="45.935770003125072" lon="8.524274993687868">
        <ele>207.78</ele>
        <time>2025-05-19T15:42:50Z</time>
      </trkpt>
      <trkpt lat="45.935232974588871" lon="8.525157021358609">
        <ele>208.74000000000001</ele>
        <time>2025-05-19T15:42:57Z</time>
      </trkpt>
      <trkpt lat="45.935169020667672" lon="8.525289036333561">
        <ele>208.74000000000001</ele>
        <time>2025-05-19T15:42:58Z</time>
      </trkpt>
      <trkpt lat="45.934911025688052" lon="8.526186989620328">
        <ele>207.78</ele>
        <time>2025-05-19T15:43:04Z</time>
      </trkpt>
      <trkpt lat="45.934660993516445" lon="8.527723979204893">
        <ele>205.38</ele>
        <time>2025-05-19T15:43:14Z</time>
      </trkpt>
      <trkpt lat="45.934634003788233" lon="8.527863034978509">
        <ele>205.38</ele>
        <time>2025-05-19T15:43:15Z</time>
      </trkpt>
      <trkpt lat="45.934485979378223" lon="8.528672978281975">
        <ele>203.94</ele>
        <time>2025-05-19T15:43:22Z</time>
      </trkpt>
      <trkpt lat="45.934458989650011" lon="8.52881102822721">
        <ele>203.46000000000001</ele>
        <time>2025-05-19T15:43:24Z</time>
      </trkpt>
      <trkpt lat="45.934373997151852" lon="8.529215035960078">
        <ele>202.97999999999999</ele>
        <time>2025-05-19T15:43:34Z</time>
      </trkpt>
      <trkpt lat="45.934255979955196" lon="8.529772013425827">
        <ele>201.53</ele>
        <time>2025-05-19T15:43:43Z</time>
      </trkpt>
      <trkpt lat="45.934051964432001" lon="8.531010020524263">
        <ele>203.46000000000001</ele>
        <time>2025-05-19T15:43:53Z</time>
      </trkpt>
      <trkpt lat="45.933599006384611" lon="8.532558996230364">
        <ele>211.15000000000001</ele>
        <time>2025-05-19T15:44:02Z</time>
      </trkpt>
      <trkpt lat="45.933303041383624" lon="8.534309975802898">
        <ele>215.94999999999999</ele>
        <time>2025-05-19T15:44:11Z</time>
      </trkpt>
      <trkpt lat="45.932892998680472" lon="8.536814991384745">
        <ele>223.16</ele>
        <time>2025-05-19T15:44:24Z</time>
      </trkpt>
      <trkpt lat="45.932750003412366" lon="8.538766968995333">
        <ele>226.05000000000001</ele>
        <time>2025-05-19T15:44:34Z</time>
      </trkpt>
      <trkpt lat="45.932228984311223" lon="8.541541965678334">
        <ele>223.16</ele>
        <time>2025-05-19T15:44:49Z</time>
      </trkpt>
      <trkpt lat="45.931714000180364" lon="8.543167971074581">
        <ele>218.84</ele>
        <time>2025-05-19T15:44:58Z</time>
      </trkpt>
      <trkpt lat="45.930835995823145" lon="8.545084996148944">
        <ele>210.19</ele>
        <time>2025-05-19T15:45:11Z</time>
      </trkpt>
      <trkpt lat="45.929760010913014" lon="8.547416003420949">
        <ele>210.66999999999999</ele>
        <time>2025-05-19T15:45:27Z</time>
      </trkpt>
      <trkpt lat="45.929696979001164" lon="8.547542989253998">
        <ele>210.66999999999999</ele>
        <time>2025-05-19T15:45:28Z</time>
      </trkpt>
      <trkpt lat="45.929676024243236" lon="8.547578025609255">
        <ele>210.66999999999999</ele>
        <time>2025-05-19T15:45:29Z</time>
      </trkpt>
      <trkpt lat="45.929567981511354" lon="8.547714985907078">
        <ele>211.15000000000001</ele>
        <time>2025-05-19T15:45:30Z</time>
      </trkpt>
      <trkpt lat="45.929586002603173" lon="8.547830991446972">
        <ele>212.11000000000001</ele>
        <time>2025-05-19T15:45:31Z</time>
      </trkpt>
      <trkpt lat="45.929561024531722" lon="8.547936016693711">
        <ele>212.11000000000001</ele>
        <time>2025-05-19T15:45:32Z</time>
      </trkpt>
      <trkpt lat="45.929533028975129" lon="8.548054033890367">
        <ele>212.59</ele>
        <time>2025-05-19T15:45:33Z</time>
      </trkpt>
      <trkpt lat="45.929218037053943" lon="8.549768971279264">
        <ele>214.99000000000001</ele>
        <time>2025-05-19T15:45:46Z</time>
      </trkpt>
      <trkpt lat="45.92917101457715" lon="8.550055967643857">
        <ele>215.94999999999999</ele>
        <time>2025-05-19T15:45:48Z</time>
      </trkpt>
      <trkpt lat="45.929132960736752" lon="8.550292002037168">
        <ele>216.43000000000001</ele>
        <time>2025-05-19T15:45:50Z</time>
      </trkpt>
      <trkpt lat="45.928982002660632" lon="8.551251981407404">
        <ele>216.43000000000001</ele>
        <time>2025-05-19T15:45:59Z</time>
      </trkpt>
      <trkpt lat="45.928744040429592" lon="8.552242973819375">
        <ele>217.40000000000001</ele>
        <time>2025-05-19T15:46:09Z</time>
      </trkpt>
      <trkpt lat="45.928731970489025" lon="8.552298964932561">
        <ele>217.88</ele>
        <time>2025-05-19T15:46:10Z</time>
      </trkpt>
      <trkpt lat="45.92872099019587" lon="8.55233701877296">
        <ele>217.88</ele>
        <time>2025-05-19T15:46:11Z</time>
      </trkpt>
      <trkpt lat="45.928712021559477" lon="8.552369037643075">
        <ele>218.36000000000001</ele>
        <time>2025-05-19T15:46:12Z</time>
      </trkpt>
      <trkpt lat="45.928702969104052" lon="8.552401978522539">
        <ele>218.36000000000001</ele>
        <time>2025-05-19T15:46:13Z</time>
      </trkpt>
      <trkpt lat="45.928694000467658" lon="8.552437014877796">
        <ele>218.84</ele>
        <time>2025-05-19T15:46:14Z</time>
      </trkpt>
      <trkpt lat="45.928678996860981" lon="8.552492000162602">
        <ele>218.84</ele>
        <time>2025-05-19T15:46:15Z</time>
      </trkpt>
      <trkpt lat="45.928581012412906" lon="8.552556037902832">
        <ele>218.84</ele>
        <time>2025-05-19T15:46:16Z</time>
      </trkpt>
      <trkpt lat="45.928558968007565" lon="8.552594007924199">
        <ele>219.31999999999999</ele>
        <time>2025-05-19T15:46:17Z</time>
      </trkpt>
      <trkpt lat="45.928514041006565" lon="8.552683023735881">
        <ele>219.31999999999999</ele>
        <time>2025-05-19T15:46:18Z</time>
      </trkpt>
      <trkpt lat="45.928497025743127" lon="8.552782014012337">
        <ele>219.80000000000001</ele>
        <time>2025-05-19T15:46:19Z</time>
      </trkpt>
      <trkpt lat="45.928495014086366" lon="8.552791988477111">
        <ele>220.28</ele>
        <time>2025-05-19T15:46:20Z</time>
      </trkpt>
      <trkpt lat="45.928566008806229" lon="8.552993992343545">
        <ele>220.28</ele>
        <time>2025-05-19T15:46:21Z</time>
      </trkpt>
      <trkpt lat="45.928531978279352" lon="8.553150985389948">
        <ele>220.75999999999999</ele>
        <time>2025-05-19T15:46:23Z</time>
      </trkpt>
      <trkpt lat="45.928514041006565" lon="8.553237989544869">
        <ele>221.24000000000001</ele>
        <time>2025-05-19T15:46:24Z</time>
      </trkpt>
      <trkpt lat="45.928495014086366" lon="8.553330022841692">
        <ele>221.72</ele>
        <time>2025-05-19T15:46:25Z</time>
      </trkpt>
      <trkpt lat="45.928444974124432" lon="8.553581982851028">
        <ele>222.68000000000001</ele>
        <time>2025-05-19T15:46:28Z</time>
      </trkpt>
      <trkpt lat="45.928428964689374" lon="8.553668987005949">
        <ele>222.68000000000001</ele>
        <time>2025-05-19T15:46:29Z</time>
      </trkpt>
      <trkpt lat="45.9284189902246" lon="8.553762026131153">
        <ele>223.16</ele>
        <time>2025-05-19T15:46:30Z</time>
      </trkpt>
      <trkpt lat="45.928302984684706" lon="8.555032974109054">
        <ele>223.63999999999999</ele>
        <time>2025-05-19T15:46:42Z</time>
      </trkpt>
      <trkpt lat="45.928301978856325" lon="8.555243024602532">
        <ele>223.16</ele>
        <time>2025-05-19T15:46:44Z</time>
      </trkpt>
      <trkpt lat="45.928063010796905" lon="8.556626038625836">
        <ele>221.72</ele>
        <time>2025-05-19T15:46:55Z</time>
      </trkpt>
      <trkpt lat="45.927950022742152" lon="8.558293031528592">
        <ele>220.28</ele>
        <time>2025-05-19T15:47:06Z</time>
      </trkpt>
      <trkpt lat="45.927872993052006" lon="8.559487033635378">
        <ele>219.80000000000001</ele>
        <time>2025-05-19T15:47:15Z</time>
      </trkpt>
      <trkpt lat="45.927728991955519" lon="8.560494035482407">
        <ele>219.31999999999999</ele>
        <time>2025-05-19T15:47:23Z</time>
      </trkpt>
      <trkpt lat="45.927705019712448" lon="8.560627978295088">
        <ele>218.84</ele>
        <time>2025-05-19T15:47:24Z</time>
      </trkpt>
      <trkpt lat="45.927542997524142" lon="8.561989031732082">
        <ele>217.88</ele>
        <time>2025-05-19T15:47:34Z</time>
      </trkpt>
      <trkpt lat="45.927358008921146" lon="8.563477993011475">
        <ele>214.99000000000001</ele>
        <time>2025-05-19T15:47:43Z</time>
      </trkpt>
      <trkpt lat="45.927214007824659" lon="8.564935019239783">
        <ele>212.11000000000001</ele>
        <time>2025-05-19T15:47:51Z</time>
      </trkpt>
      <trkpt lat="45.927226999774575" lon="8.565108021721244">
        <ele>211.63</ele>
        <time>2025-05-19T15:47:52Z</time>
      </trkpt>
      <trkpt lat="45.927239991724491" lon="8.565282030031085">
        <ele>211.15000000000001</ele>
        <time>2025-05-19T15:47:53Z</time>
      </trkpt>
      <trkpt lat="45.927250972017646" lon="8.565430976450443">
        <ele>210.66999999999999</ele>
        <time>2025-05-19T15:47:54Z</time>
      </trkpt>
      <trkpt lat="45.927315009757876" lon="8.565589981153607">
        <ele>210.19</ele>
        <time>2025-05-19T15:47:55Z</time>
      </trkpt>
      <trkpt lat="45.927380975335836" lon="8.565738005563617">
        <ele>209.69999999999999</ele>
        <time>2025-05-19T15:47:56Z</time>
      </trkpt>
      <trkpt lat="45.927451970055699" lon="8.565888041630387">
        <ele>209.22</ele>
        <time>2025-05-19T15:47:57Z</time>
      </trkpt>
      <trkpt lat="45.927596976980567" lon="8.566186018288136">
        <ele>208.74000000000001</ele>
        <time>2025-05-19T15:47:59Z</time>
      </trkpt>
      <trkpt lat="45.927670989185572" lon="8.5663259960711">
        <ele>208.25999999999999</ele>
        <time>2025-05-19T15:48:00Z</time>
      </trkpt>
      <trkpt lat="45.928703974932432" lon="8.56746300123632">
        <ele>205.38</ele>
        <time>2025-05-19T15:48:10Z</time>
      </trkpt>
      <trkpt lat="45.929920021444559" lon="8.568635964766145">
        <ele>204.90000000000001</ele>
        <time>2025-05-19T15:48:22Z</time>
      </trkpt>
      <trkpt lat="45.931116035208106" lon="8.569811023771763">
        <ele>205.86000000000001</ele>
        <time>2025-05-19T15:48:34Z</time>
      </trkpt>
      <trkpt lat="45.93273701146245" lon="8.571430994197726">
        <ele>208.25999999999999</ele>
        <time>2025-05-19T15:48:50Z</time>
      </trkpt>
      <trkpt lat="45.933860018849373" lon="8.57255500741303">
        <ele>203.46000000000001</ele>
        <time>2025-05-19T15:49:02Z</time>
      </trkpt>
      <trkpt lat="45.934019023552537" lon="8.57274703681469">
        <ele>200.56999999999999</ele>
        <time>2025-05-19T15:49:09Z</time>
      </trkpt>
      <trkpt lat="45.934070991352201" lon="8.57304803095758">
        <ele>199.61000000000001</ele>
        <time>2025-05-19T15:49:14Z</time>
      </trkpt>
      <trkpt lat="45.934106027707458" lon="8.573090024292469">
        <ele>200.09</ele>
        <time>2025-05-19T15:49:15Z</time>
      </trkpt>
      <trkpt lat="45.934137962758541" lon="8.573129000142217">
        <ele>199.61000000000001</ele>
        <time>2025-05-19T15:49:16Z</time>
      </trkpt>
      <trkpt lat="45.934160007163882" lon="8.573155989870429">
        <ele>199.61000000000001</ele>
        <time>2025-05-19T15:49:17Z</time>
      </trkpt>
      <trkpt lat="45.934207029640675" lon="8.57313796877861">
        <ele>199.61000000000001</ele>
        <time>2025-05-19T15:49:18Z</time>
      </trkpt>
      <trkpt lat="45.934396963566542" lon="8.573148027062416">
        <ele>199.61000000000001</ele>
        <time>2025-05-19T15:49:22Z</time>
      </trkpt>
      <trkpt lat="45.934442980214953" lon="8.573187002912164">
        <ele>199.61000000000001</ele>
        <time>2025-05-19T15:49:23Z</time>
      </trkpt>
      <trkpt lat="45.934640038758516" lon="8.573357993736863">
        <ele>199.13</ele>
        <time>2025-05-19T15:49:31Z</time>
      </trkpt>
      <trkpt lat="45.934717990458012" lon="8.573434017598629">
        <ele>199.13</ele>
        <time>2025-05-19T15:49:45Z</time>
      </trkpt>
      <trkpt lat="45.935033988207579" lon="8.573757978156209">
        <ele>199.13</ele>
        <time>2025-05-19T15:49:55Z</time>
      </trkpt>
      <trkpt lat="45.935070030391216" lon="8.573797959834337">
        <ele>199.13</ele>
        <time>2025-05-19T15:49:56Z</time>
      </trkpt>
      <trkpt lat="45.935249989852309" lon="8.574047992005944">
        <ele>199.61000000000001</ele>
        <time>2025-05-19T15:50:00Z</time>
      </trkpt>
      <trkpt lat="45.935287037864327" lon="8.574114041402936">
        <ele>199.61000000000001</ele>
        <time>2025-05-19T15:50:01Z</time>
      </trkpt>
      <trkpt lat="45.935359038412571" lon="8.574239015579224">
        <ele>200.56999999999999</ele>
        <time>2025-05-19T15:50:03Z</time>
      </trkpt>
      <trkpt lat="45.935392985120416" lon="8.574298024177551">
        <ele>200.56999999999999</ele>
        <time>2025-05-19T15:50:04Z</time>
      </trkpt>
      <trkpt lat="45.93555198982358" lon="8.574617961421609">
        <ele>201.05000000000001</ele>
        <time>2025-05-19T15:50:09Z</time>
      </trkpt>
      <trkpt lat="45.935588032007217" lon="8.574692979454994">
        <ele>201.53</ele>
        <time>2025-05-19T15:50:10Z</time>
      </trkpt>
      <trkpt lat="45.935650980100036" lon="8.574826000258327">
        <ele>202.00999999999999</ele>
        <time>2025-05-19T15:50:12Z</time>
      </trkpt>
      <trkpt lat="45.935679981485009" lon="8.574887020513415">
        <ele>202.00999999999999</ele>
        <time>2025-05-19T15:50:13Z</time>
      </trkpt>
      <trkpt lat="45.935710994526744" lon="8.57496103271842">
        <ele>202.49000000000001</ele>
        <time>2025-05-19T15:50:14Z</time>
      </trkpt>
      <trkpt lat="45.935742007568479" lon="8.575033033266664">
        <ele>202.97999999999999</ele>
        <time>2025-05-19T15:50:15Z</time>
      </trkpt>
      <trkpt lat="45.935773020610213" lon="8.575101010501385">
        <ele>202.97999999999999</ele>
        <time>2025-05-19T15:50:16Z</time>
      </trkpt>
      <trkpt lat="45.935902018100023" lon="8.575379960238934">
        <ele>205.86000000000001</ele>
        <time>2025-05-19T15:50:24Z</time>
      </trkpt>
      <trkpt lat="45.936141991987824" lon="8.575943978503346">
        <ele>204.90000000000001</ele>
        <time>2025-05-19T15:50:34Z</time>
      </trkpt>
      <trkpt lat="45.936169987544417" lon="8.576012039557099">
        <ele>204.41999999999999</ele>
        <time>2025-05-19T15:50:35Z</time>
      </trkpt>
      <trkpt lat="45.936198988929391" lon="8.576080016791821">
        <ele>203.94</ele>
        <time>2025-05-19T15:50:36Z</time>
      </trkpt>
      <trkpt lat="45.936230001971126" lon="8.576148999854922">
        <ele>203.46000000000001</ele>
        <time>2025-05-19T15:50:37Z</time>
      </trkpt>
      <trkpt lat="45.93626000918448" lon="8.576217982918024">
        <ele>202.97999999999999</ele>
        <time>2025-05-19T15:50:38Z</time>
      </trkpt>
      <trkpt lat="45.936294039711356" lon="8.576289983466268">
        <ele>202.00999999999999</ele>
        <time>2025-05-19T15:50:39Z</time>
      </trkpt>
      <trkpt lat="45.936408033594489" lon="8.576534986495972">
        <ele>200.56999999999999</ele>
        <time>2025-05-19T15:50:42Z</time>
      </trkpt>
      <trkpt lat="45.936482967808843" lon="8.576696002855897">
        <ele>199.13</ele>
        <time>2025-05-19T15:50:44Z</time>
      </trkpt>
      <trkpt lat="45.936524039134383" lon="8.576782001182437">
        <ele>198.16999999999999</ele>
        <time>2025-05-19T15:50:45Z</time>
      </trkpt>
      <trkpt lat="45.93656200915575" lon="8.576864982023835">
        <ele>196.25</ele>
        <time>2025-05-19T15:50:46Z</time>
      </trkpt>
      <trkpt lat="45.936769964173436" lon="8.577309977263212">
        <ele>191.91999999999999</ele>
        <time>2025-05-19T15:50:51Z</time>
      </trkpt>
      <trkpt lat="45.937108006328344" lon="8.578112041577697">
        <ele>190.96000000000001</ele>
        <time>2025-05-19T15:51:00Z</time>
      </trkpt>
      <trkpt lat="45.937585020437837" lon="8.579167993739247">
        <ele>190.47999999999999</ele>
        <time>2025-05-19T15:51:09Z</time>
      </trkpt>
      <trkpt lat="45.938211986795068" lon="8.580144988372922">
        <ele>192.88</ele>
        <time>2025-05-19T15:51:19Z</time>
      </trkpt>
      <trkpt lat="45.938354982063174" lon="8.58035696670413">
        <ele>192.40000000000001</ele>
        <time>2025-05-19T15:51:26Z</time>
      </trkpt>
      <trkpt lat="45.938499988988042" lon="8.580572968348861">
        <ele>191.91999999999999</ele>
        <time>2025-05-19T15:51:29Z</time>
      </trkpt>
      <trkpt lat="45.939056966453791" lon="8.581480979919434">
        <ele>190.96000000000001</ele>
        <time>2025-05-19T15:51:37Z</time>
      </trkpt>
      <trkpt lat="45.939124021679163" lon="8.581605032086372">
        <ele>190.96000000000001</ele>
        <time>2025-05-19T15:51:38Z</time>
      </trkpt>
      <trkpt lat="45.939171966165304" lon="8.581749033182859">
        <ele>190.96000000000001</ele>
        <time>2025-05-19T15:51:39Z</time>
      </trkpt>
      <trkpt lat="45.939213959500194" lon="8.581894040107727">
        <ele>190.96000000000001</ele>
        <time>2025-05-19T15:51:40Z</time>
      </trkpt>
      <trkpt lat="45.939256036654115" lon="8.582042986527085">
        <ele>191.44</ele>
        <time>2025-05-19T15:51:41Z</time>
      </trkpt>
      <trkpt lat="45.939261987805367" lon="8.582226969301701">
        <ele>190.96000000000001</ele>
        <time>2025-05-19T15:51:42Z</time>
      </trkpt>
      <trkpt lat="45.939256036654115" lon="8.582403995096684">
        <ele>190.96000000000001</ele>
        <time>2025-05-19T15:51:43Z</time>
      </trkpt>
      <trkpt lat="45.939250001683831" lon="8.582584960386157">
        <ele>191.44</ele>
        <time>2025-05-19T15:51:44Z</time>
      </trkpt>
      <trkpt lat="45.939181018620729" lon="8.584112981334329">
        <ele>193.84</ele>
        <time>2025-05-19T15:51:52Z</time>
      </trkpt>
      <trkpt lat="45.939181018620729" lon="8.584315991029143">
        <ele>194.31999999999999</ele>
        <time>2025-05-19T15:51:53Z</time>
      </trkpt>
      <trkpt lat="45.939183030277491" lon="8.584515983238816">
        <ele>194.31999999999999</ele>
        <time>2025-05-19T15:51:54Z</time>
      </trkpt>
      <trkpt lat="45.939269028604031" lon="8.584901969879866">
        <ele>194.80000000000001</ele>
        <time>2025-05-19T15:51:56Z</time>
      </trkpt>
      <trkpt lat="45.939314039424062" lon="8.585101962089539">
        <ele>195.28</ele>
        <time>2025-05-19T15:51:57Z</time>
      </trkpt>
      <trkpt lat="45.939501961693168" lon="8.586124973371625">
        <ele>196.72999999999999</ele>
        <time>2025-05-19T15:52:02Z</time>
      </trkpt>
      <trkpt lat="45.939540015533566" lon="8.586556976661086">
        <ele>196.72999999999999</ele>
        <time>2025-05-19T15:52:04Z</time>
      </trkpt>
      <trkpt lat="45.939559964463115" lon="8.58677800744772">
        <ele>196.72999999999999</ele>
        <time>2025-05-19T15:52:05Z</time>
      </trkpt>
      <trkpt lat="45.939835980534554" lon="8.588092038407922">
        <ele>197.69</ele>
        <time>2025-05-19T15:52:11Z</time>
      </trkpt>
      <trkpt lat="45.939881997182965" lon="8.588313991203904">
        <ele>197.69</ele>
        <time>2025-05-19T15:52:12Z</time>
      </trkpt>
      <trkpt lat="45.940073020756245" lon="8.589320993050933">
        <ele>198.16999999999999</ele>
        <time>2025-05-19T15:52:17Z</time>
      </trkpt>
      <trkpt lat="45.940110990777612" lon="8.589497013017535">
        <ele>198.16999999999999</ele>
        <time>2025-05-19T15:52:18Z</time>
      </trkpt>
      <trkpt lat="45.94019397161901" lon="8.589643025770783">
        <ele>197.69</ele>
        <time>2025-05-19T15:52:19Z</time>
      </trkpt>
      <trkpt lat="45.94027996994555" lon="8.589789038524032">
        <ele>198.16999999999999</ele>
        <time>2025-05-19T15:52:20Z</time>
      </trkpt>
      <trkpt lat="45.940395975485444" lon="8.589886017143726">
        <ele>198.65000000000001</ele>
        <time>2025-05-19T15:52:21Z</time>
      </trkpt>
      <trkpt lat="45.940522039309144" lon="8.589962041005492">
        <ele>199.13</ele>
        <time>2025-05-19T15:52:22Z</time>
      </trkpt>
      <trkpt lat="45.940647013485432" lon="8.590035969391465">
        <ele>199.13</ele>
        <time>2025-05-19T15:52:23Z</time>
      </trkpt>
      <trkpt lat="45.941571034491062" lon="8.590585989877582">
        <ele>199.61000000000001</ele>
        <time>2025-05-19T15:52:30Z</time>
      </trkpt>
      <trkpt lat="45.94191201031208" lon="8.5908820386976">
        <ele>199.13</ele>
        <time>2025-05-19T15:52:33Z</time>
      </trkpt>
      <trkpt lat="45.942564960569143" lon="8.591922987252474">
        <ele>200.09</ele>
        <time>2025-05-19T15:52:41Z</time>
      </trkpt>
      <trkpt lat="45.94281398691237" lon="8.592467978596687">
        <ele>200.56999999999999</ele>
        <time>2025-05-19T15:52:45Z</time>
      </trkpt>
      <trkpt lat="45.943383034318686" lon="8.593979990109801">
        <ele>201.53</ele>
        <time>2025-05-19T15:52:54Z</time>
      </trkpt>
      <trkpt lat="45.943848984315991" lon="8.59533098526299">
        <ele>201.05000000000001</ele>
        <time>2025-05-19T15:53:02Z</time>
      </trkpt>
      <trkpt lat="45.9438899718225" lon="8.595526032149792">
        <ele>200.56999999999999</ele>
        <time>2025-05-19T15:53:03Z</time>
      </trkpt>
      <trkpt lat="45.944048976525664" lon="8.596087032929063">
        <ele>200.09</ele>
        <time>2025-05-19T15:53:06Z</time>
      </trkpt>
      <trkpt lat="45.944115025922656" lon="8.596272021532059">
        <ele>200.09</ele>
        <time>2025-05-19T15:53:07Z</time>
      </trkpt>
      <trkpt lat="45.944179985672235" lon="8.596454998478293">
        <ele>200.09</ele>
        <time>2025-05-19T15:53:08Z</time>
      </trkpt>
      <trkpt lat="45.945009039714932" lon="8.598177982494235">
        <ele>198.65000000000001</ele>
        <time>2025-05-19T15:53:18Z</time>
      </trkpt>
      <trkpt lat="45.945911016315222" lon="8.599952012300491">
        <ele>197.21000000000001</ele>
        <time>2025-05-19T15:53:29Z</time>
      </trkpt>
      <trkpt lat="45.946663962677121" lon="8.601218014955521">
        <ele>197.21000000000001</ele>
        <time>2025-05-19T15:53:37Z</time>
      </trkpt>
      <trkpt lat="45.947909010574222" lon="8.602758022025228">
        <ele>200.56999999999999</ele>
        <time>2025-05-19T15:53:47Z</time>
      </trkpt>
      <trkpt lat="45.949101001024246" lon="8.604256035760045">
        <ele>200.09</ele>
        <time>2025-05-19T15:53:57Z</time>
      </trkpt>
      <trkpt lat="45.95001102425158" lon="8.605680037289858">
        <ele>199.61000000000001</ele>
        <time>2025-05-19T15:54:06Z</time>
      </trkpt>
      <trkpt lat="45.95101903192699" lon="8.607179978862405">
        <ele>200.09</ele>
        <time>2025-05-19T15:54:16Z</time>
      </trkpt>
      <trkpt lat="45.951754041016102" lon="8.608405999839306">
        <ele>200.09</ele>
        <time>2025-05-19T15:54:24Z</time>
      </trkpt>
      <trkpt lat="45.952168023213744" lon="8.609197000041604">
        <ele>200.56999999999999</ele>
        <time>2025-05-19T15:54:29Z</time>
      </trkpt>
      <trkpt lat="45.95306396484375" lon="8.610964994877577">
        <ele>206.34</ele>
        <time>2025-05-19T15:54:40Z</time>
      </trkpt>
      <trkpt lat="45.954145984724164" lon="8.613088969141245">
        <ele>206.81999999999999</ele>
        <time>2025-05-19T15:54:53Z</time>
      </trkpt>
      <trkpt lat="45.954924998804927" lon="8.614514982327819">
        <ele>205.86000000000001</ele>
        <time>2025-05-19T15:55:02Z</time>
      </trkpt>
      <trkpt lat="45.95501602627337" lon="8.614667030051351">
        <ele>205.86000000000001</ele>
        <time>2025-05-19T15:55:03Z</time>
      </trkpt>
      <trkpt lat="45.955106969922781" lon="8.61481798812747">
        <ele>205.38</ele>
        <time>2025-05-19T15:55:04Z</time>
      </trkpt>
      <trkpt lat="45.955199003219604" lon="8.614972969517112">
        <ele>204.90000000000001</ele>
        <time>2025-05-19T15:55:05Z</time>
      </trkpt>
      <trkpt lat="45.955291958525777" lon="8.615127028897405">
        <ele>204.41999999999999</ele>
        <time>2025-05-19T15:55:06Z</time>
      </trkpt>
      <trkpt lat="45.9553839918226" lon="8.615273963660002">
        <ele>204.41999999999999</ele>
        <time>2025-05-19T15:55:07Z</time>
      </trkpt>
      <trkpt lat="45.956276999786496" lon="8.616738030686975">
        <ele>203.94</ele>
        <time>2025-05-19T15:55:18Z</time>
      </trkpt>
      <trkpt lat="45.956356963142753" lon="8.616866022348404">
        <ele>203.46000000000001</ele>
        <time>2025-05-19T15:55:19Z</time>
      </trkpt>
      <trkpt lat="45.957120973616838" lon="8.618117021396756">
        <ele>202.49000000000001</ele>
        <time>2025-05-19T15:55:29Z</time>
      </trkpt>
      <trkpt lat="45.958193019032478" lon="8.61984696239233">
        <ele>202.00999999999999</ele>
        <time>2025-05-19T15:55:43Z</time>
      </trkpt>
      <trkpt lat="45.959247965365648" lon="8.621052028611302">
        <ele>200.56999999999999</ele>
        <time>2025-05-19T15:55:54Z</time>
      </trkpt>
      <trkpt lat="45.959661025553942" lon="8.621440026909113">
        <ele>200.56999999999999</ele>
        <time>2025-05-19T15:55:58Z</time>
      </trkpt>
      <trkpt lat="45.959767978638411" lon="8.621516972780228">
        <ele>200.09</ele>
        <time>2025-05-19T15:55:59Z</time>
      </trkpt>
      <trkpt lat="45.959877027198672" lon="8.621585033833981">
        <ele>199.61000000000001</ele>
        <time>2025-05-19T15:56:00Z</time>
      </trkpt>
      <trkpt lat="45.959994038566947" lon="8.621642030775547">
        <ele>199.13</ele>
        <time>2025-05-19T15:56:01Z</time>
      </trkpt>
      <trkpt lat="45.960117001086473" lon="8.621673965826631">
        <ele>199.13</ele>
        <time>2025-05-19T15:56:02Z</time>
      </trkpt>
      <trkpt lat="45.961572015658021" lon="8.621929027140141">
        <ele>200.56999999999999</ele>
        <time>2025-05-19T15:56:14Z</time>
      </trkpt>
      <trkpt lat="45.962269976735115" lon="8.62210001796484">
        <ele>201.05000000000001</ele>
        <time>2025-05-19T15:56:19Z</time>
      </trkpt>
      <trkpt lat="45.962286991998553" lon="8.622106974944472">
        <ele>201.53</ele>
        <time>2025-05-19T15:56:20Z</time>
      </trkpt>
      <trkpt lat="45.963724991306663" lon="8.622693037614226">
        <ele>201.05000000000001</ele>
        <time>2025-05-19T15:56:32Z</time>
      </trkpt>
      <trkpt lat="45.965136000886559" lon="8.623320003971458">
        <ele>201.53</ele>
        <time>2025-05-19T15:56:42Z</time>
      </trkpt>
      <trkpt lat="45.966294966638088" lon="8.62412097863853">
        <ele>202.97999999999999</ele>
        <time>2025-05-19T15:56:50Z</time>
      </trkpt>
      <trkpt lat="45.967311020940542" lon="8.62504499964416">
        <ele>204.41999999999999</ele>
        <time>2025-05-19T15:56:58Z</time>
      </trkpt>
      <trkpt lat="45.967961037531495" lon="8.625900037586689">
        <ele>202.97999999999999</ele>
        <time>2025-05-19T15:57:04Z</time>
      </trkpt>
      <trkpt lat="45.968066984787583" lon="8.626039009541273">
        <ele>202.49000000000001</ele>
        <time>2025-05-19T15:57:05Z</time>
      </trkpt>
      <trkpt lat="45.968192964792252" lon="8.626144034788013">
        <ele>202.00999999999999</ele>
        <time>2025-05-19T15:57:06Z</time>
      </trkpt>
      <trkpt lat="45.968326991423965" lon="8.626223998144269">
        <ele>202.00999999999999</ele>
        <time>2025-05-19T15:57:07Z</time>
      </trkpt>
      <trkpt lat="45.968464035540819" lon="8.626305973157287">
        <ele>201.53</ele>
        <time>2025-05-19T15:57:08Z</time>
      </trkpt>
      <trkpt lat="45.968605019152164" lon="8.626375962048769">
        <ele>201.53</ele>
        <time>2025-05-19T15:57:09Z</time>
      </trkpt>
      <trkpt lat="45.969960959628224" lon="8.626906033605337">
        <ele>200.09</ele>
        <time>2025-05-19T15:57:18Z</time>
      </trkpt>
      <trkpt lat="45.970877017825842" lon="8.627338036894798">
        <ele>201.05000000000001</ele>
        <time>2025-05-19T15:57:24Z</time>
      </trkpt>
      <trkpt lat="45.972018968313932" lon="8.628265997394919">
        <ele>203.94</ele>
        <time>2025-05-19T15:57:32Z</time>
      </trkpt>
      <trkpt lat="45.972731010988355" lon="8.629279034212232">
        <ele>204.90000000000001</ele>
        <time>2025-05-19T15:57:39Z</time>
      </trkpt>
      <trkpt lat="45.972845004871488" lon="8.629393028095365">
        <ele>204.90000000000001</ele>
        <time>2025-05-19T15:57:40Z</time>
      </trkpt>
      <trkpt lat="45.972963022068143" lon="8.629510961472988">
        <ele>204.90000000000001</ele>
        <time>2025-05-19T15:57:41Z</time>
      </trkpt>
      <trkpt lat="45.973330987617373" lon="8.629837017506361">
        <ele>204.90000000000001</ele>
        <time>2025-05-19T15:57:44Z</time>
      </trkpt>
      <trkpt lat="45.974321980029345" lon="8.631031019613147">
        <ele>204.41999999999999</ele>
        <time>2025-05-19T15:57:52Z</time>
      </trkpt>
      <trkpt lat="45.975931975990534" lon="8.632870009168983">
        <ele>202.49000000000001</ele>
        <time>2025-05-19T15:58:05Z</time>
      </trkpt>
      <trkpt lat="45.976828001439571" lon="8.634250005707145">
        <ele>200.56999999999999</ele>
        <time>2025-05-19T15:58:14Z</time>
      </trkpt>
      <trkpt lat="45.977096976712346" lon="8.634623000398278">
        <ele>199.61000000000001</ele>
        <time>2025-05-19T15:58:17Z</time>
      </trkpt>
      <trkpt lat="45.977198984473944" lon="8.634731965139508">
        <ele>199.13</ele>
        <time>2025-05-19T15:58:18Z</time>
      </trkpt>
      <trkpt lat="45.977309038862586" lon="8.634830033406615">
        <ele>199.13</ele>
        <time>2025-05-19T15:58:19Z</time>
      </trkpt>
      <trkpt lat="45.9775569755584" lon="8.634984008967876">
        <ele>199.13</ele>
        <time>2025-05-19T15:58:21Z</time>
      </trkpt>
      <trkpt lat="45.978969996795058" lon="8.635894032195211">
        <ele>199.61000000000001</ele>
        <time>2025-05-19T15:58:32Z</time>
      </trkpt>
      <trkpt lat="45.97978999838233" lon="8.636718979105353">
        <ele>202.97999999999999</ele>
        <time>2025-05-19T15:58:40Z</time>
      </trkpt>
      <trkpt lat="45.981087014079094" lon="8.638084977865219">
        <ele>204.90000000000001</ele>
        <time>2025-05-19T15:58:52Z</time>
      </trkpt>
      <trkpt lat="45.982072977349162" lon="8.639231035485864">
        <ele>204.41999999999999</ele>
        <time>2025-05-19T15:59:01Z</time>
      </trkpt>
      <trkpt lat="45.98307503387332" lon="8.64046803675592">
        <ele>203.46000000000001</ele>
        <time>2025-05-19T15:59:11Z</time>
      </trkpt>
      <trkpt lat="45.983182992786169" lon="8.640527967363596">
        <ele>203.46000000000001</ele>
        <time>2025-05-19T15:59:12Z</time>
      </trkpt>
      <trkpt lat="45.983301009982824" lon="8.640532996505499">
        <ele>202.97999999999999</ele>
        <time>2025-05-19T15:59:13Z</time>
      </trkpt>
      <trkpt lat="45.983550036326051" lon="8.640532996505499">
        <ele>202.97999999999999</ele>
        <time>2025-05-19T15:59:15Z</time>
      </trkpt>
      <trkpt lat="45.983676016330719" lon="8.640532996505499">
        <ele>202.97999999999999</ele>
        <time>2025-05-19T15:59:16Z</time>
      </trkpt>
      <trkpt lat="45.983800990507007" lon="8.640532996505499">
        <ele>202.97999999999999</ele>
        <time>2025-05-19T15:59:17Z</time>
      </trkpt>
      <trkpt lat="45.984518984332681" lon="8.640568032860756">
        <ele>201.53</ele>
        <time>2025-05-19T15:59:23Z</time>
      </trkpt>
      <trkpt lat="45.984637001529336" lon="8.640601979568601">
        <ele>201.53</ele>
        <time>2025-05-19T15:59:24Z</time>
      </trkpt>
      <trkpt lat="45.984761975705624" lon="8.640673980116844">
        <ele>201.53</ele>
        <time>2025-05-19T15:59:25Z</time>
      </trkpt>
      <trkpt lat="45.985972993075848" lon="8.641547961160541">
        <ele>202.00999999999999</ele>
        <time>2025-05-19T15:59:35Z</time>
      </trkpt>
      <trkpt lat="45.986994998529553" lon="8.642468964681029">
        <ele>202.49000000000001</ele>
        <time>2025-05-19T15:59:44Z</time>
      </trkpt>
      <trkpt lat="45.987965036183596" lon="8.643475966528058">
        <ele>202.49000000000001</ele>
        <time>2025-05-19T15:59:53Z</time>
      </trkpt>
      <trkpt lat="45.988069977611303" lon="8.643587026745081">
        <ele>202.49000000000001</ele>
        <time>2025-05-19T15:59:54Z</time>
      </trkpt>
      <trkpt lat="45.988802975043654" lon="8.644481962546706">
        <ele>201.53</ele>
        <time>2025-05-19T16:00:01Z</time>
      </trkpt>
      <trkpt lat="45.98890196532011" lon="8.644610038027167">
        <ele>201.05000000000001</ele>
        <time>2025-05-19T16:00:02Z</time>
      </trkpt>
      <trkpt lat="45.989833027124405" lon="8.645850978791714">
        <ele>199.13</ele>
        <time>2025-05-19T16:00:13Z</time>
      </trkpt>
      <trkpt lat="45.990503998473287" lon="8.646876001730561">
        <ele>197.21000000000001</ele>
        <time>2025-05-19T16:00:23Z</time>
      </trkpt>
      <trkpt lat="45.991102969273925" lon="8.648339984938502">
        <ele>195.77000000000001</ele>
        <time>2025-05-19T16:00:33Z</time>
      </trkpt>
      <trkpt lat="45.991754997521639" lon="8.649843027815223">
        <ele>196.25</ele>
        <time>2025-05-19T16:00:43Z</time>
      </trkpt>
      <trkpt lat="45.991832027211785" lon="8.649974958971143">
        <ele>195.77000000000001</ele>
        <time>2025-05-19T16:00:44Z</time>
      </trkpt>
      <trkpt lat="45.991917019709945" lon="8.650103034451604">
        <ele>195.77000000000001</ele>
        <time>2025-05-19T16:00:45Z</time>
      </trkpt>
      <trkpt lat="45.992810027673841" lon="8.651095032691956">
        <ele>195.77000000000001</ele>
        <time>2025-05-19T16:00:54Z</time>
      </trkpt>
      <trkpt lat="45.993601027876139" lon="8.65192299708724">
        <ele>195.28</ele>
        <time>2025-05-19T16:01:02Z</time>
      </trkpt>
      <trkpt lat="45.993892969563603" lon="8.65224402397871">
        <ele>194.80000000000001</ele>
        <time>2025-05-19T16:01:05Z</time>
      </trkpt>
      <trkpt lat="45.99399296566844" lon="8.65235298871994">
        <ele>194.80000000000001</ele>
        <time>2025-05-19T16:01:06Z</time>
      </trkpt>
      <trkpt lat="45.995271038264036" lon="8.653738014400005">
        <ele>196.72999999999999</ele>
        <time>2025-05-19T16:01:19Z</time>
      </trkpt>
      <trkpt lat="45.996221965178847" lon="8.65452297963202">
        <ele>195.77000000000001</ele>
        <time>2025-05-19T16:01:28Z</time>
      </trkpt>
      <trkpt lat="45.997577989473939" lon="8.655584966763854">
        <ele>194.31999999999999</ele>
        <time>2025-05-19T16:01:39Z</time>
      </trkpt>
      <trkpt lat="45.998755982145667" lon="8.656075978651643">
        <ele>194.80000000000001</ele>
        <time>2025-05-19T16:01:48Z</time>
      </trkpt>
      <trkpt lat="46.000060038641095" lon="8.656474035233259">
        <ele>195.28</ele>
        <time>2025-05-19T16:01:58Z</time>
      </trkpt>
      <trkpt lat="46.001265021041036" lon="8.657093960791826">
        <ele>196.72999999999999</ele>
        <time>2025-05-19T16:02:07Z</time>
      </trkpt>
      <trkpt lat="46.002480983734131" lon="8.657896025106311">
        <ele>197.21000000000001</ele>
        <time>2025-05-19T16:02:17Z</time>
      </trkpt>
      <trkpt lat="46.00303603336215" lon="8.658229038119316">
        <ele>197.69</ele>
        <time>2025-05-19T16:02:22Z</time>
      </trkpt>
      <trkpt lat="46.004220983013511" lon="8.658723989501596">
        <ele>200.09</ele>
        <time>2025-05-19T16:02:32Z</time>
      </trkpt>
      <trkpt lat="46.004334976896644" lon="8.658764977008104">
        <ele>200.56999999999999</ele>
        <time>2025-05-19T16:02:33Z</time>
      </trkpt>
      <trkpt lat="46.005452033132315" lon="8.659524964168668">
        <ele>202.00999999999999</ele>
        <time>2025-05-19T16:02:43Z</time>
      </trkpt>
      <trkpt lat="46.00668802857399" lon="8.660701029002667">
        <ele>201.53</ele>
        <time>2025-05-19T16:02:55Z</time>
      </trkpt>
      <trkpt lat="46.007608026266098" lon="8.661555983126164">
        <ele>201.05000000000001</ele>
        <time>2025-05-19T16:03:04Z</time>
      </trkpt>
      <trkpt lat="46.007695030421019" lon="8.661681963130832">
        <ele>201.05000000000001</ele>
        <time>2025-05-19T16:03:05Z</time>
      </trkpt>
      <trkpt lat="46.007772982120514" lon="8.661825964227319">
        <ele>201.53</ele>
        <time>2025-05-19T16:03:06Z</time>
      </trkpt>
      <trkpt lat="46.00784900598228" lon="8.661968959495425">
        <ele>202.00999999999999</ele>
        <time>2025-05-19T16:03:07Z</time>
      </trkpt>
      <trkpt lat="46.007925029844046" lon="8.662109021097422">
        <ele>202.49000000000001</ele>
        <time>2025-05-19T16:03:08Z</time>
      </trkpt>
      <trkpt lat="46.008232980966568" lon="8.662720983847976">
        <ele>202.97999999999999</ele>
        <time>2025-05-19T16:03:12Z</time>
      </trkpt>
      <trkpt lat="46.008331971243024" lon="8.662866996601224">
        <ele>203.46000000000001</ele>
        <time>2025-05-19T16:03:13Z</time>
      </trkpt>
      <trkpt lat="46.008455017581582" lon="8.662999011576176">
        <ele>203.46000000000001</ele>
        <time>2025-05-19T16:03:14Z</time>
      </trkpt>
      <trkpt lat="46.009008977562189" lon="8.663474014028907">
        <ele>204.90000000000001</ele>
        <time>2025-05-19T16:03:18Z</time>
      </trkpt>
      <trkpt lat="46.009141998365521" lon="8.663580967113376">
        <ele>205.86000000000001</ele>
        <time>2025-05-19T16:03:19Z</time>
      </trkpt>
      <trkpt lat="46.00991397164762" lon="8.664239030331373">
        <ele>209.69999999999999</ele>
        <time>2025-05-19T16:03:26Z</time>
      </trkpt>
      <trkpt lat="46.009989995509386" lon="8.664397029206157">
        <ele>210.19</ele>
        <time>2025-05-19T16:03:27Z</time>
      </trkpt>
      <trkpt lat="46.010070964694023" lon="8.664563996717334">
        <ele>210.66999999999999</ele>
        <time>2025-05-19T16:03:28Z</time>
      </trkpt>
      <trkpt lat="46.010411018505692" lon="8.665266986936331">
        <ele>212.59</ele>
        <time>2025-05-19T16:03:32Z</time>
      </trkpt>
      <trkpt lat="46.010696003213525" lon="8.665739977732301">
        <ele>213.55000000000001</ele>
        <time>2025-05-19T16:03:35Z</time>
      </trkpt>
      <trkpt lat="46.010802034288645" lon="8.665885990485549">
        <ele>213.55000000000001</ele>
        <time>2025-05-19T16:03:36Z</time>
      </trkpt>
      <trkpt lat="46.011761007830501" lon="8.667021989822388">
        <ele>215.47</ele>
        <time>2025-05-19T16:03:45Z</time>
      </trkpt>
      <trkpt lat="46.012242967262864" lon="8.667623978108168">
        <ele>213.55000000000001</ele>
        <time>2025-05-19T16:03:50Z</time>
      </trkpt>
      <trkpt lat="46.012309016659856" lon="8.667773008346558">
        <ele>213.55000000000001</ele>
        <time>2025-05-19T16:03:51Z</time>
      </trkpt>
      <trkpt lat="46.012428961694241" lon="8.668115995824337">
        <ele>213.06999999999999</ele>
        <time>2025-05-19T16:03:53Z</time>
      </trkpt>
      <trkpt lat="46.012494005262852" lon="8.668255973607302">
        <ele>213.06999999999999</ele>
        <time>2025-05-19T16:03:54Z</time>
      </trkpt>
      <trkpt lat="46.012595007196069" lon="8.668382959440351">
        <ele>212.59</ele>
        <time>2025-05-19T16:03:55Z</time>
      </trkpt>
      <trkpt lat="46.012716963887215" lon="8.668535007163882">
        <ele>212.59</ele>
        <time>2025-05-19T16:03:56Z</time>
      </trkpt>
      <trkpt lat="46.012819977477193" lon="8.668612036854029">
        <ele>212.59</ele>
        <time>2025-05-19T16:03:57Z</time>
      </trkpt>
      <trkpt lat="46.013066992163658" lon="8.668819991871715">
        <ele>212.59</ele>
        <time>2025-05-19T16:03:59Z</time>
      </trkpt>
      <trkpt lat="46.013187021017075" lon="8.668941026553512">
        <ele>213.06999999999999</ele>
        <time>2025-05-19T16:04:00Z</time>
      </trkpt>
      <trkpt lat="46.013432024046779" lon="8.669186029583216">
        <ele>213.06999999999999</ele>
        <time>2025-05-19T16:04:02Z</time>
      </trkpt>
      <trkpt lat="46.014032000675797" lon="8.669806038960815">
        <ele>214.03</ele>
        <time>2025-05-19T16:04:07Z</time>
      </trkpt>
      <trkpt lat="46.01414498873055" lon="8.669908968731761">
        <ele>214.50999999999999</ele>
        <time>2025-05-19T16:04:08Z</time>
      </trkpt>
      <trkpt lat="46.014282032847404" lon="8.670007959008217">
        <ele>214.99000000000001</ele>
        <time>2025-05-19T16:04:09Z</time>
      </trkpt>
      <trkpt lat="46.014421004801989" lon="8.67005598731339">
        <ele>215.47</ele>
        <time>2025-05-19T16:04:10Z</time>
      </trkpt>
      <trkpt lat="46.014556037262082" lon="8.670102003961802">
        <ele>215.94999999999999</ele>
        <time>2025-05-19T16:04:11Z</time>
      </trkpt>
      <trkpt lat="46.014942023903131" lon="8.670235024765134">
        <ele>217.40000000000001</ele>
        <time>2025-05-19T16:04:14Z</time>
      </trkpt>
      <trkpt lat="46.015062974765897" lon="8.670295039191842">
        <ele>217.40000000000001</ele>
        <time>2025-05-19T16:04:15Z</time>
      </trkpt>
      <trkpt lat="46.016067964956164" lon="8.670939020812511">
        <ele>219.80000000000001</ele>
        <time>2025-05-19T16:04:23Z</time>
      </trkpt>
      <trkpt lat="46.016641035676003" lon="8.67140999995172">
        <ele>219.31999999999999</ele>
        <time>2025-05-19T16:04:28Z</time>
      </trkpt>
      <trkpt lat="46.016748994588852" lon="8.671446964144707">
        <ele>219.31999999999999</ele>
        <time>2025-05-19T16:04:29Z</time>
      </trkpt>
      <trkpt lat="46.017557010054588" lon="8.67170998826623">
        <ele>220.28</ele>
        <time>2025-05-19T16:04:36Z</time>
      </trkpt>
      <trkpt lat="46.017675027251244" lon="8.671745024621487">
        <ele>220.75999999999999</ele>
        <time>2025-05-19T16:04:37Z</time>
      </trkpt>
      <trkpt lat="46.018027989193797" lon="8.671850971877575">
        <ele>220.75999999999999</ele>
        <time>2025-05-19T16:04:40Z</time>
      </trkpt>
      <trkpt lat="46.018149023875594" lon="8.671893971040845">
        <ele>220.75999999999999</ele>
        <time>2025-05-19T16:04:41Z</time>
      </trkpt>
      <trkpt lat="46.018376005813479" lon="8.672000002115965">
        <ele>221.24000000000001</ele>
        <time>2025-05-19T16:04:43Z</time>
      </trkpt>
      <trkpt lat="46.018496034666896" lon="8.672079965472221">
        <ele>221.24000000000001</ele>
        <time>2025-05-19T16:04:44Z</time>
      </trkpt>
      <trkpt lat="46.018609022721648" lon="8.672179039567709">
        <ele>221.72</ele>
        <time>2025-05-19T16:04:45Z</time>
      </trkpt>
      <trkpt lat="46.019427012652159" lon="8.673088978976011">
        <ele>223.63999999999999</ele>
        <time>2025-05-19T16:04:53Z</time>
      </trkpt>
      <trkpt lat="46.01951502263546" lon="8.673243038356304">
        <ele>223.63999999999999</ele>
        <time>2025-05-19T16:04:54Z</time>
      </trkpt>
      <trkpt lat="46.020500985905528" lon="8.674885975196958">
        <ele>226.05000000000001</ele>
        <time>2025-05-19T16:05:04Z</time>
      </trkpt>
      <trkpt lat="46.021494995802641" lon="8.67673602886498">
        <ele>231.81</ele>
        <time>2025-05-19T16:05:15Z</time>
      </trkpt>
      <trkpt lat="46.021930016577244" lon="8.677657032385469">
        <ele>234.22</ele>
        <time>2025-05-19T16:05:22Z</time>
      </trkpt>
      <trkpt lat="46.022207960486412" lon="8.678432023152709">
        <ele>236.13999999999999</ele>
        <time>2025-05-19T16:05:28Z</time>
      </trkpt>
      <trkpt lat="46.022258000448346" lon="8.678568983450532">
        <ele>236.62</ele>
        <time>2025-05-19T16:05:29Z</time>
      </trkpt>
      <trkpt lat="46.02230996824801" lon="8.678707033395767">
        <ele>236.62</ele>
        <time>2025-05-19T16:05:30Z</time>
      </trkpt>
      <trkpt lat="46.022504009306431" lon="8.679267028346658">
        <ele>237.09999999999999</ele>
        <time>2025-05-19T16:05:34Z</time>
      </trkpt>
      <trkpt lat="46.022765021771193" lon="8.680503023788333">
        <ele>237.09999999999999</ele>
        <time>2025-05-19T16:05:43Z</time>
      </trkpt>
      <trkpt lat="46.022852025926113" lon="8.680950030684471">
        <ele>236.62</ele>
        <time>2025-05-19T16:05:47Z</time>
      </trkpt>
      <trkpt lat="46.022872980684042" lon="8.681054972112179">
        <ele>237.09999999999999</ele>
        <time>2025-05-19T16:05:48Z</time>
      </trkpt>
      <trkpt lat="46.022923020645976" lon="8.681312967091799">
        <ele>237.09999999999999</ele>
        <time>2025-05-19T16:05:52Z</time>
      </trkpt>
      <trkpt lat="46.022938024252653" lon="8.681393014267087">
        <ele>237.09999999999999</ele>
        <time>2025-05-19T16:05:53Z</time>
      </trkpt>
      <trkpt lat="46.022955039516091" lon="8.681484963744879">
        <ele>237.09999999999999</ele>
        <time>2025-05-19T16:05:54Z</time>
      </trkpt>
      <trkpt lat="46.022973982617259" lon="8.681583032011986">
        <ele>237.09999999999999</ele>
        <time>2025-05-19T16:05:55Z</time>
      </trkpt>
      <trkpt lat="46.02299502119422" lon="8.681694008409977">
        <ele>237.09999999999999</ele>
        <time>2025-05-19T16:05:56Z</time>
      </trkpt>
      <trkpt lat="46.02301899343729" lon="8.681824011728168">
        <ele>237.09999999999999</ele>
        <time>2025-05-19T16:05:57Z</time>
      </trkpt>
      <trkpt lat="46.023045983165503" lon="8.681970024481416">
        <ele>237.09999999999999</ele>
        <time>2025-05-19T16:05:58Z</time>
      </trkpt>
      <trkpt lat="46.023141033947468" lon="8.682622974738479">
        <ele>236.62</ele>
        <time>2025-05-19T16:06:02Z</time>
      </trkpt>
      <trkpt lat="46.023133993148804" lon="8.682794971391559">
        <ele>236.62</ele>
        <time>2025-05-19T16:06:03Z</time>
      </trkpt>
      <trkpt lat="46.023126030340791" lon="8.682977026328445">
        <ele>237.09999999999999</ele>
        <time>2025-05-19T16:06:04Z</time>
      </trkpt>
      <trkpt lat="46.023220997303724" lon="8.684544023126364">
        <ele>236.62</ele>
        <time>2025-05-19T16:06:14Z</time>
      </trkpt>
      <trkpt lat="46.023186966776848" lon="8.685584971681237">
        <ele>235.18000000000001</ele>
        <time>2025-05-19T16:06:23Z</time>
      </trkpt>
      <trkpt lat="46.023173974826932" lon="8.686959017068148">
        <ele>231.81</ele>
        <time>2025-05-19T16:06:34Z</time>
      </trkpt>
      <trkpt lat="46.023337002843618" lon="8.6882100161165">
        <ele>228.93000000000001</ele>
        <time>2025-05-19T16:06:44Z</time>
      </trkpt>
      <trkpt lat="46.023381007835269" lon="8.688532970845699">
        <ele>228.44999999999999</ele>
        <time>2025-05-19T16:06:47Z</time>
      </trkpt>
      <trkpt lat="46.023402968421578" lon="8.689567968249321">
        <ele>224.61000000000001</ele>
        <time>2025-05-19T16:06:57Z</time>
      </trkpt>
      <trkpt lat="46.02342501282692" lon="8.689924031496048">
        <ele>223.63999999999999</ele>
        <time>2025-05-19T16:07:00Z</time>
      </trkpt>
      <trkpt lat="46.023435993120074" lon="8.690044982358813">
        <ele>223.16</ele>
        <time>2025-05-19T16:07:01Z</time>
      </trkpt>
      <trkpt lat="46.023446973413229" lon="8.690172974020243">
        <ele>223.16</ele>
        <time>2025-05-19T16:07:02Z</time>
      </trkpt>
      <trkpt lat="46.023458037525415" lon="8.690298032015562">
        <ele>223.16</ele>
        <time>2025-05-19T16:07:03Z</time>
      </trkpt>
      <trkpt lat="46.02346901781857" lon="8.690426023676992">
        <ele>223.16</ele>
        <time>2025-05-19T16:07:04Z</time>
      </trkpt>
      <trkpt lat="46.023482009768486" lon="8.690563989803195">
        <ele>223.16</ele>
        <time>2025-05-19T16:07:05Z</time>
      </trkpt>
      <trkpt lat="46.023495001718402" lon="8.690708996728063">
        <ele>223.16</ele>
        <time>2025-05-19T16:07:06Z</time>
      </trkpt>
      <trkpt lat="46.023508999496698" lon="8.690858026966453">
        <ele>223.16</ele>
        <time>2025-05-19T16:07:07Z</time>
      </trkpt>
      <trkpt lat="46.023521991446614" lon="8.691008985042572">
        <ele>223.16</ele>
        <time>2025-05-19T16:07:08Z</time>
      </trkpt>
      <trkpt lat="46.023569013923407" lon="8.691521035507321">
        <ele>224.12</ele>
        <time>2025-05-19T16:07:12Z</time>
      </trkpt>
      <trkpt lat="46.023821979761124" lon="8.692707996815443">
        <ele>224.61000000000001</ele>
        <time>2025-05-19T16:07:22Z</time>
      </trkpt>
      <trkpt lat="46.023872019723058" lon="8.693093983456492">
        <ele>224.61000000000001</ele>
        <time>2025-05-19T16:07:25Z</time>
      </trkpt>
      <trkpt lat="46.023887023329735" lon="8.693214012309909">
        <ele>224.12</ele>
        <time>2025-05-19T16:07:26Z</time>
      </trkpt>
      <trkpt lat="46.023901021108031" lon="8.693332029506564">
        <ele>223.63999999999999</ele>
        <time>2025-05-19T16:07:27Z</time>
      </trkpt>
      <trkpt lat="46.023916024714708" lon="8.693460021167994">
        <ele>223.16</ele>
        <time>2025-05-19T16:07:28Z</time>
      </trkpt>
      <trkpt lat="46.023931028321385" lon="8.693586001172662">
        <ele>222.19999999999999</ele>
        <time>2025-05-19T16:07:29Z</time>
      </trkpt>
      <trkpt lat="46.023945026099682" lon="8.693699995055795">
        <ele>221.72</ele>
        <time>2025-05-19T16:07:30Z</time>
      </trkpt>
      <trkpt lat="46.023959023877978" lon="8.693809965625405">
        <ele>221.24000000000001</ele>
        <time>2025-05-19T16:07:31Z</time>
      </trkpt>
      <trkpt lat="46.023972015827894" lon="8.693924965336919">
        <ele>220.75999999999999</ele>
        <time>2025-05-19T16:07:32Z</time>
      </trkpt>
      <trkpt lat="46.023994982242584" lon="8.694042982533574">
        <ele>220.28</ele>
        <time>2025-05-19T16:07:33Z</time>
      </trkpt>
      <trkpt lat="46.024030018597841" lon="8.694148007780314">
        <ele>220.28</ele>
        <time>2025-05-19T16:07:34Z</time>
      </trkpt>
      <trkpt lat="46.024062959477305" lon="8.694246998056769">
        <ele>219.31999999999999</ele>
        <time>2025-05-19T16:07:35Z</time>
      </trkpt>
      <trkpt lat="46.02409397251904" lon="8.694340959191322">
        <ele>218.84</ele>
        <time>2025-05-19T16:07:36Z</time>
      </trkpt>
      <trkpt lat="46.024129008874297" lon="8.694445984438062">
        <ele>218.36000000000001</ele>
        <time>2025-05-19T16:07:37Z</time>
      </trkpt>
      <trkpt lat="46.024166978895664" lon="8.694557966664434">
        <ele>217.88</ele>
        <time>2025-05-19T16:07:38Z</time>
      </trkpt>
      <trkpt lat="46.024204026907682" lon="8.694671960547566">
        <ele>217.40000000000001</ele>
        <time>2025-05-19T16:07:39Z</time>
      </trkpt>
      <trkpt lat="46.024267980828881" lon="8.694904977455735">
        <ele>216.43000000000001</ele>
        <time>2025-05-19T16:07:41Z</time>
      </trkpt>
      <trkpt lat="46.024290025234222" lon="8.695002961903811">
        <ele>215.94999999999999</ele>
        <time>2025-05-19T16:07:42Z</time>
      </trkpt>
      <trkpt lat="46.024369988590479" lon="8.695419039577246">
        <ele>214.03</ele>
        <time>2025-05-19T16:07:50Z</time>
      </trkpt>
      <trkpt lat="46.024393038824201" lon="8.695563040673733">
        <ele>213.55000000000001</ele>
        <time>2025-05-19T16:07:52Z</time>
      </trkpt>
      <trkpt lat="46.024567969143391" lon="8.696493012830615">
        <ele>211.63</ele>
        <time>2025-05-19T16:07:59Z</time>
      </trkpt>
      <trkpt lat="46.024967031553388" lon="8.697907961905003">
        <ele>209.69999999999999</ele>
        <time>2025-05-19T16:08:08Z</time>
      </trkpt>
      <trkpt lat="46.025382019579411" lon="8.698832988739014">
        <ele>207.78</ele>
        <time>2025-05-19T16:08:14Z</time>
      </trkpt>
      <trkpt lat="46.025406997650862" lon="8.699019988998771">
        <ele>207.78</ele>
        <time>2025-05-19T16:08:15Z</time>
      </trkpt>
      <trkpt lat="46.025430969893932" lon="8.699209000915289">
        <ele>207.30000000000001</ele>
        <time>2025-05-19T16:08:16Z</time>
      </trkpt>
      <trkpt lat="46.025434993207455" lon="8.699409998953342">
        <ele>207.30000000000001</ele>
        <time>2025-05-19T16:08:17Z</time>
      </trkpt>
      <trkpt lat="46.0254240129143" lon="8.69961803779006">
        <ele>207.30000000000001</ele>
        <time>2025-05-19T16:08:18Z</time>
      </trkpt>
      <trkpt lat="46.025398029014468" lon="8.700608024373651">
        <ele>206.81999999999999</ele>
        <time>2025-05-19T16:08:23Z</time>
      </trkpt>
      <trkpt lat="46.025400962680578" lon="8.700750013813376">
        <ele>206.81999999999999</ele>
        <time>2025-05-19T16:08:24Z</time>
      </trkpt>
      <trkpt lat="46.025439016520977" lon="8.700874987989664">
        <ele>206.81999999999999</ele>
        <time>2025-05-19T16:08:25Z</time>
      </trkpt>
      <trkpt lat="46.025484027341008" lon="8.701022006571293">
        <ele>206.81999999999999</ele>
        <time>2025-05-19T16:08:26Z</time>
      </trkpt>
      <trkpt lat="46.025544963777065" lon="8.701128037646413">
        <ele>206.34</ele>
        <time>2025-05-19T16:08:27Z</time>
      </trkpt>
      <trkpt lat="46.025615036487579" lon="8.701251000165939">
        <ele>206.34</ele>
        <time>2025-05-19T16:08:28Z</time>
      </trkpt>
      <trkpt lat="46.025887029245496" lon="8.701749974861741">
        <ele>205.86000000000001</ele>
        <time>2025-05-19T16:08:34Z</time>
      </trkpt>
      <trkpt lat="46.025909995660186" lon="8.701792974025011">
        <ele>205.38</ele>
        <time>2025-05-19T16:08:42Z</time>
      </trkpt>
      <trkpt lat="46.025909995660186" lon="8.701792974025011">
        <ele>205.38</ele>
        <time>2025-05-19T16:09:06Z</time>
      </trkpt>
      <trkpt lat="46.025909995660186" lon="8.701792974025011">
        <ele>204.90000000000001</ele>
        <time>2025-05-19T16:09:56Z</time>
      </trkpt>
      <trkpt lat="46.025909995660186" lon="8.701792974025011">
        <ele>204.90000000000001</ele>
        <time>2025-05-19T16:10:54Z</time>
      </trkpt>
      <trkpt lat="46.025878982618451" lon="8.701956002041698">
        <ele>222.19999999999999</ele>
        <time>2025-05-19T16:12:03Z</time>
      </trkpt>
      <trkpt lat="46.025846963748336" lon="8.701937980949879">
        <ele>211.63</ele>
        <time>2025-05-19T16:12:27Z</time>
      </trkpt>
      <trkpt lat="46.025966992601752" lon="8.701894981786609">
        <ele>213.55000000000001</ele>
        <time>2025-05-19T16:12:39Z</time>
      </trkpt>
      <trkpt lat="46.025988031178713" lon="8.701933035627008">
        <ele>213.55000000000001</ele>
        <time>2025-05-19T16:12:40Z</time>
      </trkpt>
      <trkpt lat="46.026148963719606" lon="8.702140990644693">
        <ele>212.59</ele>
        <time>2025-05-19T16:12:43Z</time>
      </trkpt>
      <trkpt lat="46.026225993409753" lon="8.702221037819982">
        <ele>212.59</ele>
        <time>2025-05-19T16:12:44Z</time>
      </trkpt>
      <trkpt lat="46.026558000594378" lon="8.702565031126142">
        <ele>211.15000000000001</ele>
        <time>2025-05-19T16:12:48Z</time>
      </trkpt>
      <trkpt lat="46.026621032506227" lon="8.702630996704102">
        <ele>211.15000000000001</ele>
        <time>2025-05-19T16:12:49Z</time>
      </trkpt>
      <trkpt lat="46.026668976992369" lon="8.702739039435983">
        <ele>210.66999999999999</ele>
        <time>2025-05-19T16:12:50Z</time>
      </trkpt>
      <trkpt lat="46.026711976155639" lon="8.702871976420283">
        <ele>210.66999999999999</ele>
        <time>2025-05-19T16:12:51Z</time>
      </trkpt>
      <trkpt lat="46.026725973933935" lon="8.703020000830293">
        <ele>210.19</ele>
        <time>2025-05-19T16:12:52Z</time>
      </trkpt>
      <trkpt lat="46.026771990582347" lon="8.703879984095693">
        <ele>209.22</ele>
        <time>2025-05-19T16:12:57Z</time>
      </trkpt>
      <trkpt lat="46.02679998613894" lon="8.70402499102056">
        <ele>208.74000000000001</ele>
        <time>2025-05-19T16:12:58Z</time>
      </trkpt>
      <trkpt lat="46.026847008615732" lon="8.704163962975144">
        <ele>208.74000000000001</ele>
        <time>2025-05-19T16:12:59Z</time>
      </trkpt>
      <trkpt lat="46.026911968365312" lon="8.704295977950096">
        <ele>208.25999999999999</ele>
        <time>2025-05-19T16:13:00Z</time>
      </trkpt>
      <trkpt lat="46.027012970298529" lon="8.704402009025216">
        <ele>207.78</ele>
        <time>2025-05-19T16:13:01Z</time>
      </trkpt>
      <trkpt lat="46.02712101303041" lon="8.704516002908349">
        <ele>207.30000000000001</ele>
        <time>2025-05-19T16:13:02Z</time>
      </trkpt>
      <trkpt lat="46.027907989919186" lon="8.705374980345368">
        <ele>204.90000000000001</ele>
        <time>2025-05-19T16:13:09Z</time>
      </trkpt>
      <trkpt lat="46.028007986024022" lon="8.705519987270236">
        <ele>204.41999999999999</ele>
        <time>2025-05-19T16:13:10Z</time>
      </trkpt>
      <trkpt lat="46.028105970472097" lon="8.705674968659878">
        <ele>204.41999999999999</ele>
        <time>2025-05-19T16:13:11Z</time>
      </trkpt>
      <trkpt lat="46.028204960748553" lon="8.705831039696932">
        <ele>204.41999999999999</ele>
        <time>2025-05-19T16:13:12Z</time>
      </trkpt>
      <trkpt lat="46.028305040672421" lon="8.705988032743335">
        <ele>203.94</ele>
        <time>2025-05-19T16:13:13Z</time>
      </trkpt>
      <trkpt lat="46.028405036777258" lon="8.706144019961357">
        <ele>203.94</ele>
        <time>2025-05-19T16:13:14Z</time>
      </trkpt>
      <trkpt lat="46.029212968423963" lon="8.707355037331581">
        <ele>202.49000000000001</ele>
        <time>2025-05-19T16:13:22Z</time>
      </trkpt>
      <trkpt lat="46.02948596701026" lon="8.707819981500506">
        <ele>201.05000000000001</ele>
        <time>2025-05-19T16:13:25Z</time>
      </trkpt>
      <trkpt lat="46.029560985043645" lon="8.707953002303839">
        <ele>200.09</ele>
        <time>2025-05-19T16:13:26Z</time>
      </trkpt>
      <trkpt lat="46.029610019177198" lon="8.708160035312176">
        <ele>199.61000000000001</ele>
        <time>2025-05-19T16:13:27Z</time>
      </trkpt>
      <trkpt lat="46.029647989198565" lon="8.708336977288127">
        <ele>199.61000000000001</ele>
        <time>2025-05-19T16:13:28Z</time>
      </trkpt>
      <trkpt lat="46.02965502999723" lon="8.708520038053393">
        <ele>199.13</ele>
        <time>2025-05-19T16:13:29Z</time>
      </trkpt>
      <trkpt lat="46.029661986976862" lon="8.708705026656389">
        <ele>198.65000000000001</ele>
        <time>2025-05-19T16:13:30Z</time>
      </trkpt>
      <trkpt lat="46.029673973098397" lon="8.708882974460721">
        <ele>198.65000000000001</ele>
        <time>2025-05-19T16:13:31Z</time>
      </trkpt>
      <trkpt lat="46.029711021110415" lon="8.709090007469058">
        <ele>198.16999999999999</ele>
        <time>2025-05-19T16:13:32Z</time>
      </trkpt>
      <trkpt lat="46.030003968626261" lon="8.709740024060011">
        <ele>197.69</ele>
        <time>2025-05-19T16:13:36Z</time>
      </trkpt>
      <trkpt lat="46.03008896112442" lon="8.709909003227949">
        <ele>197.69</ele>
        <time>2025-05-19T16:13:37Z</time>
      </trkpt>
      <trkpt lat="46.030170014128089" lon="8.710072031244636">
        <ele>198.16999999999999</ele>
        <time>2025-05-19T16:13:38Z</time>
      </trkpt>
      <trkpt lat="46.030289959162474" lon="8.710203040391207">
        <ele>198.16999999999999</ele>
        <time>2025-05-19T16:13:39Z</time>
      </trkpt>
      <trkpt lat="46.030407976359129" lon="8.710288032889366">
        <ele>198.65000000000001</ele>
        <time>2025-05-19T16:13:40Z</time>
      </trkpt>
      <trkpt lat="46.030528005212545" lon="8.710375037044287">
        <ele>199.13</ele>
        <time>2025-05-19T16:13:41Z</time>
      </trkpt>
      <trkpt lat="46.030658008530736" lon="8.710438990965486">
        <ele>199.61000000000001</ele>
        <time>2025-05-19T16:13:42Z</time>
      </trkpt>
      <trkpt lat="46.030798992142081" lon="8.710479978471994">
        <ele>200.09</ele>
        <time>2025-05-19T16:13:43Z</time>
      </trkpt>
      <trkpt lat="46.032662037760019" lon="8.710892032831907">
        <ele>200.09</ele>
        <time>2025-05-19T16:13:55Z</time>
      </trkpt>
      <trkpt lat="46.032788017764688" lon="8.710925979539752">
        <ele>200.09</ele>
        <time>2025-05-19T16:13:56Z</time>
      </trkpt>
      <trkpt lat="46.032917015254498" lon="8.710928997024894">
        <ele>200.09</ele>
        <time>2025-05-19T16:13:57Z</time>
      </trkpt>
      <trkpt lat="46.034068018198013" lon="8.710810979828239">
        <ele>201.05000000000001</ele>
        <time>2025-05-19T16:14:05Z</time>
      </trkpt>
      <trkpt lat="46.035009976476431" lon="8.710467992350459">
        <ele>203.46000000000001</ele>
        <time>2025-05-19T16:14:13Z</time>
      </trkpt>
      <trkpt lat="46.03513796813786" lon="8.710442008450627">
        <ele>202.97999999999999</ele>
        <time>2025-05-19T16:14:14Z</time>
      </trkpt>
      <trkpt lat="46.035268977284431" lon="8.710442008450627">
        <ele>202.49000000000001</ele>
        <time>2025-05-19T16:14:15Z</time>
      </trkpt>
      <trkpt lat="46.035913964733481" lon="8.710724981501699">
        <ele>202.00999999999999</ele>
        <time>2025-05-19T16:14:20Z</time>
      </trkpt>
      <trkpt lat="46.036031981930137" lon="8.710780972614884">
        <ele>202.00999999999999</ele>
        <time>2025-05-19T16:14:21Z</time>
      </trkpt>
      <trkpt lat="46.036152010783553" lon="8.710820032283664">
        <ele>202.00999999999999</ele>
        <time>2025-05-19T16:14:22Z</time>
      </trkpt>
      <trkpt lat="46.036299029365182" lon="8.710849033668637">
        <ele>202.00999999999999</ele>
        <time>2025-05-19T16:14:23Z</time>
      </trkpt>
      <trkpt lat="46.036399025470018" lon="8.710805028676987">
        <ele>201.53</ele>
        <time>2025-05-19T16:14:24Z</time>
      </trkpt>
      <trkpt lat="46.036515031009912" lon="8.71072799898684">
        <ele>202.00999999999999</ele>
        <time>2025-05-19T16:14:25Z</time>
      </trkpt>
      <trkpt lat="46.036591976881027" lon="8.710605958476663">
        <ele>202.00999999999999</ele>
        <time>2025-05-19T16:14:26Z</time>
      </trkpt>
      <trkpt lat="46.0366590321064" lon="8.710473021492362">
        <ele>202.49000000000001</ele>
        <time>2025-05-19T16:14:27Z</time>
      </trkpt>
      <trkpt lat="46.03670597076416" lon="8.710324997082353">
        <ele>202.49000000000001</ele>
        <time>2025-05-19T16:14:28Z</time>
      </trkpt>
      <trkpt lat="46.036752993240952" lon="8.710176972672343">
        <ele>202.49000000000001</ele>
        <time>2025-05-19T16:14:29Z</time>
      </trkpt>
      <trkpt lat="46.036801021546125" lon="8.710024002939463">
        <ele>202.49000000000001</ele>
        <time>2025-05-19T16:14:30Z</time>
      </trkpt>
      <trkpt lat="46.036856006830931" lon="8.709852006286383">
        <ele>202.00999999999999</ele>
        <time>2025-05-19T16:14:31Z</time>
      </trkpt>
      <trkpt lat="46.036910992115736" lon="8.709681015461683">
        <ele>202.00999999999999</ele>
        <time>2025-05-19T16:14:32Z</time>
      </trkpt>
      <trkpt lat="46.036989027634263" lon="8.709549000486732">
        <ele>202.00999999999999</ele>
        <time>2025-05-19T16:14:33Z</time>
      </trkpt>
      <trkpt lat="46.037085000425577" lon="8.709410028532147">
        <ele>202.00999999999999</ele>
        <time>2025-05-19T16:14:34Z</time>
      </trkpt>
      <trkpt lat="46.037181979045272" lon="8.709264015778899">
        <ele>202.00999999999999</ele>
        <time>2025-05-19T16:14:35Z</time>
      </trkpt>
      <trkpt lat="46.037272000685334" lon="8.709120014682412">
        <ele>202.00999999999999</ele>
        <time>2025-05-19T16:14:36Z</time>
      </trkpt>
      <trkpt lat="46.037371996790171" lon="8.708961009979248">
        <ele>202.00999999999999</ele>
        <time>2025-05-19T16:14:37Z</time>
      </trkpt>
      <trkpt lat="46.03741399012506" lon="8.708806028589606">
        <ele>202.00999999999999</ele>
        <time>2025-05-19T16:14:38Z</time>
      </trkpt>
      <trkpt lat="46.037461012601852" lon="8.708635959774256">
        <ele>202.00999999999999</ele>
        <time>2025-05-19T16:14:39Z</time>
      </trkpt>
      <trkpt lat="46.037672990933061" lon="8.707839008420706">
        <ele>202.49000000000001</ele>
        <time>2025-05-19T16:14:44Z</time>
      </trkpt>
      <trkpt lat="46.037720013409853" lon="8.707709005102515">
        <ele>202.49000000000001</ele>
        <time>2025-05-19T16:14:45Z</time>
      </trkpt>
      <trkpt lat="46.037780027836561" lon="8.707596017047763">
        <ele>202.49000000000001</ele>
        <time>2025-05-19T16:14:46Z</time>
      </trkpt>
      <trkpt lat="46.037840964272618" lon="8.707480011507869">
        <ele>202.97999999999999</ele>
        <time>2025-05-19T16:14:47Z</time>
      </trkpt>
      <trkpt lat="46.037920005619526" lon="8.707364005967975">
        <ele>202.97999999999999</ele>
        <time>2025-05-19T16:14:48Z</time>
      </trkpt>
      <trkpt lat="46.038011033087969" lon="8.707279013469815">
        <ele>203.46000000000001</ele>
        <time>2025-05-19T16:14:49Z</time>
      </trkpt>
      <trkpt lat="46.038100970908999" lon="8.707196032628417">
        <ele>203.94</ele>
        <time>2025-05-19T16:14:50Z</time>
      </trkpt>
      <trkpt lat="46.038195015862584" lon="8.707111040130258">
        <ele>204.41999999999999</ele>
        <time>2025-05-19T16:14:51Z</time>
      </trkpt>
      <trkpt lat="46.038295011967421" lon="8.707050019875169">
        <ele>204.41999999999999</ele>
        <time>2025-05-19T16:14:52Z</time>
      </trkpt>
      <trkpt lat="46.038398025557399" lon="8.706987993791699">
        <ele>204.90000000000001</ele>
        <time>2025-05-19T16:14:53Z</time>
      </trkpt>
      <trkpt lat="46.038499027490616" lon="8.70692596770823">
        <ele>204.90000000000001</ele>
        <time>2025-05-19T16:14:54Z</time>
      </trkpt>
      <trkpt lat="46.038598017767072" lon="8.706866037100554">
        <ele>205.38</ele>
        <time>2025-05-19T16:14:55Z</time>
      </trkpt>
      <trkpt lat="46.038719974458218" lon="8.706819014623761">
        <ele>205.38</ele>
        <time>2025-05-19T16:14:56Z</time>
      </trkpt>
      <trkpt lat="46.03896196000278" lon="8.706862013787031">
        <ele>205.38</ele>
        <time>2025-05-19T16:14:57Z</time>
      </trkpt>
      <trkpt lat="46.039073020219803" lon="8.706924039870501">
        <ele>205.38</ele>
        <time>2025-05-19T16:14:58Z</time>
      </trkpt>
      <trkpt lat="46.039073020219803" lon="8.706924039870501">
        <ele>205.86000000000001</ele>
        <time>2025-05-19T16:14:59Z</time>
      </trkpt>
      <trkpt lat="46.03941198438406" lon="8.707085978239775">
        <ele>206.81999999999999</ele>
        <time>2025-05-19T16:15:02Z</time>
      </trkpt>
      <trkpt lat="46.039523966610432" lon="8.707121014595032">
        <ele>207.30000000000001</ele>
        <time>2025-05-19T16:15:03Z</time>
      </trkpt>
      <trkpt lat="46.039634020999074" lon="8.707155967131257">
        <ele>207.78</ele>
        <time>2025-05-19T16:15:04Z</time>
      </trkpt>
      <trkpt lat="46.040966995060444" lon="8.706852039322257">
        <ele>206.81999999999999</ele>
        <time>2025-05-19T16:15:15Z</time>
      </trkpt>
      <trkpt lat="46.041088029742241" lon="8.706844998523593">
        <ele>206.34</ele>
        <time>2025-05-19T16:15:16Z</time>
      </trkpt>
      <trkpt lat="46.041325991973281" lon="8.706847010180354">
        <ele>205.86000000000001</ele>
        <time>2025-05-19T16:15:18Z</time>
      </trkpt>
      <trkpt lat="46.041449038311839" lon="8.706857990473509">
        <ele>205.86000000000001</ele>
        <time>2025-05-19T16:15:19Z</time>
      </trkpt>
      <trkpt lat="46.041681971400976" lon="8.706803005188704">
        <ele>204.41999999999999</ele>
        <time>2025-05-19T16:15:21Z</time>
      </trkpt>
      <trkpt lat="46.041807029396296" lon="8.706778027117252">
        <ele>203.94</ele>
        <time>2025-05-19T16:15:22Z</time>
      </trkpt>
      <trkpt lat="46.042761979624629" lon="8.706771992146969">
        <ele>204.41999999999999</ele>
        <time>2025-05-19T16:15:29Z</time>
      </trkpt>
      <trkpt lat="46.042895000427961" lon="8.706714995205402">
        <ele>204.41999999999999</ele>
        <time>2025-05-19T16:15:30Z</time>
      </trkpt>
      <trkpt lat="46.043144026771188" lon="8.706590021029115">
        <ele>205.38</ele>
        <time>2025-05-19T16:15:32Z</time>
      </trkpt>
      <trkpt lat="46.043260032311082" lon="8.706563031300902">
        <ele>205.38</ele>
        <time>2025-05-19T16:15:33Z</time>
      </trkpt>
      <trkpt lat="46.043384000658989" lon="8.706540986895561">
        <ele>205.38</ele>
        <time>2025-05-19T16:15:34Z</time>
      </trkpt>
      <trkpt lat="46.043530013412237" lon="8.706515002995729">
        <ele>205.86000000000001</ele>
        <time>2025-05-19T16:15:35Z</time>
      </trkpt>
      <trkpt lat="46.04362397454679" lon="8.706502011045814">
        <ele>206.34</ele>
        <time>2025-05-19T16:15:36Z</time>
      </trkpt>
      <trkpt lat="46.043741991743445" lon="8.706487007439137">
        <ele>206.81999999999999</ele>
        <time>2025-05-19T16:15:37Z</time>
      </trkpt>
      <trkpt lat="46.043867971748114" lon="8.706463035196066">
        <ele>206.81999999999999</ele>
        <time>2025-05-19T16:15:38Z</time>
      </trkpt>
      <trkpt lat="46.043985988944769" lon="8.706396985799074">
        <ele>206.81999999999999</ele>
        <time>2025-05-19T16:15:39Z</time>
      </trkpt>
      <trkpt lat="46.045099021866918" lon="8.705774964764714">
        <ele>204.41999999999999</ele>
        <time>2025-05-19T16:15:48Z</time>
      </trkpt>
      <trkpt lat="46.045346958562732" lon="8.705618977546692">
        <ele>204.41999999999999</ele>
        <time>2025-05-19T16:15:50Z</time>
      </trkpt>
      <trkpt lat="46.045583998784423" lon="8.705442035570741">
        <ele>203.94</ele>
        <time>2025-05-19T16:15:52Z</time>
      </trkpt>
      <trkpt lat="46.045697992667556" lon="8.705356037244201">
        <ele>203.46000000000001</ele>
        <time>2025-05-19T16:15:53Z</time>
      </trkpt>
      <trkpt lat="46.046649003401399" lon="8.705157972872257">
        <ele>203.94</ele>
        <time>2025-05-19T16:16:00Z</time>
      </trkpt>
      <trkpt lat="46.046779006719589" lon="8.705102987587452">
        <ele>203.94</ele>
        <time>2025-05-19T16:16:01Z</time>
      </trkpt>
      <trkpt lat="46.046899035573006" lon="8.70501397177577">
        <ele>203.46000000000001</ele>
        <time>2025-05-19T16:16:02Z</time>
      </trkpt>
      <trkpt lat="46.047135991975665" lon="8.70483904145658">
        <ele>203.46000000000001</ele>
        <time>2025-05-19T16:16:04Z</time>
      </trkpt>
      <trkpt lat="46.047220984473825" lon="8.704777015373111">
        <ele>203.46000000000001</ele>
        <time>2025-05-19T16:16:05Z</time>
      </trkpt>
      <trkpt lat="46.047500018030405" lon="8.70466997846961">
        <ele>203.46000000000001</ele>
        <time>2025-05-19T16:16:07Z</time>
      </trkpt>
      <trkpt lat="46.047629015520215" lon="8.70468900538981">
        <ele>203.46000000000001</ele>
        <time>2025-05-19T16:16:08Z</time>
      </trkpt>
      <trkpt lat="46.047763964161277" lon="8.704709960147739">
        <ele>202.97999999999999</ele>
        <time>2025-05-19T16:16:09Z</time>
      </trkpt>
      <trkpt lat="46.047892039641738" lon="8.704777015373111">
        <ele>202.97999999999999</ele>
        <time>2025-05-19T16:16:10Z</time>
      </trkpt>
      <trkpt lat="46.048035034909844" lon="8.704834012314677">
        <ele>202.97999999999999</ele>
        <time>2025-05-19T16:16:11Z</time>
      </trkpt>
      <trkpt lat="46.048180041834712" lon="8.70488204061985">
        <ele>202.49000000000001</ele>
        <time>2025-05-19T16:16:12Z</time>
      </trkpt>
      <trkpt lat="46.048334017395973" lon="8.704872988164425">
        <ele>202.00999999999999</ele>
        <time>2025-05-19T16:16:13Z</time>
      </trkpt>
      <trkpt lat="46.048493022099137" lon="8.70486100204289">
        <ele>202.00999999999999</ele>
        <time>2025-05-19T16:16:14Z</time>
      </trkpt>
      <trkpt lat="46.0489940084517" lon="8.704824037849903">
        <ele>202.00999999999999</ele>
        <time>2025-05-19T16:16:17Z</time>
      </trkpt>
      <trkpt lat="46.049162987619638" lon="8.704837029799819">
        <ele>202.00999999999999</ele>
        <time>2025-05-19T16:16:18Z</time>
      </trkpt>
      <trkpt lat="46.049331966787577" lon="8.70486100204289">
        <ele>202.00999999999999</ele>
        <time>2025-05-19T16:16:19Z</time>
      </trkpt>
      <trkpt lat="46.049500023946166" lon="8.704887991771102">
        <ele>201.53</ele>
        <time>2025-05-19T16:16:20Z</time>
      </trkpt>
      <trkpt lat="46.049646958708763" lon="8.705002991482616">
        <ele>202.00999999999999</ele>
        <time>2025-05-19T16:16:21Z</time>
      </trkpt>
      <trkpt lat="46.049802023917437" lon="8.705128971487284">
        <ele>202.49000000000001</ele>
        <time>2025-05-19T16:16:22Z</time>
      </trkpt>
      <trkpt lat="46.050193961709738" lon="8.705644961446524">
        <ele>202.00999999999999</ele>
        <time>2025-05-19T16:16:25Z</time>
      </trkpt>
      <trkpt lat="46.050328994169831" lon="8.705773036926985">
        <ele>201.53</ele>
        <time>2025-05-19T16:16:26Z</time>
      </trkpt>
      <trkpt lat="46.050653960555792" lon="8.70593598112464">
        <ele>201.53</ele>
        <time>2025-05-19T16:16:27Z</time>
      </trkpt>
      <trkpt lat="46.050653960555792" lon="8.70593598112464">
        <ele>202.00999999999999</ele>
        <time>2025-05-19T16:16:28Z</time>
      </trkpt>
      <trkpt lat="46.050809025764465" lon="8.705958025529981">
        <ele>202.00999999999999</ele>
        <time>2025-05-19T16:16:29Z</time>
      </trkpt>
      <trkpt lat="46.052128002047539" lon="8.7059570197016">
        <ele>203.94</ele>
        <time>2025-05-19T16:16:37Z</time>
      </trkpt>
      <trkpt lat="46.052263034507632" lon="8.7059570197016">
        <ele>203.94</ele>
        <time>2025-05-19T16:16:38Z</time>
      </trkpt>
      <trkpt lat="46.052445005625486" lon="8.706034971401095">
        <ele>203.94</ele>
        <time>2025-05-19T16:16:39Z</time>
      </trkpt>
      <trkpt lat="46.052601998671889" lon="8.706101020798087">
        <ele>204.41999999999999</ele>
        <time>2025-05-19T16:16:40Z</time>
      </trkpt>
      <trkpt lat="46.052763015031815" lon="8.706168998032808">
        <ele>204.41999999999999</ele>
        <time>2025-05-19T16:16:41Z</time>
      </trkpt>
      <trkpt lat="46.053386963903904" lon="8.706337977200747">
        <ele>204.41999999999999</ele>
        <time>2025-05-19T16:16:45Z</time>
      </trkpt>
      <trkpt lat="46.05352601967752" lon="8.706330014392734">
        <ele>204.41999999999999</ele>
        <time>2025-05-19T16:16:46Z</time>
      </trkpt>
      <trkpt lat="46.053653005510569" lon="8.706302018836141">
        <ele>204.41999999999999</ele>
        <time>2025-05-19T16:16:47Z</time>
      </trkpt>
      <trkpt lat="46.053737998008728" lon="8.706205040216446">
        <ele>204.41999999999999</ele>
        <time>2025-05-19T16:16:48Z</time>
      </trkpt>
      <trkpt lat="46.053829025477171" lon="8.706098003312945">
        <ele>204.90000000000001</ele>
        <time>2025-05-19T16:16:49Z</time>
      </trkpt>
      <trkpt lat="46.054119961336255" lon="8.705730037763715">
        <ele>204.90000000000001</ele>
        <time>2025-05-19T16:16:52Z</time>
      </trkpt>
      <trkpt lat="46.054346021264791" lon="8.70548402890563">
        <ele>205.38</ele>
        <time>2025-05-19T16:16:54Z</time>
      </trkpt>
      <trkpt lat="46.054464038461447" lon="8.705368023365736">
        <ele>204.90000000000001</ele>
        <time>2025-05-19T16:16:55Z</time>
      </trkpt>
      <trkpt lat="46.055795000866055" lon="8.704283991828561">
        <ele>205.86000000000001</ele>
        <time>2025-05-19T16:17:05Z</time>
      </trkpt>
      <trkpt lat="46.056194985285401" lon="8.703992972150445">
        <ele>206.34</ele>
        <time>2025-05-19T16:17:08Z</time>
      </trkpt>
      <trkpt lat="46.05631903745234" lon="8.70391895994544">
        <ele>206.34</ele>
        <time>2025-05-19T16:17:09Z</time>
      </trkpt>
      <trkpt lat="46.056468989700079" lon="8.703913008794189">
        <ele>206.81999999999999</ele>
        <time>2025-05-19T16:17:10Z</time>
      </trkpt>
      <trkpt lat="46.057442966848612" lon="8.703876966610551">
        <ele>207.78</ele>
        <time>2025-05-19T16:17:17Z</time>
      </trkpt>
      <trkpt lat="46.057572970166802" lon="8.703863974660635">
        <ele>208.25999999999999</ele>
        <time>2025-05-19T16:17:18Z</time>
      </trkpt>
      <trkpt lat="46.057694004848599" lon="8.703822987154126">
        <ele>208.74000000000001</ele>
        <time>2025-05-19T16:17:19Z</time>
      </trkpt>
      <trkpt lat="46.0578010417521" lon="8.703747969120741">
        <ele>208.74000000000001</ele>
        <time>2025-05-19T16:17:20Z</time>
      </trkpt>
      <trkpt lat="46.057906989008188" lon="8.703647973015904">
        <ele>209.22</ele>
        <time>2025-05-19T16:17:21Z</time>
      </trkpt>
      <trkpt lat="46.058014025911689" lon="8.703511012718082">
        <ele>209.22</ele>
        <time>2025-05-19T16:17:22Z</time>
      </trkpt>
      <trkpt lat="46.058090971782804" lon="8.70338000357151">
        <ele>209.69999999999999</ele>
        <time>2025-05-19T16:17:23Z</time>
      </trkpt>
      <trkpt lat="46.058540996164083" lon="8.702581040561199">
        <ele>209.22</ele>
        <time>2025-05-19T16:17:28Z</time>
      </trkpt>
      <trkpt lat="46.058612996712327" lon="8.702405020594597">
        <ele>209.22</ele>
        <time>2025-05-19T16:17:29Z</time>
      </trkpt>
      <trkpt lat="46.058679968118668" lon="8.70224098674953">
        <ele>209.22</ele>
        <time>2025-05-19T16:17:30Z</time>
      </trkpt>
      <trkpt lat="46.058736965060234" lon="8.702062033116818">
        <ele>209.69999999999999</ele>
        <time>2025-05-19T16:17:31Z</time>
      </trkpt>
      <trkpt lat="46.058774013072252" lon="8.701876038685441">
        <ele>209.69999999999999</ele>
        <time>2025-05-19T16:17:32Z</time>
      </trkpt>
      <trkpt lat="46.058871997520328" lon="8.700688993558288">
        <ele>209.22</ele>
        <time>2025-05-19T16:17:38Z</time>
      </trkpt>
      <trkpt lat="46.058896975591779" lon="8.700513979420066">
        <ele>209.22</ele>
        <time>2025-05-19T16:17:39Z</time>
      </trkpt>
      <trkpt lat="46.058940980583429" lon="8.700339971110225">
        <ele>209.22</ele>
        <time>2025-05-19T16:17:40Z</time>
      </trkpt>
      <trkpt lat="46.059272987768054" lon="8.699240013957024">
        <ele>210.19</ele>
        <time>2025-05-19T16:17:47Z</time>
      </trkpt>
      <trkpt lat="46.059471974149346" lon="8.698761994019151">
        <ele>211.15000000000001</ele>
        <time>2025-05-19T16:17:50Z</time>
      </trkpt>
      <trkpt lat="46.059570964425802" lon="8.698626961559057">
        <ele>211.63</ele>
        <time>2025-05-19T16:17:51Z</time>
      </trkpt>
      <trkpt lat="46.059671966359019" lon="8.698488995432854">
        <ele>212.59</ele>
        <time>2025-05-19T16:17:52Z</time>
      </trkpt>
      <trkpt lat="46.059791995212436" lon="8.698383970186114">
        <ele>213.06999999999999</ele>
        <time>2025-05-19T16:17:53Z</time>
      </trkpt>
      <trkpt lat="46.059912024065852" lon="8.698285985738039">
        <ele>213.55000000000001</ele>
        <time>2025-05-19T16:17:54Z</time>
      </trkpt>
      <trkpt lat="46.060159038752317" lon="8.698119018226862">
        <ele>214.99000000000001</ele>
        <time>2025-05-19T16:17:56Z</time>
      </trkpt>
      <trkpt lat="46.060286024585366" lon="8.698055986315012">
        <ele>215.47</ele>
        <time>2025-05-19T16:17:57Z</time>
      </trkpt>
      <trkpt lat="46.061020027846098" lon="8.697909973561764">
        <ele>221.72</ele>
        <time>2025-05-19T16:18:03Z</time>
      </trkpt>
      <trkpt lat="46.061404002830386" lon="8.697824981063604">
        <ele>228.44999999999999</ele>
        <time>2025-05-19T16:18:10Z</time>
      </trkpt>
      <trkpt lat="46.061430992558599" lon="8.697818024083972">
        <ele>229.41</ele>
        <time>2025-05-19T16:18:11Z</time>
      </trkpt>
      <trkpt lat="46.061483966186643" lon="8.697805032134056">
        <ele>229.88999999999999</ele>
        <time>2025-05-19T16:18:12Z</time>
      </trkpt>
      <trkpt lat="46.061575999483466" lon="8.697781981900334">
        <ele>230.84999999999999</ele>
        <time>2025-05-19T16:18:13Z</time>
      </trkpt>
      <trkpt lat="46.061612963676453" lon="8.697777958586812">
        <ele>231.81</ele>
        <time>2025-05-19T16:18:14Z</time>
      </trkpt>
      <trkpt lat="46.061696028336883" lon="8.69777100160718">
        <ele>231.81</ele>
        <time>2025-05-19T16:18:15Z</time>
      </trkpt>
      <trkpt lat="46.06218502856791" lon="8.697677040472627">
        <ele>232.30000000000001</ele>
        <time>2025-05-19T16:18:21Z</time>
      </trkpt>
      <trkpt lat="46.062259962782264" lon="8.697661031037569">
        <ele>232.30000000000001</ele>
        <time>2025-05-19T16:18:22Z</time>
      </trkpt>
      <trkpt lat="46.063078036531806" lon="8.697362970560789">
        <ele>231.81</ele>
        <time>2025-05-19T16:18:34Z</time>
      </trkpt>
      <trkpt lat="46.063150959089398" lon="8.697327012196183">
        <ele>230.84999999999999</ele>
        <time>2025-05-19T16:18:35Z</time>
      </trkpt>
      <trkpt lat="46.063221031799912" lon="8.697286024689674">
        <ele>229.88999999999999</ele>
        <time>2025-05-19T16:18:36Z</time>
      </trkpt>
      <trkpt lat="46.064115967601538" lon="8.696833988651633">
        <ele>224.12</ele>
        <time>2025-05-19T16:18:46Z</time>
      </trkpt>
      <trkpt lat="46.065097991377115" lon="8.696351023390889">
        <ele>222.19999999999999</ele>
        <time>2025-05-19T16:18:56Z</time>
      </trkpt>
      <trkpt lat="46.066607991233468" lon="8.695608973503113">
        <ele>215.94999999999999</ele>
        <time>2025-05-19T16:19:10Z</time>
      </trkpt>
      <trkpt lat="46.066842013970017" lon="8.695491962134838">
        <ele>214.99000000000001</ele>
        <time>2025-05-19T16:19:12Z</time>
      </trkpt>
      <trkpt lat="46.068217987194657" lon="8.694805987179279">
        <ele>213.06999999999999</ele>
        <time>2025-05-19T16:19:23Z</time>
      </trkpt>
      <trkpt lat="46.068344973027706" lon="8.694734992459416">
        <ele>212.59</ele>
        <time>2025-05-19T16:19:24Z</time>
      </trkpt>
      <trkpt lat="46.068472964689136" lon="8.694666009396315">
        <ele>212.11000000000001</ele>
        <time>2025-05-19T16:19:25Z</time>
      </trkpt>
      <trkpt lat="46.068601962178946" lon="8.694600965827704">
        <ele>211.63</ele>
        <time>2025-05-19T16:19:26Z</time>
      </trkpt>
      <trkpt lat="46.070081032812595" lon="8.693891018629074">
        <ele>204.41999999999999</ele>
        <time>2025-05-19T16:19:37Z</time>
      </trkpt>
      <trkpt lat="46.071504028514028" lon="8.693192973732948">
        <ele>203.94</ele>
        <time>2025-05-19T16:19:48Z</time>
      </trkpt>
      <trkpt lat="46.072171982377768" lon="8.6928949970752">
        <ele>203.94</ele>
        <time>2025-05-19T16:19:53Z</time>
      </trkpt>
      <trkpt lat="46.0723050031811" lon="8.692868007346988">
        <ele>203.94</ele>
        <time>2025-05-19T16:19:54Z</time>
      </trkpt>
      <trkpt lat="46.072451015934348" lon="8.692868007346988">
        <ele>203.94</ele>
        <time>2025-05-19T16:19:55Z</time>
      </trkpt>
      <trkpt lat="46.072596022859216" lon="8.692868007346988">
        <ele>203.94</ele>
        <time>2025-05-19T16:19:56Z</time>
      </trkpt>
      <trkpt lat="46.072741029784083" lon="8.692880999296904">
        <ele>203.94</ele>
        <time>2025-05-19T16:19:57Z</time>
      </trkpt>
      <trkpt lat="46.072886036708951" lon="8.6929140239954">
        <ele>203.94</ele>
        <time>2025-05-19T16:19:58Z</time>
      </trkpt>
      <trkpt lat="46.073030959814787" lon="8.692969009280205">
        <ele>203.94</ele>
        <time>2025-05-19T16:19:59Z</time>
      </trkpt>
      <trkpt lat="46.073614004999399" lon="8.693225998431444">
        <ele>203.94</ele>
        <time>2025-05-19T16:20:03Z</time>
      </trkpt>
      <trkpt lat="46.073757000267506" lon="8.693309985101223">
        <ele>203.46000000000001</ele>
        <time>2025-05-19T16:20:04Z</time>
      </trkpt>
      <trkpt lat="46.074780011549592" lon="8.694318998605013">
        <ele>203.46000000000001</ele>
        <time>2025-05-19T16:20:12Z</time>
      </trkpt>
      <trkpt lat="46.074900040403008" lon="8.694447996094823">
        <ele>203.46000000000001</ele>
        <time>2025-05-19T16:20:13Z</time>
      </trkpt>
      <trkpt lat="46.075029037892818" lon="8.694555032998323">
        <ele>203.46000000000001</ele>
        <time>2025-05-19T16:20:14Z</time>
      </trkpt>
      <trkpt lat="46.076092030853033" lon="8.695164984092116">
        <ele>205.38</ele>
        <time>2025-05-19T16:20:22Z</time>
      </trkpt>
      <trkpt lat="46.076205018907785" lon="8.695206977427006">
        <ele>205.38</ele>
        <time>2025-05-19T16:20:23Z</time>
      </trkpt>
      <trkpt lat="46.076308032497764" lon="8.695206977427006">
        <ele>205.86000000000001</ele>
        <time>2025-05-19T16:20:24Z</time>
      </trkpt>
      <trkpt lat="46.076402999460697" lon="8.695143023505807">
        <ele>206.34</ele>
        <time>2025-05-19T16:20:25Z</time>
      </trkpt>
      <trkpt lat="46.076456978917122" lon="8.695032969117165">
        <ele>206.34</ele>
        <time>2025-05-19T16:20:26Z</time>
      </trkpt>
      <trkpt lat="46.076498972252011" lon="8.694915035739541">
        <ele>206.34</ele>
        <time>2025-05-19T16:20:27Z</time>
      </trkpt>
      <trkpt lat="46.076551023870707" lon="8.694790983572602">
        <ele>206.34</ele>
        <time>2025-05-19T16:20:28Z</time>
      </trkpt>
      <trkpt lat="46.076606009155512" lon="8.694661986082792">
        <ele>206.81999999999999</ele>
        <time>2025-05-19T16:20:29Z</time>
      </trkpt>
      <trkpt lat="46.076670968905091" lon="8.694533994421363">
        <ele>206.81999999999999</ele>
        <time>2025-05-19T16:20:30Z</time>
      </trkpt>
      <trkpt lat="46.077212020754814" lon="8.693769983947277">
        <ele>207.30000000000001</ele>
        <time>2025-05-19T16:20:36Z</time>
      </trkpt>
      <trkpt lat="46.077278992161155" lon="8.693703012540937">
        <ele>206.81999999999999</ele>
        <time>2025-05-19T16:20:37Z</time>
      </trkpt>
      <trkpt lat="46.077350992709398" lon="8.693693038076162">
        <ele>207.30000000000001</ele>
        <time>2025-05-19T16:20:38Z</time>
      </trkpt>
      <trkpt lat="46.077432967722416" lon="8.693682979792357">
        <ele>207.30000000000001</ele>
        <time>2025-05-19T16:20:39Z</time>
      </trkpt>
      <trkpt lat="46.077501028776169" lon="8.693682979792357">
        <ele>207.30000000000001</ele>
        <time>2025-05-19T16:20:40Z</time>
      </trkpt>
      <trkpt lat="46.077577974647284" lon="8.693676022812724">
        <ele>207.30000000000001</ele>
        <time>2025-05-19T16:20:41Z</time>
      </trkpt>
      <trkpt lat="46.077659027650952" lon="8.693637968972325">
        <ele>206.81999999999999</ele>
        <time>2025-05-19T16:20:42Z</time>
      </trkpt>
      <trkpt lat="46.077744020149112" lon="8.693598993122578">
        <ele>206.81999999999999</ele>
        <time>2025-05-19T16:20:43Z</time>
      </trkpt>
      <trkpt lat="46.077842004597187" lon="8.693554988130927">
        <ele>207.30000000000001</ele>
        <time>2025-05-19T16:20:44Z</time>
      </trkpt>
      <trkpt lat="46.077936971560121" lon="8.693587007001042">
        <ele>207.30000000000001</ele>
        <time>2025-05-19T16:20:45Z</time>
      </trkpt>
      <trkpt lat="46.078038979321718" lon="8.693640986457467">
        <ele>207.78</ele>
        <time>2025-05-19T16:20:46Z</time>
      </trkpt>
      <trkpt lat="46.078133024275303" lon="8.693699995055795">
        <ele>207.78</ele>
        <time>2025-05-19T16:20:47Z</time>
      </trkpt>
      <trkpt lat="46.078222040086985" lon="8.693705024197698">
        <ele>207.78</ele>
        <time>2025-05-19T16:20:48Z</time>
      </trkpt>
      <trkpt lat="46.078310972079635" lon="8.693705024197698">
        <ele>207.78</ele>
        <time>2025-05-19T16:20:49Z</time>
      </trkpt>
      <trkpt lat="46.078366041183472" lon="8.693622965365648">
        <ele>207.78</ele>
        <time>2025-05-19T16:20:50Z</time>
      </trkpt>
      <trkpt lat="46.078426977619529" lon="8.693529004231095">
        <ele>207.78</ele>
        <time>2025-05-19T16:20:51Z</time>
      </trkpt>
      <trkpt lat="46.078493027016521" lon="8.693428002297878">
        <ele>208.25999999999999</ele>
        <time>2025-05-19T16:20:52Z</time>
      </trkpt>
      <trkpt lat="46.078561004251242" lon="8.693321971222758">
        <ele>208.25999999999999</ele>
        <time>2025-05-19T16:20:53Z</time>
      </trkpt>
      <trkpt lat="46.078640967607498" lon="8.693233039230108">
        <ele>208.25999999999999</ele>
        <time>2025-05-19T16:20:54Z</time>
      </trkpt>
      <trkpt lat="46.078741969540715" lon="8.693147040903568">
        <ele>208.74000000000001</ele>
        <time>2025-05-19T16:20:55Z</time>
      </trkpt>
      <trkpt lat="46.078826962038875" lon="8.693113010376692">
        <ele>208.74000000000001</ele>
        <time>2025-05-19T16:20:56Z</time>
      </trkpt>
      <trkpt lat="46.079904958605766" lon="8.692798018455505">
        <ele>210.66999999999999</ele>
        <time>2025-05-19T16:21:06Z</time>
      </trkpt>
      <trkpt lat="46.080015012994409" lon="8.692775974050164">
        <ele>210.66999999999999</ele>
        <time>2025-05-19T16:21:07Z</time>
      </trkpt>
      <trkpt lat="46.08012699522078" lon="8.692763987928629">
        <ele>210.66999999999999</ele>
        <time>2025-05-19T16:21:08Z</time>
      </trkpt>
      <trkpt lat="46.080241994932294" lon="8.692782009020448">
        <ele>210.66999999999999</ele>
        <time>2025-05-19T16:21:09Z</time>
      </trkpt>
      <trkpt lat="46.080712974071503" lon="8.692888962104917">
        <ele>210.66999999999999</ele>
        <time>2025-05-19T16:21:13Z</time>
      </trkpt>
      <trkpt lat="46.081204991787672" lon="8.692827019840479">
        <ele>210.66999999999999</ele>
        <time>2025-05-19T16:21:17Z</time>
      </trkpt>
      <trkpt lat="46.081344969570637" lon="8.692804975435138">
        <ele>210.66999999999999</ele>
        <time>2025-05-19T16:21:18Z</time>
      </trkpt>
      <trkpt lat="46.081486959010363" lon="8.692815033718944">
        <ele>210.66999999999999</ele>
        <time>2025-05-19T16:21:19Z</time>
      </trkpt>
      <trkpt lat="46.08221098780632" lon="8.693009996786714">
        <ele>210.66999999999999</ele>
        <time>2025-05-19T16:21:24Z</time>
      </trkpt>
      <trkpt lat="46.082341996952891" lon="8.6930469609797">
        <ele>210.66999999999999</ele>
        <time>2025-05-19T16:21:25Z</time>
      </trkpt>
      <trkpt lat="46.082465965300798" lon="8.693030029535294">
        <ele>210.66999999999999</ele>
        <time>2025-05-19T16:21:26Z</time>
      </trkpt>
      <trkpt lat="46.082593034952879" lon="8.69297998957336">
        <ele>210.66999999999999</ele>
        <time>2025-05-19T16:21:27Z</time>
      </trkpt>
      <trkpt lat="46.082721026614308" lon="8.692929027602077">
        <ele>210.66999999999999</ele>
        <time>2025-05-19T16:21:28Z</time>
      </trkpt>
      <trkpt lat="46.08429498039186" lon="8.692129980772734">
        <ele>209.22</ele>
        <time>2025-05-19T16:21:39Z</time>
      </trkpt>
      <trkpt lat="46.084730001166463" lon="8.691893024370074">
        <ele>209.69999999999999</ele>
        <time>2025-05-19T16:21:42Z</time>
      </trkpt>
      <trkpt lat="46.084854975342751" lon="8.691791016608477">
        <ele>210.19</ele>
        <time>2025-05-19T16:21:43Z</time>
      </trkpt>
      <trkpt lat="46.084975004196167" lon="8.691688003018498">
        <ele>210.19</ele>
        <time>2025-05-19T16:21:44Z</time>
      </trkpt>
      <trkpt lat="46.085093021392822" lon="8.691587001085281">
        <ele>209.69999999999999</ele>
        <time>2025-05-19T16:21:45Z</time>
      </trkpt>
      <trkpt lat="46.085210032761097" lon="8.691490022465587">
        <ele>209.69999999999999</ele>
        <time>2025-05-19T16:21:46Z</time>
      </trkpt>
      <trkpt lat="46.085334001109004" lon="8.691420033574104">
        <ele>209.22</ele>
        <time>2025-05-19T16:21:47Z</time>
      </trkpt>
      <trkpt lat="46.085456963628531" lon="8.691350966691971">
        <ele>209.22</ele>
        <time>2025-05-19T16:21:48Z</time>
      </trkpt>
      <trkpt lat="46.085580009967089" lon="8.691273014992476">
        <ele>209.22</ele>
        <time>2025-05-19T16:21:49Z</time>
      </trkpt>
      <trkpt lat="46.085700038820505" lon="8.69117695838213">
        <ele>209.22</ele>
        <time>2025-05-19T16:21:50Z</time>
      </trkpt>
      <trkpt lat="46.085818978026509" lon="8.691080985590816">
        <ele>209.22</ele>
        <time>2025-05-19T16:21:51Z</time>
      </trkpt>
      <trkpt lat="46.085935989394784" lon="8.690988030284643">
        <ele>209.22</ele>
        <time>2025-05-19T16:21:52Z</time>
      </trkpt>
      <trkpt lat="46.086065992712975" lon="8.690948970615864">
        <ele>209.22</ele>
        <time>2025-05-19T16:21:53Z</time>
      </trkpt>
      <trkpt lat="46.086197001859546" lon="8.69093899615109">
        <ele>209.69999999999999</ele>
        <time>2025-05-19T16:21:54Z</time>
      </trkpt>
      <trkpt lat="46.086332034319639" lon="8.690970009192824">
        <ele>209.22</ele>
        <time>2025-05-19T16:21:55Z</time>
      </trkpt>
      <trkpt lat="46.086470000445843" lon="8.69100202806294">
        <ele>209.22</ele>
        <time>2025-05-19T16:21:56Z</time>
      </trkpt>
      <trkpt lat="46.086741993203759" lon="8.691121973097324">
        <ele>209.22</ele>
        <time>2025-05-19T16:21:58Z</time>
      </trkpt>
      <trkpt lat="46.087296037003398" lon="8.691366976127029">
        <ele>209.22</ele>
        <time>2025-05-19T16:22:02Z</time>
      </trkpt>
      <trkpt lat="46.087440038099885" lon="8.691408969461918">
        <ele>209.22</ele>
        <time>2025-05-19T16:22:03Z</time>
      </trkpt>
      <trkpt lat="46.087889978662133" lon="8.691408969461918">
        <ele>209.22</ele>
        <time>2025-05-19T16:22:06Z</time>
      </trkpt>
      <trkpt lat="46.088043032214046" lon="8.691370999440551">
        <ele>209.69999999999999</ele>
        <time>2025-05-19T16:22:07Z</time>
      </trkpt>
      <trkpt lat="46.089284978806973" lon="8.691179975867271">
        <ele>208.74000000000001</ele>
        <time>2025-05-19T16:22:15Z</time>
      </trkpt>
      <trkpt lat="46.089875986799598" lon="8.691251976415515">
        <ele>209.69999999999999</ele>
        <time>2025-05-19T16:22:19Z</time>
      </trkpt>
      <trkpt lat="46.090878965333104" lon="8.691535033285618">
        <ele>211.63</ele>
        <time>2025-05-19T16:22:27Z</time>
      </trkpt>
      <trkpt lat="46.090979967266321" lon="8.691530004143715">
        <ele>211.63</ele>
        <time>2025-05-19T16:22:28Z</time>
      </trkpt>
      <trkpt lat="46.091072000563145" lon="8.691522041335702">
        <ele>211.63</ele>
        <time>2025-05-19T16:22:29Z</time>
      </trkpt>
      <trkpt lat="46.091145006939769" lon="8.691516006365418">
        <ele>211.63</ele>
        <time>2025-05-19T16:22:30Z</time>
      </trkpt>
      <trkpt lat="46.091222036629915" lon="8.691427996382117">
        <ele>211.63</ele>
        <time>2025-05-19T16:22:31Z</time>
      </trkpt>
      <trkpt lat="46.091294959187508" lon="8.691344009712338">
        <ele>211.63</ele>
        <time>2025-05-19T16:22:32Z</time>
      </trkpt>
      <trkpt lat="46.091411970555782" lon="8.691099006682634">
        <ele>211.63</ele>
        <time>2025-05-19T16:22:34Z</time>
      </trkpt>
      <trkpt lat="46.091472990810871" lon="8.690971015021205">
        <ele>211.63</ele>
        <time>2025-05-19T16:22:35Z</time>
      </trkpt>
      <trkpt lat="46.091535016894341" lon="8.690847968682647">
        <ele>212.11000000000001</ele>
        <time>2025-05-19T16:22:36Z</time>
      </trkpt>
      <trkpt lat="46.091622021049261" lon="8.690774962306023">
        <ele>212.11000000000001</ele>
        <time>2025-05-19T16:22:37Z</time>
      </trkpt>
      <trkpt lat="46.091718999668956" lon="8.690727017819881">
        <ele>212.11000000000001</ele>
        <time>2025-05-19T16:22:38Z</time>
      </trkpt>
      <trkpt lat="46.091828970238566" lon="8.690707990899682">
        <ele>212.11000000000001</ele>
        <time>2025-05-19T16:22:39Z</time>
      </trkpt>
      <trkpt lat="46.091933995485306" lon="8.69074696674943">
        <ele>212.11000000000001</ele>
        <time>2025-05-19T16:22:40Z</time>
      </trkpt>
      <trkpt lat="46.092042038217187" lon="8.69078803807497">
        <ele>212.11000000000001</ele>
        <time>2025-05-19T16:22:41Z</time>
      </trkpt>
      <trkpt lat="46.092148991301656" lon="8.690828019753099">
        <ele>212.59</ele>
        <time>2025-05-19T16:22:42Z</time>
      </trkpt>
      <trkpt lat="46.09226600266993" lon="8.690829025581479">
        <ele>212.59</ele>
        <time>2025-05-19T16:22:43Z</time>
      </trkpt>
      <trkpt lat="46.092619970440865" lon="8.690829025581479">
        <ele>213.06999999999999</ele>
        <time>2025-05-19T16:22:46Z</time>
      </trkpt>
      <trkpt lat="46.092730024829507" lon="8.690834976732731">
        <ele>212.59</ele>
        <time>2025-05-19T16:22:47Z</time>
      </trkpt>
      <trkpt lat="46.092834966257215" lon="8.690864983946085">
        <ele>212.59</ele>
        <time>2025-05-19T16:22:48Z</time>
      </trkpt>
      <trkpt lat="46.092919958755374" lon="8.69096003472805">
        <ele>212.59</ele>
        <time>2025-05-19T16:22:49Z</time>
      </trkpt>
      <trkpt lat="46.093003023415804" lon="8.691085008904338">
        <ele>212.11000000000001</ele>
        <time>2025-05-19T16:22:50Z</time>
      </trkpt>
      <trkpt lat="46.093634013086557" lon="8.692200975492597">
        <ele>211.63</ele>
        <time>2025-05-19T16:22:58Z</time>
      </trkpt>
      <trkpt lat="46.093714982271194" lon="8.692328967154026">
        <ele>211.63</ele>
        <time>2025-05-19T16:22:59Z</time>
      </trkpt>
      <trkpt lat="46.093797041103244" lon="8.692447990179062">
        <ele>211.15000000000001</ele>
        <time>2025-05-19T16:23:00Z</time>
      </trkpt>
      <trkpt lat="46.093906005844474" lon="8.69252703152597">
        <ele>210.66999999999999</ele>
        <time>2025-05-19T16:23:01Z</time>
      </trkpt>
      <trkpt lat="46.094019999727607" lon="8.692610012367368">
        <ele>210.66999999999999</ele>
        <time>2025-05-19T16:23:02Z</time>
      </trkpt>
      <trkpt lat="46.094141034409404" lon="8.692669020965695">
        <ele>210.66999999999999</ele>
        <time>2025-05-19T16:23:03Z</time>
      </trkpt>
      <trkpt lat="46.095318021252751" lon="8.693114016205072">
        <ele>211.63</ele>
        <time>2025-05-19T16:23:12Z</time>
      </trkpt>
      <trkpt lat="46.09572202898562" lon="8.693232033401728">
        <ele>212.11000000000001</ele>
        <time>2025-05-19T16:23:15Z</time>
      </trkpt>
      <trkpt lat="46.09585203230381" lon="8.693274026736617">
        <ele>212.11000000000001</ele>
        <time>2025-05-19T16:23:16Z</time>
      </trkpt>
      <trkpt lat="46.095969965681434" lon="8.693321971222758">
        <ele>212.11000000000001</ele>
        <time>2025-05-19T16:23:17Z</time>
      </trkpt>
      <trkpt lat="46.096080020070076" lon="8.693420039489865">
        <ele>212.11000000000001</ele>
        <time>2025-05-19T16:23:18Z</time>
      </trkpt>
      <trkpt lat="46.096171969547868" lon="8.693535961210728">
        <ele>212.11000000000001</ele>
        <time>2025-05-19T16:23:19Z</time>
      </trkpt>
      <trkpt lat="46.096267020329833" lon="8.693653978407383">
        <ele>211.63</ele>
        <time>2025-05-19T16:23:20Z</time>
      </trkpt>
      <trkpt lat="46.096358969807625" lon="8.693768978118897">
        <ele>211.63</ele>
        <time>2025-05-19T16:23:21Z</time>
      </trkpt>
      <trkpt lat="46.096457038074732" lon="8.693838967010379">
        <ele>211.63</ele>
        <time>2025-05-19T16:23:22Z</time>
      </trkpt>
      <trkpt lat="46.09656298533082" lon="8.693872997537255">
        <ele>211.63</ele>
        <time>2025-05-19T16:23:23Z</time>
      </trkpt>
      <trkpt lat="46.096689971163869" lon="8.693864028900862">
        <ele>211.15000000000001</ele>
        <time>2025-05-19T16:23:24Z</time>
      </trkpt>
      <trkpt lat="46.096817962825298" lon="8.693855982273817">
        <ele>211.15000000000001</ele>
        <time>2025-05-19T16:23:25Z</time>
      </trkpt>
      <trkpt lat="46.096943020820618" lon="8.693864028900862">
        <ele>210.66999999999999</ele>
        <time>2025-05-19T16:23:26Z</time>
      </trkpt>
      <trkpt lat="46.097088027745485" lon="8.693876015022397">
        <ele>210.66999999999999</ele>
        <time>2025-05-19T16:23:27Z</time>
      </trkpt>
      <trkpt lat="46.097290031611919" lon="8.694014986976981">
        <ele>210.66999999999999</ele>
        <time>2025-05-19T16:23:29Z</time>
      </trkpt>
      <trkpt lat="46.097391033545136" lon="8.694084975868464">
        <ele>210.66999999999999</ele>
        <time>2025-05-19T16:23:30Z</time>
      </trkpt>
      <trkpt lat="46.097497986629605" lon="8.69411900639534">
        <ele>210.66999999999999</ele>
        <time>2025-05-19T16:23:31Z</time>
      </trkpt>
      <trkpt lat="46.097612986341119" lon="8.694129986688495">
        <ele>210.66999999999999</ele>
        <time>2025-05-19T16:23:32Z</time>
      </trkpt>
      <trkpt lat="46.097737960517406" lon="8.694095034152269">
        <ele>210.66999999999999</ele>
        <time>2025-05-19T16:23:33Z</time>
      </trkpt>
      <trkpt lat="46.097861006855965" lon="8.694041976705194">
        <ele>210.19</ele>
        <time>2025-05-19T16:23:34Z</time>
      </trkpt>
      <trkpt lat="46.097988998517394" lon="8.693968970328569">
        <ele>210.19</ele>
        <time>2025-05-19T16:23:35Z</time>
      </trkpt>
      <trkpt lat="46.098103998228908" lon="8.693867968395352">
        <ele>209.69999999999999</ele>
        <time>2025-05-19T16:23:36Z</time>
      </trkpt>
      <trkpt lat="46.09832402318716" lon="8.693675016984344">
        <ele>209.22</ele>
        <time>2025-05-19T16:23:38Z</time>
      </trkpt>
      <trkpt lat="46.098430976271629" lon="8.693581977859139">
        <ele>208.74000000000001</ele>
        <time>2025-05-19T16:23:39Z</time>
      </trkpt>
      <trkpt lat="46.09853901900351" lon="8.693535039201379">
        <ele>208.74000000000001</ele>
        <time>2025-05-19T16:23:40Z</time>
      </trkpt>
      <trkpt lat="46.098659969866276" lon="8.693505031988025">
        <ele>208.25999999999999</ele>
        <time>2025-05-19T16:23:41Z</time>
      </trkpt>
      <trkpt lat="46.098771030083299" lon="8.693509977310896">
        <ele>207.78</ele>
        <time>2025-05-19T16:23:42Z</time>
      </trkpt>
      <trkpt lat="46.098886029794812" lon="8.693553982302547">
        <ele>207.78</ele>
        <time>2025-05-19T16:23:43Z</time>
      </trkpt>
      <trkpt lat="46.098998012021184" lon="8.693596981465817">
        <ele>207.78</ele>
        <time>2025-05-19T16:23:44Z</time>
      </trkpt>
      <trkpt lat="46.099094990640879" lon="8.693704018369317">
        <ele>207.78</ele>
        <time>2025-05-19T16:23:45Z</time>
      </trkpt>
      <trkpt lat="46.099192975088954" lon="8.693814994767308">
        <ele>208.25999999999999</ele>
        <time>2025-05-19T16:23:46Z</time>
      </trkpt>
      <trkpt lat="46.099433032795787" lon="8.694244986400008">
        <ele>209.22</ele>
        <time>2025-05-19T16:23:49Z</time>
      </trkpt>
      <trkpt lat="46.099492041394114" lon="8.694347999989986">
        <ele>209.22</ele>
        <time>2025-05-19T16:23:50Z</time>
      </trkpt>
      <trkpt lat="46.099596982821822" lon="8.69444296695292">
        <ele>209.69999999999999</ele>
        <time>2025-05-19T16:23:51Z</time>
      </trkpt>
      <trkpt lat="46.09967602416873" lon="8.694513961672783">
        <ele>210.19</ele>
        <time>2025-05-19T16:23:52Z</time>
      </trkpt>
      <trkpt lat="46.099755987524986" lon="8.694557966664434">
        <ele>210.19</ele>
        <time>2025-05-19T16:23:53Z</time>
      </trkpt>
      <trkpt lat="46.100089000537992" lon="8.694689981639385">
        <ele>210.19</ele>
        <time>2025-05-19T16:23:57Z</time>
      </trkpt>
      <trkpt lat="46.100174998864532" lon="8.694728035479784">
        <ele>210.19</ele>
        <time>2025-05-19T16:23:58Z</time>
      </trkpt>
      <trkpt lat="46.100285975262523" lon="8.694777991622686">
        <ele>210.19</ele>
        <time>2025-05-19T16:23:59Z</time>
      </trkpt>
      <trkpt lat="46.100340038537979" lon="8.694831971079111">
        <ele>210.19</ele>
        <time>2025-05-19T16:24:00Z</time>
      </trkpt>
      <trkpt lat="46.100414972752333" lon="8.694906989112496">
        <ele>210.19</ele>
        <time>2025-05-19T16:24:01Z</time>
      </trkpt>
      <trkpt lat="46.100486973300576" lon="8.694986030459404">
        <ele>210.19</ele>
        <time>2025-05-19T16:24:02Z</time>
      </trkpt>
      <trkpt lat="46.100540030747652" lon="8.695087032392621">
        <ele>209.69999999999999</ele>
        <time>2025-05-19T16:24:03Z</time>
      </trkpt>
      <trkpt lat="46.100593004375696" lon="8.695187028497458">
        <ele>209.69999999999999</ele>
        <time>2025-05-19T16:24:04Z</time>
      </trkpt>
      <trkpt lat="46.100821997970343" lon="8.695715004578233">
        <ele>208.74000000000001</ele>
        <time>2025-05-19T16:24:09Z</time>
      </trkpt>
      <trkpt lat="46.10137403011322" lon="8.696640031412244">
        <ele>209.22</ele>
        <time>2025-05-19T16:24:20Z</time>
      </trkpt>
      <trkpt lat="46.101444019004703" lon="8.696729969233275">
        <ele>209.22</ele>
        <time>2025-05-19T16:24:22Z</time>
      </trkpt>
      <trkpt lat="46.101507972925901" lon="8.696757964789867">
        <ele>209.69999999999999</ele>
        <time>2025-05-19T16:24:23Z</time>
      </trkpt>
      <trkpt lat="46.101557007059455" lon="8.696780009195209">
        <ele>209.69999999999999</ele>
        <time>2025-05-19T16:24:24Z</time>
      </trkpt>
      <trkpt lat="46.101636970415711" lon="8.696815967559815">
        <ele>209.69999999999999</ele>
        <time>2025-05-19T16:24:25Z</time>
      </trkpt>
      <trkpt lat="46.101663038134575" lon="8.69680498726666">
        <ele>209.69999999999999</ele>
        <time>2025-05-19T16:24:26Z</time>
      </trkpt>
      <trkpt lat="46.10184601508081" lon="8.69671898894012">
        <ele>208.25999999999999</ele>
        <time>2025-05-19T16:24:31Z</time>
      </trkpt>
      <trkpt lat="46.101870993152261" lon="8.696700967848301">
        <ele>208.25999999999999</ele>
        <time>2025-05-19T16:24:32Z</time>
      </trkpt>
      <trkpt lat="46.101901000365615" lon="8.696680013090372">
        <ele>208.25999999999999</ele>
        <time>2025-05-19T16:24:33Z</time>
      </trkpt>
      <trkpt lat="46.101951962336898" lon="8.696642965078354">
        <ele>208.25999999999999</ele>
        <time>2025-05-19T16:24:34Z</time>
      </trkpt>
      <trkpt lat="46.102005019783974" lon="8.696618992835283">
        <ele>208.74000000000001</ele>
        <time>2025-05-19T16:24:35Z</time>
      </trkpt>
      <trkpt lat="46.102058999240398" lon="8.69661002419889">
        <ele>208.74000000000001</ele>
        <time>2025-05-19T16:24:36Z</time>
      </trkpt>
      <trkpt lat="46.102109039202332" lon="8.696600971743465">
        <ele>208.74000000000001</ele>
        <time>2025-05-19T16:24:37Z</time>
      </trkpt>
      <trkpt lat="46.102238958701491" lon="8.696640031412244">
        <ele>208.74000000000001</ele>
        <time>2025-05-19T16:24:39Z</time>
      </trkpt>
      <trkpt lat="46.102282963693142" lon="8.69665302336216">
        <ele>208.25999999999999</ele>
        <time>2025-05-19T16:24:40Z</time>
      </trkpt>
      <trkpt lat="46.102365022525191" lon="8.696707002818584">
        <ele>208.25999999999999</ele>
        <time>2025-05-19T16:24:42Z</time>
      </trkpt>
      <trkpt lat="46.102540958672762" lon="8.696882016956806">
        <ele>207.78</ele>
        <time>2025-05-19T16:24:45Z</time>
      </trkpt>
      <trkpt lat="46.102612959221005" lon="8.69695502333343">
        <ele>207.30000000000001</ele>
        <time>2025-05-19T16:24:46Z</time>
      </trkpt>
      <trkpt lat="46.102699041366577" lon="8.697032975032926">
        <ele>207.30000000000001</ele>
        <time>2025-05-19T16:24:47Z</time>
      </trkpt>
      <trkpt lat="46.102788979187608" lon="8.697061976417899">
        <ele>207.30000000000001</ele>
        <time>2025-05-19T16:24:48Z</time>
      </trkpt>
      <trkpt lat="46.102882018312812" lon="8.697089971974492">
        <ele>207.30000000000001</ele>
        <time>2025-05-19T16:24:49Z</time>
      </trkpt>
      <trkpt lat="46.102978996932507" lon="8.697116039693356">
        <ele>207.30000000000001</ele>
        <time>2025-05-19T16:24:50Z</time>
      </trkpt>
      <trkpt lat="46.103077987208962" lon="8.697116039693356">
        <ele>207.30000000000001</ele>
        <time>2025-05-19T16:24:51Z</time>
      </trkpt>
      <trkpt lat="46.103176977485418" lon="8.697116039693356">
        <ele>207.30000000000001</ele>
        <time>2025-05-19T16:24:52Z</time>
      </trkpt>
      <trkpt lat="46.103678969666362" lon="8.697157027199864">
        <ele>207.78</ele>
        <time>2025-05-19T16:24:57Z</time>
      </trkpt>
      <trkpt lat="46.103777959942818" lon="8.697200026363134">
        <ele>207.78</ele>
        <time>2025-05-19T16:24:58Z</time>
      </trkpt>
      <trkpt lat="46.103883991017938" lon="8.69725501164794">
        <ele>207.78</ele>
        <time>2025-05-19T16:24:59Z</time>
      </trkpt>
      <trkpt lat="46.104605002328753" lon="8.697623983025551">
        <ele>208.25999999999999</ele>
        <time>2025-05-19T16:25:05Z</time>
      </trkpt>
      <trkpt lat="46.104716984555125" lon="8.697753986343741">
        <ele>208.25999999999999</ele>
        <time>2025-05-19T16:25:06Z</time>
      </trkpt>
      <trkpt lat="46.104823015630245" lon="8.697888012975454">
        <ele>208.25999999999999</ele>
        <time>2025-05-19T16:25:07Z</time>
      </trkpt>
      <trkpt lat="46.104929968714714" lon="8.698022961616516">
        <ele>208.25999999999999</ele>
        <time>2025-05-19T16:25:08Z</time>
      </trkpt>
      <trkpt lat="46.105043040588498" lon="8.698156988248229">
        <ele>208.25999999999999</ele>
        <time>2025-05-19T16:25:09Z</time>
      </trkpt>
      <trkpt lat="46.105180000886321" lon="8.698252961039543">
        <ele>208.25999999999999</ele>
        <time>2025-05-19T16:25:10Z</time>
      </trkpt>
      <trkpt lat="46.105320984497666" lon="8.69835002347827">
        <ele>208.25999999999999</ele>
        <time>2025-05-19T16:25:11Z</time>
      </trkpt>
      <trkpt lat="46.105460962280631" lon="8.698448007926345">
        <ele>208.25999999999999</ele>
        <time>2025-05-19T16:25:12Z</time>
      </trkpt>
      <trkpt lat="46.105590965598822" lon="8.698591003194451">
        <ele>207.78</ele>
        <time>2025-05-19T16:25:13Z</time>
      </trkpt>
      <trkpt lat="46.105702025815845" lon="8.698752019554377">
        <ele>207.78</ele>
        <time>2025-05-19T16:25:14Z</time>
      </trkpt>
      <trkpt lat="46.105917021632195" lon="8.699064999818802">
        <ele>207.78</ele>
        <time>2025-05-19T16:25:16Z</time>
      </trkpt>
      <trkpt lat="46.106030009686947" lon="8.699203971773386">
        <ele>207.78</ele>
        <time>2025-05-19T16:25:17Z</time>
      </trkpt>
      <trkpt lat="46.106423959136009" lon="8.699503038078547">
        <ele>207.30000000000001</ele>
        <time>2025-05-19T16:25:20Z</time>
      </trkpt>
      <trkpt lat="46.10655102878809" lon="8.699599010869861">
        <ele>207.30000000000001</ele>
        <time>2025-05-19T16:25:21Z</time>
      </trkpt>
      <trkpt lat="46.107023013755679" lon="8.699957001954317">
        <ele>207.78</ele>
        <time>2025-05-19T16:25:25Z</time>
      </trkpt>
      <trkpt lat="46.107138013467193" lon="8.700044006109238">
        <ele>207.78</ele>
        <time>2025-05-19T16:25:26Z</time>
      </trkpt>
      <trkpt lat="46.107255024835467" lon="8.700126986950636">
        <ele>208.25999999999999</ele>
        <time>2025-05-19T16:25:27Z</time>
      </trkpt>
      <trkpt lat="46.10788500867784" lon="8.700398979708552">
        <ele>209.22</ele>
        <time>2025-05-19T16:25:32Z</time>
      </trkpt>
      <trkpt lat="46.109039029106498" lon="8.701359964907169">
        <ele>212.11000000000001</ele>
        <time>2025-05-19T16:25:43Z</time>
      </trkpt>
      <trkpt lat="46.110130017623305" lon="8.702226988971233">
        <ele>212.59</ele>
        <time>2025-05-19T16:25:54Z</time>
      </trkpt>
      <trkpt lat="46.111383028328419" lon="8.703406993299723">
        <ele>213.55000000000001</ele>
        <time>2025-05-19T16:26:07Z</time>
      </trkpt>
      <trkpt lat="46.111663989722729" lon="8.703688960522413">
        <ele>214.03</ele>
        <time>2025-05-19T16:26:10Z</time>
      </trkpt>
      <trkpt lat="46.111749988049269" lon="8.703774036839604">
        <ele>214.03</ele>
        <time>2025-05-19T16:26:11Z</time>
      </trkpt>
      <trkpt lat="46.111821988597512" lon="8.703878978267312">
        <ele>214.03</ele>
        <time>2025-05-19T16:26:12Z</time>
      </trkpt>
      <trkpt lat="46.111877979710698" lon="8.703987020999193">
        <ele>214.50999999999999</ele>
        <time>2025-05-19T16:26:13Z</time>
      </trkpt>
      <trkpt lat="46.111932964995503" lon="8.704093974083662">
        <ele>214.03</ele>
        <time>2025-05-19T16:26:14Z</time>
      </trkpt>
      <trkpt lat="46.112404027953744" lon="8.705106005072594">
        <ele>215.47</ele>
        <time>2025-05-19T16:26:22Z</time>
      </trkpt>
      <trkpt lat="46.11302001401782" lon="8.705961965024471">
        <ele>216.91</ele>
        <time>2025-05-19T16:26:30Z</time>
      </trkpt>
      <trkpt lat="46.113126967102289" lon="8.706015022471547">
        <ele>216.91</ele>
        <time>2025-05-19T16:26:31Z</time>
      </trkpt>
      <trkpt lat="46.113231992349029" lon="8.706067996099591">
        <ele>216.91</ele>
        <time>2025-05-19T16:26:32Z</time>
      </trkpt>
      <trkpt lat="46.113353027030826" lon="8.70612901635468">
        <ele>216.91</ele>
        <time>2025-05-19T16:26:33Z</time>
      </trkpt>
      <trkpt lat="46.113447993993759" lon="8.706144019961357">
        <ele>217.40000000000001</ele>
        <time>2025-05-19T16:26:34Z</time>
      </trkpt>
      <trkpt lat="46.114271013066173" lon="8.706191964447498">
        <ele>217.40000000000001</ele>
        <time>2025-05-19T16:26:41Z</time>
      </trkpt>
      <trkpt lat="46.114385006949306" lon="8.706238986924291">
        <ele>217.40000000000001</ele>
        <time>2025-05-19T16:26:42Z</time>
      </trkpt>
      <trkpt lat="46.1145010124892" lon="8.706287015229464">
        <ele>216.91</ele>
        <time>2025-05-19T16:26:43Z</time>
      </trkpt>
      <trkpt lat="46.114606959745288" lon="8.706374019384384">
        <ele>216.91</ele>
        <time>2025-05-19T16:26:44Z</time>
      </trkpt>
      <trkpt lat="46.114706033840775" lon="8.70647300966084">
        <ele>216.91</ele>
        <time>2025-05-19T16:26:45Z</time>
      </trkpt>
      <trkpt lat="46.115294024348259" lon="8.707061000168324">
        <ele>216.43000000000001</ele>
        <time>2025-05-19T16:26:51Z</time>
      </trkpt>
      <trkpt lat="46.116169011220336" lon="8.707581013441086">
        <ele>217.88</ele>
        <time>2025-05-19T16:26:59Z</time>
      </trkpt>
      <trkpt lat="46.117109963670373" lon="8.708309987559915">
        <ele>217.88</ele>
        <time>2025-05-19T16:27:09Z</time>
      </trkpt>
      <trkpt lat="46.117996014654636" lon="8.709023036062717">
        <ele>215.94999999999999</ele>
        <time>2025-05-19T16:27:19Z</time>
      </trkpt>
      <trkpt lat="46.118251997977495" lon="8.709267033264041">
        <ele>215.47</ele>
        <time>2025-05-19T16:27:22Z</time>
      </trkpt>
      <trkpt lat="46.118332967162132" lon="8.709358982741833">
        <ele>215.94999999999999</ele>
        <time>2025-05-19T16:27:23Z</time>
      </trkpt>
      <trkpt lat="46.118652988225222" lon="8.709743041545153">
        <ele>214.99000000000001</ele>
        <time>2025-05-19T16:27:27Z</time>
      </trkpt>
      <trkpt lat="46.119329994544387" lon="8.71070402674377">
        <ele>219.80000000000001</ele>
        <time>2025-05-19T16:27:37Z</time>
      </trkpt>
      <trkpt lat="46.119410041719675" lon="8.710792036727071">
        <ele>219.80000000000001</ele>
        <time>2025-05-19T16:27:38Z</time>
      </trkpt>
      <trkpt lat="46.119490005075932" lon="8.710880968719721">
        <ele>220.28</ele>
        <time>2025-05-19T16:27:39Z</time>
      </trkpt>
      <trkpt lat="46.119660995900631" lon="8.711045002564788">
        <ele>221.24000000000001</ele>
        <time>2025-05-19T16:27:41Z</time>
      </trkpt>
      <trkpt lat="46.119833998382092" lon="8.711170982569456">
        <ele>221.72</ele>
        <time>2025-05-19T16:27:43Z</time>
      </trkpt>
      <trkpt lat="46.119942963123322" lon="8.711205013096333">
        <ele>222.19999999999999</ele>
        <time>2025-05-19T16:27:44Z</time>
      </trkpt>
      <trkpt lat="46.120565989986062" lon="8.711267039179802">
        <ele>222.19999999999999</ele>
        <time>2025-05-19T16:27:50Z</time>
      </trkpt>
      <trkpt lat="46.120671015232801" lon="8.711275001987815">
        <ele>222.19999999999999</ele>
        <time>2025-05-19T16:27:51Z</time>
      </trkpt>
      <trkpt lat="46.120776040479541" lon="8.711320012807846">
        <ele>221.72</ele>
        <time>2025-05-19T16:27:52Z</time>
      </trkpt>
      <trkpt lat="46.120872013270855" lon="8.711383966729045">
        <ele>221.24000000000001</ele>
        <time>2025-05-19T16:27:53Z</time>
      </trkpt>
      <trkpt lat="46.120971003547311" lon="8.711450016126037">
        <ele>220.28</ele>
        <time>2025-05-19T16:27:54Z</time>
      </trkpt>
      <trkpt lat="46.121716992929578" lon="8.712159041315317">
        <ele>216.91</ele>
        <time>2025-05-19T16:28:03Z</time>
      </trkpt>
      <trkpt lat="46.121975993737578" lon="8.712355010211468">
        <ele>215.94999999999999</ele>
        <time>2025-05-19T16:28:06Z</time>
      </trkpt>
      <trkpt lat="46.122158970683813" lon="8.712451988831163">
        <ele>216.43000000000001</ele>
        <time>2025-05-19T16:28:08Z</time>
      </trkpt>
      <trkpt lat="46.122255027294159" lon="8.71250999160111">
        <ele>215.94999999999999</ele>
        <time>2025-05-19T16:28:09Z</time>
      </trkpt>
      <trkpt lat="46.122351000085473" lon="8.712567994371057">
        <ele>215.94999999999999</ele>
        <time>2025-05-19T16:28:10Z</time>
      </trkpt>
      <trkpt lat="46.12245099619031" lon="8.712630020454526">
        <ele>215.47</ele>
        <time>2025-05-19T16:28:11Z</time>
      </trkpt>
      <trkpt lat="46.122526014223695" lon="8.712705038487911">
        <ele>215.47</ele>
        <time>2025-05-19T16:28:12Z</time>
      </trkpt>
      <trkpt lat="46.122606983408332" lon="8.712786007672548">
        <ele>215.47</ele>
        <time>2025-05-19T16:28:13Z</time>
      </trkpt>
      <trkpt lat="46.123444000259042" lon="8.714096015319228">
        <ele>208.74000000000001</ele>
        <time>2025-05-19T16:28:24Z</time>
      </trkpt>
      <trkpt lat="46.123584983870387" lon="8.714355016127229">
        <ele>207.78</ele>
        <time>2025-05-19T16:28:26Z</time>
      </trkpt>
      <trkpt lat="46.123654972761869" lon="8.714483007788658">
        <ele>207.78</ele>
        <time>2025-05-19T16:28:27Z</time>
      </trkpt>
      <trkpt lat="46.123734014108777" lon="8.714598007500172">
        <ele>207.30000000000001</ele>
        <time>2025-05-19T16:28:28Z</time>
      </trkpt>
      <trkpt lat="46.123819006606936" lon="8.714703032746911">
        <ele>207.30000000000001</ele>
        <time>2025-05-19T16:28:29Z</time>
      </trkpt>
      <trkpt lat="46.123915985226631" lon="8.714784001931548">
        <ele>206.81999999999999</ele>
        <time>2025-05-19T16:28:30Z</time>
      </trkpt>
      <trkpt lat="46.125363958999515" lon="8.715439969673753">
        <ele>208.25999999999999</ele>
        <time>2025-05-19T16:28:43Z</time>
      </trkpt>
      <trkpt lat="46.126156970858574" lon="8.715683966875076">
        <ele>208.25999999999999</ele>
        <time>2025-05-19T16:28:50Z</time>
      </trkpt>
      <trkpt lat="46.126974038779736" lon="8.715600986033678">
        <ele>206.81999999999999</ele>
        <time>2025-05-19T16:28:57Z</time>
      </trkpt>
      <trkpt lat="46.127205966040492" lon="8.715618001297116">
        <ele>206.81999999999999</ele>
        <time>2025-05-19T16:28:59Z</time>
      </trkpt>
      <trkpt lat="46.127644004300237" lon="8.715827967971563">
        <ele>206.81999999999999</ele>
        <time>2025-05-19T16:29:03Z</time>
      </trkpt>
      <trkpt lat="46.127761015668511" lon="8.71584196574986">
        <ele>207.30000000000001</ele>
        <time>2025-05-19T16:29:04Z</time>
      </trkpt>
      <trkpt lat="46.128104003146291" lon="8.71588496491313">
        <ele>207.78</ele>
        <time>2025-05-19T16:29:07Z</time>
      </trkpt>
      <trkpt lat="46.128217997029424" lon="8.715898962691426">
        <ele>208.25999999999999</ele>
        <time>2025-05-19T16:29:08Z</time>
      </trkpt>
      <trkpt lat="46.12833802588284" lon="8.715918995440006">
        <ele>208.25999999999999</ele>
        <time>2025-05-19T16:29:09Z</time>
      </trkpt>
      <trkpt lat="46.129151992499828" lon="8.716568006202579">
        <ele>209.69999999999999</ele>
        <time>2025-05-19T16:29:17Z</time>
      </trkpt>
      <trkpt lat="46.129261963069439" lon="8.716612011194229">
        <ele>209.69999999999999</ele>
        <time>2025-05-19T16:29:18Z</time>
      </trkpt>
      <trkpt lat="46.12994902767241" lon="8.716789036989212">
        <ele>208.25999999999999</ele>
        <time>2025-05-19T16:29:24Z</time>
      </trkpt>
      <trkpt lat="46.130064027383924" lon="8.716827007010579">
        <ele>207.78</ele>
        <time>2025-05-19T16:29:25Z</time>
      </trkpt>
      <trkpt lat="46.130172992125154" lon="8.716900013387203">
        <ele>207.30000000000001</ele>
        <time>2025-05-19T16:29:26Z</time>
      </trkpt>
      <trkpt lat="46.130572976544499" lon="8.717213999480009">
        <ele>206.34</ele>
        <time>2025-05-19T16:29:30Z</time>
      </trkpt>
      <trkpt lat="46.130684958770871" lon="8.717246018350124">
        <ele>206.34</ele>
        <time>2025-05-19T16:29:31Z</time>
      </trkpt>
      <trkpt lat="46.130911018699408" lon="8.717297986149788">
        <ele>206.81999999999999</ele>
        <time>2025-05-19T16:29:33Z</time>
      </trkpt>
      <trkpt lat="46.131026018410921" lon="8.71732397004962">
        <ele>207.30000000000001</ele>
        <time>2025-05-19T16:29:34Z</time>
      </trkpt>
      <trkpt lat="46.131144035607576" lon="8.717352971434593">
        <ele>207.30000000000001</ele>
        <time>2025-05-19T16:29:35Z</time>
      </trkpt>
      <trkpt lat="46.131246965378523" lon="8.717432012781501">
        <ele>207.78</ele>
        <time>2025-05-19T16:29:36Z</time>
      </trkpt>
      <trkpt lat="46.131348973140121" lon="8.717510970309377">
        <ele>207.78</ele>
        <time>2025-05-19T16:29:37Z</time>
      </trkpt>
      <trkpt lat="46.131450980901718" lon="8.717589005827904">
        <ele>208.25999999999999</ele>
        <time>2025-05-19T16:29:38Z</time>
      </trkpt>
      <trkpt lat="46.132601983845234" lon="8.718387968838215">
        <ele>206.81999999999999</ele>
        <time>2025-05-19T16:29:49Z</time>
      </trkpt>
      <trkpt lat="46.133566992357373" lon="8.719304027035832">
        <ele>205.86000000000001</ele>
        <time>2025-05-19T16:29:59Z</time>
      </trkpt>
      <trkpt lat="46.133661037310958" lon="8.719397988170385">
        <ele>205.86000000000001</ele>
        <time>2025-05-19T16:30:00Z</time>
      </trkpt>
      <trkpt lat="46.133757010102272" lon="8.7194939609617">
        <ele>205.86000000000001</ele>
        <time>2025-05-19T16:30:01Z</time>
      </trkpt>
      <trkpt lat="46.13385901786387" lon="8.719570990651846">
        <ele>205.86000000000001</ele>
        <time>2025-05-19T16:30:02Z</time>
      </trkpt>
      <trkpt lat="46.133971000090241" lon="8.719602003693581">
        <ele>206.34</ele>
        <time>2025-05-19T16:30:03Z</time>
      </trkpt>
      <trkpt lat="46.134552033618093" lon="8.719681967049837">
        <ele>206.81999999999999</ele>
        <time>2025-05-19T16:30:08Z</time>
      </trkpt>
      <trkpt lat="46.134665021672845" lon="8.719720020890236">
        <ele>206.81999999999999</ele>
        <time>2025-05-19T16:30:09Z</time>
      </trkpt>
      <trkpt lat="46.134774992242455" lon="8.719756985083222">
        <ele>206.81999999999999</ele>
        <time>2025-05-19T16:30:10Z</time>
      </trkpt>
      <trkpt lat="46.134884962812066" lon="8.719811970368028">
        <ele>206.81999999999999</ele>
        <time>2025-05-19T16:30:11Z</time>
      </trkpt>
      <trkpt lat="46.134990993887186" lon="8.719885982573032">
        <ele>206.81999999999999</ele>
        <time>2025-05-19T16:30:12Z</time>
      </trkpt>
      <trkpt lat="46.136127999052405" lon="8.72104000300169">
        <ele>207.30000000000001</ele>
        <time>2025-05-19T16:30:24Z</time>
      </trkpt>
      <trkpt lat="46.136289015412331" lon="8.721274025738239">
        <ele>206.81999999999999</ele>
        <time>2025-05-19T16:30:26Z</time>
      </trkpt>
      <trkpt lat="46.137335998937488" lon="8.722610017284751">
        <ele>205.86000000000001</ele>
        <time>2025-05-19T16:30:38Z</time>
      </trkpt>
      <trkpt lat="46.138689005747437" lon="8.724186988547444">
        <ele>203.94</ele>
        <time>2025-05-19T16:30:53Z</time>
      </trkpt>
      <trkpt lat="46.139886025339365" lon="8.725786004215479">
        <ele>207.30000000000001</ele>
        <time>2025-05-19T16:31:07Z</time>
      </trkpt>
      <trkpt lat="46.139968000352383" lon="8.725902009755373">
        <ele>207.78</ele>
        <time>2025-05-19T16:31:08Z</time>
      </trkpt>
      <trkpt lat="46.140142008662224" lon="8.726103007793427">
        <ele>208.25999999999999</ele>
        <time>2025-05-19T16:31:10Z</time>
      </trkpt>
      <trkpt lat="46.140438979491591" lon="8.726350022479892">
        <ele>208.74000000000001</ele>
        <time>2025-05-19T16:31:13Z</time>
      </trkpt>
      <trkpt lat="46.140536963939667" lon="8.726431997492909">
        <ele>209.22</ele>
        <time>2025-05-19T16:31:14Z</time>
      </trkpt>
      <trkpt lat="46.140635032206774" lon="8.726512966677547">
        <ele>209.22</ele>
        <time>2025-05-19T16:31:15Z</time>
      </trkpt>
      <trkpt lat="46.14073402248323" lon="8.726621009409428">
        <ele>209.69999999999999</ele>
        <time>2025-05-19T16:31:16Z</time>
      </trkpt>
      <trkpt lat="46.140801999717951" lon="8.72675403021276">
        <ele>209.69999999999999</ele>
        <time>2025-05-19T16:31:17Z</time>
      </trkpt>
      <trkpt lat="46.141440030187368" lon="8.727955995127559">
        <ele>213.06999999999999</ele>
        <time>2025-05-19T16:31:26Z</time>
      </trkpt>
      <trkpt lat="46.141514964401722" lon="8.728080969303846">
        <ele>213.55000000000001</ele>
        <time>2025-05-19T16:31:27Z</time>
      </trkpt>
      <trkpt lat="46.141591994091868" lon="8.728208960965276">
        <ele>214.03</ele>
        <time>2025-05-19T16:31:28Z</time>
      </trkpt>
      <trkpt lat="46.141686039045453" lon="8.72830300591886">
        <ele>214.03</ele>
        <time>2025-05-19T16:31:29Z</time>
      </trkpt>
      <trkpt lat="46.141785029321909" lon="8.728391015902162">
        <ele>214.50999999999999</ele>
        <time>2025-05-19T16:31:30Z</time>
      </trkpt>
      <trkpt lat="46.143054971471429" lon="8.729254016652703">
        <ele>214.99000000000001</ele>
        <time>2025-05-19T16:31:42Z</time>
      </trkpt>
      <trkpt lat="46.144313011318445" lon="8.730140989646316">
        <ele>213.06999999999999</ele>
        <time>2025-05-19T16:31:54Z</time>
      </trkpt>
      <trkpt lat="46.144959004595876" lon="8.730824030935764">
        <ele>213.55000000000001</ele>
        <time>2025-05-19T16:32:01Z</time>
      </trkpt>
      <trkpt lat="46.145057994872332" lon="8.730874992907047">
        <ele>214.03</ele>
        <time>2025-05-19T16:32:02Z</time>
      </trkpt>
      <trkpt lat="46.145166037604213" lon="8.730913968756795">
        <ele>214.03</ele>
        <time>2025-05-19T16:32:03Z</time>
      </trkpt>
      <trkpt lat="46.14550500176847" lon="8.731035003438592">
        <ele>214.99000000000001</ele>
        <time>2025-05-19T16:32:06Z</time>
      </trkpt>
      <trkpt lat="46.145831979811192" lon="8.731228038668633">
        <ele>214.99000000000001</ele>
        <time>2025-05-19T16:32:09Z</time>
      </trkpt>
      <trkpt lat="46.145938010886312" lon="8.731319988146424">
        <ele>214.99000000000001</ele>
        <time>2025-05-19T16:32:10Z</time>
      </trkpt>
      <trkpt lat="46.146023003384471" lon="8.731431970372796">
        <ele>214.50999999999999</ele>
        <time>2025-05-19T16:32:11Z</time>
      </trkpt>
      <trkpt lat="46.146109001711011" lon="8.7315440364182">
        <ele>214.50999999999999</ele>
        <time>2025-05-19T16:32:12Z</time>
      </trkpt>
      <trkpt lat="46.146195000037551" lon="8.731664987280965">
        <ele>214.50999999999999</ele>
        <time>2025-05-19T16:32:13Z</time>
      </trkpt>
      <trkpt lat="46.146541005000472" lon="8.732392033562064">
        <ele>214.50999999999999</ele>
        <time>2025-05-19T16:32:18Z</time>
      </trkpt>
      <trkpt lat="46.146619962528348" lon="8.73255698941648">
        <ele>214.50999999999999</ele>
        <time>2025-05-19T16:32:19Z</time>
      </trkpt>
      <trkpt lat="46.147908009588718" lon="8.734245020896196">
        <ele>213.55000000000001</ele>
        <time>2025-05-19T16:32:32Z</time>
      </trkpt>
      <trkpt lat="46.147986967116594" lon="8.734372006729245">
        <ele>213.55000000000001</ele>
        <time>2025-05-19T16:32:33Z</time>
      </trkpt>
      <trkpt lat="46.148057961836457" lon="8.734494969248772">
        <ele>213.06999999999999</ele>
        <time>2025-05-19T16:32:34Z</time>
      </trkpt>
      <trkpt lat="46.148108001798391" lon="8.734636036679149">
        <ele>213.06999999999999</ele>
        <time>2025-05-19T16:32:35Z</time>
      </trkpt>
      <trkpt lat="46.148159969598055" lon="8.734781965613365">
        <ele>213.06999999999999</ele>
        <time>2025-05-19T16:32:36Z</time>
      </trkpt>
      <trkpt lat="46.148213027045131" lon="8.734932001680136">
        <ele>213.06999999999999</ele>
        <time>2025-05-19T16:32:37Z</time>
      </trkpt>
      <trkpt lat="46.148643018677831" lon="8.736506961286068">
        <ele>213.55000000000001</ele>
        <time>2025-05-19T16:32:47Z</time>
      </trkpt>
      <trkpt lat="46.148952981457114" lon="8.738317033275962">
        <ele>213.55000000000001</ele>
        <time>2025-05-19T16:32:58Z</time>
      </trkpt>
      <trkpt lat="46.149034034460783" lon="8.738810978829861">
        <ele>214.03</ele>
        <time>2025-05-19T16:33:01Z</time>
      </trkpt>
      <trkpt lat="46.149043003097177" lon="8.738980041816831">
        <ele>214.03</ele>
        <time>2025-05-19T16:33:02Z</time>
      </trkpt>
      <trkpt lat="46.149049960076809" lon="8.739144997671247">
        <ele>214.03</ele>
        <time>2025-05-19T16:33:03Z</time>
      </trkpt>
      <trkpt lat="46.149041997268796" lon="8.739483961835504">
        <ele>214.50999999999999</ele>
        <time>2025-05-19T16:33:05Z</time>
      </trkpt>
      <trkpt lat="46.149016013368964" lon="8.73966702260077">
        <ele>214.99000000000001</ele>
        <time>2025-05-19T16:33:06Z</time>
      </trkpt>
      <trkpt lat="46.149035962298512" lon="8.739814963191748">
        <ele>214.50999999999999</ele>
        <time>2025-05-19T16:33:07Z</time>
      </trkpt>
      <trkpt lat="46.149057000875473" lon="8.739974973723292">
        <ele>214.50999999999999</ele>
        <time>2025-05-19T16:33:08Z</time>
      </trkpt>
      <trkpt lat="46.149122966453433" lon="8.740113023668528">
        <ele>214.50999999999999</ele>
        <time>2025-05-19T16:33:09Z</time>
      </trkpt>
      <trkpt lat="46.149191027507186" lon="8.740244032815099">
        <ele>214.99000000000001</ele>
        <time>2025-05-19T16:33:10Z</time>
      </trkpt>
      <trkpt lat="46.149260010570288" lon="8.740376969799399">
        <ele>214.99000000000001</ele>
        <time>2025-05-19T16:33:11Z</time>
      </trkpt>
      <trkpt lat="46.149328993633389" lon="8.740510996431112">
        <ele>214.99000000000001</ele>
        <time>2025-05-19T16:33:12Z</time>
      </trkpt>
      <trkpt lat="46.14939303137362" lon="8.740647034719586">
        <ele>215.47</ele>
        <time>2025-05-19T16:33:13Z</time>
      </trkpt>
      <trkpt lat="46.149441981688142" lon="8.740792963653803">
        <ele>215.47</ele>
        <time>2025-05-19T16:33:14Z</time>
      </trkpt>
      <trkpt lat="46.149475006386638" lon="8.740945011377335">
        <ele>215.94999999999999</ele>
        <time>2025-05-19T16:33:15Z</time>
      </trkpt>
      <trkpt lat="46.149492021650076" lon="8.741108039394021">
        <ele>215.94999999999999</ele>
        <time>2025-05-19T16:33:16Z</time>
      </trkpt>
      <trkpt lat="46.149528985843062" lon="8.741444991901517">
        <ele>216.43000000000001</ele>
        <time>2025-05-19T16:33:18Z</time>
      </trkpt>
      <trkpt lat="46.149546001106501" lon="8.741606008261442">
        <ele>216.91</ele>
        <time>2025-05-19T16:33:19Z</time>
      </trkpt>
      <trkpt lat="46.149593023583293" lon="8.741770964115858">
        <ele>216.91</ele>
        <time>2025-05-19T16:33:20Z</time>
      </trkpt>
      <trkpt lat="46.15008101798594" lon="8.742680987343192">
        <ele>217.40000000000001</ele>
        <time>2025-05-19T16:33:27Z</time>
      </trkpt>
      <trkpt lat="46.150137009099126" lon="8.742828005924821">
        <ele>217.40000000000001</ele>
        <time>2025-05-19T16:33:28Z</time>
      </trkpt>
      <trkpt lat="46.150170033797622" lon="8.742994973435998">
        <ele>217.40000000000001</ele>
        <time>2025-05-19T16:33:29Z</time>
      </trkpt>
      <trkpt lat="46.150263994932175" lon="8.74347098171711">
        <ele>216.91</ele>
        <time>2025-05-19T16:33:32Z</time>
      </trkpt>
      <trkpt lat="46.150295007973909" lon="8.743629986420274">
        <ele>216.43000000000001</ele>
        <time>2025-05-19T16:33:33Z</time>
      </trkpt>
      <trkpt lat="46.150354016572237" lon="8.743925029411912">
        <ele>216.91</ele>
        <time>2025-05-19T16:33:35Z</time>
      </trkpt>
      <trkpt lat="46.150413025170565" lon="8.744224011898041">
        <ele>216.91</ele>
        <time>2025-05-19T16:33:37Z</time>
      </trkpt>
      <trkpt lat="46.150448983535171" lon="8.74454302713275">
        <ele>216.91</ele>
        <time>2025-05-19T16:33:39Z</time>
      </trkpt>
      <trkpt lat="46.150462981313467" lon="8.744718041270971">
        <ele>216.91</ele>
        <time>2025-05-19T16:33:40Z</time>
      </trkpt>
      <trkpt lat="46.150475973263383" lon="8.744889032095671">
        <ele>217.40000000000001</ele>
        <time>2025-05-19T16:33:41Z</time>
      </trkpt>
      <trkpt lat="46.150488965213299" lon="8.745061028748751">
        <ele>217.40000000000001</ele>
        <time>2025-05-19T16:33:42Z</time>
      </trkpt>
      <trkpt lat="46.150530036538839" lon="8.745235037058592">
        <ele>216.91</ele>
        <time>2025-05-19T16:33:43Z</time>
      </trkpt>
      <trkpt lat="46.150594996288419" lon="8.745376020669937">
        <ele>216.91</ele>
        <time>2025-05-19T16:33:44Z</time>
      </trkpt>
      <trkpt lat="46.150915017351508" lon="8.746082028374076">
        <ele>216.43000000000001</ele>
        <time>2025-05-19T16:33:49Z</time>
      </trkpt>
      <trkpt lat="46.150979977101088" lon="8.746223011985421">
        <ele>216.43000000000001</ele>
        <time>2025-05-19T16:33:50Z</time>
      </trkpt>
      <trkpt lat="46.151039991527796" lon="8.746367013081908">
        <ele>215.94999999999999</ele>
        <time>2025-05-19T16:33:51Z</time>
      </trkpt>
      <trkpt lat="46.151079973205924" lon="8.746523000299931">
        <ele>215.47</ele>
        <time>2025-05-19T16:33:52Z</time>
      </trkpt>
      <trkpt lat="46.151119032874703" lon="8.746673036366701">
        <ele>214.99000000000001</ele>
        <time>2025-05-19T16:33:53Z</time>
      </trkpt>
      <trkpt lat="46.151159014552832" lon="8.746826006099582">
        <ele>214.50999999999999</ele>
        <time>2025-05-19T16:33:54Z</time>
      </trkpt>
      <trkpt lat="46.151443999260664" lon="8.747923029586673">
        <ele>212.59</ele>
        <time>2025-05-19T16:34:01Z</time>
      </trkpt>
      <trkpt lat="46.151475012302399" lon="8.748087985441089">
        <ele>212.59</ele>
        <time>2025-05-19T16:34:02Z</time>
      </trkpt>
      <trkpt lat="46.151496972888708" lon="8.748256964609027">
        <ele>212.59</ele>
        <time>2025-05-19T16:34:03Z</time>
      </trkpt>
      <trkpt lat="46.151489010080695" lon="8.748432984575629">
        <ele>212.59</ele>
        <time>2025-05-19T16:34:04Z</time>
      </trkpt>
      <trkpt lat="46.151462020352483" lon="8.748635994270444">
        <ele>213.06999999999999</ele>
        <time>2025-05-19T16:34:05Z</time>
      </trkpt>
      <trkpt lat="46.151398988440633" lon="8.74875602312386">
        <ele>213.06999999999999</ele>
        <time>2025-05-19T16:34:06Z</time>
      </trkpt>
      <trkpt lat="46.151324976235628" lon="8.748897006735206">
        <ele>213.55000000000001</ele>
        <time>2025-05-19T16:34:07Z</time>
      </trkpt>
      <trkpt lat="46.151250964030623" lon="8.749037990346551">
        <ele>214.03</ele>
        <time>2025-05-19T16:34:08Z</time>
      </trkpt>
      <trkpt lat="46.151206037029624" lon="8.749194983392954">
        <ele>214.50999999999999</ele>
        <time>2025-05-19T16:34:09Z</time>
      </trkpt>
      <trkpt lat="46.151161026209593" lon="8.749354993924499">
        <ele>214.99000000000001</ele>
        <time>2025-05-19T16:34:10Z</time>
      </trkpt>
      <trkpt lat="46.151122972369194" lon="8.74950997531414">
        <ele>214.99000000000001</ele>
        <time>2025-05-19T16:34:11Z</time>
      </trkpt>
      <trkpt lat="46.15109103731811" lon="8.749662023037672">
        <ele>215.47</ele>
        <time>2025-05-19T16:34:12Z</time>
      </trkpt>
      <trkpt lat="46.151080979034305" lon="8.749820021912456">
        <ele>215.94999999999999</ele>
        <time>2025-05-19T16:34:13Z</time>
      </trkpt>
      <trkpt lat="46.151089025661349" lon="8.749989001080394">
        <ele>215.94999999999999</ele>
        <time>2025-05-19T16:34:14Z</time>
      </trkpt>
      <trkpt lat="46.151101011782885" lon="8.750156974419951">
        <ele>215.94999999999999</ele>
        <time>2025-05-19T16:34:15Z</time>
      </trkpt>
      <trkpt lat="46.151450034230947" lon="8.751774011179805">
        <ele>215.47</ele>
        <time>2025-05-19T16:34:25Z</time>
      </trkpt>
      <trkpt lat="46.151764020323753" lon="8.753027021884918">
        <ele>214.99000000000001</ele>
        <time>2025-05-19T16:34:33Z</time>
      </trkpt>
      <trkpt lat="46.151804002001882" lon="8.753184014931321">
        <ele>214.99000000000001</ele>
        <time>2025-05-19T16:34:34Z</time>
      </trkpt>
      <trkpt lat="46.151859993115067" lon="8.753316029906273">
        <ele>214.50999999999999</ele>
        <time>2025-05-19T16:34:35Z</time>
      </trkpt>
      <trkpt lat="46.151941968128085" lon="8.753424994647503">
        <ele>214.50999999999999</ele>
        <time>2025-05-19T16:34:36Z</time>
      </trkpt>
      <trkpt lat="46.152026038616896" lon="8.753535971045494">
        <ele>214.50999999999999</ele>
        <time>2025-05-19T16:34:37Z</time>
      </trkpt>
      <trkpt lat="46.152358967810869" lon="8.753994964063168">
        <ele>213.55000000000001</ele>
        <time>2025-05-19T16:34:41Z</time>
      </trkpt>
      <trkpt lat="46.152420993894339" lon="8.754131002351642">
        <ele>213.06999999999999</ele>
        <time>2025-05-19T16:34:42Z</time>
      </trkpt>
      <trkpt lat="46.15293899551034" lon="8.755633039399982">
        <ele>211.63</ele>
        <time>2025-05-19T16:34:52Z</time>
      </trkpt>
      <trkpt lat="46.153280977159739" lon="8.756501991301775">
        <ele>212.11000000000001</ele>
        <time>2025-05-19T16:34:58Z</time>
      </trkpt>
      <trkpt lat="46.153330011293292" lon="8.756654039025307">
        <ele>211.63</ele>
        <time>2025-05-19T16:34:59Z</time>
      </trkpt>
      <trkpt lat="46.153378961607814" lon="8.756807008758187">
        <ele>211.63</ele>
        <time>2025-05-19T16:35:00Z</time>
      </trkpt>
      <trkpt lat="46.153461020439863" lon="8.757820967584848">
        <ele>210.19</ele>
        <time>2025-05-19T16:35:06Z</time>
      </trkpt>
      <trkpt lat="46.153478035703301" lon="8.757983995601535">
        <ele>210.19</ele>
        <time>2025-05-19T16:35:07Z</time>
      </trkpt>
      <trkpt lat="46.153493961319327" lon="8.758141994476318">
        <ele>210.19</ele>
        <time>2025-05-19T16:35:08Z</time>
      </trkpt>
      <trkpt lat="46.153539977967739" lon="8.758291024714708">
        <ele>210.66999999999999</ele>
        <time>2025-05-19T16:35:09Z</time>
      </trkpt>
      <trkpt lat="46.153598986566067" lon="8.758418010547757">
        <ele>210.66999999999999</ele>
        <time>2025-05-19T16:35:10Z</time>
      </trkpt>
      <trkpt lat="46.15435897372663" lon="8.760073017328978">
        <ele>213.55000000000001</ele>
        <time>2025-05-19T16:35:22Z</time>
      </trkpt>
      <trkpt lat="46.154630966484547" lon="8.760578026995063">
        <ele>214.50999999999999</ele>
        <time>2025-05-19T16:35:26Z</time>
      </trkpt>
      <trkpt lat="46.154779996722937" lon="8.760800985619426">
        <ele>214.99000000000001</ele>
        <time>2025-05-19T16:35:27Z</time>
      </trkpt>
      <trkpt lat="46.154877981171012" lon="8.760933000594378">
        <ele>214.99000000000001</ele>
        <time>2025-05-19T16:35:28Z</time>
      </trkpt>
      <trkpt lat="46.157805025577545" lon="8.764516012743115">
        <ele>214.99000000000001</ele>
        <time>2025-05-19T16:36:00Z</time>
      </trkpt>
      <trkpt lat="46.160607011988759" lon="8.76787799410522">
        <ele>220.75999999999999</ele>
        <time>2025-05-19T16:36:29Z</time>
      </trkpt>
      <trkpt lat="46.162237962707877" lon="8.772591976448894">
        <ele>218.36000000000001</ele>
        <time>2025-05-19T16:36:36Z</time>
      </trkpt>
      <trkpt lat="46.162211978808045" lon="8.77266900613904">
        <ele>217.88</ele>
        <time>2025-05-19T16:36:37Z</time>
      </trkpt>
      <trkpt lat="46.161937974393368" lon="8.773305024951696">
        <ele>216.43000000000001</ele>
        <time>2025-05-19T16:36:41Z</time>
      </trkpt>
      <trkpt lat="46.161633040755987" lon="8.774426020681858">
        <ele>214.99000000000001</ele>
        <time>2025-05-19T16:36:49Z</time>
      </trkpt>
      <trkpt lat="46.161579983308911" lon="8.774620983749628">
        <ele>214.99000000000001</ele>
        <time>2025-05-19T16:36:50Z</time>
      </trkpt>
      <trkpt lat="46.161579983308911" lon="8.774620983749628">
        <ele>214.99000000000001</ele>
        <time>2025-05-19T16:36:51Z</time>
      </trkpt>
      <trkpt lat="46.161558022722602" lon="8.774703964591026">
        <ele>214.99000000000001</ele>
        <time>2025-05-19T16:36:52Z</time>
      </trkpt>
      <trkpt lat="46.161537989974022" lon="8.77477596513927">
        <ele>214.99000000000001</ele>
        <time>2025-05-19T16:36:53Z</time>
      </trkpt>
      <trkpt lat="46.161520974710584" lon="8.77483899705112">
        <ele>214.99000000000001</ele>
        <time>2025-05-19T16:36:54Z</time>
      </trkpt>
      <trkpt lat="46.161506976932287" lon="8.774891970679164">
        <ele>214.99000000000001</ele>
        <time>2025-05-19T16:36:55Z</time>
      </trkpt>
      <trkpt lat="46.161494990810752" lon="8.774937987327576">
        <ele>214.99000000000001</ele>
        <time>2025-05-19T16:36:56Z</time>
      </trkpt>
      <trkpt lat="46.161484010517597" lon="8.774981992319226">
        <ele>214.99000000000001</ele>
        <time>2025-05-19T16:36:57Z</time>
      </trkpt>
      <trkpt lat="46.161408992484212" lon="8.77507503144443">
        <ele>214.99000000000001</ele>
        <time>2025-05-19T16:36:58Z</time>
      </trkpt>
      <trkpt lat="46.161359958350658" lon="8.77507695928216">
        <ele>214.99000000000001</ele>
        <time>2025-05-19T16:36:59Z</time>
      </trkpt>
      <trkpt lat="46.161154014989734" lon="8.775087017565966">
        <ele>214.99000000000001</ele>
        <time>2025-05-19T16:37:02Z</time>
      </trkpt>
      <trkpt lat="46.161074973642826" lon="8.775090035051107">
        <ele>214.99000000000001</ele>
        <time>2025-05-19T16:37:03Z</time>
      </trkpt>
      <trkpt lat="46.160925021395087" lon="8.774943016469479">
        <ele>214.99000000000001</ele>
        <time>2025-05-19T16:37:05Z</time>
      </trkpt>
      <trkpt lat="46.160807004198432" lon="8.775049969553947">
        <ele>214.99000000000001</ele>
        <time>2025-05-19T16:37:07Z</time>
      </trkpt>
      <trkpt lat="46.160786971449852" lon="8.7751180306077">
        <ele>215.47</ele>
        <time>2025-05-19T16:37:08Z</time>
      </trkpt>
      <trkpt lat="46.160785965621471" lon="8.775173015892506">
        <ele>215.47</ele>
        <time>2025-05-19T16:37:09Z</time>
      </trkpt>
      <trkpt lat="46.160826031118631" lon="8.77522699534893">
        <ele>215.47</ele>
        <time>2025-05-19T16:37:10Z</time>
      </trkpt>
      <trkpt lat="46.160871963948011" lon="8.775237975642085">
        <ele>215.47</ele>
        <time>2025-05-19T16:37:11Z</time>
      </trkpt>
      <trkpt lat="46.160936001688242" lon="8.775228001177311">
        <ele>214.99000000000001</ele>
        <time>2025-05-19T16:37:12Z</time>
      </trkpt>
      <trkpt lat="46.160936001688242" lon="8.775228001177311">
        <ele>214.99000000000001</ele>
        <time>2025-05-19T16:37:13Z</time>
      </trkpt>
      <trkpt lat="46.160968020558357" lon="8.775221966207027">
        <ele>214.99000000000001</ele>
        <time>2025-05-19T16:37:14Z</time>
      </trkpt>
      <trkpt lat="46.16187795996666" lon="8.774944022297859">
        <ele>215.47</ele>
        <time>2025-05-19T16:37:24Z</time>
      </trkpt>
      <trkpt lat="46.163044972345233" lon="8.77436600625515">
        <ele>214.03</ele>
        <time>2025-05-19T16:37:36Z</time>
      </trkpt>
      <trkpt lat="46.163128037005663" lon="8.774325018748641">
        <ele>214.03</ele>
        <time>2025-05-19T16:37:38Z</time>
      </trkpt>
      <trkpt lat="46.163376979529858" lon="8.774201972410083">
        <ele>214.50999999999999</ele>
        <time>2025-05-19T16:37:41Z</time>
      </trkpt>
      <trkpt lat="46.163772018626332" lon="8.774025030434132">
        <ele>214.50999999999999</ele>
        <time>2025-05-19T16:37:45Z</time>
      </trkpt>
      <trkpt lat="46.164386998862028" lon="8.773738034069538">
        <ele>213.55000000000001</ele>
        <time>2025-05-19T16:37:54Z</time>
      </trkpt>
      <trkpt lat="46.165404981002212" lon="8.773301001638174">
        <ele>216.43000000000001</ele>
        <time>2025-05-19T16:38:05Z</time>
      </trkpt>
      <trkpt lat="46.165517969056964" lon="8.773316005244851">
        <ele>217.40000000000001</ele>
        <time>2025-05-19T16:38:07Z</time>
      </trkpt>
      <trkpt lat="46.165576977655292" lon="8.773325979709625">
        <ele>217.40000000000001</ele>
        <time>2025-05-19T16:38:08Z</time>
      </trkpt>
      <trkpt lat="46.165708992630243" lon="8.773384988307953">
        <ele>218.36000000000001</ele>
        <time>2025-05-19T16:38:10Z</time>
      </trkpt>
      <trkpt lat="46.166387004777789" lon="8.774074986577034">
        <ele>219.80000000000001</ele>
        <time>2025-05-19T16:38:19Z</time>
      </trkpt>
      <trkpt lat="46.167602967470884" lon="8.775557996705174">
        <ele>224.61000000000001</ele>
        <time>2025-05-19T16:38:35Z</time>
      </trkpt>
      <trkpt lat="46.167891975492239" lon="8.775897966697812">
        <ele>224.12</ele>
        <time>2025-05-19T16:38:39Z</time>
      </trkpt>
      <trkpt lat="46.168039999902248" lon="8.77634203992784">
        <ele>222.68000000000001</ele>
        <time>2025-05-19T16:38:43Z</time>
      </trkpt>
      <trkpt lat="46.168067995458841" lon="8.776437006890774">
        <ele>222.68000000000001</ele>
        <time>2025-05-19T16:38:44Z</time>
      </trkpt>
      <trkpt lat="46.168067995458841" lon="8.776437006890774">
        <ele>222.19999999999999</ele>
        <time>2025-05-19T16:38:45Z</time>
      </trkpt>
      <trkpt lat="46.167879989370704" lon="8.777673002332449">
        <ele>222.68000000000001</ele>
        <time>2025-05-19T16:38:55Z</time>
      </trkpt>
      <trkpt lat="46.167712016031146" lon="8.778669023886323">
        <ele>225.09</ele>
        <time>2025-05-19T16:39:02Z</time>
      </trkpt>
      <trkpt lat="46.167689971625805" lon="8.77881595864892">
        <ele>226.05000000000001</ele>
        <time>2025-05-19T16:39:03Z</time>
      </trkpt>
      <trkpt lat="46.167531972751021" lon="8.779798988252878">
        <ele>231.81</ele>
        <time>2025-05-19T16:39:10Z</time>
      </trkpt>
      <trkpt lat="46.167336003854871" lon="8.780900035053492">
        <ele>235.18000000000001</ele>
        <time>2025-05-19T16:39:18Z</time>
      </trkpt>
      <trkpt lat="46.167281018570065" lon="8.782506007701159">
        <ele>236.62</ele>
        <time>2025-05-19T16:39:29Z</time>
      </trkpt>
      <trkpt lat="46.167241958901286" lon="8.784107035025954">
        <ele>235.18000000000001</ele>
        <time>2025-05-19T16:39:39Z</time>
      </trkpt>
      <trkpt lat="46.167251011356711" lon="8.785356022417545">
        <ele>234.22</ele>
        <time>2025-05-19T16:39:47Z</time>
      </trkpt>
      <trkpt lat="46.167254028841853" lon="8.785515027120709">
        <ele>234.22</ele>
        <time>2025-05-19T16:39:48Z</time>
      </trkpt>
      <trkpt lat="46.16727096028626" lon="8.785670008510351">
        <ele>233.74000000000001</ele>
        <time>2025-05-19T16:39:49Z</time>
      </trkpt>
      <trkpt lat="46.167315971106291" lon="8.785975025966764">
        <ele>233.25999999999999</ele>
        <time>2025-05-19T16:39:51Z</time>
      </trkpt>
      <trkpt lat="46.167487967759371" lon="8.787091998383403">
        <ele>228.44999999999999</ele>
        <time>2025-05-19T16:39:58Z</time>
      </trkpt>
      <trkpt lat="46.167546976357698" lon="8.787378994747996">
        <ele>226.53</ele>
        <time>2025-05-19T16:40:00Z</time>
      </trkpt>
      <trkpt lat="46.167600033804774" lon="8.787637995555997">
        <ele>224.61000000000001</ele>
        <time>2025-05-19T16:40:02Z</time>
      </trkpt>
      <trkpt lat="46.167624006047845" lon="8.787758024409413">
        <ele>223.16</ele>
        <time>2025-05-19T16:40:03Z</time>
      </trkpt>
      <trkpt lat="46.167644038796425" lon="8.787870006635785">
        <ele>222.68000000000001</ele>
        <time>2025-05-19T16:40:04Z</time>
      </trkpt>
      <trkpt lat="46.167662981897593" lon="8.787976959720254">
        <ele>222.19999999999999</ele>
        <time>2025-05-19T16:40:05Z</time>
      </trkpt>
      <trkpt lat="46.167679997161031" lon="8.788075027987361">
        <ele>221.72</ele>
        <time>2025-05-19T16:40:06Z</time>
      </trkpt>
      <trkpt lat="46.167733976617455" lon="8.788385996595025">
        <ele>219.31999999999999</ele>
        <time>2025-05-19T16:40:13Z</time>
      </trkpt>
      <trkpt lat="46.167745040729642" lon="8.788447016850114">
        <ele>219.80000000000001</ele>
        <time>2025-05-19T16:40:32Z</time>
      </trkpt>
      <trkpt lat="46.167756021022797" lon="8.788509964942932">
        <ele>219.80000000000001</ele>
        <time>2025-05-19T16:40:33Z</time>
      </trkpt>
      <trkpt lat="46.167796002700925" lon="8.788821017369628">
        <ele>219.31999999999999</ele>
        <time>2025-05-19T16:40:37Z</time>
      </trkpt>
      <trkpt lat="46.167813017964363" lon="8.78897700458765">
        <ele>218.36000000000001</ele>
        <time>2025-05-19T16:40:39Z</time>
      </trkpt>
      <trkpt lat="46.167808994650841" lon="8.789034001529217">
        <ele>218.36000000000001</ele>
        <time>2025-05-19T16:40:40Z</time>
      </trkpt>
      <trkpt lat="46.167804971337318" lon="8.789107007905841">
        <ele>217.88</ele>
        <time>2025-05-19T16:40:41Z</time>
      </trkpt>
      <trkpt lat="46.167598022148013" lon="8.78942702896893">
        <ele>216.91</ele>
        <time>2025-05-19T16:40:44Z</time>
      </trkpt>
      <trkpt lat="46.167568014934659" lon="8.789453012868762">
        <ele>216.91</ele>
        <time>2025-05-19T16:40:45Z</time>
      </trkpt>
      <trkpt lat="46.167568014934659" lon="8.789453012868762">
        <ele>216.43000000000001</ele>
        <time>2025-05-19T16:40:46Z</time>
      </trkpt>
      <trkpt lat="46.167502971366048" lon="8.789507998153567">
        <ele>216.43000000000001</ele>
        <time>2025-05-19T16:40:47Z</time>
      </trkpt>
      <trkpt lat="46.167438011616468" lon="8.789562983438373">
        <ele>215.94999999999999</ele>
        <time>2025-05-19T16:40:48Z</time>
      </trkpt>
      <trkpt lat="46.167372968047857" lon="8.789617968723178">
        <ele>215.94999999999999</ele>
        <time>2025-05-19T16:40:49Z</time>
      </trkpt>
      <trkpt lat="46.16726802662015" lon="8.789760963991284">
        <ele>215.94999999999999</ele>
        <time>2025-05-19T16:40:51Z</time>
      </trkpt>
      <trkpt lat="46.167221004143357" lon="8.789851991459727">
        <ele>215.94999999999999</ele>
        <time>2025-05-19T16:40:52Z</time>
      </trkpt>
      <trkpt lat="46.167172975838184" lon="8.78994301892817">
        <ele>215.94999999999999</ele>
        <time>2025-05-19T16:40:53Z</time>
      </trkpt>
      <trkpt lat="46.16684197448194" lon="8.790939040482044">
        <ele>216.91</ele>
        <time>2025-05-19T16:41:02Z</time>
      </trkpt>
      <trkpt lat="46.16681800223887" lon="8.791199969127774">
        <ele>216.91</ele>
        <time>2025-05-19T16:41:04Z</time>
      </trkpt>
      <trkpt lat="46.166804004460573" lon="8.79133801907301">
        <ele>216.91</ele>
        <time>2025-05-19T16:41:05Z</time>
      </trkpt>
      <trkpt lat="46.166823031380773" lon="8.791471039876342">
        <ele>216.91</ele>
        <time>2025-05-19T16:41:06Z</time>
      </trkpt>
      <trkpt lat="46.166826970875263" lon="8.791620992124081">
        <ele>216.43000000000001</ele>
        <time>2025-05-19T16:41:07Z</time>
      </trkpt>
      <trkpt lat="46.166855972260237" lon="8.791744038462639">
        <ele>216.43000000000001</ele>
        <time>2025-05-19T16:41:08Z</time>
      </trkpt>
      <trkpt lat="46.166894026100636" lon="8.791891979053617">
        <ele>215.94999999999999</ele>
        <time>2025-05-19T16:41:09Z</time>
      </trkpt>
      <trkpt lat="46.166943982243538" lon="8.792013013735414">
        <ele>215.47</ele>
        <time>2025-05-19T16:41:10Z</time>
      </trkpt>
      <trkpt lat="46.167042972519994" lon="8.792252987623215">
        <ele>215.47</ele>
        <time>2025-05-19T16:41:11Z</time>
      </trkpt>
      <trkpt lat="46.167088989168406" lon="8.792362958192825">
        <ele>214.99000000000001</ele>
        <time>2025-05-19T16:41:12Z</time>
      </trkpt>
      <trkpt lat="46.167125031352043" lon="8.792450968176127">
        <ele>214.50999999999999</ele>
        <time>2025-05-19T16:41:13Z</time>
      </trkpt>
      <trkpt lat="46.167109021916986" lon="8.792505031451583">
        <ele>214.03</ele>
        <time>2025-05-19T16:41:14Z</time>
      </trkpt>
      <trkpt lat="46.167109021916986" lon="8.792505031451583">
        <ele>213.55000000000001</ele>
        <time>2025-05-19T16:41:15Z</time>
      </trkpt>
      <trkpt lat="46.167093012481928" lon="8.792553981766105">
        <ele>213.06999999999999</ele>
        <time>2025-05-19T16:41:16Z</time>
      </trkpt>
      <trkpt lat="46.167083038017154" lon="8.792580971494317">
        <ele>212.59</ele>
        <time>2025-05-19T16:41:17Z</time>
      </trkpt>
      <trkpt lat="46.167083038017154" lon="8.792580971494317">
        <ele>212.59</ele>
        <time>2025-05-19T16:41:18Z</time>
      </trkpt>
      <trkpt lat="46.167071973904967" lon="8.792617013677955">
        <ele>212.11000000000001</ele>
        <time>2025-05-19T16:41:19Z</time>
      </trkpt>
      <trkpt lat="46.167061999440193" lon="8.792646015062928">
        <ele>211.63</ele>
        <time>2025-05-19T16:41:20Z</time>
      </trkpt>
      <trkpt lat="46.167040038853884" lon="8.792639980092645">
        <ele>211.63</ele>
        <time>2025-05-19T16:41:21Z</time>
      </trkpt>
      <trkpt lat="46.166982958093286" lon="8.792623970657587">
        <ele>211.15000000000001</ele>
        <time>2025-05-19T16:41:22Z</time>
      </trkpt>
      <trkpt lat="46.166912969201803" lon="8.792604021728039">
        <ele>210.66999999999999</ele>
        <time>2025-05-19T16:41:23Z</time>
      </trkpt>
      <trkpt lat="46.16683803498745" lon="8.792581977322698">
        <ele>210.66999999999999</ele>
        <time>2025-05-19T16:41:24Z</time>
      </trkpt>
      <trkpt lat="46.166734015569091" lon="8.792576026171446">
        <ele>210.19</ele>
        <time>2025-05-19T16:41:25Z</time>
      </trkpt>
      <trkpt lat="46.166657991707325" lon="8.792621959000826">
        <ele>210.19</ele>
        <time>2025-05-19T16:41:26Z</time>
      </trkpt>
      <trkpt lat="46.166578028351068" lon="8.792669987305999">
        <ele>210.19</ele>
        <time>2025-05-19T16:41:27Z</time>
      </trkpt>
      <trkpt lat="46.166499992832541" lon="8.792717009782791">
        <ele>209.69999999999999</ele>
        <time>2025-05-19T16:41:28Z</time>
      </trkpt>
      <trkpt lat="46.16641198284924" lon="8.792808037251234">
        <ele>209.22</ele>
        <time>2025-05-19T16:41:29Z</time>
      </trkpt>
      <trkpt lat="46.166366972029209" lon="8.792910967022181">
        <ele>209.22</ele>
        <time>2025-05-19T16:41:30Z</time>
      </trkpt>
      <trkpt lat="46.166323972865939" lon="8.793012974783778">
        <ele>208.74000000000001</ele>
        <time>2025-05-19T16:41:31Z</time>
      </trkpt>
      <trkpt lat="46.166289020329714" lon="8.793096961453557">
        <ele>208.74000000000001</ele>
        <time>2025-05-19T16:41:32Z</time>
      </trkpt>
      <trkpt lat="46.166289020329714" lon="8.793263006955385">
        <ele>208.74000000000001</ele>
        <time>2025-05-19T16:41:33Z</time>
      </trkpt>
      <trkpt lat="46.166289020329714" lon="8.793400973081589">
        <ele>208.74000000000001</ele>
        <time>2025-05-19T16:41:34Z</time>
      </trkpt>
      <trkpt lat="46.166289020329714" lon="8.793541034683585">
        <ele>208.74000000000001</ele>
        <time>2025-05-19T16:41:35Z</time>
      </trkpt>
      <trkpt lat="46.166327996179461" lon="8.793658968061209">
        <ele>208.74000000000001</ele>
        <time>2025-05-19T16:41:36Z</time>
      </trkpt>
      <trkpt lat="46.166369989514351" lon="8.793780002743006">
        <ele>208.74000000000001</ele>
        <time>2025-05-19T16:41:37Z</time>
      </trkpt>
      <trkpt lat="46.166461016982794" lon="8.794041015207768">
        <ele>208.74000000000001</ele>
        <time>2025-05-19T16:41:38Z</time>
      </trkpt>
      <trkpt lat="46.166461016982794" lon="8.794041015207768">
        <ele>208.74000000000001</ele>
        <time>2025-05-19T16:41:39Z</time>
      </trkpt>
      <trkpt lat="46.166536035016179" lon="8.794131958857179">
        <ele>208.74000000000001</ele>
        <time>2025-05-19T16:41:40Z</time>
      </trkpt>
      <trkpt lat="46.166632007807493" lon="8.79417504183948">
        <ele>208.74000000000001</ele>
        <time>2025-05-19T16:41:41Z</time>
      </trkpt>
      <trkpt lat="46.166725968942046" lon="8.794201025739312">
        <ele>208.74000000000001</ele>
        <time>2025-05-19T16:41:42Z</time>
      </trkpt>
      <trkpt lat="46.166815990582108" lon="8.794224997982383">
        <ele>208.74000000000001</ele>
        <time>2025-05-19T16:41:43Z</time>
      </trkpt>
      <trkpt lat="46.166892014443874" lon="8.794292975217104">
        <ele>208.25999999999999</ele>
        <time>2025-05-19T16:41:44Z</time>
      </trkpt>
      <trkpt lat="46.166954040527344" lon="8.794376039877534">
        <ele>208.25999999999999</ele>
        <time>2025-05-19T16:41:45Z</time>
      </trkpt>
      <trkpt lat="46.167009025812149" lon="8.794449968263507">
        <ele>208.25999999999999</ele>
        <time>2025-05-19T16:41:46Z</time>
      </trkpt>
      <trkpt lat="46.167052024975419" lon="8.794548036530614">
        <ele>208.25999999999999</ele>
        <time>2025-05-19T16:41:47Z</time>
      </trkpt>
      <trkpt lat="46.167073985561728" lon="8.794658007100225">
        <ele>208.25999999999999</ele>
        <time>2025-05-19T16:41:48Z</time>
      </trkpt>
      <trkpt lat="46.167116984724998" lon="8.794873002916575">
        <ele>208.25999999999999</ele>
        <time>2025-05-19T16:41:50Z</time>
      </trkpt>
      <trkpt lat="46.167253023013473" lon="8.79552997648716">
        <ele>209.22</ele>
        <time>2025-05-19T16:41:58Z</time>
      </trkpt>
      <trkpt lat="46.167396018281579" lon="8.796188039705157">
        <ele>209.69999999999999</ele>
        <time>2025-05-19T16:42:04Z</time>
      </trkpt>
      <trkpt lat="46.167418984696269" lon="8.79630396142602">
        <ele>209.69999999999999</ele>
        <time>2025-05-19T16:42:05Z</time>
      </trkpt>
      <trkpt lat="46.167556028813124" lon="8.7970320135355">
        <ele>211.15000000000001</ele>
        <time>2025-05-19T16:42:11Z</time>
      </trkpt>
      <trkpt lat="46.167580001056194" lon="8.797160005196929">
        <ele>211.63</ele>
        <time>2025-05-19T16:42:12Z</time>
      </trkpt>
      <trkpt lat="46.167876971885562" lon="8.798761032521725">
        <ele>214.99000000000001</ele>
        <time>2025-05-19T16:42:24Z</time>
      </trkpt>
      <trkpt lat="46.168027007952332" lon="8.799540968611836">
        <ele>214.03</ele>
        <time>2025-05-19T16:42:31Z</time>
      </trkpt>
      <trkpt lat="46.168037988245487" lon="8.799598971381784">
        <ele>214.03</ele>
        <time>2025-05-19T16:42:32Z</time>
      </trkpt>
      <trkpt lat="46.168046034872532" lon="8.799639958888292">
        <ele>214.03</ele>
        <time>2025-05-19T16:42:33Z</time>
      </trkpt>
      <trkpt lat="46.168046034872532" lon="8.799639958888292">
        <ele>214.03</ele>
        <time>2025-05-19T16:42:42Z</time>
      </trkpt>
      <trkpt lat="46.168087022379041" lon="8.799854032695293">
        <ele>216.91</ele>
        <time>2025-05-19T16:43:02Z</time>
      </trkpt>
      <trkpt lat="46.168105965480208" lon="8.799951011314988">
        <ele>217.40000000000001</ele>
        <time>2025-05-19T16:43:03Z</time>
      </trkpt>
      <trkpt lat="46.168147036805749" lon="8.800168018788099">
        <ele>217.40000000000001</ele>
        <time>2025-05-19T16:43:05Z</time>
      </trkpt>
      <trkpt lat="46.168168997392058" lon="8.800286035984755">
        <ele>217.88</ele>
        <time>2025-05-19T16:43:06Z</time>
      </trkpt>
      <trkpt lat="46.16821501404047" lon="8.800530033186078">
        <ele>217.88</ele>
        <time>2025-05-19T16:43:08Z</time>
      </trkpt>
      <trkpt lat="46.168287014588714" lon="8.80090101622045">
        <ele>217.88</ele>
        <time>2025-05-19T16:43:11Z</time>
      </trkpt>
      <trkpt lat="46.168374018743634" lon="8.801349028944969">
        <ele>217.40000000000001</ele>
        <time>2025-05-19T16:43:15Z</time>
      </trkpt>
      <trkpt lat="46.168392039835453" lon="8.80143997259438">
        <ele>217.40000000000001</ele>
        <time>2025-05-19T16:43:16Z</time>
      </trkpt>
      <trkpt lat="46.168406959623098" lon="8.801517002284527">
        <ele>216.91</ele>
        <time>2025-05-19T16:43:17Z</time>
      </trkpt>
      <trkpt lat="46.168482983484864" lon="8.801495963707566">
        <ele>216.91</ele>
        <time>2025-05-19T16:43:18Z</time>
      </trkpt>
      <trkpt lat="46.168540986254811" lon="8.801450030878186">
        <ele>216.43000000000001</ele>
        <time>2025-05-19T16:43:19Z</time>
      </trkpt>
      <trkpt lat="46.168603012338281" lon="8.801400996744633">
        <ele>216.43000000000001</ele>
        <time>2025-05-19T16:43:20Z</time>
      </trkpt>
      <trkpt lat="46.169312037527561" lon="8.800958013162017">
        <ele>213.06999999999999</ele>
        <time>2025-05-19T16:43:30Z</time>
      </trkpt>
      <trkpt lat="46.169807994738221" lon="8.800735976547003">
        <ele>212.11000000000001</ele>
        <time>2025-05-19T16:43:39Z</time>
      </trkpt>
      <trkpt lat="46.16982601583004" lon="8.80072901956737">
        <ele>211.63</ele>
        <time>2025-05-19T16:43:51Z</time>
      </trkpt>
      <trkpt lat="46.170046962797642" lon="8.80064201541245">
        <ele>210.66999999999999</ele>
        <time>2025-05-19T16:43:59Z</time>
      </trkpt>
      <trkpt lat="46.170530011877418" lon="8.800402963533998">
        <ele>208.25999999999999</ele>
        <time>2025-05-19T16:44:11Z</time>
      </trkpt>
      <trkpt lat="46.170876016840339" lon="8.800075985491276">
        <ele>207.30000000000001</ele>
        <time>2025-05-19T16:44:21Z</time>
      </trkpt>
      <trkpt lat="46.17092203348875" lon="8.800029968842864">
        <ele>206.81999999999999</ele>
        <time>2025-05-19T16:44:22Z</time>
      </trkpt>
      <trkpt lat="46.17096696048975" lon="8.799985041841865">
        <ele>206.81999999999999</ele>
        <time>2025-05-19T16:44:23Z</time>
      </trkpt>
      <trkpt lat="46.171017000451684" lon="8.799959979951382">
        <ele>206.34</ele>
        <time>2025-05-19T16:44:24Z</time>
      </trkpt>
      <trkpt lat="46.171118002384901" lon="8.799919998273253">
        <ele>206.34</ele>
        <time>2025-05-19T16:44:25Z</time>
      </trkpt>
      <trkpt lat="46.171119008213282" lon="8.799919998273253">
        <ele>206.34</ele>
        <time>2025-05-19T16:44:26Z</time>
      </trkpt>
      <trkpt lat="46.171171981841326" lon="8.799919998273253">
        <ele>205.86000000000001</ele>
        <time>2025-05-19T16:44:27Z</time>
      </trkpt>
      <trkpt lat="46.171278012916446" lon="8.799947993829846">
        <ele>205.38</ele>
        <time>2025-05-19T16:44:29Z</time>
      </trkpt>
      <trkpt lat="46.171332998201251" lon="8.799975989386439">
        <ele>205.38</ele>
        <time>2025-05-19T16:44:30Z</time>
      </trkpt>
      <trkpt lat="46.171881007030606" lon="8.800249993801117">
        <ele>207.78</ele>
        <time>2025-05-19T16:44:38Z</time>
      </trkpt>
      <trkpt lat="46.172387022525072" lon="8.800436994060874">
        <ele>212.11000000000001</ele>
        <time>2025-05-19T16:44:45Z</time>
      </trkpt>
      <trkpt lat="46.172452988103032" lon="8.80047001875937">
        <ele>212.59</ele>
        <time>2025-05-19T16:44:46Z</time>
      </trkpt>
      <trkpt lat="46.172519959509373" lon="8.800503965467215">
        <ele>213.06999999999999</ele>
        <time>2025-05-19T16:44:47Z</time>
      </trkpt>
      <trkpt lat="46.17257603444159" lon="8.800563979893923">
        <ele>213.55000000000001</ele>
        <time>2025-05-19T16:44:48Z</time>
      </trkpt>
      <trkpt lat="46.172630013898015" lon="8.800691971555352">
        <ele>213.55000000000001</ele>
        <time>2025-05-19T16:44:49Z</time>
      </trkpt>
      <trkpt lat="46.172671001404524" lon="8.800790961831808">
        <ele>214.03</ele>
        <time>2025-05-19T16:44:50Z</time>
      </trkpt>
      <trkpt lat="46.172897983342409" lon="8.801336036995053">
        <ele>218.36000000000001</ele>
        <time>2025-05-19T16:44:58Z</time>
      </trkpt>
      <trkpt lat="46.172897983342409" lon="8.801336036995053">
        <ele>218.84</ele>
        <time>2025-05-19T16:45:03Z</time>
      </trkpt>
      <trkpt lat="46.173201994970441" lon="8.801523959264159">
        <ele>219.31999999999999</ele>
        <time>2025-05-19T16:45:10Z</time>
      </trkpt>
      <trkpt lat="46.173201994970441" lon="8.801523959264159">
        <ele>219.31999999999999</ele>
        <time>2025-05-19T16:45:33Z</time>
      </trkpt>
      <trkpt lat="46.173205012455583" lon="8.801523959264159">
        <ele>219.31999999999999</ele>
        <time>2025-05-19T16:46:13Z</time>
      </trkpt>
      <trkpt lat="46.17313401773572" lon="8.801680030301213">
        <ele>221.24000000000001</ele>
        <time>2025-05-19T16:46:26Z</time>
      </trkpt>
      <trkpt lat="46.17313401773572" lon="8.801680030301213">
        <ele>220.75999999999999</ele>
        <time>2025-05-19T16:46:27Z</time>
      </trkpt>
      <trkpt lat="46.17313401773572" lon="8.801680030301213">
        <ele>220.28</ele>
        <time>2025-05-19T16:46:28Z</time>
      </trkpt>
      <trkpt lat="46.173454960808158" lon="8.801865018904209">
        <ele>218.36000000000001</ele>
        <time>2025-05-19T16:46:35Z</time>
      </trkpt>
      <trkpt lat="46.17356400936842" lon="8.801806010305882">
        <ele>217.40000000000001</ele>
        <time>2025-05-19T16:46:39Z</time>
      </trkpt>
      <trkpt lat="46.173556968569756" lon="8.801747001707554">
        <ele>217.40000000000001</ele>
        <time>2025-05-19T16:46:40Z</time>
      </trkpt>
      <trkpt lat="46.17354397661984" lon="8.801637031137943">
        <ele>216.91</ele>
        <time>2025-05-19T16:46:41Z</time>
      </trkpt>
      <trkpt lat="46.17354397661984" lon="8.801637031137943">
        <ele>216.91</ele>
        <time>2025-05-19T16:46:42Z</time>
      </trkpt>
      <trkpt lat="46.173537019640207" lon="8.801576010882855">
        <ele>216.43000000000001</ele>
        <time>2025-05-19T16:46:43Z</time>
      </trkpt>
      <trkpt lat="46.173536013811827" lon="8.801576010882855">
        <ele>216.43000000000001</ele>
        <time>2025-05-19T16:46:44Z</time>
      </trkpt>
      <trkpt lat="46.173339039087296" lon="8.801755970343947">
        <ele>215.47</ele>
        <time>2025-05-19T16:46:57Z</time>
      </trkpt>
    </trkseg>
  </trk>

</gpx>